<?xml version="1.0" encoding="UTF-8" standalone="no" ?>
<gpx xmlns="http://www.topografix.com/GPX/1/1" xmlns:xsi="http://www.w3.org/2001/XMLSchema-instance" xsi:schemaLocation="http://www.topografix.com/GPX/1/1 http://www.topografix.com/GPX/1/1/gpx.xsd" version="1.1" creator="VisuGPX - https://www.visugpx.com">
  <metadata>
    <name>Hardangervidda 2019</name>
  </metadata>
  <trk>
    <name><![CDATA[2019-04-01]]></name>
    <trkseg>
      <trkpt lat="60.36884" lon="7.50509">
        <ele>1235.91</ele>
        <time>2019-04-01T11:51:27Z</time>
      </trkpt>
      <trkpt lat="60.36884" lon="7.50509">
        <ele>1235.91</ele>
        <time>2019-04-01T11:51:29Z</time>
      </trkpt>
      <trkpt lat="60.36884" lon="7.50508">
        <ele>1245.53</ele>
        <time>2019-04-01T11:51:33Z</time>
      </trkpt>
      <trkpt lat="60.36884" lon="7.50508">
        <ele>1243.6</ele>
        <time>2019-04-01T11:51:34Z</time>
      </trkpt>
      <trkpt lat="60.36883" lon="7.50509">
        <ele>1243.12</ele>
        <time>2019-04-01T11:52:13Z</time>
      </trkpt>
      <trkpt lat="60.36883" lon="7.50509">
        <ele>1243.12</ele>
        <time>2019-04-01T11:52:51Z</time>
      </trkpt>
      <trkpt lat="60.36886" lon="7.50508">
        <ele>1243.12</ele>
        <time>2019-04-01T11:53:14Z</time>
      </trkpt>
      <trkpt lat="60.36886" lon="7.50506">
        <ele>1243.12</ele>
        <time>2019-04-01T11:53:49Z</time>
      </trkpt>
      <trkpt lat="60.36886" lon="7.50507">
        <ele>1243.12</ele>
        <time>2019-04-01T11:54:07Z</time>
      </trkpt>
      <trkpt lat="60.36888" lon="7.5051">
        <ele>1243.12</ele>
        <time>2019-04-01T11:54:09Z</time>
      </trkpt>
      <trkpt lat="60.36894" lon="7.50538">
        <ele>1243.12</ele>
        <time>2019-04-01T11:54:23Z</time>
      </trkpt>
      <trkpt lat="60.36896" lon="7.50546">
        <ele>1243.12</ele>
        <time>2019-04-01T11:54:28Z</time>
      </trkpt>
      <trkpt lat="60.36902" lon="7.50549">
        <ele>1243.12</ele>
        <time>2019-04-01T11:54:35Z</time>
      </trkpt>
      <trkpt lat="60.36914" lon="7.50543">
        <ele>1244.56</ele>
        <time>2019-04-01T11:54:48Z</time>
      </trkpt>
      <trkpt lat="60.36928" lon="7.50536">
        <ele>1245.53</ele>
        <time>2019-04-01T11:55:03Z</time>
      </trkpt>
      <trkpt lat="60.36942" lon="7.50534">
        <ele>1246.97</ele>
        <time>2019-04-01T11:55:18Z</time>
      </trkpt>
      <trkpt lat="60.36952" lon="7.5053">
        <ele>1246.97</ele>
        <time>2019-04-01T11:55:29Z</time>
      </trkpt>
      <trkpt lat="60.36957" lon="7.5053">
        <ele>1246.97</ele>
        <time>2019-04-01T11:55:33Z</time>
      </trkpt>
      <trkpt lat="60.36973" lon="7.50527">
        <ele>1245.04</ele>
        <time>2019-04-01T11:55:46Z</time>
      </trkpt>
      <trkpt lat="60.36994" lon="7.50525">
        <ele>1241.68</ele>
        <time>2019-04-01T11:55:58Z</time>
      </trkpt>
      <trkpt lat="60.37004" lon="7.50524">
        <ele>1240.72</ele>
        <time>2019-04-01T11:56:10Z</time>
      </trkpt>
      <trkpt lat="60.37004" lon="7.50524">
        <ele>1240.72</ele>
        <time>2019-04-01T11:56:14Z</time>
      </trkpt>
      <trkpt lat="60.37013" lon="7.50514">
        <ele>1239.76</ele>
        <time>2019-04-01T11:56:25Z</time>
      </trkpt>
      <trkpt lat="60.37029" lon="7.50546">
        <ele>1239.76</ele>
        <time>2019-04-01T11:56:29Z</time>
      </trkpt>
      <trkpt lat="60.3703" lon="7.50513">
        <ele>1239.76</ele>
        <time>2019-04-01T11:56:43Z</time>
      </trkpt>
      <trkpt lat="60.37029" lon="7.50509">
        <ele>1239.76</ele>
        <time>2019-04-01T11:56:47Z</time>
      </trkpt>
      <trkpt lat="60.3703" lon="7.50507">
        <ele>1239.76</ele>
        <time>2019-04-01T11:56:49Z</time>
      </trkpt>
      <trkpt lat="60.3704" lon="7.50481">
        <ele>1241.2</ele>
        <time>2019-04-01T11:57:03Z</time>
      </trkpt>
      <trkpt lat="60.37046" lon="7.50448">
        <ele>1242.16</ele>
        <time>2019-04-01T11:57:20Z</time>
      </trkpt>
      <trkpt lat="60.37054" lon="7.50429">
        <ele>1243.12</ele>
        <time>2019-04-01T11:57:33Z</time>
      </trkpt>
      <trkpt lat="60.37062" lon="7.50406">
        <ele>1245.04</ele>
        <time>2019-04-01T11:57:49Z</time>
      </trkpt>
      <trkpt lat="60.3707" lon="7.50381">
        <ele>1247.93</ele>
        <time>2019-04-01T11:58:06Z</time>
      </trkpt>
      <trkpt lat="60.37077" lon="7.50357">
        <ele>1250.81</ele>
        <time>2019-04-01T11:58:23Z</time>
      </trkpt>
      <trkpt lat="60.37077" lon="7.50355">
        <ele>1250.81</ele>
        <time>2019-04-01T11:58:41Z</time>
      </trkpt>
      <trkpt lat="60.37077" lon="7.50355">
        <ele>1250.81</ele>
        <time>2019-04-01T11:59:05Z</time>
      </trkpt>
      <trkpt lat="60.37077" lon="7.50355">
        <ele>1250.81</ele>
        <time>2019-04-01T11:59:24Z</time>
      </trkpt>
      <trkpt lat="60.37078" lon="7.50355">
        <ele>1251.29</ele>
        <time>2019-04-01T11:59:42Z</time>
      </trkpt>
      <trkpt lat="60.37077" lon="7.50355">
        <ele>1251.29</ele>
        <time>2019-04-01T12:00:02Z</time>
      </trkpt>
      <trkpt lat="60.37078" lon="7.50353">
        <ele>1251.29</ele>
        <time>2019-04-01T12:00:23Z</time>
      </trkpt>
      <trkpt lat="60.3708" lon="7.50355">
        <ele>1251.29</ele>
        <time>2019-04-01T12:00:46Z</time>
      </trkpt>
      <trkpt lat="60.37087" lon="7.50359">
        <ele>1253.7</ele>
        <time>2019-04-01T12:00:59Z</time>
      </trkpt>
      <trkpt lat="60.37098" lon="7.50363">
        <ele>1256.58</ele>
        <time>2019-04-01T12:01:14Z</time>
      </trkpt>
      <trkpt lat="60.37107" lon="7.50367">
        <ele>1258.5</ele>
        <time>2019-04-01T12:01:30Z</time>
      </trkpt>
      <trkpt lat="60.37114" lon="7.50372">
        <ele>1260.43</ele>
        <time>2019-04-01T12:01:41Z</time>
      </trkpt>
      <trkpt lat="60.37123" lon="7.50375">
        <ele>1262.35</ele>
        <time>2019-04-01T12:01:57Z</time>
      </trkpt>
      <trkpt lat="60.37125" lon="7.50377">
        <ele>1262.35</ele>
        <time>2019-04-01T12:02:15Z</time>
      </trkpt>
      <trkpt lat="60.37127" lon="7.5038">
        <ele>1262.83</ele>
        <time>2019-04-01T12:02:48Z</time>
      </trkpt>
      <trkpt lat="60.37142" lon="7.50389">
        <ele>1264.75</ele>
        <time>2019-04-01T12:03:05Z</time>
      </trkpt>
      <trkpt lat="60.37159" lon="7.50406">
        <ele>1267.16</ele>
        <time>2019-04-01T12:03:25Z</time>
      </trkpt>
      <trkpt lat="60.37174" lon="7.50422">
        <ele>1269.56</ele>
        <time>2019-04-01T12:03:43Z</time>
      </trkpt>
      <trkpt lat="60.37187" lon="7.50436">
        <ele>1271.48</ele>
        <time>2019-04-01T12:04:01Z</time>
      </trkpt>
      <trkpt lat="60.37187" lon="7.50439">
        <ele>1271.96</ele>
        <time>2019-04-01T12:04:20Z</time>
      </trkpt>
      <trkpt lat="60.37191" lon="7.50442">
        <ele>1272.92</ele>
        <time>2019-04-01T12:04:39Z</time>
      </trkpt>
      <trkpt lat="60.37206" lon="7.50461">
        <ele>1275.81</ele>
        <time>2019-04-01T12:04:57Z</time>
      </trkpt>
      <trkpt lat="60.37219" lon="7.50482">
        <ele>1277.73</ele>
        <time>2019-04-01T12:05:14Z</time>
      </trkpt>
      <trkpt lat="60.3723" lon="7.50501">
        <ele>1280.61</ele>
        <time>2019-04-01T12:05:30Z</time>
      </trkpt>
      <trkpt lat="60.3724" lon="7.50519">
        <ele>1283.5</ele>
        <time>2019-04-01T12:05:46Z</time>
      </trkpt>
      <trkpt lat="60.37252" lon="7.50534">
        <ele>1286.38</ele>
        <time>2019-04-01T12:06:03Z</time>
      </trkpt>
      <trkpt lat="60.37264" lon="7.5055">
        <ele>1288.3</ele>
        <time>2019-04-01T12:06:19Z</time>
      </trkpt>
      <trkpt lat="60.37275" lon="7.50575">
        <ele>1290.23</ele>
        <time>2019-04-01T12:06:36Z</time>
      </trkpt>
      <trkpt lat="60.37288" lon="7.50602">
        <ele>1292.63</ele>
        <time>2019-04-01T12:06:53Z</time>
      </trkpt>
      <trkpt lat="60.37297" lon="7.50628">
        <ele>1294.07</ele>
        <time>2019-04-01T12:07:11Z</time>
      </trkpt>
      <trkpt lat="60.373" lon="7.50637">
        <ele>1295.03</ele>
        <time>2019-04-01T12:07:29Z</time>
      </trkpt>
      <trkpt lat="60.37305" lon="7.50659">
        <ele>1296.48</ele>
        <time>2019-04-01T12:07:44Z</time>
      </trkpt>
      <trkpt lat="60.37307" lon="7.50667">
        <ele>1296.96</ele>
        <time>2019-04-01T12:08:00Z</time>
      </trkpt>
      <trkpt lat="60.37309" lon="7.50683">
        <ele>1297.44</ele>
        <time>2019-04-01T12:08:13Z</time>
      </trkpt>
      <trkpt lat="60.37312" lon="7.50691">
        <ele>1297.92</ele>
        <time>2019-04-01T12:08:24Z</time>
      </trkpt>
      <trkpt lat="60.37313" lon="7.50693">
        <ele>1297.92</ele>
        <time>2019-04-01T12:08:26Z</time>
      </trkpt>
      <trkpt lat="60.37321" lon="7.50716">
        <ele>1297.92</ele>
        <time>2019-04-01T12:08:41Z</time>
      </trkpt>
      <trkpt lat="60.3733" lon="7.50745">
        <ele>1297.92</ele>
        <time>2019-04-01T12:08:55Z</time>
      </trkpt>
      <trkpt lat="60.3734" lon="7.50769">
        <ele>1296.96</ele>
        <time>2019-04-01T12:09:08Z</time>
      </trkpt>
      <trkpt lat="60.37355" lon="7.508">
        <ele>1295.03</ele>
        <time>2019-04-01T12:09:21Z</time>
      </trkpt>
      <trkpt lat="60.37364" lon="7.50819">
        <ele>1295.51</ele>
        <time>2019-04-01T12:09:35Z</time>
      </trkpt>
      <trkpt lat="60.37371" lon="7.50835">
        <ele>1295.51</ele>
        <time>2019-04-01T12:09:53Z</time>
      </trkpt>
      <trkpt lat="60.37376" lon="7.50851">
        <ele>1295.03</ele>
        <time>2019-04-01T12:10:05Z</time>
      </trkpt>
      <trkpt lat="60.37383" lon="7.5087">
        <ele>1296.48</ele>
        <time>2019-04-01T12:10:21Z</time>
      </trkpt>
      <trkpt lat="60.37393" lon="7.50888">
        <ele>1296.96</ele>
        <time>2019-04-01T12:10:36Z</time>
      </trkpt>
      <trkpt lat="60.37397" lon="7.50894">
        <ele>1296.96</ele>
        <time>2019-04-01T12:10:40Z</time>
      </trkpt>
      <trkpt lat="60.37413" lon="7.50913">
        <ele>1297.44</ele>
        <time>2019-04-01T12:10:55Z</time>
      </trkpt>
      <trkpt lat="60.37427" lon="7.50926">
        <ele>1298.4</ele>
        <time>2019-04-01T12:11:10Z</time>
      </trkpt>
      <trkpt lat="60.37437" lon="7.50944">
        <ele>1298.88</ele>
        <time>2019-04-01T12:11:24Z</time>
      </trkpt>
      <trkpt lat="60.37446" lon="7.50959">
        <ele>1298.4</ele>
        <time>2019-04-01T12:11:38Z</time>
      </trkpt>
      <trkpt lat="60.37457" lon="7.50976">
        <ele>1297.44</ele>
        <time>2019-04-01T12:11:51Z</time>
      </trkpt>
      <trkpt lat="60.37473" lon="7.50991">
        <ele>1295.99</ele>
        <time>2019-04-01T12:12:05Z</time>
      </trkpt>
      <trkpt lat="60.37486" lon="7.51006">
        <ele>1295.51</ele>
        <time>2019-04-01T12:12:19Z</time>
      </trkpt>
      <trkpt lat="60.37498" lon="7.51015">
        <ele>1295.99</ele>
        <time>2019-04-01T12:12:32Z</time>
      </trkpt>
      <trkpt lat="60.37513" lon="7.51028">
        <ele>1298.4</ele>
        <time>2019-04-01T12:12:49Z</time>
      </trkpt>
      <trkpt lat="60.37525" lon="7.51037">
        <ele>1300.8</ele>
        <time>2019-04-01T12:13:05Z</time>
      </trkpt>
      <trkpt lat="60.37537" lon="7.51046">
        <ele>1303.2</ele>
        <time>2019-04-01T12:13:21Z</time>
      </trkpt>
      <trkpt lat="60.37548" lon="7.51055">
        <ele>1306.09</ele>
        <time>2019-04-01T12:13:35Z</time>
      </trkpt>
      <trkpt lat="60.37553" lon="7.51076">
        <ele>1308.01</ele>
        <time>2019-04-01T12:13:49Z</time>
      </trkpt>
      <trkpt lat="60.37556" lon="7.51095">
        <ele>1311.38</ele>
        <time>2019-04-01T12:14:01Z</time>
      </trkpt>
      <trkpt lat="60.37559" lon="7.51115">
        <ele>1312.82</ele>
        <time>2019-04-01T12:14:16Z</time>
      </trkpt>
      <trkpt lat="60.3756" lon="7.51126">
        <ele>1313.78</ele>
        <time>2019-04-01T12:14:23Z</time>
      </trkpt>
      <trkpt lat="60.3756" lon="7.51147">
        <ele>1315.7</ele>
        <time>2019-04-01T12:14:42Z</time>
      </trkpt>
      <trkpt lat="60.37561" lon="7.51145">
        <ele>1316.18</ele>
        <time>2019-04-01T12:15:02Z</time>
      </trkpt>
      <trkpt lat="60.37566" lon="7.51136">
        <ele>1316.66</ele>
        <time>2019-04-01T12:15:19Z</time>
      </trkpt>
      <trkpt lat="60.37576" lon="7.51128">
        <ele>1320.03</ele>
        <time>2019-04-01T12:15:35Z</time>
      </trkpt>
      <trkpt lat="60.37584" lon="7.51119">
        <ele>1321.95</ele>
        <time>2019-04-01T12:15:49Z</time>
      </trkpt>
      <trkpt lat="60.37585" lon="7.51124">
        <ele>1322.91</ele>
        <time>2019-04-01T12:16:04Z</time>
      </trkpt>
      <trkpt lat="60.37586" lon="7.51144">
        <ele>1325.31</ele>
        <time>2019-04-01T12:16:20Z</time>
      </trkpt>
      <trkpt lat="60.37587" lon="7.51165">
        <ele>1328.2</ele>
        <time>2019-04-01T12:16:37Z</time>
      </trkpt>
      <trkpt lat="60.37589" lon="7.51187">
        <ele>1330.12</ele>
        <time>2019-04-01T12:16:54Z</time>
      </trkpt>
      <trkpt lat="60.37592" lon="7.51194">
        <ele>1330.6</ele>
        <time>2019-04-01T12:17:07Z</time>
      </trkpt>
      <trkpt lat="60.37593" lon="7.51193">
        <ele>1331.08</ele>
        <time>2019-04-01T12:17:30Z</time>
      </trkpt>
      <trkpt lat="60.37593" lon="7.51192">
        <ele>1331.08</ele>
        <time>2019-04-01T12:17:48Z</time>
      </trkpt>
      <trkpt lat="60.37594" lon="7.51195">
        <ele>1331.08</ele>
        <time>2019-04-01T12:18:02Z</time>
      </trkpt>
      <trkpt lat="60.37593" lon="7.51196">
        <ele>1331.08</ele>
        <time>2019-04-01T12:18:22Z</time>
      </trkpt>
      <trkpt lat="60.37594" lon="7.51195">
        <ele>1328.68</ele>
        <time>2019-04-01T12:18:38Z</time>
      </trkpt>
      <trkpt lat="60.37593" lon="7.51195">
        <ele>1334.45</ele>
        <time>2019-04-01T12:18:40Z</time>
      </trkpt>
      <trkpt lat="60.37593" lon="7.51197">
        <ele>1331.08</ele>
        <time>2019-04-01T12:18:41Z</time>
      </trkpt>
      <trkpt lat="60.37595" lon="7.51202">
        <ele>1331.08</ele>
        <time>2019-04-01T12:18:44Z</time>
      </trkpt>
      <trkpt lat="60.37599" lon="7.5121">
        <ele>1332.52</ele>
        <time>2019-04-01T12:18:50Z</time>
      </trkpt>
      <trkpt lat="60.37603" lon="7.51221">
        <ele>1333.97</ele>
        <time>2019-04-01T12:19:04Z</time>
      </trkpt>
      <trkpt lat="60.37603" lon="7.51222">
        <ele>1333.97</ele>
        <time>2019-04-01T12:19:27Z</time>
      </trkpt>
      <trkpt lat="60.37603" lon="7.5122">
        <ele>1333.97</ele>
        <time>2019-04-01T12:19:41Z</time>
      </trkpt>
      <trkpt lat="60.37601" lon="7.5122">
        <ele>1333.97</ele>
        <time>2019-04-01T12:19:48Z</time>
      </trkpt>
      <trkpt lat="60.37598" lon="7.51218">
        <ele>1333.97</ele>
        <time>2019-04-01T12:19:52Z</time>
      </trkpt>
      <trkpt lat="60.37596" lon="7.5121">
        <ele>1332.52</ele>
        <time>2019-04-01T12:19:55Z</time>
      </trkpt>
      <trkpt lat="60.37588" lon="7.51204">
        <ele>1330.6</ele>
        <time>2019-04-01T12:20:05Z</time>
      </trkpt>
      <trkpt lat="60.37589" lon="7.51204">
        <ele>1330.6</ele>
        <time>2019-04-01T12:20:31Z</time>
      </trkpt>
      <trkpt lat="60.3759" lon="7.51199">
        <ele>1330.6</ele>
        <time>2019-04-01T12:20:36Z</time>
      </trkpt>
      <trkpt lat="60.37593" lon="7.51173">
        <ele>1330.6</ele>
        <time>2019-04-01T12:20:50Z</time>
      </trkpt>
      <trkpt lat="60.37593" lon="7.51175">
        <ele>1330.6</ele>
        <time>2019-04-01T12:21:13Z</time>
      </trkpt>
      <trkpt lat="60.37596" lon="7.51171">
        <ele>1330.6</ele>
        <time>2019-04-01T12:21:32Z</time>
      </trkpt>
      <trkpt lat="60.37599" lon="7.51168">
        <ele>1330.6</ele>
        <time>2019-04-01T12:21:44Z</time>
      </trkpt>
      <trkpt lat="60.376" lon="7.51163">
        <ele>1330.6</ele>
        <time>2019-04-01T12:22:06Z</time>
      </trkpt>
      <trkpt lat="60.376" lon="7.51165">
        <ele>1330.6</ele>
        <time>2019-04-01T12:22:33Z</time>
      </trkpt>
      <trkpt lat="60.37601" lon="7.51166">
        <ele>1330.6</ele>
        <time>2019-04-01T12:22:54Z</time>
      </trkpt>
      <trkpt lat="60.37601" lon="7.51167">
        <ele>1330.6</ele>
        <time>2019-04-01T12:23:14Z</time>
      </trkpt>
      <trkpt lat="60.37601" lon="7.51168">
        <ele>1330.6</ele>
        <time>2019-04-01T12:23:29Z</time>
      </trkpt>
      <trkpt lat="60.376" lon="7.5117">
        <ele>1330.6</ele>
        <time>2019-04-01T12:23:52Z</time>
      </trkpt>
      <trkpt lat="60.376" lon="7.51169">
        <ele>1330.6</ele>
        <time>2019-04-01T12:24:18Z</time>
      </trkpt>
      <trkpt lat="60.37601" lon="7.5117">
        <ele>1330.12</ele>
        <time>2019-04-01T12:24:32Z</time>
      </trkpt>
      <trkpt lat="60.37603" lon="7.51204">
        <ele>1331.56</ele>
        <time>2019-04-01T12:24:44Z</time>
      </trkpt>
      <trkpt lat="60.37604" lon="7.51222">
        <ele>1333.01</ele>
        <time>2019-04-01T12:24:58Z</time>
      </trkpt>
      <trkpt lat="60.37605" lon="7.51223">
        <ele>1333.49</ele>
        <time>2019-04-01T12:25:24Z</time>
      </trkpt>
      <trkpt lat="60.37605" lon="7.51221">
        <ele>1333.49</ele>
        <time>2019-04-01T12:25:50Z</time>
      </trkpt>
      <trkpt lat="60.37604" lon="7.51221">
        <ele>1333.49</ele>
        <time>2019-04-01T12:26:21Z</time>
      </trkpt>
      <trkpt lat="60.37604" lon="7.51222">
        <ele>1333.49</ele>
        <time>2019-04-01T12:26:52Z</time>
      </trkpt>
      <trkpt lat="60.37604" lon="7.51221">
        <ele>1332.04</ele>
        <time>2019-04-01T12:26:57Z</time>
      </trkpt>
      <trkpt lat="60.37603" lon="7.5122">
        <ele>1331.56</ele>
        <time>2019-04-01T12:27:38Z</time>
      </trkpt>
      <trkpt lat="60.37603" lon="7.51222">
        <ele>1331.56</ele>
        <time>2019-04-01T12:28:20Z</time>
      </trkpt>
      <trkpt lat="60.37603" lon="7.5122">
        <ele>1331.56</ele>
        <time>2019-04-01T12:29:06Z</time>
      </trkpt>
      <trkpt lat="60.37602" lon="7.51222">
        <ele>1331.56</ele>
        <time>2019-04-01T12:29:52Z</time>
      </trkpt>
      <trkpt lat="60.37603" lon="7.51223">
        <ele>1331.56</ele>
        <time>2019-04-01T12:30:32Z</time>
      </trkpt>
      <trkpt lat="60.37604" lon="7.5122">
        <ele>1331.56</ele>
        <time>2019-04-01T12:31:16Z</time>
      </trkpt>
      <trkpt lat="60.37604" lon="7.51221">
        <ele>1333.01</ele>
        <time>2019-04-01T12:31:50Z</time>
      </trkpt>
      <trkpt lat="60.37604" lon="7.51221">
        <ele>1333.01</ele>
        <time>2019-04-01T12:32:34Z</time>
      </trkpt>
      <trkpt lat="60.37604" lon="7.5122">
        <ele>1333.49</ele>
        <time>2019-04-01T12:33:19Z</time>
      </trkpt>
      <trkpt lat="60.37604" lon="7.5122">
        <ele>1333.97</ele>
        <time>2019-04-01T12:33:28Z</time>
      </trkpt>
      <trkpt lat="60.37603" lon="7.51222">
        <ele>1337.33</ele>
        <time>2019-04-01T12:33:39Z</time>
      </trkpt>
      <trkpt lat="60.37603" lon="7.51222">
        <ele>1333.01</ele>
        <time>2019-04-01T12:33:40Z</time>
      </trkpt>
      <trkpt lat="60.37604" lon="7.5122">
        <ele>1334.45</ele>
        <time>2019-04-01T12:34:12Z</time>
      </trkpt>
      <trkpt lat="60.37604" lon="7.51222">
        <ele>1334.45</ele>
        <time>2019-04-01T12:34:52Z</time>
      </trkpt>
      <trkpt lat="60.37604" lon="7.51221">
        <ele>1334.45</ele>
        <time>2019-04-01T12:35:36Z</time>
      </trkpt>
      <trkpt lat="60.37604" lon="7.51221">
        <ele>1334.45</ele>
        <time>2019-04-01T12:36:13Z</time>
      </trkpt>
      <trkpt lat="60.37604" lon="7.51221">
        <ele>1334.93</ele>
        <time>2019-04-01T12:36:48Z</time>
      </trkpt>
      <trkpt lat="60.37603" lon="7.51221">
        <ele>1334.93</ele>
        <time>2019-04-01T12:37:17Z</time>
      </trkpt>
      <trkpt lat="60.37603" lon="7.5122">
        <ele>1334.93</ele>
        <time>2019-04-01T12:37:56Z</time>
      </trkpt>
      <trkpt lat="60.37604" lon="7.51219">
        <ele>1335.41</ele>
        <time>2019-04-01T12:38:15Z</time>
      </trkpt>
      <trkpt lat="60.37605" lon="7.51221">
        <ele>1335.41</ele>
        <time>2019-04-01T12:38:37Z</time>
      </trkpt>
      <trkpt lat="60.37604" lon="7.51226">
        <ele>1335.41</ele>
        <time>2019-04-01T12:38:56Z</time>
      </trkpt>
      <trkpt lat="60.37606" lon="7.51228">
        <ele>1335.89</ele>
        <time>2019-04-01T12:39:08Z</time>
      </trkpt>
      <trkpt lat="60.37606" lon="7.51228">
        <ele>1327.24</ele>
        <time>2019-04-01T12:39:14Z</time>
      </trkpt>
      <trkpt lat="60.37608" lon="7.51233">
        <ele>1335.41</ele>
        <time>2019-04-01T12:39:16Z</time>
      </trkpt>
      <trkpt lat="60.37607" lon="7.51229">
        <ele>1335.89</ele>
        <time>2019-04-01T12:39:23Z</time>
      </trkpt>
      <trkpt lat="60.37607" lon="7.51227">
        <ele>1339.73</ele>
        <time>2019-04-01T12:39:24Z</time>
      </trkpt>
      <trkpt lat="60.37607" lon="7.51226">
        <ele>1335.41</ele>
        <time>2019-04-01T12:39:25Z</time>
      </trkpt>
      <trkpt lat="60.37604" lon="7.51224">
        <ele>1335.41</ele>
        <time>2019-04-01T12:39:44Z</time>
      </trkpt>
      <trkpt lat="60.37604" lon="7.51225">
        <ele>1329.16</ele>
        <time>2019-04-01T12:39:52Z</time>
      </trkpt>
      <trkpt lat="60.37604" lon="7.51226">
        <ele>1328.68</ele>
        <time>2019-04-01T12:39:53Z</time>
      </trkpt>
      <trkpt lat="60.37604" lon="7.51226">
        <ele>1335.41</ele>
        <time>2019-04-01T12:39:54Z</time>
      </trkpt>
      <trkpt lat="60.37604" lon="7.51222">
        <ele>1336.85</ele>
        <time>2019-04-01T12:39:56Z</time>
      </trkpt>
      <trkpt lat="60.37605" lon="7.51216">
        <ele>1335.89</ele>
        <time>2019-04-01T12:40:00Z</time>
      </trkpt>
      <trkpt lat="60.37605" lon="7.51216">
        <ele>1335.41</ele>
        <time>2019-04-01T12:40:11Z</time>
      </trkpt>
      <trkpt lat="60.37605" lon="7.51218">
        <ele>1335.41</ele>
        <time>2019-04-01T12:40:22Z</time>
      </trkpt>
      <trkpt lat="60.37604" lon="7.5122">
        <ele>1335.41</ele>
        <time>2019-04-01T12:40:54Z</time>
      </trkpt>
      <trkpt lat="60.37604" lon="7.51221">
        <ele>1336.85</ele>
        <time>2019-04-01T12:40:58Z</time>
      </trkpt>
      <trkpt lat="60.37604" lon="7.51222">
        <ele>1336.85</ele>
        <time>2019-04-01T12:41:04Z</time>
      </trkpt>
      <trkpt lat="60.37603" lon="7.51225">
        <ele>1338.29</ele>
        <time>2019-04-01T12:41:06Z</time>
      </trkpt>
      <trkpt lat="60.37601" lon="7.5123">
        <ele>1335.89</ele>
        <time>2019-04-01T12:41:11Z</time>
      </trkpt>
      <trkpt lat="60.37601" lon="7.51229">
        <ele>1339.73</ele>
        <time>2019-04-01T12:41:13Z</time>
      </trkpt>
      <trkpt lat="60.37601" lon="7.51229">
        <ele>1342.62</ele>
        <time>2019-04-01T12:41:14Z</time>
      </trkpt>
      <trkpt lat="60.37603" lon="7.51231">
        <ele>1336.85</ele>
        <time>2019-04-01T12:41:16Z</time>
      </trkpt>
      <trkpt lat="60.37605" lon="7.51225">
        <ele>1337.33</ele>
        <time>2019-04-01T12:41:26Z</time>
      </trkpt>
      <trkpt lat="60.37602" lon="7.51225">
        <ele>1338.77</ele>
        <time>2019-04-01T12:41:30Z</time>
      </trkpt>
      <trkpt lat="60.37603" lon="7.51222">
        <ele>1338.29</ele>
        <time>2019-04-01T12:41:42Z</time>
      </trkpt>
      <trkpt lat="60.37602" lon="7.5122">
        <ele>1336.37</ele>
        <time>2019-04-01T12:42:18Z</time>
      </trkpt>
      <trkpt lat="60.37602" lon="7.51219">
        <ele>1337.33</ele>
        <time>2019-04-01T12:43:03Z</time>
      </trkpt>
      <trkpt lat="60.37602" lon="7.5122">
        <ele>1337.33</ele>
        <time>2019-04-01T12:43:04Z</time>
      </trkpt>
      <trkpt lat="60.37602" lon="7.51221">
        <ele>1335.89</ele>
        <time>2019-04-01T12:43:13Z</time>
      </trkpt>
      <trkpt lat="60.37602" lon="7.51217">
        <ele>1337.33</ele>
        <time>2019-04-01T12:43:30Z</time>
      </trkpt>
      <trkpt lat="60.37601" lon="7.51219">
        <ele>1335.89</ele>
        <time>2019-04-01T12:43:38Z</time>
      </trkpt>
      <trkpt lat="60.37602" lon="7.5122">
        <ele>1337.81</ele>
        <time>2019-04-01T12:43:46Z</time>
      </trkpt>
      <trkpt lat="60.37603" lon="7.5122">
        <ele>1335.41</ele>
        <time>2019-04-01T12:43:54Z</time>
      </trkpt>
      <trkpt lat="60.37603" lon="7.51218">
        <ele>1335.41</ele>
        <time>2019-04-01T12:44:02Z</time>
      </trkpt>
      <trkpt lat="60.37602" lon="7.51217">
        <ele>1337.33</ele>
        <time>2019-04-01T12:44:11Z</time>
      </trkpt>
      <trkpt lat="60.37601" lon="7.51218">
        <ele>1337.33</ele>
        <time>2019-04-01T12:44:30Z</time>
      </trkpt>
      <trkpt lat="60.37603" lon="7.51218">
        <ele>1337.81</ele>
        <time>2019-04-01T12:44:50Z</time>
      </trkpt>
      <trkpt lat="60.37603" lon="7.51218">
        <ele>1336.37</ele>
        <time>2019-04-01T12:45:12Z</time>
      </trkpt>
      <trkpt lat="60.37603" lon="7.51216">
        <ele>1335.89</ele>
        <time>2019-04-01T12:45:16Z</time>
      </trkpt>
      <trkpt lat="60.37593" lon="7.51183">
        <ele>1334.45</ele>
        <time>2019-04-01T12:45:22Z</time>
      </trkpt>
      <trkpt lat="60.37592" lon="7.51157">
        <ele>1331.56</ele>
        <time>2019-04-01T12:45:25Z</time>
      </trkpt>
      <trkpt lat="60.37598" lon="7.51105">
        <ele>1327.72</ele>
        <time>2019-04-01T12:45:30Z</time>
      </trkpt>
      <trkpt lat="60.37592" lon="7.51081">
        <ele>1324.35</ele>
        <time>2019-04-01T12:45:37Z</time>
      </trkpt>
      <trkpt lat="60.37581" lon="7.51079">
        <ele>1320.51</ele>
        <time>2019-04-01T12:45:40Z</time>
      </trkpt>
      <trkpt lat="60.3758" lon="7.51073">
        <ele>1320.03</ele>
        <time>2019-04-01T12:45:41Z</time>
      </trkpt>
      <trkpt lat="60.37579" lon="7.51066">
        <ele>1319.07</ele>
        <time>2019-04-01T12:45:43Z</time>
      </trkpt>
      <trkpt lat="60.37562" lon="7.51006">
        <ele>1314.74</ele>
        <time>2019-04-01T12:45:51Z</time>
      </trkpt>
      <trkpt lat="60.3755" lon="7.50985">
        <ele>1311.38</ele>
        <time>2019-04-01T12:45:53Z</time>
      </trkpt>
      <trkpt lat="60.37538" lon="7.50967">
        <ele>1308.49</ele>
        <time>2019-04-01T12:45:55Z</time>
      </trkpt>
      <trkpt lat="60.37529" lon="7.50937">
        <ele>1303.69</ele>
        <time>2019-04-01T12:45:58Z</time>
      </trkpt>
      <trkpt lat="60.3753" lon="7.50932">
        <ele>1303.69</ele>
        <time>2019-04-01T12:45:59Z</time>
      </trkpt>
      <trkpt lat="60.37532" lon="7.50931">
        <ele>1303.69</ele>
        <time>2019-04-01T12:46:10Z</time>
      </trkpt>
      <trkpt lat="60.37532" lon="7.50932">
        <ele>1303.69</ele>
        <time>2019-04-01T12:46:37Z</time>
      </trkpt>
      <trkpt lat="60.37531" lon="7.50933">
        <ele>1303.69</ele>
        <time>2019-04-01T12:47:01Z</time>
      </trkpt>
      <trkpt lat="60.3753" lon="7.50934">
        <ele>1303.2</ele>
        <time>2019-04-01T12:47:19Z</time>
      </trkpt>
      <trkpt lat="60.37501" lon="7.50926">
        <ele>1301.76</ele>
        <time>2019-04-01T12:47:33Z</time>
      </trkpt>
      <trkpt lat="60.37471" lon="7.50914">
        <ele>1299.84</ele>
        <time>2019-04-01T12:47:46Z</time>
      </trkpt>
      <trkpt lat="60.37459" lon="7.50914">
        <ele>1299.84</ele>
        <time>2019-04-01T12:47:57Z</time>
      </trkpt>
      <trkpt lat="60.37446" lon="7.50909">
        <ele>1299.84</ele>
        <time>2019-04-01T12:48:09Z</time>
      </trkpt>
      <trkpt lat="60.37432" lon="7.50901">
        <ele>1299.84</ele>
        <time>2019-04-01T12:48:21Z</time>
      </trkpt>
      <trkpt lat="60.37413" lon="7.50893">
        <ele>1300.8</ele>
        <time>2019-04-01T12:48:33Z</time>
      </trkpt>
      <trkpt lat="60.37392" lon="7.5087">
        <ele>1300.8</ele>
        <time>2019-04-01T12:48:45Z</time>
      </trkpt>
      <trkpt lat="60.37381" lon="7.50865">
        <ele>1299.36</ele>
        <time>2019-04-01T12:49:00Z</time>
      </trkpt>
      <trkpt lat="60.37381" lon="7.50866">
        <ele>1299.36</ele>
        <time>2019-04-01T12:49:18Z</time>
      </trkpt>
      <trkpt lat="60.37381" lon="7.50864">
        <ele>1298.88</ele>
        <time>2019-04-01T12:49:35Z</time>
      </trkpt>
      <trkpt lat="60.3738" lon="7.50862">
        <ele>1298.4</ele>
        <time>2019-04-01T12:49:45Z</time>
      </trkpt>
      <trkpt lat="60.3738" lon="7.50861">
        <ele>1293.11</ele>
        <time>2019-04-01T12:49:57Z</time>
      </trkpt>
      <trkpt lat="60.37381" lon="7.50861">
        <ele>1298.4</ele>
        <time>2019-04-01T12:49:58Z</time>
      </trkpt>
      <trkpt lat="60.37381" lon="7.50862">
        <ele>1298.88</ele>
        <time>2019-04-01T12:50:00Z</time>
      </trkpt>
      <trkpt lat="60.37381" lon="7.50861">
        <ele>1298.4</ele>
        <time>2019-04-01T12:50:27Z</time>
      </trkpt>
      <trkpt lat="60.37381" lon="7.50862">
        <ele>1297.92</ele>
        <time>2019-04-01T12:50:47Z</time>
      </trkpt>
      <trkpt lat="60.3738" lon="7.50863">
        <ele>1297.92</ele>
        <time>2019-04-01T12:51:04Z</time>
      </trkpt>
      <trkpt lat="60.37381" lon="7.50865">
        <ele>1299.84</ele>
        <time>2019-04-01T12:51:09Z</time>
      </trkpt>
      <trkpt lat="60.37379" lon="7.50869">
        <ele>1299.84</ele>
        <time>2019-04-01T12:51:23Z</time>
      </trkpt>
      <trkpt lat="60.37378" lon="7.5087">
        <ele>1299.84</ele>
        <time>2019-04-01T12:51:47Z</time>
      </trkpt>
      <trkpt lat="60.37377" lon="7.50866">
        <ele>1299.36</ele>
        <time>2019-04-01T12:52:13Z</time>
      </trkpt>
      <trkpt lat="60.3738" lon="7.5086">
        <ele>1299.36</ele>
        <time>2019-04-01T12:52:21Z</time>
      </trkpt>
      <trkpt lat="60.37389" lon="7.50833">
        <ele>1300.32</ele>
        <time>2019-04-01T12:52:34Z</time>
      </trkpt>
      <trkpt lat="60.37395" lon="7.5082">
        <ele>1299.36</ele>
        <time>2019-04-01T12:52:45Z</time>
      </trkpt>
      <trkpt lat="60.37394" lon="7.50826">
        <ele>1299.36</ele>
        <time>2019-04-01T12:52:57Z</time>
      </trkpt>
      <trkpt lat="60.37394" lon="7.50826">
        <ele>1299.36</ele>
        <time>2019-04-01T12:53:10Z</time>
      </trkpt>
      <trkpt lat="60.37395" lon="7.50826">
        <ele>1299.36</ele>
        <time>2019-04-01T12:53:25Z</time>
      </trkpt>
      <trkpt lat="60.37395" lon="7.50827">
        <ele>1299.36</ele>
        <time>2019-04-01T12:53:57Z</time>
      </trkpt>
      <trkpt lat="60.37395" lon="7.50827">
        <ele>1299.36</ele>
        <time>2019-04-01T12:54:41Z</time>
      </trkpt>
      <trkpt lat="60.37395" lon="7.50827">
        <ele>1299.36</ele>
        <time>2019-04-01T12:55:12Z</time>
      </trkpt>
      <trkpt lat="60.37395" lon="7.50827">
        <ele>1298.88</ele>
        <time>2019-04-01T12:55:54Z</time>
      </trkpt>
      <trkpt lat="60.37395" lon="7.50826">
        <ele>1298.88</ele>
        <time>2019-04-01T12:56:33Z</time>
      </trkpt>
      <trkpt lat="60.37395" lon="7.50826">
        <ele>1298.88</ele>
        <time>2019-04-01T12:57:23Z</time>
      </trkpt>
      <trkpt lat="60.37395" lon="7.50826">
        <ele>1298.88</ele>
        <time>2019-04-01T12:57:58Z</time>
      </trkpt>
      <trkpt lat="60.37396" lon="7.50827">
        <ele>1298.88</ele>
        <time>2019-04-01T12:58:40Z</time>
      </trkpt>
      <trkpt lat="60.37397" lon="7.50826">
        <ele>1300.32</ele>
        <time>2019-04-01T12:59:11Z</time>
      </trkpt>
      <trkpt lat="60.37397" lon="7.50826">
        <ele>1300.32</ele>
        <time>2019-04-01T12:59:44Z</time>
      </trkpt>
      <trkpt lat="60.37399" lon="7.50823">
        <ele>1301.28</ele>
        <time>2019-04-01T12:59:58Z</time>
      </trkpt>
      <trkpt lat="60.37399" lon="7.5082">
        <ele>1299.84</ele>
        <time>2019-04-01T13:00:06Z</time>
      </trkpt>
      <trkpt lat="60.37399" lon="7.50812">
        <ele>1299.84</ele>
        <time>2019-04-01T13:00:15Z</time>
      </trkpt>
      <trkpt lat="60.37396" lon="7.50805">
        <ele>1300.8</ele>
        <time>2019-04-01T13:00:22Z</time>
      </trkpt>
      <trkpt lat="60.37396" lon="7.50804">
        <ele>1301.28</ele>
        <time>2019-04-01T13:00:23Z</time>
      </trkpt>
      <trkpt lat="60.37394" lon="7.50788">
        <ele>1301.28</ele>
        <time>2019-04-01T13:00:27Z</time>
      </trkpt>
      <trkpt lat="60.37389" lon="7.50752">
        <ele>1297.44</ele>
        <time>2019-04-01T13:00:31Z</time>
      </trkpt>
      <trkpt lat="60.37387" lon="7.50739">
        <ele>1296.96</ele>
        <time>2019-04-01T13:00:32Z</time>
      </trkpt>
      <trkpt lat="60.37369" lon="7.50641">
        <ele>1295.99</ele>
        <time>2019-04-01T13:00:39Z</time>
      </trkpt>
      <trkpt lat="60.37359" lon="7.50606">
        <ele>1295.99</ele>
        <time>2019-04-01T13:00:42Z</time>
      </trkpt>
      <trkpt lat="60.37347" lon="7.50566">
        <ele>1297.44</ele>
        <time>2019-04-01T13:00:46Z</time>
      </trkpt>
      <trkpt lat="60.37337" lon="7.50537">
        <ele>1296.48</ele>
        <time>2019-04-01T13:00:49Z</time>
      </trkpt>
      <trkpt lat="60.37329" lon="7.50511">
        <ele>1297.44</ele>
        <time>2019-04-01T13:00:52Z</time>
      </trkpt>
      <trkpt lat="60.3729" lon="7.50372">
        <ele>1296.96</ele>
        <time>2019-04-01T13:01:05Z</time>
      </trkpt>
      <trkpt lat="60.37271" lon="7.50312">
        <ele>1295.51</ele>
        <time>2019-04-01T13:01:10Z</time>
      </trkpt>
      <trkpt lat="60.37258" lon="7.50273">
        <ele>1293.59</ele>
        <time>2019-04-01T13:01:13Z</time>
      </trkpt>
      <trkpt lat="60.3724" lon="7.50224">
        <ele>1291.19</ele>
        <time>2019-04-01T13:01:17Z</time>
      </trkpt>
      <trkpt lat="60.37225" lon="7.50186">
        <ele>1289.75</ele>
        <time>2019-04-01T13:01:20Z</time>
      </trkpt>
      <trkpt lat="60.37206" lon="7.50149">
        <ele>1288.3</ele>
        <time>2019-04-01T13:01:23Z</time>
      </trkpt>
      <trkpt lat="60.37196" lon="7.5013">
        <ele>1287.34</ele>
        <time>2019-04-01T13:01:25Z</time>
      </trkpt>
      <trkpt lat="60.37185" lon="7.50109">
        <ele>1286.38</ele>
        <time>2019-04-01T13:01:27Z</time>
      </trkpt>
      <trkpt lat="60.37179" lon="7.501">
        <ele>1285.9</ele>
        <time>2019-04-01T13:01:28Z</time>
      </trkpt>
      <trkpt lat="60.37147" lon="7.50042">
        <ele>1283.02</ele>
        <time>2019-04-01T13:01:34Z</time>
      </trkpt>
      <trkpt lat="60.37141" lon="7.50032">
        <ele>1283.02</ele>
        <time>2019-04-01T13:01:35Z</time>
      </trkpt>
      <trkpt lat="60.37124" lon="7.5001">
        <ele>1283.02</ele>
        <time>2019-04-01T13:01:38Z</time>
      </trkpt>
      <trkpt lat="60.3712" lon="7.49986">
        <ele>1284.94</ele>
        <time>2019-04-01T13:01:42Z</time>
      </trkpt>
      <trkpt lat="60.37133" lon="7.49995">
        <ele>1287.34</ele>
        <time>2019-04-01T13:01:47Z</time>
      </trkpt>
      <trkpt lat="60.37138" lon="7.49968">
        <ele>1290.71</ele>
        <time>2019-04-01T13:01:52Z</time>
      </trkpt>
      <trkpt lat="60.37155" lon="7.49953">
        <ele>1295.03</ele>
        <time>2019-04-01T13:01:58Z</time>
      </trkpt>
      <trkpt lat="60.37163" lon="7.49956">
        <ele>1296.48</ele>
        <time>2019-04-01T13:02:09Z</time>
      </trkpt>
      <trkpt lat="60.37164" lon="7.49955">
        <ele>1297.44</ele>
        <time>2019-04-01T13:02:34Z</time>
      </trkpt>
      <trkpt lat="60.37166" lon="7.49959">
        <ele>1297.44</ele>
        <time>2019-04-01T13:02:40Z</time>
      </trkpt>
      <trkpt lat="60.3719" lon="7.49996">
        <ele>1299.36</ele>
        <time>2019-04-01T13:02:45Z</time>
      </trkpt>
      <trkpt lat="60.37201" lon="7.50021">
        <ele>1299.36</ele>
        <time>2019-04-01T13:02:47Z</time>
      </trkpt>
      <trkpt lat="60.3725" lon="7.50147">
        <ele>1299.84</ele>
        <time>2019-04-01T13:02:54Z</time>
      </trkpt>
      <trkpt lat="60.37274" lon="7.5022">
        <ele>1301.28</ele>
        <time>2019-04-01T13:02:58Z</time>
      </trkpt>
      <trkpt lat="60.37297" lon="7.50294">
        <ele>1304.65</ele>
        <time>2019-04-01T13:03:02Z</time>
      </trkpt>
      <trkpt lat="60.37306" lon="7.5037">
        <ele>1305.61</ele>
        <time>2019-04-01T13:03:06Z</time>
      </trkpt>
      <trkpt lat="60.37303" lon="7.50442">
        <ele>1304.17</ele>
        <time>2019-04-01T13:03:10Z</time>
      </trkpt>
      <trkpt lat="60.37283" lon="7.50555">
        <ele>1301.28</ele>
        <time>2019-04-01T13:03:18Z</time>
      </trkpt>
      <trkpt lat="60.37278" lon="7.50607">
        <ele>1299.84</ele>
        <time>2019-04-01T13:03:22Z</time>
      </trkpt>
      <trkpt lat="60.37284" lon="7.5063">
        <ele>1298.88</ele>
        <time>2019-04-01T13:03:27Z</time>
      </trkpt>
      <trkpt lat="60.37294" lon="7.50569">
        <ele>1297.92</ele>
        <time>2019-04-01T13:03:32Z</time>
      </trkpt>
      <trkpt lat="60.3731" lon="7.5044">
        <ele>1299.36</ele>
        <time>2019-04-01T13:03:39Z</time>
      </trkpt>
      <trkpt lat="60.3732" lon="7.50293">
        <ele>1303.2</ele>
        <time>2019-04-01T13:03:47Z</time>
      </trkpt>
      <trkpt lat="60.3732" lon="7.50279">
        <ele>1303.2</ele>
        <time>2019-04-01T13:03:48Z</time>
      </trkpt>
      <trkpt lat="60.3732" lon="7.50254">
        <ele>1303.2</ele>
        <time>2019-04-01T13:03:50Z</time>
      </trkpt>
      <trkpt lat="60.37317" lon="7.50223">
        <ele>1301.76</ele>
        <time>2019-04-01T13:03:53Z</time>
      </trkpt>
      <trkpt lat="60.37314" lon="7.50203">
        <ele>1303.2</ele>
        <time>2019-04-01T13:03:56Z</time>
      </trkpt>
      <trkpt lat="60.3731" lon="7.50165">
        <ele>1303.2</ele>
        <time>2019-04-01T13:04:04Z</time>
      </trkpt>
      <trkpt lat="60.37298" lon="7.50115">
        <ele>1304.65</ele>
        <time>2019-04-01T13:04:12Z</time>
      </trkpt>
      <trkpt lat="60.37294" lon="7.50094">
        <ele>1303.2</ele>
        <time>2019-04-01T13:04:16Z</time>
      </trkpt>
      <trkpt lat="60.37284" lon="7.50075">
        <ele>1304.65</ele>
        <time>2019-04-01T13:04:19Z</time>
      </trkpt>
      <trkpt lat="60.3728" lon="7.50069">
        <ele>1304.65</ele>
        <time>2019-04-01T13:04:20Z</time>
      </trkpt>
      <trkpt lat="60.37271" lon="7.50059">
        <ele>1303.2</ele>
        <time>2019-04-01T13:04:22Z</time>
      </trkpt>
      <trkpt lat="60.37266" lon="7.50026">
        <ele>1302.72</ele>
        <time>2019-04-01T13:04:29Z</time>
      </trkpt>
      <trkpt lat="60.37269" lon="7.50025">
        <ele>1302.72</ele>
        <time>2019-04-01T13:04:31Z</time>
      </trkpt>
      <trkpt lat="60.37281" lon="7.50051">
        <ele>1304.17</ele>
        <time>2019-04-01T13:04:37Z</time>
      </trkpt>
      <trkpt lat="60.37303" lon="7.50106">
        <ele>1307.05</ele>
        <time>2019-04-01T13:04:43Z</time>
      </trkpt>
      <trkpt lat="60.3732" lon="7.50153">
        <ele>1305.61</ele>
        <time>2019-04-01T13:04:47Z</time>
      </trkpt>
      <trkpt lat="60.37324" lon="7.50164">
        <ele>1305.61</ele>
        <time>2019-04-01T13:04:48Z</time>
      </trkpt>
      <trkpt lat="60.37329" lon="7.50183">
        <ele>1307.05</ele>
        <time>2019-04-01T13:04:50Z</time>
      </trkpt>
      <trkpt lat="60.37333" lon="7.50219">
        <ele>1308.01</ele>
        <time>2019-04-01T13:04:54Z</time>
      </trkpt>
      <trkpt lat="60.37334" lon="7.50243">
        <ele>1308.01</ele>
        <time>2019-04-01T13:04:56Z</time>
      </trkpt>
      <trkpt lat="60.37348" lon="7.50352">
        <ele>1306.09</ele>
        <time>2019-04-01T13:05:04Z</time>
      </trkpt>
      <trkpt lat="60.37348" lon="7.50498">
        <ele>1301.76</ele>
        <time>2019-04-01T13:05:13Z</time>
      </trkpt>
      <trkpt lat="60.37346" lon="7.5058">
        <ele>1301.28</ele>
        <time>2019-04-01T13:05:18Z</time>
      </trkpt>
      <trkpt lat="60.37344" lon="7.50626">
        <ele>1301.28</ele>
        <time>2019-04-01T13:05:21Z</time>
      </trkpt>
      <trkpt lat="60.37344" lon="7.50711">
        <ele>1303.2</ele>
        <time>2019-04-01T13:05:30Z</time>
      </trkpt>
      <trkpt lat="60.37343" lon="7.50725">
        <ele>1303.2</ele>
        <time>2019-04-01T13:05:45Z</time>
      </trkpt>
      <trkpt lat="60.37345" lon="7.5073">
        <ele>1303.2</ele>
        <time>2019-04-01T13:06:02Z</time>
      </trkpt>
      <trkpt lat="60.37345" lon="7.50735">
        <ele>1303.2</ele>
        <time>2019-04-01T13:06:07Z</time>
      </trkpt>
      <trkpt lat="60.37353" lon="7.50761">
        <ele>1303.2</ele>
        <time>2019-04-01T13:06:12Z</time>
      </trkpt>
      <trkpt lat="60.37362" lon="7.5083">
        <ele>1304.17</ele>
        <time>2019-04-01T13:06:17Z</time>
      </trkpt>
      <trkpt lat="60.37362" lon="7.50885">
        <ele>1304.17</ele>
        <time>2019-04-01T13:06:21Z</time>
      </trkpt>
      <trkpt lat="60.37359" lon="7.50921">
        <ele>1302.24</ele>
        <time>2019-04-01T13:06:25Z</time>
      </trkpt>
      <trkpt lat="60.3736" lon="7.50938">
        <ele>1301.76</ele>
        <time>2019-04-01T13:06:27Z</time>
      </trkpt>
      <trkpt lat="60.37371" lon="7.50994">
        <ele>1299.84</ele>
        <time>2019-04-01T13:06:33Z</time>
      </trkpt>
      <trkpt lat="60.37378" lon="7.51065">
        <ele>1294.55</ele>
        <time>2019-04-01T13:06:38Z</time>
      </trkpt>
      <trkpt lat="60.3738" lon="7.51077">
        <ele>1294.07</ele>
        <time>2019-04-01T13:06:39Z</time>
      </trkpt>
      <trkpt lat="60.37385" lon="7.51112">
        <ele>1287.82</ele>
        <time>2019-04-01T13:06:43Z</time>
      </trkpt>
      <trkpt lat="60.37387" lon="7.51117">
        <ele>1287.34</ele>
        <time>2019-04-01T13:06:44Z</time>
      </trkpt>
      <trkpt lat="60.37395" lon="7.51147">
        <ele>1284.94</ele>
        <time>2019-04-01T13:06:48Z</time>
      </trkpt>
      <trkpt lat="60.37401" lon="7.51163">
        <ele>1284.46</ele>
        <time>2019-04-01T13:06:50Z</time>
      </trkpt>
      <trkpt lat="60.37406" lon="7.51174">
        <ele>1283.98</ele>
        <time>2019-04-01T13:06:51Z</time>
      </trkpt>
      <trkpt lat="60.37418" lon="7.51218">
        <ele>1282.06</ele>
        <time>2019-04-01T13:06:54Z</time>
      </trkpt>
      <trkpt lat="60.37421" lon="7.51261">
        <ele>1277.73</ele>
        <time>2019-04-01T13:06:56Z</time>
      </trkpt>
      <trkpt lat="60.37418" lon="7.51307">
        <ele>1275.33</ele>
        <time>2019-04-01T13:06:58Z</time>
      </trkpt>
      <trkpt lat="60.3741" lon="7.51369">
        <ele>1270.52</ele>
        <time>2019-04-01T13:07:01Z</time>
      </trkpt>
      <trkpt lat="60.37398" lon="7.5143">
        <ele>1266.67</ele>
        <time>2019-04-01T13:07:04Z</time>
      </trkpt>
      <trkpt lat="60.3739" lon="7.51468">
        <ele>1263.79</ele>
        <time>2019-04-01T13:07:06Z</time>
      </trkpt>
      <trkpt lat="60.37385" lon="7.51508">
        <ele>1261.39</ele>
        <time>2019-04-01T13:07:08Z</time>
      </trkpt>
      <trkpt lat="60.37367" lon="7.51616">
        <ele>1262.83</ele>
        <time>2019-04-01T13:07:15Z</time>
      </trkpt>
      <trkpt lat="60.37361" lon="7.51639">
        <ele>1263.79</ele>
        <time>2019-04-01T13:07:17Z</time>
      </trkpt>
      <trkpt lat="60.37351" lon="7.51674">
        <ele>1265.23</ele>
        <time>2019-04-01T13:07:20Z</time>
      </trkpt>
      <trkpt lat="60.37327" lon="7.51741">
        <ele>1261.39</ele>
        <time>2019-04-01T13:07:25Z</time>
      </trkpt>
      <trkpt lat="60.37317" lon="7.51772">
        <ele>1258.02</ele>
        <time>2019-04-01T13:07:27Z</time>
      </trkpt>
      <trkpt lat="60.37306" lon="7.51805">
        <ele>1255.62</ele>
        <time>2019-04-01T13:07:29Z</time>
      </trkpt>
      <trkpt lat="60.37301" lon="7.5182">
        <ele>1251.77</ele>
        <time>2019-04-01T13:07:30Z</time>
      </trkpt>
      <trkpt lat="60.37295" lon="7.51835">
        <ele>1251.77</ele>
        <time>2019-04-01T13:07:31Z</time>
      </trkpt>
      <trkpt lat="60.37279" lon="7.51878">
        <ele>1248.89</ele>
        <time>2019-04-01T13:07:34Z</time>
      </trkpt>
      <trkpt lat="60.37263" lon="7.51916">
        <ele>1246.97</ele>
        <time>2019-04-01T13:07:37Z</time>
      </trkpt>
      <trkpt lat="60.37247" lon="7.51955">
        <ele>1243.6</ele>
        <time>2019-04-01T13:07:40Z</time>
      </trkpt>
      <trkpt lat="60.3723" lon="7.51993">
        <ele>1240.24</ele>
        <time>2019-04-01T13:07:43Z</time>
      </trkpt>
      <trkpt lat="60.37224" lon="7.52004">
        <ele>1238.32</ele>
        <time>2019-04-01T13:07:44Z</time>
      </trkpt>
      <trkpt lat="60.37205" lon="7.52026">
        <ele>1233.99</ele>
        <time>2019-04-01T13:07:47Z</time>
      </trkpt>
      <trkpt lat="60.37201" lon="7.5203">
        <ele>1233.03</ele>
        <time>2019-04-01T13:07:48Z</time>
      </trkpt>
      <trkpt lat="60.37197" lon="7.52041">
        <ele>1229.66</ele>
        <time>2019-04-01T13:07:52Z</time>
      </trkpt>
      <trkpt lat="60.37197" lon="7.52041">
        <ele>1229.66</ele>
        <time>2019-04-01T13:07:53Z</time>
      </trkpt>
      <trkpt lat="60.37207" lon="7.52029">
        <ele>1230.62</ele>
        <time>2019-04-01T13:07:57Z</time>
      </trkpt>
      <trkpt lat="60.37215" lon="7.52006">
        <ele>1232.07</ele>
        <time>2019-04-01T13:08:00Z</time>
      </trkpt>
      <trkpt lat="60.37221" lon="7.51987">
        <ele>1232.07</ele>
        <time>2019-04-01T13:08:02Z</time>
      </trkpt>
      <trkpt lat="60.37225" lon="7.51943">
        <ele>1233.99</ele>
        <time>2019-04-01T13:08:06Z</time>
      </trkpt>
      <trkpt lat="60.37224" lon="7.51908">
        <ele>1234.47</ele>
        <time>2019-04-01T13:08:09Z</time>
      </trkpt>
      <trkpt lat="60.3722" lon="7.51832">
        <ele>1235.91</ele>
        <time>2019-04-01T13:08:15Z</time>
      </trkpt>
      <trkpt lat="60.37218" lon="7.5181">
        <ele>1236.87</ele>
        <time>2019-04-01T13:08:17Z</time>
      </trkpt>
      <trkpt lat="60.37217" lon="7.51801">
        <ele>1237.35</ele>
        <time>2019-04-01T13:08:18Z</time>
      </trkpt>
      <trkpt lat="60.37213" lon="7.51769">
        <ele>1239.76</ele>
        <time>2019-04-01T13:08:22Z</time>
      </trkpt>
      <trkpt lat="60.37211" lon="7.5175">
        <ele>1241.2</ele>
        <time>2019-04-01T13:08:25Z</time>
      </trkpt>
      <trkpt lat="60.37211" lon="7.51738">
        <ele>1242.16</ele>
        <time>2019-04-01T13:08:27Z</time>
      </trkpt>
      <trkpt lat="60.37206" lon="7.5169">
        <ele>1245.04</ele>
        <time>2019-04-01T13:08:33Z</time>
      </trkpt>
      <trkpt lat="60.37193" lon="7.51642">
        <ele>1246.01</ele>
        <time>2019-04-01T13:08:39Z</time>
      </trkpt>
      <trkpt lat="60.37183" lon="7.51621">
        <ele>1244.08</ele>
        <time>2019-04-01T13:08:42Z</time>
      </trkpt>
      <trkpt lat="60.3718" lon="7.51615">
        <ele>1244.08</ele>
        <time>2019-04-01T13:08:43Z</time>
      </trkpt>
      <trkpt lat="60.37174" lon="7.51602">
        <ele>1246.01</ele>
        <time>2019-04-01T13:08:45Z</time>
      </trkpt>
      <trkpt lat="60.37169" lon="7.51584">
        <ele>1246.01</ele>
        <time>2019-04-01T13:08:47Z</time>
      </trkpt>
      <trkpt lat="60.37153" lon="7.51537">
        <ele>1245.53</ele>
        <time>2019-04-01T13:08:52Z</time>
      </trkpt>
      <trkpt lat="60.37143" lon="7.51497">
        <ele>1241.68</ele>
        <time>2019-04-01T13:08:55Z</time>
      </trkpt>
      <trkpt lat="60.37111" lon="7.51404">
        <ele>1237.35</ele>
        <time>2019-04-01T13:09:02Z</time>
      </trkpt>
      <trkpt lat="60.37106" lon="7.5139">
        <ele>1237.35</ele>
        <time>2019-04-01T13:09:03Z</time>
      </trkpt>
      <trkpt lat="60.37092" lon="7.5135">
        <ele>1234.95</ele>
        <time>2019-04-01T13:09:06Z</time>
      </trkpt>
      <trkpt lat="60.37083" lon="7.51323">
        <ele>1233.03</ele>
        <time>2019-04-01T13:09:08Z</time>
      </trkpt>
      <trkpt lat="60.37071" lon="7.51285">
        <ele>1234.47</ele>
        <time>2019-04-01T13:09:11Z</time>
      </trkpt>
      <trkpt lat="60.37064" lon="7.5126">
        <ele>1234.47</ele>
        <time>2019-04-01T13:09:13Z</time>
      </trkpt>
      <trkpt lat="60.37054" lon="7.51232">
        <ele>1234.95</ele>
        <time>2019-04-01T13:09:16Z</time>
      </trkpt>
      <trkpt lat="60.37052" lon="7.51166">
        <ele>1235.43</ele>
        <time>2019-04-01T13:09:24Z</time>
      </trkpt>
      <trkpt lat="60.37043" lon="7.51122">
        <ele>1237.35</ele>
        <time>2019-04-01T13:09:33Z</time>
      </trkpt>
      <trkpt lat="60.37045" lon="7.51105">
        <ele>1237.83</ele>
        <time>2019-04-01T13:09:36Z</time>
      </trkpt>
      <trkpt lat="60.37043" lon="7.5106">
        <ele>1239.28</ele>
        <time>2019-04-01T13:09:41Z</time>
      </trkpt>
      <trkpt lat="60.37041" lon="7.5101">
        <ele>1240.72</ele>
        <time>2019-04-01T13:09:48Z</time>
      </trkpt>
      <trkpt lat="60.3704" lon="7.50956">
        <ele>1242.16</ele>
        <time>2019-04-01T13:09:56Z</time>
      </trkpt>
      <trkpt lat="60.3704" lon="7.50949">
        <ele>1242.16</ele>
        <time>2019-04-01T13:09:57Z</time>
      </trkpt>
      <trkpt lat="60.37038" lon="7.50922">
        <ele>1242.64</ele>
        <time>2019-04-01T13:10:01Z</time>
      </trkpt>
      <trkpt lat="60.37036" lon="7.50896">
        <ele>1244.08</ele>
        <time>2019-04-01T13:10:04Z</time>
      </trkpt>
      <trkpt lat="60.37034" lon="7.50869">
        <ele>1244.56</ele>
        <time>2019-04-01T13:10:07Z</time>
      </trkpt>
      <trkpt lat="60.37032" lon="7.50808">
        <ele>1246.01</ele>
        <time>2019-04-01T13:10:15Z</time>
      </trkpt>
      <trkpt lat="60.37034" lon="7.50748">
        <ele>1246.97</ele>
        <time>2019-04-01T13:10:22Z</time>
      </trkpt>
      <trkpt lat="60.37033" lon="7.50732">
        <ele>1246.97</ele>
        <time>2019-04-01T13:10:24Z</time>
      </trkpt>
      <trkpt lat="60.37047" lon="7.50687">
        <ele>1247.93</ele>
        <time>2019-04-01T13:10:30Z</time>
      </trkpt>
      <trkpt lat="60.37051" lon="7.50664">
        <ele>1247.93</ele>
        <time>2019-04-01T13:10:33Z</time>
      </trkpt>
      <trkpt lat="60.37058" lon="7.5063">
        <ele>1247.93</ele>
        <time>2019-04-01T13:10:37Z</time>
      </trkpt>
      <trkpt lat="60.37062" lon="7.50609">
        <ele>1247.93</ele>
        <time>2019-04-01T13:10:39Z</time>
      </trkpt>
      <trkpt lat="60.37072" lon="7.50549">
        <ele>1248.89</ele>
        <time>2019-04-01T13:10:49Z</time>
      </trkpt>
      <trkpt lat="60.37076" lon="7.50538">
        <ele>1250.81</ele>
        <time>2019-04-01T13:10:52Z</time>
      </trkpt>
      <trkpt lat="60.37084" lon="7.50519">
        <ele>1252.74</ele>
        <time>2019-04-01T13:10:58Z</time>
      </trkpt>
      <trkpt lat="60.37086" lon="7.50498">
        <ele>1254.18</ele>
        <time>2019-04-01T13:11:06Z</time>
      </trkpt>
      <trkpt lat="60.37091" lon="7.50464">
        <ele>1256.58</ele>
        <time>2019-04-01T13:11:16Z</time>
      </trkpt>
      <trkpt lat="60.37099" lon="7.50453">
        <ele>1258.98</ele>
        <time>2019-04-01T13:11:23Z</time>
      </trkpt>
      <trkpt lat="60.37106" lon="7.50439">
        <ele>1260.91</ele>
        <time>2019-04-01T13:11:31Z</time>
      </trkpt>
      <trkpt lat="60.37111" lon="7.50423">
        <ele>1262.83</ele>
        <time>2019-04-01T13:11:40Z</time>
      </trkpt>
      <trkpt lat="60.37117" lon="7.50401">
        <ele>1265.71</ele>
        <time>2019-04-01T13:11:47Z</time>
      </trkpt>
      <trkpt lat="60.37124" lon="7.50388">
        <ele>1267.64</ele>
        <time>2019-04-01T13:11:51Z</time>
      </trkpt>
      <trkpt lat="60.37134" lon="7.50355">
        <ele>1271</ele>
        <time>2019-04-01T13:11:59Z</time>
      </trkpt>
      <trkpt lat="60.37135" lon="7.50335">
        <ele>1272.92</ele>
        <time>2019-04-01T13:12:02Z</time>
      </trkpt>
      <trkpt lat="60.37136" lon="7.50328">
        <ele>1273.4</ele>
        <time>2019-04-01T13:12:03Z</time>
      </trkpt>
      <trkpt lat="60.37138" lon="7.50308">
        <ele>1274.36</ele>
        <time>2019-04-01T13:12:06Z</time>
      </trkpt>
      <trkpt lat="60.37137" lon="7.50274">
        <ele>1275.33</ele>
        <time>2019-04-01T13:12:10Z</time>
      </trkpt>
      <trkpt lat="60.37137" lon="7.50266">
        <ele>1275.33</ele>
        <time>2019-04-01T13:12:11Z</time>
      </trkpt>
      <trkpt lat="60.37137" lon="7.50238">
        <ele>1276.77</ele>
        <time>2019-04-01T13:12:14Z</time>
      </trkpt>
      <trkpt lat="60.37139" lon="7.50203">
        <ele>1278.21</ele>
        <time>2019-04-01T13:12:18Z</time>
      </trkpt>
      <trkpt lat="60.37141" lon="7.50164">
        <ele>1280.13</ele>
        <time>2019-04-01T13:12:22Z</time>
      </trkpt>
      <trkpt lat="60.37153" lon="7.50107">
        <ele>1285.42</ele>
        <time>2019-04-01T13:12:29Z</time>
      </trkpt>
      <trkpt lat="60.37162" lon="7.50074">
        <ele>1288.78</ele>
        <time>2019-04-01T13:12:35Z</time>
      </trkpt>
      <trkpt lat="60.37164" lon="7.50072">
        <ele>1288.78</ele>
        <time>2019-04-01T13:12:36Z</time>
      </trkpt>
      <trkpt lat="60.37166" lon="7.5007">
        <ele>1288.78</ele>
        <time>2019-04-01T13:12:37Z</time>
      </trkpt>
      <trkpt lat="60.37173" lon="7.50046">
        <ele>1293.11</ele>
        <time>2019-04-01T13:12:41Z</time>
      </trkpt>
      <trkpt lat="60.37177" lon="7.50014">
        <ele>1295.99</ele>
        <time>2019-04-01T13:12:46Z</time>
      </trkpt>
      <trkpt lat="60.37181" lon="7.50002">
        <ele>1297.44</ele>
        <time>2019-04-01T13:12:49Z</time>
      </trkpt>
      <trkpt lat="60.37194" lon="7.49979">
        <ele>1300.8</ele>
        <time>2019-04-01T13:12:54Z</time>
      </trkpt>
      <trkpt lat="60.37195" lon="7.49961">
        <ele>1302.72</ele>
        <time>2019-04-01T13:12:57Z</time>
      </trkpt>
      <trkpt lat="60.37206" lon="7.49914">
        <ele>1305.61</ele>
        <time>2019-04-01T13:13:03Z</time>
      </trkpt>
      <trkpt lat="60.37201" lon="7.4985">
        <ele>1307.53</ele>
        <time>2019-04-01T13:13:08Z</time>
      </trkpt>
      <trkpt lat="60.37195" lon="7.49807">
        <ele>1305.61</ele>
        <time>2019-04-01T13:13:11Z</time>
      </trkpt>
      <trkpt lat="60.37188" lon="7.49748">
        <ele>1305.61</ele>
        <time>2019-04-01T13:13:15Z</time>
      </trkpt>
      <trkpt lat="60.37185" lon="7.49716">
        <ele>1303.69</ele>
        <time>2019-04-01T13:13:17Z</time>
      </trkpt>
      <trkpt lat="60.37187" lon="7.49642">
        <ele>1299.84</ele>
        <time>2019-04-01T13:13:21Z</time>
      </trkpt>
      <trkpt lat="60.37189" lon="7.49621">
        <ele>1299.84</ele>
        <time>2019-04-01T13:13:22Z</time>
      </trkpt>
      <trkpt lat="60.37192" lon="7.49579">
        <ele>1301.28</ele>
        <time>2019-04-01T13:13:24Z</time>
      </trkpt>
      <trkpt lat="60.37197" lon="7.49522">
        <ele>1297.92</ele>
        <time>2019-04-01T13:13:27Z</time>
      </trkpt>
      <trkpt lat="60.37198" lon="7.49505">
        <ele>1296.48</ele>
        <time>2019-04-01T13:13:28Z</time>
      </trkpt>
      <trkpt lat="60.37206" lon="7.4947">
        <ele>1299.84</ele>
        <time>2019-04-01T13:13:32Z</time>
      </trkpt>
      <trkpt lat="60.37207" lon="7.49478">
        <ele>1300.32</ele>
        <time>2019-04-01T13:13:34Z</time>
      </trkpt>
      <trkpt lat="60.37206" lon="7.4953">
        <ele>1301.76</ele>
        <time>2019-04-01T13:13:41Z</time>
      </trkpt>
      <trkpt lat="60.37206" lon="7.4958">
        <ele>1304.65</ele>
        <time>2019-04-01T13:13:45Z</time>
      </trkpt>
      <trkpt lat="60.37192" lon="7.49697">
        <ele>1306.57</ele>
        <time>2019-04-01T13:13:53Z</time>
      </trkpt>
      <trkpt lat="60.37183" lon="7.49775">
        <ele>1307.53</ele>
        <time>2019-04-01T13:13:58Z</time>
      </trkpt>
      <trkpt lat="60.37196" lon="7.49951">
        <ele>1308.01</ele>
        <time>2019-04-01T13:14:07Z</time>
      </trkpt>
      <trkpt lat="60.37209" lon="7.50021">
        <ele>1304.65</ele>
        <time>2019-04-01T13:14:10Z</time>
      </trkpt>
      <trkpt lat="60.37218" lon="7.50068">
        <ele>1303.69</ele>
        <time>2019-04-01T13:14:12Z</time>
      </trkpt>
      <trkpt lat="60.37239" lon="7.50162">
        <ele>1300.32</ele>
        <time>2019-04-01T13:14:16Z</time>
      </trkpt>
      <trkpt lat="60.37248" lon="7.50206">
        <ele>1299.36</ele>
        <time>2019-04-01T13:14:18Z</time>
      </trkpt>
      <trkpt lat="60.37266" lon="7.50285">
        <ele>1300.32</ele>
        <time>2019-04-01T13:14:22Z</time>
      </trkpt>
      <trkpt lat="60.37292" lon="7.50388">
        <ele>1302.72</ele>
        <time>2019-04-01T13:14:28Z</time>
      </trkpt>
      <trkpt lat="60.37302" lon="7.50441">
        <ele>1303.69</ele>
        <time>2019-04-01T13:14:31Z</time>
      </trkpt>
      <trkpt lat="60.37315" lon="7.50517">
        <ele>1303.69</ele>
        <time>2019-04-01T13:14:35Z</time>
      </trkpt>
      <trkpt lat="60.37325" lon="7.50553">
        <ele>1303.69</ele>
        <time>2019-04-01T13:14:37Z</time>
      </trkpt>
      <trkpt lat="60.37334" lon="7.50588">
        <ele>1302.24</ele>
        <time>2019-04-01T13:14:39Z</time>
      </trkpt>
      <trkpt lat="60.37352" lon="7.50644">
        <ele>1302.24</ele>
        <time>2019-04-01T13:14:43Z</time>
      </trkpt>
      <trkpt lat="60.37366" lon="7.50723">
        <ele>1303.69</ele>
        <time>2019-04-01T13:14:48Z</time>
      </trkpt>
      <trkpt lat="60.37376" lon="7.50767">
        <ele>1303.69</ele>
        <time>2019-04-01T13:14:51Z</time>
      </trkpt>
      <trkpt lat="60.37372" lon="7.50859">
        <ele>1304.17</ele>
        <time>2019-04-01T13:14:59Z</time>
      </trkpt>
      <trkpt lat="60.37371" lon="7.50882">
        <ele>1304.17</ele>
        <time>2019-04-01T13:15:08Z</time>
      </trkpt>
      <trkpt lat="60.37373" lon="7.50878">
        <ele>1304.17</ele>
        <time>2019-04-01T13:15:11Z</time>
      </trkpt>
      <trkpt lat="60.37382" lon="7.5089">
        <ele>1304.17</ele>
        <time>2019-04-01T13:15:19Z</time>
      </trkpt>
      <trkpt lat="60.37383" lon="7.5089">
        <ele>1304.17</ele>
        <time>2019-04-01T13:15:20Z</time>
      </trkpt>
      <trkpt lat="60.37394" lon="7.50879">
        <ele>1304.17</ele>
        <time>2019-04-01T13:15:24Z</time>
      </trkpt>
      <trkpt lat="60.37403" lon="7.50871">
        <ele>1303.2</ele>
        <time>2019-04-01T13:15:26Z</time>
      </trkpt>
      <trkpt lat="60.37416" lon="7.50844">
        <ele>1303.2</ele>
        <time>2019-04-01T13:15:30Z</time>
      </trkpt>
      <trkpt lat="60.37446" lon="7.50777">
        <ele>1302.24</ele>
        <time>2019-04-01T13:15:38Z</time>
      </trkpt>
      <trkpt lat="60.37463" lon="7.50697">
        <ele>1302.24</ele>
        <time>2019-04-01T13:15:44Z</time>
      </trkpt>
      <trkpt lat="60.37455" lon="7.50598">
        <ele>1303.69</ele>
        <time>2019-04-01T13:15:50Z</time>
      </trkpt>
      <trkpt lat="60.37441" lon="7.50513">
        <ele>1301.28</ele>
        <time>2019-04-01T13:15:55Z</time>
      </trkpt>
      <trkpt lat="60.37431" lon="7.50466">
        <ele>1302.72</ele>
        <time>2019-04-01T13:15:58Z</time>
      </trkpt>
      <trkpt lat="60.37424" lon="7.50438">
        <ele>1302.72</ele>
        <time>2019-04-01T13:16:00Z</time>
      </trkpt>
      <trkpt lat="60.37414" lon="7.504">
        <ele>1302.72</ele>
        <time>2019-04-01T13:16:03Z</time>
      </trkpt>
      <trkpt lat="60.374" lon="7.50361">
        <ele>1302.72</ele>
        <time>2019-04-01T13:16:07Z</time>
      </trkpt>
      <trkpt lat="60.37387" lon="7.5034">
        <ele>1303.2</ele>
        <time>2019-04-01T13:16:11Z</time>
      </trkpt>
      <trkpt lat="60.37395" lon="7.50334">
        <ele>1303.69</ele>
        <time>2019-04-01T13:16:17Z</time>
      </trkpt>
      <trkpt lat="60.37414" lon="7.5037">
        <ele>1303.69</ele>
        <time>2019-04-01T13:16:22Z</time>
      </trkpt>
      <trkpt lat="60.37429" lon="7.50414">
        <ele>1304.17</ele>
        <time>2019-04-01T13:16:26Z</time>
      </trkpt>
      <trkpt lat="60.37438" lon="7.50434">
        <ele>1304.17</ele>
        <time>2019-04-01T13:16:28Z</time>
      </trkpt>
      <trkpt lat="60.37454" lon="7.50479">
        <ele>1304.65</ele>
        <time>2019-04-01T13:16:32Z</time>
      </trkpt>
      <trkpt lat="60.37486" lon="7.50501">
        <ele>1303.69</ele>
        <time>2019-04-01T13:16:38Z</time>
      </trkpt>
      <trkpt lat="60.37494" lon="7.50501">
        <ele>1305.61</ele>
        <time>2019-04-01T13:16:41Z</time>
      </trkpt>
      <trkpt lat="60.37503" lon="7.50512">
        <ele>1306.57</ele>
        <time>2019-04-01T13:16:43Z</time>
      </trkpt>
      <trkpt lat="60.37529" lon="7.50568">
        <ele>1309.93</ele>
        <time>2019-04-01T13:16:50Z</time>
      </trkpt>
      <trkpt lat="60.37534" lon="7.50577">
        <ele>1309.93</ele>
        <time>2019-04-01T13:16:51Z</time>
      </trkpt>
      <trkpt lat="60.37542" lon="7.50592">
        <ele>1309.93</ele>
        <time>2019-04-01T13:16:53Z</time>
      </trkpt>
      <trkpt lat="60.37552" lon="7.50621">
        <ele>1312.34</ele>
        <time>2019-04-01T13:16:56Z</time>
      </trkpt>
      <trkpt lat="60.3757" lon="7.5065">
        <ele>1314.74</ele>
        <time>2019-04-01T13:17:00Z</time>
      </trkpt>
      <trkpt lat="60.3758" lon="7.50681">
        <ele>1316.66</ele>
        <time>2019-04-01T13:17:03Z</time>
      </trkpt>
      <trkpt lat="60.37603" lon="7.50704">
        <ele>1318.59</ele>
        <time>2019-04-01T13:17:09Z</time>
      </trkpt>
      <trkpt lat="60.37606" lon="7.50696">
        <ele>1319.07</ele>
        <time>2019-04-01T13:17:10Z</time>
      </trkpt>
      <trkpt lat="60.37622" lon="7.50654">
        <ele>1322.43</ele>
        <time>2019-04-01T13:17:15Z</time>
      </trkpt>
      <trkpt lat="60.37638" lon="7.5061">
        <ele>1324.83</ele>
        <time>2019-04-01T13:17:19Z</time>
      </trkpt>
      <trkpt lat="60.37651" lon="7.50449">
        <ele>1324.83</ele>
        <time>2019-04-01T13:17:29Z</time>
      </trkpt>
      <trkpt lat="60.3765" lon="7.50428">
        <ele>1324.83</ele>
        <time>2019-04-01T13:17:30Z</time>
      </trkpt>
      <trkpt lat="60.37641" lon="7.503">
        <ele>1326.76</ele>
        <time>2019-04-01T13:17:37Z</time>
      </trkpt>
      <trkpt lat="60.37637" lon="7.50271">
        <ele>1327.72</ele>
        <time>2019-04-01T13:17:39Z</time>
      </trkpt>
      <trkpt lat="60.37635" lon="7.50259">
        <ele>1329.16</ele>
        <time>2019-04-01T13:17:40Z</time>
      </trkpt>
      <trkpt lat="60.37625" lon="7.50218">
        <ele>1327.24</ele>
        <time>2019-04-01T13:17:44Z</time>
      </trkpt>
      <trkpt lat="60.37625" lon="7.50204">
        <ele>1330.12</ele>
        <time>2019-04-01T13:17:49Z</time>
      </trkpt>
      <trkpt lat="60.37625" lon="7.50203">
        <ele>1328.68</ele>
        <time>2019-04-01T13:17:56Z</time>
      </trkpt>
      <trkpt lat="60.37625" lon="7.50201">
        <ele>1329.64</ele>
        <time>2019-04-01T13:18:08Z</time>
      </trkpt>
      <trkpt lat="60.37624" lon="7.50198">
        <ele>1329.64</ele>
        <time>2019-04-01T13:18:14Z</time>
      </trkpt>
      <trkpt lat="60.37617" lon="7.50151">
        <ele>1326.76</ele>
        <time>2019-04-01T13:18:21Z</time>
      </trkpt>
      <trkpt lat="60.37613" lon="7.50063">
        <ele>1322.91</ele>
        <time>2019-04-01T13:18:26Z</time>
      </trkpt>
      <trkpt lat="60.37608" lon="7.50004">
        <ele>1320.51</ele>
        <time>2019-04-01T13:18:29Z</time>
      </trkpt>
      <trkpt lat="60.37605" lon="7.49944">
        <ele>1316.18</ele>
        <time>2019-04-01T13:18:32Z</time>
      </trkpt>
      <trkpt lat="60.376" lon="7.49869">
        <ele>1314.74</ele>
        <time>2019-04-01T13:18:36Z</time>
      </trkpt>
      <trkpt lat="60.37598" lon="7.4984">
        <ele>1314.26</ele>
        <time>2019-04-01T13:18:38Z</time>
      </trkpt>
      <trkpt lat="60.37605" lon="7.49812">
        <ele>1316.18</ele>
        <time>2019-04-01T13:18:41Z</time>
      </trkpt>
      <trkpt lat="60.37614" lon="7.49792">
        <ele>1316.66</ele>
        <time>2019-04-01T13:18:44Z</time>
      </trkpt>
      <trkpt lat="60.37622" lon="7.4977">
        <ele>1314.26</ele>
        <time>2019-04-01T13:18:46Z</time>
      </trkpt>
      <trkpt lat="60.37631" lon="7.49721">
        <ele>1312.34</ele>
        <time>2019-04-01T13:18:49Z</time>
      </trkpt>
      <trkpt lat="60.37647" lon="7.49575">
        <ele>1310.9</ele>
        <time>2019-04-01T13:18:57Z</time>
      </trkpt>
      <trkpt lat="60.3766" lon="7.49502">
        <ele>1315.7</ele>
        <time>2019-04-01T13:19:02Z</time>
      </trkpt>
      <trkpt lat="60.37663" lon="7.4948">
        <ele>1316.66</ele>
        <time>2019-04-01T13:19:04Z</time>
      </trkpt>
      <trkpt lat="60.3767" lon="7.49458">
        <ele>1319.07</ele>
        <time>2019-04-01T13:19:08Z</time>
      </trkpt>
      <trkpt lat="60.37676" lon="7.49447">
        <ele>1319.55</ele>
        <time>2019-04-01T13:19:20Z</time>
      </trkpt>
      <trkpt lat="60.37676" lon="7.49451">
        <ele>1319.55</ele>
        <time>2019-04-01T13:19:25Z</time>
      </trkpt>
      <trkpt lat="60.37677" lon="7.49497">
        <ele>1320.51</ele>
        <time>2019-04-01T13:19:30Z</time>
      </trkpt>
      <trkpt lat="60.37685" lon="7.49597">
        <ele>1319.07</ele>
        <time>2019-04-01T13:19:36Z</time>
      </trkpt>
      <trkpt lat="60.37685" lon="7.49798">
        <ele>1320.99</ele>
        <time>2019-04-01T13:19:46Z</time>
      </trkpt>
      <trkpt lat="60.3769" lon="7.49891">
        <ele>1323.87</ele>
        <time>2019-04-01T13:19:51Z</time>
      </trkpt>
      <trkpt lat="60.37694" lon="7.49948">
        <ele>1326.28</ele>
        <time>2019-04-01T13:19:54Z</time>
      </trkpt>
      <trkpt lat="60.37697" lon="7.50004">
        <ele>1329.64</ele>
        <time>2019-04-01T13:19:57Z</time>
      </trkpt>
      <trkpt lat="60.37702" lon="7.50073">
        <ele>1333.49</ele>
        <time>2019-04-01T13:20:01Z</time>
      </trkpt>
      <trkpt lat="60.37703" lon="7.5009">
        <ele>1333.49</ele>
        <time>2019-04-01T13:20:02Z</time>
      </trkpt>
      <trkpt lat="60.37711" lon="7.50207">
        <ele>1336.85</ele>
        <time>2019-04-01T13:20:09Z</time>
      </trkpt>
      <trkpt lat="60.37718" lon="7.50352">
        <ele>1335.89</ele>
        <time>2019-04-01T13:20:16Z</time>
      </trkpt>
      <trkpt lat="60.37716" lon="7.50388">
        <ele>1335.41</ele>
        <time>2019-04-01T13:20:18Z</time>
      </trkpt>
      <trkpt lat="60.3771" lon="7.50417">
        <ele>1333.97</ele>
        <time>2019-04-01T13:20:21Z</time>
      </trkpt>
      <trkpt lat="60.37709" lon="7.50434">
        <ele>1333.49</ele>
        <time>2019-04-01T13:20:30Z</time>
      </trkpt>
      <trkpt lat="60.37709" lon="7.50434">
        <ele>1333.49</ele>
        <time>2019-04-01T13:20:51Z</time>
      </trkpt>
      <trkpt lat="60.37709" lon="7.50434">
        <ele>1333.49</ele>
        <time>2019-04-01T13:21:16Z</time>
      </trkpt>
      <trkpt lat="60.37709" lon="7.50436">
        <ele>1333.49</ele>
        <time>2019-04-01T13:21:22Z</time>
      </trkpt>
      <trkpt lat="60.3772" lon="7.50472">
        <ele>1333.49</ele>
        <time>2019-04-01T13:21:28Z</time>
      </trkpt>
      <trkpt lat="60.37729" lon="7.50518">
        <ele>1334.45</ele>
        <time>2019-04-01T13:21:32Z</time>
      </trkpt>
      <trkpt lat="60.37733" lon="7.50544">
        <ele>1334.45</ele>
        <time>2019-04-01T13:21:34Z</time>
      </trkpt>
      <trkpt lat="60.37744" lon="7.50647">
        <ele>1333.01</ele>
        <time>2019-04-01T13:21:41Z</time>
      </trkpt>
      <trkpt lat="60.37744" lon="7.50716">
        <ele>1328.68</ele>
        <time>2019-04-01T13:21:45Z</time>
      </trkpt>
      <trkpt lat="60.37746" lon="7.50757">
        <ele>1328.2</ele>
        <time>2019-04-01T13:21:47Z</time>
      </trkpt>
      <trkpt lat="60.37748" lon="7.50779">
        <ele>1326.76</ele>
        <time>2019-04-01T13:21:48Z</time>
      </trkpt>
      <trkpt lat="60.37749" lon="7.50848">
        <ele>1323.87</ele>
        <time>2019-04-01T13:21:51Z</time>
      </trkpt>
      <trkpt lat="60.37745" lon="7.50965">
        <ele>1322.43</ele>
        <time>2019-04-01T13:21:58Z</time>
      </trkpt>
      <trkpt lat="60.37745" lon="7.5102">
        <ele>1322.43</ele>
        <time>2019-04-01T13:22:03Z</time>
      </trkpt>
      <trkpt lat="60.3775" lon="7.50983">
        <ele>1322.43</ele>
        <time>2019-04-01T13:22:08Z</time>
      </trkpt>
      <trkpt lat="60.37753" lon="7.50961">
        <ele>1323.87</ele>
        <time>2019-04-01T13:22:10Z</time>
      </trkpt>
      <trkpt lat="60.37756" lon="7.50947">
        <ele>1323.87</ele>
        <time>2019-04-01T13:22:11Z</time>
      </trkpt>
      <trkpt lat="60.37775" lon="7.50893">
        <ele>1327.24</ele>
        <time>2019-04-01T13:22:17Z</time>
      </trkpt>
      <trkpt lat="60.37778" lon="7.50882">
        <ele>1328.2</ele>
        <time>2019-04-01T13:22:18Z</time>
      </trkpt>
      <trkpt lat="60.37792" lon="7.50797">
        <ele>1325.31</ele>
        <time>2019-04-01T13:22:24Z</time>
      </trkpt>
      <trkpt lat="60.37792" lon="7.50726">
        <ele>1320.03</ele>
        <time>2019-04-01T13:22:27Z</time>
      </trkpt>
      <trkpt lat="60.37792" lon="7.50704">
        <ele>1322.43</ele>
        <time>2019-04-01T13:22:28Z</time>
      </trkpt>
      <trkpt lat="60.37796" lon="7.50659">
        <ele>1325.8</ele>
        <time>2019-04-01T13:22:31Z</time>
      </trkpt>
      <trkpt lat="60.378" lon="7.50645">
        <ele>1327.24</ele>
        <time>2019-04-01T13:22:33Z</time>
      </trkpt>
      <trkpt lat="60.37802" lon="7.50633">
        <ele>1329.16</ele>
        <time>2019-04-01T13:22:42Z</time>
      </trkpt>
      <trkpt lat="60.37802" lon="7.50632">
        <ele>1329.64</ele>
        <time>2019-04-01T13:23:02Z</time>
      </trkpt>
      <trkpt lat="60.37802" lon="7.50632">
        <ele>1329.16</ele>
        <time>2019-04-01T13:23:23Z</time>
      </trkpt>
      <trkpt lat="60.37802" lon="7.5063">
        <ele>1329.16</ele>
        <time>2019-04-01T13:23:38Z</time>
      </trkpt>
      <trkpt lat="60.37804" lon="7.50618">
        <ele>1329.16</ele>
        <time>2019-04-01T13:23:42Z</time>
      </trkpt>
      <trkpt lat="60.37802" lon="7.50584">
        <ele>1330.6</ele>
        <time>2019-04-01T13:23:46Z</time>
      </trkpt>
      <trkpt lat="60.37794" lon="7.5053">
        <ele>1333.01</ele>
        <time>2019-04-01T13:23:51Z</time>
      </trkpt>
      <trkpt lat="60.37788" lon="7.50508">
        <ele>1333.97</ele>
        <time>2019-04-01T13:23:53Z</time>
      </trkpt>
      <trkpt lat="60.37783" lon="7.50489">
        <ele>1334.45</ele>
        <time>2019-04-01T13:23:55Z</time>
      </trkpt>
      <trkpt lat="60.37768" lon="7.50449">
        <ele>1335.41</ele>
        <time>2019-04-01T13:24:00Z</time>
      </trkpt>
      <trkpt lat="60.37766" lon="7.50441">
        <ele>1335.41</ele>
        <time>2019-04-01T13:24:01Z</time>
      </trkpt>
      <trkpt lat="60.37752" lon="7.5041">
        <ele>1333.49</ele>
        <time>2019-04-01T13:24:05Z</time>
      </trkpt>
      <trkpt lat="60.37724" lon="7.50316">
        <ele>1332.04</ele>
        <time>2019-04-01T13:24:13Z</time>
      </trkpt>
      <trkpt lat="60.37716" lon="7.50246">
        <ele>1331.08</ele>
        <time>2019-04-01T13:24:18Z</time>
      </trkpt>
      <trkpt lat="60.37712" lon="7.5021">
        <ele>1331.08</ele>
        <time>2019-04-01T13:24:21Z</time>
      </trkpt>
      <trkpt lat="60.3771" lon="7.50157">
        <ele>1332.04</ele>
        <time>2019-04-01T13:24:26Z</time>
      </trkpt>
      <trkpt lat="60.37703" lon="7.50105">
        <ele>1331.08</ele>
        <time>2019-04-01T13:24:33Z</time>
      </trkpt>
      <trkpt lat="60.37701" lon="7.50095">
        <ele>1332.52</ele>
        <time>2019-04-01T13:24:38Z</time>
      </trkpt>
      <trkpt lat="60.37701" lon="7.50094">
        <ele>1332.52</ele>
        <time>2019-04-01T13:24:39Z</time>
      </trkpt>
      <trkpt lat="60.37701" lon="7.50051">
        <ele>1329.16</ele>
        <time>2019-04-01T13:24:47Z</time>
      </trkpt>
      <trkpt lat="60.37699" lon="7.50032">
        <ele>1327.72</ele>
        <time>2019-04-01T13:24:49Z</time>
      </trkpt>
      <trkpt lat="60.37692" lon="7.4998">
        <ele>1324.83</ele>
        <time>2019-04-01T13:24:54Z</time>
      </trkpt>
      <trkpt lat="60.37692" lon="7.49949">
        <ele>1322.91</ele>
        <time>2019-04-01T13:24:56Z</time>
      </trkpt>
      <trkpt lat="60.37693" lon="7.49931">
        <ele>1322.43</ele>
        <time>2019-04-01T13:24:57Z</time>
      </trkpt>
      <trkpt lat="60.37701" lon="7.49836">
        <ele>1318.59</ele>
        <time>2019-04-01T13:25:02Z</time>
      </trkpt>
      <trkpt lat="60.37707" lon="7.49776">
        <ele>1318.59</ele>
        <time>2019-04-01T13:25:05Z</time>
      </trkpt>
      <trkpt lat="60.37711" lon="7.49737">
        <ele>1314.26</ele>
        <time>2019-04-01T13:25:07Z</time>
      </trkpt>
      <trkpt lat="60.37711" lon="7.49699">
        <ele>1312.82</ele>
        <time>2019-04-01T13:25:09Z</time>
      </trkpt>
      <trkpt lat="60.37705" lon="7.49602">
        <ele>1312.34</ele>
        <time>2019-04-01T13:25:15Z</time>
      </trkpt>
      <trkpt lat="60.37695" lon="7.4948">
        <ele>1315.22</ele>
        <time>2019-04-01T13:25:24Z</time>
      </trkpt>
      <trkpt lat="60.37689" lon="7.49447">
        <ele>1317.14</ele>
        <time>2019-04-01T13:25:27Z</time>
      </trkpt>
      <trkpt lat="60.37679" lon="7.49378">
        <ele>1316.18</ele>
        <time>2019-04-01T13:25:33Z</time>
      </trkpt>
      <trkpt lat="60.37668" lon="7.49336">
        <ele>1318.1</ele>
        <time>2019-04-01T13:25:41Z</time>
      </trkpt>
      <trkpt lat="60.37668" lon="7.49332">
        <ele>1318.59</ele>
        <time>2019-04-01T13:25:51Z</time>
      </trkpt>
      <trkpt lat="60.37669" lon="7.49329">
        <ele>1319.55</ele>
        <time>2019-04-01T13:25:53Z</time>
      </trkpt>
      <trkpt lat="60.37671" lon="7.49326">
        <ele>1319.07</ele>
        <time>2019-04-01T13:26:08Z</time>
      </trkpt>
      <trkpt lat="60.37672" lon="7.49325">
        <ele>1319.07</ele>
        <time>2019-04-01T13:26:18Z</time>
      </trkpt>
      <trkpt lat="60.37671" lon="7.49362">
        <ele>1320.99</ele>
        <time>2019-04-01T13:26:23Z</time>
      </trkpt>
      <trkpt lat="60.37671" lon="7.49432">
        <ele>1320.03</ele>
        <time>2019-04-01T13:26:28Z</time>
      </trkpt>
      <trkpt lat="60.377" lon="7.49516">
        <ele>1320.03</ele>
        <time>2019-04-01T13:26:33Z</time>
      </trkpt>
      <trkpt lat="60.37711" lon="7.49558">
        <ele>1320.99</ele>
        <time>2019-04-01T13:26:35Z</time>
      </trkpt>
      <trkpt lat="60.3772" lon="7.49642">
        <ele>1319.55</ele>
        <time>2019-04-01T13:26:39Z</time>
      </trkpt>
      <trkpt lat="60.3772" lon="7.49709">
        <ele>1319.55</ele>
        <time>2019-04-01T13:26:42Z</time>
      </trkpt>
      <trkpt lat="60.37725" lon="7.49769">
        <ele>1319.55</ele>
        <time>2019-04-01T13:26:45Z</time>
      </trkpt>
      <trkpt lat="60.37732" lon="7.49828">
        <ele>1322.43</ele>
        <time>2019-04-01T13:26:48Z</time>
      </trkpt>
      <trkpt lat="60.37745" lon="7.49898">
        <ele>1324.35</ele>
        <time>2019-04-01T13:26:52Z</time>
      </trkpt>
      <trkpt lat="60.37752" lon="7.49928">
        <ele>1325.31</ele>
        <time>2019-04-01T13:26:54Z</time>
      </trkpt>
      <trkpt lat="60.37764" lon="7.49975">
        <ele>1326.76</ele>
        <time>2019-04-01T13:26:57Z</time>
      </trkpt>
      <trkpt lat="60.37776" lon="7.50019">
        <ele>1329.16</ele>
        <time>2019-04-01T13:27:00Z</time>
      </trkpt>
      <trkpt lat="60.37789" lon="7.50079">
        <ele>1334.45</ele>
        <time>2019-04-01T13:27:04Z</time>
      </trkpt>
      <trkpt lat="60.37799" lon="7.50123">
        <ele>1335.89</ele>
        <time>2019-04-01T13:27:07Z</time>
      </trkpt>
      <trkpt lat="60.37811" lon="7.50168">
        <ele>1338.29</ele>
        <time>2019-04-01T13:27:10Z</time>
      </trkpt>
      <trkpt lat="60.37831" lon="7.50242">
        <ele>1340.22</ele>
        <time>2019-04-01T13:27:15Z</time>
      </trkpt>
      <trkpt lat="60.37839" lon="7.50269">
        <ele>1340.22</ele>
        <time>2019-04-01T13:27:17Z</time>
      </trkpt>
      <trkpt lat="60.37843" lon="7.50324">
        <ele>1340.7</ele>
        <time>2019-04-01T13:27:22Z</time>
      </trkpt>
      <trkpt lat="60.37831" lon="7.50415">
        <ele>1340.7</ele>
        <time>2019-04-01T13:27:31Z</time>
      </trkpt>
      <trkpt lat="60.37829" lon="7.50472">
        <ele>1339.25</ele>
        <time>2019-04-01T13:27:35Z</time>
      </trkpt>
      <trkpt lat="60.37826" lon="7.5052">
        <ele>1336.85</ele>
        <time>2019-04-01T13:27:38Z</time>
      </trkpt>
      <trkpt lat="60.37825" lon="7.50574">
        <ele>1334.93</ele>
        <time>2019-04-01T13:27:41Z</time>
      </trkpt>
      <trkpt lat="60.37819" lon="7.50646">
        <ele>1330.12</ele>
        <time>2019-04-01T13:27:45Z</time>
      </trkpt>
      <trkpt lat="60.37817" lon="7.50687">
        <ele>1329.16</ele>
        <time>2019-04-01T13:27:47Z</time>
      </trkpt>
      <trkpt lat="60.37805" lon="7.50802">
        <ele>1330.12</ele>
        <time>2019-04-01T13:27:54Z</time>
      </trkpt>
      <trkpt lat="60.37799" lon="7.50855">
        <ele>1333.97</ele>
        <time>2019-04-01T13:27:59Z</time>
      </trkpt>
      <trkpt lat="60.37804" lon="7.50848">
        <ele>1332.04</ele>
        <time>2019-04-01T13:28:03Z</time>
      </trkpt>
      <trkpt lat="60.37805" lon="7.50841">
        <ele>1330.12</ele>
        <time>2019-04-01T13:28:04Z</time>
      </trkpt>
      <trkpt lat="60.378" lon="7.50803">
        <ele>1327.24</ele>
        <time>2019-04-01T13:28:08Z</time>
      </trkpt>
      <trkpt lat="60.37796" lon="7.50784">
        <ele>1324.83</ele>
        <time>2019-04-01T13:28:09Z</time>
      </trkpt>
      <trkpt lat="60.3779" lon="7.50739">
        <ele>1320.99</ele>
        <time>2019-04-01T13:28:11Z</time>
      </trkpt>
      <trkpt lat="60.37787" lon="7.50699">
        <ele>1320.03</ele>
        <time>2019-04-01T13:28:13Z</time>
      </trkpt>
      <trkpt lat="60.37796" lon="7.50674">
        <ele>1325.8</ele>
        <time>2019-04-01T13:28:16Z</time>
      </trkpt>
      <trkpt lat="60.37799" lon="7.50673">
        <ele>1325.8</ele>
        <time>2019-04-01T13:28:17Z</time>
      </trkpt>
      <trkpt lat="60.37809" lon="7.50681">
        <ele>1325.8</ele>
        <time>2019-04-01T13:28:20Z</time>
      </trkpt>
      <trkpt lat="60.37813" lon="7.50686">
        <ele>1324.35</ele>
        <time>2019-04-01T13:28:22Z</time>
      </trkpt>
      <trkpt lat="60.37819" lon="7.50665">
        <ele>1323.87</ele>
        <time>2019-04-01T13:28:26Z</time>
      </trkpt>
      <trkpt lat="60.37822" lon="7.50648">
        <ele>1324.83</ele>
        <time>2019-04-01T13:28:30Z</time>
      </trkpt>
      <trkpt lat="60.37823" lon="7.50644">
        <ele>1325.31</ele>
        <time>2019-04-01T13:28:48Z</time>
      </trkpt>
      <trkpt lat="60.37824" lon="7.50636">
        <ele>1325.31</ele>
        <time>2019-04-01T13:28:55Z</time>
      </trkpt>
      <trkpt lat="60.37821" lon="7.50603">
        <ele>1327.72</ele>
        <time>2019-04-01T13:28:59Z</time>
      </trkpt>
      <trkpt lat="60.3782" lon="7.50585">
        <ele>1328.68</ele>
        <time>2019-04-01T13:29:01Z</time>
      </trkpt>
      <trkpt lat="60.37817" lon="7.50564">
        <ele>1329.64</ele>
        <time>2019-04-01T13:29:03Z</time>
      </trkpt>
      <trkpt lat="60.37813" lon="7.50531">
        <ele>1332.04</ele>
        <time>2019-04-01T13:29:06Z</time>
      </trkpt>
      <trkpt lat="60.3781" lon="7.50508">
        <ele>1333.49</ele>
        <time>2019-04-01T13:29:08Z</time>
      </trkpt>
      <trkpt lat="60.37802" lon="7.50448">
        <ele>1336.85</ele>
        <time>2019-04-01T13:29:13Z</time>
      </trkpt>
      <trkpt lat="60.3778" lon="7.50278">
        <ele>1338.77</ele>
        <time>2019-04-01T13:29:25Z</time>
      </trkpt>
      <trkpt lat="60.37775" lon="7.50245">
        <ele>1335.41</ele>
        <time>2019-04-01T13:29:27Z</time>
      </trkpt>
      <trkpt lat="60.37772" lon="7.50226">
        <ele>1331.56</ele>
        <time>2019-04-01T13:29:28Z</time>
      </trkpt>
      <trkpt lat="60.37771" lon="7.50206">
        <ele>1328.68</ele>
        <time>2019-04-01T13:29:29Z</time>
      </trkpt>
      <trkpt lat="60.3777" lon="7.50186">
        <ele>1330.12</ele>
        <time>2019-04-01T13:29:30Z</time>
      </trkpt>
      <trkpt lat="60.3777" lon="7.5015">
        <ele>1330.12</ele>
        <time>2019-04-01T13:29:32Z</time>
      </trkpt>
      <trkpt lat="60.37759" lon="7.50085">
        <ele>1326.76</ele>
        <time>2019-04-01T13:29:36Z</time>
      </trkpt>
      <trkpt lat="60.37741" lon="7.50016">
        <ele>1326.28</ele>
        <time>2019-04-01T13:29:41Z</time>
      </trkpt>
      <trkpt lat="60.37737" lon="7.50003">
        <ele>1326.28</ele>
        <time>2019-04-01T13:29:42Z</time>
      </trkpt>
      <trkpt lat="60.3773" lon="7.49964">
        <ele>1326.28</ele>
        <time>2019-04-01T13:29:45Z</time>
      </trkpt>
      <trkpt lat="60.37727" lon="7.49938">
        <ele>1324.83</ele>
        <time>2019-04-01T13:29:47Z</time>
      </trkpt>
      <trkpt lat="60.37723" lon="7.49907">
        <ele>1323.39</ele>
        <time>2019-04-01T13:29:49Z</time>
      </trkpt>
      <trkpt lat="60.37714" lon="7.49839">
        <ele>1318.59</ele>
        <time>2019-04-01T13:29:53Z</time>
      </trkpt>
      <trkpt lat="60.3771" lon="7.49791">
        <ele>1315.7</ele>
        <time>2019-04-01T13:29:56Z</time>
      </trkpt>
      <trkpt lat="60.37708" lon="7.49776">
        <ele>1317.14</ele>
        <time>2019-04-01T13:29:57Z</time>
      </trkpt>
      <trkpt lat="60.37707" lon="7.49717">
        <ele>1314.74</ele>
        <time>2019-04-01T13:30:01Z</time>
      </trkpt>
      <trkpt lat="60.37707" lon="7.49702">
        <ele>1313.3</ele>
        <time>2019-04-01T13:30:02Z</time>
      </trkpt>
      <trkpt lat="60.37716" lon="7.49685">
        <ele>1314.74</ele>
        <time>2019-04-01T13:30:07Z</time>
      </trkpt>
      <trkpt lat="60.37715" lon="7.49688">
        <ele>1315.7</ele>
        <time>2019-04-01T13:30:26Z</time>
      </trkpt>
      <trkpt lat="60.37732" lon="7.4968">
        <ele>1315.22</ele>
        <time>2019-04-01T13:30:34Z</time>
      </trkpt>
      <trkpt lat="60.37754" lon="7.49692">
        <ele>1314.26</ele>
        <time>2019-04-01T13:30:38Z</time>
      </trkpt>
      <trkpt lat="60.37788" lon="7.49741">
        <ele>1312.82</ele>
        <time>2019-04-01T13:30:46Z</time>
      </trkpt>
      <trkpt lat="60.37805" lon="7.49754">
        <ele>1312.82</ele>
        <time>2019-04-01T13:30:49Z</time>
      </trkpt>
      <trkpt lat="60.37816" lon="7.49769">
        <ele>1312.82</ele>
        <time>2019-04-01T13:30:51Z</time>
      </trkpt>
      <trkpt lat="60.3784" lon="7.49792">
        <ele>1312.34</ele>
        <time>2019-04-01T13:30:56Z</time>
      </trkpt>
      <trkpt lat="60.37878" lon="7.4983">
        <ele>1314.74</ele>
        <time>2019-04-01T13:31:04Z</time>
      </trkpt>
      <trkpt lat="60.37882" lon="7.49837">
        <ele>1315.22</ele>
        <time>2019-04-01T13:31:05Z</time>
      </trkpt>
      <trkpt lat="60.3789" lon="7.49849">
        <ele>1316.18</ele>
        <time>2019-04-01T13:31:07Z</time>
      </trkpt>
      <trkpt lat="60.37909" lon="7.49886">
        <ele>1319.55</ele>
        <time>2019-04-01T13:31:13Z</time>
      </trkpt>
      <trkpt lat="60.37915" lon="7.49902">
        <ele>1320.51</ele>
        <time>2019-04-01T13:31:15Z</time>
      </trkpt>
      <trkpt lat="60.37925" lon="7.49914">
        <ele>1322.43</ele>
        <time>2019-04-01T13:31:17Z</time>
      </trkpt>
      <trkpt lat="60.37939" lon="7.49938">
        <ele>1325.8</ele>
        <time>2019-04-01T13:31:21Z</time>
      </trkpt>
      <trkpt lat="60.37943" lon="7.49943">
        <ele>1326.76</ele>
        <time>2019-04-01T13:31:22Z</time>
      </trkpt>
      <trkpt lat="60.37959" lon="7.49966">
        <ele>1328.68</ele>
        <time>2019-04-01T13:31:27Z</time>
      </trkpt>
      <trkpt lat="60.37976" lon="7.4998">
        <ele>1330.6</ele>
        <time>2019-04-01T13:31:36Z</time>
      </trkpt>
      <trkpt lat="60.37975" lon="7.49978">
        <ele>1330.6</ele>
        <time>2019-04-01T13:31:56Z</time>
      </trkpt>
      <trkpt lat="60.37978" lon="7.49974">
        <ele>1330.6</ele>
        <time>2019-04-01T13:32:16Z</time>
      </trkpt>
      <trkpt lat="60.3798" lon="7.49975">
        <ele>1329.16</ele>
        <time>2019-04-01T13:32:19Z</time>
      </trkpt>
      <trkpt lat="60.37981" lon="7.49974">
        <ele>1329.16</ele>
        <time>2019-04-01T13:32:33Z</time>
      </trkpt>
      <trkpt lat="60.37987" lon="7.49973">
        <ele>1329.16</ele>
        <time>2019-04-01T13:32:48Z</time>
      </trkpt>
      <trkpt lat="60.37987" lon="7.49984">
        <ele>1329.16</ele>
        <time>2019-04-01T13:32:53Z</time>
      </trkpt>
      <trkpt lat="60.37989" lon="7.49991">
        <ele>1330.6</ele>
        <time>2019-04-01T13:32:56Z</time>
      </trkpt>
      <trkpt lat="60.37991" lon="7.50004">
        <ele>1331.56</ele>
        <time>2019-04-01T13:33:08Z</time>
      </trkpt>
      <trkpt lat="60.37991" lon="7.50004">
        <ele>1331.56</ele>
        <time>2019-04-01T13:33:11Z</time>
      </trkpt>
      <trkpt lat="60.37989" lon="7.49978">
        <ele>1329.64</ele>
        <time>2019-04-01T13:33:15Z</time>
      </trkpt>
      <trkpt lat="60.37984" lon="7.49919">
        <ele>1322.43</ele>
        <time>2019-04-01T13:33:19Z</time>
      </trkpt>
      <trkpt lat="60.37982" lon="7.49881">
        <ele>1319.07</ele>
        <time>2019-04-01T13:33:21Z</time>
      </trkpt>
      <trkpt lat="60.37979" lon="7.49842">
        <ele>1314.74</ele>
        <time>2019-04-01T13:33:23Z</time>
      </trkpt>
      <trkpt lat="60.37975" lon="7.49802">
        <ele>1311.86</ele>
        <time>2019-04-01T13:33:25Z</time>
      </trkpt>
      <trkpt lat="60.37966" lon="7.49723">
        <ele>1309.45</ele>
        <time>2019-04-01T13:33:29Z</time>
      </trkpt>
      <trkpt lat="60.37964" lon="7.49706">
        <ele>1308.49</ele>
        <time>2019-04-01T13:33:30Z</time>
      </trkpt>
      <trkpt lat="60.37957" lon="7.49677">
        <ele>1307.05</ele>
        <time>2019-04-01T13:33:32Z</time>
      </trkpt>
      <trkpt lat="60.37943" lon="7.49653">
        <ele>1306.57</ele>
        <time>2019-04-01T13:33:37Z</time>
      </trkpt>
      <trkpt lat="60.37942" lon="7.49649">
        <ele>1308.01</ele>
        <time>2019-04-01T13:33:40Z</time>
      </trkpt>
      <trkpt lat="60.37942" lon="7.49647">
        <ele>1308.49</ele>
        <time>2019-04-01T13:33:42Z</time>
      </trkpt>
      <trkpt lat="60.3795" lon="7.49645">
        <ele>1308.97</ele>
        <time>2019-04-01T13:33:54Z</time>
      </trkpt>
      <trkpt lat="60.37966" lon="7.49716">
        <ele>1311.86</ele>
        <time>2019-04-01T13:34:00Z</time>
      </trkpt>
      <trkpt lat="60.37967" lon="7.49763">
        <ele>1313.78</ele>
        <time>2019-04-01T13:34:03Z</time>
      </trkpt>
      <trkpt lat="60.37974" lon="7.4983">
        <ele>1317.62</ele>
        <time>2019-04-01T13:34:07Z</time>
      </trkpt>
      <trkpt lat="60.37977" lon="7.49865">
        <ele>1321.47</ele>
        <time>2019-04-01T13:34:09Z</time>
      </trkpt>
      <trkpt lat="60.3798" lon="7.49919">
        <ele>1325.8</ele>
        <time>2019-04-01T13:34:12Z</time>
      </trkpt>
      <trkpt lat="60.37982" lon="7.49954">
        <ele>1329.16</ele>
        <time>2019-04-01T13:34:14Z</time>
      </trkpt>
      <trkpt lat="60.37982" lon="7.50007">
        <ele>1333.01</ele>
        <time>2019-04-01T13:34:17Z</time>
      </trkpt>
      <trkpt lat="60.37981" lon="7.50023">
        <ele>1333.97</ele>
        <time>2019-04-01T13:34:18Z</time>
      </trkpt>
      <trkpt lat="60.37985" lon="7.50072">
        <ele>1335.89</ele>
        <time>2019-04-01T13:34:21Z</time>
      </trkpt>
      <trkpt lat="60.3799" lon="7.50101">
        <ele>1337.33</ele>
        <time>2019-04-01T13:34:23Z</time>
      </trkpt>
      <trkpt lat="60.37991" lon="7.50143">
        <ele>1337.33</ele>
        <time>2019-04-01T13:34:31Z</time>
      </trkpt>
      <trkpt lat="60.37991" lon="7.50148">
        <ele>1336.85</ele>
        <time>2019-04-01T13:34:46Z</time>
      </trkpt>
      <trkpt lat="60.37992" lon="7.50159">
        <ele>1337.33</ele>
        <time>2019-04-01T13:34:59Z</time>
      </trkpt>
      <trkpt lat="60.37994" lon="7.50203">
        <ele>1335.41</ele>
        <time>2019-04-01T13:35:06Z</time>
      </trkpt>
      <trkpt lat="60.37994" lon="7.50178">
        <ele>1334.45</ele>
        <time>2019-04-01T13:35:09Z</time>
      </trkpt>
      <trkpt lat="60.37991" lon="7.50149">
        <ele>1335.89</ele>
        <time>2019-04-01T13:35:12Z</time>
      </trkpt>
      <trkpt lat="60.3799" lon="7.5014">
        <ele>1335.89</ele>
        <time>2019-04-01T13:35:13Z</time>
      </trkpt>
      <trkpt lat="60.37986" lon="7.50121">
        <ele>1335.89</ele>
        <time>2019-04-01T13:35:15Z</time>
      </trkpt>
      <trkpt lat="60.37981" lon="7.50101">
        <ele>1335.89</ele>
        <time>2019-04-01T13:35:17Z</time>
      </trkpt>
      <trkpt lat="60.37975" lon="7.50071">
        <ele>1333.49</ele>
        <time>2019-04-01T13:35:20Z</time>
      </trkpt>
      <trkpt lat="60.37981" lon="7.50043">
        <ele>1334.45</ele>
        <time>2019-04-01T13:35:24Z</time>
      </trkpt>
      <trkpt lat="60.37982" lon="7.50022">
        <ele>1333.01</ele>
        <time>2019-04-01T13:35:26Z</time>
      </trkpt>
      <trkpt lat="60.37982" lon="7.49972">
        <ele>1325.31</ele>
        <time>2019-04-01T13:35:29Z</time>
      </trkpt>
      <trkpt lat="60.37982" lon="7.49931">
        <ele>1323.87</ele>
        <time>2019-04-01T13:35:31Z</time>
      </trkpt>
      <trkpt lat="60.37981" lon="7.49884">
        <ele>1319.07</ele>
        <time>2019-04-01T13:35:33Z</time>
      </trkpt>
      <trkpt lat="60.3798" lon="7.49834">
        <ele>1314.26</ele>
        <time>2019-04-01T13:35:35Z</time>
      </trkpt>
      <trkpt lat="60.37982" lon="7.49755">
        <ele>1308.97</ele>
        <time>2019-04-01T13:35:38Z</time>
      </trkpt>
      <trkpt lat="60.37983" lon="7.49683">
        <ele>1306.09</ele>
        <time>2019-04-01T13:35:41Z</time>
      </trkpt>
      <trkpt lat="60.37983" lon="7.49667">
        <ele>1305.13</ele>
        <time>2019-04-01T13:35:42Z</time>
      </trkpt>
      <trkpt lat="60.37992" lon="7.49655">
        <ele>1308.49</ele>
        <time>2019-04-01T13:35:45Z</time>
      </trkpt>
      <trkpt lat="60.37993" lon="7.49679">
        <ele>1312.82</ele>
        <time>2019-04-01T13:35:48Z</time>
      </trkpt>
      <trkpt lat="60.37992" lon="7.49692">
        <ele>1312.82</ele>
        <time>2019-04-01T13:35:49Z</time>
      </trkpt>
      <trkpt lat="60.37977" lon="7.49783">
        <ele>1316.66</ele>
        <time>2019-04-01T13:35:55Z</time>
      </trkpt>
      <trkpt lat="60.37964" lon="7.49856">
        <ele>1321.47</ele>
        <time>2019-04-01T13:36:00Z</time>
      </trkpt>
      <trkpt lat="60.37958" lon="7.49914">
        <ele>1324.83</ele>
        <time>2019-04-01T13:36:04Z</time>
      </trkpt>
      <trkpt lat="60.37964" lon="7.49944">
        <ele>1326.28</ele>
        <time>2019-04-01T13:36:07Z</time>
      </trkpt>
      <trkpt lat="60.37967" lon="7.49948">
        <ele>1326.76</ele>
        <time>2019-04-01T13:36:08Z</time>
      </trkpt>
      <trkpt lat="60.37975" lon="7.49957">
        <ele>1327.72</ele>
        <time>2019-04-01T13:36:10Z</time>
      </trkpt>
      <trkpt lat="60.37983" lon="7.49995">
        <ele>1331.08</ele>
        <time>2019-04-01T13:36:16Z</time>
      </trkpt>
      <trkpt lat="60.37984" lon="7.50006">
        <ele>1331.56</ele>
        <time>2019-04-01T13:36:26Z</time>
      </trkpt>
      <trkpt lat="60.37984" lon="7.5001">
        <ele>1332.52</ele>
        <time>2019-04-01T13:36:41Z</time>
      </trkpt>
      <trkpt lat="60.37984" lon="7.50013">
        <ele>1332.52</ele>
        <time>2019-04-01T13:36:57Z</time>
      </trkpt>
      <trkpt lat="60.37984" lon="7.50025">
        <ele>1333.01</ele>
        <time>2019-04-01T13:37:11Z</time>
      </trkpt>
      <trkpt lat="60.37981" lon="7.50036">
        <ele>1334.45</ele>
        <time>2019-04-01T13:37:26Z</time>
      </trkpt>
      <trkpt lat="60.37988" lon="7.50014">
        <ele>1332.04</ele>
        <time>2019-04-01T13:37:30Z</time>
      </trkpt>
      <trkpt lat="60.3799" lon="7.49992">
        <ele>1328.2</ele>
        <time>2019-04-01T13:37:32Z</time>
      </trkpt>
      <trkpt lat="60.38" lon="7.49979">
        <ele>1328.68</ele>
        <time>2019-04-01T13:37:35Z</time>
      </trkpt>
      <trkpt lat="60.38006" lon="7.49989">
        <ele>1329.16</ele>
        <time>2019-04-01T13:37:37Z</time>
      </trkpt>
      <trkpt lat="60.38015" lon="7.50019">
        <ele>1330.6</ele>
        <time>2019-04-01T13:37:40Z</time>
      </trkpt>
      <trkpt lat="60.38023" lon="7.50095">
        <ele>1333.01</ele>
        <time>2019-04-01T13:37:46Z</time>
      </trkpt>
      <trkpt lat="60.38019" lon="7.50136">
        <ele>1334.45</ele>
        <time>2019-04-01T13:37:49Z</time>
      </trkpt>
      <trkpt lat="60.38016" lon="7.5015">
        <ele>1334.45</ele>
        <time>2019-04-01T13:37:50Z</time>
      </trkpt>
      <trkpt lat="60.38" lon="7.50209">
        <ele>1335.89</ele>
        <time>2019-04-01T13:37:56Z</time>
      </trkpt>
      <trkpt lat="60.37992" lon="7.50233">
        <ele>1335.89</ele>
        <time>2019-04-01T13:37:59Z</time>
      </trkpt>
      <trkpt lat="60.37986" lon="7.50251">
        <ele>1333.97</ele>
        <time>2019-04-01T13:38:06Z</time>
      </trkpt>
      <trkpt lat="60.38006" lon="7.50153">
        <ele>1333.97</ele>
        <time>2019-04-01T13:38:16Z</time>
      </trkpt>
      <trkpt lat="60.38005" lon="7.50118">
        <ele>1333.97</ele>
        <time>2019-04-01T13:38:19Z</time>
      </trkpt>
      <trkpt lat="60.38001" lon="7.50101">
        <ele>1334.93</ele>
        <time>2019-04-01T13:38:21Z</time>
      </trkpt>
      <trkpt lat="60.37982" lon="7.50058">
        <ele>1333.01</ele>
        <time>2019-04-01T13:38:30Z</time>
      </trkpt>
      <trkpt lat="60.37948" lon="7.49995">
        <ele>1330.6</ele>
        <time>2019-04-01T13:38:42Z</time>
      </trkpt>
      <trkpt lat="60.37939" lon="7.49978">
        <ele>1326.76</ele>
        <time>2019-04-01T13:38:44Z</time>
      </trkpt>
      <trkpt lat="60.37935" lon="7.49969">
        <ele>1326.76</ele>
        <time>2019-04-01T13:38:45Z</time>
      </trkpt>
      <trkpt lat="60.37921" lon="7.49934">
        <ele>1322.43</ele>
        <time>2019-04-01T13:38:48Z</time>
      </trkpt>
      <trkpt lat="60.3791" lon="7.49906">
        <ele>1317.62</ele>
        <time>2019-04-01T13:38:50Z</time>
      </trkpt>
      <trkpt lat="60.37899" lon="7.49879">
        <ele>1314.26</ele>
        <time>2019-04-01T13:38:52Z</time>
      </trkpt>
      <trkpt lat="60.37894" lon="7.49866">
        <ele>1313.78</ele>
        <time>2019-04-01T13:38:53Z</time>
      </trkpt>
      <trkpt lat="60.37879" lon="7.49829">
        <ele>1311.86</ele>
        <time>2019-04-01T13:38:56Z</time>
      </trkpt>
      <trkpt lat="60.37854" lon="7.4975">
        <ele>1308.49</ele>
        <time>2019-04-01T13:39:02Z</time>
      </trkpt>
      <trkpt lat="60.37815" lon="7.49589">
        <ele>1307.53</ele>
        <time>2019-04-01T13:39:13Z</time>
      </trkpt>
      <trkpt lat="60.37804" lon="7.49537">
        <ele>1308.97</ele>
        <time>2019-04-01T13:39:17Z</time>
      </trkpt>
      <trkpt lat="60.37792" lon="7.49468">
        <ele>1311.38</ele>
        <time>2019-04-01T13:39:22Z</time>
      </trkpt>
      <trkpt lat="60.37781" lon="7.49418">
        <ele>1312.82</ele>
        <time>2019-04-01T13:39:26Z</time>
      </trkpt>
      <trkpt lat="60.37775" lon="7.49395">
        <ele>1313.78</ele>
        <time>2019-04-01T13:39:28Z</time>
      </trkpt>
      <trkpt lat="60.37748" lon="7.49314">
        <ele>1311.86</ele>
        <time>2019-04-01T13:39:36Z</time>
      </trkpt>
      <trkpt lat="60.3774" lon="7.49287">
        <ele>1313.3</ele>
        <time>2019-04-01T13:39:41Z</time>
      </trkpt>
      <trkpt lat="60.37739" lon="7.49308">
        <ele>1315.22</ele>
        <time>2019-04-01T13:39:44Z</time>
      </trkpt>
      <trkpt lat="60.37728" lon="7.4934">
        <ele>1316.66</ele>
        <time>2019-04-01T13:39:48Z</time>
      </trkpt>
      <trkpt lat="60.37725" lon="7.49349">
        <ele>1317.62</ele>
        <time>2019-04-01T13:39:49Z</time>
      </trkpt>
      <trkpt lat="60.37714" lon="7.49382">
        <ele>1318.59</ele>
        <time>2019-04-01T13:39:53Z</time>
      </trkpt>
      <trkpt lat="60.37706" lon="7.49399">
        <ele>1320.03</ele>
        <time>2019-04-01T13:39:55Z</time>
      </trkpt>
      <trkpt lat="60.37703" lon="7.49406">
        <ele>1320.51</ele>
        <time>2019-04-01T13:39:56Z</time>
      </trkpt>
      <trkpt lat="60.37652" lon="7.49541">
        <ele>1317.62</ele>
        <time>2019-04-01T13:40:09Z</time>
      </trkpt>
      <trkpt lat="60.37633" lon="7.49605">
        <ele>1315.22</ele>
        <time>2019-04-01T13:40:13Z</time>
      </trkpt>
      <trkpt lat="60.37629" lon="7.4962">
        <ele>1314.26</ele>
        <time>2019-04-01T13:40:14Z</time>
      </trkpt>
      <trkpt lat="60.37611" lon="7.49701">
        <ele>1311.86</ele>
        <time>2019-04-01T13:40:19Z</time>
      </trkpt>
      <trkpt lat="60.37599" lon="7.49755">
        <ele>1314.26</ele>
        <time>2019-04-01T13:40:23Z</time>
      </trkpt>
      <trkpt lat="60.37586" lon="7.49821">
        <ele>1317.62</ele>
        <time>2019-04-01T13:40:28Z</time>
      </trkpt>
      <trkpt lat="60.37572" lon="7.49918">
        <ele>1319.55</ele>
        <time>2019-04-01T13:40:35Z</time>
      </trkpt>
      <trkpt lat="60.37539" lon="7.50084">
        <ele>1318.59</ele>
        <time>2019-04-01T13:40:47Z</time>
      </trkpt>
      <trkpt lat="60.37534" lon="7.50111">
        <ele>1318.59</ele>
        <time>2019-04-01T13:40:49Z</time>
      </trkpt>
      <trkpt lat="60.37528" lon="7.50137">
        <ele>1320.03</ele>
        <time>2019-04-01T13:40:51Z</time>
      </trkpt>
      <trkpt lat="60.37515" lon="7.50204">
        <ele>1318.59</ele>
        <time>2019-04-01T13:40:56Z</time>
      </trkpt>
      <trkpt lat="60.37484" lon="7.50359">
        <ele>1316.18</ele>
        <time>2019-04-01T13:41:06Z</time>
      </trkpt>
      <trkpt lat="60.37475" lon="7.50413">
        <ele>1311.86</ele>
        <time>2019-04-01T13:41:09Z</time>
      </trkpt>
      <trkpt lat="60.37472" lon="7.50433">
        <ele>1312.34</ele>
        <time>2019-04-01T13:41:10Z</time>
      </trkpt>
      <trkpt lat="60.37469" lon="7.50477">
        <ele>1308.97</ele>
        <time>2019-04-01T13:41:12Z</time>
      </trkpt>
      <trkpt lat="60.37467" lon="7.505">
        <ele>1308.97</ele>
        <time>2019-04-01T13:41:13Z</time>
      </trkpt>
      <trkpt lat="60.37462" lon="7.50564">
        <ele>1306.09</ele>
        <time>2019-04-01T13:41:16Z</time>
      </trkpt>
      <trkpt lat="60.37435" lon="7.50784">
        <ele>1304.65</ele>
        <time>2019-04-01T13:41:28Z</time>
      </trkpt>
      <trkpt lat="60.37427" lon="7.50838">
        <ele>1304.65</ele>
        <time>2019-04-01T13:41:31Z</time>
      </trkpt>
      <trkpt lat="60.3742" lon="7.50951">
        <ele>1304.17</ele>
        <time>2019-04-01T13:41:39Z</time>
      </trkpt>
      <trkpt lat="60.37422" lon="7.50975">
        <ele>1303.69</ele>
        <time>2019-04-01T13:41:42Z</time>
      </trkpt>
      <trkpt lat="60.37429" lon="7.5103">
        <ele>1303.2</ele>
        <time>2019-04-01T13:41:47Z</time>
      </trkpt>
      <trkpt lat="60.37432" lon="7.51085">
        <ele>1299.84</ele>
        <time>2019-04-01T13:41:51Z</time>
      </trkpt>
      <trkpt lat="60.37435" lon="7.51111">
        <ele>1296.48</ele>
        <time>2019-04-01T13:41:53Z</time>
      </trkpt>
      <trkpt lat="60.37438" lon="7.51157">
        <ele>1293.11</ele>
        <time>2019-04-01T13:41:56Z</time>
      </trkpt>
      <trkpt lat="60.37438" lon="7.51189">
        <ele>1290.71</ele>
        <time>2019-04-01T13:41:58Z</time>
      </trkpt>
      <trkpt lat="60.37437" lon="7.51249">
        <ele>1283.5</ele>
        <time>2019-04-01T13:42:01Z</time>
      </trkpt>
      <trkpt lat="60.37427" lon="7.51292">
        <ele>1278.69</ele>
        <time>2019-04-01T13:42:03Z</time>
      </trkpt>
      <trkpt lat="60.37413" lon="7.5133">
        <ele>1273.4</ele>
        <time>2019-04-01T13:42:05Z</time>
      </trkpt>
      <trkpt lat="60.37389" lon="7.51371">
        <ele>1266.19</ele>
        <time>2019-04-01T13:42:08Z</time>
      </trkpt>
      <trkpt lat="60.37382" lon="7.51384">
        <ele>1264.27</ele>
        <time>2019-04-01T13:42:09Z</time>
      </trkpt>
      <trkpt lat="60.37363" lon="7.51428">
        <ele>1258.98</ele>
        <time>2019-04-01T13:42:12Z</time>
      </trkpt>
      <trkpt lat="60.37345" lon="7.5147">
        <ele>1260.91</ele>
        <time>2019-04-01T13:42:16Z</time>
      </trkpt>
      <trkpt lat="60.37336" lon="7.51483">
        <ele>1261.87</ele>
        <time>2019-04-01T13:42:18Z</time>
      </trkpt>
      <trkpt lat="60.3731" lon="7.51504">
        <ele>1258.98</ele>
        <time>2019-04-01T13:42:23Z</time>
      </trkpt>
      <trkpt lat="60.37295" lon="7.51528">
        <ele>1255.14</ele>
        <time>2019-04-01T13:42:26Z</time>
      </trkpt>
      <trkpt lat="60.37291" lon="7.51562">
        <ele>1253.7</ele>
        <time>2019-04-01T13:42:32Z</time>
      </trkpt>
      <trkpt lat="60.3728" lon="7.51569">
        <ele>1252.74</ele>
        <time>2019-04-01T13:42:41Z</time>
      </trkpt>
      <trkpt lat="60.37278" lon="7.51569">
        <ele>1252.25</ele>
        <time>2019-04-01T13:42:59Z</time>
      </trkpt>
      <trkpt lat="60.37278" lon="7.51569">
        <ele>1252.25</ele>
        <time>2019-04-01T13:43:02Z</time>
      </trkpt>
      <trkpt lat="60.37274" lon="7.51576">
        <ele>1253.7</ele>
        <time>2019-04-01T13:43:06Z</time>
      </trkpt>
      <trkpt lat="60.37278" lon="7.51573">
        <ele>1252.25</ele>
        <time>2019-04-01T13:43:09Z</time>
      </trkpt>
      <trkpt lat="60.37276" lon="7.51558">
        <ele>1251.77</ele>
        <time>2019-04-01T13:43:11Z</time>
      </trkpt>
      <trkpt lat="60.37273" lon="7.51543">
        <ele>1250.81</ele>
        <time>2019-04-01T13:43:13Z</time>
      </trkpt>
      <trkpt lat="60.37255" lon="7.51487">
        <ele>1249.85</ele>
        <time>2019-04-01T13:43:22Z</time>
      </trkpt>
      <trkpt lat="60.37243" lon="7.51455">
        <ele>1249.37</ele>
        <time>2019-04-01T13:43:27Z</time>
      </trkpt>
      <trkpt lat="60.37221" lon="7.51388">
        <ele>1247.93</ele>
        <time>2019-04-01T13:43:37Z</time>
      </trkpt>
      <trkpt lat="60.37214" lon="7.51357">
        <ele>1247.93</ele>
        <time>2019-04-01T13:43:41Z</time>
      </trkpt>
      <trkpt lat="60.37209" lon="7.51342">
        <ele>1247.45</ele>
        <time>2019-04-01T13:43:43Z</time>
      </trkpt>
      <trkpt lat="60.37203" lon="7.51328">
        <ele>1246.01</ele>
        <time>2019-04-01T13:43:45Z</time>
      </trkpt>
      <trkpt lat="60.372" lon="7.5132">
        <ele>1246.01</ele>
        <time>2019-04-01T13:43:46Z</time>
      </trkpt>
      <trkpt lat="60.37186" lon="7.51289">
        <ele>1241.68</ele>
        <time>2019-04-01T13:43:50Z</time>
      </trkpt>
      <trkpt lat="60.37179" lon="7.51274">
        <ele>1240.72</ele>
        <time>2019-04-01T13:43:52Z</time>
      </trkpt>
      <trkpt lat="60.37169" lon="7.5125">
        <ele>1239.28</ele>
        <time>2019-04-01T13:43:55Z</time>
      </trkpt>
      <trkpt lat="60.37171" lon="7.51245">
        <ele>1240.72</ele>
        <time>2019-04-01T13:43:58Z</time>
      </trkpt>
      <trkpt lat="60.37169" lon="7.5126">
        <ele>1241.2</ele>
        <time>2019-04-01T13:44:00Z</time>
      </trkpt>
      <trkpt lat="60.37158" lon="7.51314">
        <ele>1241.2</ele>
        <time>2019-04-01T13:44:05Z</time>
      </trkpt>
      <trkpt lat="60.37144" lon="7.51356">
        <ele>1241.2</ele>
        <time>2019-04-01T13:44:14Z</time>
      </trkpt>
      <trkpt lat="60.37144" lon="7.51356">
        <ele>1241.2</ele>
        <time>2019-04-01T13:44:40Z</time>
      </trkpt>
      <trkpt lat="60.37142" lon="7.5136">
        <ele>1241.2</ele>
        <time>2019-04-01T13:44:42Z</time>
      </trkpt>
      <trkpt lat="60.37093" lon="7.51433">
        <ele>1238.32</ele>
        <time>2019-04-01T13:44:52Z</time>
      </trkpt>
      <trkpt lat="60.37087" lon="7.51441">
        <ele>1238.32</ele>
        <time>2019-04-01T13:44:53Z</time>
      </trkpt>
      <trkpt lat="60.37045" lon="7.51512">
        <ele>1234.47</ele>
        <time>2019-04-01T13:45:01Z</time>
      </trkpt>
      <trkpt lat="60.36973" lon="7.51683">
        <ele>1231.59</ele>
        <time>2019-04-01T13:45:17Z</time>
      </trkpt>
      <trkpt lat="60.36935" lon="7.51778">
        <ele>1231.59</ele>
        <time>2019-04-01T13:45:27Z</time>
      </trkpt>
      <trkpt lat="60.36927" lon="7.51804">
        <ele>1231.59</ele>
        <time>2019-04-01T13:45:30Z</time>
      </trkpt>
      <trkpt lat="60.36908" lon="7.51887">
        <ele>1231.59</ele>
        <time>2019-04-01T13:45:42Z</time>
      </trkpt>
      <trkpt lat="60.36905" lon="7.51897">
        <ele>1231.59</ele>
        <time>2019-04-01T13:45:48Z</time>
      </trkpt>
      <trkpt lat="60.36904" lon="7.5191">
        <ele>1233.03</ele>
        <time>2019-04-01T13:46:00Z</time>
      </trkpt>
      <trkpt lat="60.36903" lon="7.5191">
        <ele>1231.59</ele>
        <time>2019-04-01T13:46:13Z</time>
      </trkpt>
      <trkpt lat="60.36903" lon="7.51911">
        <ele>1232.55</ele>
        <time>2019-04-01T13:46:18Z</time>
      </trkpt>
      <trkpt lat="60.369" lon="7.51921">
        <ele>1232.55</ele>
        <time>2019-04-01T13:46:22Z</time>
      </trkpt>
      <trkpt lat="60.36899" lon="7.51926">
        <ele>1231.11</ele>
        <time>2019-04-01T13:46:28Z</time>
      </trkpt>
      <trkpt lat="60.36899" lon="7.5193">
        <ele>1231.11</ele>
        <time>2019-04-01T13:46:50Z</time>
      </trkpt>
      <trkpt lat="60.36901" lon="7.51912">
        <ele>1230.62</ele>
        <time>2019-04-01T13:46:53Z</time>
      </trkpt>
      <trkpt lat="60.36892" lon="7.51867">
        <ele>1230.62</ele>
        <time>2019-04-01T13:46:58Z</time>
      </trkpt>
      <trkpt lat="60.36892" lon="7.51859">
        <ele>1230.62</ele>
        <time>2019-04-01T13:46:59Z</time>
      </trkpt>
      <trkpt lat="60.36892" lon="7.51856">
        <ele>1232.07</ele>
        <time>2019-04-01T13:47:00Z</time>
      </trkpt>
      <trkpt lat="60.36892" lon="7.51853">
        <ele>1233.03</ele>
        <time>2019-04-01T13:47:02Z</time>
      </trkpt>
      <trkpt lat="60.36892" lon="7.51851">
        <ele>1232.07</ele>
        <time>2019-04-01T13:47:04Z</time>
      </trkpt>
      <trkpt lat="60.3689" lon="7.51848">
        <ele>1233.99</ele>
        <time>2019-04-01T13:47:14Z</time>
      </trkpt>
      <trkpt lat="60.36889" lon="7.51844">
        <ele>1233.99</ele>
        <time>2019-04-01T13:47:15Z</time>
      </trkpt>
      <trkpt lat="60.36882" lon="7.51815">
        <ele>1230.14</ele>
        <time>2019-04-01T13:47:20Z</time>
      </trkpt>
      <trkpt lat="60.36881" lon="7.51809">
        <ele>1230.14</ele>
        <time>2019-04-01T13:47:21Z</time>
      </trkpt>
      <trkpt lat="60.36881" lon="7.51804">
        <ele>1230.14</ele>
        <time>2019-04-01T13:47:22Z</time>
      </trkpt>
      <trkpt lat="60.36882" lon="7.51801">
        <ele>1232.55</ele>
        <time>2019-04-01T13:47:24Z</time>
      </trkpt>
      <trkpt lat="60.36881" lon="7.5181">
        <ele>1233.03</ele>
        <time>2019-04-01T13:47:36Z</time>
      </trkpt>
      <trkpt lat="60.36881" lon="7.51805">
        <ele>1233.03</ele>
        <time>2019-04-01T13:47:55Z</time>
      </trkpt>
      <trkpt lat="60.36881" lon="7.51805">
        <ele>1233.03</ele>
        <time>2019-04-01T13:48:10Z</time>
      </trkpt>
      <trkpt lat="60.36881" lon="7.51805">
        <ele>1231.11</ele>
        <time>2019-04-01T13:48:25Z</time>
      </trkpt>
      <trkpt lat="60.36877" lon="7.51812">
        <ele>1227.26</ele>
        <time>2019-04-01T13:48:35Z</time>
      </trkpt>
      <trkpt lat="60.36872" lon="7.51821">
        <ele>1228.22</ele>
        <time>2019-04-01T13:48:42Z</time>
      </trkpt>
      <trkpt lat="60.36869" lon="7.51827">
        <ele>1229.18</ele>
        <time>2019-04-01T13:48:54Z</time>
      </trkpt>
      <trkpt lat="60.36865" lon="7.5183">
        <ele>1228.22</ele>
        <time>2019-04-01T13:49:06Z</time>
      </trkpt>
      <trkpt lat="60.36864" lon="7.51835">
        <ele>1228.22</ele>
        <time>2019-04-01T13:49:18Z</time>
      </trkpt>
      <trkpt lat="60.36863" lon="7.51831">
        <ele>1227.26</ele>
        <time>2019-04-01T13:49:40Z</time>
      </trkpt>
      <trkpt lat="60.36863" lon="7.5183">
        <ele>1227.26</ele>
        <time>2019-04-01T13:49:41Z</time>
      </trkpt>
      <trkpt lat="60.3686" lon="7.51834">
        <ele>1228.22</ele>
        <time>2019-04-01T13:49:45Z</time>
      </trkpt>
      <trkpt lat="60.36854" lon="7.51845">
        <ele>1227.26</ele>
        <time>2019-04-01T13:49:49Z</time>
      </trkpt>
      <trkpt lat="60.36852" lon="7.51862">
        <ele>1224.86</ele>
        <time>2019-04-01T13:49:59Z</time>
      </trkpt>
      <trkpt lat="60.3685" lon="7.5186">
        <ele>1223.9</ele>
        <time>2019-04-01T13:50:14Z</time>
      </trkpt>
      <trkpt lat="60.36849" lon="7.51859">
        <ele>1223.9</ele>
        <time>2019-04-01T13:50:34Z</time>
      </trkpt>
      <trkpt lat="60.36851" lon="7.5186">
        <ele>1223.9</ele>
        <time>2019-04-01T13:50:50Z</time>
      </trkpt>
      <trkpt lat="60.36849" lon="7.51859">
        <ele>1223.9</ele>
        <time>2019-04-01T13:51:10Z</time>
      </trkpt>
      <trkpt lat="60.3685" lon="7.51861">
        <ele>1223.9</ele>
        <time>2019-04-01T13:51:13Z</time>
      </trkpt>
      <trkpt lat="60.36854" lon="7.51875">
        <ele>1223.9</ele>
        <time>2019-04-01T13:51:18Z</time>
      </trkpt>
      <trkpt lat="60.36859" lon="7.51891">
        <ele>1225.34</ele>
        <time>2019-04-01T13:51:20Z</time>
      </trkpt>
      <trkpt lat="60.36861" lon="7.519">
        <ele>1225.34</ele>
        <time>2019-04-01T13:51:21Z</time>
      </trkpt>
      <trkpt lat="60.36863" lon="7.51908">
        <ele>1225.34</ele>
        <time>2019-04-01T13:51:22Z</time>
      </trkpt>
      <trkpt lat="60.36864" lon="7.51915">
        <ele>1225.34</ele>
        <time>2019-04-01T13:51:23Z</time>
      </trkpt>
      <trkpt lat="60.36866" lon="7.5192">
        <ele>1225.34</ele>
        <time>2019-04-01T13:51:24Z</time>
      </trkpt>
      <trkpt lat="60.36868" lon="7.51923">
        <ele>1225.34</ele>
        <time>2019-04-01T13:51:25Z</time>
      </trkpt>
      <trkpt lat="60.36869" lon="7.51925">
        <ele>1225.34</ele>
        <time>2019-04-01T13:51:26Z</time>
      </trkpt>
      <trkpt lat="60.36871" lon="7.51931">
        <ele>1225.82</ele>
        <time>2019-04-01T13:51:38Z</time>
      </trkpt>
      <trkpt lat="60.36871" lon="7.51929">
        <ele>1226.3</ele>
        <time>2019-04-01T13:51:58Z</time>
      </trkpt>
      <trkpt lat="60.36871" lon="7.51926">
        <ele>1226.78</ele>
        <time>2019-04-01T13:52:17Z</time>
      </trkpt>
      <trkpt lat="60.36871" lon="7.51928">
        <ele>1226.78</ele>
        <time>2019-04-01T13:52:32Z</time>
      </trkpt>
      <trkpt lat="60.36871" lon="7.51929">
        <ele>1226.78</ele>
        <time>2019-04-01T13:52:53Z</time>
      </trkpt>
      <trkpt lat="60.36871" lon="7.5193">
        <ele>1226.78</ele>
        <time>2019-04-01T13:53:14Z</time>
      </trkpt>
      <trkpt lat="60.36871" lon="7.51932">
        <ele>1226.78</ele>
        <time>2019-04-01T13:53:16Z</time>
      </trkpt>
      <trkpt lat="60.36871" lon="7.51935">
        <ele>1226.78</ele>
        <time>2019-04-01T13:53:17Z</time>
      </trkpt>
      <trkpt lat="60.36874" lon="7.51965">
        <ele>1225.34</ele>
        <time>2019-04-01T13:53:24Z</time>
      </trkpt>
      <trkpt lat="60.36874" lon="7.5197">
        <ele>1225.34</ele>
        <time>2019-04-01T13:53:42Z</time>
      </trkpt>
      <trkpt lat="60.36873" lon="7.51972">
        <ele>1225.34</ele>
        <time>2019-04-01T13:53:44Z</time>
      </trkpt>
      <trkpt lat="60.3685" lon="7.52002">
        <ele>1223.42</ele>
        <time>2019-04-01T13:53:57Z</time>
      </trkpt>
      <trkpt lat="60.36848" lon="7.52006">
        <ele>1222.45</ele>
        <time>2019-04-01T13:53:59Z</time>
      </trkpt>
      <trkpt lat="60.36841" lon="7.51972">
        <ele>1220.53</ele>
        <time>2019-04-01T13:54:03Z</time>
      </trkpt>
      <trkpt lat="60.36813" lon="7.51842">
        <ele>1222.93</ele>
        <time>2019-04-01T13:54:14Z</time>
      </trkpt>
      <trkpt lat="60.3678" lon="7.51666">
        <ele>1223.9</ele>
        <time>2019-04-01T13:54:27Z</time>
      </trkpt>
      <trkpt lat="60.36737" lon="7.51473">
        <ele>1222.93</ele>
        <time>2019-04-01T13:54:41Z</time>
      </trkpt>
      <trkpt lat="60.36729" lon="7.51424">
        <ele>1221.01</ele>
        <time>2019-04-01T13:54:44Z</time>
      </trkpt>
      <trkpt lat="60.3672" lon="7.51343">
        <ele>1224.38</ele>
        <time>2019-04-01T13:54:49Z</time>
      </trkpt>
      <trkpt lat="60.36706" lon="7.51281">
        <ele>1222.93</ele>
        <time>2019-04-01T13:54:54Z</time>
      </trkpt>
      <trkpt lat="60.36683" lon="7.51222">
        <ele>1219.09</ele>
        <time>2019-04-01T13:54:59Z</time>
      </trkpt>
      <trkpt lat="60.36659" lon="7.51152">
        <ele>1218.13</ele>
        <time>2019-04-01T13:55:05Z</time>
      </trkpt>
      <trkpt lat="60.36662" lon="7.51184">
        <ele>1220.53</ele>
        <time>2019-04-01T13:55:11Z</time>
      </trkpt>
      <trkpt lat="60.3666" lon="7.51196">
        <ele>1221.01</ele>
        <time>2019-04-01T13:55:12Z</time>
      </trkpt>
      <trkpt lat="60.36644" lon="7.51281">
        <ele>1218.61</ele>
        <time>2019-04-01T13:55:18Z</time>
      </trkpt>
      <trkpt lat="60.36638" lon="7.51326">
        <ele>1217.17</ele>
        <time>2019-04-01T13:55:21Z</time>
      </trkpt>
      <trkpt lat="60.36627" lon="7.51445">
        <ele>1217.17</ele>
        <time>2019-04-01T13:55:29Z</time>
      </trkpt>
      <trkpt lat="60.3662" lon="7.51513">
        <ele>1218.13</ele>
        <time>2019-04-01T13:55:34Z</time>
      </trkpt>
      <trkpt lat="60.36611" lon="7.51562">
        <ele>1219.09</ele>
        <time>2019-04-01T13:55:38Z</time>
      </trkpt>
      <trkpt lat="60.36605" lon="7.51626">
        <ele>1220.53</ele>
        <time>2019-04-01T13:55:43Z</time>
      </trkpt>
      <trkpt lat="60.36599" lon="7.51676">
        <ele>1222.45</ele>
        <time>2019-04-01T13:55:47Z</time>
      </trkpt>
      <trkpt lat="60.36595" lon="7.51701">
        <ele>1223.42</ele>
        <time>2019-04-01T13:55:49Z</time>
      </trkpt>
      <trkpt lat="60.36569" lon="7.51798">
        <ele>1221.97</ele>
        <time>2019-04-01T13:55:56Z</time>
      </trkpt>
      <trkpt lat="60.36556" lon="7.51849">
        <ele>1218.61</ele>
        <time>2019-04-01T13:55:59Z</time>
      </trkpt>
      <trkpt lat="60.36542" lon="7.51896">
        <ele>1215.72</ele>
        <time>2019-04-01T13:56:02Z</time>
      </trkpt>
      <trkpt lat="60.36529" lon="7.51954">
        <ele>1215.24</ele>
        <time>2019-04-01T13:56:06Z</time>
      </trkpt>
      <trkpt lat="60.36524" lon="7.51981">
        <ele>1215.24</ele>
        <time>2019-04-01T13:56:08Z</time>
      </trkpt>
      <trkpt lat="60.36517" lon="7.52049">
        <ele>1214.76</ele>
        <time>2019-04-01T13:56:13Z</time>
      </trkpt>
      <trkpt lat="60.36513" lon="7.52118">
        <ele>1214.76</ele>
        <time>2019-04-01T13:56:18Z</time>
      </trkpt>
      <trkpt lat="60.36505" lon="7.52217">
        <ele>1214.76</ele>
        <time>2019-04-01T13:56:25Z</time>
      </trkpt>
      <trkpt lat="60.36501" lon="7.5226">
        <ele>1216.21</ele>
        <time>2019-04-01T13:56:28Z</time>
      </trkpt>
      <trkpt lat="60.36491" lon="7.52335">
        <ele>1216.21</ele>
        <time>2019-04-01T13:56:34Z</time>
      </trkpt>
      <trkpt lat="60.36477" lon="7.52409">
        <ele>1217.65</ele>
        <time>2019-04-01T13:56:40Z</time>
      </trkpt>
      <trkpt lat="60.36454" lon="7.52534">
        <ele>1217.65</ele>
        <time>2019-04-01T13:56:49Z</time>
      </trkpt>
      <trkpt lat="60.36445" lon="7.52595">
        <ele>1215.72</ele>
        <time>2019-04-01T13:56:53Z</time>
      </trkpt>
      <trkpt lat="60.36429" lon="7.52686">
        <ele>1213.32</ele>
        <time>2019-04-01T13:56:59Z</time>
      </trkpt>
      <trkpt lat="60.36425" lon="7.52715">
        <ele>1212.36</ele>
        <time>2019-04-01T13:57:01Z</time>
      </trkpt>
      <trkpt lat="60.36425" lon="7.52728">
        <ele>1212.36</ele>
        <time>2019-04-01T13:57:02Z</time>
      </trkpt>
      <trkpt lat="60.36424" lon="7.5274">
        <ele>1212.36</ele>
        <time>2019-04-01T13:57:03Z</time>
      </trkpt>
      <trkpt lat="60.36422" lon="7.52752">
        <ele>1212.36</ele>
        <time>2019-04-01T13:57:04Z</time>
      </trkpt>
      <trkpt lat="60.36418" lon="7.52785">
        <ele>1213.32</ele>
        <time>2019-04-01T13:57:07Z</time>
      </trkpt>
      <trkpt lat="60.3642" lon="7.5285">
        <ele>1215.24</ele>
        <time>2019-04-01T13:57:15Z</time>
      </trkpt>
      <trkpt lat="60.36421" lon="7.52857">
        <ele>1215.72</ele>
        <time>2019-04-01T13:57:16Z</time>
      </trkpt>
      <trkpt lat="60.36422" lon="7.52871">
        <ele>1216.69</ele>
        <time>2019-04-01T13:57:18Z</time>
      </trkpt>
      <trkpt lat="60.36424" lon="7.52883">
        <ele>1217.17</ele>
        <time>2019-04-01T13:57:20Z</time>
      </trkpt>
      <trkpt lat="60.3643" lon="7.52937">
        <ele>1219.09</ele>
        <time>2019-04-01T13:57:29Z</time>
      </trkpt>
      <trkpt lat="60.36432" lon="7.52943">
        <ele>1219.09</ele>
        <time>2019-04-01T13:57:30Z</time>
      </trkpt>
      <trkpt lat="60.36438" lon="7.52976">
        <ele>1221.01</ele>
        <time>2019-04-01T13:57:36Z</time>
      </trkpt>
      <trkpt lat="60.36443" lon="7.53017">
        <ele>1222.45</ele>
        <time>2019-04-01T13:57:44Z</time>
      </trkpt>
      <trkpt lat="60.36448" lon="7.53051">
        <ele>1225.34</ele>
        <time>2019-04-01T13:57:48Z</time>
      </trkpt>
      <trkpt lat="60.36446" lon="7.53108">
        <ele>1228.22</ele>
        <time>2019-04-01T13:57:57Z</time>
      </trkpt>
      <trkpt lat="60.36447" lon="7.53121">
        <ele>1229.18</ele>
        <time>2019-04-01T13:57:59Z</time>
      </trkpt>
      <trkpt lat="60.3645" lon="7.53136">
        <ele>1230.62</ele>
        <time>2019-04-01T13:58:03Z</time>
      </trkpt>
      <trkpt lat="60.3645" lon="7.53144">
        <ele>1231.59</ele>
        <time>2019-04-01T13:58:04Z</time>
      </trkpt>
      <trkpt lat="60.36437" lon="7.53214">
        <ele>1233.99</ele>
        <time>2019-04-01T13:58:15Z</time>
      </trkpt>
      <trkpt lat="60.36434" lon="7.53228">
        <ele>1235.43</ele>
        <time>2019-04-01T13:58:17Z</time>
      </trkpt>
      <trkpt lat="60.36431" lon="7.53235">
        <ele>1235.43</ele>
        <time>2019-04-01T13:58:18Z</time>
      </trkpt>
      <trkpt lat="60.36426" lon="7.53271">
        <ele>1235.43</ele>
        <time>2019-04-01T13:58:23Z</time>
      </trkpt>
      <trkpt lat="60.36425" lon="7.5328">
        <ele>1235.43</ele>
        <time>2019-04-01T13:58:24Z</time>
      </trkpt>
      <trkpt lat="60.36421" lon="7.53297">
        <ele>1235.43</ele>
        <time>2019-04-01T13:58:26Z</time>
      </trkpt>
      <trkpt lat="60.36418" lon="7.53316">
        <ele>1235.43</ele>
        <time>2019-04-01T13:58:28Z</time>
      </trkpt>
      <trkpt lat="60.36402" lon="7.53381">
        <ele>1233.99</ele>
        <time>2019-04-01T13:58:34Z</time>
      </trkpt>
      <trkpt lat="60.3639" lon="7.53416">
        <ele>1235.43</ele>
        <time>2019-04-01T13:58:38Z</time>
      </trkpt>
      <trkpt lat="60.36388" lon="7.53457">
        <ele>1237.35</ele>
        <time>2019-04-01T13:58:46Z</time>
      </trkpt>
      <trkpt lat="60.36382" lon="7.5349">
        <ele>1239.28</ele>
        <time>2019-04-01T13:58:54Z</time>
      </trkpt>
      <trkpt lat="60.36379" lon="7.53506">
        <ele>1240.72</ele>
        <time>2019-04-01T13:59:02Z</time>
      </trkpt>
      <trkpt lat="60.36379" lon="7.53506">
        <ele>1240.72</ele>
        <time>2019-04-01T13:59:03Z</time>
      </trkpt>
      <trkpt lat="60.3637" lon="7.5354">
        <ele>1241.2</ele>
        <time>2019-04-01T13:59:12Z</time>
      </trkpt>
      <trkpt lat="60.36365" lon="7.53558">
        <ele>1241.2</ele>
        <time>2019-04-01T13:59:15Z</time>
      </trkpt>
      <trkpt lat="60.36359" lon="7.5359">
        <ele>1239.76</ele>
        <time>2019-04-01T13:59:20Z</time>
      </trkpt>
      <trkpt lat="60.36357" lon="7.53604">
        <ele>1239.76</ele>
        <time>2019-04-01T13:59:22Z</time>
      </trkpt>
      <trkpt lat="60.36359" lon="7.5365">
        <ele>1240.24</ele>
        <time>2019-04-01T13:59:29Z</time>
      </trkpt>
      <trkpt lat="60.36357" lon="7.53692">
        <ele>1241.2</ele>
        <time>2019-04-01T13:59:34Z</time>
      </trkpt>
      <trkpt lat="60.36352" lon="7.53728">
        <ele>1241.68</ele>
        <time>2019-04-01T13:59:41Z</time>
      </trkpt>
      <trkpt lat="60.36357" lon="7.53742">
        <ele>1243.12</ele>
        <time>2019-04-01T13:59:48Z</time>
      </trkpt>
      <trkpt lat="60.36361" lon="7.53743">
        <ele>1246.01</ele>
        <time>2019-04-01T13:59:56Z</time>
      </trkpt>
      <trkpt lat="60.36362" lon="7.53753">
        <ele>1247.45</ele>
        <time>2019-04-01T14:00:03Z</time>
      </trkpt>
      <trkpt lat="60.36364" lon="7.53755">
        <ele>1248.41</ele>
        <time>2019-04-01T14:00:05Z</time>
      </trkpt>
      <trkpt lat="60.36365" lon="7.53755">
        <ele>1249.37</ele>
        <time>2019-04-01T14:00:08Z</time>
      </trkpt>
      <trkpt lat="60.36369" lon="7.53766">
        <ele>1251.29</ele>
        <time>2019-04-01T14:00:12Z</time>
      </trkpt>
      <trkpt lat="60.3637" lon="7.53771">
        <ele>1252.74</ele>
        <time>2019-04-01T14:00:15Z</time>
      </trkpt>
      <trkpt lat="60.3637" lon="7.53775">
        <ele>1253.22</ele>
        <time>2019-04-01T14:00:19Z</time>
      </trkpt>
      <trkpt lat="60.36374" lon="7.5378">
        <ele>1255.14</ele>
        <time>2019-04-01T14:00:22Z</time>
      </trkpt>
      <trkpt lat="60.36375" lon="7.5379">
        <ele>1256.58</ele>
        <time>2019-04-01T14:00:26Z</time>
      </trkpt>
      <trkpt lat="60.36376" lon="7.53791">
        <ele>1256.58</ele>
        <time>2019-04-01T14:00:27Z</time>
      </trkpt>
      <trkpt lat="60.3638" lon="7.53806">
        <ele>1258.5</ele>
        <time>2019-04-01T14:00:32Z</time>
      </trkpt>
      <trkpt lat="60.3638" lon="7.53808">
        <ele>1259.94</ele>
        <time>2019-04-01T14:00:34Z</time>
      </trkpt>
      <trkpt lat="60.36377" lon="7.53837">
        <ele>1260.91</ele>
        <time>2019-04-01T14:00:43Z</time>
      </trkpt>
      <trkpt lat="60.36378" lon="7.53842">
        <ele>1261.87</ele>
        <time>2019-04-01T14:00:46Z</time>
      </trkpt>
      <trkpt lat="60.36379" lon="7.53845">
        <ele>1262.35</ele>
        <time>2019-04-01T14:00:50Z</time>
      </trkpt>
      <trkpt lat="60.36381" lon="7.53861">
        <ele>1263.79</ele>
        <time>2019-04-01T14:00:54Z</time>
      </trkpt>
      <trkpt lat="60.36371" lon="7.53908">
        <ele>1266.67</ele>
        <time>2019-04-01T14:01:04Z</time>
      </trkpt>
      <trkpt lat="60.3637" lon="7.53909">
        <ele>1266.19</ele>
        <time>2019-04-01T14:01:19Z</time>
      </trkpt>
      <trkpt lat="60.36369" lon="7.53916">
        <ele>1266.19</ele>
        <time>2019-04-01T14:01:21Z</time>
      </trkpt>
      <trkpt lat="60.36367" lon="7.5393">
        <ele>1267.16</ele>
        <time>2019-04-01T14:01:27Z</time>
      </trkpt>
      <trkpt lat="60.36367" lon="7.53949">
        <ele>1269.56</ele>
        <time>2019-04-01T14:01:31Z</time>
      </trkpt>
      <trkpt lat="60.36347" lon="7.53984">
        <ele>1270.04</ele>
        <time>2019-04-01T14:01:39Z</time>
      </trkpt>
      <trkpt lat="60.36346" lon="7.53987">
        <ele>1270.04</ele>
        <time>2019-04-01T14:01:52Z</time>
      </trkpt>
      <trkpt lat="60.36347" lon="7.53985">
        <ele>1270.04</ele>
        <time>2019-04-01T14:01:54Z</time>
      </trkpt>
      <trkpt lat="60.36351" lon="7.53953">
        <ele>1266.67</ele>
        <time>2019-04-01T14:01:58Z</time>
      </trkpt>
      <trkpt lat="60.36361" lon="7.53927">
        <ele>1266.67</ele>
        <time>2019-04-01T14:02:01Z</time>
      </trkpt>
      <trkpt lat="60.36395" lon="7.53877">
        <ele>1266.67</ele>
        <time>2019-04-01T14:02:08Z</time>
      </trkpt>
      <trkpt lat="60.36414" lon="7.53841">
        <ele>1263.79</ele>
        <time>2019-04-01T14:02:12Z</time>
      </trkpt>
      <trkpt lat="60.36417" lon="7.53841">
        <ele>1266.19</ele>
        <time>2019-04-01T14:02:15Z</time>
      </trkpt>
      <trkpt lat="60.36416" lon="7.5384">
        <ele>1266.19</ele>
        <time>2019-04-01T14:02:19Z</time>
      </trkpt>
      <trkpt lat="60.36431" lon="7.53831">
        <ele>1266.67</ele>
        <time>2019-04-01T14:02:26Z</time>
      </trkpt>
      <trkpt lat="60.36434" lon="7.53834">
        <ele>1267.64</ele>
        <time>2019-04-01T14:02:38Z</time>
      </trkpt>
      <trkpt lat="60.36434" lon="7.53834">
        <ele>1267.64</ele>
        <time>2019-04-01T14:02:43Z</time>
      </trkpt>
      <trkpt lat="60.36435" lon="7.53849">
        <ele>1269.08</ele>
        <time>2019-04-01T14:02:47Z</time>
      </trkpt>
      <trkpt lat="60.36443" lon="7.53878">
        <ele>1272.44</ele>
        <time>2019-04-01T14:02:53Z</time>
      </trkpt>
      <trkpt lat="60.36445" lon="7.53918">
        <ele>1276.29</ele>
        <time>2019-04-01T14:02:58Z</time>
      </trkpt>
      <trkpt lat="60.36444" lon="7.53952">
        <ele>1278.21</ele>
        <time>2019-04-01T14:03:02Z</time>
      </trkpt>
      <trkpt lat="60.36442" lon="7.53999">
        <ele>1281.09</ele>
        <time>2019-04-01T14:03:12Z</time>
      </trkpt>
      <trkpt lat="60.36442" lon="7.54">
        <ele>1281.57</ele>
        <time>2019-04-01T14:03:28Z</time>
      </trkpt>
      <trkpt lat="60.36442" lon="7.53999">
        <ele>1281.57</ele>
        <time>2019-04-01T14:03:29Z</time>
      </trkpt>
      <trkpt lat="60.36443" lon="7.53963">
        <ele>1278.21</ele>
        <time>2019-04-01T14:03:34Z</time>
      </trkpt>
      <trkpt lat="60.36442" lon="7.53934">
        <ele>1273.88</ele>
        <time>2019-04-01T14:03:36Z</time>
      </trkpt>
      <trkpt lat="60.36442" lon="7.53921">
        <ele>1273.88</ele>
        <time>2019-04-01T14:03:37Z</time>
      </trkpt>
      <trkpt lat="60.36444" lon="7.53876">
        <ele>1269.56</ele>
        <time>2019-04-01T14:03:40Z</time>
      </trkpt>
      <trkpt lat="60.36449" lon="7.53828">
        <ele>1267.16</ele>
        <time>2019-04-01T14:03:43Z</time>
      </trkpt>
      <trkpt lat="60.36454" lon="7.53777">
        <ele>1264.27</ele>
        <time>2019-04-01T14:03:46Z</time>
      </trkpt>
      <trkpt lat="60.36466" lon="7.53711">
        <ele>1259.94</ele>
        <time>2019-04-01T14:03:50Z</time>
      </trkpt>
      <trkpt lat="60.36469" lon="7.53697">
        <ele>1259.94</ele>
        <time>2019-04-01T14:03:51Z</time>
      </trkpt>
      <trkpt lat="60.36472" lon="7.53675">
        <ele>1258.98</ele>
        <time>2019-04-01T14:03:53Z</time>
      </trkpt>
      <trkpt lat="60.36473" lon="7.53656">
        <ele>1256.58</ele>
        <time>2019-04-01T14:03:55Z</time>
      </trkpt>
      <trkpt lat="60.36476" lon="7.53636">
        <ele>1256.58</ele>
        <time>2019-04-01T14:03:57Z</time>
      </trkpt>
      <trkpt lat="60.36482" lon="7.5358">
        <ele>1246.49</ele>
        <time>2019-04-01T14:04:01Z</time>
      </trkpt>
      <trkpt lat="60.36486" lon="7.53562">
        <ele>1244.08</ele>
        <time>2019-04-01T14:04:02Z</time>
      </trkpt>
      <trkpt lat="60.36493" lon="7.53522">
        <ele>1243.6</ele>
        <time>2019-04-01T14:04:04Z</time>
      </trkpt>
      <trkpt lat="60.36522" lon="7.53363">
        <ele>1242.64</ele>
        <time>2019-04-01T14:04:13Z</time>
      </trkpt>
      <trkpt lat="60.36524" lon="7.53348">
        <ele>1242.64</ele>
        <time>2019-04-01T14:04:14Z</time>
      </trkpt>
      <trkpt lat="60.36529" lon="7.53305">
        <ele>1244.08</ele>
        <time>2019-04-01T14:04:17Z</time>
      </trkpt>
      <trkpt lat="60.36549" lon="7.53186">
        <ele>1245.04</ele>
        <time>2019-04-01T14:04:25Z</time>
      </trkpt>
      <trkpt lat="60.36562" lon="7.5313">
        <ele>1245.04</ele>
        <time>2019-04-01T14:04:29Z</time>
      </trkpt>
      <trkpt lat="60.36599" lon="7.53032">
        <ele>1246.49</ele>
        <time>2019-04-01T14:04:40Z</time>
      </trkpt>
      <trkpt lat="60.36606" lon="7.53011">
        <ele>1246.49</ele>
        <time>2019-04-01T14:04:42Z</time>
      </trkpt>
      <trkpt lat="60.36612" lon="7.52986">
        <ele>1244.56</ele>
        <time>2019-04-01T14:04:44Z</time>
      </trkpt>
      <trkpt lat="60.36616" lon="7.52976">
        <ele>1244.56</ele>
        <time>2019-04-01T14:04:47Z</time>
      </trkpt>
      <trkpt lat="60.36616" lon="7.52983">
        <ele>1246.01</ele>
        <time>2019-04-01T14:04:51Z</time>
      </trkpt>
      <trkpt lat="60.36615" lon="7.52988">
        <ele>1245.53</ele>
        <time>2019-04-01T14:05:19Z</time>
      </trkpt>
      <trkpt lat="60.36615" lon="7.52986">
        <ele>1245.53</ele>
        <time>2019-04-01T14:05:39Z</time>
      </trkpt>
      <trkpt lat="60.36616" lon="7.52983">
        <ele>1245.53</ele>
        <time>2019-04-01T14:05:57Z</time>
      </trkpt>
      <trkpt lat="60.36616" lon="7.52982">
        <ele>1245.53</ele>
        <time>2019-04-01T14:06:01Z</time>
      </trkpt>
      <trkpt lat="60.36612" lon="7.5296">
        <ele>1241.68</ele>
        <time>2019-04-01T14:06:04Z</time>
      </trkpt>
      <trkpt lat="60.36608" lon="7.5295">
        <ele>1240.24</ele>
        <time>2019-04-01T14:06:05Z</time>
      </trkpt>
      <trkpt lat="60.36592" lon="7.52918">
        <ele>1233.99</ele>
        <time>2019-04-01T14:06:08Z</time>
      </trkpt>
      <trkpt lat="60.36581" lon="7.52889">
        <ele>1226.3</ele>
        <time>2019-04-01T14:06:10Z</time>
      </trkpt>
      <trkpt lat="60.36573" lon="7.52871">
        <ele>1222.93</ele>
        <time>2019-04-01T14:06:11Z</time>
      </trkpt>
      <trkpt lat="60.36562" lon="7.5284">
        <ele>1220.05</ele>
        <time>2019-04-01T14:06:13Z</time>
      </trkpt>
      <trkpt lat="60.36556" lon="7.52824">
        <ele>1219.57</ele>
        <time>2019-04-01T14:06:14Z</time>
      </trkpt>
      <trkpt lat="60.36547" lon="7.52795">
        <ele>1218.61</ele>
        <time>2019-04-01T14:06:16Z</time>
      </trkpt>
      <trkpt lat="60.36519" lon="7.527">
        <ele>1214.76</ele>
        <time>2019-04-01T14:06:23Z</time>
      </trkpt>
      <trkpt lat="60.36514" lon="7.52686">
        <ele>1214.28</ele>
        <time>2019-04-01T14:06:24Z</time>
      </trkpt>
      <trkpt lat="60.36508" lon="7.52662">
        <ele>1214.28</ele>
        <time>2019-04-01T14:06:26Z</time>
      </trkpt>
      <trkpt lat="60.36499" lon="7.5262">
        <ele>1214.28</ele>
        <time>2019-04-01T14:06:30Z</time>
      </trkpt>
      <trkpt lat="60.36494" lon="7.52593">
        <ele>1215.24</ele>
        <time>2019-04-01T14:06:33Z</time>
      </trkpt>
      <trkpt lat="60.36493" lon="7.52583">
        <ele>1214.76</ele>
        <time>2019-04-01T14:06:34Z</time>
      </trkpt>
      <trkpt lat="60.36488" lon="7.52545">
        <ele>1215.24</ele>
        <time>2019-04-01T14:06:40Z</time>
      </trkpt>
      <trkpt lat="60.36482" lon="7.52483">
        <ele>1215.72</ele>
        <time>2019-04-01T14:06:48Z</time>
      </trkpt>
      <trkpt lat="60.36477" lon="7.52439">
        <ele>1215.72</ele>
        <time>2019-04-01T14:06:53Z</time>
      </trkpt>
      <trkpt lat="60.36473" lon="7.52421">
        <ele>1215.72</ele>
        <time>2019-04-01T14:06:55Z</time>
      </trkpt>
      <trkpt lat="60.3646" lon="7.52333">
        <ele>1215.72</ele>
        <time>2019-04-01T14:07:04Z</time>
      </trkpt>
      <trkpt lat="60.36454" lon="7.52298">
        <ele>1213.32</ele>
        <time>2019-04-01T14:07:07Z</time>
      </trkpt>
      <trkpt lat="60.36452" lon="7.5228">
        <ele>1213.32</ele>
        <time>2019-04-01T14:07:09Z</time>
      </trkpt>
      <trkpt lat="60.36451" lon="7.52229">
        <ele>1214.76</ele>
        <time>2019-04-01T14:07:15Z</time>
      </trkpt>
      <trkpt lat="60.36454" lon="7.52189">
        <ele>1216.21</ele>
        <time>2019-04-01T14:07:23Z</time>
      </trkpt>
      <trkpt lat="60.36458" lon="7.52174">
        <ele>1216.69</ele>
        <time>2019-04-01T14:07:28Z</time>
      </trkpt>
      <trkpt lat="60.36458" lon="7.52125">
        <ele>1217.17</ele>
        <time>2019-04-01T14:07:35Z</time>
      </trkpt>
      <trkpt lat="60.3645" lon="7.52077">
        <ele>1217.65</ele>
        <time>2019-04-01T14:07:40Z</time>
      </trkpt>
      <trkpt lat="60.36435" lon="7.52032">
        <ele>1218.13</ele>
        <time>2019-04-01T14:07:46Z</time>
      </trkpt>
      <trkpt lat="60.36402" lon="7.51922">
        <ele>1215.24</ele>
        <time>2019-04-01T14:07:58Z</time>
      </trkpt>
      <trkpt lat="60.36387" lon="7.51875">
        <ele>1212.84</ele>
        <time>2019-04-01T14:08:02Z</time>
      </trkpt>
      <trkpt lat="60.36358" lon="7.51772">
        <ele>1213.8</ele>
        <time>2019-04-01T14:08:12Z</time>
      </trkpt>
      <trkpt lat="60.36354" lon="7.51754">
        <ele>1213.8</ele>
        <time>2019-04-01T14:08:14Z</time>
      </trkpt>
      <trkpt lat="60.36351" lon="7.51736">
        <ele>1213.8</ele>
        <time>2019-04-01T14:08:16Z</time>
      </trkpt>
      <trkpt lat="60.36348" lon="7.51716">
        <ele>1212.84</ele>
        <time>2019-04-01T14:08:18Z</time>
      </trkpt>
      <trkpt lat="60.36343" lon="7.51652">
        <ele>1212.84</ele>
        <time>2019-04-01T14:08:27Z</time>
      </trkpt>
      <trkpt lat="60.36343" lon="7.51647">
        <ele>1212.84</ele>
        <time>2019-04-01T14:08:28Z</time>
      </trkpt>
      <trkpt lat="60.36342" lon="7.51626">
        <ele>1212.84</ele>
        <time>2019-04-01T14:08:40Z</time>
      </trkpt>
      <trkpt lat="60.36342" lon="7.51625">
        <ele>1212.84</ele>
        <time>2019-04-01T14:08:41Z</time>
      </trkpt>
      <trkpt lat="60.36343" lon="7.51604">
        <ele>1212.84</ele>
        <time>2019-04-01T14:08:54Z</time>
      </trkpt>
      <trkpt lat="60.36338" lon="7.51574">
        <ele>1212.84</ele>
        <time>2019-04-01T14:09:04Z</time>
      </trkpt>
      <trkpt lat="60.36338" lon="7.51566">
        <ele>1212.84</ele>
        <time>2019-04-01T14:09:13Z</time>
      </trkpt>
      <trkpt lat="60.36339" lon="7.5156">
        <ele>1212.84</ele>
        <time>2019-04-01T14:09:16Z</time>
      </trkpt>
      <trkpt lat="60.36339" lon="7.51537">
        <ele>1212.84</ele>
        <time>2019-04-01T14:09:21Z</time>
      </trkpt>
      <trkpt lat="60.36343" lon="7.5152">
        <ele>1212.84</ele>
        <time>2019-04-01T14:09:24Z</time>
      </trkpt>
      <trkpt lat="60.36346" lon="7.51485">
        <ele>1212.84</ele>
        <time>2019-04-01T14:09:28Z</time>
      </trkpt>
      <trkpt lat="60.36341" lon="7.51438">
        <ele>1212.84</ele>
        <time>2019-04-01T14:09:33Z</time>
      </trkpt>
      <trkpt lat="60.36336" lon="7.51402">
        <ele>1212.84</ele>
        <time>2019-04-01T14:09:37Z</time>
      </trkpt>
      <trkpt lat="60.36332" lon="7.51369">
        <ele>1212.84</ele>
        <time>2019-04-01T14:09:42Z</time>
      </trkpt>
      <trkpt lat="60.3633" lon="7.51306">
        <ele>1212.84</ele>
        <time>2019-04-01T14:09:51Z</time>
      </trkpt>
      <trkpt lat="60.36324" lon="7.51272">
        <ele>1212.84</ele>
        <time>2019-04-01T14:09:55Z</time>
      </trkpt>
      <trkpt lat="60.36317" lon="7.51225">
        <ele>1212.84</ele>
        <time>2019-04-01T14:10:05Z</time>
      </trkpt>
      <trkpt lat="60.36314" lon="7.51197">
        <ele>1212.84</ele>
        <time>2019-04-01T14:10:09Z</time>
      </trkpt>
      <trkpt lat="60.3631" lon="7.5118">
        <ele>1212.84</ele>
        <time>2019-04-01T14:10:11Z</time>
      </trkpt>
      <trkpt lat="60.363" lon="7.51129">
        <ele>1212.84</ele>
        <time>2019-04-01T14:10:18Z</time>
      </trkpt>
      <trkpt lat="60.36297" lon="7.51113">
        <ele>1212.84</ele>
        <time>2019-04-01T14:10:23Z</time>
      </trkpt>
      <trkpt lat="60.36298" lon="7.51116">
        <ele>1212.84</ele>
        <time>2019-04-01T14:10:25Z</time>
      </trkpt>
      <trkpt lat="60.36295" lon="7.51152">
        <ele>1212.84</ele>
        <time>2019-04-01T14:10:35Z</time>
      </trkpt>
      <trkpt lat="60.36295" lon="7.51151">
        <ele>1212.84</ele>
        <time>2019-04-01T14:10:36Z</time>
      </trkpt>
      <trkpt lat="60.36291" lon="7.51122">
        <ele>1212.84</ele>
        <time>2019-04-01T14:10:43Z</time>
      </trkpt>
      <trkpt lat="60.3629" lon="7.51108">
        <ele>1212.84</ele>
        <time>2019-04-01T14:10:46Z</time>
      </trkpt>
      <trkpt lat="60.36283" lon="7.5107">
        <ele>1212.84</ele>
        <time>2019-04-01T14:10:51Z</time>
      </trkpt>
      <trkpt lat="60.36279" lon="7.51054">
        <ele>1212.84</ele>
        <time>2019-04-01T14:10:53Z</time>
      </trkpt>
      <trkpt lat="60.36269" lon="7.51014">
        <ele>1212.84</ele>
        <time>2019-04-01T14:10:58Z</time>
      </trkpt>
      <trkpt lat="60.36244" lon="7.50935">
        <ele>1212.84</ele>
        <time>2019-04-01T14:11:10Z</time>
      </trkpt>
      <trkpt lat="60.36231" lon="7.50883">
        <ele>1212.84</ele>
        <time>2019-04-01T14:11:20Z</time>
      </trkpt>
      <trkpt lat="60.36217" lon="7.50835">
        <ele>1212.84</ele>
        <time>2019-04-01T14:11:29Z</time>
      </trkpt>
      <trkpt lat="60.36212" lon="7.50817">
        <ele>1212.84</ele>
        <time>2019-04-01T14:11:36Z</time>
      </trkpt>
      <trkpt lat="60.36214" lon="7.50821">
        <ele>1212.84</ele>
        <time>2019-04-01T14:11:41Z</time>
      </trkpt>
      <trkpt lat="60.36213" lon="7.50871">
        <ele>1212.84</ele>
        <time>2019-04-01T14:11:50Z</time>
      </trkpt>
      <trkpt lat="60.36212" lon="7.50885">
        <ele>1213.32</ele>
        <time>2019-04-01T14:11:56Z</time>
      </trkpt>
      <trkpt lat="60.36214" lon="7.50903">
        <ele>1212.84</ele>
        <time>2019-04-01T14:12:00Z</time>
      </trkpt>
      <trkpt lat="60.3621" lon="7.50924">
        <ele>1212.84</ele>
        <time>2019-04-01T14:12:09Z</time>
      </trkpt>
      <trkpt lat="60.3621" lon="7.50904">
        <ele>1212.84</ele>
        <time>2019-04-01T14:12:14Z</time>
      </trkpt>
      <trkpt lat="60.36201" lon="7.50862">
        <ele>1213.32</ele>
        <time>2019-04-01T14:12:23Z</time>
      </trkpt>
      <trkpt lat="60.36196" lon="7.5084">
        <ele>1213.32</ele>
        <time>2019-04-01T14:12:32Z</time>
      </trkpt>
      <trkpt lat="60.36195" lon="7.5084">
        <ele>1213.32</ele>
        <time>2019-04-01T14:12:35Z</time>
      </trkpt>
      <trkpt lat="60.36195" lon="7.50828">
        <ele>1213.32</ele>
        <time>2019-04-01T14:12:45Z</time>
      </trkpt>
      <trkpt lat="60.36196" lon="7.50813">
        <ele>1213.32</ele>
        <time>2019-04-01T14:12:50Z</time>
      </trkpt>
      <trkpt lat="60.36197" lon="7.50807">
        <ele>1213.32</ele>
        <time>2019-04-01T14:12:55Z</time>
      </trkpt>
      <trkpt lat="60.36199" lon="7.50786">
        <ele>1214.28</ele>
        <time>2019-04-01T14:13:08Z</time>
      </trkpt>
      <trkpt lat="60.36198" lon="7.50784">
        <ele>1214.28</ele>
        <time>2019-04-01T14:13:16Z</time>
      </trkpt>
      <trkpt lat="60.362" lon="7.50775">
        <ele>1214.28</ele>
        <time>2019-04-01T14:13:26Z</time>
      </trkpt>
      <trkpt lat="60.36201" lon="7.50769">
        <ele>1214.28</ele>
        <time>2019-04-01T14:13:31Z</time>
      </trkpt>
      <trkpt lat="60.36204" lon="7.50763">
        <ele>1214.28</ele>
        <time>2019-04-01T14:13:37Z</time>
      </trkpt>
      <trkpt lat="60.36205" lon="7.50761">
        <ele>1214.28</ele>
        <time>2019-04-01T14:13:42Z</time>
      </trkpt>
      <trkpt lat="60.36208" lon="7.50751">
        <ele>1214.28</ele>
        <time>2019-04-01T14:13:48Z</time>
      </trkpt>
      <trkpt lat="60.36209" lon="7.50739">
        <ele>1214.28</ele>
        <time>2019-04-01T14:13:54Z</time>
      </trkpt>
      <trkpt lat="60.36213" lon="7.50722">
        <ele>1214.76</ele>
        <time>2019-04-01T14:14:08Z</time>
      </trkpt>
      <trkpt lat="60.36213" lon="7.50724">
        <ele>1214.76</ele>
        <time>2019-04-01T14:14:16Z</time>
      </trkpt>
      <trkpt lat="60.36217" lon="7.50715">
        <ele>1214.76</ele>
        <time>2019-04-01T14:14:28Z</time>
      </trkpt>
      <trkpt lat="60.36217" lon="7.50709">
        <ele>1214.76</ele>
        <time>2019-04-01T14:14:38Z</time>
      </trkpt>
      <trkpt lat="60.36219" lon="7.50707">
        <ele>1214.76</ele>
        <time>2019-04-01T14:14:50Z</time>
      </trkpt>
      <trkpt lat="60.3622" lon="7.50704">
        <ele>1214.76</ele>
        <time>2019-04-01T14:14:56Z</time>
      </trkpt>
      <trkpt lat="60.36224" lon="7.50703">
        <ele>1214.76</ele>
        <time>2019-04-01T14:15:08Z</time>
      </trkpt>
      <trkpt lat="60.36226" lon="7.50699">
        <ele>1214.76</ele>
        <time>2019-04-01T14:15:12Z</time>
      </trkpt>
      <trkpt lat="60.3623" lon="7.50691">
        <ele>1214.76</ele>
        <time>2019-04-01T14:15:26Z</time>
      </trkpt>
      <trkpt lat="60.3623" lon="7.50691">
        <ele>1214.76</ele>
        <time>2019-04-01T14:15:27Z</time>
      </trkpt>
      <trkpt lat="60.36233" lon="7.50689">
        <ele>1214.76</ele>
        <time>2019-04-01T14:15:32Z</time>
      </trkpt>
      <trkpt lat="60.36235" lon="7.50688">
        <ele>1214.76</ele>
        <time>2019-04-01T14:15:37Z</time>
      </trkpt>
      <trkpt lat="60.36241" lon="7.50685">
        <ele>1214.76</ele>
        <time>2019-04-01T14:15:47Z</time>
      </trkpt>
      <trkpt lat="60.36245" lon="7.50682">
        <ele>1214.76</ele>
        <time>2019-04-01T14:15:53Z</time>
      </trkpt>
      <trkpt lat="60.36249" lon="7.5068">
        <ele>1214.76</ele>
        <time>2019-04-01T14:16:05Z</time>
      </trkpt>
      <trkpt lat="60.3625" lon="7.50679">
        <ele>1214.76</ele>
        <time>2019-04-01T14:16:07Z</time>
      </trkpt>
      <trkpt lat="60.3625" lon="7.50677">
        <ele>1214.76</ele>
        <time>2019-04-01T14:16:11Z</time>
      </trkpt>
      <trkpt lat="60.36256" lon="7.50672">
        <ele>1214.76</ele>
        <time>2019-04-01T14:16:22Z</time>
      </trkpt>
      <trkpt lat="60.36259" lon="7.50668">
        <ele>1214.76</ele>
        <time>2019-04-01T14:16:27Z</time>
      </trkpt>
      <trkpt lat="60.36261" lon="7.50663">
        <ele>1214.76</ele>
        <time>2019-04-01T14:16:32Z</time>
      </trkpt>
      <trkpt lat="60.36265" lon="7.5066">
        <ele>1214.76</ele>
        <time>2019-04-01T14:16:37Z</time>
      </trkpt>
      <trkpt lat="60.36266" lon="7.5065">
        <ele>1214.76</ele>
        <time>2019-04-01T14:16:42Z</time>
      </trkpt>
      <trkpt lat="60.36269" lon="7.50644">
        <ele>1214.76</ele>
        <time>2019-04-01T14:16:47Z</time>
      </trkpt>
      <trkpt lat="60.3627" lon="7.50642">
        <ele>1214.76</ele>
        <time>2019-04-01T14:16:53Z</time>
      </trkpt>
      <trkpt lat="60.36276" lon="7.50635">
        <ele>1214.76</ele>
        <time>2019-04-01T14:17:05Z</time>
      </trkpt>
      <trkpt lat="60.36278" lon="7.50631">
        <ele>1215.24</ele>
        <time>2019-04-01T14:17:09Z</time>
      </trkpt>
      <trkpt lat="60.36282" lon="7.50621">
        <ele>1215.24</ele>
        <time>2019-04-01T14:17:14Z</time>
      </trkpt>
      <trkpt lat="60.36283" lon="7.50608">
        <ele>1215.24</ele>
        <time>2019-04-01T14:17:19Z</time>
      </trkpt>
      <trkpt lat="60.36286" lon="7.50594">
        <ele>1215.24</ele>
        <time>2019-04-01T14:17:25Z</time>
      </trkpt>
      <trkpt lat="60.36288" lon="7.5059">
        <ele>1215.24</ele>
        <time>2019-04-01T14:17:35Z</time>
      </trkpt>
      <trkpt lat="60.36293" lon="7.50587">
        <ele>1215.24</ele>
        <time>2019-04-01T14:17:45Z</time>
      </trkpt>
      <trkpt lat="60.36293" lon="7.50586">
        <ele>1215.24</ele>
        <time>2019-04-01T14:17:48Z</time>
      </trkpt>
      <trkpt lat="60.36298" lon="7.50584">
        <ele>1215.24</ele>
        <time>2019-04-01T14:18:00Z</time>
      </trkpt>
      <trkpt lat="60.36302" lon="7.50579">
        <ele>1215.24</ele>
        <time>2019-04-01T14:18:11Z</time>
      </trkpt>
      <trkpt lat="60.36307" lon="7.50575">
        <ele>1215.24</ele>
        <time>2019-04-01T14:18:18Z</time>
      </trkpt>
      <trkpt lat="60.36312" lon="7.50571">
        <ele>1215.24</ele>
        <time>2019-04-01T14:18:25Z</time>
      </trkpt>
      <trkpt lat="60.36315" lon="7.50564">
        <ele>1215.24</ele>
        <time>2019-04-01T14:18:39Z</time>
      </trkpt>
      <trkpt lat="60.36316" lon="7.50565">
        <ele>1215.24</ele>
        <time>2019-04-01T14:18:51Z</time>
      </trkpt>
      <trkpt lat="60.36318" lon="7.50563">
        <ele>1215.24</ele>
        <time>2019-04-01T14:18:58Z</time>
      </trkpt>
      <trkpt lat="60.36322" lon="7.50564">
        <ele>1215.24</ele>
        <time>2019-04-01T14:19:04Z</time>
      </trkpt>
      <trkpt lat="60.36328" lon="7.50564">
        <ele>1215.24</ele>
        <time>2019-04-01T14:19:16Z</time>
      </trkpt>
      <trkpt lat="60.36327" lon="7.50566">
        <ele>1215.24</ele>
        <time>2019-04-01T14:19:29Z</time>
      </trkpt>
      <trkpt lat="60.36323" lon="7.50573">
        <ele>1215.24</ele>
        <time>2019-04-01T14:19:41Z</time>
      </trkpt>
      <trkpt lat="60.36324" lon="7.50577">
        <ele>1215.24</ele>
        <time>2019-04-01T14:19:52Z</time>
      </trkpt>
      <trkpt lat="60.36323" lon="7.50586">
        <ele>1215.24</ele>
        <time>2019-04-01T14:20:04Z</time>
      </trkpt>
      <trkpt lat="60.36324" lon="7.50595">
        <ele>1215.24</ele>
        <time>2019-04-01T14:20:17Z</time>
      </trkpt>
      <trkpt lat="60.36326" lon="7.50594">
        <ele>1215.24</ele>
        <time>2019-04-01T14:20:32Z</time>
      </trkpt>
      <trkpt lat="60.36329" lon="7.50594">
        <ele>1215.24</ele>
        <time>2019-04-01T14:20:45Z</time>
      </trkpt>
      <trkpt lat="60.36331" lon="7.50596">
        <ele>1215.24</ele>
        <time>2019-04-01T14:20:56Z</time>
      </trkpt>
      <trkpt lat="60.36334" lon="7.50595">
        <ele>1215.24</ele>
        <time>2019-04-01T14:21:08Z</time>
      </trkpt>
      <trkpt lat="60.36335" lon="7.50594">
        <ele>1215.24</ele>
        <time>2019-04-01T14:21:24Z</time>
      </trkpt>
      <trkpt lat="60.36336" lon="7.50595">
        <ele>1215.24</ele>
        <time>2019-04-01T14:21:27Z</time>
      </trkpt>
      <trkpt lat="60.36341" lon="7.50594">
        <ele>1215.24</ele>
        <time>2019-04-01T14:21:37Z</time>
      </trkpt>
      <trkpt lat="60.36341" lon="7.50594">
        <ele>1215.24</ele>
        <time>2019-04-01T14:21:51Z</time>
      </trkpt>
      <trkpt lat="60.36343" lon="7.50593">
        <ele>1215.24</ele>
        <time>2019-04-01T14:21:58Z</time>
      </trkpt>
      <trkpt lat="60.36346" lon="7.50592">
        <ele>1215.24</ele>
        <time>2019-04-01T14:22:12Z</time>
      </trkpt>
      <trkpt lat="60.36346" lon="7.50591">
        <ele>1215.24</ele>
        <time>2019-04-01T14:22:23Z</time>
      </trkpt>
      <trkpt lat="60.36346" lon="7.5059">
        <ele>1215.24</ele>
        <time>2019-04-01T14:22:33Z</time>
      </trkpt>
      <trkpt lat="60.36347" lon="7.5059">
        <ele>1215.24</ele>
        <time>2019-04-01T14:22:49Z</time>
      </trkpt>
      <trkpt lat="60.36351" lon="7.50589">
        <ele>1215.24</ele>
        <time>2019-04-01T14:22:53Z</time>
      </trkpt>
      <trkpt lat="60.36354" lon="7.50587">
        <ele>1215.24</ele>
        <time>2019-04-01T14:22:58Z</time>
      </trkpt>
      <trkpt lat="60.36357" lon="7.50585">
        <ele>1215.72</ele>
        <time>2019-04-01T14:23:08Z</time>
      </trkpt>
      <trkpt lat="60.36361" lon="7.50584">
        <ele>1216.21</ele>
        <time>2019-04-01T14:23:19Z</time>
      </trkpt>
      <trkpt lat="60.36363" lon="7.50582">
        <ele>1216.21</ele>
        <time>2019-04-01T14:23:28Z</time>
      </trkpt>
      <trkpt lat="60.36368" lon="7.5058">
        <ele>1216.21</ele>
        <time>2019-04-01T14:23:41Z</time>
      </trkpt>
      <trkpt lat="60.36369" lon="7.50577">
        <ele>1216.69</ele>
        <time>2019-04-01T14:23:53Z</time>
      </trkpt>
      <trkpt lat="60.36369" lon="7.50577">
        <ele>1216.69</ele>
        <time>2019-04-01T14:24:05Z</time>
      </trkpt>
      <trkpt lat="60.36371" lon="7.50575">
        <ele>1216.69</ele>
        <time>2019-04-01T14:24:19Z</time>
      </trkpt>
      <trkpt lat="60.36373" lon="7.50574">
        <ele>1216.69</ele>
        <time>2019-04-01T14:24:24Z</time>
      </trkpt>
      <trkpt lat="60.36375" lon="7.50573">
        <ele>1216.69</ele>
        <time>2019-04-01T14:24:30Z</time>
      </trkpt>
      <trkpt lat="60.36378" lon="7.50569">
        <ele>1216.69</ele>
        <time>2019-04-01T14:24:40Z</time>
      </trkpt>
      <trkpt lat="60.36383" lon="7.50565">
        <ele>1217.17</ele>
        <time>2019-04-01T14:24:44Z</time>
      </trkpt>
      <trkpt lat="60.36384" lon="7.50557">
        <ele>1217.17</ele>
        <time>2019-04-01T14:24:49Z</time>
      </trkpt>
      <trkpt lat="60.36387" lon="7.50555">
        <ele>1217.17</ele>
        <time>2019-04-01T14:24:51Z</time>
      </trkpt>
      <trkpt lat="60.36389" lon="7.50553">
        <ele>1217.17</ele>
        <time>2019-04-01T14:24:52Z</time>
      </trkpt>
      <trkpt lat="60.36392" lon="7.50551">
        <ele>1217.65</ele>
        <time>2019-04-01T14:24:56Z</time>
      </trkpt>
      <trkpt lat="60.36393" lon="7.50549">
        <ele>1217.65</ele>
        <time>2019-04-01T14:24:57Z</time>
      </trkpt>
      <trkpt lat="60.36395" lon="7.50547">
        <ele>1217.65</ele>
        <time>2019-04-01T14:25:01Z</time>
      </trkpt>
      <trkpt lat="60.36397" lon="7.50546">
        <ele>1217.65</ele>
        <time>2019-04-01T14:25:02Z</time>
      </trkpt>
      <trkpt lat="60.36399" lon="7.50544">
        <ele>1217.65</ele>
        <time>2019-04-01T14:25:03Z</time>
      </trkpt>
      <trkpt lat="60.36401" lon="7.50541">
        <ele>1218.13</ele>
        <time>2019-04-01T14:25:07Z</time>
      </trkpt>
      <trkpt lat="60.36402" lon="7.50538">
        <ele>1218.13</ele>
        <time>2019-04-01T14:25:08Z</time>
      </trkpt>
      <trkpt lat="60.36405" lon="7.50536">
        <ele>1218.13</ele>
        <time>2019-04-01T14:25:11Z</time>
      </trkpt>
      <trkpt lat="60.36407" lon="7.50535">
        <ele>1218.13</ele>
        <time>2019-04-01T14:25:12Z</time>
      </trkpt>
      <trkpt lat="60.36411" lon="7.50532">
        <ele>1218.13</ele>
        <time>2019-04-01T14:25:16Z</time>
      </trkpt>
      <trkpt lat="60.36411" lon="7.5053">
        <ele>1218.13</ele>
        <time>2019-04-01T14:25:17Z</time>
      </trkpt>
      <trkpt lat="60.36413" lon="7.50523">
        <ele>1218.13</ele>
        <time>2019-04-01T14:25:22Z</time>
      </trkpt>
      <trkpt lat="60.36413" lon="7.5052">
        <ele>1218.13</ele>
        <time>2019-04-01T14:25:23Z</time>
      </trkpt>
      <trkpt lat="60.36414" lon="7.50517">
        <ele>1218.13</ele>
        <time>2019-04-01T14:25:24Z</time>
      </trkpt>
      <trkpt lat="60.36414" lon="7.50514">
        <ele>1218.61</ele>
        <time>2019-04-01T14:25:34Z</time>
      </trkpt>
      <trkpt lat="60.36415" lon="7.50507">
        <ele>1218.61</ele>
        <time>2019-04-01T14:25:39Z</time>
      </trkpt>
      <trkpt lat="60.3642" lon="7.50506">
        <ele>1219.09</ele>
        <time>2019-04-01T14:25:45Z</time>
      </trkpt>
      <trkpt lat="60.36424" lon="7.50505">
        <ele>1219.09</ele>
        <time>2019-04-01T14:25:51Z</time>
      </trkpt>
      <trkpt lat="60.36428" lon="7.505">
        <ele>1219.09</ele>
        <time>2019-04-01T14:26:03Z</time>
      </trkpt>
      <trkpt lat="60.36429" lon="7.50494">
        <ele>1219.57</ele>
        <time>2019-04-01T14:26:13Z</time>
      </trkpt>
      <trkpt lat="60.36433" lon="7.50488">
        <ele>1220.05</ele>
        <time>2019-04-01T14:26:18Z</time>
      </trkpt>
      <trkpt lat="60.36434" lon="7.50482">
        <ele>1220.05</ele>
        <time>2019-04-01T14:26:23Z</time>
      </trkpt>
      <trkpt lat="60.3644" lon="7.50477">
        <ele>1220.05</ele>
        <time>2019-04-01T14:26:33Z</time>
      </trkpt>
      <trkpt lat="60.3644" lon="7.50476">
        <ele>1220.05</ele>
        <time>2019-04-01T14:26:34Z</time>
      </trkpt>
      <trkpt lat="60.36443" lon="7.50472">
        <ele>1220.53</ele>
        <time>2019-04-01T14:26:39Z</time>
      </trkpt>
      <trkpt lat="60.36444" lon="7.50467">
        <ele>1220.53</ele>
        <time>2019-04-01T14:26:44Z</time>
      </trkpt>
      <trkpt lat="60.36448" lon="7.50462">
        <ele>1221.01</ele>
        <time>2019-04-01T14:26:50Z</time>
      </trkpt>
      <trkpt lat="60.36451" lon="7.50459">
        <ele>1221.01</ele>
        <time>2019-04-01T14:26:56Z</time>
      </trkpt>
      <trkpt lat="60.36453" lon="7.50455">
        <ele>1221.01</ele>
        <time>2019-04-01T14:27:06Z</time>
      </trkpt>
      <trkpt lat="60.36457" lon="7.50448">
        <ele>1221.01</ele>
        <time>2019-04-01T14:27:17Z</time>
      </trkpt>
      <trkpt lat="60.36462" lon="7.50442">
        <ele>1221.49</ele>
        <time>2019-04-01T14:27:30Z</time>
      </trkpt>
      <trkpt lat="60.36465" lon="7.50439">
        <ele>1221.49</ele>
        <time>2019-04-01T14:27:36Z</time>
      </trkpt>
      <trkpt lat="60.36467" lon="7.50435">
        <ele>1221.49</ele>
        <time>2019-04-01T14:27:48Z</time>
      </trkpt>
      <trkpt lat="60.36468" lon="7.50434">
        <ele>1221.49</ele>
        <time>2019-04-01T14:27:52Z</time>
      </trkpt>
      <trkpt lat="60.36472" lon="7.50431">
        <ele>1221.49</ele>
        <time>2019-04-01T14:27:57Z</time>
      </trkpt>
      <trkpt lat="60.36472" lon="7.50424">
        <ele>1221.49</ele>
        <time>2019-04-01T14:28:03Z</time>
      </trkpt>
      <trkpt lat="60.36476" lon="7.50417">
        <ele>1221.97</ele>
        <time>2019-04-01T14:28:09Z</time>
      </trkpt>
      <trkpt lat="60.36476" lon="7.50408">
        <ele>1221.97</ele>
        <time>2019-04-01T14:28:14Z</time>
      </trkpt>
      <trkpt lat="60.36479" lon="7.50401">
        <ele>1222.45</ele>
        <time>2019-04-01T14:28:20Z</time>
      </trkpt>
      <trkpt lat="60.36479" lon="7.50393">
        <ele>1222.45</ele>
        <time>2019-04-01T14:28:25Z</time>
      </trkpt>
      <trkpt lat="60.36484" lon="7.50387">
        <ele>1222.93</ele>
        <time>2019-04-01T14:28:31Z</time>
      </trkpt>
      <trkpt lat="60.36486" lon="7.5038">
        <ele>1222.93</ele>
        <time>2019-04-01T14:28:36Z</time>
      </trkpt>
      <trkpt lat="60.36492" lon="7.50374">
        <ele>1223.42</ele>
        <time>2019-04-01T14:28:42Z</time>
      </trkpt>
      <trkpt lat="60.36493" lon="7.50366">
        <ele>1223.9</ele>
        <time>2019-04-01T14:28:47Z</time>
      </trkpt>
      <trkpt lat="60.36496" lon="7.5036">
        <ele>1223.9</ele>
        <time>2019-04-01T14:28:53Z</time>
      </trkpt>
      <trkpt lat="60.36499" lon="7.50353">
        <ele>1223.9</ele>
        <time>2019-04-01T14:28:59Z</time>
      </trkpt>
      <trkpt lat="60.36503" lon="7.50349">
        <ele>1224.38</ele>
        <time>2019-04-01T14:29:05Z</time>
      </trkpt>
      <trkpt lat="60.36505" lon="7.50344">
        <ele>1224.38</ele>
        <time>2019-04-01T14:29:11Z</time>
      </trkpt>
      <trkpt lat="60.36507" lon="7.50341">
        <ele>1224.38</ele>
        <time>2019-04-01T14:29:17Z</time>
      </trkpt>
      <trkpt lat="60.36514" lon="7.50327">
        <ele>1225.34</ele>
        <time>2019-04-01T14:29:27Z</time>
      </trkpt>
      <trkpt lat="60.36513" lon="7.50318">
        <ele>1225.34</ele>
        <time>2019-04-01T14:29:33Z</time>
      </trkpt>
      <trkpt lat="60.36515" lon="7.50315">
        <ele>1225.34</ele>
        <time>2019-04-01T14:29:35Z</time>
      </trkpt>
      <trkpt lat="60.36517" lon="7.50313">
        <ele>1225.34</ele>
        <time>2019-04-01T14:29:36Z</time>
      </trkpt>
      <trkpt lat="60.36519" lon="7.50311">
        <ele>1225.82</ele>
        <time>2019-04-01T14:29:40Z</time>
      </trkpt>
      <trkpt lat="60.36519" lon="7.50308">
        <ele>1225.82</ele>
        <time>2019-04-01T14:29:41Z</time>
      </trkpt>
      <trkpt lat="60.3652" lon="7.50306">
        <ele>1225.82</ele>
        <time>2019-04-01T14:29:42Z</time>
      </trkpt>
      <trkpt lat="60.36521" lon="7.50301">
        <ele>1225.82</ele>
        <time>2019-04-01T14:29:45Z</time>
      </trkpt>
      <trkpt lat="60.36523" lon="7.50299">
        <ele>1225.82</ele>
        <time>2019-04-01T14:29:46Z</time>
      </trkpt>
      <trkpt lat="60.36524" lon="7.50297">
        <ele>1226.78</ele>
        <time>2019-04-01T14:29:47Z</time>
      </trkpt>
      <trkpt lat="60.36524" lon="7.50296">
        <ele>1226.78</ele>
        <time>2019-04-01T14:29:50Z</time>
      </trkpt>
      <trkpt lat="60.36526" lon="7.5029">
        <ele>1227.26</ele>
        <time>2019-04-01T14:29:54Z</time>
      </trkpt>
      <trkpt lat="60.36531" lon="7.50282">
        <ele>1228.22</ele>
        <time>2019-04-01T14:29:59Z</time>
      </trkpt>
      <trkpt lat="60.36533" lon="7.50273">
        <ele>1228.7</ele>
        <time>2019-04-01T14:30:03Z</time>
      </trkpt>
      <trkpt lat="60.36537" lon="7.50268">
        <ele>1230.14</ele>
        <time>2019-04-01T14:30:08Z</time>
      </trkpt>
      <trkpt lat="60.36539" lon="7.50262">
        <ele>1230.62</ele>
        <time>2019-04-01T14:30:15Z</time>
      </trkpt>
      <trkpt lat="60.3654" lon="7.50257">
        <ele>1230.62</ele>
        <time>2019-04-01T14:30:18Z</time>
      </trkpt>
      <trkpt lat="60.36542" lon="7.50254">
        <ele>1231.11</ele>
        <time>2019-04-01T14:30:21Z</time>
      </trkpt>
      <trkpt lat="60.36547" lon="7.50247">
        <ele>1232.55</ele>
        <time>2019-04-01T14:30:26Z</time>
      </trkpt>
      <trkpt lat="60.3655" lon="7.50242">
        <ele>1233.03</ele>
        <time>2019-04-01T14:30:30Z</time>
      </trkpt>
      <trkpt lat="60.36552" lon="7.50237">
        <ele>1233.99</ele>
        <time>2019-04-01T14:30:36Z</time>
      </trkpt>
      <trkpt lat="60.36556" lon="7.50234">
        <ele>1234.47</ele>
        <time>2019-04-01T14:30:43Z</time>
      </trkpt>
      <trkpt lat="60.36567" lon="7.5023">
        <ele>1235.43</ele>
        <time>2019-04-01T14:30:53Z</time>
      </trkpt>
      <trkpt lat="60.36569" lon="7.50226">
        <ele>1235.91</ele>
        <time>2019-04-01T14:30:56Z</time>
      </trkpt>
      <trkpt lat="60.36569" lon="7.50211">
        <ele>1236.87</ele>
        <time>2019-04-01T14:31:02Z</time>
      </trkpt>
      <trkpt lat="60.36569" lon="7.50203">
        <ele>1237.83</ele>
        <time>2019-04-01T14:31:09Z</time>
      </trkpt>
      <trkpt lat="60.36571" lon="7.50197">
        <ele>1238.8</ele>
        <time>2019-04-01T14:31:13Z</time>
      </trkpt>
      <trkpt lat="60.36578" lon="7.50195">
        <ele>1239.76</ele>
        <time>2019-04-01T14:31:19Z</time>
      </trkpt>
      <trkpt lat="60.36582" lon="7.50187">
        <ele>1240.72</ele>
        <time>2019-04-01T14:31:24Z</time>
      </trkpt>
      <trkpt lat="60.36584" lon="7.50179">
        <ele>1242.16</ele>
        <time>2019-04-01T14:31:28Z</time>
      </trkpt>
      <trkpt lat="60.3659" lon="7.50163">
        <ele>1243.12</ele>
        <time>2019-04-01T14:31:37Z</time>
      </trkpt>
      <trkpt lat="60.3659" lon="7.50163">
        <ele>1243.12</ele>
        <time>2019-04-01T14:31:38Z</time>
      </trkpt>
      <trkpt lat="60.36601" lon="7.5016">
        <ele>1244.08</ele>
        <time>2019-04-01T14:31:44Z</time>
      </trkpt>
      <trkpt lat="60.36631" lon="7.50198">
        <ele>1242.16</ele>
        <time>2019-04-01T14:31:53Z</time>
      </trkpt>
      <trkpt lat="60.36632" lon="7.50197">
        <ele>1242.16</ele>
        <time>2019-04-01T14:31:54Z</time>
      </trkpt>
      <trkpt lat="60.36633" lon="7.50196">
        <ele>1242.16</ele>
        <time>2019-04-01T14:31:55Z</time>
      </trkpt>
      <trkpt lat="60.36612" lon="7.50174">
        <ele>1244.08</ele>
        <time>2019-04-01T14:32:05Z</time>
      </trkpt>
      <trkpt lat="60.36611" lon="7.50173">
        <ele>1244.08</ele>
        <time>2019-04-01T14:32:06Z</time>
      </trkpt>
      <trkpt lat="60.36608" lon="7.50169">
        <ele>1244.08</ele>
        <time>2019-04-01T14:32:09Z</time>
      </trkpt>
      <trkpt lat="60.36593" lon="7.50163">
        <ele>1244.08</ele>
        <time>2019-04-01T14:32:16Z</time>
      </trkpt>
      <trkpt lat="60.3658" lon="7.50158">
        <ele>1242.16</ele>
        <time>2019-04-01T14:32:19Z</time>
      </trkpt>
      <trkpt lat="60.36575" lon="7.50156">
        <ele>1241.68</ele>
        <time>2019-04-01T14:32:20Z</time>
      </trkpt>
      <trkpt lat="60.36568" lon="7.50147">
        <ele>1240.72</ele>
        <time>2019-04-01T14:32:25Z</time>
      </trkpt>
      <trkpt lat="60.36577" lon="7.50146">
        <ele>1241.68</ele>
        <time>2019-04-01T14:32:29Z</time>
      </trkpt>
      <trkpt lat="60.36589" lon="7.50139">
        <ele>1243.6</ele>
        <time>2019-04-01T14:32:34Z</time>
      </trkpt>
      <trkpt lat="60.36614" lon="7.50154">
        <ele>1246.01</ele>
        <time>2019-04-01T14:32:41Z</time>
      </trkpt>
      <trkpt lat="60.36645" lon="7.50232">
        <ele>1241.2</ele>
        <time>2019-04-01T14:32:50Z</time>
      </trkpt>
      <trkpt lat="60.36649" lon="7.50236">
        <ele>1240.24</ele>
        <time>2019-04-01T14:32:51Z</time>
      </trkpt>
      <trkpt lat="60.36672" lon="7.50279">
        <ele>1237.83</ele>
        <time>2019-04-01T14:32:56Z</time>
      </trkpt>
      <trkpt lat="60.3668" lon="7.50302">
        <ele>1233.99</ele>
        <time>2019-04-01T14:32:59Z</time>
      </trkpt>
      <trkpt lat="60.36681" lon="7.50302">
        <ele>1233.99</ele>
        <time>2019-04-01T14:33:00Z</time>
      </trkpt>
      <trkpt lat="60.36681" lon="7.50301">
        <ele>1233.99</ele>
        <time>2019-04-01T14:33:03Z</time>
      </trkpt>
      <trkpt lat="60.36672" lon="7.50287">
        <ele>1233.51</ele>
        <time>2019-04-01T14:33:09Z</time>
      </trkpt>
      <trkpt lat="60.36671" lon="7.50284">
        <ele>1234.95</ele>
        <time>2019-04-01T14:33:11Z</time>
      </trkpt>
      <trkpt lat="60.36664" lon="7.50272">
        <ele>1235.43</ele>
        <time>2019-04-01T14:33:20Z</time>
      </trkpt>
      <trkpt lat="60.36664" lon="7.50272">
        <ele>1235.43</ele>
        <time>2019-04-01T14:33:22Z</time>
      </trkpt>
      <trkpt lat="60.36661" lon="7.50265">
        <ele>1236.39</ele>
        <time>2019-04-01T14:33:25Z</time>
      </trkpt>
      <trkpt lat="60.36655" lon="7.50246">
        <ele>1237.35</ele>
        <time>2019-04-01T14:33:30Z</time>
      </trkpt>
      <trkpt lat="60.3665" lon="7.50231">
        <ele>1238.8</ele>
        <time>2019-04-01T14:33:36Z</time>
      </trkpt>
      <trkpt lat="60.36644" lon="7.50219">
        <ele>1240.72</ele>
        <time>2019-04-01T14:33:43Z</time>
      </trkpt>
      <trkpt lat="60.36636" lon="7.50208">
        <ele>1242.16</ele>
        <time>2019-04-01T14:33:47Z</time>
      </trkpt>
      <trkpt lat="60.36633" lon="7.50202">
        <ele>1242.16</ele>
        <time>2019-04-01T14:33:50Z</time>
      </trkpt>
      <trkpt lat="60.36621" lon="7.50195">
        <ele>1243.6</ele>
        <time>2019-04-01T14:33:54Z</time>
      </trkpt>
      <trkpt lat="60.36612" lon="7.50185">
        <ele>1243.6</ele>
        <time>2019-04-01T14:33:58Z</time>
      </trkpt>
      <trkpt lat="60.36594" lon="7.50169">
        <ele>1244.08</ele>
        <time>2019-04-01T14:34:02Z</time>
      </trkpt>
      <trkpt lat="60.36567" lon="7.50157">
        <ele>1242.16</ele>
        <time>2019-04-01T14:34:06Z</time>
      </trkpt>
      <trkpt lat="60.36559" lon="7.50153">
        <ele>1240.72</ele>
        <time>2019-04-01T14:34:07Z</time>
      </trkpt>
      <trkpt lat="60.36545" lon="7.50148">
        <ele>1239.76</ele>
        <time>2019-04-01T14:34:09Z</time>
      </trkpt>
      <trkpt lat="60.36534" lon="7.50135">
        <ele>1236.39</ele>
        <time>2019-04-01T14:34:11Z</time>
      </trkpt>
      <trkpt lat="60.36523" lon="7.501">
        <ele>1238.32</ele>
        <time>2019-04-01T14:34:16Z</time>
      </trkpt>
      <trkpt lat="60.36528" lon="7.50076">
        <ele>1238.8</ele>
        <time>2019-04-01T14:34:24Z</time>
      </trkpt>
      <trkpt lat="60.36532" lon="7.50072">
        <ele>1238.8</ele>
        <time>2019-04-01T14:34:26Z</time>
      </trkpt>
      <trkpt lat="60.36546" lon="7.50072">
        <ele>1241.2</ele>
        <time>2019-04-01T14:34:31Z</time>
      </trkpt>
      <trkpt lat="60.36549" lon="7.50072">
        <ele>1241.2</ele>
        <time>2019-04-01T14:34:33Z</time>
      </trkpt>
      <trkpt lat="60.36552" lon="7.50075">
        <ele>1241.68</ele>
        <time>2019-04-01T14:34:34Z</time>
      </trkpt>
      <trkpt lat="60.36561" lon="7.50078">
        <ele>1242.64</ele>
        <time>2019-04-01T14:34:41Z</time>
      </trkpt>
      <trkpt lat="60.36563" lon="7.50077">
        <ele>1243.12</ele>
        <time>2019-04-01T14:34:42Z</time>
      </trkpt>
      <trkpt lat="60.36567" lon="7.50078">
        <ele>1244.08</ele>
        <time>2019-04-01T14:34:43Z</time>
      </trkpt>
      <trkpt lat="60.36571" lon="7.50081">
        <ele>1244.08</ele>
        <time>2019-04-01T14:34:44Z</time>
      </trkpt>
      <trkpt lat="60.36575" lon="7.50085">
        <ele>1245.04</ele>
        <time>2019-04-01T14:34:45Z</time>
      </trkpt>
      <trkpt lat="60.36578" lon="7.50089">
        <ele>1245.04</ele>
        <time>2019-04-01T14:34:46Z</time>
      </trkpt>
      <trkpt lat="60.36582" lon="7.50093">
        <ele>1245.04</ele>
        <time>2019-04-01T14:34:47Z</time>
      </trkpt>
      <trkpt lat="60.36606" lon="7.50145">
        <ele>1246.01</ele>
        <time>2019-04-01T14:34:58Z</time>
      </trkpt>
      <trkpt lat="60.36622" lon="7.50171">
        <ele>1246.01</ele>
        <time>2019-04-01T14:35:07Z</time>
      </trkpt>
      <trkpt lat="60.36627" lon="7.50183">
        <ele>1246.01</ele>
        <time>2019-04-01T14:35:09Z</time>
      </trkpt>
      <trkpt lat="60.36633" lon="7.50199">
        <ele>1244.56</ele>
        <time>2019-04-01T14:35:11Z</time>
      </trkpt>
      <trkpt lat="60.36648" lon="7.50266">
        <ele>1240.72</ele>
        <time>2019-04-01T14:35:17Z</time>
      </trkpt>
      <trkpt lat="60.36651" lon="7.50279">
        <ele>1239.76</ele>
        <time>2019-04-01T14:35:18Z</time>
      </trkpt>
      <trkpt lat="60.3666" lon="7.50315">
        <ele>1237.35</ele>
        <time>2019-04-01T14:35:21Z</time>
      </trkpt>
      <trkpt lat="60.36668" lon="7.50356">
        <ele>1233.99</ele>
        <time>2019-04-01T14:35:25Z</time>
      </trkpt>
      <trkpt lat="60.3667" lon="7.50354">
        <ele>1232.07</ele>
        <time>2019-04-01T14:35:31Z</time>
      </trkpt>
      <trkpt lat="60.36669" lon="7.50351">
        <ele>1232.07</ele>
        <time>2019-04-01T14:35:32Z</time>
      </trkpt>
      <trkpt lat="60.36667" lon="7.50348">
        <ele>1232.07</ele>
        <time>2019-04-01T14:35:33Z</time>
      </trkpt>
      <trkpt lat="60.36664" lon="7.50336">
        <ele>1232.07</ele>
        <time>2019-04-01T14:35:36Z</time>
      </trkpt>
      <trkpt lat="60.36655" lon="7.50306">
        <ele>1235.43</ele>
        <time>2019-04-01T14:35:43Z</time>
      </trkpt>
      <trkpt lat="60.36631" lon="7.50277">
        <ele>1238.32</ele>
        <time>2019-04-01T14:35:52Z</time>
      </trkpt>
      <trkpt lat="60.36623" lon="7.50264">
        <ele>1238.8</ele>
        <time>2019-04-01T14:35:57Z</time>
      </trkpt>
      <trkpt lat="60.36613" lon="7.50258">
        <ele>1239.28</ele>
        <time>2019-04-01T14:36:00Z</time>
      </trkpt>
      <trkpt lat="60.36606" lon="7.50232">
        <ele>1240.72</ele>
        <time>2019-04-01T14:36:04Z</time>
      </trkpt>
      <trkpt lat="60.366" lon="7.50219">
        <ele>1241.68</ele>
        <time>2019-04-01T14:36:06Z</time>
      </trkpt>
      <trkpt lat="60.36575" lon="7.50181">
        <ele>1238.8</ele>
        <time>2019-04-01T14:36:13Z</time>
      </trkpt>
      <trkpt lat="60.36574" lon="7.50178">
        <ele>1241.2</ele>
        <time>2019-04-01T14:36:15Z</time>
      </trkpt>
      <trkpt lat="60.36581" lon="7.50184">
        <ele>1242.16</ele>
        <time>2019-04-01T14:36:23Z</time>
      </trkpt>
      <trkpt lat="60.36582" lon="7.50182">
        <ele>1242.16</ele>
        <time>2019-04-01T14:36:27Z</time>
      </trkpt>
      <trkpt lat="60.36585" lon="7.50185">
        <ele>1242.16</ele>
        <time>2019-04-01T14:36:38Z</time>
      </trkpt>
      <trkpt lat="60.36585" lon="7.50189">
        <ele>1242.16</ele>
        <time>2019-04-01T14:36:50Z</time>
      </trkpt>
      <trkpt lat="60.36585" lon="7.5019">
        <ele>1242.16</ele>
        <time>2019-04-01T14:36:51Z</time>
      </trkpt>
      <trkpt lat="60.36589" lon="7.50189">
        <ele>1242.64</ele>
        <time>2019-04-01T14:36:59Z</time>
      </trkpt>
      <trkpt lat="60.36609" lon="7.50216">
        <ele>1243.6</ele>
        <time>2019-04-01T14:37:09Z</time>
      </trkpt>
      <trkpt lat="60.36631" lon="7.50239">
        <ele>1241.2</ele>
        <time>2019-04-01T14:37:17Z</time>
      </trkpt>
      <trkpt lat="60.36661" lon="7.5027">
        <ele>1238.32</ele>
        <time>2019-04-01T14:37:24Z</time>
      </trkpt>
      <trkpt lat="60.36666" lon="7.50278">
        <ele>1237.83</ele>
        <time>2019-04-01T14:37:25Z</time>
      </trkpt>
      <trkpt lat="60.36708" lon="7.50369">
        <ele>1234.47</ele>
        <time>2019-04-01T14:37:35Z</time>
      </trkpt>
      <trkpt lat="60.36722" lon="7.50404">
        <ele>1233.99</ele>
        <time>2019-04-01T14:37:39Z</time>
      </trkpt>
      <trkpt lat="60.36736" lon="7.50444">
        <ele>1231.59</ele>
        <time>2019-04-01T14:37:43Z</time>
      </trkpt>
      <trkpt lat="60.36741" lon="7.50454">
        <ele>1231.11</ele>
        <time>2019-04-01T14:37:50Z</time>
      </trkpt>
      <trkpt lat="60.36741" lon="7.50459">
        <ele>1231.11</ele>
        <time>2019-04-01T14:38:04Z</time>
      </trkpt>
      <trkpt lat="60.3674" lon="7.50461">
        <ele>1231.11</ele>
        <time>2019-04-01T14:38:23Z</time>
      </trkpt>
      <trkpt lat="60.3674" lon="7.50459">
        <ele>1231.11</ele>
        <time>2019-04-01T14:38:48Z</time>
      </trkpt>
      <trkpt lat="60.36742" lon="7.50454">
        <ele>1231.11</ele>
        <time>2019-04-01T14:39:10Z</time>
      </trkpt>
      <trkpt lat="60.36743" lon="7.50451">
        <ele>1232.55</ele>
        <time>2019-04-01T14:39:17Z</time>
      </trkpt>
      <trkpt lat="60.36744" lon="7.50446">
        <ele>1233.51</ele>
        <time>2019-04-01T14:39:32Z</time>
      </trkpt>
      <trkpt lat="60.36745" lon="7.50443">
        <ele>1233.51</ele>
        <time>2019-04-01T14:39:45Z</time>
      </trkpt>
      <trkpt lat="60.36744" lon="7.50444">
        <ele>1233.99</ele>
        <time>2019-04-01T14:40:17Z</time>
      </trkpt>
      <trkpt lat="60.36744" lon="7.50444">
        <ele>1233.99</ele>
        <time>2019-04-01T14:40:38Z</time>
      </trkpt>
      <trkpt lat="60.36745" lon="7.50442">
        <ele>1233.99</ele>
        <time>2019-04-01T14:41:02Z</time>
      </trkpt>
      <trkpt lat="60.36747" lon="7.5044">
        <ele>1234.95</ele>
        <time>2019-04-01T14:41:14Z</time>
      </trkpt>
      <trkpt lat="60.36748" lon="7.50437">
        <ele>1234.95</ele>
        <time>2019-04-01T14:41:28Z</time>
      </trkpt>
      <trkpt lat="60.36747" lon="7.5044">
        <ele>1235.91</ele>
        <time>2019-04-01T14:41:46Z</time>
      </trkpt>
      <trkpt lat="60.36746" lon="7.5044">
        <ele>1235.91</ele>
        <time>2019-04-01T14:42:02Z</time>
      </trkpt>
      <trkpt lat="60.36743" lon="7.50447">
        <ele>1233.99</ele>
        <time>2019-04-01T14:42:15Z</time>
      </trkpt>
      <trkpt lat="60.36738" lon="7.50451">
        <ele>1232.07</ele>
        <time>2019-04-01T14:42:22Z</time>
      </trkpt>
      <trkpt lat="60.36736" lon="7.50452">
        <ele>1231.59</ele>
        <time>2019-04-01T14:42:25Z</time>
      </trkpt>
      <trkpt lat="60.36733" lon="7.50455">
        <ele>1230.62</ele>
        <time>2019-04-01T14:42:29Z</time>
      </trkpt>
      <trkpt lat="60.36731" lon="7.50457">
        <ele>1230.14</ele>
        <time>2019-04-01T14:42:38Z</time>
      </trkpt>
      <trkpt lat="60.36735" lon="7.5045">
        <ele>1230.14</ele>
        <time>2019-04-01T14:43:00Z</time>
      </trkpt>
      <trkpt lat="60.36733" lon="7.5045">
        <ele>1230.14</ele>
        <time>2019-04-01T14:43:13Z</time>
      </trkpt>
      <trkpt lat="60.36734" lon="7.5045">
        <ele>1230.14</ele>
        <time>2019-04-01T14:43:28Z</time>
      </trkpt>
      <trkpt lat="60.36735" lon="7.5045">
        <ele>1230.14</ele>
        <time>2019-04-01T14:43:50Z</time>
      </trkpt>
      <trkpt lat="60.36732" lon="7.50447">
        <ele>1230.14</ele>
        <time>2019-04-01T14:44:01Z</time>
      </trkpt>
      <trkpt lat="60.36735" lon="7.50452">
        <ele>1230.14</ele>
        <time>2019-04-01T14:44:14Z</time>
      </trkpt>
      <trkpt lat="60.36736" lon="7.50454">
        <ele>1230.14</ele>
        <time>2019-04-01T14:44:28Z</time>
      </trkpt>
      <trkpt lat="60.36736" lon="7.50456">
        <ele>1231.59</ele>
        <time>2019-04-01T14:44:44Z</time>
      </trkpt>
      <trkpt lat="60.36738" lon="7.50454">
        <ele>1231.59</ele>
        <time>2019-04-01T14:44:55Z</time>
      </trkpt>
      <trkpt lat="60.36737" lon="7.50455">
        <ele>1230.14</ele>
        <time>2019-04-01T14:45:08Z</time>
      </trkpt>
      <trkpt lat="60.36737" lon="7.50453">
        <ele>1233.51</ele>
        <time>2019-04-01T14:45:13Z</time>
      </trkpt>
      <trkpt lat="60.36737" lon="7.50453">
        <ele>1226.78</ele>
        <time>2019-04-01T14:45:19Z</time>
      </trkpt>
      <trkpt lat="60.36737" lon="7.50454">
        <ele>1226.78</ele>
        <time>2019-04-01T14:45:20Z</time>
      </trkpt>
      <trkpt lat="60.36737" lon="7.50453">
        <ele>1238.8</ele>
        <time>2019-04-01T14:45:22Z</time>
      </trkpt>
      <trkpt lat="60.36736" lon="7.50453">
        <ele>1231.11</ele>
        <time>2019-04-01T14:45:23Z</time>
      </trkpt>
      <trkpt lat="60.36735" lon="7.50454">
        <ele>1231.11</ele>
        <time>2019-04-01T14:45:39Z</time>
      </trkpt>
      <trkpt lat="60.36736" lon="7.50454">
        <ele>1225.34</ele>
        <time>2019-04-01T14:45:46Z</time>
      </trkpt>
      <trkpt lat="60.36735" lon="7.50454">
        <ele>1233.51</ele>
        <time>2019-04-01T14:45:47Z</time>
      </trkpt>
      <trkpt lat="60.36735" lon="7.50455">
        <ele>1233.51</ele>
        <time>2019-04-01T14:45:48Z</time>
      </trkpt>
      <trkpt lat="60.36734" lon="7.50452">
        <ele>1231.11</ele>
        <time>2019-04-01T14:45:50Z</time>
      </trkpt>
      <trkpt lat="60.36736" lon="7.50455">
        <ele>1231.11</ele>
        <time>2019-04-01T14:45:55Z</time>
      </trkpt>
      <trkpt lat="60.36737" lon="7.50456">
        <ele>1223.42</ele>
        <time>2019-04-01T14:45:58Z</time>
      </trkpt>
      <trkpt lat="60.36736" lon="7.50456">
        <ele>1232.07</ele>
        <time>2019-04-01T14:45:59Z</time>
      </trkpt>
      <trkpt lat="60.36736" lon="7.50456">
        <ele>1236.39</ele>
        <time>2019-04-01T14:46:00Z</time>
      </trkpt>
      <trkpt lat="60.36736" lon="7.50455">
        <ele>1231.11</ele>
        <time>2019-04-01T14:46:01Z</time>
      </trkpt>
      <trkpt lat="60.36736" lon="7.50451">
        <ele>1227.74</ele>
        <time>2019-04-01T14:46:12Z</time>
      </trkpt>
      <trkpt lat="60.36734" lon="7.50452">
        <ele>1231.59</ele>
        <time>2019-04-01T14:46:14Z</time>
      </trkpt>
      <trkpt lat="60.36732" lon="7.50453">
        <ele>1237.35</ele>
        <time>2019-04-01T14:46:16Z</time>
      </trkpt>
      <trkpt lat="60.36733" lon="7.50452">
        <ele>1230.62</ele>
        <time>2019-04-01T14:46:17Z</time>
      </trkpt>
      <trkpt lat="60.36729" lon="7.50454">
        <ele>1231.59</ele>
        <time>2019-04-01T14:46:32Z</time>
      </trkpt>
      <trkpt lat="60.36729" lon="7.50454">
        <ele>1231.59</ele>
        <time>2019-04-01T14:46:33Z</time>
      </trkpt>
      <trkpt lat="60.36728" lon="7.50454">
        <ele>1228.22</ele>
        <time>2019-04-01T14:46:34Z</time>
      </trkpt>
      <trkpt lat="60.36727" lon="7.50453">
        <ele>1231.59</ele>
        <time>2019-04-01T14:46:36Z</time>
      </trkpt>
      <trkpt lat="60.36728" lon="7.50452">
        <ele>1236.87</ele>
        <time>2019-04-01T14:46:37Z</time>
      </trkpt>
      <trkpt lat="60.36731" lon="7.50451">
        <ele>1231.59</ele>
        <time>2019-04-01T14:46:51Z</time>
      </trkpt>
      <trkpt lat="60.36734" lon="7.50452">
        <ele>1230.62</ele>
        <time>2019-04-01T14:47:09Z</time>
      </trkpt>
      <trkpt lat="60.36737" lon="7.50455">
        <ele>1230.14</ele>
        <time>2019-04-01T14:47:33Z</time>
      </trkpt>
      <trkpt lat="60.36737" lon="7.50453">
        <ele>1230.14</ele>
        <time>2019-04-01T14:48:20Z</time>
      </trkpt>
      <trkpt lat="60.36736" lon="7.50454">
        <ele>1230.14</ele>
        <time>2019-04-01T14:49:00Z</time>
      </trkpt>
      <trkpt lat="60.36736" lon="7.50451">
        <ele>1230.14</ele>
        <time>2019-04-01T14:49:33Z</time>
      </trkpt>
      <trkpt lat="60.36735" lon="7.50452">
        <ele>1230.14</ele>
        <time>2019-04-01T14:49:55Z</time>
      </trkpt>
      <trkpt lat="60.36736" lon="7.5045">
        <ele>1232.07</ele>
        <time>2019-04-01T14:49:57Z</time>
      </trkpt>
      <trkpt lat="60.36734" lon="7.50458">
        <ele>1230.62</ele>
        <time>2019-04-01T14:50:04Z</time>
      </trkpt>
      <trkpt lat="60.36736" lon="7.5046">
        <ele>1230.62</ele>
        <time>2019-04-01T14:50:20Z</time>
      </trkpt>
      <trkpt lat="60.36736" lon="7.50461">
        <ele>1233.03</ele>
        <time>2019-04-01T14:50:44Z</time>
      </trkpt>
    </trkseg>
  </trk>
  <trk>
    <name><![CDATA[2019-04-02]]></name>
    <trkseg>
      <trkpt lat="60.46154" lon="7.81791">
        <ele>1114.79</ele>
        <time>2019-04-02T08:08:00Z</time>
      </trkpt>
      <trkpt lat="60.46154" lon="7.81791">
        <ele>1114.79</ele>
        <time>2019-04-02T08:08:01Z</time>
      </trkpt>
      <trkpt lat="60.46154" lon="7.8179">
        <ele>1152.76</ele>
        <time>2019-04-02T08:08:05Z</time>
      </trkpt>
      <trkpt lat="60.46154" lon="7.8179">
        <ele>1152.76</ele>
        <time>2019-04-02T08:08:06Z</time>
      </trkpt>
      <trkpt lat="60.46154" lon="7.8179">
        <ele>1149.87</ele>
        <time>2019-04-02T08:08:12Z</time>
      </trkpt>
      <trkpt lat="60.46154" lon="7.81791">
        <ele>1148.91</ele>
        <time>2019-04-02T08:08:19Z</time>
      </trkpt>
      <trkpt lat="60.46155" lon="7.8179">
        <ele>1147.47</ele>
        <time>2019-04-02T08:08:39Z</time>
      </trkpt>
      <trkpt lat="60.46154" lon="7.81789">
        <ele>1147.47</ele>
        <time>2019-04-02T08:09:05Z</time>
      </trkpt>
      <trkpt lat="60.46154" lon="7.81792">
        <ele>1147.95</ele>
        <time>2019-04-02T08:09:45Z</time>
      </trkpt>
      <trkpt lat="60.46156" lon="7.81793">
        <ele>1149.87</ele>
        <time>2019-04-02T08:10:03Z</time>
      </trkpt>
      <trkpt lat="60.46156" lon="7.8179">
        <ele>1149.87</ele>
        <time>2019-04-02T08:10:15Z</time>
      </trkpt>
      <trkpt lat="60.46155" lon="7.81793">
        <ele>1149.87</ele>
        <time>2019-04-02T08:10:31Z</time>
      </trkpt>
      <trkpt lat="60.46155" lon="7.81794">
        <ele>1149.87</ele>
        <time>2019-04-02T08:10:41Z</time>
      </trkpt>
      <trkpt lat="60.46154" lon="7.81796">
        <ele>1149.87</ele>
        <time>2019-04-02T08:10:56Z</time>
      </trkpt>
      <trkpt lat="60.46157" lon="7.81805">
        <ele>1150.35</ele>
        <time>2019-04-02T08:11:08Z</time>
      </trkpt>
      <trkpt lat="60.46157" lon="7.81809">
        <ele>1150.35</ele>
        <time>2019-04-02T08:11:16Z</time>
      </trkpt>
      <trkpt lat="60.46155" lon="7.8184">
        <ele>1150.35</ele>
        <time>2019-04-02T08:11:30Z</time>
      </trkpt>
      <trkpt lat="60.46153" lon="7.8185">
        <ele>1150.35</ele>
        <time>2019-04-02T08:11:39Z</time>
      </trkpt>
      <trkpt lat="60.46152" lon="7.81858">
        <ele>1150.35</ele>
        <time>2019-04-02T08:11:43Z</time>
      </trkpt>
      <trkpt lat="60.46142" lon="7.81888">
        <ele>1150.84</ele>
        <time>2019-04-02T08:12:00Z</time>
      </trkpt>
      <trkpt lat="60.46138" lon="7.81903">
        <ele>1150.84</ele>
        <time>2019-04-02T08:12:10Z</time>
      </trkpt>
      <trkpt lat="60.46125" lon="7.81922">
        <ele>1150.84</ele>
        <time>2019-04-02T08:12:26Z</time>
      </trkpt>
      <trkpt lat="60.46124" lon="7.81923">
        <ele>1149.87</ele>
        <time>2019-04-02T08:12:31Z</time>
      </trkpt>
      <trkpt lat="60.46122" lon="7.8192">
        <ele>1149.39</ele>
        <time>2019-04-02T08:12:50Z</time>
      </trkpt>
      <trkpt lat="60.46122" lon="7.81921">
        <ele>1148.91</ele>
        <time>2019-04-02T08:12:59Z</time>
      </trkpt>
      <trkpt lat="60.46123" lon="7.81919">
        <ele>1148.91</ele>
        <time>2019-04-02T08:13:10Z</time>
      </trkpt>
      <trkpt lat="60.4612" lon="7.81923">
        <ele>1148.43</ele>
        <time>2019-04-02T08:13:19Z</time>
      </trkpt>
      <trkpt lat="60.46121" lon="7.81923">
        <ele>1148.43</ele>
        <time>2019-04-02T08:13:21Z</time>
      </trkpt>
      <trkpt lat="60.46122" lon="7.81925">
        <ele>1146.99</ele>
        <time>2019-04-02T08:13:32Z</time>
      </trkpt>
      <trkpt lat="60.4612" lon="7.81927">
        <ele>1146.99</ele>
        <time>2019-04-02T08:14:21Z</time>
      </trkpt>
      <trkpt lat="60.46119" lon="7.81926">
        <ele>1146.99</ele>
        <time>2019-04-02T08:15:12Z</time>
      </trkpt>
      <trkpt lat="60.46119" lon="7.81928">
        <ele>1147.47</ele>
        <time>2019-04-02T08:15:55Z</time>
      </trkpt>
      <trkpt lat="60.46119" lon="7.81928">
        <ele>1147.47</ele>
        <time>2019-04-02T08:16:38Z</time>
      </trkpt>
      <trkpt lat="60.46119" lon="7.81928">
        <ele>1147.47</ele>
        <time>2019-04-02T08:17:26Z</time>
      </trkpt>
      <trkpt lat="60.4612" lon="7.81928">
        <ele>1147.47</ele>
        <time>2019-04-02T08:18:20Z</time>
      </trkpt>
      <trkpt lat="60.46119" lon="7.81929">
        <ele>1147.47</ele>
        <time>2019-04-02T08:19:14Z</time>
      </trkpt>
      <trkpt lat="60.46119" lon="7.8193">
        <ele>1147.47</ele>
        <time>2019-04-02T08:20:03Z</time>
      </trkpt>
      <trkpt lat="60.46121" lon="7.81929">
        <ele>1147.47</ele>
        <time>2019-04-02T08:20:53Z</time>
      </trkpt>
      <trkpt lat="60.46119" lon="7.81928">
        <ele>1149.39</ele>
        <time>2019-04-02T08:21:32Z</time>
      </trkpt>
      <trkpt lat="60.46117" lon="7.81932">
        <ele>1149.39</ele>
        <time>2019-04-02T08:21:40Z</time>
      </trkpt>
      <trkpt lat="60.4611" lon="7.81941">
        <ele>1149.39</ele>
        <time>2019-04-02T08:21:47Z</time>
      </trkpt>
      <trkpt lat="60.46112" lon="7.81941">
        <ele>1149.87</ele>
        <time>2019-04-02T08:21:58Z</time>
      </trkpt>
      <trkpt lat="60.46112" lon="7.81944">
        <ele>1149.87</ele>
        <time>2019-04-02T08:22:02Z</time>
      </trkpt>
      <trkpt lat="60.46113" lon="7.81988">
        <ele>1152.76</ele>
        <time>2019-04-02T08:22:08Z</time>
      </trkpt>
      <trkpt lat="60.46112" lon="7.81998">
        <ele>1152.76</ele>
        <time>2019-04-02T08:22:09Z</time>
      </trkpt>
      <trkpt lat="60.46112" lon="7.82018">
        <ele>1154.2</ele>
        <time>2019-04-02T08:22:11Z</time>
      </trkpt>
      <trkpt lat="60.46112" lon="7.82026">
        <ele>1154.2</ele>
        <time>2019-04-02T08:22:12Z</time>
      </trkpt>
      <trkpt lat="60.46113" lon="7.82031">
        <ele>1154.2</ele>
        <time>2019-04-02T08:22:13Z</time>
      </trkpt>
      <trkpt lat="60.46114" lon="7.82033">
        <ele>1152.76</ele>
        <time>2019-04-02T08:22:14Z</time>
      </trkpt>
      <trkpt lat="60.46115" lon="7.82034">
        <ele>1152.76</ele>
        <time>2019-04-02T08:22:15Z</time>
      </trkpt>
      <trkpt lat="60.46116" lon="7.82034">
        <ele>1152.28</ele>
        <time>2019-04-02T08:22:17Z</time>
      </trkpt>
      <trkpt lat="60.46119" lon="7.82025">
        <ele>1151.8</ele>
        <time>2019-04-02T08:22:24Z</time>
      </trkpt>
      <trkpt lat="60.46132" lon="7.82036">
        <ele>1154.68</ele>
        <time>2019-04-02T08:22:28Z</time>
      </trkpt>
      <trkpt lat="60.46142" lon="7.82068">
        <ele>1156.6</ele>
        <time>2019-04-02T08:22:31Z</time>
      </trkpt>
      <trkpt lat="60.46147" lon="7.82123">
        <ele>1159.01</ele>
        <time>2019-04-02T08:22:35Z</time>
      </trkpt>
      <trkpt lat="60.46146" lon="7.8217">
        <ele>1159.97</ele>
        <time>2019-04-02T08:22:40Z</time>
      </trkpt>
      <trkpt lat="60.46146" lon="7.82174">
        <ele>1159.49</ele>
        <time>2019-04-02T08:22:56Z</time>
      </trkpt>
      <trkpt lat="60.46147" lon="7.82178">
        <ele>1159.49</ele>
        <time>2019-04-02T08:23:20Z</time>
      </trkpt>
      <trkpt lat="60.46149" lon="7.82178">
        <ele>1159.49</ele>
        <time>2019-04-02T08:23:36Z</time>
      </trkpt>
      <trkpt lat="60.4615" lon="7.82176">
        <ele>1160.45</ele>
        <time>2019-04-02T08:24:03Z</time>
      </trkpt>
      <trkpt lat="60.4615" lon="7.82176">
        <ele>1160.45</ele>
        <time>2019-04-02T08:24:06Z</time>
      </trkpt>
      <trkpt lat="60.4615" lon="7.82171">
        <ele>1157.56</ele>
        <time>2019-04-02T08:24:09Z</time>
      </trkpt>
      <trkpt lat="60.46148" lon="7.82168">
        <ele>1159.01</ele>
        <time>2019-04-02T08:24:15Z</time>
      </trkpt>
      <trkpt lat="60.46148" lon="7.82169">
        <ele>1157.56</ele>
        <time>2019-04-02T08:24:17Z</time>
      </trkpt>
      <trkpt lat="60.46135" lon="7.82156">
        <ele>1156.12</ele>
        <time>2019-04-02T08:24:27Z</time>
      </trkpt>
      <trkpt lat="60.46136" lon="7.82153">
        <ele>1157.56</ele>
        <time>2019-04-02T08:24:30Z</time>
      </trkpt>
      <trkpt lat="60.46139" lon="7.82147">
        <ele>1158.05</ele>
        <time>2019-04-02T08:24:40Z</time>
      </trkpt>
      <trkpt lat="60.46146" lon="7.82131">
        <ele>1158.05</ele>
        <time>2019-04-02T08:24:50Z</time>
      </trkpt>
      <trkpt lat="60.46144" lon="7.8213">
        <ele>1158.05</ele>
        <time>2019-04-02T08:25:05Z</time>
      </trkpt>
      <trkpt lat="60.46164" lon="7.82145">
        <ele>1159.01</ele>
        <time>2019-04-02T08:25:12Z</time>
      </trkpt>
      <trkpt lat="60.46168" lon="7.82156">
        <ele>1159.97</ele>
        <time>2019-04-02T08:25:13Z</time>
      </trkpt>
      <trkpt lat="60.46194" lon="7.82211">
        <ele>1164.29</ele>
        <time>2019-04-02T08:25:18Z</time>
      </trkpt>
      <trkpt lat="60.46204" lon="7.8224">
        <ele>1166.22</ele>
        <time>2019-04-02T08:25:20Z</time>
      </trkpt>
      <trkpt lat="60.46219" lon="7.82285">
        <ele>1171.5</ele>
        <time>2019-04-02T08:25:23Z</time>
      </trkpt>
      <trkpt lat="60.46236" lon="7.82334">
        <ele>1175.35</ele>
        <time>2019-04-02T08:25:26Z</time>
      </trkpt>
      <trkpt lat="60.46253" lon="7.82377">
        <ele>1178.71</ele>
        <time>2019-04-02T08:25:29Z</time>
      </trkpt>
      <trkpt lat="60.46268" lon="7.8241">
        <ele>1182.56</ele>
        <time>2019-04-02T08:25:32Z</time>
      </trkpt>
      <trkpt lat="60.46277" lon="7.8243">
        <ele>1188.81</ele>
        <time>2019-04-02T08:25:35Z</time>
      </trkpt>
      <trkpt lat="60.46279" lon="7.82433">
        <ele>1189.77</ele>
        <time>2019-04-02T08:25:36Z</time>
      </trkpt>
      <trkpt lat="60.46297" lon="7.82467">
        <ele>1192.17</ele>
        <time>2019-04-02T08:25:43Z</time>
      </trkpt>
      <trkpt lat="60.46307" lon="7.82494">
        <ele>1195.54</ele>
        <time>2019-04-02T08:25:47Z</time>
      </trkpt>
      <trkpt lat="60.46309" lon="7.8248">
        <ele>1195.06</ele>
        <time>2019-04-02T08:25:50Z</time>
      </trkpt>
      <trkpt lat="60.46303" lon="7.82461">
        <ele>1189.77</ele>
        <time>2019-04-02T08:25:52Z</time>
      </trkpt>
      <trkpt lat="60.46291" lon="7.82436">
        <ele>1184.96</ele>
        <time>2019-04-02T08:25:55Z</time>
      </trkpt>
      <trkpt lat="60.46288" lon="7.82428">
        <ele>1184.96</ele>
        <time>2019-04-02T08:25:56Z</time>
      </trkpt>
      <trkpt lat="60.46284" lon="7.8242">
        <ele>1183.04</ele>
        <time>2019-04-02T08:25:57Z</time>
      </trkpt>
      <trkpt lat="60.4627" lon="7.82375">
        <ele>1177.75</ele>
        <time>2019-04-02T08:26:01Z</time>
      </trkpt>
      <trkpt lat="60.46265" lon="7.82363">
        <ele>1173.91</ele>
        <time>2019-04-02T08:26:02Z</time>
      </trkpt>
      <trkpt lat="60.46256" lon="7.82341">
        <ele>1173.43</ele>
        <time>2019-04-02T08:26:04Z</time>
      </trkpt>
      <trkpt lat="60.46243" lon="7.82307">
        <ele>1168.14</ele>
        <time>2019-04-02T08:26:07Z</time>
      </trkpt>
      <trkpt lat="60.46232" lon="7.8228">
        <ele>1164.77</ele>
        <time>2019-04-02T08:26:09Z</time>
      </trkpt>
      <trkpt lat="60.46214" lon="7.82244">
        <ele>1159.97</ele>
        <time>2019-04-02T08:26:12Z</time>
      </trkpt>
      <trkpt lat="60.46199" lon="7.82222">
        <ele>1159.01</ele>
        <time>2019-04-02T08:26:14Z</time>
      </trkpt>
      <trkpt lat="60.46177" lon="7.82191">
        <ele>1155.16</ele>
        <time>2019-04-02T08:26:17Z</time>
      </trkpt>
      <trkpt lat="60.46169" lon="7.82181">
        <ele>1155.16</ele>
        <time>2019-04-02T08:26:18Z</time>
      </trkpt>
      <trkpt lat="60.4613" lon="7.82126">
        <ele>1152.76</ele>
        <time>2019-04-02T08:26:25Z</time>
      </trkpt>
      <trkpt lat="60.46133" lon="7.82109">
        <ele>1156.12</ele>
        <time>2019-04-02T08:26:28Z</time>
      </trkpt>
      <trkpt lat="60.46134" lon="7.82109">
        <ele>1156.6</ele>
        <time>2019-04-02T08:26:29Z</time>
      </trkpt>
      <trkpt lat="60.46135" lon="7.82114">
        <ele>1157.56</ele>
        <time>2019-04-02T08:26:51Z</time>
      </trkpt>
      <trkpt lat="60.46135" lon="7.82112">
        <ele>1157.56</ele>
        <time>2019-04-02T08:26:58Z</time>
      </trkpt>
      <trkpt lat="60.4613" lon="7.82104">
        <ele>1155.64</ele>
        <time>2019-04-02T08:27:02Z</time>
      </trkpt>
      <trkpt lat="60.46113" lon="7.82092">
        <ele>1153.72</ele>
        <time>2019-04-02T08:27:16Z</time>
      </trkpt>
      <trkpt lat="60.46101" lon="7.82056">
        <ele>1151.32</ele>
        <time>2019-04-02T08:27:22Z</time>
      </trkpt>
      <trkpt lat="60.4609" lon="7.82024">
        <ele>1152.28</ele>
        <time>2019-04-02T08:27:30Z</time>
      </trkpt>
      <trkpt lat="60.46088" lon="7.82019">
        <ele>1152.28</ele>
        <time>2019-04-02T08:27:31Z</time>
      </trkpt>
      <trkpt lat="60.46088" lon="7.82013">
        <ele>1152.28</ele>
        <time>2019-04-02T08:27:32Z</time>
      </trkpt>
      <trkpt lat="60.46087" lon="7.82008">
        <ele>1153.24</ele>
        <time>2019-04-02T08:27:44Z</time>
      </trkpt>
      <trkpt lat="60.46086" lon="7.82009">
        <ele>1153.24</ele>
        <time>2019-04-02T08:27:54Z</time>
      </trkpt>
      <trkpt lat="60.46085" lon="7.82004">
        <ele>1153.24</ele>
        <time>2019-04-02T08:27:56Z</time>
      </trkpt>
      <trkpt lat="60.46083" lon="7.82001">
        <ele>1151.32</ele>
        <time>2019-04-02T08:27:57Z</time>
      </trkpt>
      <trkpt lat="60.46081" lon="7.81998">
        <ele>1151.32</ele>
        <time>2019-04-02T08:27:58Z</time>
      </trkpt>
      <trkpt lat="60.46082" lon="7.81991">
        <ele>1152.76</ele>
        <time>2019-04-02T08:28:06Z</time>
      </trkpt>
      <trkpt lat="60.46082" lon="7.81991">
        <ele>1152.76</ele>
        <time>2019-04-02T08:28:07Z</time>
      </trkpt>
      <trkpt lat="60.4608" lon="7.81993">
        <ele>1152.76</ele>
        <time>2019-04-02T08:28:11Z</time>
      </trkpt>
      <trkpt lat="60.46077" lon="7.81996">
        <ele>1151.32</ele>
        <time>2019-04-02T08:28:14Z</time>
      </trkpt>
      <trkpt lat="60.46074" lon="7.81995">
        <ele>1150.84</ele>
        <time>2019-04-02T08:28:30Z</time>
      </trkpt>
      <trkpt lat="60.46073" lon="7.81997">
        <ele>1150.35</ele>
        <time>2019-04-02T08:28:45Z</time>
      </trkpt>
      <trkpt lat="60.46074" lon="7.82001">
        <ele>1150.35</ele>
        <time>2019-04-02T08:28:51Z</time>
      </trkpt>
      <trkpt lat="60.4608" lon="7.82012">
        <ele>1150.35</ele>
        <time>2019-04-02T08:28:55Z</time>
      </trkpt>
      <trkpt lat="60.46083" lon="7.82023">
        <ele>1152.28</ele>
        <time>2019-04-02T08:28:57Z</time>
      </trkpt>
      <trkpt lat="60.46092" lon="7.82049">
        <ele>1154.2</ele>
        <time>2019-04-02T08:29:01Z</time>
      </trkpt>
      <trkpt lat="60.46094" lon="7.8206">
        <ele>1154.2</ele>
        <time>2019-04-02T08:29:02Z</time>
      </trkpt>
      <trkpt lat="60.46096" lon="7.82072">
        <ele>1154.68</ele>
        <time>2019-04-02T08:29:03Z</time>
      </trkpt>
      <trkpt lat="60.46098" lon="7.82084">
        <ele>1154.68</ele>
        <time>2019-04-02T08:29:04Z</time>
      </trkpt>
      <trkpt lat="60.461" lon="7.82097">
        <ele>1155.64</ele>
        <time>2019-04-02T08:29:05Z</time>
      </trkpt>
      <trkpt lat="60.46102" lon="7.82111">
        <ele>1156.6</ele>
        <time>2019-04-02T08:29:06Z</time>
      </trkpt>
      <trkpt lat="60.46118" lon="7.82199">
        <ele>1159.97</ele>
        <time>2019-04-02T08:29:13Z</time>
      </trkpt>
      <trkpt lat="60.46123" lon="7.82236">
        <ele>1162.85</ele>
        <time>2019-04-02T08:29:16Z</time>
      </trkpt>
      <trkpt lat="60.46127" lon="7.82259">
        <ele>1163.81</ele>
        <time>2019-04-02T08:29:18Z</time>
      </trkpt>
      <trkpt lat="60.46129" lon="7.82282">
        <ele>1165.26</ele>
        <time>2019-04-02T08:29:20Z</time>
      </trkpt>
      <trkpt lat="60.46129" lon="7.82305">
        <ele>1167.66</ele>
        <time>2019-04-02T08:29:22Z</time>
      </trkpt>
      <trkpt lat="60.46124" lon="7.82355">
        <ele>1168.14</ele>
        <time>2019-04-02T08:29:26Z</time>
      </trkpt>
      <trkpt lat="60.46106" lon="7.82435">
        <ele>1169.58</ele>
        <time>2019-04-02T08:29:33Z</time>
      </trkpt>
      <trkpt lat="60.46079" lon="7.82524">
        <ele>1169.58</ele>
        <time>2019-04-02T08:29:42Z</time>
      </trkpt>
      <trkpt lat="60.46073" lon="7.82542">
        <ele>1169.58</ele>
        <time>2019-04-02T08:29:44Z</time>
      </trkpt>
      <trkpt lat="60.46049" lon="7.82618">
        <ele>1169.58</ele>
        <time>2019-04-02T08:29:53Z</time>
      </trkpt>
      <trkpt lat="60.46034" lon="7.82667">
        <ele>1169.58</ele>
        <time>2019-04-02T08:29:59Z</time>
      </trkpt>
      <trkpt lat="60.46027" lon="7.82689">
        <ele>1169.58</ele>
        <time>2019-04-02T08:30:02Z</time>
      </trkpt>
      <trkpt lat="60.46017" lon="7.82713">
        <ele>1170.06</ele>
        <time>2019-04-02T08:30:05Z</time>
      </trkpt>
      <trkpt lat="60.46013" lon="7.8272">
        <ele>1170.06</ele>
        <time>2019-04-02T08:30:06Z</time>
      </trkpt>
      <trkpt lat="60.4601" lon="7.82727">
        <ele>1170.06</ele>
        <time>2019-04-02T08:30:07Z</time>
      </trkpt>
      <trkpt lat="60.46008" lon="7.82733">
        <ele>1170.06</ele>
        <time>2019-04-02T08:30:08Z</time>
      </trkpt>
      <trkpt lat="60.46006" lon="7.82739">
        <ele>1169.1</ele>
        <time>2019-04-02T08:30:09Z</time>
      </trkpt>
      <trkpt lat="60.46007" lon="7.82741">
        <ele>1168.14</ele>
        <time>2019-04-02T08:30:11Z</time>
      </trkpt>
      <trkpt lat="60.46001" lon="7.82731">
        <ele>1163.81</ele>
        <time>2019-04-02T08:30:14Z</time>
      </trkpt>
      <trkpt lat="60.45996" lon="7.82727">
        <ele>1162.37</ele>
        <time>2019-04-02T08:30:15Z</time>
      </trkpt>
      <trkpt lat="60.4599" lon="7.82723">
        <ele>1160.45</ele>
        <time>2019-04-02T08:30:16Z</time>
      </trkpt>
      <trkpt lat="60.45972" lon="7.82709">
        <ele>1157.56</ele>
        <time>2019-04-02T08:30:19Z</time>
      </trkpt>
      <trkpt lat="60.45966" lon="7.82705">
        <ele>1157.08</ele>
        <time>2019-04-02T08:30:20Z</time>
      </trkpt>
      <trkpt lat="60.4594" lon="7.82684">
        <ele>1153.24</ele>
        <time>2019-04-02T08:30:24Z</time>
      </trkpt>
      <trkpt lat="60.45905" lon="7.82661">
        <ele>1151.8</ele>
        <time>2019-04-02T08:30:30Z</time>
      </trkpt>
      <trkpt lat="60.45889" lon="7.82648">
        <ele>1151.8</ele>
        <time>2019-04-02T08:30:33Z</time>
      </trkpt>
      <trkpt lat="60.45843" lon="7.82596">
        <ele>1150.35</ele>
        <time>2019-04-02T08:30:42Z</time>
      </trkpt>
      <trkpt lat="60.45816" lon="7.82575">
        <ele>1148.91</ele>
        <time>2019-04-02T08:30:47Z</time>
      </trkpt>
      <trkpt lat="60.45772" lon="7.82532">
        <ele>1145.07</ele>
        <time>2019-04-02T08:30:55Z</time>
      </trkpt>
      <trkpt lat="60.4575" lon="7.82508">
        <ele>1143.14</ele>
        <time>2019-04-02T08:30:59Z</time>
      </trkpt>
      <trkpt lat="60.45745" lon="7.82502">
        <ele>1143.14</ele>
        <time>2019-04-02T08:31:00Z</time>
      </trkpt>
      <trkpt lat="60.45729" lon="7.82487">
        <ele>1143.14</ele>
        <time>2019-04-02T08:31:03Z</time>
      </trkpt>
      <trkpt lat="60.45692" lon="7.82449">
        <ele>1140.74</ele>
        <time>2019-04-02T08:31:10Z</time>
      </trkpt>
      <trkpt lat="60.45675" lon="7.82433">
        <ele>1140.74</ele>
        <time>2019-04-02T08:31:14Z</time>
      </trkpt>
      <trkpt lat="60.45635" lon="7.82385">
        <ele>1141.22</ele>
        <time>2019-04-02T08:31:27Z</time>
      </trkpt>
      <trkpt lat="60.45614" lon="7.82348">
        <ele>1140.74</ele>
        <time>2019-04-02T08:31:38Z</time>
      </trkpt>
      <trkpt lat="60.45596" lon="7.82318">
        <ele>1140.74</ele>
        <time>2019-04-02T08:31:50Z</time>
      </trkpt>
      <trkpt lat="60.45595" lon="7.82316">
        <ele>1140.74</ele>
        <time>2019-04-02T08:31:51Z</time>
      </trkpt>
      <trkpt lat="60.45591" lon="7.82334">
        <ele>1140.74</ele>
        <time>2019-04-02T08:32:00Z</time>
      </trkpt>
      <trkpt lat="60.45592" lon="7.82336">
        <ele>1140.74</ele>
        <time>2019-04-02T08:32:02Z</time>
      </trkpt>
      <trkpt lat="60.45593" lon="7.82331">
        <ele>1140.74</ele>
        <time>2019-04-02T08:32:04Z</time>
      </trkpt>
      <trkpt lat="60.45592" lon="7.823">
        <ele>1140.74</ele>
        <time>2019-04-02T08:32:08Z</time>
      </trkpt>
      <trkpt lat="60.45588" lon="7.82282">
        <ele>1140.74</ele>
        <time>2019-04-02T08:32:10Z</time>
      </trkpt>
      <trkpt lat="60.4558" lon="7.82252">
        <ele>1140.26</ele>
        <time>2019-04-02T08:32:13Z</time>
      </trkpt>
      <trkpt lat="60.45571" lon="7.82224">
        <ele>1139.78</ele>
        <time>2019-04-02T08:32:16Z</time>
      </trkpt>
      <trkpt lat="60.45529" lon="7.82126">
        <ele>1140.26</ele>
        <time>2019-04-02T08:32:28Z</time>
      </trkpt>
      <trkpt lat="60.45517" lon="7.82104">
        <ele>1141.22</ele>
        <time>2019-04-02T08:32:32Z</time>
      </trkpt>
      <trkpt lat="60.45501" lon="7.82075">
        <ele>1141.22</ele>
        <time>2019-04-02T08:32:38Z</time>
      </trkpt>
      <trkpt lat="60.45489" lon="7.8205">
        <ele>1141.22</ele>
        <time>2019-04-02T08:32:42Z</time>
      </trkpt>
      <trkpt lat="60.45478" lon="7.82033">
        <ele>1141.22</ele>
        <time>2019-04-02T08:32:45Z</time>
      </trkpt>
      <trkpt lat="60.45471" lon="7.82017">
        <ele>1141.7</ele>
        <time>2019-04-02T08:32:49Z</time>
      </trkpt>
      <trkpt lat="60.45462" lon="7.82047">
        <ele>1142.66</ele>
        <time>2019-04-02T08:32:57Z</time>
      </trkpt>
      <trkpt lat="60.45447" lon="7.82106">
        <ele>1142.66</ele>
        <time>2019-04-02T08:33:08Z</time>
      </trkpt>
      <trkpt lat="60.4544" lon="7.82122">
        <ele>1142.66</ele>
        <time>2019-04-02T08:33:15Z</time>
      </trkpt>
      <trkpt lat="60.4545" lon="7.82152">
        <ele>1142.66</ele>
        <time>2019-04-02T08:33:24Z</time>
      </trkpt>
      <trkpt lat="60.45453" lon="7.82162">
        <ele>1142.66</ele>
        <time>2019-04-02T08:33:26Z</time>
      </trkpt>
      <trkpt lat="60.45454" lon="7.82195">
        <ele>1144.11</ele>
        <time>2019-04-02T08:33:35Z</time>
      </trkpt>
      <trkpt lat="60.45454" lon="7.82195">
        <ele>1144.59</ele>
        <time>2019-04-02T08:33:39Z</time>
      </trkpt>
      <trkpt lat="60.45453" lon="7.82176">
        <ele>1142.66</ele>
        <time>2019-04-02T08:33:43Z</time>
      </trkpt>
      <trkpt lat="60.4545" lon="7.82167">
        <ele>1142.18</ele>
        <time>2019-04-02T08:33:44Z</time>
      </trkpt>
      <trkpt lat="60.45429" lon="7.82082">
        <ele>1141.22</ele>
        <time>2019-04-02T08:33:56Z</time>
      </trkpt>
      <trkpt lat="60.4542" lon="7.82045">
        <ele>1141.22</ele>
        <time>2019-04-02T08:34:01Z</time>
      </trkpt>
      <trkpt lat="60.45417" lon="7.8203">
        <ele>1141.22</ele>
        <time>2019-04-02T08:34:03Z</time>
      </trkpt>
      <trkpt lat="60.45412" lon="7.82016">
        <ele>1142.66</ele>
        <time>2019-04-02T08:34:05Z</time>
      </trkpt>
      <trkpt lat="60.45391" lon="7.81974">
        <ele>1144.11</ele>
        <time>2019-04-02T08:34:14Z</time>
      </trkpt>
      <trkpt lat="60.45376" lon="7.81952">
        <ele>1144.11</ele>
        <time>2019-04-02T08:34:23Z</time>
      </trkpt>
      <trkpt lat="60.45377" lon="7.81954">
        <ele>1144.11</ele>
        <time>2019-04-02T08:34:27Z</time>
      </trkpt>
      <trkpt lat="60.45377" lon="7.81973">
        <ele>1144.11</ele>
        <time>2019-04-02T08:34:31Z</time>
      </trkpt>
      <trkpt lat="60.45366" lon="7.82033">
        <ele>1143.63</ele>
        <time>2019-04-02T08:34:40Z</time>
      </trkpt>
      <trkpt lat="60.45363" lon="7.82073">
        <ele>1142.18</ele>
        <time>2019-04-02T08:34:51Z</time>
      </trkpt>
      <trkpt lat="60.45363" lon="7.82076">
        <ele>1142.18</ele>
        <time>2019-04-02T08:35:00Z</time>
      </trkpt>
      <trkpt lat="60.45361" lon="7.8211">
        <ele>1142.18</ele>
        <time>2019-04-02T08:35:06Z</time>
      </trkpt>
      <trkpt lat="60.45357" lon="7.82133">
        <ele>1142.18</ele>
        <time>2019-04-02T08:35:15Z</time>
      </trkpt>
      <trkpt lat="60.45359" lon="7.82145">
        <ele>1142.18</ele>
        <time>2019-04-02T08:35:21Z</time>
      </trkpt>
      <trkpt lat="60.4536" lon="7.82149">
        <ele>1142.18</ele>
        <time>2019-04-02T08:35:25Z</time>
      </trkpt>
      <trkpt lat="60.4536" lon="7.82161">
        <ele>1143.63</ele>
        <time>2019-04-02T08:35:28Z</time>
      </trkpt>
      <trkpt lat="60.4536" lon="7.82157">
        <ele>1143.63</ele>
        <time>2019-04-02T08:35:35Z</time>
      </trkpt>
      <trkpt lat="60.45352" lon="7.82141">
        <ele>1142.18</ele>
        <time>2019-04-02T08:35:43Z</time>
      </trkpt>
      <trkpt lat="60.45353" lon="7.82142">
        <ele>1142.18</ele>
        <time>2019-04-02T08:35:48Z</time>
      </trkpt>
      <trkpt lat="60.45359" lon="7.82143">
        <ele>1142.18</ele>
        <time>2019-04-02T08:35:52Z</time>
      </trkpt>
      <trkpt lat="60.45361" lon="7.82146">
        <ele>1142.18</ele>
        <time>2019-04-02T08:35:55Z</time>
      </trkpt>
      <trkpt lat="60.45368" lon="7.82153">
        <ele>1142.18</ele>
        <time>2019-04-02T08:36:00Z</time>
      </trkpt>
      <trkpt lat="60.45375" lon="7.82165">
        <ele>1143.63</ele>
        <time>2019-04-02T08:36:03Z</time>
      </trkpt>
      <trkpt lat="60.45387" lon="7.82242">
        <ele>1145.07</ele>
        <time>2019-04-02T08:36:16Z</time>
      </trkpt>
      <trkpt lat="60.45384" lon="7.82284">
        <ele>1145.55</ele>
        <time>2019-04-02T08:36:22Z</time>
      </trkpt>
      <trkpt lat="60.45375" lon="7.82327">
        <ele>1145.55</ele>
        <time>2019-04-02T08:36:27Z</time>
      </trkpt>
      <trkpt lat="60.45365" lon="7.82356">
        <ele>1145.55</ele>
        <time>2019-04-02T08:36:31Z</time>
      </trkpt>
      <trkpt lat="60.45354" lon="7.82397">
        <ele>1143.14</ele>
        <time>2019-04-02T08:36:36Z</time>
      </trkpt>
      <trkpt lat="60.45346" lon="7.82433">
        <ele>1143.14</ele>
        <time>2019-04-02T08:36:40Z</time>
      </trkpt>
      <trkpt lat="60.45341" lon="7.82449">
        <ele>1143.14</ele>
        <time>2019-04-02T08:36:42Z</time>
      </trkpt>
      <trkpt lat="60.45333" lon="7.8248">
        <ele>1143.14</ele>
        <time>2019-04-02T08:36:46Z</time>
      </trkpt>
      <trkpt lat="60.45324" lon="7.82505">
        <ele>1142.66</ele>
        <time>2019-04-02T08:36:50Z</time>
      </trkpt>
      <trkpt lat="60.45311" lon="7.82555">
        <ele>1142.18</ele>
        <time>2019-04-02T08:37:02Z</time>
      </trkpt>
      <trkpt lat="60.45311" lon="7.82556">
        <ele>1142.18</ele>
        <time>2019-04-02T08:37:06Z</time>
      </trkpt>
      <trkpt lat="60.453" lon="7.8253">
        <ele>1140.26</ele>
        <time>2019-04-02T08:37:12Z</time>
      </trkpt>
      <trkpt lat="60.45288" lon="7.82516">
        <ele>1141.7</ele>
        <time>2019-04-02T08:37:16Z</time>
      </trkpt>
      <trkpt lat="60.45256" lon="7.82487">
        <ele>1141.22</ele>
        <time>2019-04-02T08:37:26Z</time>
      </trkpt>
      <trkpt lat="60.4524" lon="7.82471">
        <ele>1141.7</ele>
        <time>2019-04-02T08:37:33Z</time>
      </trkpt>
      <trkpt lat="60.4524" lon="7.82468">
        <ele>1142.18</ele>
        <time>2019-04-02T08:37:35Z</time>
      </trkpt>
      <trkpt lat="60.45244" lon="7.8249">
        <ele>1142.66</ele>
        <time>2019-04-02T08:37:42Z</time>
      </trkpt>
      <trkpt lat="60.45246" lon="7.82536">
        <ele>1142.66</ele>
        <time>2019-04-02T08:37:53Z</time>
      </trkpt>
      <trkpt lat="60.45237" lon="7.82608">
        <ele>1142.66</ele>
        <time>2019-04-02T08:38:03Z</time>
      </trkpt>
      <trkpt lat="60.45231" lon="7.82661">
        <ele>1143.63</ele>
        <time>2019-04-02T08:38:09Z</time>
      </trkpt>
      <trkpt lat="60.45224" lon="7.82707">
        <ele>1144.11</ele>
        <time>2019-04-02T08:38:14Z</time>
      </trkpt>
      <trkpt lat="60.45206" lon="7.82827">
        <ele>1143.14</ele>
        <time>2019-04-02T08:38:25Z</time>
      </trkpt>
      <trkpt lat="60.45204" lon="7.82847">
        <ele>1143.14</ele>
        <time>2019-04-02T08:38:27Z</time>
      </trkpt>
      <trkpt lat="60.45201" lon="7.82867">
        <ele>1143.14</ele>
        <time>2019-04-02T08:38:29Z</time>
      </trkpt>
      <trkpt lat="60.45197" lon="7.82894">
        <ele>1143.14</ele>
        <time>2019-04-02T08:38:32Z</time>
      </trkpt>
      <trkpt lat="60.4519" lon="7.82943">
        <ele>1144.11</ele>
        <time>2019-04-02T08:38:37Z</time>
      </trkpt>
      <trkpt lat="60.45185" lon="7.82978">
        <ele>1144.11</ele>
        <time>2019-04-02T08:38:40Z</time>
      </trkpt>
      <trkpt lat="60.45178" lon="7.83037">
        <ele>1144.11</ele>
        <time>2019-04-02T08:38:45Z</time>
      </trkpt>
      <trkpt lat="60.45168" lon="7.83148">
        <ele>1144.11</ele>
        <time>2019-04-02T08:38:53Z</time>
      </trkpt>
      <trkpt lat="60.45164" lon="7.83247">
        <ele>1144.11</ele>
        <time>2019-04-02T08:39:00Z</time>
      </trkpt>
      <trkpt lat="60.45162" lon="7.83271">
        <ele>1144.11</ele>
        <time>2019-04-02T08:39:02Z</time>
      </trkpt>
      <trkpt lat="60.45158" lon="7.83295">
        <ele>1141.7</ele>
        <time>2019-04-02T08:39:05Z</time>
      </trkpt>
      <trkpt lat="60.45157" lon="7.83266">
        <ele>1139.78</ele>
        <time>2019-04-02T08:39:10Z</time>
      </trkpt>
      <trkpt lat="60.45154" lon="7.83257">
        <ele>1139.78</ele>
        <time>2019-04-02T08:39:11Z</time>
      </trkpt>
      <trkpt lat="60.4512" lon="7.83212">
        <ele>1140.74</ele>
        <time>2019-04-02T08:39:18Z</time>
      </trkpt>
      <trkpt lat="60.45115" lon="7.83207">
        <ele>1140.74</ele>
        <time>2019-04-02T08:39:19Z</time>
      </trkpt>
      <trkpt lat="60.45064" lon="7.83153">
        <ele>1139.3</ele>
        <time>2019-04-02T08:39:29Z</time>
      </trkpt>
      <trkpt lat="60.45" lon="7.83096">
        <ele>1138.82</ele>
        <time>2019-04-02T08:39:43Z</time>
      </trkpt>
      <trkpt lat="60.44983" lon="7.83078">
        <ele>1140.26</ele>
        <time>2019-04-02T08:39:47Z</time>
      </trkpt>
      <trkpt lat="60.44952" lon="7.8305">
        <ele>1140.74</ele>
        <time>2019-04-02T08:39:54Z</time>
      </trkpt>
      <trkpt lat="60.44943" lon="7.83042">
        <ele>1141.22</ele>
        <time>2019-04-02T08:40:01Z</time>
      </trkpt>
      <trkpt lat="60.44942" lon="7.83061">
        <ele>1142.66</ele>
        <time>2019-04-02T08:40:03Z</time>
      </trkpt>
      <trkpt lat="60.4494" lon="7.83082">
        <ele>1142.66</ele>
        <time>2019-04-02T08:40:05Z</time>
      </trkpt>
      <trkpt lat="60.44932" lon="7.8312">
        <ele>1143.14</ele>
        <time>2019-04-02T08:40:09Z</time>
      </trkpt>
      <trkpt lat="60.44922" lon="7.83198">
        <ele>1143.14</ele>
        <time>2019-04-02T08:40:17Z</time>
      </trkpt>
      <trkpt lat="60.44911" lon="7.8328">
        <ele>1143.14</ele>
        <time>2019-04-02T08:40:25Z</time>
      </trkpt>
      <trkpt lat="60.44908" lon="7.8331">
        <ele>1143.14</ele>
        <time>2019-04-02T08:40:28Z</time>
      </trkpt>
      <trkpt lat="60.44892" lon="7.83453">
        <ele>1143.14</ele>
        <time>2019-04-02T08:40:41Z</time>
      </trkpt>
      <trkpt lat="60.44888" lon="7.83499">
        <ele>1143.14</ele>
        <time>2019-04-02T08:40:45Z</time>
      </trkpt>
      <trkpt lat="60.44873" lon="7.8357">
        <ele>1143.63</ele>
        <time>2019-04-02T08:40:52Z</time>
      </trkpt>
      <trkpt lat="60.44872" lon="7.83579">
        <ele>1142.18</ele>
        <time>2019-04-02T08:40:54Z</time>
      </trkpt>
      <trkpt lat="60.44875" lon="7.83572">
        <ele>1140.74</ele>
        <time>2019-04-02T08:40:56Z</time>
      </trkpt>
      <trkpt lat="60.44855" lon="7.83527">
        <ele>1140.26</ele>
        <time>2019-04-02T08:41:02Z</time>
      </trkpt>
      <trkpt lat="60.44851" lon="7.83522">
        <ele>1140.26</ele>
        <time>2019-04-02T08:41:03Z</time>
      </trkpt>
      <trkpt lat="60.44837" lon="7.83505">
        <ele>1140.26</ele>
        <time>2019-04-02T08:41:06Z</time>
      </trkpt>
      <trkpt lat="60.44823" lon="7.8349">
        <ele>1140.26</ele>
        <time>2019-04-02T08:41:09Z</time>
      </trkpt>
      <trkpt lat="60.44761" lon="7.83401">
        <ele>1140.26</ele>
        <time>2019-04-02T08:41:22Z</time>
      </trkpt>
      <trkpt lat="60.4474" lon="7.83376">
        <ele>1140.26</ele>
        <time>2019-04-02T08:41:26Z</time>
      </trkpt>
      <trkpt lat="60.44724" lon="7.8336">
        <ele>1140.26</ele>
        <time>2019-04-02T08:41:29Z</time>
      </trkpt>
      <trkpt lat="60.44707" lon="7.83336">
        <ele>1140.26</ele>
        <time>2019-04-02T08:41:33Z</time>
      </trkpt>
      <trkpt lat="60.44689" lon="7.83301">
        <ele>1140.26</ele>
        <time>2019-04-02T08:41:38Z</time>
      </trkpt>
      <trkpt lat="60.4468" lon="7.83288">
        <ele>1140.26</ele>
        <time>2019-04-02T08:41:40Z</time>
      </trkpt>
      <trkpt lat="60.4466" lon="7.83244">
        <ele>1140.26</ele>
        <time>2019-04-02T08:41:46Z</time>
      </trkpt>
      <trkpt lat="60.44653" lon="7.83229">
        <ele>1141.7</ele>
        <time>2019-04-02T08:41:48Z</time>
      </trkpt>
      <trkpt lat="60.44647" lon="7.83217">
        <ele>1142.66</ele>
        <time>2019-04-02T08:41:50Z</time>
      </trkpt>
      <trkpt lat="60.44641" lon="7.8321">
        <ele>1156.6</ele>
        <time>2019-04-02T08:41:52Z</time>
      </trkpt>
      <trkpt lat="60.44639" lon="7.83206">
        <ele>1142.18</ele>
        <time>2019-04-02T08:41:53Z</time>
      </trkpt>
      <trkpt lat="60.44641" lon="7.83205">
        <ele>1141.7</ele>
        <time>2019-04-02T08:42:07Z</time>
      </trkpt>
      <trkpt lat="60.44641" lon="7.83205">
        <ele>1141.7</ele>
        <time>2019-04-02T08:42:08Z</time>
      </trkpt>
      <trkpt lat="60.44641" lon="7.83207">
        <ele>1143.14</ele>
        <time>2019-04-02T08:42:13Z</time>
      </trkpt>
      <trkpt lat="60.44641" lon="7.83207">
        <ele>1139.78</ele>
        <time>2019-04-02T08:42:14Z</time>
      </trkpt>
      <trkpt lat="60.44641" lon="7.83206">
        <ele>1145.07</ele>
        <time>2019-04-02T08:42:15Z</time>
      </trkpt>
      <trkpt lat="60.44641" lon="7.83206">
        <ele>1141.7</ele>
        <time>2019-04-02T08:42:26Z</time>
      </trkpt>
      <trkpt lat="60.44643" lon="7.83205">
        <ele>1146.03</ele>
        <time>2019-04-02T08:42:30Z</time>
      </trkpt>
      <trkpt lat="60.44643" lon="7.83205">
        <ele>1138.82</ele>
        <time>2019-04-02T08:42:31Z</time>
      </trkpt>
      <trkpt lat="60.44643" lon="7.83205">
        <ele>1145.07</ele>
        <time>2019-04-02T08:42:32Z</time>
      </trkpt>
      <trkpt lat="60.44643" lon="7.83205">
        <ele>1141.7</ele>
        <time>2019-04-02T08:42:33Z</time>
      </trkpt>
      <trkpt lat="60.44641" lon="7.83196">
        <ele>1143.14</ele>
        <time>2019-04-02T08:42:50Z</time>
      </trkpt>
      <trkpt lat="60.4464" lon="7.83185">
        <ele>1141.7</ele>
        <time>2019-04-02T08:43:03Z</time>
      </trkpt>
      <trkpt lat="60.44642" lon="7.83185">
        <ele>1141.7</ele>
        <time>2019-04-02T08:43:18Z</time>
      </trkpt>
      <trkpt lat="60.44638" lon="7.83181">
        <ele>1141.7</ele>
        <time>2019-04-02T08:43:32Z</time>
      </trkpt>
      <trkpt lat="60.44634" lon="7.83176">
        <ele>1141.7</ele>
        <time>2019-04-02T08:43:44Z</time>
      </trkpt>
      <trkpt lat="60.44631" lon="7.83172">
        <ele>1141.7</ele>
        <time>2019-04-02T08:43:57Z</time>
      </trkpt>
      <trkpt lat="60.44628" lon="7.83166">
        <ele>1142.18</ele>
        <time>2019-04-02T08:44:12Z</time>
      </trkpt>
      <trkpt lat="60.44627" lon="7.83164">
        <ele>1142.18</ele>
        <time>2019-04-02T08:44:17Z</time>
      </trkpt>
      <trkpt lat="60.44622" lon="7.83136">
        <ele>1142.18</ele>
        <time>2019-04-02T08:44:25Z</time>
      </trkpt>
      <trkpt lat="60.44599" lon="7.83083">
        <ele>1142.18</ele>
        <time>2019-04-02T08:44:32Z</time>
      </trkpt>
      <trkpt lat="60.44564" lon="7.83008">
        <ele>1142.18</ele>
        <time>2019-04-02T08:44:41Z</time>
      </trkpt>
      <trkpt lat="60.44555" lon="7.8299">
        <ele>1140.74</ele>
        <time>2019-04-02T08:44:43Z</time>
      </trkpt>
      <trkpt lat="60.44535" lon="7.8295">
        <ele>1142.18</ele>
        <time>2019-04-02T08:44:48Z</time>
      </trkpt>
      <trkpt lat="60.445" lon="7.82898">
        <ele>1142.66</ele>
        <time>2019-04-02T08:44:55Z</time>
      </trkpt>
      <trkpt lat="60.44495" lon="7.82892">
        <ele>1142.66</ele>
        <time>2019-04-02T08:44:56Z</time>
      </trkpt>
      <trkpt lat="60.44444" lon="7.82809">
        <ele>1146.03</ele>
        <time>2019-04-02T08:45:08Z</time>
      </trkpt>
      <trkpt lat="60.44415" lon="7.82772">
        <ele>1148.43</ele>
        <time>2019-04-02T08:45:15Z</time>
      </trkpt>
      <trkpt lat="60.44397" lon="7.82748">
        <ele>1150.35</ele>
        <time>2019-04-02T08:45:20Z</time>
      </trkpt>
      <trkpt lat="60.4435" lon="7.82698">
        <ele>1153.24</ele>
        <time>2019-04-02T08:45:33Z</time>
      </trkpt>
      <trkpt lat="60.44318" lon="7.82649">
        <ele>1153.72</ele>
        <time>2019-04-02T08:45:42Z</time>
      </trkpt>
      <trkpt lat="60.44291" lon="7.82615">
        <ele>1153.72</ele>
        <time>2019-04-02T08:45:48Z</time>
      </trkpt>
      <trkpt lat="60.44273" lon="7.82588">
        <ele>1153.72</ele>
        <time>2019-04-02T08:45:52Z</time>
      </trkpt>
      <trkpt lat="60.44258" lon="7.82566">
        <ele>1153.72</ele>
        <time>2019-04-02T08:45:55Z</time>
      </trkpt>
      <trkpt lat="60.44232" lon="7.82521">
        <ele>1154.68</ele>
        <time>2019-04-02T08:46:01Z</time>
      </trkpt>
      <trkpt lat="60.44187" lon="7.82442">
        <ele>1158.53</ele>
        <time>2019-04-02T08:46:16Z</time>
      </trkpt>
      <trkpt lat="60.4416" lon="7.82407">
        <ele>1158.53</ele>
        <time>2019-04-02T08:46:22Z</time>
      </trkpt>
      <trkpt lat="60.44146" lon="7.82388">
        <ele>1157.08</ele>
        <time>2019-04-02T08:46:26Z</time>
      </trkpt>
      <trkpt lat="60.44139" lon="7.82379">
        <ele>1156.6</ele>
        <time>2019-04-02T08:46:28Z</time>
      </trkpt>
      <trkpt lat="60.44137" lon="7.82368">
        <ele>1156.6</ele>
        <time>2019-04-02T08:46:30Z</time>
      </trkpt>
      <trkpt lat="60.44137" lon="7.82402">
        <ele>1158.53</ele>
        <time>2019-04-02T08:46:36Z</time>
      </trkpt>
      <trkpt lat="60.44135" lon="7.82436">
        <ele>1159.01</ele>
        <time>2019-04-02T08:46:40Z</time>
      </trkpt>
      <trkpt lat="60.44129" lon="7.82519">
        <ele>1159.49</ele>
        <time>2019-04-02T08:46:48Z</time>
      </trkpt>
      <trkpt lat="60.44124" lon="7.82585">
        <ele>1160.45</ele>
        <time>2019-04-02T08:46:54Z</time>
      </trkpt>
      <trkpt lat="60.44122" lon="7.82616">
        <ele>1160.93</ele>
        <time>2019-04-02T08:46:57Z</time>
      </trkpt>
      <trkpt lat="60.44115" lon="7.82695">
        <ele>1160.93</ele>
        <time>2019-04-02T08:47:05Z</time>
      </trkpt>
      <trkpt lat="60.44113" lon="7.82725">
        <ele>1160.93</ele>
        <time>2019-04-02T08:47:08Z</time>
      </trkpt>
      <trkpt lat="60.44106" lon="7.82751">
        <ele>1160.93</ele>
        <time>2019-04-02T08:47:11Z</time>
      </trkpt>
      <trkpt lat="60.44099" lon="7.82791">
        <ele>1161.89</ele>
        <time>2019-04-02T08:47:16Z</time>
      </trkpt>
      <trkpt lat="60.4409" lon="7.82859">
        <ele>1162.85</ele>
        <time>2019-04-02T08:47:24Z</time>
      </trkpt>
      <trkpt lat="60.44085" lon="7.82888">
        <ele>1164.77</ele>
        <time>2019-04-02T08:47:27Z</time>
      </trkpt>
      <trkpt lat="60.44071" lon="7.82941">
        <ele>1164.77</ele>
        <time>2019-04-02T08:47:36Z</time>
      </trkpt>
      <trkpt lat="60.44072" lon="7.82942">
        <ele>1163.33</ele>
        <time>2019-04-02T08:47:50Z</time>
      </trkpt>
      <trkpt lat="60.44072" lon="7.82942">
        <ele>1163.33</ele>
        <time>2019-04-02T08:48:07Z</time>
      </trkpt>
      <trkpt lat="60.44067" lon="7.82888">
        <ele>1163.33</ele>
        <time>2019-04-02T08:48:15Z</time>
      </trkpt>
      <trkpt lat="60.44048" lon="7.82833">
        <ele>1164.77</ele>
        <time>2019-04-02T08:48:20Z</time>
      </trkpt>
      <trkpt lat="60.44012" lon="7.82759">
        <ele>1163.33</ele>
        <time>2019-04-02T08:48:28Z</time>
      </trkpt>
      <trkpt lat="60.43978" lon="7.82662">
        <ele>1163.33</ele>
        <time>2019-04-02T08:48:38Z</time>
      </trkpt>
      <trkpt lat="60.43971" lon="7.82643">
        <ele>1163.33</ele>
        <time>2019-04-02T08:48:40Z</time>
      </trkpt>
      <trkpt lat="60.43964" lon="7.82622">
        <ele>1163.33</ele>
        <time>2019-04-02T08:48:42Z</time>
      </trkpt>
      <trkpt lat="60.43957" lon="7.82602">
        <ele>1163.33</ele>
        <time>2019-04-02T08:48:44Z</time>
      </trkpt>
      <trkpt lat="60.43941" lon="7.82547">
        <ele>1161.89</ele>
        <time>2019-04-02T08:48:49Z</time>
      </trkpt>
      <trkpt lat="60.43928" lon="7.82496">
        <ele>1164.29</ele>
        <time>2019-04-02T08:48:53Z</time>
      </trkpt>
      <trkpt lat="60.43916" lon="7.82447">
        <ele>1164.77</ele>
        <time>2019-04-02T08:48:57Z</time>
      </trkpt>
      <trkpt lat="60.4388" lon="7.8233">
        <ele>1166.7</ele>
        <time>2019-04-02T08:49:07Z</time>
      </trkpt>
      <trkpt lat="60.43864" lon="7.82273">
        <ele>1167.18</ele>
        <time>2019-04-02T08:49:12Z</time>
      </trkpt>
      <trkpt lat="60.4386" lon="7.82251">
        <ele>1167.18</ele>
        <time>2019-04-02T08:49:14Z</time>
      </trkpt>
      <trkpt lat="60.43854" lon="7.82203">
        <ele>1168.62</ele>
        <time>2019-04-02T08:49:18Z</time>
      </trkpt>
      <trkpt lat="60.4385" lon="7.82169">
        <ele>1169.1</ele>
        <time>2019-04-02T08:49:21Z</time>
      </trkpt>
      <trkpt lat="60.43845" lon="7.82116">
        <ele>1171.5</ele>
        <time>2019-04-02T08:49:27Z</time>
      </trkpt>
      <trkpt lat="60.43844" lon="7.82103">
        <ele>1171.98</ele>
        <time>2019-04-02T08:49:29Z</time>
      </trkpt>
      <trkpt lat="60.43843" lon="7.82065">
        <ele>1174.87</ele>
        <time>2019-04-02T08:49:39Z</time>
      </trkpt>
      <trkpt lat="60.43846" lon="7.82047">
        <ele>1175.83</ele>
        <time>2019-04-02T08:49:42Z</time>
      </trkpt>
      <trkpt lat="60.43846" lon="7.82003">
        <ele>1178.71</ele>
        <time>2019-04-02T08:49:47Z</time>
      </trkpt>
      <trkpt lat="60.43845" lon="7.81968">
        <ele>1181.12</ele>
        <time>2019-04-02T08:49:52Z</time>
      </trkpt>
      <trkpt lat="60.43846" lon="7.81928">
        <ele>1184</ele>
        <time>2019-04-02T08:49:58Z</time>
      </trkpt>
      <trkpt lat="60.43847" lon="7.81893">
        <ele>1184.96</ele>
        <time>2019-04-02T08:50:02Z</time>
      </trkpt>
      <trkpt lat="60.43846" lon="7.81882">
        <ele>1185.92</ele>
        <time>2019-04-02T08:50:03Z</time>
      </trkpt>
      <trkpt lat="60.43838" lon="7.81831">
        <ele>1184.96</ele>
        <time>2019-04-02T08:50:08Z</time>
      </trkpt>
      <trkpt lat="60.43829" lon="7.81802">
        <ele>1183.52</ele>
        <time>2019-04-02T08:50:11Z</time>
      </trkpt>
      <trkpt lat="60.43819" lon="7.8178">
        <ele>1182.08</ele>
        <time>2019-04-02T08:50:14Z</time>
      </trkpt>
      <trkpt lat="60.43819" lon="7.81778">
        <ele>1184</ele>
        <time>2019-04-02T08:50:15Z</time>
      </trkpt>
      <trkpt lat="60.43823" lon="7.81778">
        <ele>1184.48</ele>
        <time>2019-04-02T08:50:22Z</time>
      </trkpt>
      <trkpt lat="60.43824" lon="7.81778">
        <ele>1184.48</ele>
        <time>2019-04-02T08:50:44Z</time>
      </trkpt>
      <trkpt lat="60.43817" lon="7.81759">
        <ele>1182.08</ele>
        <time>2019-04-02T08:50:48Z</time>
      </trkpt>
      <trkpt lat="60.43809" lon="7.81748">
        <ele>1181.6</ele>
        <time>2019-04-02T08:50:50Z</time>
      </trkpt>
      <trkpt lat="60.43805" lon="7.81743">
        <ele>1180.64</ele>
        <time>2019-04-02T08:50:51Z</time>
      </trkpt>
      <trkpt lat="60.43797" lon="7.81733">
        <ele>1179.67</ele>
        <time>2019-04-02T08:50:53Z</time>
      </trkpt>
      <trkpt lat="60.43771" lon="7.81691">
        <ele>1174.87</ele>
        <time>2019-04-02T08:50:59Z</time>
      </trkpt>
      <trkpt lat="60.43724" lon="7.81635">
        <ele>1174.39</ele>
        <time>2019-04-02T08:51:11Z</time>
      </trkpt>
      <trkpt lat="60.43713" lon="7.81617">
        <ele>1173.91</ele>
        <time>2019-04-02T08:51:15Z</time>
      </trkpt>
      <trkpt lat="60.43712" lon="7.8161">
        <ele>1172.95</ele>
        <time>2019-04-02T08:51:18Z</time>
      </trkpt>
      <trkpt lat="60.43714" lon="7.81623">
        <ele>1172.95</ele>
        <time>2019-04-02T08:51:24Z</time>
      </trkpt>
      <trkpt lat="60.43719" lon="7.81644">
        <ele>1174.87</ele>
        <time>2019-04-02T08:51:29Z</time>
      </trkpt>
      <trkpt lat="60.43719" lon="7.81656">
        <ele>1175.83</ele>
        <time>2019-04-02T08:51:31Z</time>
      </trkpt>
      <trkpt lat="60.43722" lon="7.81681">
        <ele>1178.23</ele>
        <time>2019-04-02T08:51:38Z</time>
      </trkpt>
      <trkpt lat="60.43725" lon="7.81687">
        <ele>1178.23</ele>
        <time>2019-04-02T08:51:41Z</time>
      </trkpt>
      <trkpt lat="60.43729" lon="7.81719">
        <ele>1181.6</ele>
        <time>2019-04-02T08:51:46Z</time>
      </trkpt>
      <trkpt lat="60.4373" lon="7.81727">
        <ele>1181.6</ele>
        <time>2019-04-02T08:51:47Z</time>
      </trkpt>
      <trkpt lat="60.43731" lon="7.81736">
        <ele>1182.56</ele>
        <time>2019-04-02T08:51:48Z</time>
      </trkpt>
      <trkpt lat="60.43731" lon="7.81746">
        <ele>1183.52</ele>
        <time>2019-04-02T08:51:49Z</time>
      </trkpt>
      <trkpt lat="60.43731" lon="7.81756">
        <ele>1184.48</ele>
        <time>2019-04-02T08:51:50Z</time>
      </trkpt>
      <trkpt lat="60.43731" lon="7.81766">
        <ele>1184.96</ele>
        <time>2019-04-02T08:51:51Z</time>
      </trkpt>
      <trkpt lat="60.4373" lon="7.81773">
        <ele>1185.44</ele>
        <time>2019-04-02T08:51:52Z</time>
      </trkpt>
      <trkpt lat="60.4373" lon="7.81784">
        <ele>1185.92</ele>
        <time>2019-04-02T08:51:53Z</time>
      </trkpt>
      <trkpt lat="60.4373" lon="7.81792">
        <ele>1186.4</ele>
        <time>2019-04-02T08:51:54Z</time>
      </trkpt>
      <trkpt lat="60.4373" lon="7.818">
        <ele>1186.4</ele>
        <time>2019-04-02T08:51:55Z</time>
      </trkpt>
      <trkpt lat="60.43729" lon="7.8181">
        <ele>1186.88</ele>
        <time>2019-04-02T08:51:56Z</time>
      </trkpt>
      <trkpt lat="60.43728" lon="7.8182">
        <ele>1186.88</ele>
        <time>2019-04-02T08:51:57Z</time>
      </trkpt>
      <trkpt lat="60.43726" lon="7.81828">
        <ele>1187.85</ele>
        <time>2019-04-02T08:51:58Z</time>
      </trkpt>
      <trkpt lat="60.43724" lon="7.81837">
        <ele>1188.81</ele>
        <time>2019-04-02T08:51:59Z</time>
      </trkpt>
      <trkpt lat="60.43723" lon="7.81845">
        <ele>1188.81</ele>
        <time>2019-04-02T08:52:00Z</time>
      </trkpt>
      <trkpt lat="60.43722" lon="7.81852">
        <ele>1188.81</ele>
        <time>2019-04-02T08:52:01Z</time>
      </trkpt>
      <trkpt lat="60.4372" lon="7.8186">
        <ele>1189.29</ele>
        <time>2019-04-02T08:52:02Z</time>
      </trkpt>
      <trkpt lat="60.43718" lon="7.81867">
        <ele>1189.77</ele>
        <time>2019-04-02T08:52:03Z</time>
      </trkpt>
      <trkpt lat="60.43715" lon="7.81883">
        <ele>1190.25</ele>
        <time>2019-04-02T08:52:10Z</time>
      </trkpt>
      <trkpt lat="60.43715" lon="7.81888">
        <ele>1191.21</ele>
        <time>2019-04-02T08:52:11Z</time>
      </trkpt>
      <trkpt lat="60.43714" lon="7.81891">
        <ele>1191.21</ele>
        <time>2019-04-02T08:52:12Z</time>
      </trkpt>
      <trkpt lat="60.43715" lon="7.81895">
        <ele>1191.21</ele>
        <time>2019-04-02T08:52:17Z</time>
      </trkpt>
      <trkpt lat="60.43722" lon="7.81915">
        <ele>1192.17</ele>
        <time>2019-04-02T08:52:22Z</time>
      </trkpt>
      <trkpt lat="60.43728" lon="7.81941">
        <ele>1193.13</ele>
        <time>2019-04-02T08:52:33Z</time>
      </trkpt>
      <trkpt lat="60.43728" lon="7.81939">
        <ele>1193.13</ele>
        <time>2019-04-02T08:52:39Z</time>
      </trkpt>
      <trkpt lat="60.43722" lon="7.81926">
        <ele>1191.69</ele>
        <time>2019-04-02T08:52:44Z</time>
      </trkpt>
      <trkpt lat="60.43695" lon="7.81881">
        <ele>1189.77</ele>
        <time>2019-04-02T08:52:56Z</time>
      </trkpt>
      <trkpt lat="60.43687" lon="7.81872">
        <ele>1187.85</ele>
        <time>2019-04-02T08:52:58Z</time>
      </trkpt>
      <trkpt lat="60.43666" lon="7.81855">
        <ele>1189.77</ele>
        <time>2019-04-02T08:53:03Z</time>
      </trkpt>
      <trkpt lat="60.43655" lon="7.81845">
        <ele>1187.85</ele>
        <time>2019-04-02T08:53:06Z</time>
      </trkpt>
      <trkpt lat="60.43648" lon="7.81838">
        <ele>1187.85</ele>
        <time>2019-04-02T08:53:08Z</time>
      </trkpt>
      <trkpt lat="60.43636" lon="7.8182">
        <ele>1186.88</ele>
        <time>2019-04-02T08:53:11Z</time>
      </trkpt>
      <trkpt lat="60.43626" lon="7.81809">
        <ele>1184</ele>
        <time>2019-04-02T08:53:13Z</time>
      </trkpt>
      <trkpt lat="60.43599" lon="7.81769">
        <ele>1184.96</ele>
        <time>2019-04-02T08:53:21Z</time>
      </trkpt>
      <trkpt lat="60.43584" lon="7.8175">
        <ele>1184</ele>
        <time>2019-04-02T08:53:25Z</time>
      </trkpt>
      <trkpt lat="60.43572" lon="7.81739">
        <ele>1184</ele>
        <time>2019-04-02T08:53:28Z</time>
      </trkpt>
      <trkpt lat="60.43555" lon="7.81725">
        <ele>1181.12</ele>
        <time>2019-04-02T08:53:32Z</time>
      </trkpt>
      <trkpt lat="60.43553" lon="7.81718">
        <ele>1181.12</ele>
        <time>2019-04-02T08:53:37Z</time>
      </trkpt>
      <trkpt lat="60.43555" lon="7.81724">
        <ele>1182.56</ele>
        <time>2019-04-02T08:53:47Z</time>
      </trkpt>
      <trkpt lat="60.43563" lon="7.81765">
        <ele>1185.44</ele>
        <time>2019-04-02T08:53:54Z</time>
      </trkpt>
      <trkpt lat="60.43564" lon="7.8177">
        <ele>1185.44</ele>
        <time>2019-04-02T08:53:55Z</time>
      </trkpt>
      <trkpt lat="60.43567" lon="7.81814">
        <ele>1188.33</ele>
        <time>2019-04-02T08:54:02Z</time>
      </trkpt>
      <trkpt lat="60.43568" lon="7.81818">
        <ele>1188.33</ele>
        <time>2019-04-02T08:54:03Z</time>
      </trkpt>
      <trkpt lat="60.43571" lon="7.81841">
        <ele>1190.25</ele>
        <time>2019-04-02T08:54:08Z</time>
      </trkpt>
      <trkpt lat="60.43578" lon="7.81872">
        <ele>1191.69</ele>
        <time>2019-04-02T08:54:15Z</time>
      </trkpt>
      <trkpt lat="60.43581" lon="7.81886">
        <ele>1192.65</ele>
        <time>2019-04-02T08:54:17Z</time>
      </trkpt>
      <trkpt lat="60.43585" lon="7.81917">
        <ele>1194.09</ele>
        <time>2019-04-02T08:54:21Z</time>
      </trkpt>
      <trkpt lat="60.43586" lon="7.81924">
        <ele>1195.06</ele>
        <time>2019-04-02T08:54:22Z</time>
      </trkpt>
      <trkpt lat="60.43589" lon="7.81958">
        <ele>1196.5</ele>
        <time>2019-04-02T08:54:26Z</time>
      </trkpt>
      <trkpt lat="60.43595" lon="7.82011">
        <ele>1198.42</ele>
        <time>2019-04-02T08:54:34Z</time>
      </trkpt>
      <trkpt lat="60.43605" lon="7.82043">
        <ele>1200.34</ele>
        <time>2019-04-02T08:54:41Z</time>
      </trkpt>
      <trkpt lat="60.43608" lon="7.82073">
        <ele>1203.71</ele>
        <time>2019-04-02T08:54:45Z</time>
      </trkpt>
      <trkpt lat="60.43605" lon="7.82111">
        <ele>1205.15</ele>
        <time>2019-04-02T08:54:54Z</time>
      </trkpt>
      <trkpt lat="60.43605" lon="7.82116">
        <ele>1205.15</ele>
        <time>2019-04-02T08:55:09Z</time>
      </trkpt>
      <trkpt lat="60.43607" lon="7.82104">
        <ele>1205.63</ele>
        <time>2019-04-02T08:55:34Z</time>
      </trkpt>
      <trkpt lat="60.43606" lon="7.82098">
        <ele>1203.23</ele>
        <time>2019-04-02T08:55:35Z</time>
      </trkpt>
      <trkpt lat="60.436" lon="7.82084">
        <ele>1201.79</ele>
        <time>2019-04-02T08:55:37Z</time>
      </trkpt>
      <trkpt lat="60.4359" lon="7.8207">
        <ele>1201.79</ele>
        <time>2019-04-02T08:55:39Z</time>
      </trkpt>
      <trkpt lat="60.43527" lon="7.81959">
        <ele>1197.94</ele>
        <time>2019-04-02T08:55:51Z</time>
      </trkpt>
      <trkpt lat="60.4348" lon="7.81875">
        <ele>1193.13</ele>
        <time>2019-04-02T08:55:59Z</time>
      </trkpt>
      <trkpt lat="60.43467" lon="7.81853">
        <ele>1192.17</ele>
        <time>2019-04-02T08:56:01Z</time>
      </trkpt>
      <trkpt lat="60.43447" lon="7.81818">
        <ele>1190.73</ele>
        <time>2019-04-02T08:56:04Z</time>
      </trkpt>
      <trkpt lat="60.43421" lon="7.81763">
        <ele>1195.54</ele>
        <time>2019-04-02T08:56:09Z</time>
      </trkpt>
      <trkpt lat="60.43416" lon="7.81753">
        <ele>1193.61</ele>
        <time>2019-04-02T08:56:10Z</time>
      </trkpt>
      <trkpt lat="60.43408" lon="7.81733">
        <ele>1193.13</ele>
        <time>2019-04-02T08:56:12Z</time>
      </trkpt>
      <trkpt lat="60.43398" lon="7.81713">
        <ele>1192.17</ele>
        <time>2019-04-02T08:56:14Z</time>
      </trkpt>
      <trkpt lat="60.4338" lon="7.81679">
        <ele>1192.65</ele>
        <time>2019-04-02T08:56:18Z</time>
      </trkpt>
      <trkpt lat="60.43375" lon="7.81672">
        <ele>1192.65</ele>
        <time>2019-04-02T08:56:19Z</time>
      </trkpt>
      <trkpt lat="60.43365" lon="7.81654">
        <ele>1191.21</ele>
        <time>2019-04-02T08:56:21Z</time>
      </trkpt>
      <trkpt lat="60.43357" lon="7.81637">
        <ele>1189.77</ele>
        <time>2019-04-02T08:56:23Z</time>
      </trkpt>
      <trkpt lat="60.43349" lon="7.81625">
        <ele>1190.25</ele>
        <time>2019-04-02T08:56:25Z</time>
      </trkpt>
      <trkpt lat="60.43325" lon="7.81589">
        <ele>1190.73</ele>
        <time>2019-04-02T08:56:31Z</time>
      </trkpt>
      <trkpt lat="60.43317" lon="7.81572">
        <ele>1188.33</ele>
        <time>2019-04-02T08:56:33Z</time>
      </trkpt>
      <trkpt lat="60.43307" lon="7.81558">
        <ele>1187.37</ele>
        <time>2019-04-02T08:56:35Z</time>
      </trkpt>
      <trkpt lat="60.43282" lon="7.81517">
        <ele>1184.96</ele>
        <time>2019-04-02T08:56:40Z</time>
      </trkpt>
      <trkpt lat="60.43263" lon="7.81486">
        <ele>1184.96</ele>
        <time>2019-04-02T08:56:44Z</time>
      </trkpt>
      <trkpt lat="60.43239" lon="7.81436">
        <ele>1181.6</ele>
        <time>2019-04-02T08:56:49Z</time>
      </trkpt>
      <trkpt lat="60.4323" lon="7.8141">
        <ele>1180.64</ele>
        <time>2019-04-02T08:56:51Z</time>
      </trkpt>
      <trkpt lat="60.43217" lon="7.81377">
        <ele>1184.96</ele>
        <time>2019-04-02T08:56:54Z</time>
      </trkpt>
      <trkpt lat="60.43174" lon="7.81301">
        <ele>1181.12</ele>
        <time>2019-04-02T08:57:04Z</time>
      </trkpt>
      <trkpt lat="60.43169" lon="7.81294">
        <ele>1181.12</ele>
        <time>2019-04-02T08:57:05Z</time>
      </trkpt>
      <trkpt lat="60.43149" lon="7.81265">
        <ele>1179.19</ele>
        <time>2019-04-02T08:57:09Z</time>
      </trkpt>
      <trkpt lat="60.43141" lon="7.81255">
        <ele>1181.12</ele>
        <time>2019-04-02T08:57:11Z</time>
      </trkpt>
      <trkpt lat="60.43127" lon="7.81242">
        <ele>1182.56</ele>
        <time>2019-04-02T08:57:15Z</time>
      </trkpt>
      <trkpt lat="60.43125" lon="7.81234">
        <ele>1183.52</ele>
        <time>2019-04-02T08:57:18Z</time>
      </trkpt>
      <trkpt lat="60.43129" lon="7.81249">
        <ele>1184.96</ele>
        <time>2019-04-02T08:57:21Z</time>
      </trkpt>
      <trkpt lat="60.43131" lon="7.81264">
        <ele>1185.44</ele>
        <time>2019-04-02T08:57:23Z</time>
      </trkpt>
      <trkpt lat="60.43137" lon="7.81337">
        <ele>1189.77</ele>
        <time>2019-04-02T08:57:29Z</time>
      </trkpt>
      <trkpt lat="60.43139" lon="7.81375">
        <ele>1191.21</ele>
        <time>2019-04-02T08:57:32Z</time>
      </trkpt>
      <trkpt lat="60.4314" lon="7.81435">
        <ele>1194.09</ele>
        <time>2019-04-02T08:57:37Z</time>
      </trkpt>
      <trkpt lat="60.43139" lon="7.81495">
        <ele>1198.42</ele>
        <time>2019-04-02T08:57:42Z</time>
      </trkpt>
      <trkpt lat="60.43139" lon="7.81508">
        <ele>1199.38</ele>
        <time>2019-04-02T08:57:43Z</time>
      </trkpt>
      <trkpt lat="60.43141" lon="7.81559">
        <ele>1201.3</ele>
        <time>2019-04-02T08:57:47Z</time>
      </trkpt>
      <trkpt lat="60.43146" lon="7.81614">
        <ele>1204.67</ele>
        <time>2019-04-02T08:57:51Z</time>
      </trkpt>
      <trkpt lat="60.43147" lon="7.81629">
        <ele>1204.67</ele>
        <time>2019-04-02T08:57:52Z</time>
      </trkpt>
      <trkpt lat="60.43148" lon="7.81645">
        <ele>1205.15</ele>
        <time>2019-04-02T08:57:53Z</time>
      </trkpt>
      <trkpt lat="60.4315" lon="7.81672">
        <ele>1206.11</ele>
        <time>2019-04-02T08:57:55Z</time>
      </trkpt>
      <trkpt lat="60.43152" lon="7.81733">
        <ele>1209.96</ele>
        <time>2019-04-02T08:57:59Z</time>
      </trkpt>
      <trkpt lat="60.43152" lon="7.8176">
        <ele>1211.4</ele>
        <time>2019-04-02T08:58:01Z</time>
      </trkpt>
      <trkpt lat="60.43156" lon="7.81813">
        <ele>1213.32</ele>
        <time>2019-04-02T08:58:06Z</time>
      </trkpt>
      <trkpt lat="60.43157" lon="7.81838">
        <ele>1216.21</ele>
        <time>2019-04-02T08:58:08Z</time>
      </trkpt>
      <trkpt lat="60.43159" lon="7.81908">
        <ele>1221.01</ele>
        <time>2019-04-02T08:58:13Z</time>
      </trkpt>
      <trkpt lat="60.43162" lon="7.8195">
        <ele>1223.9</ele>
        <time>2019-04-02T08:58:16Z</time>
      </trkpt>
      <trkpt lat="60.43163" lon="7.82003">
        <ele>1227.26</ele>
        <time>2019-04-02T08:58:20Z</time>
      </trkpt>
      <trkpt lat="60.43166" lon="7.82071">
        <ele>1230.62</ele>
        <time>2019-04-02T08:58:25Z</time>
      </trkpt>
      <trkpt lat="60.43167" lon="7.82085">
        <ele>1230.62</ele>
        <time>2019-04-02T08:58:26Z</time>
      </trkpt>
      <trkpt lat="60.43166" lon="7.82153">
        <ele>1233.03</ele>
        <time>2019-04-02T08:58:31Z</time>
      </trkpt>
      <trkpt lat="60.43177" lon="7.82221">
        <ele>1233.03</ele>
        <time>2019-04-02T08:58:36Z</time>
      </trkpt>
      <trkpt lat="60.43189" lon="7.82258">
        <ele>1233.99</ele>
        <time>2019-04-02T08:58:40Z</time>
      </trkpt>
      <trkpt lat="60.43202" lon="7.82299">
        <ele>1238.8</ele>
        <time>2019-04-02T08:58:46Z</time>
      </trkpt>
      <trkpt lat="60.43221" lon="7.8233">
        <ele>1238.8</ele>
        <time>2019-04-02T08:58:56Z</time>
      </trkpt>
      <trkpt lat="60.43266" lon="7.82409">
        <ele>1235.43</ele>
        <time>2019-04-02T08:59:04Z</time>
      </trkpt>
      <trkpt lat="60.43283" lon="7.82438">
        <ele>1233.03</ele>
        <time>2019-04-02T08:59:06Z</time>
      </trkpt>
      <trkpt lat="60.433" lon="7.82462">
        <ele>1231.59</ele>
        <time>2019-04-02T08:59:08Z</time>
      </trkpt>
      <trkpt lat="60.43327" lon="7.82515">
        <ele>1233.51</ele>
        <time>2019-04-02T08:59:14Z</time>
      </trkpt>
      <trkpt lat="60.43333" lon="7.82525">
        <ele>1236.39</ele>
        <time>2019-04-02T08:59:19Z</time>
      </trkpt>
      <trkpt lat="60.43336" lon="7.82529">
        <ele>1236.39</ele>
        <time>2019-04-02T08:59:23Z</time>
      </trkpt>
      <trkpt lat="60.43346" lon="7.82537">
        <ele>1236.87</ele>
        <time>2019-04-02T08:59:36Z</time>
      </trkpt>
      <trkpt lat="60.43346" lon="7.82538">
        <ele>1235.91</ele>
        <time>2019-04-02T08:59:53Z</time>
      </trkpt>
      <trkpt lat="60.43349" lon="7.82538">
        <ele>1235.91</ele>
        <time>2019-04-02T09:00:02Z</time>
      </trkpt>
      <trkpt lat="60.43349" lon="7.82523">
        <ele>1232.07</ele>
        <time>2019-04-02T09:00:08Z</time>
      </trkpt>
      <trkpt lat="60.43349" lon="7.82519">
        <ele>1232.07</ele>
        <time>2019-04-02T09:00:09Z</time>
      </trkpt>
      <trkpt lat="60.43336" lon="7.82484">
        <ele>1228.22</ele>
        <time>2019-04-02T09:00:15Z</time>
      </trkpt>
      <trkpt lat="60.43333" lon="7.82476">
        <ele>1228.22</ele>
        <time>2019-04-02T09:00:16Z</time>
      </trkpt>
      <trkpt lat="60.43323" lon="7.82448">
        <ele>1227.74</ele>
        <time>2019-04-02T09:00:19Z</time>
      </trkpt>
      <trkpt lat="60.43316" lon="7.82422">
        <ele>1226.3</ele>
        <time>2019-04-02T09:00:21Z</time>
      </trkpt>
      <trkpt lat="60.43299" lon="7.82368">
        <ele>1226.3</ele>
        <time>2019-04-02T09:00:26Z</time>
      </trkpt>
      <trkpt lat="60.43281" lon="7.82333">
        <ele>1230.62</ele>
        <time>2019-04-02T09:00:30Z</time>
      </trkpt>
      <trkpt lat="60.43278" lon="7.82328">
        <ele>1230.62</ele>
        <time>2019-04-02T09:00:31Z</time>
      </trkpt>
      <trkpt lat="60.43267" lon="7.82311">
        <ele>1233.03</ele>
        <time>2019-04-02T09:00:35Z</time>
      </trkpt>
      <trkpt lat="60.43264" lon="7.82306">
        <ele>1235.91</ele>
        <time>2019-04-02T09:00:39Z</time>
      </trkpt>
      <trkpt lat="60.4326" lon="7.82294">
        <ele>1236.87</ele>
        <time>2019-04-02T09:00:53Z</time>
      </trkpt>
      <trkpt lat="60.43261" lon="7.82288">
        <ele>1237.83</ele>
        <time>2019-04-02T09:01:06Z</time>
      </trkpt>
      <trkpt lat="60.43266" lon="7.82277">
        <ele>1237.83</ele>
        <time>2019-04-02T09:01:11Z</time>
      </trkpt>
      <trkpt lat="60.43286" lon="7.82298">
        <ele>1234.47</ele>
        <time>2019-04-02T09:01:17Z</time>
      </trkpt>
      <trkpt lat="60.43298" lon="7.82288">
        <ele>1231.59</ele>
        <time>2019-04-02T09:01:20Z</time>
      </trkpt>
      <trkpt lat="60.43313" lon="7.82254">
        <ele>1230.62</ele>
        <time>2019-04-02T09:01:24Z</time>
      </trkpt>
      <trkpt lat="60.43324" lon="7.82229">
        <ele>1229.66</ele>
        <time>2019-04-02T09:01:30Z</time>
      </trkpt>
      <trkpt lat="60.43323" lon="7.82219">
        <ele>1229.66</ele>
        <time>2019-04-02T09:01:39Z</time>
      </trkpt>
      <trkpt lat="60.43319" lon="7.82192">
        <ele>1230.62</ele>
        <time>2019-04-02T09:01:53Z</time>
      </trkpt>
      <trkpt lat="60.43319" lon="7.82189">
        <ele>1229.66</ele>
        <time>2019-04-02T09:02:05Z</time>
      </trkpt>
      <trkpt lat="60.43317" lon="7.82183">
        <ele>1230.62</ele>
        <time>2019-04-02T09:02:11Z</time>
      </trkpt>
      <trkpt lat="60.43318" lon="7.82181">
        <ele>1230.62</ele>
        <time>2019-04-02T09:02:14Z</time>
      </trkpt>
      <trkpt lat="60.43314" lon="7.82165">
        <ele>1230.62</ele>
        <time>2019-04-02T09:02:18Z</time>
      </trkpt>
      <trkpt lat="60.43309" lon="7.8215">
        <ele>1229.66</ele>
        <time>2019-04-02T09:02:20Z</time>
      </trkpt>
      <trkpt lat="60.43302" lon="7.82131">
        <ele>1225.82</ele>
        <time>2019-04-02T09:02:22Z</time>
      </trkpt>
      <trkpt lat="60.43294" lon="7.82111">
        <ele>1223.42</ele>
        <time>2019-04-02T09:02:24Z</time>
      </trkpt>
      <trkpt lat="60.43284" lon="7.82079">
        <ele>1221.01</ele>
        <time>2019-04-02T09:02:27Z</time>
      </trkpt>
      <trkpt lat="60.43276" lon="7.82061">
        <ele>1222.93</ele>
        <time>2019-04-02T09:02:29Z</time>
      </trkpt>
      <trkpt lat="60.43272" lon="7.82053">
        <ele>1222.93</ele>
        <time>2019-04-02T09:02:30Z</time>
      </trkpt>
      <trkpt lat="60.43261" lon="7.82024">
        <ele>1218.13</ele>
        <time>2019-04-02T09:02:33Z</time>
      </trkpt>
      <trkpt lat="60.43239" lon="7.81967">
        <ele>1217.17</ele>
        <time>2019-04-02T09:02:39Z</time>
      </trkpt>
      <trkpt lat="60.43226" lon="7.81936">
        <ele>1216.21</ele>
        <time>2019-04-02T09:02:42Z</time>
      </trkpt>
      <trkpt lat="60.43219" lon="7.81921">
        <ele>1218.13</ele>
        <time>2019-04-02T09:02:44Z</time>
      </trkpt>
      <trkpt lat="60.432" lon="7.81892">
        <ele>1213.8</ele>
        <time>2019-04-02T09:02:49Z</time>
      </trkpt>
      <trkpt lat="60.4319" lon="7.8188">
        <ele>1212.36</ele>
        <time>2019-04-02T09:02:51Z</time>
      </trkpt>
      <trkpt lat="60.43154" lon="7.81834">
        <ele>1209.96</ele>
        <time>2019-04-02T09:02:58Z</time>
      </trkpt>
      <trkpt lat="60.43141" lon="7.81814">
        <ele>1213.32</ele>
        <time>2019-04-02T09:03:01Z</time>
      </trkpt>
      <trkpt lat="60.43137" lon="7.81807">
        <ele>1213.32</ele>
        <time>2019-04-02T09:03:02Z</time>
      </trkpt>
      <trkpt lat="60.43133" lon="7.81799">
        <ele>1213.32</ele>
        <time>2019-04-02T09:03:03Z</time>
      </trkpt>
      <trkpt lat="60.431" lon="7.81759">
        <ele>1209.48</ele>
        <time>2019-04-02T09:03:11Z</time>
      </trkpt>
      <trkpt lat="60.43091" lon="7.81747">
        <ele>1208.03</ele>
        <time>2019-04-02T09:03:13Z</time>
      </trkpt>
      <trkpt lat="60.43081" lon="7.81735">
        <ele>1207.55</ele>
        <time>2019-04-02T09:03:15Z</time>
      </trkpt>
      <trkpt lat="60.4306" lon="7.81702">
        <ele>1205.15</ele>
        <time>2019-04-02T09:03:20Z</time>
      </trkpt>
      <trkpt lat="60.43044" lon="7.81664">
        <ele>1202.75</ele>
        <time>2019-04-02T09:03:24Z</time>
      </trkpt>
      <trkpt lat="60.43037" lon="7.81642">
        <ele>1199.86</ele>
        <time>2019-04-02T09:03:26Z</time>
      </trkpt>
      <trkpt lat="60.43034" lon="7.81632">
        <ele>1202.27</ele>
        <time>2019-04-02T09:03:27Z</time>
      </trkpt>
      <trkpt lat="60.4303" lon="7.81612">
        <ele>1203.23</ele>
        <time>2019-04-02T09:03:29Z</time>
      </trkpt>
      <trkpt lat="60.43025" lon="7.81592">
        <ele>1204.19</ele>
        <time>2019-04-02T09:03:31Z</time>
      </trkpt>
      <trkpt lat="60.43012" lon="7.81561">
        <ele>1202.27</ele>
        <time>2019-04-02T09:03:35Z</time>
      </trkpt>
      <trkpt lat="60.43008" lon="7.81554">
        <ele>1201.3</ele>
        <time>2019-04-02T09:03:36Z</time>
      </trkpt>
      <trkpt lat="60.42995" lon="7.81525">
        <ele>1195.54</ele>
        <time>2019-04-02T09:03:39Z</time>
      </trkpt>
      <trkpt lat="60.42963" lon="7.81451">
        <ele>1197.46</ele>
        <time>2019-04-02T09:03:47Z</time>
      </trkpt>
      <trkpt lat="60.42954" lon="7.81433">
        <ele>1195.54</ele>
        <time>2019-04-02T09:03:49Z</time>
      </trkpt>
      <trkpt lat="60.42936" lon="7.81408">
        <ele>1192.17</ele>
        <time>2019-04-02T09:03:53Z</time>
      </trkpt>
      <trkpt lat="60.42932" lon="7.81401">
        <ele>1192.17</ele>
        <time>2019-04-02T09:03:54Z</time>
      </trkpt>
      <trkpt lat="60.42918" lon="7.81377">
        <ele>1193.61</ele>
        <time>2019-04-02T09:03:58Z</time>
      </trkpt>
      <trkpt lat="60.42904" lon="7.81346">
        <ele>1191.21</ele>
        <time>2019-04-02T09:04:04Z</time>
      </trkpt>
      <trkpt lat="60.42894" lon="7.81318">
        <ele>1186.4</ele>
        <time>2019-04-02T09:04:07Z</time>
      </trkpt>
      <trkpt lat="60.42877" lon="7.81264">
        <ele>1182.08</ele>
        <time>2019-04-02T09:04:11Z</time>
      </trkpt>
      <trkpt lat="60.42872" lon="7.81247">
        <ele>1182.08</ele>
        <time>2019-04-02T09:04:12Z</time>
      </trkpt>
      <trkpt lat="60.42862" lon="7.81212">
        <ele>1180.64</ele>
        <time>2019-04-02T09:04:14Z</time>
      </trkpt>
      <trkpt lat="60.4285" lon="7.81159">
        <ele>1175.83</ele>
        <time>2019-04-02T09:04:17Z</time>
      </trkpt>
      <trkpt lat="60.42835" lon="7.81081">
        <ele>1179.19</ele>
        <time>2019-04-02T09:04:22Z</time>
      </trkpt>
      <trkpt lat="60.42828" lon="7.81049">
        <ele>1181.12</ele>
        <time>2019-04-02T09:04:25Z</time>
      </trkpt>
      <trkpt lat="60.4282" lon="7.81017">
        <ele>1183.52</ele>
        <time>2019-04-02T09:04:29Z</time>
      </trkpt>
      <trkpt lat="60.42813" lon="7.80999">
        <ele>1184.96</ele>
        <time>2019-04-02T09:04:32Z</time>
      </trkpt>
      <trkpt lat="60.42805" lon="7.80982">
        <ele>1184</ele>
        <time>2019-04-02T09:04:35Z</time>
      </trkpt>
      <trkpt lat="60.4279" lon="7.80954">
        <ele>1182.56</ele>
        <time>2019-04-02T09:04:40Z</time>
      </trkpt>
      <trkpt lat="60.42779" lon="7.8092">
        <ele>1178.71</ele>
        <time>2019-04-02T09:04:44Z</time>
      </trkpt>
      <trkpt lat="60.42776" lon="7.80912">
        <ele>1180.64</ele>
        <time>2019-04-02T09:04:45Z</time>
      </trkpt>
      <trkpt lat="60.4277" lon="7.80892">
        <ele>1177.75</ele>
        <time>2019-04-02T09:04:47Z</time>
      </trkpt>
      <trkpt lat="60.42763" lon="7.80869">
        <ele>1176.31</ele>
        <time>2019-04-02T09:04:49Z</time>
      </trkpt>
      <trkpt lat="60.4275" lon="7.80811">
        <ele>1171.5</ele>
        <time>2019-04-02T09:04:53Z</time>
      </trkpt>
      <trkpt lat="60.42748" lon="7.80795">
        <ele>1171.5</ele>
        <time>2019-04-02T09:04:54Z</time>
      </trkpt>
      <trkpt lat="60.42733" lon="7.80715">
        <ele>1167.18</ele>
        <time>2019-04-02T09:04:59Z</time>
      </trkpt>
      <trkpt lat="60.42727" lon="7.80682">
        <ele>1166.22</ele>
        <time>2019-04-02T09:05:01Z</time>
      </trkpt>
      <trkpt lat="60.42723" lon="7.80646">
        <ele>1165.26</ele>
        <time>2019-04-02T09:05:03Z</time>
      </trkpt>
      <trkpt lat="60.42714" lon="7.80593">
        <ele>1163.33</ele>
        <time>2019-04-02T09:05:06Z</time>
      </trkpt>
      <trkpt lat="60.42705" lon="7.80546">
        <ele>1161.89</ele>
        <time>2019-04-02T09:05:09Z</time>
      </trkpt>
      <trkpt lat="60.42689" lon="7.80482">
        <ele>1160.93</ele>
        <time>2019-04-02T09:05:14Z</time>
      </trkpt>
      <trkpt lat="60.42684" lon="7.80456">
        <ele>1162.85</ele>
        <time>2019-04-02T09:05:16Z</time>
      </trkpt>
      <trkpt lat="60.42679" lon="7.80432">
        <ele>1163.81</ele>
        <time>2019-04-02T09:05:18Z</time>
      </trkpt>
      <trkpt lat="60.42671" lon="7.80386">
        <ele>1163.33</ele>
        <time>2019-04-02T09:05:22Z</time>
      </trkpt>
      <trkpt lat="60.42666" lon="7.80367">
        <ele>1165.74</ele>
        <time>2019-04-02T09:05:24Z</time>
      </trkpt>
      <trkpt lat="60.42656" lon="7.80346">
        <ele>1165.74</ele>
        <time>2019-04-02T09:05:27Z</time>
      </trkpt>
      <trkpt lat="60.42647" lon="7.80336">
        <ele>1162.85</ele>
        <time>2019-04-02T09:05:29Z</time>
      </trkpt>
      <trkpt lat="60.4263" lon="7.8031">
        <ele>1158.53</ele>
        <time>2019-04-02T09:05:33Z</time>
      </trkpt>
      <trkpt lat="60.42626" lon="7.80302">
        <ele>1158.53</ele>
        <time>2019-04-02T09:05:34Z</time>
      </trkpt>
      <trkpt lat="60.42612" lon="7.8027">
        <ele>1159.97</ele>
        <time>2019-04-02T09:05:38Z</time>
      </trkpt>
      <trkpt lat="60.42609" lon="7.80262">
        <ele>1159.97</ele>
        <time>2019-04-02T09:05:39Z</time>
      </trkpt>
      <trkpt lat="60.42598" lon="7.80238">
        <ele>1158.53</ele>
        <time>2019-04-02T09:05:42Z</time>
      </trkpt>
      <trkpt lat="60.42582" lon="7.80202">
        <ele>1156.6</ele>
        <time>2019-04-02T09:05:46Z</time>
      </trkpt>
      <trkpt lat="60.42573" lon="7.80185">
        <ele>1153.24</ele>
        <time>2019-04-02T09:05:48Z</time>
      </trkpt>
      <trkpt lat="60.42557" lon="7.80149">
        <ele>1153.72</ele>
        <time>2019-04-02T09:05:53Z</time>
      </trkpt>
      <trkpt lat="60.42557" lon="7.80134">
        <ele>1156.12</ele>
        <time>2019-04-02T09:05:56Z</time>
      </trkpt>
      <trkpt lat="60.42559" lon="7.8012">
        <ele>1155.16</ele>
        <time>2019-04-02T09:06:00Z</time>
      </trkpt>
      <trkpt lat="60.42556" lon="7.8007">
        <ele>1151.32</ele>
        <time>2019-04-02T09:06:10Z</time>
      </trkpt>
      <trkpt lat="60.42555" lon="7.80033">
        <ele>1151.8</ele>
        <time>2019-04-02T09:06:14Z</time>
      </trkpt>
      <trkpt lat="60.42555" lon="7.80024">
        <ele>1151.32</ele>
        <time>2019-04-02T09:06:15Z</time>
      </trkpt>
      <trkpt lat="60.42557" lon="7.80002">
        <ele>1150.35</ele>
        <time>2019-04-02T09:06:17Z</time>
      </trkpt>
      <trkpt lat="60.42554" lon="7.79966">
        <ele>1149.39</ele>
        <time>2019-04-02T09:06:21Z</time>
      </trkpt>
      <trkpt lat="60.42551" lon="7.79955">
        <ele>1150.35</ele>
        <time>2019-04-02T09:06:23Z</time>
      </trkpt>
      <trkpt lat="60.42549" lon="7.79948">
        <ele>1150.84</ele>
        <time>2019-04-02T09:06:24Z</time>
      </trkpt>
      <trkpt lat="60.42545" lon="7.79927">
        <ele>1148.91</ele>
        <time>2019-04-02T09:06:27Z</time>
      </trkpt>
      <trkpt lat="60.42541" lon="7.79889">
        <ele>1148.91</ele>
        <time>2019-04-02T09:06:32Z</time>
      </trkpt>
      <trkpt lat="60.42524" lon="7.79824">
        <ele>1146.51</ele>
        <time>2019-04-02T09:06:39Z</time>
      </trkpt>
      <trkpt lat="60.42507" lon="7.79782">
        <ele>1145.55</ele>
        <time>2019-04-02T09:06:46Z</time>
      </trkpt>
      <trkpt lat="60.42507" lon="7.79779">
        <ele>1146.99</ele>
        <time>2019-04-02T09:06:48Z</time>
      </trkpt>
      <trkpt lat="60.42505" lon="7.79776">
        <ele>1147.47</ele>
        <time>2019-04-02T09:06:58Z</time>
      </trkpt>
      <trkpt lat="60.42504" lon="7.79767">
        <ele>1146.03</ele>
        <time>2019-04-02T09:07:01Z</time>
      </trkpt>
      <trkpt lat="60.42501" lon="7.79747">
        <ele>1146.03</ele>
        <time>2019-04-02T09:07:12Z</time>
      </trkpt>
      <trkpt lat="60.425" lon="7.79744">
        <ele>1147.47</ele>
        <time>2019-04-02T09:07:25Z</time>
      </trkpt>
      <trkpt lat="60.425" lon="7.79743">
        <ele>1147.47</ele>
        <time>2019-04-02T09:07:28Z</time>
      </trkpt>
      <trkpt lat="60.42502" lon="7.79734">
        <ele>1147.47</ele>
        <time>2019-04-02T09:07:32Z</time>
      </trkpt>
      <trkpt lat="60.42521" lon="7.79713">
        <ele>1147.47</ele>
        <time>2019-04-02T09:07:45Z</time>
      </trkpt>
      <trkpt lat="60.42522" lon="7.7971">
        <ele>1147.47</ele>
        <time>2019-04-02T09:07:53Z</time>
      </trkpt>
      <trkpt lat="60.42525" lon="7.79704">
        <ele>1147.47</ele>
        <time>2019-04-02T09:07:57Z</time>
      </trkpt>
      <trkpt lat="60.42529" lon="7.79689">
        <ele>1146.03</ele>
        <time>2019-04-02T09:08:04Z</time>
      </trkpt>
      <trkpt lat="60.42533" lon="7.79651">
        <ele>1145.55</ele>
        <time>2019-04-02T09:08:12Z</time>
      </trkpt>
      <trkpt lat="60.42532" lon="7.79645">
        <ele>1146.03</ele>
        <time>2019-04-02T09:08:24Z</time>
      </trkpt>
      <trkpt lat="60.42531" lon="7.79645">
        <ele>1144.11</ele>
        <time>2019-04-02T09:08:26Z</time>
      </trkpt>
      <trkpt lat="60.42533" lon="7.79639">
        <ele>1145.07</ele>
        <time>2019-04-02T09:08:29Z</time>
      </trkpt>
      <trkpt lat="60.42534" lon="7.79638">
        <ele>1145.55</ele>
        <time>2019-04-02T09:08:37Z</time>
      </trkpt>
      <trkpt lat="60.42535" lon="7.79636">
        <ele>1143.63</ele>
        <time>2019-04-02T09:08:40Z</time>
      </trkpt>
      <trkpt lat="60.42536" lon="7.79636">
        <ele>1144.59</ele>
        <time>2019-04-02T09:08:44Z</time>
      </trkpt>
      <trkpt lat="60.42541" lon="7.79627">
        <ele>1143.63</ele>
        <time>2019-04-02T09:08:51Z</time>
      </trkpt>
      <trkpt lat="60.4254" lon="7.79625">
        <ele>1143.63</ele>
        <time>2019-04-02T09:08:55Z</time>
      </trkpt>
      <trkpt lat="60.42539" lon="7.79621">
        <ele>1143.63</ele>
        <time>2019-04-02T09:08:57Z</time>
      </trkpt>
      <trkpt lat="60.42535" lon="7.79611">
        <ele>1144.59</ele>
        <time>2019-04-02T09:09:01Z</time>
      </trkpt>
      <trkpt lat="60.42534" lon="7.79609">
        <ele>1144.59</ele>
        <time>2019-04-02T09:09:02Z</time>
      </trkpt>
      <trkpt lat="60.42532" lon="7.79606">
        <ele>1142.18</ele>
        <time>2019-04-02T09:09:06Z</time>
      </trkpt>
      <trkpt lat="60.42532" lon="7.79606">
        <ele>1142.18</ele>
        <time>2019-04-02T09:09:07Z</time>
      </trkpt>
      <trkpt lat="60.42533" lon="7.79606">
        <ele>1145.55</ele>
        <time>2019-04-02T09:09:10Z</time>
      </trkpt>
      <trkpt lat="60.42532" lon="7.79607">
        <ele>1145.55</ele>
        <time>2019-04-02T09:09:11Z</time>
      </trkpt>
      <trkpt lat="60.42532" lon="7.79604">
        <ele>1145.55</ele>
        <time>2019-04-02T09:09:13Z</time>
      </trkpt>
      <trkpt lat="60.42536" lon="7.79599">
        <ele>1144.11</ele>
        <time>2019-04-02T09:09:17Z</time>
      </trkpt>
      <trkpt lat="60.42534" lon="7.79614">
        <ele>1143.14</ele>
        <time>2019-04-02T09:09:24Z</time>
      </trkpt>
      <trkpt lat="60.42535" lon="7.79614">
        <ele>1143.14</ele>
        <time>2019-04-02T09:09:39Z</time>
      </trkpt>
      <trkpt lat="60.42536" lon="7.79614">
        <ele>1143.14</ele>
        <time>2019-04-02T09:10:01Z</time>
      </trkpt>
      <trkpt lat="60.42535" lon="7.79616">
        <ele>1145.07</ele>
        <time>2019-04-02T09:10:07Z</time>
      </trkpt>
      <trkpt lat="60.42535" lon="7.79619">
        <ele>1143.63</ele>
        <time>2019-04-02T09:10:18Z</time>
      </trkpt>
      <trkpt lat="60.42534" lon="7.79619">
        <ele>1143.63</ele>
        <time>2019-04-02T09:10:30Z</time>
      </trkpt>
      <trkpt lat="60.42529" lon="7.79622">
        <ele>1145.07</ele>
        <time>2019-04-02T09:10:33Z</time>
      </trkpt>
      <trkpt lat="60.42521" lon="7.79625">
        <ele>1146.03</ele>
        <time>2019-04-02T09:10:39Z</time>
      </trkpt>
      <trkpt lat="60.42522" lon="7.7963">
        <ele>1144.59</ele>
        <time>2019-04-02T09:10:42Z</time>
      </trkpt>
      <trkpt lat="60.42525" lon="7.79637">
        <ele>1143.63</ele>
        <time>2019-04-02T09:10:52Z</time>
      </trkpt>
      <trkpt lat="60.42526" lon="7.79636">
        <ele>1143.14</ele>
        <time>2019-04-02T09:11:05Z</time>
      </trkpt>
      <trkpt lat="60.42527" lon="7.79636">
        <ele>1143.14</ele>
        <time>2019-04-02T09:11:23Z</time>
      </trkpt>
      <trkpt lat="60.42526" lon="7.79636">
        <ele>1143.14</ele>
        <time>2019-04-02T09:11:52Z</time>
      </trkpt>
      <trkpt lat="60.42525" lon="7.79635">
        <ele>1143.14</ele>
        <time>2019-04-02T09:12:26Z</time>
      </trkpt>
      <trkpt lat="60.42526" lon="7.79636">
        <ele>1143.14</ele>
        <time>2019-04-02T09:12:56Z</time>
      </trkpt>
      <trkpt lat="60.42528" lon="7.79636">
        <ele>1143.14</ele>
        <time>2019-04-02T09:13:32Z</time>
      </trkpt>
      <trkpt lat="60.42526" lon="7.79634">
        <ele>1143.14</ele>
        <time>2019-04-02T09:14:06Z</time>
      </trkpt>
      <trkpt lat="60.42525" lon="7.79634">
        <ele>1143.14</ele>
        <time>2019-04-02T09:14:34Z</time>
      </trkpt>
      <trkpt lat="60.42524" lon="7.79632">
        <ele>1143.14</ele>
        <time>2019-04-02T09:15:03Z</time>
      </trkpt>
      <trkpt lat="60.42523" lon="7.79632">
        <ele>1143.14</ele>
        <time>2019-04-02T09:15:37Z</time>
      </trkpt>
      <trkpt lat="60.42524" lon="7.79633">
        <ele>1143.14</ele>
        <time>2019-04-02T09:16:11Z</time>
      </trkpt>
      <trkpt lat="60.42524" lon="7.79632">
        <ele>1143.14</ele>
        <time>2019-04-02T09:16:45Z</time>
      </trkpt>
      <trkpt lat="60.42526" lon="7.79632">
        <ele>1143.14</ele>
        <time>2019-04-02T09:17:30Z</time>
      </trkpt>
      <trkpt lat="60.42526" lon="7.79633">
        <ele>1143.63</ele>
        <time>2019-04-02T09:18:04Z</time>
      </trkpt>
      <trkpt lat="60.42526" lon="7.79633">
        <ele>1142.18</ele>
        <time>2019-04-02T09:18:36Z</time>
      </trkpt>
      <trkpt lat="60.42525" lon="7.79633">
        <ele>1142.18</ele>
        <time>2019-04-02T09:19:07Z</time>
      </trkpt>
      <trkpt lat="60.42525" lon="7.79634">
        <ele>1142.18</ele>
        <time>2019-04-02T09:19:45Z</time>
      </trkpt>
      <trkpt lat="60.42525" lon="7.79634">
        <ele>1142.66</ele>
        <time>2019-04-02T09:20:19Z</time>
      </trkpt>
      <trkpt lat="60.42526" lon="7.79633">
        <ele>1142.66</ele>
        <time>2019-04-02T09:21:03Z</time>
      </trkpt>
      <trkpt lat="60.42524" lon="7.79634">
        <ele>1142.66</ele>
        <time>2019-04-02T09:21:49Z</time>
      </trkpt>
      <trkpt lat="60.42524" lon="7.79634">
        <ele>1142.66</ele>
        <time>2019-04-02T09:22:22Z</time>
      </trkpt>
      <trkpt lat="60.42524" lon="7.79634">
        <ele>1142.66</ele>
        <time>2019-04-02T09:22:51Z</time>
      </trkpt>
      <trkpt lat="60.42527" lon="7.79633">
        <ele>1145.07</ele>
        <time>2019-04-02T09:22:54Z</time>
      </trkpt>
      <trkpt lat="60.42527" lon="7.79631">
        <ele>1143.63</ele>
        <time>2019-04-02T09:22:57Z</time>
      </trkpt>
      <trkpt lat="60.42527" lon="7.79634">
        <ele>1150.84</ele>
        <time>2019-04-02T09:23:01Z</time>
      </trkpt>
      <trkpt lat="60.42523" lon="7.79644">
        <ele>1144.11</ele>
        <time>2019-04-02T09:23:15Z</time>
      </trkpt>
      <trkpt lat="60.42523" lon="7.79645">
        <ele>1144.11</ele>
        <time>2019-04-02T09:23:21Z</time>
      </trkpt>
      <trkpt lat="60.42526" lon="7.79642">
        <ele>1144.11</ele>
        <time>2019-04-02T09:23:26Z</time>
      </trkpt>
      <trkpt lat="60.4253" lon="7.79654">
        <ele>1144.11</ele>
        <time>2019-04-02T09:23:30Z</time>
      </trkpt>
      <trkpt lat="60.42532" lon="7.79662">
        <ele>1144.11</ele>
        <time>2019-04-02T09:23:38Z</time>
      </trkpt>
      <trkpt lat="60.42545" lon="7.79695">
        <ele>1144.11</ele>
        <time>2019-04-02T09:23:48Z</time>
      </trkpt>
      <trkpt lat="60.42547" lon="7.79701">
        <ele>1144.11</ele>
        <time>2019-04-02T09:23:49Z</time>
      </trkpt>
      <trkpt lat="60.42549" lon="7.79703">
        <ele>1144.11</ele>
        <time>2019-04-02T09:23:54Z</time>
      </trkpt>
      <trkpt lat="60.42548" lon="7.79695">
        <ele>1143.63</ele>
        <time>2019-04-02T09:24:00Z</time>
      </trkpt>
      <trkpt lat="60.42549" lon="7.79665">
        <ele>1143.63</ele>
        <time>2019-04-02T09:24:09Z</time>
      </trkpt>
      <trkpt lat="60.42549" lon="7.79658">
        <ele>1143.63</ele>
        <time>2019-04-02T09:24:11Z</time>
      </trkpt>
      <trkpt lat="60.42546" lon="7.79624">
        <ele>1143.14</ele>
        <time>2019-04-02T09:24:22Z</time>
      </trkpt>
      <trkpt lat="60.42546" lon="7.79624">
        <ele>1143.14</ele>
        <time>2019-04-02T09:24:23Z</time>
      </trkpt>
      <trkpt lat="60.42544" lon="7.79599">
        <ele>1143.14</ele>
        <time>2019-04-02T09:24:27Z</time>
      </trkpt>
      <trkpt lat="60.42532" lon="7.79545">
        <ele>1143.14</ele>
        <time>2019-04-02T09:24:37Z</time>
      </trkpt>
      <trkpt lat="60.42522" lon="7.79499">
        <ele>1143.14</ele>
        <time>2019-04-02T09:24:46Z</time>
      </trkpt>
      <trkpt lat="60.42509" lon="7.79448">
        <ele>1143.14</ele>
        <time>2019-04-02T09:24:55Z</time>
      </trkpt>
      <trkpt lat="60.42506" lon="7.79435">
        <ele>1143.14</ele>
        <time>2019-04-02T09:25:00Z</time>
      </trkpt>
      <trkpt lat="60.42506" lon="7.79407">
        <ele>1143.14</ele>
        <time>2019-04-02T09:25:11Z</time>
      </trkpt>
      <trkpt lat="60.42505" lon="7.79405">
        <ele>1143.14</ele>
        <time>2019-04-02T09:25:18Z</time>
      </trkpt>
      <trkpt lat="60.42503" lon="7.79389">
        <ele>1143.14</ele>
        <time>2019-04-02T09:25:30Z</time>
      </trkpt>
      <trkpt lat="60.42501" lon="7.79357">
        <ele>1143.14</ele>
        <time>2019-04-02T09:25:40Z</time>
      </trkpt>
      <trkpt lat="60.42498" lon="7.7932">
        <ele>1143.14</ele>
        <time>2019-04-02T09:25:49Z</time>
      </trkpt>
      <trkpt lat="60.42498" lon="7.79317">
        <ele>1143.14</ele>
        <time>2019-04-02T09:25:58Z</time>
      </trkpt>
      <trkpt lat="60.42486" lon="7.79276">
        <ele>1143.14</ele>
        <time>2019-04-02T09:26:07Z</time>
      </trkpt>
      <trkpt lat="60.42486" lon="7.79275">
        <ele>1143.14</ele>
        <time>2019-04-02T09:26:08Z</time>
      </trkpt>
      <trkpt lat="60.42477" lon="7.79235">
        <ele>1143.14</ele>
        <time>2019-04-02T09:26:14Z</time>
      </trkpt>
      <trkpt lat="60.42469" lon="7.79207">
        <ele>1143.14</ele>
        <time>2019-04-02T09:26:17Z</time>
      </trkpt>
      <trkpt lat="60.42456" lon="7.79161">
        <ele>1143.14</ele>
        <time>2019-04-02T09:26:26Z</time>
      </trkpt>
      <trkpt lat="60.4245" lon="7.79138">
        <ele>1143.14</ele>
        <time>2019-04-02T09:26:30Z</time>
      </trkpt>
      <trkpt lat="60.4244" lon="7.79108">
        <ele>1143.14</ele>
        <time>2019-04-02T09:26:34Z</time>
      </trkpt>
      <trkpt lat="60.42423" lon="7.79054">
        <ele>1144.11</ele>
        <time>2019-04-02T09:26:40Z</time>
      </trkpt>
      <trkpt lat="60.42415" lon="7.79037">
        <ele>1142.66</ele>
        <time>2019-04-02T09:26:42Z</time>
      </trkpt>
      <trkpt lat="60.42405" lon="7.79024">
        <ele>1144.11</ele>
        <time>2019-04-02T09:26:44Z</time>
      </trkpt>
      <trkpt lat="60.42389" lon="7.78994">
        <ele>1142.66</ele>
        <time>2019-04-02T09:26:48Z</time>
      </trkpt>
      <trkpt lat="60.42376" lon="7.78942">
        <ele>1144.11</ele>
        <time>2019-04-02T09:26:59Z</time>
      </trkpt>
      <trkpt lat="60.42375" lon="7.78936">
        <ele>1144.11</ele>
        <time>2019-04-02T09:27:00Z</time>
      </trkpt>
      <trkpt lat="60.42372" lon="7.78922">
        <ele>1143.63</ele>
        <time>2019-04-02T09:27:06Z</time>
      </trkpt>
      <trkpt lat="60.42372" lon="7.78905">
        <ele>1143.63</ele>
        <time>2019-04-02T09:27:15Z</time>
      </trkpt>
      <trkpt lat="60.42358" lon="7.78867">
        <ele>1144.11</ele>
        <time>2019-04-02T09:27:20Z</time>
      </trkpt>
      <trkpt lat="60.42352" lon="7.78843">
        <ele>1144.11</ele>
        <time>2019-04-02T09:27:23Z</time>
      </trkpt>
      <trkpt lat="60.42336" lon="7.78804">
        <ele>1144.11</ele>
        <time>2019-04-02T09:27:28Z</time>
      </trkpt>
      <trkpt lat="60.42331" lon="7.78786">
        <ele>1144.11</ele>
        <time>2019-04-02T09:27:30Z</time>
      </trkpt>
      <trkpt lat="60.42312" lon="7.78722">
        <ele>1144.11</ele>
        <time>2019-04-02T09:27:36Z</time>
      </trkpt>
      <trkpt lat="60.42304" lon="7.787">
        <ele>1144.11</ele>
        <time>2019-04-02T09:27:38Z</time>
      </trkpt>
      <trkpt lat="60.42294" lon="7.78658">
        <ele>1144.11</ele>
        <time>2019-04-02T09:27:42Z</time>
      </trkpt>
      <trkpt lat="60.42281" lon="7.78607">
        <ele>1143.14</ele>
        <time>2019-04-02T09:27:47Z</time>
      </trkpt>
      <trkpt lat="60.42277" lon="7.78586">
        <ele>1143.14</ele>
        <time>2019-04-02T09:27:49Z</time>
      </trkpt>
      <trkpt lat="60.42267" lon="7.78559">
        <ele>1143.14</ele>
        <time>2019-04-02T09:27:52Z</time>
      </trkpt>
      <trkpt lat="60.42258" lon="7.78507">
        <ele>1143.14</ele>
        <time>2019-04-02T09:27:59Z</time>
      </trkpt>
      <trkpt lat="60.42257" lon="7.78497">
        <ele>1143.14</ele>
        <time>2019-04-02T09:28:07Z</time>
      </trkpt>
      <trkpt lat="60.4227" lon="7.78496">
        <ele>1143.14</ele>
        <time>2019-04-02T09:28:16Z</time>
      </trkpt>
      <trkpt lat="60.42274" lon="7.78494">
        <ele>1143.14</ele>
        <time>2019-04-02T09:28:18Z</time>
      </trkpt>
      <trkpt lat="60.42286" lon="7.78492">
        <ele>1143.14</ele>
        <time>2019-04-02T09:28:21Z</time>
      </trkpt>
      <trkpt lat="60.42302" lon="7.78486">
        <ele>1143.14</ele>
        <time>2019-04-02T09:28:25Z</time>
      </trkpt>
      <trkpt lat="60.4232" lon="7.78487">
        <ele>1144.11</ele>
        <time>2019-04-02T09:28:29Z</time>
      </trkpt>
      <trkpt lat="60.42357" lon="7.78464">
        <ele>1144.11</ele>
        <time>2019-04-02T09:28:36Z</time>
      </trkpt>
      <trkpt lat="60.42376" lon="7.78457">
        <ele>1144.11</ele>
        <time>2019-04-02T09:28:40Z</time>
      </trkpt>
      <trkpt lat="60.42415" lon="7.78438">
        <ele>1144.11</ele>
        <time>2019-04-02T09:28:48Z</time>
      </trkpt>
      <trkpt lat="60.42424" lon="7.78429">
        <ele>1144.11</ele>
        <time>2019-04-02T09:28:50Z</time>
      </trkpt>
      <trkpt lat="60.42436" lon="7.78422">
        <ele>1144.11</ele>
        <time>2019-04-02T09:28:53Z</time>
      </trkpt>
      <trkpt lat="60.42462" lon="7.78402">
        <ele>1144.11</ele>
        <time>2019-04-02T09:28:59Z</time>
      </trkpt>
      <trkpt lat="60.42483" lon="7.78375">
        <ele>1144.11</ele>
        <time>2019-04-02T09:29:04Z</time>
      </trkpt>
      <trkpt lat="60.42496" lon="7.78357">
        <ele>1144.11</ele>
        <time>2019-04-02T09:29:07Z</time>
      </trkpt>
      <trkpt lat="60.42527" lon="7.78335">
        <ele>1144.11</ele>
        <time>2019-04-02T09:29:13Z</time>
      </trkpt>
      <trkpt lat="60.42542" lon="7.78325">
        <ele>1144.11</ele>
        <time>2019-04-02T09:29:20Z</time>
      </trkpt>
      <trkpt lat="60.42541" lon="7.78306">
        <ele>1143.14</ele>
        <time>2019-04-02T09:29:24Z</time>
      </trkpt>
      <trkpt lat="60.42532" lon="7.78236">
        <ele>1143.14</ele>
        <time>2019-04-02T09:29:31Z</time>
      </trkpt>
      <trkpt lat="60.42521" lon="7.78189">
        <ele>1143.14</ele>
        <time>2019-04-02T09:29:35Z</time>
      </trkpt>
      <trkpt lat="60.42514" lon="7.78117">
        <ele>1145.55</ele>
        <time>2019-04-02T09:29:43Z</time>
      </trkpt>
      <trkpt lat="60.42513" lon="7.78085">
        <ele>1148.43</ele>
        <time>2019-04-02T09:29:49Z</time>
      </trkpt>
      <trkpt lat="60.42513" lon="7.78082">
        <ele>1148.43</ele>
        <time>2019-04-02T09:29:50Z</time>
      </trkpt>
      <trkpt lat="60.42512" lon="7.78068">
        <ele>1149.87</ele>
        <time>2019-04-02T09:29:53Z</time>
      </trkpt>
      <trkpt lat="60.42512" lon="7.78059">
        <ele>1150.84</ele>
        <time>2019-04-02T09:29:56Z</time>
      </trkpt>
      <trkpt lat="60.42499" lon="7.78009">
        <ele>1155.16</ele>
        <time>2019-04-02T09:30:05Z</time>
      </trkpt>
      <trkpt lat="60.4249" lon="7.77979">
        <ele>1157.56</ele>
        <time>2019-04-02T09:30:11Z</time>
      </trkpt>
      <trkpt lat="60.42489" lon="7.77975">
        <ele>1157.56</ele>
        <time>2019-04-02T09:30:12Z</time>
      </trkpt>
      <trkpt lat="60.42481" lon="7.77953">
        <ele>1159.49</ele>
        <time>2019-04-02T09:30:16Z</time>
      </trkpt>
      <trkpt lat="60.42474" lon="7.77918">
        <ele>1161.41</ele>
        <time>2019-04-02T09:30:23Z</time>
      </trkpt>
      <trkpt lat="60.42463" lon="7.77882">
        <ele>1162.37</ele>
        <time>2019-04-02T09:30:33Z</time>
      </trkpt>
      <trkpt lat="60.42459" lon="7.77862">
        <ele>1163.33</ele>
        <time>2019-04-02T09:30:40Z</time>
      </trkpt>
      <trkpt lat="60.42444" lon="7.77819">
        <ele>1165.26</ele>
        <time>2019-04-02T09:30:50Z</time>
      </trkpt>
      <trkpt lat="60.42442" lon="7.778">
        <ele>1165.26</ele>
        <time>2019-04-02T09:30:59Z</time>
      </trkpt>
      <trkpt lat="60.42438" lon="7.77762">
        <ele>1166.22</ele>
        <time>2019-04-02T09:31:10Z</time>
      </trkpt>
      <trkpt lat="60.42429" lon="7.77728">
        <ele>1167.18</ele>
        <time>2019-04-02T09:31:19Z</time>
      </trkpt>
      <trkpt lat="60.4242" lon="7.77709">
        <ele>1167.66</ele>
        <time>2019-04-02T09:31:31Z</time>
      </trkpt>
      <trkpt lat="60.42414" lon="7.77685">
        <ele>1168.14</ele>
        <time>2019-04-02T09:31:40Z</time>
      </trkpt>
      <trkpt lat="60.42406" lon="7.77665">
        <ele>1169.1</ele>
        <time>2019-04-02T09:31:45Z</time>
      </trkpt>
      <trkpt lat="60.42399" lon="7.77631">
        <ele>1169.58</ele>
        <time>2019-04-02T09:31:57Z</time>
      </trkpt>
      <trkpt lat="60.42397" lon="7.7762">
        <ele>1169.58</ele>
        <time>2019-04-02T09:32:02Z</time>
      </trkpt>
      <trkpt lat="60.42398" lon="7.77611">
        <ele>1170.06</ele>
        <time>2019-04-02T09:32:07Z</time>
      </trkpt>
      <trkpt lat="60.42396" lon="7.776">
        <ele>1170.54</ele>
        <time>2019-04-02T09:32:12Z</time>
      </trkpt>
      <trkpt lat="60.42392" lon="7.77583">
        <ele>1171.5</ele>
        <time>2019-04-02T09:32:18Z</time>
      </trkpt>
      <trkpt lat="60.42392" lon="7.77573">
        <ele>1171.98</ele>
        <time>2019-04-02T09:32:22Z</time>
      </trkpt>
      <trkpt lat="60.42388" lon="7.77557">
        <ele>1172.95</ele>
        <time>2019-04-02T09:32:28Z</time>
      </trkpt>
      <trkpt lat="60.42386" lon="7.77532">
        <ele>1173.91</ele>
        <time>2019-04-02T09:32:37Z</time>
      </trkpt>
      <trkpt lat="60.42387" lon="7.7751">
        <ele>1174.39</ele>
        <time>2019-04-02T09:32:43Z</time>
      </trkpt>
      <trkpt lat="60.42378" lon="7.77489">
        <ele>1175.83</ele>
        <time>2019-04-02T09:32:47Z</time>
      </trkpt>
      <trkpt lat="60.42375" lon="7.77474">
        <ele>1175.83</ele>
        <time>2019-04-02T09:32:50Z</time>
      </trkpt>
      <trkpt lat="60.42366" lon="7.77446">
        <ele>1177.27</ele>
        <time>2019-04-02T09:32:54Z</time>
      </trkpt>
      <trkpt lat="60.42364" lon="7.77432">
        <ele>1177.27</ele>
        <time>2019-04-02T09:32:56Z</time>
      </trkpt>
      <trkpt lat="60.42355" lon="7.77405">
        <ele>1179.19</ele>
        <time>2019-04-02T09:33:00Z</time>
      </trkpt>
      <trkpt lat="60.42351" lon="7.77378">
        <ele>1179.67</ele>
        <time>2019-04-02T09:33:04Z</time>
      </trkpt>
      <trkpt lat="60.42346" lon="7.77364">
        <ele>1180.64</ele>
        <time>2019-04-02T09:33:06Z</time>
      </trkpt>
      <trkpt lat="60.42339" lon="7.7734">
        <ele>1181.6</ele>
        <time>2019-04-02T09:33:09Z</time>
      </trkpt>
      <trkpt lat="60.42326" lon="7.77306">
        <ele>1183.04</ele>
        <time>2019-04-02T09:33:13Z</time>
      </trkpt>
      <trkpt lat="60.4232" lon="7.77287">
        <ele>1183.04</ele>
        <time>2019-04-02T09:33:15Z</time>
      </trkpt>
      <trkpt lat="60.42306" lon="7.77252">
        <ele>1184</ele>
        <time>2019-04-02T09:33:19Z</time>
      </trkpt>
      <trkpt lat="60.42285" lon="7.77187">
        <ele>1186.4</ele>
        <time>2019-04-02T09:33:28Z</time>
      </trkpt>
      <trkpt lat="60.4227" lon="7.77117">
        <ele>1188.81</ele>
        <time>2019-04-02T09:33:35Z</time>
      </trkpt>
      <trkpt lat="60.42266" lon="7.77083">
        <ele>1189.29</ele>
        <time>2019-04-02T09:33:38Z</time>
      </trkpt>
      <trkpt lat="60.42261" lon="7.77039">
        <ele>1191.69</ele>
        <time>2019-04-02T09:33:42Z</time>
      </trkpt>
      <trkpt lat="60.42259" lon="7.7701">
        <ele>1193.13</ele>
        <time>2019-04-02T09:33:45Z</time>
      </trkpt>
      <trkpt lat="60.42254" lon="7.76972">
        <ele>1194.09</ele>
        <time>2019-04-02T09:33:49Z</time>
      </trkpt>
      <trkpt lat="60.42252" lon="7.76947">
        <ele>1195.06</ele>
        <time>2019-04-02T09:33:52Z</time>
      </trkpt>
      <trkpt lat="60.42245" lon="7.76911">
        <ele>1195.54</ele>
        <time>2019-04-02T09:33:56Z</time>
      </trkpt>
      <trkpt lat="60.42238" lon="7.76834">
        <ele>1197.94</ele>
        <time>2019-04-02T09:34:03Z</time>
      </trkpt>
      <trkpt lat="60.42219" lon="7.76707">
        <ele>1201.79</ele>
        <time>2019-04-02T09:34:13Z</time>
      </trkpt>
      <trkpt lat="60.42215" lon="7.76681">
        <ele>1202.27</ele>
        <time>2019-04-02T09:34:15Z</time>
      </trkpt>
      <trkpt lat="60.42204" lon="7.76615">
        <ele>1204.19</ele>
        <time>2019-04-02T09:34:20Z</time>
      </trkpt>
      <trkpt lat="60.42176" lon="7.76515">
        <ele>1206.59</ele>
        <time>2019-04-02T09:34:28Z</time>
      </trkpt>
      <trkpt lat="60.42147" lon="7.76432">
        <ele>1205.15</ele>
        <time>2019-04-02T09:34:35Z</time>
      </trkpt>
      <trkpt lat="60.42127" lon="7.76376">
        <ele>1201.79</ele>
        <time>2019-04-02T09:34:39Z</time>
      </trkpt>
      <trkpt lat="60.42122" lon="7.76361">
        <ele>1201.79</ele>
        <time>2019-04-02T09:34:40Z</time>
      </trkpt>
      <trkpt lat="60.42101" lon="7.76305">
        <ele>1201.79</ele>
        <time>2019-04-02T09:34:44Z</time>
      </trkpt>
      <trkpt lat="60.42077" lon="7.76236">
        <ele>1202.27</ele>
        <time>2019-04-02T09:34:49Z</time>
      </trkpt>
      <trkpt lat="60.42061" lon="7.76175">
        <ele>1202.27</ele>
        <time>2019-04-02T09:34:53Z</time>
      </trkpt>
      <trkpt lat="60.42054" lon="7.76113">
        <ele>1202.75</ele>
        <time>2019-04-02T09:34:57Z</time>
      </trkpt>
      <trkpt lat="60.42049" lon="7.76063">
        <ele>1204.67</ele>
        <time>2019-04-02T09:35:00Z</time>
      </trkpt>
      <trkpt lat="60.42048" lon="7.75998">
        <ele>1208.51</ele>
        <time>2019-04-02T09:35:05Z</time>
      </trkpt>
      <trkpt lat="60.42053" lon="7.75978">
        <ele>1209.48</ele>
        <time>2019-04-02T09:35:07Z</time>
      </trkpt>
      <trkpt lat="60.42058" lon="7.75962">
        <ele>1210.92</ele>
        <time>2019-04-02T09:35:09Z</time>
      </trkpt>
      <trkpt lat="60.42066" lon="7.75921">
        <ele>1214.28</ele>
        <time>2019-04-02T09:35:13Z</time>
      </trkpt>
      <trkpt lat="60.42068" lon="7.75911">
        <ele>1214.28</ele>
        <time>2019-04-02T09:35:14Z</time>
      </trkpt>
      <trkpt lat="60.42069" lon="7.75873">
        <ele>1217.65</ele>
        <time>2019-04-02T09:35:17Z</time>
      </trkpt>
      <trkpt lat="60.42068" lon="7.75849">
        <ele>1218.13</ele>
        <time>2019-04-02T09:35:19Z</time>
      </trkpt>
      <trkpt lat="60.42068" lon="7.75826">
        <ele>1219.57</ele>
        <time>2019-04-02T09:35:26Z</time>
      </trkpt>
      <trkpt lat="60.42066" lon="7.75824">
        <ele>1220.05</ele>
        <time>2019-04-02T09:35:46Z</time>
      </trkpt>
      <trkpt lat="60.42069" lon="7.75822">
        <ele>1220.05</ele>
        <time>2019-04-02T09:36:03Z</time>
      </trkpt>
      <trkpt lat="60.42068" lon="7.75818">
        <ele>1220.05</ele>
        <time>2019-04-02T09:36:04Z</time>
      </trkpt>
      <trkpt lat="60.42032" lon="7.75774">
        <ele>1221.49</ele>
        <time>2019-04-02T09:36:17Z</time>
      </trkpt>
      <trkpt lat="60.42024" lon="7.7577">
        <ele>1221.49</ele>
        <time>2019-04-02T09:36:19Z</time>
      </trkpt>
      <trkpt lat="60.42005" lon="7.75767">
        <ele>1218.61</ele>
        <time>2019-04-02T09:36:23Z</time>
      </trkpt>
      <trkpt lat="60.41977" lon="7.75758">
        <ele>1215.24</ele>
        <time>2019-04-02T09:36:28Z</time>
      </trkpt>
      <trkpt lat="60.41971" lon="7.75756">
        <ele>1215.24</ele>
        <time>2019-04-02T09:36:29Z</time>
      </trkpt>
      <trkpt lat="60.41965" lon="7.75754">
        <ele>1216.21</ele>
        <time>2019-04-02T09:36:30Z</time>
      </trkpt>
      <trkpt lat="60.41942" lon="7.75739">
        <ele>1213.32</ele>
        <time>2019-04-02T09:36:34Z</time>
      </trkpt>
      <trkpt lat="60.41945" lon="7.7573">
        <ele>1214.76</ele>
        <time>2019-04-02T09:36:40Z</time>
      </trkpt>
      <trkpt lat="60.4196" lon="7.75758">
        <ele>1213.8</ele>
        <time>2019-04-02T09:36:44Z</time>
      </trkpt>
      <trkpt lat="60.41966" lon="7.75766">
        <ele>1213.8</ele>
        <time>2019-04-02T09:36:46Z</time>
      </trkpt>
      <trkpt lat="60.41969" lon="7.75799">
        <ele>1215.24</ele>
        <time>2019-04-02T09:36:50Z</time>
      </trkpt>
      <trkpt lat="60.41964" lon="7.75842">
        <ele>1214.28</ele>
        <time>2019-04-02T09:36:54Z</time>
      </trkpt>
      <trkpt lat="60.41959" lon="7.75876">
        <ele>1212.36</ele>
        <time>2019-04-02T09:36:57Z</time>
      </trkpt>
      <trkpt lat="60.41954" lon="7.75914">
        <ele>1210.44</ele>
        <time>2019-04-02T09:37:01Z</time>
      </trkpt>
      <trkpt lat="60.41943" lon="7.75987">
        <ele>1209</ele>
        <time>2019-04-02T09:37:13Z</time>
      </trkpt>
      <trkpt lat="60.41944" lon="7.75986">
        <ele>1209</ele>
        <time>2019-04-02T09:37:15Z</time>
      </trkpt>
      <trkpt lat="60.41947" lon="7.7594">
        <ele>1208.51</ele>
        <time>2019-04-02T09:37:24Z</time>
      </trkpt>
      <trkpt lat="60.41949" lon="7.75906">
        <ele>1209.96</ele>
        <time>2019-04-02T09:37:29Z</time>
      </trkpt>
      <trkpt lat="60.41946" lon="7.75853">
        <ele>1210.92</ele>
        <time>2019-04-02T09:37:34Z</time>
      </trkpt>
      <trkpt lat="60.41945" lon="7.75833">
        <ele>1210.92</ele>
        <time>2019-04-02T09:37:36Z</time>
      </trkpt>
      <trkpt lat="60.41938" lon="7.7577">
        <ele>1213.32</ele>
        <time>2019-04-02T09:37:42Z</time>
      </trkpt>
      <trkpt lat="60.41939" lon="7.75696">
        <ele>1216.21</ele>
        <time>2019-04-02T09:37:50Z</time>
      </trkpt>
      <trkpt lat="60.41942" lon="7.75682">
        <ele>1217.17</ele>
        <time>2019-04-02T09:38:00Z</time>
      </trkpt>
      <trkpt lat="60.41942" lon="7.75684">
        <ele>1217.17</ele>
        <time>2019-04-02T09:38:29Z</time>
      </trkpt>
      <trkpt lat="60.41942" lon="7.75685">
        <ele>1217.17</ele>
        <time>2019-04-02T09:38:40Z</time>
      </trkpt>
      <trkpt lat="60.41947" lon="7.75672">
        <ele>1217.17</ele>
        <time>2019-04-02T09:38:45Z</time>
      </trkpt>
      <trkpt lat="60.41952" lon="7.75661">
        <ele>1218.13</ele>
        <time>2019-04-02T09:38:50Z</time>
      </trkpt>
      <trkpt lat="60.41956" lon="7.75651">
        <ele>1218.61</ele>
        <time>2019-04-02T09:38:54Z</time>
      </trkpt>
      <trkpt lat="60.41955" lon="7.75637">
        <ele>1219.57</ele>
        <time>2019-04-02T09:38:59Z</time>
      </trkpt>
      <trkpt lat="60.41956" lon="7.75617">
        <ele>1220.53</ele>
        <time>2019-04-02T09:39:03Z</time>
      </trkpt>
      <trkpt lat="60.41957" lon="7.7561">
        <ele>1221.01</ele>
        <time>2019-04-02T09:39:11Z</time>
      </trkpt>
      <trkpt lat="60.41963" lon="7.75587">
        <ele>1221.97</ele>
        <time>2019-04-02T09:39:15Z</time>
      </trkpt>
      <trkpt lat="60.41965" lon="7.75577">
        <ele>1222.45</ele>
        <time>2019-04-02T09:39:17Z</time>
      </trkpt>
      <trkpt lat="60.41956" lon="7.75517">
        <ele>1225.82</ele>
        <time>2019-04-02T09:39:25Z</time>
      </trkpt>
      <trkpt lat="60.41954" lon="7.75513">
        <ele>1225.82</ele>
        <time>2019-04-02T09:39:26Z</time>
      </trkpt>
      <trkpt lat="60.41953" lon="7.75506">
        <ele>1226.3</ele>
        <time>2019-04-02T09:39:40Z</time>
      </trkpt>
      <trkpt lat="60.41951" lon="7.75496">
        <ele>1226.3</ele>
        <time>2019-04-02T09:39:53Z</time>
      </trkpt>
      <trkpt lat="60.41952" lon="7.7549">
        <ele>1226.3</ele>
        <time>2019-04-02T09:40:08Z</time>
      </trkpt>
      <trkpt lat="60.41956" lon="7.75503">
        <ele>1226.3</ele>
        <time>2019-04-02T09:40:13Z</time>
      </trkpt>
      <trkpt lat="60.41957" lon="7.75559">
        <ele>1223.9</ele>
        <time>2019-04-02T09:40:26Z</time>
      </trkpt>
      <trkpt lat="60.41956" lon="7.75558">
        <ele>1223.9</ele>
        <time>2019-04-02T09:40:41Z</time>
      </trkpt>
      <trkpt lat="60.41958" lon="7.75559">
        <ele>1223.42</ele>
        <time>2019-04-02T09:41:00Z</time>
      </trkpt>
      <trkpt lat="60.41958" lon="7.75558">
        <ele>1223.42</ele>
        <time>2019-04-02T09:41:20Z</time>
      </trkpt>
      <trkpt lat="60.41962" lon="7.75559">
        <ele>1223.42</ele>
        <time>2019-04-02T09:41:28Z</time>
      </trkpt>
      <trkpt lat="60.41961" lon="7.75579">
        <ele>1222.45</ele>
        <time>2019-04-02T09:41:42Z</time>
      </trkpt>
      <trkpt lat="60.41961" lon="7.75576">
        <ele>1222.45</ele>
        <time>2019-04-02T09:42:07Z</time>
      </trkpt>
      <trkpt lat="60.41961" lon="7.75578">
        <ele>1221.97</ele>
        <time>2019-04-02T09:42:45Z</time>
      </trkpt>
      <trkpt lat="60.41963" lon="7.75579">
        <ele>1221.97</ele>
        <time>2019-04-02T09:43:12Z</time>
      </trkpt>
      <trkpt lat="60.41962" lon="7.75578">
        <ele>1221.97</ele>
        <time>2019-04-02T09:43:48Z</time>
      </trkpt>
      <trkpt lat="60.41963" lon="7.75578">
        <ele>1221.97</ele>
        <time>2019-04-02T09:44:22Z</time>
      </trkpt>
      <trkpt lat="60.41961" lon="7.75579">
        <ele>1221.49</ele>
        <time>2019-04-02T09:44:44Z</time>
      </trkpt>
      <trkpt lat="60.4196" lon="7.75578">
        <ele>1221.49</ele>
        <time>2019-04-02T09:45:15Z</time>
      </trkpt>
      <trkpt lat="60.41961" lon="7.7558">
        <ele>1221.49</ele>
        <time>2019-04-02T09:45:38Z</time>
      </trkpt>
      <trkpt lat="60.41961" lon="7.75578">
        <ele>1221.49</ele>
        <time>2019-04-02T09:46:04Z</time>
      </trkpt>
      <trkpt lat="60.41962" lon="7.75579">
        <ele>1221.49</ele>
        <time>2019-04-02T09:46:25Z</time>
      </trkpt>
      <trkpt lat="60.41962" lon="7.75578">
        <ele>1221.49</ele>
        <time>2019-04-02T09:46:48Z</time>
      </trkpt>
      <trkpt lat="60.41962" lon="7.75579">
        <ele>1221.49</ele>
        <time>2019-04-02T09:47:13Z</time>
      </trkpt>
      <trkpt lat="60.41962" lon="7.75578">
        <ele>1221.49</ele>
        <time>2019-04-02T09:47:29Z</time>
      </trkpt>
      <trkpt lat="60.4196" lon="7.7558">
        <ele>1221.49</ele>
        <time>2019-04-02T09:47:49Z</time>
      </trkpt>
      <trkpt lat="60.4196" lon="7.75578">
        <ele>1221.01</ele>
        <time>2019-04-02T09:47:59Z</time>
      </trkpt>
      <trkpt lat="60.41961" lon="7.75578">
        <ele>1221.01</ele>
        <time>2019-04-02T09:48:34Z</time>
      </trkpt>
      <trkpt lat="60.41959" lon="7.75577">
        <ele>1221.01</ele>
        <time>2019-04-02T09:49:10Z</time>
      </trkpt>
      <trkpt lat="60.41961" lon="7.75578">
        <ele>1221.01</ele>
        <time>2019-04-02T09:49:45Z</time>
      </trkpt>
      <trkpt lat="60.41963" lon="7.75579">
        <ele>1221.01</ele>
        <time>2019-04-02T09:50:16Z</time>
      </trkpt>
      <trkpt lat="60.41962" lon="7.75581">
        <ele>1221.01</ele>
        <time>2019-04-02T09:50:55Z</time>
      </trkpt>
      <trkpt lat="60.41962" lon="7.7558">
        <ele>1221.01</ele>
        <time>2019-04-02T09:51:38Z</time>
      </trkpt>
      <trkpt lat="60.41961" lon="7.7558">
        <ele>1221.01</ele>
        <time>2019-04-02T09:52:05Z</time>
      </trkpt>
      <trkpt lat="60.41962" lon="7.75583">
        <ele>1221.01</ele>
        <time>2019-04-02T09:52:41Z</time>
      </trkpt>
      <trkpt lat="60.41962" lon="7.75581">
        <ele>1221.01</ele>
        <time>2019-04-02T09:53:14Z</time>
      </trkpt>
      <trkpt lat="60.41963" lon="7.75581">
        <ele>1221.01</ele>
        <time>2019-04-02T09:53:50Z</time>
      </trkpt>
      <trkpt lat="60.41964" lon="7.75583">
        <ele>1221.01</ele>
        <time>2019-04-02T09:54:23Z</time>
      </trkpt>
      <trkpt lat="60.41964" lon="7.75583">
        <ele>1221.01</ele>
        <time>2019-04-02T09:54:54Z</time>
      </trkpt>
      <trkpt lat="60.41964" lon="7.75582">
        <ele>1221.01</ele>
        <time>2019-04-02T09:55:26Z</time>
      </trkpt>
      <trkpt lat="60.41964" lon="7.75581">
        <ele>1221.49</ele>
        <time>2019-04-02T09:55:59Z</time>
      </trkpt>
      <trkpt lat="60.41964" lon="7.75581">
        <ele>1221.49</ele>
        <time>2019-04-02T09:56:33Z</time>
      </trkpt>
      <trkpt lat="60.41963" lon="7.75582">
        <ele>1222.45</ele>
        <time>2019-04-02T09:57:14Z</time>
      </trkpt>
      <trkpt lat="60.41963" lon="7.7558">
        <ele>1222.93</ele>
        <time>2019-04-02T09:57:49Z</time>
      </trkpt>
      <trkpt lat="60.41963" lon="7.75581">
        <ele>1222.93</ele>
        <time>2019-04-02T09:58:26Z</time>
      </trkpt>
      <trkpt lat="60.41963" lon="7.7558">
        <ele>1222.93</ele>
        <time>2019-04-02T09:58:59Z</time>
      </trkpt>
      <trkpt lat="60.41962" lon="7.75581">
        <ele>1223.42</ele>
        <time>2019-04-02T09:59:32Z</time>
      </trkpt>
      <trkpt lat="60.41961" lon="7.75581">
        <ele>1223.42</ele>
        <time>2019-04-02T10:00:03Z</time>
      </trkpt>
      <trkpt lat="60.41961" lon="7.7558">
        <ele>1223.42</ele>
        <time>2019-04-02T10:00:39Z</time>
      </trkpt>
      <trkpt lat="60.41961" lon="7.7558">
        <ele>1223.42</ele>
        <time>2019-04-02T10:01:15Z</time>
      </trkpt>
      <trkpt lat="60.41961" lon="7.75579">
        <ele>1223.42</ele>
        <time>2019-04-02T10:01:50Z</time>
      </trkpt>
      <trkpt lat="60.41961" lon="7.75581">
        <ele>1223.9</ele>
        <time>2019-04-02T10:02:24Z</time>
      </trkpt>
      <trkpt lat="60.41959" lon="7.75578">
        <ele>1224.86</ele>
        <time>2019-04-02T10:02:36Z</time>
      </trkpt>
      <trkpt lat="60.4196" lon="7.75574">
        <ele>1226.3</ele>
        <time>2019-04-02T10:02:52Z</time>
      </trkpt>
      <trkpt lat="60.41961" lon="7.75574">
        <ele>1224.86</ele>
        <time>2019-04-02T10:02:56Z</time>
      </trkpt>
      <trkpt lat="60.4196" lon="7.75577">
        <ele>1224.38</ele>
        <time>2019-04-02T10:03:15Z</time>
      </trkpt>
      <trkpt lat="60.41958" lon="7.75578">
        <ele>1222.93</ele>
        <time>2019-04-02T10:03:28Z</time>
      </trkpt>
      <trkpt lat="60.41959" lon="7.75577">
        <ele>1224.86</ele>
        <time>2019-04-02T10:03:34Z</time>
      </trkpt>
      <trkpt lat="60.41959" lon="7.75577">
        <ele>1221.49</ele>
        <time>2019-04-02T10:03:35Z</time>
      </trkpt>
      <trkpt lat="60.41959" lon="7.75577">
        <ele>1223.42</ele>
        <time>2019-04-02T10:03:36Z</time>
      </trkpt>
      <trkpt lat="60.41959" lon="7.75577">
        <ele>1228.7</ele>
        <time>2019-04-02T10:03:37Z</time>
      </trkpt>
      <trkpt lat="60.41959" lon="7.75577">
        <ele>1223.9</ele>
        <time>2019-04-02T10:03:38Z</time>
      </trkpt>
      <trkpt lat="60.41959" lon="7.75577">
        <ele>1220.05</ele>
        <time>2019-04-02T10:03:39Z</time>
      </trkpt>
      <trkpt lat="60.41959" lon="7.75577">
        <ele>1220.05</ele>
        <time>2019-04-02T10:03:40Z</time>
      </trkpt>
      <trkpt lat="60.41959" lon="7.75576">
        <ele>1227.26</ele>
        <time>2019-04-02T10:03:41Z</time>
      </trkpt>
      <trkpt lat="60.41959" lon="7.75577">
        <ele>1225.34</ele>
        <time>2019-04-02T10:03:42Z</time>
      </trkpt>
      <trkpt lat="60.4196" lon="7.75576">
        <ele>1223.9</ele>
        <time>2019-04-02T10:04:08Z</time>
      </trkpt>
      <trkpt lat="60.4196" lon="7.75575">
        <ele>1225.82</ele>
        <time>2019-04-02T10:04:18Z</time>
      </trkpt>
      <trkpt lat="60.4196" lon="7.75575">
        <ele>1224.38</ele>
        <time>2019-04-02T10:04:20Z</time>
      </trkpt>
      <trkpt lat="60.4196" lon="7.75575">
        <ele>1218.13</ele>
        <time>2019-04-02T10:04:36Z</time>
      </trkpt>
      <trkpt lat="60.41959" lon="7.75574">
        <ele>1229.18</ele>
        <time>2019-04-02T10:04:37Z</time>
      </trkpt>
      <trkpt lat="60.4196" lon="7.75575">
        <ele>1225.34</ele>
        <time>2019-04-02T10:04:38Z</time>
      </trkpt>
      <trkpt lat="60.41956" lon="7.75571">
        <ele>1220.53</ele>
        <time>2019-04-02T10:04:47Z</time>
      </trkpt>
      <trkpt lat="60.41957" lon="7.75574">
        <ele>1224.38</ele>
        <time>2019-04-02T10:04:54Z</time>
      </trkpt>
      <trkpt lat="60.41958" lon="7.75578">
        <ele>1222.93</ele>
        <time>2019-04-02T10:04:56Z</time>
      </trkpt>
      <trkpt lat="60.4196" lon="7.75577">
        <ele>1225.82</ele>
        <time>2019-04-02T10:05:01Z</time>
      </trkpt>
      <trkpt lat="60.41962" lon="7.75579">
        <ele>1225.82</ele>
        <time>2019-04-02T10:05:04Z</time>
      </trkpt>
      <trkpt lat="60.41963" lon="7.75584">
        <ele>1225.82</ele>
        <time>2019-04-02T10:05:06Z</time>
      </trkpt>
      <trkpt lat="60.41964" lon="7.75602">
        <ele>1224.38</ele>
        <time>2019-04-02T10:05:17Z</time>
      </trkpt>
      <trkpt lat="60.41969" lon="7.75597">
        <ele>1223.42</ele>
        <time>2019-04-02T10:05:24Z</time>
      </trkpt>
      <trkpt lat="60.41971" lon="7.75596">
        <ele>1223.42</ele>
        <time>2019-04-02T10:05:27Z</time>
      </trkpt>
      <trkpt lat="60.41974" lon="7.75617">
        <ele>1225.82</ele>
        <time>2019-04-02T10:05:31Z</time>
      </trkpt>
      <trkpt lat="60.41966" lon="7.75649">
        <ele>1222.93</ele>
        <time>2019-04-02T10:05:35Z</time>
      </trkpt>
      <trkpt lat="60.41965" lon="7.75661">
        <ele>1220.05</ele>
        <time>2019-04-02T10:05:38Z</time>
      </trkpt>
      <trkpt lat="60.41965" lon="7.75646">
        <ele>1221.49</ele>
        <time>2019-04-02T10:05:48Z</time>
      </trkpt>
      <trkpt lat="60.41964" lon="7.75644">
        <ele>1221.97</ele>
        <time>2019-04-02T10:05:58Z</time>
      </trkpt>
      <trkpt lat="60.41959" lon="7.75641">
        <ele>1221.01</ele>
        <time>2019-04-02T10:06:06Z</time>
      </trkpt>
      <trkpt lat="60.41959" lon="7.75639">
        <ele>1219.57</ele>
        <time>2019-04-02T10:06:08Z</time>
      </trkpt>
      <trkpt lat="60.41957" lon="7.75636">
        <ele>1221.49</ele>
        <time>2019-04-02T10:06:11Z</time>
      </trkpt>
      <trkpt lat="60.41956" lon="7.75634">
        <ele>1222.93</ele>
        <time>2019-04-02T10:06:28Z</time>
      </trkpt>
      <trkpt lat="60.41953" lon="7.75622">
        <ele>1223.42</ele>
        <time>2019-04-02T10:06:47Z</time>
      </trkpt>
      <trkpt lat="60.41949" lon="7.75608">
        <ele>1223.9</ele>
        <time>2019-04-02T10:06:50Z</time>
      </trkpt>
      <trkpt lat="60.41946" lon="7.75591">
        <ele>1224.86</ele>
        <time>2019-04-02T10:06:52Z</time>
      </trkpt>
      <trkpt lat="60.41948" lon="7.75551">
        <ele>1226.3</ele>
        <time>2019-04-02T10:06:56Z</time>
      </trkpt>
      <trkpt lat="60.41952" lon="7.75525">
        <ele>1227.26</ele>
        <time>2019-04-02T10:06:59Z</time>
      </trkpt>
      <trkpt lat="60.41941" lon="7.75435">
        <ele>1229.66</ele>
        <time>2019-04-02T10:07:07Z</time>
      </trkpt>
      <trkpt lat="60.41923" lon="7.75354">
        <ele>1225.82</ele>
        <time>2019-04-02T10:07:12Z</time>
      </trkpt>
      <trkpt lat="60.41916" lon="7.75316">
        <ele>1221.01</ele>
        <time>2019-04-02T10:07:14Z</time>
      </trkpt>
      <trkpt lat="60.41912" lon="7.75296">
        <ele>1221.01</ele>
        <time>2019-04-02T10:07:15Z</time>
      </trkpt>
      <trkpt lat="60.41908" lon="7.75276">
        <ele>1221.01</ele>
        <time>2019-04-02T10:07:16Z</time>
      </trkpt>
      <trkpt lat="60.41899" lon="7.75214">
        <ele>1216.69</ele>
        <time>2019-04-02T10:07:19Z</time>
      </trkpt>
      <trkpt lat="60.41894" lon="7.75194">
        <ele>1220.53</ele>
        <time>2019-04-02T10:07:20Z</time>
      </trkpt>
      <trkpt lat="60.4189" lon="7.75175">
        <ele>1220.53</ele>
        <time>2019-04-02T10:07:21Z</time>
      </trkpt>
      <trkpt lat="60.41882" lon="7.75135">
        <ele>1217.65</ele>
        <time>2019-04-02T10:07:23Z</time>
      </trkpt>
      <trkpt lat="60.41874" lon="7.75071">
        <ele>1213.8</ele>
        <time>2019-04-02T10:07:26Z</time>
      </trkpt>
      <trkpt lat="60.41872" lon="7.75052">
        <ele>1213.8</ele>
        <time>2019-04-02T10:07:27Z</time>
      </trkpt>
      <trkpt lat="60.41866" lon="7.75016">
        <ele>1214.76</ele>
        <time>2019-04-02T10:07:29Z</time>
      </trkpt>
      <trkpt lat="60.41851" lon="7.74935">
        <ele>1216.21</ele>
        <time>2019-04-02T10:07:34Z</time>
      </trkpt>
      <trkpt lat="60.41821" lon="7.74826">
        <ele>1220.53</ele>
        <time>2019-04-02T10:07:41Z</time>
      </trkpt>
      <trkpt lat="60.41816" lon="7.74811">
        <ele>1220.53</ele>
        <time>2019-04-02T10:07:42Z</time>
      </trkpt>
      <trkpt lat="60.41767" lon="7.74624">
        <ele>1222.93</ele>
        <time>2019-04-02T10:07:53Z</time>
      </trkpt>
      <trkpt lat="60.41761" lon="7.74589">
        <ele>1224.38</ele>
        <time>2019-04-02T10:07:55Z</time>
      </trkpt>
      <trkpt lat="60.41754" lon="7.74551">
        <ele>1227.74</ele>
        <time>2019-04-02T10:07:57Z</time>
      </trkpt>
      <trkpt lat="60.41739" lon="7.74477">
        <ele>1227.74</ele>
        <time>2019-04-02T10:08:01Z</time>
      </trkpt>
      <trkpt lat="60.41715" lon="7.74357">
        <ele>1226.3</ele>
        <time>2019-04-02T10:08:07Z</time>
      </trkpt>
      <trkpt lat="60.41706" lon="7.74319">
        <ele>1228.7</ele>
        <time>2019-04-02T10:08:09Z</time>
      </trkpt>
      <trkpt lat="60.41696" lon="7.74283">
        <ele>1226.3</ele>
        <time>2019-04-02T10:08:11Z</time>
      </trkpt>
      <trkpt lat="60.41686" lon="7.74249">
        <ele>1230.14</ele>
        <time>2019-04-02T10:08:13Z</time>
      </trkpt>
      <trkpt lat="60.41682" lon="7.74232">
        <ele>1229.66</ele>
        <time>2019-04-02T10:08:14Z</time>
      </trkpt>
      <trkpt lat="60.41672" lon="7.742">
        <ele>1228.22</ele>
        <time>2019-04-02T10:08:16Z</time>
      </trkpt>
      <trkpt lat="60.41656" lon="7.7415">
        <ele>1226.3</ele>
        <time>2019-04-02T10:08:19Z</time>
      </trkpt>
      <trkpt lat="60.41633" lon="7.74086">
        <ele>1225.82</ele>
        <time>2019-04-02T10:08:23Z</time>
      </trkpt>
      <trkpt lat="60.4162" lon="7.74043">
        <ele>1228.22</ele>
        <time>2019-04-02T10:08:26Z</time>
      </trkpt>
      <trkpt lat="60.41612" lon="7.74019">
        <ele>1229.18</ele>
        <time>2019-04-02T10:08:28Z</time>
      </trkpt>
      <trkpt lat="60.41602" lon="7.73993">
        <ele>1232.55</ele>
        <time>2019-04-02T10:08:31Z</time>
      </trkpt>
      <trkpt lat="60.41596" lon="7.73978">
        <ele>1233.03</ele>
        <time>2019-04-02T10:08:33Z</time>
      </trkpt>
      <trkpt lat="60.41582" lon="7.73942">
        <ele>1236.39</ele>
        <time>2019-04-02T10:08:39Z</time>
      </trkpt>
      <trkpt lat="60.41575" lon="7.73913">
        <ele>1234.95</ele>
        <time>2019-04-02T10:08:43Z</time>
      </trkpt>
      <trkpt lat="60.41572" lon="7.73904">
        <ele>1236.87</ele>
        <time>2019-04-02T10:08:44Z</time>
      </trkpt>
      <trkpt lat="60.41562" lon="7.73866">
        <ele>1233.99</ele>
        <time>2019-04-02T10:08:48Z</time>
      </trkpt>
      <trkpt lat="60.41553" lon="7.73806">
        <ele>1235.43</ele>
        <time>2019-04-02T10:08:52Z</time>
      </trkpt>
      <trkpt lat="60.41544" lon="7.73752">
        <ele>1232.07</ele>
        <time>2019-04-02T10:08:55Z</time>
      </trkpt>
      <trkpt lat="60.41541" lon="7.73734">
        <ele>1232.07</ele>
        <time>2019-04-02T10:08:56Z</time>
      </trkpt>
      <trkpt lat="60.41529" lon="7.73652">
        <ele>1229.18</ele>
        <time>2019-04-02T10:09:00Z</time>
      </trkpt>
      <trkpt lat="60.41521" lon="7.73574">
        <ele>1231.11</ele>
        <time>2019-04-02T10:09:04Z</time>
      </trkpt>
      <trkpt lat="60.41516" lon="7.73539">
        <ele>1235.43</ele>
        <time>2019-04-02T10:09:06Z</time>
      </trkpt>
      <trkpt lat="60.41513" lon="7.73524">
        <ele>1235.43</ele>
        <time>2019-04-02T10:09:07Z</time>
      </trkpt>
      <trkpt lat="60.41503" lon="7.73477">
        <ele>1238.32</ele>
        <time>2019-04-02T10:09:10Z</time>
      </trkpt>
      <trkpt lat="60.41468" lon="7.7327">
        <ele>1238.8</ele>
        <time>2019-04-02T10:09:23Z</time>
      </trkpt>
      <trkpt lat="60.41465" lon="7.73256">
        <ele>1238.8</ele>
        <time>2019-04-02T10:09:24Z</time>
      </trkpt>
      <trkpt lat="60.41437" lon="7.73127">
        <ele>1234.95</ele>
        <time>2019-04-02T10:09:33Z</time>
      </trkpt>
      <trkpt lat="60.41431" lon="7.73078">
        <ele>1232.07</ele>
        <time>2019-04-02T10:09:36Z</time>
      </trkpt>
      <trkpt lat="60.41428" lon="7.73062">
        <ele>1231.11</ele>
        <time>2019-04-02T10:09:37Z</time>
      </trkpt>
      <trkpt lat="60.41413" lon="7.72991">
        <ele>1228.22</ele>
        <time>2019-04-02T10:09:41Z</time>
      </trkpt>
      <trkpt lat="60.41401" lon="7.72938">
        <ele>1225.34</ele>
        <time>2019-04-02T10:09:44Z</time>
      </trkpt>
      <trkpt lat="60.41391" lon="7.7286">
        <ele>1220.53</ele>
        <time>2019-04-02T10:09:48Z</time>
      </trkpt>
      <trkpt lat="60.41388" lon="7.72841">
        <ele>1220.53</ele>
        <time>2019-04-02T10:09:49Z</time>
      </trkpt>
      <trkpt lat="60.41378" lon="7.72772">
        <ele>1222.45</ele>
        <time>2019-04-02T10:09:53Z</time>
      </trkpt>
      <trkpt lat="60.41373" lon="7.72721">
        <ele>1217.65</ele>
        <time>2019-04-02T10:09:56Z</time>
      </trkpt>
      <trkpt lat="60.41371" lon="7.72703">
        <ele>1217.65</ele>
        <time>2019-04-02T10:09:57Z</time>
      </trkpt>
      <trkpt lat="60.4136" lon="7.7256">
        <ele>1213.8</ele>
        <time>2019-04-02T10:10:05Z</time>
      </trkpt>
      <trkpt lat="60.41359" lon="7.72541">
        <ele>1213.8</ele>
        <time>2019-04-02T10:10:06Z</time>
      </trkpt>
      <trkpt lat="60.41358" lon="7.72462">
        <ele>1212.84</ele>
        <time>2019-04-02T10:10:10Z</time>
      </trkpt>
      <trkpt lat="60.41356" lon="7.72414">
        <ele>1215.24</ele>
        <time>2019-04-02T10:10:13Z</time>
      </trkpt>
      <trkpt lat="60.41353" lon="7.72367">
        <ele>1211.88</ele>
        <time>2019-04-02T10:10:16Z</time>
      </trkpt>
      <trkpt lat="60.41351" lon="7.7235">
        <ele>1211.88</ele>
        <time>2019-04-02T10:10:17Z</time>
      </trkpt>
      <trkpt lat="60.4135" lon="7.72333">
        <ele>1211.4</ele>
        <time>2019-04-02T10:10:18Z</time>
      </trkpt>
      <trkpt lat="60.41349" lon="7.72301">
        <ele>1210.44</ele>
        <time>2019-04-02T10:10:20Z</time>
      </trkpt>
      <trkpt lat="60.41344" lon="7.72242">
        <ele>1206.59</ele>
        <time>2019-04-02T10:10:23Z</time>
      </trkpt>
      <trkpt lat="60.41336" lon="7.72127">
        <ele>1204.67</ele>
        <time>2019-04-02T10:10:29Z</time>
      </trkpt>
      <trkpt lat="60.41319" lon="7.72036">
        <ele>1201.3</ele>
        <time>2019-04-02T10:10:35Z</time>
      </trkpt>
      <trkpt lat="60.41313" lon="7.72015">
        <ele>1199.86</ele>
        <time>2019-04-02T10:10:37Z</time>
      </trkpt>
      <trkpt lat="60.41306" lon="7.71994">
        <ele>1199.38</ele>
        <time>2019-04-02T10:10:39Z</time>
      </trkpt>
      <trkpt lat="60.41298" lon="7.71977">
        <ele>1196.98</ele>
        <time>2019-04-02T10:10:41Z</time>
      </trkpt>
      <trkpt lat="60.41299" lon="7.71962">
        <ele>1199.38</ele>
        <time>2019-04-02T10:10:43Z</time>
      </trkpt>
      <trkpt lat="60.41302" lon="7.71943">
        <ele>1199.38</ele>
        <time>2019-04-02T10:10:46Z</time>
      </trkpt>
      <trkpt lat="60.413" lon="7.71905">
        <ele>1196.02</ele>
        <time>2019-04-02T10:10:50Z</time>
      </trkpt>
      <trkpt lat="60.41295" lon="7.7188">
        <ele>1192.17</ele>
        <time>2019-04-02T10:10:52Z</time>
      </trkpt>
      <trkpt lat="60.41285" lon="7.71834">
        <ele>1186.4</ele>
        <time>2019-04-02T10:10:55Z</time>
      </trkpt>
      <trkpt lat="60.41281" lon="7.71822">
        <ele>1186.4</ele>
        <time>2019-04-02T10:10:56Z</time>
      </trkpt>
      <trkpt lat="60.41269" lon="7.71769">
        <ele>1182.56</ele>
        <time>2019-04-02T10:11:00Z</time>
      </trkpt>
      <trkpt lat="60.41267" lon="7.71758">
        <ele>1182.56</ele>
        <time>2019-04-02T10:11:01Z</time>
      </trkpt>
      <trkpt lat="60.41266" lon="7.71737">
        <ele>1184.48</ele>
        <time>2019-04-02T10:11:03Z</time>
      </trkpt>
      <trkpt lat="60.41261" lon="7.717">
        <ele>1179.19</ele>
        <time>2019-04-02T10:11:06Z</time>
      </trkpt>
      <trkpt lat="60.41254" lon="7.71673">
        <ele>1175.83</ele>
        <time>2019-04-02T10:11:08Z</time>
      </trkpt>
      <trkpt lat="60.4125" lon="7.71661">
        <ele>1175.35</ele>
        <time>2019-04-02T10:11:09Z</time>
      </trkpt>
      <trkpt lat="60.41235" lon="7.71609">
        <ele>1172.95</ele>
        <time>2019-04-02T10:11:14Z</time>
      </trkpt>
      <trkpt lat="60.41232" lon="7.71589">
        <ele>1170.54</ele>
        <time>2019-04-02T10:11:16Z</time>
      </trkpt>
      <trkpt lat="60.41228" lon="7.7156">
        <ele>1168.14</ele>
        <time>2019-04-02T10:11:19Z</time>
      </trkpt>
      <trkpt lat="60.41219" lon="7.71524">
        <ele>1163.33</ele>
        <time>2019-04-02T10:11:22Z</time>
      </trkpt>
      <trkpt lat="60.41208" lon="7.71458">
        <ele>1159.49</ele>
        <time>2019-04-02T10:11:27Z</time>
      </trkpt>
      <trkpt lat="60.41205" lon="7.71445">
        <ele>1156.12</ele>
        <time>2019-04-02T10:11:28Z</time>
      </trkpt>
      <trkpt lat="60.41201" lon="7.71432">
        <ele>1155.16</ele>
        <time>2019-04-02T10:11:29Z</time>
      </trkpt>
      <trkpt lat="60.41193" lon="7.71398">
        <ele>1149.87</ele>
        <time>2019-04-02T10:11:31Z</time>
      </trkpt>
      <trkpt lat="60.41183" lon="7.71336">
        <ele>1146.51</ele>
        <time>2019-04-02T10:11:34Z</time>
      </trkpt>
      <trkpt lat="60.41177" lon="7.71296">
        <ele>1143.63</ele>
        <time>2019-04-02T10:11:36Z</time>
      </trkpt>
      <trkpt lat="60.41173" lon="7.71277">
        <ele>1143.63</ele>
        <time>2019-04-02T10:11:37Z</time>
      </trkpt>
      <trkpt lat="60.41152" lon="7.71204">
        <ele>1139.78</ele>
        <time>2019-04-02T10:11:42Z</time>
      </trkpt>
      <trkpt lat="60.41143" lon="7.7117">
        <ele>1136.9</ele>
        <time>2019-04-02T10:11:44Z</time>
      </trkpt>
      <trkpt lat="60.41134" lon="7.71138">
        <ele>1134.97</ele>
        <time>2019-04-02T10:11:46Z</time>
      </trkpt>
      <trkpt lat="60.41121" lon="7.71093">
        <ele>1132.09</ele>
        <time>2019-04-02T10:11:49Z</time>
      </trkpt>
      <trkpt lat="60.41115" lon="7.71043">
        <ele>1129.21</ele>
        <time>2019-04-02T10:11:52Z</time>
      </trkpt>
      <trkpt lat="60.41113" lon="7.71025">
        <ele>1129.21</ele>
        <time>2019-04-02T10:11:53Z</time>
      </trkpt>
      <trkpt lat="60.41109" lon="7.7099">
        <ele>1128.24</ele>
        <time>2019-04-02T10:11:55Z</time>
      </trkpt>
      <trkpt lat="60.41106" lon="7.70951">
        <ele>1123.92</ele>
        <time>2019-04-02T10:11:57Z</time>
      </trkpt>
      <trkpt lat="60.41105" lon="7.70932">
        <ele>1123.92</ele>
        <time>2019-04-02T10:11:58Z</time>
      </trkpt>
      <trkpt lat="60.41105" lon="7.70877">
        <ele>1123.44</ele>
        <time>2019-04-02T10:12:01Z</time>
      </trkpt>
      <trkpt lat="60.41104" lon="7.7083">
        <ele>1122.48</ele>
        <time>2019-04-02T10:12:04Z</time>
      </trkpt>
      <trkpt lat="60.4111" lon="7.70732">
        <ele>1122</ele>
        <time>2019-04-02T10:12:09Z</time>
      </trkpt>
      <trkpt lat="60.41115" lon="7.70652">
        <ele>1120.07</ele>
        <time>2019-04-02T10:12:13Z</time>
      </trkpt>
      <trkpt lat="60.41118" lon="7.70609">
        <ele>1121.52</ele>
        <time>2019-04-02T10:12:15Z</time>
      </trkpt>
      <trkpt lat="60.4114" lon="7.70403">
        <ele>1122</ele>
        <time>2019-04-02T10:12:25Z</time>
      </trkpt>
      <trkpt lat="60.41144" lon="7.70341">
        <ele>1120.55</ele>
        <time>2019-04-02T10:12:28Z</time>
      </trkpt>
      <trkpt lat="60.41154" lon="7.70174">
        <ele>1122.48</ele>
        <time>2019-04-02T10:12:37Z</time>
      </trkpt>
      <trkpt lat="60.41159" lon="7.70097">
        <ele>1122.48</ele>
        <time>2019-04-02T10:12:41Z</time>
      </trkpt>
      <trkpt lat="60.41164" lon="7.70018">
        <ele>1122.48</ele>
        <time>2019-04-02T10:12:45Z</time>
      </trkpt>
      <trkpt lat="60.41172" lon="7.69863">
        <ele>1121.52</ele>
        <time>2019-04-02T10:12:53Z</time>
      </trkpt>
      <trkpt lat="60.41179" lon="7.69734">
        <ele>1122</ele>
        <time>2019-04-02T10:13:00Z</time>
      </trkpt>
      <trkpt lat="60.41181" lon="7.69697">
        <ele>1121.03</ele>
        <time>2019-04-02T10:13:02Z</time>
      </trkpt>
      <trkpt lat="60.41179" lon="7.69662">
        <ele>1123.92</ele>
        <time>2019-04-02T10:13:04Z</time>
      </trkpt>
      <trkpt lat="60.41179" lon="7.69548">
        <ele>1120.55</ele>
        <time>2019-04-02T10:13:10Z</time>
      </trkpt>
      <trkpt lat="60.41178" lon="7.69478">
        <ele>1124.88</ele>
        <time>2019-04-02T10:13:14Z</time>
      </trkpt>
      <trkpt lat="60.41177" lon="7.69443">
        <ele>1125.84</ele>
        <time>2019-04-02T10:13:16Z</time>
      </trkpt>
      <trkpt lat="60.41176" lon="7.69387">
        <ele>1127.28</ele>
        <time>2019-04-02T10:13:19Z</time>
      </trkpt>
      <trkpt lat="60.41179" lon="7.69349">
        <ele>1127.28</ele>
        <time>2019-04-02T10:13:21Z</time>
      </trkpt>
      <trkpt lat="60.41185" lon="7.6928">
        <ele>1129.69</ele>
        <time>2019-04-02T10:13:25Z</time>
      </trkpt>
      <trkpt lat="60.41192" lon="7.69166">
        <ele>1133.53</ele>
        <time>2019-04-02T10:13:33Z</time>
      </trkpt>
      <trkpt lat="60.41195" lon="7.69117">
        <ele>1134.01</ele>
        <time>2019-04-02T10:13:38Z</time>
      </trkpt>
      <trkpt lat="60.41198" lon="7.69074">
        <ele>1134.49</ele>
        <time>2019-04-02T10:13:43Z</time>
      </trkpt>
      <trkpt lat="60.412" lon="7.69056">
        <ele>1134.49</ele>
        <time>2019-04-02T10:13:45Z</time>
      </trkpt>
      <trkpt lat="60.41207" lon="7.69019">
        <ele>1134.97</ele>
        <time>2019-04-02T10:13:48Z</time>
      </trkpt>
      <trkpt lat="60.41213" lon="7.68995">
        <ele>1134.97</ele>
        <time>2019-04-02T10:13:50Z</time>
      </trkpt>
      <trkpt lat="60.41222" lon="7.68943">
        <ele>1134.97</ele>
        <time>2019-04-02T10:13:54Z</time>
      </trkpt>
      <trkpt lat="60.41233" lon="7.68879">
        <ele>1135.94</ele>
        <time>2019-04-02T10:14:03Z</time>
      </trkpt>
      <trkpt lat="60.41237" lon="7.68844">
        <ele>1137.86</ele>
        <time>2019-04-02T10:14:16Z</time>
      </trkpt>
      <trkpt lat="60.41234" lon="7.68824">
        <ele>1138.34</ele>
        <time>2019-04-02T10:14:19Z</time>
      </trkpt>
      <trkpt lat="60.41213" lon="7.68752">
        <ele>1140.74</ele>
        <time>2019-04-02T10:14:27Z</time>
      </trkpt>
      <trkpt lat="60.41209" lon="7.68732">
        <ele>1141.7</ele>
        <time>2019-04-02T10:14:29Z</time>
      </trkpt>
      <trkpt lat="60.41201" lon="7.68693">
        <ele>1142.66</ele>
        <time>2019-04-02T10:14:33Z</time>
      </trkpt>
      <trkpt lat="60.41193" lon="7.68653">
        <ele>1144.59</ele>
        <time>2019-04-02T10:14:37Z</time>
      </trkpt>
      <trkpt lat="60.41208" lon="7.68598">
        <ele>1145.07</ele>
        <time>2019-04-02T10:14:45Z</time>
      </trkpt>
      <trkpt lat="60.41241" lon="7.68592">
        <ele>1145.07</ele>
        <time>2019-04-02T10:14:50Z</time>
      </trkpt>
      <trkpt lat="60.41282" lon="7.686">
        <ele>1142.66</ele>
        <time>2019-04-02T10:14:55Z</time>
      </trkpt>
      <trkpt lat="60.41337" lon="7.68635">
        <ele>1137.86</ele>
        <time>2019-04-02T10:15:01Z</time>
      </trkpt>
      <trkpt lat="60.41385" lon="7.68659">
        <ele>1134.97</ele>
        <time>2019-04-02T10:15:06Z</time>
      </trkpt>
      <trkpt lat="60.41416" lon="7.68673">
        <ele>1131.61</ele>
        <time>2019-04-02T10:15:09Z</time>
      </trkpt>
      <trkpt lat="60.41449" lon="7.68683">
        <ele>1128.73</ele>
        <time>2019-04-02T10:15:12Z</time>
      </trkpt>
      <trkpt lat="60.41482" lon="7.68696">
        <ele>1125.84</ele>
        <time>2019-04-02T10:15:15Z</time>
      </trkpt>
      <trkpt lat="60.41575" lon="7.68739">
        <ele>1125.36</ele>
        <time>2019-04-02T10:15:26Z</time>
      </trkpt>
      <trkpt lat="60.41601" lon="7.68759">
        <ele>1125.36</ele>
        <time>2019-04-02T10:15:30Z</time>
      </trkpt>
      <trkpt lat="60.41617" lon="7.68788">
        <ele>1124.88</ele>
        <time>2019-04-02T10:15:38Z</time>
      </trkpt>
      <trkpt lat="60.41616" lon="7.68787">
        <ele>1124.88</ele>
        <time>2019-04-02T10:16:02Z</time>
      </trkpt>
      <trkpt lat="60.41617" lon="7.68786">
        <ele>1124.88</ele>
        <time>2019-04-02T10:16:26Z</time>
      </trkpt>
      <trkpt lat="60.41615" lon="7.68782">
        <ele>1124.4</ele>
        <time>2019-04-02T10:16:44Z</time>
      </trkpt>
      <trkpt lat="60.41613" lon="7.68777">
        <ele>1124.4</ele>
        <time>2019-04-02T10:17:04Z</time>
      </trkpt>
      <trkpt lat="60.41611" lon="7.68769">
        <ele>1124.4</ele>
        <time>2019-04-02T10:17:17Z</time>
      </trkpt>
      <trkpt lat="60.4161" lon="7.68767">
        <ele>1124.4</ele>
        <time>2019-04-02T10:17:30Z</time>
      </trkpt>
      <trkpt lat="60.4161" lon="7.68757">
        <ele>1124.4</ele>
        <time>2019-04-02T10:17:43Z</time>
      </trkpt>
      <trkpt lat="60.41609" lon="7.68751">
        <ele>1124.4</ele>
        <time>2019-04-02T10:17:45Z</time>
      </trkpt>
      <trkpt lat="60.41597" lon="7.68729">
        <ele>1123.92</ele>
        <time>2019-04-02T10:17:48Z</time>
      </trkpt>
      <trkpt lat="60.41559" lon="7.68646">
        <ele>1123.44</ele>
        <time>2019-04-02T10:17:57Z</time>
      </trkpt>
      <trkpt lat="60.41542" lon="7.68609">
        <ele>1125.84</ele>
        <time>2019-04-02T10:18:00Z</time>
      </trkpt>
      <trkpt lat="60.41535" lon="7.68597">
        <ele>1126.32</ele>
        <time>2019-04-02T10:18:01Z</time>
      </trkpt>
      <trkpt lat="60.41524" lon="7.6857">
        <ele>1124.4</ele>
        <time>2019-04-02T10:18:03Z</time>
      </trkpt>
      <trkpt lat="60.41512" lon="7.68545">
        <ele>1126.32</ele>
        <time>2019-04-02T10:18:05Z</time>
      </trkpt>
      <trkpt lat="60.41499" lon="7.68522">
        <ele>1124.88</ele>
        <time>2019-04-02T10:18:07Z</time>
      </trkpt>
      <trkpt lat="60.41493" lon="7.68512">
        <ele>1124.88</ele>
        <time>2019-04-02T10:18:08Z</time>
      </trkpt>
      <trkpt lat="60.41482" lon="7.68489">
        <ele>1126.8</ele>
        <time>2019-04-02T10:18:10Z</time>
      </trkpt>
      <trkpt lat="60.41459" lon="7.6843">
        <ele>1127.28</ele>
        <time>2019-04-02T10:18:15Z</time>
      </trkpt>
      <trkpt lat="60.4145" lon="7.68403">
        <ele>1128.24</ele>
        <time>2019-04-02T10:18:17Z</time>
      </trkpt>
      <trkpt lat="60.41436" lon="7.68364">
        <ele>1129.69</ele>
        <time>2019-04-02T10:18:20Z</time>
      </trkpt>
      <trkpt lat="60.41427" lon="7.68338">
        <ele>1127.76</ele>
        <time>2019-04-02T10:18:22Z</time>
      </trkpt>
      <trkpt lat="60.41412" lon="7.68298">
        <ele>1129.69</ele>
        <time>2019-04-02T10:18:25Z</time>
      </trkpt>
      <trkpt lat="60.41402" lon="7.68274">
        <ele>1130.17</ele>
        <time>2019-04-02T10:18:27Z</time>
      </trkpt>
      <trkpt lat="60.41384" lon="7.68222">
        <ele>1133.05</ele>
        <time>2019-04-02T10:18:31Z</time>
      </trkpt>
      <trkpt lat="60.41375" lon="7.68197">
        <ele>1134.01</ele>
        <time>2019-04-02T10:18:33Z</time>
      </trkpt>
      <trkpt lat="60.41334" lon="7.68078">
        <ele>1137.86</ele>
        <time>2019-04-02T10:18:42Z</time>
      </trkpt>
      <trkpt lat="60.41319" lon="7.68019">
        <ele>1140.74</ele>
        <time>2019-04-02T10:18:46Z</time>
      </trkpt>
      <trkpt lat="60.41308" lon="7.67972">
        <ele>1143.14</ele>
        <time>2019-04-02T10:18:49Z</time>
      </trkpt>
      <trkpt lat="60.41288" lon="7.67852">
        <ele>1142.18</ele>
        <time>2019-04-02T10:18:56Z</time>
      </trkpt>
      <trkpt lat="60.41276" lon="7.67789">
        <ele>1146.03</ele>
        <time>2019-04-02T10:19:00Z</time>
      </trkpt>
      <trkpt lat="60.41272" lon="7.67758">
        <ele>1146.99</ele>
        <time>2019-04-02T10:19:02Z</time>
      </trkpt>
      <trkpt lat="60.41269" lon="7.67711">
        <ele>1147.95</ele>
        <time>2019-04-02T10:19:05Z</time>
      </trkpt>
      <trkpt lat="60.4126" lon="7.67627">
        <ele>1146.03</ele>
        <time>2019-04-02T10:19:10Z</time>
      </trkpt>
      <trkpt lat="60.41255" lon="7.67594">
        <ele>1149.39</ele>
        <time>2019-04-02T10:19:12Z</time>
      </trkpt>
      <trkpt lat="60.41243" lon="7.67517">
        <ele>1152.76</ele>
        <time>2019-04-02T10:19:17Z</time>
      </trkpt>
      <trkpt lat="60.41237" lon="7.67487">
        <ele>1155.64</ele>
        <time>2019-04-02T10:19:19Z</time>
      </trkpt>
      <trkpt lat="60.41235" lon="7.67472">
        <ele>1156.12</ele>
        <time>2019-04-02T10:19:20Z</time>
      </trkpt>
      <trkpt lat="60.41231" lon="7.67443">
        <ele>1159.49</ele>
        <time>2019-04-02T10:19:22Z</time>
      </trkpt>
      <trkpt lat="60.41225" lon="7.67413">
        <ele>1159.97</ele>
        <time>2019-04-02T10:19:24Z</time>
      </trkpt>
      <trkpt lat="60.41221" lon="7.67399">
        <ele>1162.37</ele>
        <time>2019-04-02T10:19:25Z</time>
      </trkpt>
      <trkpt lat="60.41218" lon="7.67317">
        <ele>1167.18</ele>
        <time>2019-04-02T10:19:30Z</time>
      </trkpt>
      <trkpt lat="60.41218" lon="7.67247">
        <ele>1170.54</ele>
        <time>2019-04-02T10:19:34Z</time>
      </trkpt>
      <trkpt lat="60.41217" lon="7.67228">
        <ele>1168.62</ele>
        <time>2019-04-02T10:19:35Z</time>
      </trkpt>
      <trkpt lat="60.41205" lon="7.67164">
        <ele>1173.91</ele>
        <time>2019-04-02T10:19:39Z</time>
      </trkpt>
      <trkpt lat="60.4118" lon="7.67108">
        <ele>1176.31</ele>
        <time>2019-04-02T10:19:44Z</time>
      </trkpt>
      <trkpt lat="60.41167" lon="7.67086">
        <ele>1177.75</ele>
        <time>2019-04-02T10:19:47Z</time>
      </trkpt>
      <trkpt lat="60.4116" lon="7.6707">
        <ele>1179.67</ele>
        <time>2019-04-02T10:19:50Z</time>
      </trkpt>
      <trkpt lat="60.41149" lon="7.67035">
        <ele>1180.64</ele>
        <time>2019-04-02T10:19:59Z</time>
      </trkpt>
      <trkpt lat="60.41142" lon="7.67022">
        <ele>1182.56</ele>
        <time>2019-04-02T10:20:05Z</time>
      </trkpt>
      <trkpt lat="60.41148" lon="7.67018">
        <ele>1182.56</ele>
        <time>2019-04-02T10:20:17Z</time>
      </trkpt>
      <trkpt lat="60.41148" lon="7.67017">
        <ele>1182.56</ele>
        <time>2019-04-02T10:20:36Z</time>
      </trkpt>
      <trkpt lat="60.41147" lon="7.67017">
        <ele>1181.12</ele>
        <time>2019-04-02T10:20:53Z</time>
      </trkpt>
      <trkpt lat="60.41148" lon="7.67018">
        <ele>1182.56</ele>
        <time>2019-04-02T10:21:01Z</time>
      </trkpt>
      <trkpt lat="60.4115" lon="7.67018">
        <ele>1182.56</ele>
        <time>2019-04-02T10:21:18Z</time>
      </trkpt>
      <trkpt lat="60.41138" lon="7.66997">
        <ele>1181.12</ele>
        <time>2019-04-02T10:21:23Z</time>
      </trkpt>
      <trkpt lat="60.41111" lon="7.66969">
        <ele>1184.48</ele>
        <time>2019-04-02T10:21:28Z</time>
      </trkpt>
      <trkpt lat="60.41067" lon="7.66912">
        <ele>1185.92</ele>
        <time>2019-04-02T10:21:37Z</time>
      </trkpt>
      <trkpt lat="60.4104" lon="7.66858">
        <ele>1180.64</ele>
        <time>2019-04-02T10:21:42Z</time>
      </trkpt>
      <trkpt lat="60.40983" lon="7.66755">
        <ele>1184</ele>
        <time>2019-04-02T10:21:53Z</time>
      </trkpt>
      <trkpt lat="60.40978" lon="7.66745">
        <ele>1184</ele>
        <time>2019-04-02T10:21:54Z</time>
      </trkpt>
      <trkpt lat="60.40948" lon="7.66692">
        <ele>1183.04</ele>
        <time>2019-04-02T10:22:00Z</time>
      </trkpt>
      <trkpt lat="60.40942" lon="7.66683">
        <ele>1183.04</ele>
        <time>2019-04-02T10:22:01Z</time>
      </trkpt>
      <trkpt lat="60.40912" lon="7.66633">
        <ele>1181.6</ele>
        <time>2019-04-02T10:22:06Z</time>
      </trkpt>
      <trkpt lat="60.40877" lon="7.66577">
        <ele>1181.6</ele>
        <time>2019-04-02T10:22:12Z</time>
      </trkpt>
      <trkpt lat="60.40847" lon="7.6654">
        <ele>1181.12</ele>
        <time>2019-04-02T10:22:17Z</time>
      </trkpt>
      <trkpt lat="60.40828" lon="7.66523">
        <ele>1177.27</ele>
        <time>2019-04-02T10:22:20Z</time>
      </trkpt>
      <trkpt lat="60.40822" lon="7.66518">
        <ele>1177.27</ele>
        <time>2019-04-02T10:22:21Z</time>
      </trkpt>
      <trkpt lat="60.40816" lon="7.66513">
        <ele>1177.27</ele>
        <time>2019-04-02T10:22:22Z</time>
      </trkpt>
      <trkpt lat="60.40792" lon="7.66492">
        <ele>1172.47</ele>
        <time>2019-04-02T10:22:26Z</time>
      </trkpt>
      <trkpt lat="60.4078" lon="7.66478">
        <ele>1171.98</ele>
        <time>2019-04-02T10:22:28Z</time>
      </trkpt>
      <trkpt lat="60.40774" lon="7.6647">
        <ele>1173.43</ele>
        <time>2019-04-02T10:22:29Z</time>
      </trkpt>
      <trkpt lat="60.40767" lon="7.66462">
        <ele>1173.43</ele>
        <time>2019-04-02T10:22:30Z</time>
      </trkpt>
      <trkpt lat="60.40734" lon="7.6642">
        <ele>1172.47</ele>
        <time>2019-04-02T10:22:35Z</time>
      </trkpt>
      <trkpt lat="60.40721" lon="7.66405">
        <ele>1175.83</ele>
        <time>2019-04-02T10:22:37Z</time>
      </trkpt>
      <trkpt lat="60.40717" lon="7.664">
        <ele>1175.83</ele>
        <time>2019-04-02T10:22:38Z</time>
      </trkpt>
      <trkpt lat="60.40703" lon="7.66383">
        <ele>1176.31</ele>
        <time>2019-04-02T10:22:41Z</time>
      </trkpt>
      <trkpt lat="60.40685" lon="7.66346">
        <ele>1178.71</ele>
        <time>2019-04-02T10:22:46Z</time>
      </trkpt>
      <trkpt lat="60.40677" lon="7.66322">
        <ele>1179.19</ele>
        <time>2019-04-02T10:22:48Z</time>
      </trkpt>
      <trkpt lat="60.40667" lon="7.66294">
        <ele>1177.75</ele>
        <time>2019-04-02T10:22:50Z</time>
      </trkpt>
      <trkpt lat="60.40646" lon="7.66251">
        <ele>1171.98</ele>
        <time>2019-04-02T10:22:53Z</time>
      </trkpt>
      <trkpt lat="60.40606" lon="7.66188">
        <ele>1175.83</ele>
        <time>2019-04-02T10:22:58Z</time>
      </trkpt>
      <trkpt lat="60.40599" lon="7.66176">
        <ele>1176.31</ele>
        <time>2019-04-02T10:22:59Z</time>
      </trkpt>
      <trkpt lat="60.40586" lon="7.66154">
        <ele>1181.12</ele>
        <time>2019-04-02T10:23:01Z</time>
      </trkpt>
      <trkpt lat="60.40576" lon="7.6613">
        <ele>1184.48</ele>
        <time>2019-04-02T10:23:03Z</time>
      </trkpt>
      <trkpt lat="60.40556" lon="7.66087">
        <ele>1189.29</ele>
        <time>2019-04-02T10:23:07Z</time>
      </trkpt>
      <trkpt lat="60.40545" lon="7.66066">
        <ele>1193.13</ele>
        <time>2019-04-02T10:23:09Z</time>
      </trkpt>
      <trkpt lat="60.40528" lon="7.66045">
        <ele>1198.42</ele>
        <time>2019-04-02T10:23:12Z</time>
      </trkpt>
      <trkpt lat="60.40522" lon="7.66038">
        <ele>1197.46</ele>
        <time>2019-04-02T10:23:13Z</time>
      </trkpt>
      <trkpt lat="60.405" lon="7.66006">
        <ele>1201.79</ele>
        <time>2019-04-02T10:23:17Z</time>
      </trkpt>
      <trkpt lat="60.40478" lon="7.65974">
        <ele>1204.67</ele>
        <time>2019-04-02T10:23:21Z</time>
      </trkpt>
      <trkpt lat="60.40459" lon="7.65955">
        <ele>1207.55</ele>
        <time>2019-04-02T10:23:24Z</time>
      </trkpt>
      <trkpt lat="60.40443" lon="7.6593">
        <ele>1209.96</ele>
        <time>2019-04-02T10:23:27Z</time>
      </trkpt>
      <trkpt lat="60.40423" lon="7.65888">
        <ele>1215.72</ele>
        <time>2019-04-02T10:23:31Z</time>
      </trkpt>
      <trkpt lat="60.40415" lon="7.65867">
        <ele>1216.69</ele>
        <time>2019-04-02T10:23:33Z</time>
      </trkpt>
      <trkpt lat="60.40405" lon="7.65836">
        <ele>1219.09</ele>
        <time>2019-04-02T10:23:36Z</time>
      </trkpt>
      <trkpt lat="60.40388" lon="7.65785">
        <ele>1223.42</ele>
        <time>2019-04-02T10:23:41Z</time>
      </trkpt>
      <trkpt lat="60.40376" lon="7.65757">
        <ele>1224.86</ele>
        <time>2019-04-02T10:23:44Z</time>
      </trkpt>
      <trkpt lat="60.40365" lon="7.65727">
        <ele>1226.3</ele>
        <time>2019-04-02T10:23:47Z</time>
      </trkpt>
      <trkpt lat="60.40354" lon="7.65697">
        <ele>1224.86</ele>
        <time>2019-04-02T10:23:50Z</time>
      </trkpt>
      <trkpt lat="60.40341" lon="7.65666">
        <ele>1226.78</ele>
        <time>2019-04-02T10:23:53Z</time>
      </trkpt>
      <trkpt lat="60.40295" lon="7.65561">
        <ele>1229.66</ele>
        <time>2019-04-02T10:24:02Z</time>
      </trkpt>
      <trkpt lat="60.40292" lon="7.6555">
        <ele>1229.66</ele>
        <time>2019-04-02T10:24:03Z</time>
      </trkpt>
      <trkpt lat="60.4028" lon="7.65511">
        <ele>1232.07</ele>
        <time>2019-04-02T10:24:07Z</time>
      </trkpt>
      <trkpt lat="60.40262" lon="7.65476">
        <ele>1232.55</ele>
        <time>2019-04-02T10:24:11Z</time>
      </trkpt>
      <trkpt lat="60.4024" lon="7.65451">
        <ele>1230.62</ele>
        <time>2019-04-02T10:24:15Z</time>
      </trkpt>
      <trkpt lat="60.40229" lon="7.65436">
        <ele>1232.07</ele>
        <time>2019-04-02T10:24:17Z</time>
      </trkpt>
      <trkpt lat="60.40221" lon="7.65418">
        <ele>1228.7</ele>
        <time>2019-04-02T10:24:19Z</time>
      </trkpt>
      <trkpt lat="60.40216" lon="7.6541">
        <ele>1228.7</ele>
        <time>2019-04-02T10:24:20Z</time>
      </trkpt>
      <trkpt lat="60.40204" lon="7.65381">
        <ele>1229.18</ele>
        <time>2019-04-02T10:24:25Z</time>
      </trkpt>
      <trkpt lat="60.40204" lon="7.6537">
        <ele>1230.62</ele>
        <time>2019-04-02T10:24:30Z</time>
      </trkpt>
      <trkpt lat="60.40204" lon="7.65369">
        <ele>1230.14</ele>
        <time>2019-04-02T10:24:31Z</time>
      </trkpt>
      <trkpt lat="60.40195" lon="7.6534">
        <ele>1230.14</ele>
        <time>2019-04-02T10:24:37Z</time>
      </trkpt>
      <trkpt lat="60.40184" lon="7.65304">
        <ele>1227.26</ele>
        <time>2019-04-02T10:24:41Z</time>
      </trkpt>
      <trkpt lat="60.40176" lon="7.65289">
        <ele>1226.78</ele>
        <time>2019-04-02T10:24:43Z</time>
      </trkpt>
      <trkpt lat="60.40165" lon="7.65276">
        <ele>1225.34</ele>
        <time>2019-04-02T10:24:45Z</time>
      </trkpt>
      <trkpt lat="60.40161" lon="7.65266">
        <ele>1223.42</ele>
        <time>2019-04-02T10:24:46Z</time>
      </trkpt>
      <trkpt lat="60.40141" lon="7.65228">
        <ele>1218.61</ele>
        <time>2019-04-02T10:24:50Z</time>
      </trkpt>
      <trkpt lat="60.40129" lon="7.65212">
        <ele>1214.28</ele>
        <time>2019-04-02T10:24:52Z</time>
      </trkpt>
      <trkpt lat="60.40115" lon="7.6519">
        <ele>1209.48</ele>
        <time>2019-04-02T10:24:54Z</time>
      </trkpt>
      <trkpt lat="60.40101" lon="7.65159">
        <ele>1204.19</ele>
        <time>2019-04-02T10:24:56Z</time>
      </trkpt>
      <trkpt lat="60.40087" lon="7.65136">
        <ele>1201.79</ele>
        <time>2019-04-02T10:24:58Z</time>
      </trkpt>
      <trkpt lat="60.40063" lon="7.65097">
        <ele>1199.38</ele>
        <time>2019-04-02T10:25:02Z</time>
      </trkpt>
      <trkpt lat="60.40049" lon="7.65071">
        <ele>1201.3</ele>
        <time>2019-04-02T10:25:05Z</time>
      </trkpt>
      <trkpt lat="60.40031" lon="7.6504">
        <ele>1197.46</ele>
        <time>2019-04-02T10:25:08Z</time>
      </trkpt>
      <trkpt lat="60.40025" lon="7.6503">
        <ele>1197.46</ele>
        <time>2019-04-02T10:25:09Z</time>
      </trkpt>
      <trkpt lat="60.40013" lon="7.65009">
        <ele>1196.5</ele>
        <time>2019-04-02T10:25:11Z</time>
      </trkpt>
      <trkpt lat="60.40002" lon="7.6498">
        <ele>1198.9</ele>
        <time>2019-04-02T10:25:14Z</time>
      </trkpt>
      <trkpt lat="60.4" lon="7.64969">
        <ele>1198.9</ele>
        <time>2019-04-02T10:25:15Z</time>
      </trkpt>
      <trkpt lat="60.39994" lon="7.64936">
        <ele>1196.5</ele>
        <time>2019-04-02T10:25:18Z</time>
      </trkpt>
      <trkpt lat="60.39981" lon="7.64897">
        <ele>1195.54</ele>
        <time>2019-04-02T10:25:22Z</time>
      </trkpt>
      <trkpt lat="60.39968" lon="7.64875">
        <ele>1194.09</ele>
        <time>2019-04-02T10:25:26Z</time>
      </trkpt>
      <trkpt lat="60.39962" lon="7.6486">
        <ele>1193.13</ele>
        <time>2019-04-02T10:25:28Z</time>
      </trkpt>
      <trkpt lat="60.39952" lon="7.64838">
        <ele>1191.69</ele>
        <time>2019-04-02T10:25:31Z</time>
      </trkpt>
      <trkpt lat="60.39944" lon="7.64786">
        <ele>1187.85</ele>
        <time>2019-04-02T10:25:36Z</time>
      </trkpt>
      <trkpt lat="60.39943" lon="7.64759">
        <ele>1185.92</ele>
        <time>2019-04-02T10:25:38Z</time>
      </trkpt>
      <trkpt lat="60.39936" lon="7.64712">
        <ele>1183.04</ele>
        <time>2019-04-02T10:25:41Z</time>
      </trkpt>
      <trkpt lat="60.39915" lon="7.64658">
        <ele>1177.75</ele>
        <time>2019-04-02T10:25:45Z</time>
      </trkpt>
      <trkpt lat="60.39903" lon="7.64634">
        <ele>1176.79</ele>
        <time>2019-04-02T10:25:47Z</time>
      </trkpt>
      <trkpt lat="60.39893" lon="7.64606">
        <ele>1175.83</ele>
        <time>2019-04-02T10:25:49Z</time>
      </trkpt>
      <trkpt lat="60.39875" lon="7.64535">
        <ele>1172.95</ele>
        <time>2019-04-02T10:25:54Z</time>
      </trkpt>
      <trkpt lat="60.39862" lon="7.64494">
        <ele>1169.58</ele>
        <time>2019-04-02T10:25:57Z</time>
      </trkpt>
      <trkpt lat="60.39841" lon="7.64451">
        <ele>1165.74</ele>
        <time>2019-04-02T10:26:00Z</time>
      </trkpt>
      <trkpt lat="60.39826" lon="7.64422">
        <ele>1161.89</ele>
        <time>2019-04-02T10:26:02Z</time>
      </trkpt>
      <trkpt lat="60.39819" lon="7.64408">
        <ele>1161.89</ele>
        <time>2019-04-02T10:26:03Z</time>
      </trkpt>
      <trkpt lat="60.39782" lon="7.64348">
        <ele>1162.37</ele>
        <time>2019-04-02T10:26:08Z</time>
      </trkpt>
      <trkpt lat="60.39752" lon="7.64299">
        <ele>1166.22</ele>
        <time>2019-04-02T10:26:13Z</time>
      </trkpt>
      <trkpt lat="60.39739" lon="7.64252">
        <ele>1166.7</ele>
        <time>2019-04-02T10:26:17Z</time>
      </trkpt>
      <trkpt lat="60.39729" lon="7.64217">
        <ele>1166.7</ele>
        <time>2019-04-02T10:26:20Z</time>
      </trkpt>
      <trkpt lat="60.39718" lon="7.64154">
        <ele>1167.66</ele>
        <time>2019-04-02T10:26:25Z</time>
      </trkpt>
      <trkpt lat="60.39712" lon="7.64126">
        <ele>1167.66</ele>
        <time>2019-04-02T10:26:27Z</time>
      </trkpt>
      <trkpt lat="60.39691" lon="7.63976">
        <ele>1167.66</ele>
        <time>2019-04-02T10:26:37Z</time>
      </trkpt>
      <trkpt lat="60.39687" lon="7.63949">
        <ele>1166.22</ele>
        <time>2019-04-02T10:26:39Z</time>
      </trkpt>
      <trkpt lat="60.39671" lon="7.63868">
        <ele>1166.22</ele>
        <time>2019-04-02T10:26:45Z</time>
      </trkpt>
      <trkpt lat="60.39652" lon="7.63792">
        <ele>1165.74</ele>
        <time>2019-04-02T10:26:51Z</time>
      </trkpt>
      <trkpt lat="60.3965" lon="7.63768">
        <ele>1165.74</ele>
        <time>2019-04-02T10:26:53Z</time>
      </trkpt>
      <trkpt lat="60.3964" lon="7.6373">
        <ele>1165.74</ele>
        <time>2019-04-02T10:26:56Z</time>
      </trkpt>
      <trkpt lat="60.39632" lon="7.63705">
        <ele>1167.18</ele>
        <time>2019-04-02T10:26:58Z</time>
      </trkpt>
      <trkpt lat="60.39627" lon="7.63675">
        <ele>1165.74</ele>
        <time>2019-04-02T10:27:00Z</time>
      </trkpt>
      <trkpt lat="60.39626" lon="7.63664">
        <ele>1165.74</ele>
        <time>2019-04-02T10:27:01Z</time>
      </trkpt>
      <trkpt lat="60.39612" lon="7.63587">
        <ele>1167.66</ele>
        <time>2019-04-02T10:27:08Z</time>
      </trkpt>
      <trkpt lat="60.3961" lon="7.63576">
        <ele>1167.66</ele>
        <time>2019-04-02T10:27:09Z</time>
      </trkpt>
      <trkpt lat="60.39607" lon="7.6355">
        <ele>1167.66</ele>
        <time>2019-04-02T10:27:11Z</time>
      </trkpt>
      <trkpt lat="60.39602" lon="7.63523">
        <ele>1167.66</ele>
        <time>2019-04-02T10:27:13Z</time>
      </trkpt>
      <trkpt lat="60.39593" lon="7.63464">
        <ele>1167.66</ele>
        <time>2019-04-02T10:27:17Z</time>
      </trkpt>
      <trkpt lat="60.39585" lon="7.634">
        <ele>1168.14</ele>
        <time>2019-04-02T10:27:21Z</time>
      </trkpt>
      <trkpt lat="60.39585" lon="7.63356">
        <ele>1168.14</ele>
        <time>2019-04-02T10:27:24Z</time>
      </trkpt>
      <trkpt lat="60.39575" lon="7.63183">
        <ele>1169.1</ele>
        <time>2019-04-02T10:27:34Z</time>
      </trkpt>
      <trkpt lat="60.39551" lon="7.63024">
        <ele>1171.98</ele>
        <time>2019-04-02T10:27:43Z</time>
      </trkpt>
      <trkpt lat="60.39532" lon="7.62926">
        <ele>1173.43</ele>
        <time>2019-04-02T10:27:49Z</time>
      </trkpt>
      <trkpt lat="60.3953" lon="7.62912">
        <ele>1174.39</ele>
        <time>2019-04-02T10:27:50Z</time>
      </trkpt>
      <trkpt lat="60.39517" lon="7.62819">
        <ele>1175.83</ele>
        <time>2019-04-02T10:27:56Z</time>
      </trkpt>
      <trkpt lat="60.39511" lon="7.62767">
        <ele>1176.31</ele>
        <time>2019-04-02T10:28:00Z</time>
      </trkpt>
      <trkpt lat="60.39506" lon="7.62741">
        <ele>1177.27</ele>
        <time>2019-04-02T10:28:02Z</time>
      </trkpt>
      <trkpt lat="60.395" lon="7.62691">
        <ele>1177.75</ele>
        <time>2019-04-02T10:28:07Z</time>
      </trkpt>
      <trkpt lat="60.39494" lon="7.6267">
        <ele>1177.75</ele>
        <time>2019-04-02T10:28:09Z</time>
      </trkpt>
      <trkpt lat="60.39491" lon="7.62648">
        <ele>1179.19</ele>
        <time>2019-04-02T10:28:11Z</time>
      </trkpt>
      <trkpt lat="60.39486" lon="7.62594">
        <ele>1179.67</ele>
        <time>2019-04-02T10:28:15Z</time>
      </trkpt>
      <trkpt lat="60.39478" lon="7.62541">
        <ele>1180.64</ele>
        <time>2019-04-02T10:28:19Z</time>
      </trkpt>
      <trkpt lat="60.39469" lon="7.62502">
        <ele>1182.08</ele>
        <time>2019-04-02T10:28:22Z</time>
      </trkpt>
      <trkpt lat="60.39465" lon="7.6248">
        <ele>1182.56</ele>
        <time>2019-04-02T10:28:24Z</time>
      </trkpt>
      <trkpt lat="60.39463" lon="7.62439">
        <ele>1182.56</ele>
        <time>2019-04-02T10:28:28Z</time>
      </trkpt>
      <trkpt lat="60.39462" lon="7.62403">
        <ele>1183.04</ele>
        <time>2019-04-02T10:28:32Z</time>
      </trkpt>
      <trkpt lat="60.39459" lon="7.62386">
        <ele>1183.52</ele>
        <time>2019-04-02T10:28:34Z</time>
      </trkpt>
      <trkpt lat="60.39454" lon="7.62332">
        <ele>1184.96</ele>
        <time>2019-04-02T10:28:40Z</time>
      </trkpt>
      <trkpt lat="60.39449" lon="7.62314">
        <ele>1185.92</ele>
        <time>2019-04-02T10:28:42Z</time>
      </trkpt>
      <trkpt lat="60.39446" lon="7.6228">
        <ele>1185.92</ele>
        <time>2019-04-02T10:28:48Z</time>
      </trkpt>
      <trkpt lat="60.39448" lon="7.62266">
        <ele>1186.4</ele>
        <time>2019-04-02T10:28:51Z</time>
      </trkpt>
      <trkpt lat="60.39443" lon="7.62185">
        <ele>1188.81</ele>
        <time>2019-04-02T10:29:01Z</time>
      </trkpt>
      <trkpt lat="60.39443" lon="7.62179">
        <ele>1189.29</ele>
        <time>2019-04-02T10:29:02Z</time>
      </trkpt>
      <trkpt lat="60.39444" lon="7.62149">
        <ele>1189.77</ele>
        <time>2019-04-02T10:29:07Z</time>
      </trkpt>
      <trkpt lat="60.39441" lon="7.62091">
        <ele>1192.17</ele>
        <time>2019-04-02T10:29:14Z</time>
      </trkpt>
      <trkpt lat="60.39462" lon="7.62046">
        <ele>1192.65</ele>
        <time>2019-04-02T10:29:22Z</time>
      </trkpt>
      <trkpt lat="60.39495" lon="7.62011">
        <ele>1188.81</ele>
        <time>2019-04-02T10:29:27Z</time>
      </trkpt>
      <trkpt lat="60.39554" lon="7.61936">
        <ele>1185.92</ele>
        <time>2019-04-02T10:29:36Z</time>
      </trkpt>
      <trkpt lat="60.39568" lon="7.61918">
        <ele>1185.92</ele>
        <time>2019-04-02T10:29:39Z</time>
      </trkpt>
      <trkpt lat="60.39586" lon="7.61905">
        <ele>1185.92</ele>
        <time>2019-04-02T10:29:42Z</time>
      </trkpt>
      <trkpt lat="60.39605" lon="7.61878">
        <ele>1184.96</ele>
        <time>2019-04-02T10:29:46Z</time>
      </trkpt>
      <trkpt lat="60.39644" lon="7.61822">
        <ele>1184.96</ele>
        <time>2019-04-02T10:29:53Z</time>
      </trkpt>
      <trkpt lat="60.39669" lon="7.61795">
        <ele>1184.96</ele>
        <time>2019-04-02T10:29:57Z</time>
      </trkpt>
      <trkpt lat="60.39685" lon="7.61786">
        <ele>1184.96</ele>
        <time>2019-04-02T10:30:01Z</time>
      </trkpt>
      <trkpt lat="60.39722" lon="7.61797">
        <ele>1183.52</ele>
        <time>2019-04-02T10:30:06Z</time>
      </trkpt>
      <trkpt lat="60.39776" lon="7.61799">
        <ele>1182.56</ele>
        <time>2019-04-02T10:30:12Z</time>
      </trkpt>
      <trkpt lat="60.39817" lon="7.61779">
        <ele>1184</ele>
        <time>2019-04-02T10:30:19Z</time>
      </trkpt>
      <trkpt lat="60.3981" lon="7.61765">
        <ele>1183.52</ele>
        <time>2019-04-02T10:30:26Z</time>
      </trkpt>
      <trkpt lat="60.39797" lon="7.61754">
        <ele>1183.52</ele>
        <time>2019-04-02T10:30:35Z</time>
      </trkpt>
      <trkpt lat="60.39785" lon="7.61746">
        <ele>1180.16</ele>
        <time>2019-04-02T10:30:37Z</time>
      </trkpt>
      <trkpt lat="60.39768" lon="7.61723">
        <ele>1182.08</ele>
        <time>2019-04-02T10:30:40Z</time>
      </trkpt>
      <trkpt lat="60.39761" lon="7.61712">
        <ele>1182.56</ele>
        <time>2019-04-02T10:30:41Z</time>
      </trkpt>
      <trkpt lat="60.39742" lon="7.61671">
        <ele>1181.6</ele>
        <time>2019-04-02T10:30:45Z</time>
      </trkpt>
      <trkpt lat="60.39729" lon="7.61632">
        <ele>1182.56</ele>
        <time>2019-04-02T10:30:48Z</time>
      </trkpt>
      <trkpt lat="60.39721" lon="7.61605">
        <ele>1184</ele>
        <time>2019-04-02T10:30:50Z</time>
      </trkpt>
      <trkpt lat="60.39717" lon="7.61592">
        <ele>1182.08</ele>
        <time>2019-04-02T10:30:51Z</time>
      </trkpt>
      <trkpt lat="60.39711" lon="7.61566">
        <ele>1181.12</ele>
        <time>2019-04-02T10:30:53Z</time>
      </trkpt>
      <trkpt lat="60.39714" lon="7.6155">
        <ele>1182.56</ele>
        <time>2019-04-02T10:30:55Z</time>
      </trkpt>
      <trkpt lat="60.39736" lon="7.61512">
        <ele>1182.56</ele>
        <time>2019-04-02T10:31:01Z</time>
      </trkpt>
      <trkpt lat="60.39766" lon="7.6149">
        <ele>1183.04</ele>
        <time>2019-04-02T10:31:07Z</time>
      </trkpt>
      <trkpt lat="60.39781" lon="7.61474">
        <ele>1183.52</ele>
        <time>2019-04-02T10:31:11Z</time>
      </trkpt>
      <trkpt lat="60.39794" lon="7.61466">
        <ele>1184</ele>
        <time>2019-04-02T10:31:16Z</time>
      </trkpt>
      <trkpt lat="60.39802" lon="7.61471">
        <ele>1185.44</ele>
        <time>2019-04-02T10:31:25Z</time>
      </trkpt>
      <trkpt lat="60.39801" lon="7.61469">
        <ele>1185.44</ele>
        <time>2019-04-02T10:31:45Z</time>
      </trkpt>
      <trkpt lat="60.398" lon="7.61468">
        <ele>1184</ele>
        <time>2019-04-02T10:31:59Z</time>
      </trkpt>
      <trkpt lat="60.39799" lon="7.61469">
        <ele>1184</ele>
        <time>2019-04-02T10:32:01Z</time>
      </trkpt>
      <trkpt lat="60.39792" lon="7.61476">
        <ele>1181.6</ele>
        <time>2019-04-02T10:32:06Z</time>
      </trkpt>
      <trkpt lat="60.39791" lon="7.61477">
        <ele>1182.56</ele>
        <time>2019-04-02T10:32:22Z</time>
      </trkpt>
      <trkpt lat="60.39788" lon="7.61473">
        <ele>1184</ele>
        <time>2019-04-02T10:32:43Z</time>
      </trkpt>
      <trkpt lat="60.39784" lon="7.6147">
        <ele>1182.56</ele>
        <time>2019-04-02T10:32:48Z</time>
      </trkpt>
      <trkpt lat="60.3978" lon="7.61471">
        <ele>1183.52</ele>
        <time>2019-04-02T10:32:54Z</time>
      </trkpt>
      <trkpt lat="60.39765" lon="7.61476">
        <ele>1180.64</ele>
        <time>2019-04-02T10:32:59Z</time>
      </trkpt>
      <trkpt lat="60.39756" lon="7.61479">
        <ele>1180.64</ele>
        <time>2019-04-02T10:33:01Z</time>
      </trkpt>
      <trkpt lat="60.39746" lon="7.61481">
        <ele>1182.08</ele>
        <time>2019-04-02T10:33:03Z</time>
      </trkpt>
      <trkpt lat="60.39715" lon="7.61483">
        <ele>1179.19</ele>
        <time>2019-04-02T10:33:08Z</time>
      </trkpt>
      <trkpt lat="60.39702" lon="7.61482">
        <ele>1179.19</ele>
        <time>2019-04-02T10:33:10Z</time>
      </trkpt>
      <trkpt lat="60.39683" lon="7.61484">
        <ele>1179.19</ele>
        <time>2019-04-02T10:33:13Z</time>
      </trkpt>
      <trkpt lat="60.39665" lon="7.61484">
        <ele>1183.04</ele>
        <time>2019-04-02T10:33:16Z</time>
      </trkpt>
      <trkpt lat="60.39659" lon="7.61483">
        <ele>1183.52</ele>
        <time>2019-04-02T10:33:17Z</time>
      </trkpt>
      <trkpt lat="60.39613" lon="7.6147">
        <ele>1185.92</ele>
        <time>2019-04-02T10:33:26Z</time>
      </trkpt>
      <trkpt lat="60.39578" lon="7.61452">
        <ele>1187.85</ele>
        <time>2019-04-02T10:33:33Z</time>
      </trkpt>
      <trkpt lat="60.39554" lon="7.61437">
        <ele>1188.81</ele>
        <time>2019-04-02T10:33:38Z</time>
      </trkpt>
      <trkpt lat="60.39535" lon="7.61427">
        <ele>1190.73</ele>
        <time>2019-04-02T10:33:42Z</time>
      </trkpt>
      <trkpt lat="60.39509" lon="7.6141">
        <ele>1193.13</ele>
        <time>2019-04-02T10:33:48Z</time>
      </trkpt>
      <trkpt lat="60.39484" lon="7.61386">
        <ele>1188.33</ele>
        <time>2019-04-02T10:33:53Z</time>
      </trkpt>
      <trkpt lat="60.39478" lon="7.6138">
        <ele>1188.33</ele>
        <time>2019-04-02T10:33:54Z</time>
      </trkpt>
      <trkpt lat="60.39471" lon="7.61372">
        <ele>1188.33</ele>
        <time>2019-04-02T10:33:55Z</time>
      </trkpt>
      <trkpt lat="60.39442" lon="7.61344">
        <ele>1191.69</ele>
        <time>2019-04-02T10:34:00Z</time>
      </trkpt>
      <trkpt lat="60.39431" lon="7.61333">
        <ele>1193.61</ele>
        <time>2019-04-02T10:34:02Z</time>
      </trkpt>
      <trkpt lat="60.39402" lon="7.61313">
        <ele>1196.5</ele>
        <time>2019-04-02T10:34:07Z</time>
      </trkpt>
      <trkpt lat="60.39397" lon="7.61309">
        <ele>1196.5</ele>
        <time>2019-04-02T10:34:08Z</time>
      </trkpt>
      <trkpt lat="60.39366" lon="7.61296">
        <ele>1197.94</ele>
        <time>2019-04-02T10:34:14Z</time>
      </trkpt>
      <trkpt lat="60.39356" lon="7.6129">
        <ele>1198.42</ele>
        <time>2019-04-02T10:34:16Z</time>
      </trkpt>
      <trkpt lat="60.39347" lon="7.6128">
        <ele>1198.42</ele>
        <time>2019-04-02T10:34:18Z</time>
      </trkpt>
      <trkpt lat="60.39322" lon="7.61254">
        <ele>1199.86</ele>
        <time>2019-04-02T10:34:23Z</time>
      </trkpt>
      <trkpt lat="60.39313" lon="7.61242">
        <ele>1201.3</ele>
        <time>2019-04-02T10:34:25Z</time>
      </trkpt>
      <trkpt lat="60.39305" lon="7.61232">
        <ele>1201.79</ele>
        <time>2019-04-02T10:34:27Z</time>
      </trkpt>
      <trkpt lat="60.39299" lon="7.61221">
        <ele>1201.79</ele>
        <time>2019-04-02T10:34:29Z</time>
      </trkpt>
      <trkpt lat="60.39271" lon="7.61183">
        <ele>1204.19</ele>
        <time>2019-04-02T10:34:38Z</time>
      </trkpt>
      <trkpt lat="60.39266" lon="7.61176">
        <ele>1204.19</ele>
        <time>2019-04-02T10:34:40Z</time>
      </trkpt>
      <trkpt lat="60.39249" lon="7.61143">
        <ele>1205.63</ele>
        <time>2019-04-02T10:34:48Z</time>
      </trkpt>
      <trkpt lat="60.39234" lon="7.61127">
        <ele>1207.07</ele>
        <time>2019-04-02T10:34:52Z</time>
      </trkpt>
      <trkpt lat="60.39217" lon="7.61108">
        <ele>1209.48</ele>
        <time>2019-04-02T10:34:56Z</time>
      </trkpt>
      <trkpt lat="60.39209" lon="7.61096">
        <ele>1209.48</ele>
        <time>2019-04-02T10:34:58Z</time>
      </trkpt>
      <trkpt lat="60.39173" lon="7.61057">
        <ele>1213.32</ele>
        <time>2019-04-02T10:35:04Z</time>
      </trkpt>
      <trkpt lat="60.39148" lon="7.61034">
        <ele>1216.69</ele>
        <time>2019-04-02T10:35:08Z</time>
      </trkpt>
      <trkpt lat="60.39129" lon="7.61017">
        <ele>1221.01</ele>
        <time>2019-04-02T10:35:12Z</time>
      </trkpt>
      <trkpt lat="60.39113" lon="7.60994">
        <ele>1224.38</ele>
        <time>2019-04-02T10:35:16Z</time>
      </trkpt>
      <trkpt lat="60.39091" lon="7.60971">
        <ele>1225.82</ele>
        <time>2019-04-02T10:35:20Z</time>
      </trkpt>
      <trkpt lat="60.3906" lon="7.60938">
        <ele>1224.38</ele>
        <time>2019-04-02T10:35:25Z</time>
      </trkpt>
      <trkpt lat="60.39041" lon="7.60912">
        <ele>1227.74</ele>
        <time>2019-04-02T10:35:28Z</time>
      </trkpt>
      <trkpt lat="60.39035" lon="7.60903">
        <ele>1227.74</ele>
        <time>2019-04-02T10:35:29Z</time>
      </trkpt>
      <trkpt lat="60.39023" lon="7.60885">
        <ele>1229.18</ele>
        <time>2019-04-02T10:35:31Z</time>
      </trkpt>
      <trkpt lat="60.39006" lon="7.60858">
        <ele>1230.14</ele>
        <time>2019-04-02T10:35:34Z</time>
      </trkpt>
      <trkpt lat="60.38989" lon="7.6084">
        <ele>1235.43</ele>
        <time>2019-04-02T10:35:37Z</time>
      </trkpt>
      <trkpt lat="60.38984" lon="7.60835">
        <ele>1235.43</ele>
        <time>2019-04-02T10:35:38Z</time>
      </trkpt>
      <trkpt lat="60.38953" lon="7.60812">
        <ele>1234.47</ele>
        <time>2019-04-02T10:35:46Z</time>
      </trkpt>
      <trkpt lat="60.3895" lon="7.6081">
        <ele>1233.99</ele>
        <time>2019-04-02T10:35:53Z</time>
      </trkpt>
      <trkpt lat="60.38946" lon="7.60798">
        <ele>1233.99</ele>
        <time>2019-04-02T10:36:03Z</time>
      </trkpt>
      <trkpt lat="60.3894" lon="7.60774">
        <ele>1233.51</ele>
        <time>2019-04-02T10:36:14Z</time>
      </trkpt>
      <trkpt lat="60.38939" lon="7.6077">
        <ele>1233.51</ele>
        <time>2019-04-02T10:36:15Z</time>
      </trkpt>
      <trkpt lat="60.38917" lon="7.60738">
        <ele>1234.95</ele>
        <time>2019-04-02T10:36:24Z</time>
      </trkpt>
      <trkpt lat="60.38913" lon="7.60732">
        <ele>1235.91</ele>
        <time>2019-04-02T10:36:25Z</time>
      </trkpt>
      <trkpt lat="60.38906" lon="7.6072">
        <ele>1236.39</ele>
        <time>2019-04-02T10:36:27Z</time>
      </trkpt>
      <trkpt lat="60.389" lon="7.60705">
        <ele>1236.87</ele>
        <time>2019-04-02T10:36:29Z</time>
      </trkpt>
      <trkpt lat="60.38886" lon="7.60664">
        <ele>1239.76</ele>
        <time>2019-04-02T10:36:34Z</time>
      </trkpt>
      <trkpt lat="60.38865" lon="7.60621">
        <ele>1241.68</ele>
        <time>2019-04-02T10:36:39Z</time>
      </trkpt>
      <trkpt lat="60.3884" lon="7.60596">
        <ele>1242.64</ele>
        <time>2019-04-02T10:36:44Z</time>
      </trkpt>
      <trkpt lat="60.38824" lon="7.6057">
        <ele>1243.12</ele>
        <time>2019-04-02T10:36:48Z</time>
      </trkpt>
      <trkpt lat="60.38811" lon="7.60552">
        <ele>1243.6</ele>
        <time>2019-04-02T10:36:51Z</time>
      </trkpt>
      <trkpt lat="60.38785" lon="7.60496">
        <ele>1244.56</ele>
        <time>2019-04-02T10:36:58Z</time>
      </trkpt>
      <trkpt lat="60.38776" lon="7.60476">
        <ele>1246.01</ele>
        <time>2019-04-02T10:37:00Z</time>
      </trkpt>
      <trkpt lat="60.38764" lon="7.60448">
        <ele>1246.49</ele>
        <time>2019-04-02T10:37:03Z</time>
      </trkpt>
      <trkpt lat="60.38747" lon="7.60416">
        <ele>1247.93</ele>
        <time>2019-04-02T10:37:07Z</time>
      </trkpt>
      <trkpt lat="60.38743" lon="7.6041">
        <ele>1247.93</ele>
        <time>2019-04-02T10:37:08Z</time>
      </trkpt>
      <trkpt lat="60.38726" lon="7.60385">
        <ele>1247.93</ele>
        <time>2019-04-02T10:37:13Z</time>
      </trkpt>
      <trkpt lat="60.38716" lon="7.60357">
        <ele>1246.97</ele>
        <time>2019-04-02T10:37:17Z</time>
      </trkpt>
      <trkpt lat="60.3869" lon="7.60261">
        <ele>1250.33</ele>
        <time>2019-04-02T10:37:25Z</time>
      </trkpt>
      <trkpt lat="60.38675" lon="7.60225">
        <ele>1250.81</ele>
        <time>2019-04-02T10:37:28Z</time>
      </trkpt>
      <trkpt lat="60.38665" lon="7.60202">
        <ele>1251.77</ele>
        <time>2019-04-02T10:37:30Z</time>
      </trkpt>
      <trkpt lat="60.38653" lon="7.60167">
        <ele>1253.22</ele>
        <time>2019-04-02T10:37:33Z</time>
      </trkpt>
      <trkpt lat="60.38618" lon="7.60081">
        <ele>1255.62</ele>
        <time>2019-04-02T10:37:41Z</time>
      </trkpt>
      <trkpt lat="60.38597" lon="7.60015">
        <ele>1257.54</ele>
        <time>2019-04-02T10:37:47Z</time>
      </trkpt>
      <trkpt lat="60.38581" lon="7.59977">
        <ele>1258.02</ele>
        <time>2019-04-02T10:37:51Z</time>
      </trkpt>
      <trkpt lat="60.38545" lon="7.59884">
        <ele>1259.94</ele>
        <time>2019-04-02T10:38:01Z</time>
      </trkpt>
      <trkpt lat="60.38537" lon="7.59865">
        <ele>1259.94</ele>
        <time>2019-04-02T10:38:03Z</time>
      </trkpt>
      <trkpt lat="60.38525" lon="7.59843">
        <ele>1261.39</ele>
        <time>2019-04-02T10:38:06Z</time>
      </trkpt>
      <trkpt lat="60.38515" lon="7.59823">
        <ele>1262.83</ele>
        <time>2019-04-02T10:38:09Z</time>
      </trkpt>
      <trkpt lat="60.38509" lon="7.59806">
        <ele>1263.31</ele>
        <time>2019-04-02T10:38:11Z</time>
      </trkpt>
      <trkpt lat="60.38493" lon="7.59767">
        <ele>1264.75</ele>
        <time>2019-04-02T10:38:15Z</time>
      </trkpt>
      <trkpt lat="60.38478" lon="7.59736">
        <ele>1265.71</ele>
        <time>2019-04-02T10:38:18Z</time>
      </trkpt>
      <trkpt lat="60.38464" lon="7.59701">
        <ele>1264.75</ele>
        <time>2019-04-02T10:38:21Z</time>
      </trkpt>
      <trkpt lat="60.38448" lon="7.59672">
        <ele>1267.16</ele>
        <time>2019-04-02T10:38:24Z</time>
      </trkpt>
      <trkpt lat="60.38418" lon="7.59605">
        <ele>1269.08</ele>
        <time>2019-04-02T10:38:30Z</time>
      </trkpt>
      <trkpt lat="60.38413" lon="7.59596">
        <ele>1267.64</ele>
        <time>2019-04-02T10:38:31Z</time>
      </trkpt>
      <trkpt lat="60.38394" lon="7.59552">
        <ele>1267.64</ele>
        <time>2019-04-02T10:38:35Z</time>
      </trkpt>
      <trkpt lat="60.3837" lon="7.59496">
        <ele>1270.04</ele>
        <time>2019-04-02T10:38:40Z</time>
      </trkpt>
      <trkpt lat="60.38365" lon="7.59484">
        <ele>1270.04</ele>
        <time>2019-04-02T10:38:41Z</time>
      </trkpt>
      <trkpt lat="60.38346" lon="7.59452">
        <ele>1274.36</ele>
        <time>2019-04-02T10:38:46Z</time>
      </trkpt>
      <trkpt lat="60.38338" lon="7.59434">
        <ele>1275.33</ele>
        <time>2019-04-02T10:38:49Z</time>
      </trkpt>
      <trkpt lat="60.38329" lon="7.59421">
        <ele>1276.29</ele>
        <time>2019-04-02T10:38:52Z</time>
      </trkpt>
      <trkpt lat="60.3832" lon="7.5941">
        <ele>1277.73</ele>
        <time>2019-04-02T10:38:55Z</time>
      </trkpt>
      <trkpt lat="60.38308" lon="7.59394">
        <ele>1279.65</ele>
        <time>2019-04-02T10:38:58Z</time>
      </trkpt>
      <trkpt lat="60.38304" lon="7.59389">
        <ele>1280.13</ele>
        <time>2019-04-02T10:38:59Z</time>
      </trkpt>
      <trkpt lat="60.38289" lon="7.5936">
        <ele>1280.13</ele>
        <time>2019-04-02T10:39:03Z</time>
      </trkpt>
      <trkpt lat="60.38264" lon="7.59322">
        <ele>1278.21</ele>
        <time>2019-04-02T10:39:08Z</time>
      </trkpt>
      <trkpt lat="60.38248" lon="7.59294">
        <ele>1281.09</ele>
        <time>2019-04-02T10:39:11Z</time>
      </trkpt>
      <trkpt lat="60.38232" lon="7.59265">
        <ele>1278.69</ele>
        <time>2019-04-02T10:39:14Z</time>
      </trkpt>
      <trkpt lat="60.38217" lon="7.5924">
        <ele>1281.09</ele>
        <time>2019-04-02T10:39:17Z</time>
      </trkpt>
      <trkpt lat="60.38213" lon="7.59231">
        <ele>1277.73</ele>
        <time>2019-04-02T10:39:18Z</time>
      </trkpt>
      <trkpt lat="60.38189" lon="7.59188">
        <ele>1280.61</ele>
        <time>2019-04-02T10:39:23Z</time>
      </trkpt>
      <trkpt lat="60.3816" lon="7.59121">
        <ele>1281.09</ele>
        <time>2019-04-02T10:39:30Z</time>
      </trkpt>
      <trkpt lat="60.38144" lon="7.59091">
        <ele>1283.98</ele>
        <time>2019-04-02T10:39:34Z</time>
      </trkpt>
      <trkpt lat="60.38101" lon="7.58961">
        <ele>1285.42</ele>
        <time>2019-04-02T10:39:47Z</time>
      </trkpt>
      <trkpt lat="60.38097" lon="7.58949">
        <ele>1285.42</ele>
        <time>2019-04-02T10:39:48Z</time>
      </trkpt>
      <trkpt lat="60.3809" lon="7.58923">
        <ele>1284.46</ele>
        <time>2019-04-02T10:39:50Z</time>
      </trkpt>
      <trkpt lat="60.38078" lon="7.58871">
        <ele>1283.98</ele>
        <time>2019-04-02T10:39:54Z</time>
      </trkpt>
      <trkpt lat="60.3807" lon="7.58844">
        <ele>1283.98</ele>
        <time>2019-04-02T10:39:56Z</time>
      </trkpt>
      <trkpt lat="60.38061" lon="7.58806">
        <ele>1287.82</ele>
        <time>2019-04-02T10:39:59Z</time>
      </trkpt>
      <trkpt lat="60.3805" lon="7.58768">
        <ele>1285.42</ele>
        <time>2019-04-02T10:40:02Z</time>
      </trkpt>
      <trkpt lat="60.38042" lon="7.58742">
        <ele>1286.86</ele>
        <time>2019-04-02T10:40:04Z</time>
      </trkpt>
      <trkpt lat="60.38027" lon="7.58695">
        <ele>1287.82</ele>
        <time>2019-04-02T10:40:08Z</time>
      </trkpt>
      <trkpt lat="60.38012" lon="7.58644">
        <ele>1288.3</ele>
        <time>2019-04-02T10:40:13Z</time>
      </trkpt>
      <trkpt lat="60.37998" lon="7.58609">
        <ele>1290.71</ele>
        <time>2019-04-02T10:40:17Z</time>
      </trkpt>
      <trkpt lat="60.37977" lon="7.58564">
        <ele>1292.63</ele>
        <time>2019-04-02T10:40:23Z</time>
      </trkpt>
      <trkpt lat="60.37969" lon="7.5854">
        <ele>1292.63</ele>
        <time>2019-04-02T10:40:26Z</time>
      </trkpt>
      <trkpt lat="60.37952" lon="7.58503">
        <ele>1292.15</ele>
        <time>2019-04-02T10:40:30Z</time>
      </trkpt>
      <trkpt lat="60.3794" lon="7.58479">
        <ele>1293.11</ele>
        <time>2019-04-02T10:40:33Z</time>
      </trkpt>
      <trkpt lat="60.37926" lon="7.58451">
        <ele>1291.67</ele>
        <time>2019-04-02T10:40:36Z</time>
      </trkpt>
      <trkpt lat="60.3791" lon="7.58418">
        <ele>1290.23</ele>
        <time>2019-04-02T10:40:39Z</time>
      </trkpt>
      <trkpt lat="60.37905" lon="7.58407">
        <ele>1288.3</ele>
        <time>2019-04-02T10:40:40Z</time>
      </trkpt>
      <trkpt lat="60.3789" lon="7.58382">
        <ele>1292.63</ele>
        <time>2019-04-02T10:40:43Z</time>
      </trkpt>
      <trkpt lat="60.37878" lon="7.58358">
        <ele>1293.11</ele>
        <time>2019-04-02T10:40:46Z</time>
      </trkpt>
      <trkpt lat="60.37871" lon="7.58342">
        <ele>1291.67</ele>
        <time>2019-04-02T10:40:48Z</time>
      </trkpt>
      <trkpt lat="60.37857" lon="7.58315">
        <ele>1295.03</ele>
        <time>2019-04-02T10:40:52Z</time>
      </trkpt>
      <trkpt lat="60.37836" lon="7.58273">
        <ele>1295.03</ele>
        <time>2019-04-02T10:40:58Z</time>
      </trkpt>
      <trkpt lat="60.37823" lon="7.58248">
        <ele>1293.59</ele>
        <time>2019-04-02T10:41:01Z</time>
      </trkpt>
      <trkpt lat="60.37797" lon="7.58198">
        <ele>1289.27</ele>
        <time>2019-04-02T10:41:06Z</time>
      </trkpt>
      <trkpt lat="60.37785" lon="7.58178">
        <ele>1285.9</ele>
        <time>2019-04-02T10:41:08Z</time>
      </trkpt>
      <trkpt lat="60.37761" lon="7.58136">
        <ele>1282.06</ele>
        <time>2019-04-02T10:41:12Z</time>
      </trkpt>
      <trkpt lat="60.37756" lon="7.58126">
        <ele>1282.06</ele>
        <time>2019-04-02T10:41:13Z</time>
      </trkpt>
      <trkpt lat="60.37712" lon="7.58052">
        <ele>1282.54</ele>
        <time>2019-04-02T10:41:21Z</time>
      </trkpt>
      <trkpt lat="60.3769" lon="7.5802">
        <ele>1278.21</ele>
        <time>2019-04-02T10:41:25Z</time>
      </trkpt>
      <trkpt lat="60.37684" lon="7.58011">
        <ele>1278.21</ele>
        <time>2019-04-02T10:41:26Z</time>
      </trkpt>
      <trkpt lat="60.37672" lon="7.57991">
        <ele>1276.29</ele>
        <time>2019-04-02T10:41:28Z</time>
      </trkpt>
      <trkpt lat="60.37659" lon="7.57972">
        <ele>1277.73</ele>
        <time>2019-04-02T10:41:30Z</time>
      </trkpt>
      <trkpt lat="60.37652" lon="7.57965">
        <ele>1279.17</ele>
        <time>2019-04-02T10:41:31Z</time>
      </trkpt>
      <trkpt lat="60.37642" lon="7.5795">
        <ele>1281.57</ele>
        <time>2019-04-02T10:41:33Z</time>
      </trkpt>
      <trkpt lat="60.37632" lon="7.57934">
        <ele>1282.54</ele>
        <time>2019-04-02T10:41:35Z</time>
      </trkpt>
      <trkpt lat="60.37608" lon="7.57882">
        <ele>1280.13</ele>
        <time>2019-04-02T10:41:40Z</time>
      </trkpt>
      <trkpt lat="60.37599" lon="7.57863">
        <ele>1280.13</ele>
        <time>2019-04-02T10:41:42Z</time>
      </trkpt>
      <trkpt lat="60.3758" lon="7.57838">
        <ele>1281.09</ele>
        <time>2019-04-02T10:41:46Z</time>
      </trkpt>
      <trkpt lat="60.37572" lon="7.57825">
        <ele>1282.06</ele>
        <time>2019-04-02T10:41:48Z</time>
      </trkpt>
      <trkpt lat="60.37563" lon="7.5781">
        <ele>1278.21</ele>
        <time>2019-04-02T10:41:50Z</time>
      </trkpt>
      <trkpt lat="60.37558" lon="7.57801">
        <ele>1278.21</ele>
        <time>2019-04-02T10:41:51Z</time>
      </trkpt>
      <trkpt lat="60.37552" lon="7.57791">
        <ele>1279.65</ele>
        <time>2019-04-02T10:41:52Z</time>
      </trkpt>
      <trkpt lat="60.37529" lon="7.57758">
        <ele>1277.25</ele>
        <time>2019-04-02T10:41:56Z</time>
      </trkpt>
      <trkpt lat="60.37508" lon="7.57715">
        <ele>1276.29</ele>
        <time>2019-04-02T10:42:00Z</time>
      </trkpt>
      <trkpt lat="60.37498" lon="7.57694">
        <ele>1278.21</ele>
        <time>2019-04-02T10:42:02Z</time>
      </trkpt>
      <trkpt lat="60.3749" lon="7.57677">
        <ele>1279.17</ele>
        <time>2019-04-02T10:42:04Z</time>
      </trkpt>
      <trkpt lat="60.37484" lon="7.57661">
        <ele>1280.13</ele>
        <time>2019-04-02T10:42:06Z</time>
      </trkpt>
      <trkpt lat="60.37479" lon="7.5765">
        <ele>1281.57</ele>
        <time>2019-04-02T10:42:08Z</time>
      </trkpt>
      <trkpt lat="60.37468" lon="7.57625">
        <ele>1285.42</ele>
        <time>2019-04-02T10:42:13Z</time>
      </trkpt>
      <trkpt lat="60.37465" lon="7.5762">
        <ele>1285.42</ele>
        <time>2019-04-02T10:42:14Z</time>
      </trkpt>
      <trkpt lat="60.37452" lon="7.57591">
        <ele>1285.9</ele>
        <time>2019-04-02T10:42:19Z</time>
      </trkpt>
      <trkpt lat="60.37441" lon="7.57567">
        <ele>1287.34</ele>
        <time>2019-04-02T10:42:23Z</time>
      </trkpt>
      <trkpt lat="60.37434" lon="7.57544">
        <ele>1288.78</ele>
        <time>2019-04-02T10:42:26Z</time>
      </trkpt>
      <trkpt lat="60.37424" lon="7.57517">
        <ele>1288.78</ele>
        <time>2019-04-02T10:42:29Z</time>
      </trkpt>
      <trkpt lat="60.37393" lon="7.57428">
        <ele>1289.75</ele>
        <time>2019-04-02T10:42:40Z</time>
      </trkpt>
      <trkpt lat="60.37381" lon="7.57407">
        <ele>1290.71</ele>
        <time>2019-04-02T10:42:44Z</time>
      </trkpt>
      <trkpt lat="60.37371" lon="7.57384">
        <ele>1290.23</ele>
        <time>2019-04-02T10:42:47Z</time>
      </trkpt>
      <trkpt lat="60.37363" lon="7.57369">
        <ele>1288.78</ele>
        <time>2019-04-02T10:42:49Z</time>
      </trkpt>
      <trkpt lat="60.37356" lon="7.57355">
        <ele>1292.15</ele>
        <time>2019-04-02T10:42:52Z</time>
      </trkpt>
      <trkpt lat="60.3735" lon="7.57347">
        <ele>1291.67</ele>
        <time>2019-04-02T10:42:58Z</time>
      </trkpt>
      <trkpt lat="60.37346" lon="7.57342">
        <ele>1292.63</ele>
        <time>2019-04-02T10:43:03Z</time>
      </trkpt>
      <trkpt lat="60.37339" lon="7.57311">
        <ele>1291.67</ele>
        <time>2019-04-02T10:43:10Z</time>
      </trkpt>
      <trkpt lat="60.37341" lon="7.57288">
        <ele>1291.67</ele>
        <time>2019-04-02T10:43:15Z</time>
      </trkpt>
      <trkpt lat="60.37344" lon="7.57271">
        <ele>1291.19</ele>
        <time>2019-04-02T10:43:18Z</time>
      </trkpt>
      <trkpt lat="60.37367" lon="7.57284">
        <ele>1291.67</ele>
        <time>2019-04-02T10:43:24Z</time>
      </trkpt>
      <trkpt lat="60.37373" lon="7.57336">
        <ele>1293.11</ele>
        <time>2019-04-02T10:43:28Z</time>
      </trkpt>
      <trkpt lat="60.37376" lon="7.57362">
        <ele>1293.59</ele>
        <time>2019-04-02T10:43:30Z</time>
      </trkpt>
      <trkpt lat="60.3738" lon="7.57387">
        <ele>1293.59</ele>
        <time>2019-04-02T10:43:32Z</time>
      </trkpt>
      <trkpt lat="60.37384" lon="7.5741">
        <ele>1293.59</ele>
        <time>2019-04-02T10:43:34Z</time>
      </trkpt>
      <trkpt lat="60.37385" lon="7.57466">
        <ele>1294.55</ele>
        <time>2019-04-02T10:43:39Z</time>
      </trkpt>
      <trkpt lat="60.37385" lon="7.5751">
        <ele>1295.99</ele>
        <time>2019-04-02T10:43:43Z</time>
      </trkpt>
      <trkpt lat="60.37392" lon="7.5762">
        <ele>1297.92</ele>
        <time>2019-04-02T10:43:53Z</time>
      </trkpt>
      <trkpt lat="60.37395" lon="7.57671">
        <ele>1299.84</ele>
        <time>2019-04-02T10:43:57Z</time>
      </trkpt>
      <trkpt lat="60.37397" lon="7.57719">
        <ele>1301.76</ele>
        <time>2019-04-02T10:44:01Z</time>
      </trkpt>
      <trkpt lat="60.37398" lon="7.57772">
        <ele>1303.2</ele>
        <time>2019-04-02T10:44:06Z</time>
      </trkpt>
      <trkpt lat="60.37399" lon="7.57794">
        <ele>1303.69</ele>
        <time>2019-04-02T10:44:08Z</time>
      </trkpt>
      <trkpt lat="60.37398" lon="7.57806">
        <ele>1303.69</ele>
        <time>2019-04-02T10:44:09Z</time>
      </trkpt>
      <trkpt lat="60.37398" lon="7.57839">
        <ele>1305.13</ele>
        <time>2019-04-02T10:44:12Z</time>
      </trkpt>
      <trkpt lat="60.37397" lon="7.57886">
        <ele>1307.05</ele>
        <time>2019-04-02T10:44:16Z</time>
      </trkpt>
      <trkpt lat="60.37398" lon="7.57924">
        <ele>1308.01</ele>
        <time>2019-04-02T10:44:19Z</time>
      </trkpt>
      <trkpt lat="60.37404" lon="7.58042">
        <ele>1309.45</ele>
        <time>2019-04-02T10:44:29Z</time>
      </trkpt>
      <trkpt lat="60.37412" lon="7.58147">
        <ele>1309.93</ele>
        <time>2019-04-02T10:44:37Z</time>
      </trkpt>
      <trkpt lat="60.37415" lon="7.58187">
        <ele>1308.01</ele>
        <time>2019-04-02T10:44:40Z</time>
      </trkpt>
      <trkpt lat="60.3742" lon="7.58252">
        <ele>1307.53</ele>
        <time>2019-04-02T10:44:44Z</time>
      </trkpt>
      <trkpt lat="60.37434" lon="7.5837">
        <ele>1306.09</ele>
        <time>2019-04-02T10:44:51Z</time>
      </trkpt>
      <trkpt lat="60.37437" lon="7.58414">
        <ele>1307.05</ele>
        <time>2019-04-02T10:44:54Z</time>
      </trkpt>
      <trkpt lat="60.37439" lon="7.58425">
        <ele>1308.01</ele>
        <time>2019-04-02T10:44:56Z</time>
      </trkpt>
      <trkpt lat="60.37434" lon="7.58412">
        <ele>1304.17</ele>
        <time>2019-04-02T10:44:59Z</time>
      </trkpt>
      <trkpt lat="60.37429" lon="7.58405">
        <ele>1298.4</ele>
        <time>2019-04-02T10:45:00Z</time>
      </trkpt>
      <trkpt lat="60.37404" lon="7.58367">
        <ele>1298.4</ele>
        <time>2019-04-02T10:45:04Z</time>
      </trkpt>
      <trkpt lat="60.3739" lon="7.5834">
        <ele>1302.72</ele>
        <time>2019-04-02T10:45:07Z</time>
      </trkpt>
      <trkpt lat="60.37382" lon="7.5832">
        <ele>1305.13</ele>
        <time>2019-04-02T10:45:09Z</time>
      </trkpt>
      <trkpt lat="60.37373" lon="7.58299">
        <ele>1305.13</ele>
        <time>2019-04-02T10:45:11Z</time>
      </trkpt>
      <trkpt lat="60.37357" lon="7.58269">
        <ele>1306.57</ele>
        <time>2019-04-02T10:45:14Z</time>
      </trkpt>
      <trkpt lat="60.3734" lon="7.58243">
        <ele>1308.49</ele>
        <time>2019-04-02T10:45:17Z</time>
      </trkpt>
      <trkpt lat="60.37304" lon="7.58201">
        <ele>1306.57</ele>
        <time>2019-04-02T10:45:23Z</time>
      </trkpt>
      <trkpt lat="60.37291" lon="7.5819">
        <ele>1303.69</ele>
        <time>2019-04-02T10:45:25Z</time>
      </trkpt>
      <trkpt lat="60.37271" lon="7.58172">
        <ele>1301.28</ele>
        <time>2019-04-02T10:45:28Z</time>
      </trkpt>
      <trkpt lat="60.37244" lon="7.58141">
        <ele>1297.92</ele>
        <time>2019-04-02T10:45:32Z</time>
      </trkpt>
      <trkpt lat="60.37218" lon="7.58112">
        <ele>1300.8</ele>
        <time>2019-04-02T10:45:36Z</time>
      </trkpt>
      <trkpt lat="60.37205" lon="7.58095">
        <ele>1303.2</ele>
        <time>2019-04-02T10:45:38Z</time>
      </trkpt>
      <trkpt lat="60.37199" lon="7.58088">
        <ele>1299.84</ele>
        <time>2019-04-02T10:45:39Z</time>
      </trkpt>
      <trkpt lat="60.37192" lon="7.5808">
        <ele>1300.32</ele>
        <time>2019-04-02T10:45:40Z</time>
      </trkpt>
      <trkpt lat="60.37152" lon="7.58021">
        <ele>1299.36</ele>
        <time>2019-04-02T10:45:46Z</time>
      </trkpt>
      <trkpt lat="60.37122" lon="7.57957">
        <ele>1300.8</ele>
        <time>2019-04-02T10:45:51Z</time>
      </trkpt>
      <trkpt lat="60.37115" lon="7.57942">
        <ele>1297.44</ele>
        <time>2019-04-02T10:45:52Z</time>
      </trkpt>
      <trkpt lat="60.37098" lon="7.57895">
        <ele>1300.8</ele>
        <time>2019-04-02T10:45:55Z</time>
      </trkpt>
      <trkpt lat="60.37093" lon="7.57881">
        <ele>1301.76</ele>
        <time>2019-04-02T10:45:56Z</time>
      </trkpt>
      <trkpt lat="60.37084" lon="7.5786">
        <ele>1308.97</ele>
        <time>2019-04-02T10:45:58Z</time>
      </trkpt>
      <trkpt lat="60.3708" lon="7.57851">
        <ele>1307.53</ele>
        <time>2019-04-02T10:45:59Z</time>
      </trkpt>
      <trkpt lat="60.37082" lon="7.57855">
        <ele>1308.97</ele>
        <time>2019-04-02T10:46:04Z</time>
      </trkpt>
      <trkpt lat="60.37082" lon="7.5788">
        <ele>1309.93</ele>
        <time>2019-04-02T10:46:06Z</time>
      </trkpt>
      <trkpt lat="60.3708" lon="7.57921">
        <ele>1307.05</ele>
        <time>2019-04-02T10:46:10Z</time>
      </trkpt>
      <trkpt lat="60.37082" lon="7.57928">
        <ele>1305.13</ele>
        <time>2019-04-02T10:46:15Z</time>
      </trkpt>
      <trkpt lat="60.37093" lon="7.5796">
        <ele>1307.05</ele>
        <time>2019-04-02T10:46:22Z</time>
      </trkpt>
      <trkpt lat="60.37093" lon="7.57991">
        <ele>1307.53</ele>
        <time>2019-04-02T10:46:24Z</time>
      </trkpt>
      <trkpt lat="60.37099" lon="7.58089">
        <ele>1306.09</ele>
        <time>2019-04-02T10:46:30Z</time>
      </trkpt>
      <trkpt lat="60.37116" lon="7.58219">
        <ele>1306.09</ele>
        <time>2019-04-02T10:46:38Z</time>
      </trkpt>
      <trkpt lat="60.37124" lon="7.58232">
        <ele>1303.2</ele>
        <time>2019-04-02T10:46:41Z</time>
      </trkpt>
      <trkpt lat="60.37114" lon="7.58204">
        <ele>1301.76</ele>
        <time>2019-04-02T10:46:45Z</time>
      </trkpt>
      <trkpt lat="60.37091" lon="7.58158">
        <ele>1297.44</ele>
        <time>2019-04-02T10:46:49Z</time>
      </trkpt>
      <trkpt lat="60.37078" lon="7.58136">
        <ele>1300.32</ele>
        <time>2019-04-02T10:46:51Z</time>
      </trkpt>
      <trkpt lat="60.37065" lon="7.5812">
        <ele>1301.28</ele>
        <time>2019-04-02T10:46:53Z</time>
      </trkpt>
      <trkpt lat="60.37053" lon="7.58103">
        <ele>1297.92</ele>
        <time>2019-04-02T10:46:55Z</time>
      </trkpt>
      <trkpt lat="60.37047" lon="7.58095">
        <ele>1297.92</ele>
        <time>2019-04-02T10:46:56Z</time>
      </trkpt>
      <trkpt lat="60.37042" lon="7.58086">
        <ele>1297.92</ele>
        <time>2019-04-02T10:46:57Z</time>
      </trkpt>
      <trkpt lat="60.37025" lon="7.58055">
        <ele>1297.44</ele>
        <time>2019-04-02T10:47:00Z</time>
      </trkpt>
      <trkpt lat="60.37017" lon="7.58029">
        <ele>1295.51</ele>
        <time>2019-04-02T10:47:02Z</time>
      </trkpt>
      <trkpt lat="60.37013" lon="7.58014">
        <ele>1301.28</ele>
        <time>2019-04-02T10:47:03Z</time>
      </trkpt>
      <trkpt lat="60.36993" lon="7.57965">
        <ele>1303.69</ele>
        <time>2019-04-02T10:47:08Z</time>
      </trkpt>
      <trkpt lat="60.36976" lon="7.57954">
        <ele>1300.8</ele>
        <time>2019-04-02T10:47:13Z</time>
      </trkpt>
      <trkpt lat="60.36973" lon="7.57953">
        <ele>1303.69</ele>
        <time>2019-04-02T10:47:15Z</time>
      </trkpt>
      <trkpt lat="60.36972" lon="7.57952">
        <ele>1301.76</ele>
        <time>2019-04-02T10:47:17Z</time>
      </trkpt>
      <trkpt lat="60.36972" lon="7.57951">
        <ele>1306.57</ele>
        <time>2019-04-02T10:47:19Z</time>
      </trkpt>
      <trkpt lat="60.36972" lon="7.5795">
        <ele>1307.53</ele>
        <time>2019-04-02T10:47:20Z</time>
      </trkpt>
      <trkpt lat="60.36969" lon="7.57947">
        <ele>1301.28</ele>
        <time>2019-04-02T10:47:23Z</time>
      </trkpt>
      <trkpt lat="60.36967" lon="7.57947">
        <ele>1301.28</ele>
        <time>2019-04-02T10:47:24Z</time>
      </trkpt>
      <trkpt lat="60.36959" lon="7.57945">
        <ele>1298.88</ele>
        <time>2019-04-02T10:47:27Z</time>
      </trkpt>
      <trkpt lat="60.36947" lon="7.57944">
        <ele>1295.03</ele>
        <time>2019-04-02T10:47:30Z</time>
      </trkpt>
      <trkpt lat="60.36936" lon="7.5794">
        <ele>1290.23</ele>
        <time>2019-04-02T10:47:32Z</time>
      </trkpt>
      <trkpt lat="60.36922" lon="7.57933">
        <ele>1287.82</ele>
        <time>2019-04-02T10:47:34Z</time>
      </trkpt>
      <trkpt lat="60.36907" lon="7.57926">
        <ele>1284.94</ele>
        <time>2019-04-02T10:47:36Z</time>
      </trkpt>
      <trkpt lat="60.36887" lon="7.57919">
        <ele>1281.57</ele>
        <time>2019-04-02T10:47:39Z</time>
      </trkpt>
      <trkpt lat="60.3688" lon="7.57916">
        <ele>1281.57</ele>
        <time>2019-04-02T10:47:40Z</time>
      </trkpt>
      <trkpt lat="60.3686" lon="7.57902">
        <ele>1279.17</ele>
        <time>2019-04-02T10:47:43Z</time>
      </trkpt>
      <trkpt lat="60.36832" lon="7.57873">
        <ele>1276.77</ele>
        <time>2019-04-02T10:47:47Z</time>
      </trkpt>
      <trkpt lat="60.36811" lon="7.57835">
        <ele>1269.56</ele>
        <time>2019-04-02T10:47:50Z</time>
      </trkpt>
      <trkpt lat="60.3679" lon="7.57798">
        <ele>1269.08</ele>
        <time>2019-04-02T10:47:53Z</time>
      </trkpt>
      <trkpt lat="60.36771" lon="7.57773">
        <ele>1268.12</ele>
        <time>2019-04-02T10:47:56Z</time>
      </trkpt>
      <trkpt lat="60.36765" lon="7.57766">
        <ele>1269.56</ele>
        <time>2019-04-02T10:47:57Z</time>
      </trkpt>
      <trkpt lat="60.36747" lon="7.57753">
        <ele>1270.52</ele>
        <time>2019-04-02T10:48:01Z</time>
      </trkpt>
      <trkpt lat="60.36738" lon="7.57748">
        <ele>1269.08</ele>
        <time>2019-04-02T10:48:03Z</time>
      </trkpt>
      <trkpt lat="60.36726" lon="7.57738">
        <ele>1266.67</ele>
        <time>2019-04-02T10:48:06Z</time>
      </trkpt>
      <trkpt lat="60.36722" lon="7.5773">
        <ele>1271.48</ele>
        <time>2019-04-02T10:48:08Z</time>
      </trkpt>
      <trkpt lat="60.36723" lon="7.5773">
        <ele>1273.88</ele>
        <time>2019-04-02T10:48:10Z</time>
      </trkpt>
      <trkpt lat="60.36721" lon="7.57728">
        <ele>1273.88</ele>
        <time>2019-04-02T10:48:13Z</time>
      </trkpt>
      <trkpt lat="60.36705" lon="7.57725">
        <ele>1269.56</ele>
        <time>2019-04-02T10:48:17Z</time>
      </trkpt>
      <trkpt lat="60.36692" lon="7.57725">
        <ele>1271</ele>
        <time>2019-04-02T10:48:20Z</time>
      </trkpt>
      <trkpt lat="60.36671" lon="7.57719">
        <ele>1264.27</ele>
        <time>2019-04-02T10:48:24Z</time>
      </trkpt>
      <trkpt lat="60.36665" lon="7.57716">
        <ele>1262.83</ele>
        <time>2019-04-02T10:48:25Z</time>
      </trkpt>
      <trkpt lat="60.36646" lon="7.57706">
        <ele>1260.43</ele>
        <time>2019-04-02T10:48:28Z</time>
      </trkpt>
      <trkpt lat="60.36633" lon="7.57695">
        <ele>1261.87</ele>
        <time>2019-04-02T10:48:30Z</time>
      </trkpt>
      <trkpt lat="60.3662" lon="7.57681">
        <ele>1258.98</ele>
        <time>2019-04-02T10:48:32Z</time>
      </trkpt>
      <trkpt lat="60.36609" lon="7.57661">
        <ele>1257.54</ele>
        <time>2019-04-02T10:48:34Z</time>
      </trkpt>
      <trkpt lat="60.36598" lon="7.57641">
        <ele>1253.7</ele>
        <time>2019-04-02T10:48:36Z</time>
      </trkpt>
      <trkpt lat="60.36592" lon="7.57631">
        <ele>1253.7</ele>
        <time>2019-04-02T10:48:37Z</time>
      </trkpt>
      <trkpt lat="60.36587" lon="7.57621">
        <ele>1257.54</ele>
        <time>2019-04-02T10:48:38Z</time>
      </trkpt>
      <trkpt lat="60.36575" lon="7.57604">
        <ele>1258.02</ele>
        <time>2019-04-02T10:48:40Z</time>
      </trkpt>
      <trkpt lat="60.36558" lon="7.57579">
        <ele>1256.58</ele>
        <time>2019-04-02T10:48:43Z</time>
      </trkpt>
      <trkpt lat="60.36549" lon="7.57558">
        <ele>1258.98</ele>
        <time>2019-04-02T10:48:45Z</time>
      </trkpt>
      <trkpt lat="60.3654" lon="7.57534">
        <ele>1262.83</ele>
        <time>2019-04-02T10:48:47Z</time>
      </trkpt>
      <trkpt lat="60.3653" lon="7.57512">
        <ele>1264.27</ele>
        <time>2019-04-02T10:48:49Z</time>
      </trkpt>
      <trkpt lat="60.36502" lon="7.57465">
        <ele>1265.23</ele>
        <time>2019-04-02T10:48:54Z</time>
      </trkpt>
      <trkpt lat="60.36492" lon="7.57443">
        <ele>1264.75</ele>
        <time>2019-04-02T10:48:56Z</time>
      </trkpt>
      <trkpt lat="60.3648" lon="7.57408">
        <ele>1263.31</ele>
        <time>2019-04-02T10:48:59Z</time>
      </trkpt>
      <trkpt lat="60.36482" lon="7.57384">
        <ele>1259.94</ele>
        <time>2019-04-02T10:49:02Z</time>
      </trkpt>
      <trkpt lat="60.36483" lon="7.57384">
        <ele>1259.94</ele>
        <time>2019-04-02T10:49:03Z</time>
      </trkpt>
      <trkpt lat="60.36484" lon="7.57386">
        <ele>1261.87</ele>
        <time>2019-04-02T10:49:22Z</time>
      </trkpt>
      <trkpt lat="60.36483" lon="7.57384">
        <ele>1261.87</ele>
        <time>2019-04-02T10:49:50Z</time>
      </trkpt>
      <trkpt lat="60.36484" lon="7.57379">
        <ele>1260.91</ele>
        <time>2019-04-02T10:49:55Z</time>
      </trkpt>
      <trkpt lat="60.36484" lon="7.57376">
        <ele>1260.91</ele>
        <time>2019-04-02T10:49:57Z</time>
      </trkpt>
      <trkpt lat="60.36472" lon="7.57315">
        <ele>1259.46</ele>
        <time>2019-04-02T10:50:05Z</time>
      </trkpt>
      <trkpt lat="60.3646" lon="7.57207">
        <ele>1258.5</ele>
        <time>2019-04-02T10:50:12Z</time>
      </trkpt>
      <trkpt lat="60.36419" lon="7.57024">
        <ele>1259.94</ele>
        <time>2019-04-02T10:50:23Z</time>
      </trkpt>
      <trkpt lat="60.3641" lon="7.56982">
        <ele>1258.02</ele>
        <time>2019-04-02T10:50:26Z</time>
      </trkpt>
      <trkpt lat="60.36404" lon="7.56957">
        <ele>1258.02</ele>
        <time>2019-04-02T10:50:28Z</time>
      </trkpt>
      <trkpt lat="60.36391" lon="7.56929">
        <ele>1259.94</ele>
        <time>2019-04-02T10:50:34Z</time>
      </trkpt>
      <trkpt lat="60.36387" lon="7.56926">
        <ele>1260.91</ele>
        <time>2019-04-02T10:50:50Z</time>
      </trkpt>
      <trkpt lat="60.36385" lon="7.56922">
        <ele>1259.94</ele>
        <time>2019-04-02T10:51:05Z</time>
      </trkpt>
      <trkpt lat="60.36383" lon="7.56917">
        <ele>1261.39</ele>
        <time>2019-04-02T10:51:10Z</time>
      </trkpt>
      <trkpt lat="60.36381" lon="7.56914">
        <ele>1262.83</ele>
        <time>2019-04-02T10:51:19Z</time>
      </trkpt>
      <trkpt lat="60.36378" lon="7.56904">
        <ele>1262.83</ele>
        <time>2019-04-02T10:51:26Z</time>
      </trkpt>
      <trkpt lat="60.36381" lon="7.56906">
        <ele>1262.35</ele>
        <time>2019-04-02T10:51:44Z</time>
      </trkpt>
      <trkpt lat="60.36407" lon="7.56898">
        <ele>1260.91</ele>
        <time>2019-04-02T10:51:50Z</time>
      </trkpt>
      <trkpt lat="60.36425" lon="7.56938">
        <ele>1263.79</ele>
        <time>2019-04-02T10:51:53Z</time>
      </trkpt>
      <trkpt lat="60.36455" lon="7.57024">
        <ele>1264.27</ele>
        <time>2019-04-02T10:51:58Z</time>
      </trkpt>
      <trkpt lat="60.36512" lon="7.57193">
        <ele>1262.83</ele>
        <time>2019-04-02T10:52:07Z</time>
      </trkpt>
      <trkpt lat="60.36571" lon="7.57362">
        <ele>1262.83</ele>
        <time>2019-04-02T10:52:17Z</time>
      </trkpt>
      <trkpt lat="60.36579" lon="7.57393">
        <ele>1260.43</ele>
        <time>2019-04-02T10:52:21Z</time>
      </trkpt>
      <trkpt lat="60.36576" lon="7.57387">
        <ele>1258.98</ele>
        <time>2019-04-02T10:52:24Z</time>
      </trkpt>
      <trkpt lat="60.36574" lon="7.57382">
        <ele>1260.91</ele>
        <time>2019-04-02T10:52:26Z</time>
      </trkpt>
      <trkpt lat="60.36572" lon="7.57376">
        <ele>1262.35</ele>
        <time>2019-04-02T10:52:28Z</time>
      </trkpt>
      <trkpt lat="60.36569" lon="7.57372">
        <ele>1260.43</ele>
        <time>2019-04-02T10:52:29Z</time>
      </trkpt>
      <trkpt lat="60.36558" lon="7.57357">
        <ele>1258.98</ele>
        <time>2019-04-02T10:52:32Z</time>
      </trkpt>
      <trkpt lat="60.36553" lon="7.57351">
        <ele>1257.54</ele>
        <time>2019-04-02T10:52:33Z</time>
      </trkpt>
      <trkpt lat="60.36543" lon="7.57341">
        <ele>1256.58</ele>
        <time>2019-04-02T10:52:35Z</time>
      </trkpt>
      <trkpt lat="60.36517" lon="7.57311">
        <ele>1256.58</ele>
        <time>2019-04-02T10:52:40Z</time>
      </trkpt>
      <trkpt lat="60.36499" lon="7.57285">
        <ele>1254.66</ele>
        <time>2019-04-02T10:52:44Z</time>
      </trkpt>
      <trkpt lat="60.36496" lon="7.57283">
        <ele>1258.02</ele>
        <time>2019-04-02T10:52:47Z</time>
      </trkpt>
      <trkpt lat="60.36495" lon="7.57282">
        <ele>1258.02</ele>
        <time>2019-04-02T10:52:48Z</time>
      </trkpt>
      <trkpt lat="60.36495" lon="7.57282">
        <ele>1258.98</ele>
        <time>2019-04-02T10:52:49Z</time>
      </trkpt>
      <trkpt lat="60.36493" lon="7.57278">
        <ele>1257.06</ele>
        <time>2019-04-02T10:52:53Z</time>
      </trkpt>
      <trkpt lat="60.36492" lon="7.57276">
        <ele>1258.5</ele>
        <time>2019-04-02T10:52:58Z</time>
      </trkpt>
      <trkpt lat="60.36491" lon="7.57275">
        <ele>1258.5</ele>
        <time>2019-04-02T10:53:00Z</time>
      </trkpt>
      <trkpt lat="60.3649" lon="7.57268">
        <ele>1260.43</ele>
        <time>2019-04-02T10:53:03Z</time>
      </trkpt>
      <trkpt lat="60.36503" lon="7.57267">
        <ele>1258.98</ele>
        <time>2019-04-02T10:53:08Z</time>
      </trkpt>
      <trkpt lat="60.36549" lon="7.57367">
        <ele>1263.31</ele>
        <time>2019-04-02T10:53:16Z</time>
      </trkpt>
      <trkpt lat="60.36611" lon="7.57495">
        <ele>1265.23</ele>
        <time>2019-04-02T10:53:24Z</time>
      </trkpt>
      <trkpt lat="60.36628" lon="7.57528">
        <ele>1265.23</ele>
        <time>2019-04-02T10:53:26Z</time>
      </trkpt>
      <trkpt lat="60.36642" lon="7.57558">
        <ele>1266.67</ele>
        <time>2019-04-02T10:53:28Z</time>
      </trkpt>
      <trkpt lat="60.3668" lon="7.57629">
        <ele>1269.56</ele>
        <time>2019-04-02T10:53:33Z</time>
      </trkpt>
      <trkpt lat="60.3671" lon="7.57688">
        <ele>1273.4</ele>
        <time>2019-04-02T10:53:37Z</time>
      </trkpt>
      <trkpt lat="60.36718" lon="7.57702">
        <ele>1273.4</ele>
        <time>2019-04-02T10:53:38Z</time>
      </trkpt>
      <trkpt lat="60.36782" lon="7.5781">
        <ele>1276.29</ele>
        <time>2019-04-02T10:53:46Z</time>
      </trkpt>
      <trkpt lat="60.36791" lon="7.57824">
        <ele>1276.29</ele>
        <time>2019-04-02T10:53:47Z</time>
      </trkpt>
      <trkpt lat="60.36822" lon="7.5788">
        <ele>1281.09</ele>
        <time>2019-04-02T10:53:51Z</time>
      </trkpt>
      <trkpt lat="60.36836" lon="7.57905">
        <ele>1282.54</ele>
        <time>2019-04-02T10:53:53Z</time>
      </trkpt>
      <trkpt lat="60.36858" lon="7.57935">
        <ele>1285.9</ele>
        <time>2019-04-02T10:53:56Z</time>
      </trkpt>
      <trkpt lat="60.36888" lon="7.57973">
        <ele>1289.75</ele>
        <time>2019-04-02T10:54:00Z</time>
      </trkpt>
      <trkpt lat="60.3691" lon="7.58002">
        <ele>1293.59</ele>
        <time>2019-04-02T10:54:03Z</time>
      </trkpt>
      <trkpt lat="60.36926" lon="7.5802">
        <ele>1295.99</ele>
        <time>2019-04-02T10:54:05Z</time>
      </trkpt>
      <trkpt lat="60.36948" lon="7.58052">
        <ele>1299.84</ele>
        <time>2019-04-02T10:54:09Z</time>
      </trkpt>
      <trkpt lat="60.36952" lon="7.58057">
        <ele>1300.32</ele>
        <time>2019-04-02T10:54:10Z</time>
      </trkpt>
      <trkpt lat="60.36966" lon="7.58075">
        <ele>1302.24</ele>
        <time>2019-04-02T10:54:14Z</time>
      </trkpt>
      <trkpt lat="60.37032" lon="7.58139">
        <ele>1302.24</ele>
        <time>2019-04-02T10:54:28Z</time>
      </trkpt>
      <trkpt lat="60.37053" lon="7.58163">
        <ele>1302.24</ele>
        <time>2019-04-02T10:54:32Z</time>
      </trkpt>
      <trkpt lat="60.37064" lon="7.58203">
        <ele>1302.24</ele>
        <time>2019-04-02T10:54:37Z</time>
      </trkpt>
      <trkpt lat="60.37064" lon="7.58219">
        <ele>1302.24</ele>
        <time>2019-04-02T10:54:39Z</time>
      </trkpt>
      <trkpt lat="60.37065" lon="7.58226">
        <ele>1302.24</ele>
        <time>2019-04-02T10:54:46Z</time>
      </trkpt>
      <trkpt lat="60.37057" lon="7.58175">
        <ele>1299.36</ele>
        <time>2019-04-02T10:55:00Z</time>
      </trkpt>
      <trkpt lat="60.37048" lon="7.58162">
        <ele>1302.24</ele>
        <time>2019-04-02T10:55:06Z</time>
      </trkpt>
      <trkpt lat="60.37042" lon="7.58156">
        <ele>1300.8</ele>
        <time>2019-04-02T10:55:09Z</time>
      </trkpt>
      <trkpt lat="60.37034" lon="7.58147">
        <ele>1302.72</ele>
        <time>2019-04-02T10:55:19Z</time>
      </trkpt>
      <trkpt lat="60.37025" lon="7.58141">
        <ele>1300.8</ele>
        <time>2019-04-02T10:55:22Z</time>
      </trkpt>
      <trkpt lat="60.37019" lon="7.58136">
        <ele>1299.36</ele>
        <time>2019-04-02T10:55:24Z</time>
      </trkpt>
      <trkpt lat="60.36992" lon="7.58114">
        <ele>1297.44</ele>
        <time>2019-04-02T10:55:32Z</time>
      </trkpt>
      <trkpt lat="60.36985" lon="7.58108">
        <ele>1295.99</ele>
        <time>2019-04-02T10:55:34Z</time>
      </trkpt>
      <trkpt lat="60.36981" lon="7.58105">
        <ele>1295.99</ele>
        <time>2019-04-02T10:55:35Z</time>
      </trkpt>
      <trkpt lat="60.3697" lon="7.58089">
        <ele>1299.36</ele>
        <time>2019-04-02T10:55:38Z</time>
      </trkpt>
      <trkpt lat="60.36953" lon="7.58058">
        <ele>1293.11</ele>
        <time>2019-04-02T10:55:44Z</time>
      </trkpt>
      <trkpt lat="60.36949" lon="7.58052">
        <ele>1297.44</ele>
        <time>2019-04-02T10:55:46Z</time>
      </trkpt>
      <trkpt lat="60.36947" lon="7.5805">
        <ele>1296.48</ele>
        <time>2019-04-02T10:55:47Z</time>
      </trkpt>
      <trkpt lat="60.36944" lon="7.58047">
        <ele>1299.36</ele>
        <time>2019-04-02T10:55:49Z</time>
      </trkpt>
      <trkpt lat="60.36942" lon="7.58043">
        <ele>1300.32</ele>
        <time>2019-04-02T10:55:50Z</time>
      </trkpt>
      <trkpt lat="60.36934" lon="7.58033">
        <ele>1295.03</ele>
        <time>2019-04-02T10:55:52Z</time>
      </trkpt>
      <trkpt lat="60.36929" lon="7.58028">
        <ele>1294.07</ele>
        <time>2019-04-02T10:55:53Z</time>
      </trkpt>
      <trkpt lat="60.36918" lon="7.58013">
        <ele>1291.19</ele>
        <time>2019-04-02T10:55:55Z</time>
      </trkpt>
      <trkpt lat="60.36905" lon="7.57998">
        <ele>1288.78</ele>
        <time>2019-04-02T10:55:57Z</time>
      </trkpt>
      <trkpt lat="60.36897" lon="7.57987">
        <ele>1285.42</ele>
        <time>2019-04-02T10:55:58Z</time>
      </trkpt>
      <trkpt lat="60.3689" lon="7.57977">
        <ele>1282.06</ele>
        <time>2019-04-02T10:55:59Z</time>
      </trkpt>
      <trkpt lat="60.36881" lon="7.57966">
        <ele>1283.5</ele>
        <time>2019-04-02T10:56:00Z</time>
      </trkpt>
      <trkpt lat="60.36874" lon="7.57954">
        <ele>1280.13</ele>
        <time>2019-04-02T10:56:01Z</time>
      </trkpt>
      <trkpt lat="60.36844" lon="7.57903">
        <ele>1278.21</ele>
        <time>2019-04-02T10:56:05Z</time>
      </trkpt>
      <trkpt lat="60.36824" lon="7.57852">
        <ele>1268.6</ele>
        <time>2019-04-02T10:56:08Z</time>
      </trkpt>
      <trkpt lat="60.36813" lon="7.57807">
        <ele>1266.19</ele>
        <time>2019-04-02T10:56:10Z</time>
      </trkpt>
      <trkpt lat="60.368" lon="7.57739">
        <ele>1265.71</ele>
        <time>2019-04-02T10:56:13Z</time>
      </trkpt>
      <trkpt lat="60.36778" lon="7.57666">
        <ele>1265.71</ele>
        <time>2019-04-02T10:56:17Z</time>
      </trkpt>
      <trkpt lat="60.36758" lon="7.57631">
        <ele>1262.35</ele>
        <time>2019-04-02T10:56:20Z</time>
      </trkpt>
      <trkpt lat="60.3675" lon="7.57624">
        <ele>1262.35</ele>
        <time>2019-04-02T10:56:21Z</time>
      </trkpt>
      <trkpt lat="60.36744" lon="7.57616">
        <ele>1263.79</ele>
        <time>2019-04-02T10:56:22Z</time>
      </trkpt>
      <trkpt lat="60.36692" lon="7.57578">
        <ele>1267.64</ele>
        <time>2019-04-02T10:56:30Z</time>
      </trkpt>
      <trkpt lat="60.36679" lon="7.57571">
        <ele>1261.39</ele>
        <time>2019-04-02T10:56:32Z</time>
      </trkpt>
      <trkpt lat="60.36663" lon="7.5756">
        <ele>1260.91</ele>
        <time>2019-04-02T10:56:35Z</time>
      </trkpt>
      <trkpt lat="60.36651" lon="7.57545">
        <ele>1263.79</ele>
        <time>2019-04-02T10:56:38Z</time>
      </trkpt>
      <trkpt lat="60.36641" lon="7.57535">
        <ele>1262.35</ele>
        <time>2019-04-02T10:56:40Z</time>
      </trkpt>
      <trkpt lat="60.36631" lon="7.57525">
        <ele>1258.02</ele>
        <time>2019-04-02T10:56:42Z</time>
      </trkpt>
      <trkpt lat="60.36625" lon="7.57522">
        <ele>1258.5</ele>
        <time>2019-04-02T10:56:43Z</time>
      </trkpt>
      <trkpt lat="60.36614" lon="7.57513">
        <ele>1257.06</ele>
        <time>2019-04-02T10:56:45Z</time>
      </trkpt>
      <trkpt lat="60.36609" lon="7.57508">
        <ele>1257.06</ele>
        <time>2019-04-02T10:56:46Z</time>
      </trkpt>
      <trkpt lat="60.36592" lon="7.5749">
        <ele>1255.62</ele>
        <time>2019-04-02T10:56:49Z</time>
      </trkpt>
      <trkpt lat="60.36577" lon="7.57464">
        <ele>1254.18</ele>
        <time>2019-04-02T10:56:52Z</time>
      </trkpt>
      <trkpt lat="60.36557" lon="7.57429">
        <ele>1256.58</ele>
        <time>2019-04-02T10:56:57Z</time>
      </trkpt>
      <trkpt lat="60.36555" lon="7.57426">
        <ele>1256.58</ele>
        <time>2019-04-02T10:56:58Z</time>
      </trkpt>
      <trkpt lat="60.3655" lon="7.57424">
        <ele>1255.14</ele>
        <time>2019-04-02T10:57:00Z</time>
      </trkpt>
      <trkpt lat="60.36547" lon="7.57422">
        <ele>1258.02</ele>
        <time>2019-04-02T10:57:02Z</time>
      </trkpt>
      <trkpt lat="60.36547" lon="7.57379">
        <ele>1257.06</ele>
        <time>2019-04-02T10:57:10Z</time>
      </trkpt>
      <trkpt lat="60.36548" lon="7.57371">
        <ele>1257.06</ele>
        <time>2019-04-02T10:57:11Z</time>
      </trkpt>
      <trkpt lat="60.36552" lon="7.5736">
        <ele>1258.98</ele>
        <time>2019-04-02T10:57:13Z</time>
      </trkpt>
      <trkpt lat="60.36556" lon="7.57374">
        <ele>1259.94</ele>
        <time>2019-04-02T10:57:16Z</time>
      </trkpt>
      <trkpt lat="60.36558" lon="7.57379">
        <ele>1259.46</ele>
        <time>2019-04-02T10:57:33Z</time>
      </trkpt>
      <trkpt lat="60.36558" lon="7.57379">
        <ele>1259.46</ele>
        <time>2019-04-02T10:57:56Z</time>
      </trkpt>
      <trkpt lat="60.36558" lon="7.5738">
        <ele>1259.46</ele>
        <time>2019-04-02T10:58:22Z</time>
      </trkpt>
      <trkpt lat="60.36558" lon="7.57379">
        <ele>1258.98</ele>
        <time>2019-04-02T10:58:27Z</time>
      </trkpt>
      <trkpt lat="60.36561" lon="7.57363">
        <ele>1258.98</ele>
        <time>2019-04-02T10:58:36Z</time>
      </trkpt>
      <trkpt lat="60.3656" lon="7.57363">
        <ele>1259.94</ele>
        <time>2019-04-02T10:58:58Z</time>
      </trkpt>
      <trkpt lat="60.36561" lon="7.57362">
        <ele>1258.02</ele>
        <time>2019-04-02T10:59:20Z</time>
      </trkpt>
      <trkpt lat="60.36562" lon="7.57362">
        <ele>1258.5</ele>
        <time>2019-04-02T10:59:32Z</time>
      </trkpt>
      <trkpt lat="60.36562" lon="7.57359">
        <ele>1258.5</ele>
        <time>2019-04-02T10:59:51Z</time>
      </trkpt>
      <trkpt lat="60.36563" lon="7.57359">
        <ele>1258.5</ele>
        <time>2019-04-02T11:00:12Z</time>
      </trkpt>
      <trkpt lat="60.36562" lon="7.57358">
        <ele>1255.14</ele>
        <time>2019-04-02T11:00:16Z</time>
      </trkpt>
      <trkpt lat="60.36562" lon="7.57358">
        <ele>1255.14</ele>
        <time>2019-04-02T11:00:17Z</time>
      </trkpt>
      <trkpt lat="60.36562" lon="7.57358">
        <ele>1258.98</ele>
        <time>2019-04-02T11:00:21Z</time>
      </trkpt>
      <trkpt lat="60.36563" lon="7.57358">
        <ele>1258.98</ele>
        <time>2019-04-02T11:00:22Z</time>
      </trkpt>
      <trkpt lat="60.36562" lon="7.57357">
        <ele>1254.18</ele>
        <time>2019-04-02T11:00:23Z</time>
      </trkpt>
      <trkpt lat="60.36562" lon="7.57356">
        <ele>1257.54</ele>
        <time>2019-04-02T11:00:24Z</time>
      </trkpt>
      <trkpt lat="60.36563" lon="7.57357">
        <ele>1258.98</ele>
        <time>2019-04-02T11:00:28Z</time>
      </trkpt>
      <trkpt lat="60.36562" lon="7.57353">
        <ele>1257.54</ele>
        <time>2019-04-02T11:00:33Z</time>
      </trkpt>
      <trkpt lat="60.3656" lon="7.57353">
        <ele>1256.58</ele>
        <time>2019-04-02T11:00:35Z</time>
      </trkpt>
      <trkpt lat="60.36555" lon="7.57343">
        <ele>1257.54</ele>
        <time>2019-04-02T11:00:40Z</time>
      </trkpt>
      <trkpt lat="60.36555" lon="7.57343">
        <ele>1256.58</ele>
        <time>2019-04-02T11:00:43Z</time>
      </trkpt>
      <trkpt lat="60.36555" lon="7.57343">
        <ele>1256.58</ele>
        <time>2019-04-02T11:00:50Z</time>
      </trkpt>
      <trkpt lat="60.36555" lon="7.57343">
        <ele>1255.14</ele>
        <time>2019-04-02T11:00:58Z</time>
      </trkpt>
      <trkpt lat="60.36555" lon="7.57343">
        <ele>1257.06</ele>
        <time>2019-04-02T11:01:03Z</time>
      </trkpt>
      <trkpt lat="60.36554" lon="7.57343">
        <ele>1256.1</ele>
        <time>2019-04-02T11:01:17Z</time>
      </trkpt>
      <trkpt lat="60.36554" lon="7.57345">
        <ele>1252.74</ele>
        <time>2019-04-02T11:01:30Z</time>
      </trkpt>
      <trkpt lat="60.36554" lon="7.57344">
        <ele>1257.06</ele>
        <time>2019-04-02T11:01:31Z</time>
      </trkpt>
      <trkpt lat="60.36555" lon="7.57344">
        <ele>1252.74</ele>
        <time>2019-04-02T11:01:33Z</time>
      </trkpt>
      <trkpt lat="60.36555" lon="7.57343">
        <ele>1260.43</ele>
        <time>2019-04-02T11:01:34Z</time>
      </trkpt>
      <trkpt lat="60.36555" lon="7.57343">
        <ele>1256.1</ele>
        <time>2019-04-02T11:01:35Z</time>
      </trkpt>
      <trkpt lat="60.36556" lon="7.57346">
        <ele>1258.5</ele>
        <time>2019-04-02T11:01:47Z</time>
      </trkpt>
      <trkpt lat="60.36563" lon="7.57343">
        <ele>1258.5</ele>
        <time>2019-04-02T11:01:53Z</time>
      </trkpt>
      <trkpt lat="60.36578" lon="7.57334">
        <ele>1258.5</ele>
        <time>2019-04-02T11:02:09Z</time>
      </trkpt>
      <trkpt lat="60.36581" lon="7.57332">
        <ele>1258.98</ele>
        <time>2019-04-02T11:02:23Z</time>
      </trkpt>
      <trkpt lat="60.36581" lon="7.57332">
        <ele>1257.54</ele>
        <time>2019-04-02T11:02:26Z</time>
      </trkpt>
      <trkpt lat="60.36581" lon="7.57333">
        <ele>1257.06</ele>
        <time>2019-04-02T11:02:42Z</time>
      </trkpt>
      <trkpt lat="60.36582" lon="7.57333">
        <ele>1258.02</ele>
        <time>2019-04-02T11:02:54Z</time>
      </trkpt>
      <trkpt lat="60.36582" lon="7.57333">
        <ele>1256.58</ele>
        <time>2019-04-02T11:02:57Z</time>
      </trkpt>
      <trkpt lat="60.36581" lon="7.57332">
        <ele>1258.02</ele>
        <time>2019-04-02T11:03:30Z</time>
      </trkpt>
      <trkpt lat="60.36581" lon="7.5733">
        <ele>1258.02</ele>
        <time>2019-04-02T11:04:11Z</time>
      </trkpt>
      <trkpt lat="60.36582" lon="7.57331">
        <ele>1257.06</ele>
        <time>2019-04-02T11:04:54Z</time>
      </trkpt>
      <trkpt lat="60.36581" lon="7.57331">
        <ele>1258.5</ele>
        <time>2019-04-02T11:05:10Z</time>
      </trkpt>
      <trkpt lat="60.36581" lon="7.57331">
        <ele>1258.98</ele>
        <time>2019-04-02T11:05:55Z</time>
      </trkpt>
      <trkpt lat="60.36581" lon="7.57332">
        <ele>1257.54</ele>
        <time>2019-04-02T11:06:36Z</time>
      </trkpt>
      <trkpt lat="60.36581" lon="7.57332">
        <ele>1257.54</ele>
        <time>2019-04-02T11:07:22Z</time>
      </trkpt>
      <trkpt lat="60.36583" lon="7.57331">
        <ele>1257.06</ele>
        <time>2019-04-02T11:07:51Z</time>
      </trkpt>
      <trkpt lat="60.36582" lon="7.57327">
        <ele>1258.5</ele>
        <time>2019-04-02T11:08:04Z</time>
      </trkpt>
      <trkpt lat="60.36582" lon="7.57327">
        <ele>1258.5</ele>
        <time>2019-04-02T11:08:38Z</time>
      </trkpt>
      <trkpt lat="60.36582" lon="7.57327">
        <ele>1257.06</ele>
        <time>2019-04-02T11:09:15Z</time>
      </trkpt>
      <trkpt lat="60.36582" lon="7.57326">
        <ele>1258.02</ele>
        <time>2019-04-02T11:09:56Z</time>
      </trkpt>
      <trkpt lat="60.36583" lon="7.57327">
        <ele>1258.5</ele>
        <time>2019-04-02T11:10:27Z</time>
      </trkpt>
      <trkpt lat="60.36583" lon="7.57324">
        <ele>1258.98</ele>
        <time>2019-04-02T11:10:29Z</time>
      </trkpt>
      <trkpt lat="60.36584" lon="7.57328">
        <ele>1258.98</ele>
        <time>2019-04-02T11:10:46Z</time>
      </trkpt>
      <trkpt lat="60.36583" lon="7.57329">
        <ele>1259.46</ele>
        <time>2019-04-02T11:11:14Z</time>
      </trkpt>
      <trkpt lat="60.36583" lon="7.57328">
        <ele>1259.46</ele>
        <time>2019-04-02T11:11:15Z</time>
      </trkpt>
      <trkpt lat="60.36583" lon="7.57327">
        <ele>1258.02</ele>
        <time>2019-04-02T11:11:21Z</time>
      </trkpt>
      <trkpt lat="60.36583" lon="7.57326">
        <ele>1259.94</ele>
        <time>2019-04-02T11:11:33Z</time>
      </trkpt>
      <trkpt lat="60.36585" lon="7.57324">
        <ele>1258.98</ele>
        <time>2019-04-02T11:11:43Z</time>
      </trkpt>
      <trkpt lat="60.36583" lon="7.57329">
        <ele>1258.02</ele>
        <time>2019-04-02T11:12:04Z</time>
      </trkpt>
      <trkpt lat="60.36583" lon="7.5733">
        <ele>1258.98</ele>
        <time>2019-04-02T11:12:06Z</time>
      </trkpt>
      <trkpt lat="60.36583" lon="7.57331">
        <ele>1256.58</ele>
        <time>2019-04-02T11:12:15Z</time>
      </trkpt>
      <trkpt lat="60.36583" lon="7.5733">
        <ele>1258.02</ele>
        <time>2019-04-02T11:12:26Z</time>
      </trkpt>
      <trkpt lat="60.36583" lon="7.57328">
        <ele>1258.5</ele>
        <time>2019-04-02T11:12:46Z</time>
      </trkpt>
      <trkpt lat="60.36583" lon="7.57323">
        <ele>1258.98</ele>
        <time>2019-04-02T11:13:20Z</time>
      </trkpt>
      <trkpt lat="60.36583" lon="7.57321">
        <ele>1257.54</ele>
        <time>2019-04-02T11:13:38Z</time>
      </trkpt>
      <trkpt lat="60.36583" lon="7.57322">
        <ele>1258.98</ele>
        <time>2019-04-02T11:14:04Z</time>
      </trkpt>
      <trkpt lat="60.36582" lon="7.57323">
        <ele>1256.58</ele>
        <time>2019-04-02T11:14:07Z</time>
      </trkpt>
      <trkpt lat="60.36584" lon="7.57325">
        <ele>1256.1</ele>
        <time>2019-04-02T11:14:25Z</time>
      </trkpt>
      <trkpt lat="60.36583" lon="7.57325">
        <ele>1256.1</ele>
        <time>2019-04-02T11:15:03Z</time>
      </trkpt>
      <trkpt lat="60.36583" lon="7.57323">
        <ele>1256.1</ele>
        <time>2019-04-02T11:15:44Z</time>
      </trkpt>
      <trkpt lat="60.36584" lon="7.57323">
        <ele>1256.1</ele>
        <time>2019-04-02T11:16:23Z</time>
      </trkpt>
      <trkpt lat="60.36583" lon="7.57323">
        <ele>1256.1</ele>
        <time>2019-04-02T11:16:56Z</time>
      </trkpt>
      <trkpt lat="60.36583" lon="7.57323">
        <ele>1257.06</ele>
        <time>2019-04-02T11:17:04Z</time>
      </trkpt>
      <trkpt lat="60.36582" lon="7.57322">
        <ele>1257.06</ele>
        <time>2019-04-02T11:17:43Z</time>
      </trkpt>
      <trkpt lat="60.36582" lon="7.57321">
        <ele>1257.06</ele>
        <time>2019-04-02T11:18:17Z</time>
      </trkpt>
      <trkpt lat="60.36583" lon="7.57323">
        <ele>1257.54</ele>
        <time>2019-04-02T11:18:48Z</time>
      </trkpt>
      <trkpt lat="60.36583" lon="7.57326">
        <ele>1257.54</ele>
        <time>2019-04-02T11:19:22Z</time>
      </trkpt>
      <trkpt lat="60.36582" lon="7.57327">
        <ele>1256.1</ele>
        <time>2019-04-02T11:20:03Z</time>
      </trkpt>
      <trkpt lat="60.36582" lon="7.57327">
        <ele>1257.06</ele>
        <time>2019-04-02T11:20:41Z</time>
      </trkpt>
      <trkpt lat="60.36583" lon="7.57326">
        <ele>1257.06</ele>
        <time>2019-04-02T11:21:02Z</time>
      </trkpt>
      <trkpt lat="60.36583" lon="7.57326">
        <ele>1256.1</ele>
        <time>2019-04-02T11:21:19Z</time>
      </trkpt>
      <trkpt lat="60.36583" lon="7.57326">
        <ele>1256.58</ele>
        <time>2019-04-02T11:21:37Z</time>
      </trkpt>
      <trkpt lat="60.36583" lon="7.57325">
        <ele>1255.62</ele>
        <time>2019-04-02T11:22:16Z</time>
      </trkpt>
      <trkpt lat="60.36583" lon="7.57326">
        <ele>1257.06</ele>
        <time>2019-04-02T11:22:48Z</time>
      </trkpt>
      <trkpt lat="60.36583" lon="7.57326">
        <ele>1257.06</ele>
        <time>2019-04-02T11:22:49Z</time>
      </trkpt>
      <trkpt lat="60.36584" lon="7.57325">
        <ele>1255.62</ele>
        <time>2019-04-02T11:23:02Z</time>
      </trkpt>
      <trkpt lat="60.36584" lon="7.57325">
        <ele>1259.94</ele>
        <time>2019-04-02T11:23:06Z</time>
      </trkpt>
      <trkpt lat="60.36586" lon="7.57327">
        <ele>1259.94</ele>
        <time>2019-04-02T11:23:17Z</time>
      </trkpt>
      <trkpt lat="60.36586" lon="7.57328">
        <ele>1259.94</ele>
        <time>2019-04-02T11:23:18Z</time>
      </trkpt>
      <trkpt lat="60.3659" lon="7.57333">
        <ele>1259.94</ele>
        <time>2019-04-02T11:23:22Z</time>
      </trkpt>
      <trkpt lat="60.36595" lon="7.57335">
        <ele>1259.94</ele>
        <time>2019-04-02T11:23:37Z</time>
      </trkpt>
      <trkpt lat="60.36596" lon="7.57334">
        <ele>1260.43</ele>
        <time>2019-04-02T11:23:47Z</time>
      </trkpt>
      <trkpt lat="60.36596" lon="7.57333">
        <ele>1259.46</ele>
        <time>2019-04-02T11:23:51Z</time>
      </trkpt>
      <trkpt lat="60.36609" lon="7.57357">
        <ele>1260.91</ele>
        <time>2019-04-02T11:23:56Z</time>
      </trkpt>
      <trkpt lat="60.36619" lon="7.57393">
        <ele>1262.83</ele>
        <time>2019-04-02T11:23:59Z</time>
      </trkpt>
      <trkpt lat="60.36627" lon="7.57417">
        <ele>1262.83</ele>
        <time>2019-04-02T11:24:01Z</time>
      </trkpt>
      <trkpt lat="60.36644" lon="7.57464">
        <ele>1265.23</ele>
        <time>2019-04-02T11:24:05Z</time>
      </trkpt>
      <trkpt lat="60.36687" lon="7.57565">
        <ele>1267.16</ele>
        <time>2019-04-02T11:24:13Z</time>
      </trkpt>
      <trkpt lat="60.36712" lon="7.57617">
        <ele>1270.52</ele>
        <time>2019-04-02T11:24:18Z</time>
      </trkpt>
      <trkpt lat="60.36739" lon="7.57679">
        <ele>1272.44</ele>
        <time>2019-04-02T11:24:23Z</time>
      </trkpt>
      <trkpt lat="60.36779" lon="7.57768">
        <ele>1275.81</ele>
        <time>2019-04-02T11:24:29Z</time>
      </trkpt>
      <trkpt lat="60.36787" lon="7.57785">
        <ele>1275.81</ele>
        <time>2019-04-02T11:24:30Z</time>
      </trkpt>
      <trkpt lat="60.3681" lon="7.57831">
        <ele>1277.25</ele>
        <time>2019-04-02T11:24:33Z</time>
      </trkpt>
      <trkpt lat="60.36833" lon="7.57871">
        <ele>1280.61</ele>
        <time>2019-04-02T11:24:36Z</time>
      </trkpt>
      <trkpt lat="60.36853" lon="7.57907">
        <ele>1284.46</ele>
        <time>2019-04-02T11:24:39Z</time>
      </trkpt>
      <trkpt lat="60.36859" lon="7.57919">
        <ele>1284.46</ele>
        <time>2019-04-02T11:24:40Z</time>
      </trkpt>
      <trkpt lat="60.36886" lon="7.57966">
        <ele>1288.3</ele>
        <time>2019-04-02T11:24:44Z</time>
      </trkpt>
      <trkpt lat="60.36901" lon="7.57991">
        <ele>1291.19</ele>
        <time>2019-04-02T11:24:46Z</time>
      </trkpt>
      <trkpt lat="60.36924" lon="7.58022">
        <ele>1293.11</ele>
        <time>2019-04-02T11:24:49Z</time>
      </trkpt>
      <trkpt lat="60.36932" lon="7.5803">
        <ele>1294.07</ele>
        <time>2019-04-02T11:24:50Z</time>
      </trkpt>
      <trkpt lat="60.36952" lon="7.58051">
        <ele>1299.36</ele>
        <time>2019-04-02T11:24:53Z</time>
      </trkpt>
      <trkpt lat="60.36959" lon="7.58057">
        <ele>1299.36</ele>
        <time>2019-04-02T11:24:54Z</time>
      </trkpt>
      <trkpt lat="60.37056" lon="7.58137">
        <ele>1300.32</ele>
        <time>2019-04-02T11:25:06Z</time>
      </trkpt>
      <trkpt lat="60.3711" lon="7.58186">
        <ele>1300.32</ele>
        <time>2019-04-02T11:25:12Z</time>
      </trkpt>
      <trkpt lat="60.37142" lon="7.58218">
        <ele>1301.76</ele>
        <time>2019-04-02T11:25:17Z</time>
      </trkpt>
      <trkpt lat="60.37161" lon="7.58241">
        <ele>1303.2</ele>
        <time>2019-04-02T11:25:23Z</time>
      </trkpt>
      <trkpt lat="60.37166" lon="7.58234">
        <ele>1304.17</ele>
        <time>2019-04-02T11:25:38Z</time>
      </trkpt>
      <trkpt lat="60.37173" lon="7.58232">
        <ele>1303.69</ele>
        <time>2019-04-02T11:25:55Z</time>
      </trkpt>
      <trkpt lat="60.37174" lon="7.58235">
        <ele>1304.65</ele>
        <time>2019-04-02T11:26:19Z</time>
      </trkpt>
      <trkpt lat="60.37175" lon="7.58236">
        <ele>1303.2</ele>
        <time>2019-04-02T11:26:22Z</time>
      </trkpt>
      <trkpt lat="60.37166" lon="7.58214">
        <ele>1305.61</ele>
        <time>2019-04-02T11:26:28Z</time>
      </trkpt>
      <trkpt lat="60.37162" lon="7.58207">
        <ele>1305.61</ele>
        <time>2019-04-02T11:26:29Z</time>
      </trkpt>
      <trkpt lat="60.37152" lon="7.58193">
        <ele>1303.2</ele>
        <time>2019-04-02T11:26:31Z</time>
      </trkpt>
      <trkpt lat="60.37147" lon="7.58187">
        <ele>1302.72</ele>
        <time>2019-04-02T11:26:32Z</time>
      </trkpt>
      <trkpt lat="60.37137" lon="7.58161">
        <ele>1301.76</ele>
        <time>2019-04-02T11:26:35Z</time>
      </trkpt>
      <trkpt lat="60.37132" lon="7.58149">
        <ele>1301.28</ele>
        <time>2019-04-02T11:26:37Z</time>
      </trkpt>
      <trkpt lat="60.37132" lon="7.58145">
        <ele>1301.28</ele>
        <time>2019-04-02T11:26:39Z</time>
      </trkpt>
      <trkpt lat="60.37135" lon="7.5816">
        <ele>1302.24</ele>
        <time>2019-04-02T11:26:42Z</time>
      </trkpt>
      <trkpt lat="60.37138" lon="7.58168">
        <ele>1302.24</ele>
        <time>2019-04-02T11:26:43Z</time>
      </trkpt>
      <trkpt lat="60.37148" lon="7.58193">
        <ele>1302.24</ele>
        <time>2019-04-02T11:26:46Z</time>
      </trkpt>
      <trkpt lat="60.37164" lon="7.58256">
        <ele>1301.76</ele>
        <time>2019-04-02T11:26:53Z</time>
      </trkpt>
      <trkpt lat="60.37166" lon="7.58263">
        <ele>1303.2</ele>
        <time>2019-04-02T11:26:57Z</time>
      </trkpt>
      <trkpt lat="60.37167" lon="7.58267">
        <ele>1301.76</ele>
        <time>2019-04-02T11:27:02Z</time>
      </trkpt>
      <trkpt lat="60.37168" lon="7.58278">
        <ele>1304.65</ele>
        <time>2019-04-02T11:27:14Z</time>
      </trkpt>
      <trkpt lat="60.37169" lon="7.58282">
        <ele>1304.17</ele>
        <time>2019-04-02T11:27:17Z</time>
      </trkpt>
      <trkpt lat="60.37175" lon="7.58285">
        <ele>1303.2</ele>
        <time>2019-04-02T11:27:30Z</time>
      </trkpt>
      <trkpt lat="60.37177" lon="7.58282">
        <ele>1303.69</ele>
        <time>2019-04-02T11:27:53Z</time>
      </trkpt>
      <trkpt lat="60.37177" lon="7.58282">
        <ele>1303.69</ele>
        <time>2019-04-02T11:27:54Z</time>
      </trkpt>
      <trkpt lat="60.37178" lon="7.58243">
        <ele>1303.2</ele>
        <time>2019-04-02T11:27:58Z</time>
      </trkpt>
      <trkpt lat="60.37162" lon="7.58066">
        <ele>1305.13</ele>
        <time>2019-04-02T11:28:06Z</time>
      </trkpt>
      <trkpt lat="60.37155" lon="7.5799">
        <ele>1301.76</ele>
        <time>2019-04-02T11:28:09Z</time>
      </trkpt>
      <trkpt lat="60.37153" lon="7.57964">
        <ele>1301.76</ele>
        <time>2019-04-02T11:28:10Z</time>
      </trkpt>
      <trkpt lat="60.37148" lon="7.57888">
        <ele>1305.61</ele>
        <time>2019-04-02T11:28:13Z</time>
      </trkpt>
      <trkpt lat="60.37146" lon="7.57864">
        <ele>1305.61</ele>
        <time>2019-04-02T11:28:14Z</time>
      </trkpt>
      <trkpt lat="60.37138" lon="7.57776">
        <ele>1309.45</ele>
        <time>2019-04-02T11:28:18Z</time>
      </trkpt>
      <trkpt lat="60.37134" lon="7.57734">
        <ele>1312.82</ele>
        <time>2019-04-02T11:28:20Z</time>
      </trkpt>
      <trkpt lat="60.37126" lon="7.57674">
        <ele>1316.66</ele>
        <time>2019-04-02T11:28:23Z</time>
      </trkpt>
      <trkpt lat="60.37123" lon="7.57656">
        <ele>1316.66</ele>
        <time>2019-04-02T11:28:24Z</time>
      </trkpt>
      <trkpt lat="60.37109" lon="7.57609">
        <ele>1318.1</ele>
        <time>2019-04-02T11:28:27Z</time>
      </trkpt>
      <trkpt lat="60.3709" lon="7.57569">
        <ele>1316.18</ele>
        <time>2019-04-02T11:28:31Z</time>
      </trkpt>
      <trkpt lat="60.37079" lon="7.57533">
        <ele>1320.03</ele>
        <time>2019-04-02T11:28:35Z</time>
      </trkpt>
      <trkpt lat="60.37088" lon="7.57554">
        <ele>1317.62</ele>
        <time>2019-04-02T11:28:39Z</time>
      </trkpt>
      <trkpt lat="60.37091" lon="7.57629">
        <ele>1315.22</ele>
        <time>2019-04-02T11:28:44Z</time>
      </trkpt>
      <trkpt lat="60.37093" lon="7.57662">
        <ele>1313.78</ele>
        <time>2019-04-02T11:28:46Z</time>
      </trkpt>
      <trkpt lat="60.37097" lon="7.57734">
        <ele>1311.38</ele>
        <time>2019-04-02T11:28:50Z</time>
      </trkpt>
      <trkpt lat="60.37104" lon="7.5781">
        <ele>1308.97</ele>
        <time>2019-04-02T11:28:54Z</time>
      </trkpt>
      <trkpt lat="60.37111" lon="7.5787">
        <ele>1308.49</ele>
        <time>2019-04-02T11:28:57Z</time>
      </trkpt>
      <trkpt lat="60.37118" lon="7.57927">
        <ele>1305.13</ele>
        <time>2019-04-02T11:29:00Z</time>
      </trkpt>
      <trkpt lat="60.3713" lon="7.58043">
        <ele>1302.72</ele>
        <time>2019-04-02T11:29:07Z</time>
      </trkpt>
      <trkpt lat="60.37131" lon="7.58057">
        <ele>1302.72</ele>
        <time>2019-04-02T11:29:08Z</time>
      </trkpt>
      <trkpt lat="60.37137" lon="7.58108">
        <ele>1302.72</ele>
        <time>2019-04-02T11:29:12Z</time>
      </trkpt>
      <trkpt lat="60.37149" lon="7.58203">
        <ele>1305.13</ele>
        <time>2019-04-02T11:29:20Z</time>
      </trkpt>
      <trkpt lat="60.37153" lon="7.58238">
        <ele>1302.24</ele>
        <time>2019-04-02T11:29:24Z</time>
      </trkpt>
      <trkpt lat="60.37161" lon="7.58259">
        <ele>1301.76</ele>
        <time>2019-04-02T11:29:34Z</time>
      </trkpt>
      <trkpt lat="60.37161" lon="7.58259">
        <ele>1303.2</ele>
        <time>2019-04-02T11:29:40Z</time>
      </trkpt>
      <trkpt lat="60.37161" lon="7.58259">
        <ele>1301.76</ele>
        <time>2019-04-02T11:29:51Z</time>
      </trkpt>
      <trkpt lat="60.37161" lon="7.5826">
        <ele>1302.72</ele>
        <time>2019-04-02T11:30:20Z</time>
      </trkpt>
      <trkpt lat="60.37163" lon="7.5826">
        <ele>1301.76</ele>
        <time>2019-04-02T11:30:43Z</time>
      </trkpt>
      <trkpt lat="60.37164" lon="7.58261">
        <ele>1301.28</ele>
        <time>2019-04-02T11:31:01Z</time>
      </trkpt>
      <trkpt lat="60.37164" lon="7.58262">
        <ele>1302.24</ele>
        <time>2019-04-02T11:31:19Z</time>
      </trkpt>
      <trkpt lat="60.37164" lon="7.58262">
        <ele>1301.28</ele>
        <time>2019-04-02T11:31:23Z</time>
      </trkpt>
      <trkpt lat="60.37165" lon="7.58264">
        <ele>1302.24</ele>
        <time>2019-04-02T11:31:40Z</time>
      </trkpt>
      <trkpt lat="60.37165" lon="7.58263">
        <ele>1302.24</ele>
        <time>2019-04-02T11:31:46Z</time>
      </trkpt>
      <trkpt lat="60.37167" lon="7.5828">
        <ele>1303.2</ele>
        <time>2019-04-02T11:31:50Z</time>
      </trkpt>
      <trkpt lat="60.37166" lon="7.58357">
        <ele>1304.17</ele>
        <time>2019-04-02T11:31:59Z</time>
      </trkpt>
      <trkpt lat="60.37164" lon="7.58398">
        <ele>1301.76</ele>
        <time>2019-04-02T11:32:04Z</time>
      </trkpt>
      <trkpt lat="60.37162" lon="7.58413">
        <ele>1299.36</ele>
        <time>2019-04-02T11:32:08Z</time>
      </trkpt>
      <trkpt lat="60.37162" lon="7.58414">
        <ele>1302.24</ele>
        <time>2019-04-02T11:32:12Z</time>
      </trkpt>
      <trkpt lat="60.37162" lon="7.58414">
        <ele>1302.24</ele>
        <time>2019-04-02T11:32:13Z</time>
      </trkpt>
      <trkpt lat="60.37161" lon="7.58414">
        <ele>1298.88</ele>
        <time>2019-04-02T11:32:15Z</time>
      </trkpt>
      <trkpt lat="60.37161" lon="7.58414">
        <ele>1298.88</ele>
        <time>2019-04-02T11:32:16Z</time>
      </trkpt>
      <trkpt lat="60.37161" lon="7.58414">
        <ele>1303.69</ele>
        <time>2019-04-02T11:32:18Z</time>
      </trkpt>
      <trkpt lat="60.37161" lon="7.58415">
        <ele>1303.69</ele>
        <time>2019-04-02T11:32:19Z</time>
      </trkpt>
      <trkpt lat="60.37163" lon="7.58416">
        <ele>1302.72</ele>
        <time>2019-04-02T11:32:34Z</time>
      </trkpt>
      <trkpt lat="60.37163" lon="7.58415">
        <ele>1303.69</ele>
        <time>2019-04-02T11:32:50Z</time>
      </trkpt>
      <trkpt lat="60.37163" lon="7.58416">
        <ele>1302.72</ele>
        <time>2019-04-02T11:32:55Z</time>
      </trkpt>
      <trkpt lat="60.37163" lon="7.58416">
        <ele>1303.69</ele>
        <time>2019-04-02T11:32:58Z</time>
      </trkpt>
      <trkpt lat="60.37164" lon="7.58416">
        <ele>1302.72</ele>
        <time>2019-04-02T11:33:12Z</time>
      </trkpt>
      <trkpt lat="60.3717" lon="7.58391">
        <ele>1303.2</ele>
        <time>2019-04-02T11:33:18Z</time>
      </trkpt>
      <trkpt lat="60.37168" lon="7.58381">
        <ele>1306.09</ele>
        <time>2019-04-02T11:33:19Z</time>
      </trkpt>
      <trkpt lat="60.37161" lon="7.58359">
        <ele>1306.09</ele>
        <time>2019-04-02T11:33:21Z</time>
      </trkpt>
      <trkpt lat="60.37156" lon="7.58338">
        <ele>1304.17</ele>
        <time>2019-04-02T11:33:24Z</time>
      </trkpt>
      <trkpt lat="60.37154" lon="7.58333">
        <ele>1300.8</ele>
        <time>2019-04-02T11:33:27Z</time>
      </trkpt>
      <trkpt lat="60.37154" lon="7.58333">
        <ele>1300.8</ele>
        <time>2019-04-02T11:33:28Z</time>
      </trkpt>
      <trkpt lat="60.37154" lon="7.58333">
        <ele>1302.72</ele>
        <time>2019-04-02T11:33:32Z</time>
      </trkpt>
      <trkpt lat="60.37155" lon="7.58332">
        <ele>1301.76</ele>
        <time>2019-04-02T11:33:40Z</time>
      </trkpt>
      <trkpt lat="60.37156" lon="7.58329">
        <ele>1301.28</ele>
        <time>2019-04-02T11:33:55Z</time>
      </trkpt>
      <trkpt lat="60.37162" lon="7.58323">
        <ele>1301.28</ele>
        <time>2019-04-02T11:33:58Z</time>
      </trkpt>
      <trkpt lat="60.37188" lon="7.58336">
        <ele>1303.69</ele>
        <time>2019-04-02T11:34:02Z</time>
      </trkpt>
      <trkpt lat="60.37225" lon="7.58406">
        <ele>1309.93</ele>
        <time>2019-04-02T11:34:07Z</time>
      </trkpt>
      <trkpt lat="60.37242" lon="7.5844">
        <ele>1311.38</ele>
        <time>2019-04-02T11:34:09Z</time>
      </trkpt>
      <trkpt lat="60.37269" lon="7.58492">
        <ele>1313.3</ele>
        <time>2019-04-02T11:34:12Z</time>
      </trkpt>
      <trkpt lat="60.37305" lon="7.58557">
        <ele>1318.1</ele>
        <time>2019-04-02T11:34:16Z</time>
      </trkpt>
      <trkpt lat="60.37334" lon="7.58623">
        <ele>1320.51</ele>
        <time>2019-04-02T11:34:20Z</time>
      </trkpt>
      <trkpt lat="60.37355" lon="7.58663">
        <ele>1325.8</ele>
        <time>2019-04-02T11:34:23Z</time>
      </trkpt>
      <trkpt lat="60.37361" lon="7.58674">
        <ele>1328.68</ele>
        <time>2019-04-02T11:34:24Z</time>
      </trkpt>
      <trkpt lat="60.37373" lon="7.58693">
        <ele>1328.68</ele>
        <time>2019-04-02T11:34:29Z</time>
      </trkpt>
      <trkpt lat="60.37372" lon="7.5869">
        <ele>1330.12</ele>
        <time>2019-04-02T11:34:30Z</time>
      </trkpt>
      <trkpt lat="60.37352" lon="7.58662">
        <ele>1326.76</ele>
        <time>2019-04-02T11:34:38Z</time>
      </trkpt>
      <trkpt lat="60.37344" lon="7.58651">
        <ele>1325.8</ele>
        <time>2019-04-02T11:34:40Z</time>
      </trkpt>
      <trkpt lat="60.37339" lon="7.58645">
        <ele>1325.31</ele>
        <time>2019-04-02T11:34:41Z</time>
      </trkpt>
      <trkpt lat="60.37323" lon="7.58618">
        <ele>1319.07</ele>
        <time>2019-04-02T11:34:44Z</time>
      </trkpt>
      <trkpt lat="60.37316" lon="7.58608">
        <ele>1320.51</ele>
        <time>2019-04-02T11:34:45Z</time>
      </trkpt>
      <trkpt lat="60.37305" lon="7.58584">
        <ele>1314.26</ele>
        <time>2019-04-02T11:34:47Z</time>
      </trkpt>
      <trkpt lat="60.37293" lon="7.58557">
        <ele>1317.62</ele>
        <time>2019-04-02T11:34:49Z</time>
      </trkpt>
      <trkpt lat="60.37287" lon="7.58541">
        <ele>1313.3</ele>
        <time>2019-04-02T11:34:50Z</time>
      </trkpt>
      <trkpt lat="60.3728" lon="7.58527">
        <ele>1315.7</ele>
        <time>2019-04-02T11:34:51Z</time>
      </trkpt>
      <trkpt lat="60.37268" lon="7.58505">
        <ele>1315.22</ele>
        <time>2019-04-02T11:34:53Z</time>
      </trkpt>
      <trkpt lat="60.37256" lon="7.58485">
        <ele>1311.38</ele>
        <time>2019-04-02T11:34:55Z</time>
      </trkpt>
      <trkpt lat="60.3725" lon="7.58475">
        <ele>1311.38</ele>
        <time>2019-04-02T11:34:56Z</time>
      </trkpt>
      <trkpt lat="60.37245" lon="7.58464">
        <ele>1312.82</ele>
        <time>2019-04-02T11:34:57Z</time>
      </trkpt>
      <trkpt lat="60.37222" lon="7.58424">
        <ele>1306.57</ele>
        <time>2019-04-02T11:35:03Z</time>
      </trkpt>
      <trkpt lat="60.37222" lon="7.58422">
        <ele>1306.57</ele>
        <time>2019-04-02T11:35:04Z</time>
      </trkpt>
      <trkpt lat="60.37222" lon="7.5842">
        <ele>1306.09</ele>
        <time>2019-04-02T11:35:12Z</time>
      </trkpt>
      <trkpt lat="60.37224" lon="7.58419">
        <ele>1308.01</ele>
        <time>2019-04-02T11:35:14Z</time>
      </trkpt>
      <trkpt lat="60.37228" lon="7.58404">
        <ele>1306.57</ele>
        <time>2019-04-02T11:35:22Z</time>
      </trkpt>
      <trkpt lat="60.37225" lon="7.58397">
        <ele>1309.45</ele>
        <time>2019-04-02T11:35:26Z</time>
      </trkpt>
      <trkpt lat="60.37224" lon="7.58395">
        <ele>1309.45</ele>
        <time>2019-04-02T11:35:27Z</time>
      </trkpt>
      <trkpt lat="60.37216" lon="7.58378">
        <ele>1306.57</ele>
        <time>2019-04-02T11:35:32Z</time>
      </trkpt>
      <trkpt lat="60.37216" lon="7.5837">
        <ele>1304.65</ele>
        <time>2019-04-02T11:35:36Z</time>
      </trkpt>
      <trkpt lat="60.37217" lon="7.58367">
        <ele>1306.09</ele>
        <time>2019-04-02T11:35:43Z</time>
      </trkpt>
      <trkpt lat="60.37217" lon="7.58367">
        <ele>1304.65</ele>
        <time>2019-04-02T11:35:45Z</time>
      </trkpt>
      <trkpt lat="60.37216" lon="7.58349">
        <ele>1304.65</ele>
        <time>2019-04-02T11:35:49Z</time>
      </trkpt>
      <trkpt lat="60.37219" lon="7.58313">
        <ele>1303.69</ele>
        <time>2019-04-02T11:35:53Z</time>
      </trkpt>
      <trkpt lat="60.3722" lon="7.58287">
        <ele>1303.69</ele>
        <time>2019-04-02T11:35:55Z</time>
      </trkpt>
      <trkpt lat="60.37221" lon="7.58201">
        <ele>1302.24</ele>
        <time>2019-04-02T11:36:01Z</time>
      </trkpt>
      <trkpt lat="60.37222" lon="7.58142">
        <ele>1298.88</ele>
        <time>2019-04-02T11:36:04Z</time>
      </trkpt>
      <trkpt lat="60.37222" lon="7.5812">
        <ele>1296.96</ele>
        <time>2019-04-02T11:36:05Z</time>
      </trkpt>
      <trkpt lat="60.37225" lon="7.58073">
        <ele>1295.99</ele>
        <time>2019-04-02T11:36:07Z</time>
      </trkpt>
      <trkpt lat="60.37229" lon="7.58029">
        <ele>1295.51</ele>
        <time>2019-04-02T11:36:09Z</time>
      </trkpt>
      <trkpt lat="60.37238" lon="7.579">
        <ele>1295.03</ele>
        <time>2019-04-02T11:36:15Z</time>
      </trkpt>
      <trkpt lat="60.37238" lon="7.57882">
        <ele>1296.48</ele>
        <time>2019-04-02T11:36:16Z</time>
      </trkpt>
      <trkpt lat="60.37235" lon="7.57828">
        <ele>1299.84</ele>
        <time>2019-04-02T11:36:19Z</time>
      </trkpt>
      <trkpt lat="60.37236" lon="7.57811">
        <ele>1299.84</ele>
        <time>2019-04-02T11:36:20Z</time>
      </trkpt>
      <trkpt lat="60.3724" lon="7.57736">
        <ele>1300.8</ele>
        <time>2019-04-02T11:36:24Z</time>
      </trkpt>
      <trkpt lat="60.37244" lon="7.57684">
        <ele>1303.2</ele>
        <time>2019-04-02T11:36:27Z</time>
      </trkpt>
      <trkpt lat="60.37249" lon="7.57665">
        <ele>1303.69</ele>
        <time>2019-04-02T11:36:29Z</time>
      </trkpt>
      <trkpt lat="60.37261" lon="7.57674">
        <ele>1301.76</ele>
        <time>2019-04-02T11:36:31Z</time>
      </trkpt>
      <trkpt lat="60.37289" lon="7.57725">
        <ele>1296.48</ele>
        <time>2019-04-02T11:36:35Z</time>
      </trkpt>
      <trkpt lat="60.3732" lon="7.57772">
        <ele>1297.92</ele>
        <time>2019-04-02T11:36:39Z</time>
      </trkpt>
      <trkpt lat="60.37339" lon="7.57798">
        <ele>1299.84</ele>
        <time>2019-04-02T11:36:42Z</time>
      </trkpt>
      <trkpt lat="60.37359" lon="7.57793">
        <ele>1296.48</ele>
        <time>2019-04-02T11:36:45Z</time>
      </trkpt>
      <trkpt lat="60.37362" lon="7.57784">
        <ele>1295.99</ele>
        <time>2019-04-02T11:36:46Z</time>
      </trkpt>
      <trkpt lat="60.37377" lon="7.57724">
        <ele>1292.63</ele>
        <time>2019-04-02T11:36:53Z</time>
      </trkpt>
      <trkpt lat="60.37381" lon="7.57727">
        <ele>1292.63</ele>
        <time>2019-04-02T11:36:54Z</time>
      </trkpt>
      <trkpt lat="60.37393" lon="7.57735">
        <ele>1292.15</ele>
        <time>2019-04-02T11:36:56Z</time>
      </trkpt>
      <trkpt lat="60.37423" lon="7.57781">
        <ele>1290.23</ele>
        <time>2019-04-02T11:37:01Z</time>
      </trkpt>
      <trkpt lat="60.3744" lon="7.57815">
        <ele>1288.3</ele>
        <time>2019-04-02T11:37:04Z</time>
      </trkpt>
      <trkpt lat="60.37461" lon="7.57869">
        <ele>1288.3</ele>
        <time>2019-04-02T11:37:08Z</time>
      </trkpt>
      <trkpt lat="60.37465" lon="7.57883">
        <ele>1287.82</ele>
        <time>2019-04-02T11:37:09Z</time>
      </trkpt>
      <trkpt lat="60.37484" lon="7.57922">
        <ele>1285.42</ele>
        <time>2019-04-02T11:37:12Z</time>
      </trkpt>
      <trkpt lat="60.37495" lon="7.57947">
        <ele>1283.02</ele>
        <time>2019-04-02T11:37:14Z</time>
      </trkpt>
      <trkpt lat="60.37527" lon="7.57988">
        <ele>1278.21</ele>
        <time>2019-04-02T11:37:18Z</time>
      </trkpt>
      <trkpt lat="60.37538" lon="7.57997">
        <ele>1276.29</ele>
        <time>2019-04-02T11:37:19Z</time>
      </trkpt>
      <trkpt lat="60.37564" lon="7.57997">
        <ele>1277.25</ele>
        <time>2019-04-02T11:37:22Z</time>
      </trkpt>
      <trkpt lat="60.37569" lon="7.57968">
        <ele>1275.81</ele>
        <time>2019-04-02T11:37:24Z</time>
      </trkpt>
      <trkpt lat="60.37573" lon="7.57932">
        <ele>1274.36</ele>
        <time>2019-04-02T11:37:26Z</time>
      </trkpt>
      <trkpt lat="60.3758" lon="7.57895">
        <ele>1273.4</ele>
        <time>2019-04-02T11:37:28Z</time>
      </trkpt>
      <trkpt lat="60.37591" lon="7.57843">
        <ele>1272.44</ele>
        <time>2019-04-02T11:37:31Z</time>
      </trkpt>
      <trkpt lat="60.37599" lon="7.57784">
        <ele>1271</ele>
        <time>2019-04-02T11:37:34Z</time>
      </trkpt>
      <trkpt lat="60.37618" lon="7.57709">
        <ele>1269.56</ele>
        <time>2019-04-02T11:37:38Z</time>
      </trkpt>
      <trkpt lat="60.37627" lon="7.57669">
        <ele>1269.08</ele>
        <time>2019-04-02T11:37:40Z</time>
      </trkpt>
      <trkpt lat="60.37639" lon="7.57602">
        <ele>1266.19</ele>
        <time>2019-04-02T11:37:43Z</time>
      </trkpt>
      <trkpt lat="60.37649" lon="7.57557">
        <ele>1263.31</ele>
        <time>2019-04-02T11:37:46Z</time>
      </trkpt>
      <trkpt lat="60.37663" lon="7.57554">
        <ele>1264.75</ele>
        <time>2019-04-02T11:37:48Z</time>
      </trkpt>
      <trkpt lat="60.37678" lon="7.57563">
        <ele>1262.83</ele>
        <time>2019-04-02T11:37:50Z</time>
      </trkpt>
      <trkpt lat="60.37761" lon="7.57618">
        <ele>1264.75</ele>
        <time>2019-04-02T11:38:00Z</time>
      </trkpt>
      <trkpt lat="60.37784" lon="7.57612">
        <ele>1262.83</ele>
        <time>2019-04-02T11:38:04Z</time>
      </trkpt>
      <trkpt lat="60.37801" lon="7.57594">
        <ele>1260.91</ele>
        <time>2019-04-02T11:38:07Z</time>
      </trkpt>
      <trkpt lat="60.3782" lon="7.5754">
        <ele>1257.54</ele>
        <time>2019-04-02T11:38:12Z</time>
      </trkpt>
      <trkpt lat="60.37824" lon="7.57477">
        <ele>1256.58</ele>
        <time>2019-04-02T11:38:16Z</time>
      </trkpt>
      <trkpt lat="60.37824" lon="7.57441">
        <ele>1255.14</ele>
        <time>2019-04-02T11:38:18Z</time>
      </trkpt>
      <trkpt lat="60.37825" lon="7.57402">
        <ele>1253.7</ele>
        <time>2019-04-02T11:38:20Z</time>
      </trkpt>
      <trkpt lat="60.37832" lon="7.57354">
        <ele>1251.29</ele>
        <time>2019-04-02T11:38:23Z</time>
      </trkpt>
      <trkpt lat="60.37832" lon="7.57341">
        <ele>1251.29</ele>
        <time>2019-04-02T11:38:24Z</time>
      </trkpt>
      <trkpt lat="60.37831" lon="7.573">
        <ele>1249.37</ele>
        <time>2019-04-02T11:38:27Z</time>
      </trkpt>
      <trkpt lat="60.37823" lon="7.57236">
        <ele>1247.45</ele>
        <time>2019-04-02T11:38:32Z</time>
      </trkpt>
      <trkpt lat="60.3782" lon="7.57212">
        <ele>1249.37</ele>
        <time>2019-04-02T11:38:34Z</time>
      </trkpt>
      <trkpt lat="60.37816" lon="7.5716">
        <ele>1246.49</ele>
        <time>2019-04-02T11:38:38Z</time>
      </trkpt>
      <trkpt lat="60.37822" lon="7.57113">
        <ele>1242.64</ele>
        <time>2019-04-02T11:38:42Z</time>
      </trkpt>
      <trkpt lat="60.3783" lon="7.57089">
        <ele>1241.2</ele>
        <time>2019-04-02T11:38:44Z</time>
      </trkpt>
      <trkpt lat="60.37837" lon="7.57066">
        <ele>1240.24</ele>
        <time>2019-04-02T11:38:46Z</time>
      </trkpt>
      <trkpt lat="60.37842" lon="7.57035">
        <ele>1242.16</ele>
        <time>2019-04-02T11:38:50Z</time>
      </trkpt>
      <trkpt lat="60.37841" lon="7.57019">
        <ele>1243.6</ele>
        <time>2019-04-02T11:38:53Z</time>
      </trkpt>
      <trkpt lat="60.3784" lon="7.57003">
        <ele>1241.68</ele>
        <time>2019-04-02T11:38:56Z</time>
      </trkpt>
      <trkpt lat="60.3784" lon="7.56998">
        <ele>1240.72</ele>
        <time>2019-04-02T11:38:57Z</time>
      </trkpt>
      <trkpt lat="60.3784" lon="7.56994">
        <ele>1240.72</ele>
        <time>2019-04-02T11:38:58Z</time>
      </trkpt>
      <trkpt lat="60.37839" lon="7.56991">
        <ele>1242.16</ele>
        <time>2019-04-02T11:39:00Z</time>
      </trkpt>
      <trkpt lat="60.3784" lon="7.56988">
        <ele>1242.64</ele>
        <time>2019-04-02T11:39:03Z</time>
      </trkpt>
      <trkpt lat="60.37839" lon="7.56986">
        <ele>1240.72</ele>
        <time>2019-04-02T11:39:19Z</time>
      </trkpt>
      <trkpt lat="60.37837" lon="7.5698">
        <ele>1240.72</ele>
        <time>2019-04-02T11:39:38Z</time>
      </trkpt>
      <trkpt lat="60.37836" lon="7.56981">
        <ele>1242.16</ele>
        <time>2019-04-02T11:39:44Z</time>
      </trkpt>
      <trkpt lat="60.37836" lon="7.5698">
        <ele>1242.16</ele>
        <time>2019-04-02T11:39:53Z</time>
      </trkpt>
      <trkpt lat="60.37836" lon="7.5698">
        <ele>1242.64</ele>
        <time>2019-04-02T11:39:57Z</time>
      </trkpt>
      <trkpt lat="60.37836" lon="7.5698">
        <ele>1241.2</ele>
        <time>2019-04-02T11:40:01Z</time>
      </trkpt>
      <trkpt lat="60.37834" lon="7.56976">
        <ele>1242.16</ele>
        <time>2019-04-02T11:40:21Z</time>
      </trkpt>
      <trkpt lat="60.37832" lon="7.56965">
        <ele>1242.16</ele>
        <time>2019-04-02T11:40:32Z</time>
      </trkpt>
      <trkpt lat="60.37831" lon="7.56963">
        <ele>1242.16</ele>
        <time>2019-04-02T11:40:33Z</time>
      </trkpt>
      <trkpt lat="60.3783" lon="7.56961">
        <ele>1242.16</ele>
        <time>2019-04-02T11:40:34Z</time>
      </trkpt>
      <trkpt lat="60.3783" lon="7.56958">
        <ele>1238.8</ele>
        <time>2019-04-02T11:40:36Z</time>
      </trkpt>
      <trkpt lat="60.3783" lon="7.56957">
        <ele>1238.32</ele>
        <time>2019-04-02T11:40:37Z</time>
      </trkpt>
      <trkpt lat="60.3783" lon="7.56952">
        <ele>1236.87</ele>
        <time>2019-04-02T11:40:39Z</time>
      </trkpt>
      <trkpt lat="60.37829" lon="7.56949">
        <ele>1236.87</ele>
        <time>2019-04-02T11:40:40Z</time>
      </trkpt>
      <trkpt lat="60.37829" lon="7.56946">
        <ele>1236.87</ele>
        <time>2019-04-02T11:40:41Z</time>
      </trkpt>
      <trkpt lat="60.37829" lon="7.56944">
        <ele>1236.87</ele>
        <time>2019-04-02T11:40:42Z</time>
      </trkpt>
      <trkpt lat="60.37828" lon="7.56942">
        <ele>1236.87</ele>
        <time>2019-04-02T11:40:43Z</time>
      </trkpt>
      <trkpt lat="60.37828" lon="7.56933">
        <ele>1236.87</ele>
        <time>2019-04-02T11:40:47Z</time>
      </trkpt>
      <trkpt lat="60.37828" lon="7.56928">
        <ele>1236.87</ele>
        <time>2019-04-02T11:40:56Z</time>
      </trkpt>
      <trkpt lat="60.37828" lon="7.56926">
        <ele>1240.24</ele>
        <time>2019-04-02T11:40:57Z</time>
      </trkpt>
      <trkpt lat="60.37829" lon="7.56923">
        <ele>1240.24</ele>
        <time>2019-04-02T11:40:58Z</time>
      </trkpt>
      <trkpt lat="60.37829" lon="7.56919">
        <ele>1240.24</ele>
        <time>2019-04-02T11:40:59Z</time>
      </trkpt>
      <trkpt lat="60.37832" lon="7.56898">
        <ele>1238.32</ele>
        <time>2019-04-02T11:41:01Z</time>
      </trkpt>
      <trkpt lat="60.37831" lon="7.56886">
        <ele>1236.87</ele>
        <time>2019-04-02T11:41:02Z</time>
      </trkpt>
      <trkpt lat="60.37829" lon="7.56877">
        <ele>1239.28</ele>
        <time>2019-04-02T11:41:03Z</time>
      </trkpt>
      <trkpt lat="60.37826" lon="7.56866">
        <ele>1234.47</ele>
        <time>2019-04-02T11:41:04Z</time>
      </trkpt>
      <trkpt lat="60.37822" lon="7.56856">
        <ele>1234.47</ele>
        <time>2019-04-02T11:41:05Z</time>
      </trkpt>
      <trkpt lat="60.37818" lon="7.56847">
        <ele>1238.8</ele>
        <time>2019-04-02T11:41:06Z</time>
      </trkpt>
      <trkpt lat="60.37814" lon="7.56837">
        <ele>1239.28</ele>
        <time>2019-04-02T11:41:07Z</time>
      </trkpt>
      <trkpt lat="60.37808" lon="7.56816">
        <ele>1239.28</ele>
        <time>2019-04-02T11:41:09Z</time>
      </trkpt>
      <trkpt lat="60.37798" lon="7.56763">
        <ele>1236.87</ele>
        <time>2019-04-02T11:41:13Z</time>
      </trkpt>
      <trkpt lat="60.37796" lon="7.56755">
        <ele>1238.8</ele>
        <time>2019-04-02T11:41:14Z</time>
      </trkpt>
      <trkpt lat="60.37796" lon="7.56738">
        <ele>1237.35</ele>
        <time>2019-04-02T11:41:16Z</time>
      </trkpt>
      <trkpt lat="60.37789" lon="7.56683">
        <ele>1237.83</ele>
        <time>2019-04-02T11:41:23Z</time>
      </trkpt>
      <trkpt lat="60.37786" lon="7.56668">
        <ele>1236.87</ele>
        <time>2019-04-02T11:41:25Z</time>
      </trkpt>
      <trkpt lat="60.37784" lon="7.5666">
        <ele>1236.87</ele>
        <time>2019-04-02T11:41:26Z</time>
      </trkpt>
      <trkpt lat="60.37781" lon="7.56633">
        <ele>1237.35</ele>
        <time>2019-04-02T11:41:29Z</time>
      </trkpt>
      <trkpt lat="60.37774" lon="7.56611">
        <ele>1233.03</ele>
        <time>2019-04-02T11:41:32Z</time>
      </trkpt>
      <trkpt lat="60.37771" lon="7.56605">
        <ele>1234.95</ele>
        <time>2019-04-02T11:41:33Z</time>
      </trkpt>
      <trkpt lat="60.37768" lon="7.56592">
        <ele>1236.39</ele>
        <time>2019-04-02T11:41:35Z</time>
      </trkpt>
      <trkpt lat="60.3776" lon="7.56558">
        <ele>1234.95</ele>
        <time>2019-04-02T11:41:42Z</time>
      </trkpt>
      <trkpt lat="60.37759" lon="7.56554">
        <ele>1234.95</ele>
        <time>2019-04-02T11:41:43Z</time>
      </trkpt>
      <trkpt lat="60.37756" lon="7.56546">
        <ele>1234.95</ele>
        <time>2019-04-02T11:41:47Z</time>
      </trkpt>
      <trkpt lat="60.3776" lon="7.56542">
        <ele>1233.51</ele>
        <time>2019-04-02T11:41:51Z</time>
      </trkpt>
      <trkpt lat="60.37763" lon="7.56543">
        <ele>1233.51</ele>
        <time>2019-04-02T11:41:56Z</time>
      </trkpt>
      <trkpt lat="60.37776" lon="7.56545">
        <ele>1234.95</ele>
        <time>2019-04-02T11:42:04Z</time>
      </trkpt>
      <trkpt lat="60.37778" lon="7.56554">
        <ele>1234.95</ele>
        <time>2019-04-02T11:42:05Z</time>
      </trkpt>
      <trkpt lat="60.37784" lon="7.56579">
        <ele>1234.95</ele>
        <time>2019-04-02T11:42:08Z</time>
      </trkpt>
      <trkpt lat="60.37794" lon="7.56655">
        <ele>1234.47</ele>
        <time>2019-04-02T11:42:17Z</time>
      </trkpt>
      <trkpt lat="60.37796" lon="7.56679">
        <ele>1235.91</ele>
        <time>2019-04-02T11:42:20Z</time>
      </trkpt>
      <trkpt lat="60.37801" lon="7.56707">
        <ele>1236.87</ele>
        <time>2019-04-02T11:42:24Z</time>
      </trkpt>
      <trkpt lat="60.3781" lon="7.56755">
        <ele>1236.87</ele>
        <time>2019-04-02T11:42:34Z</time>
      </trkpt>
      <trkpt lat="60.37809" lon="7.56739">
        <ele>1234.95</ele>
        <time>2019-04-02T11:42:36Z</time>
      </trkpt>
      <trkpt lat="60.37805" lon="7.5672">
        <ele>1236.39</ele>
        <time>2019-04-02T11:42:38Z</time>
      </trkpt>
      <trkpt lat="60.37767" lon="7.56593">
        <ele>1236.87</ele>
        <time>2019-04-02T11:42:48Z</time>
      </trkpt>
      <trkpt lat="60.37757" lon="7.56549">
        <ele>1236.87</ele>
        <time>2019-04-02T11:42:51Z</time>
      </trkpt>
      <trkpt lat="60.37709" lon="7.56362">
        <ele>1235.43</ele>
        <time>2019-04-02T11:43:02Z</time>
      </trkpt>
      <trkpt lat="60.37663" lon="7.56139">
        <ele>1234.47</ele>
        <time>2019-04-02T11:43:14Z</time>
      </trkpt>
      <trkpt lat="60.37655" lon="7.56082">
        <ele>1235.43</ele>
        <time>2019-04-02T11:43:17Z</time>
      </trkpt>
      <trkpt lat="60.37629" lon="7.55945">
        <ele>1237.83</ele>
        <time>2019-04-02T11:43:24Z</time>
      </trkpt>
      <trkpt lat="60.37612" lon="7.55859">
        <ele>1235.91</ele>
        <time>2019-04-02T11:43:28Z</time>
      </trkpt>
      <trkpt lat="60.37595" lon="7.55774">
        <ele>1234.95</ele>
        <time>2019-04-02T11:43:32Z</time>
      </trkpt>
      <trkpt lat="60.37585" lon="7.55733">
        <ele>1233.99</ele>
        <time>2019-04-02T11:43:34Z</time>
      </trkpt>
      <trkpt lat="60.37577" lon="7.55696">
        <ele>1235.43</ele>
        <time>2019-04-02T11:43:36Z</time>
      </trkpt>
      <trkpt lat="60.37562" lon="7.55622">
        <ele>1235.91</ele>
        <time>2019-04-02T11:43:40Z</time>
      </trkpt>
      <trkpt lat="60.37554" lon="7.55572">
        <ele>1235.91</ele>
        <time>2019-04-02T11:43:43Z</time>
      </trkpt>
      <trkpt lat="60.37551" lon="7.55556">
        <ele>1236.39</ele>
        <time>2019-04-02T11:43:44Z</time>
      </trkpt>
      <trkpt lat="60.37548" lon="7.5554">
        <ele>1236.39</ele>
        <time>2019-04-02T11:43:45Z</time>
      </trkpt>
      <trkpt lat="60.37545" lon="7.55523">
        <ele>1236.87</ele>
        <time>2019-04-02T11:43:46Z</time>
      </trkpt>
      <trkpt lat="60.37543" lon="7.55507">
        <ele>1236.39</ele>
        <time>2019-04-02T11:43:47Z</time>
      </trkpt>
      <trkpt lat="60.3754" lon="7.55491">
        <ele>1236.87</ele>
        <time>2019-04-02T11:43:48Z</time>
      </trkpt>
      <trkpt lat="60.37531" lon="7.55441">
        <ele>1238.32</ele>
        <time>2019-04-02T11:43:51Z</time>
      </trkpt>
      <trkpt lat="60.37524" lon="7.55408">
        <ele>1237.83</ele>
        <time>2019-04-02T11:43:53Z</time>
      </trkpt>
      <trkpt lat="60.37513" lon="7.55345">
        <ele>1240.24</ele>
        <time>2019-04-02T11:43:57Z</time>
      </trkpt>
      <trkpt lat="60.37502" lon="7.55287">
        <ele>1242.64</ele>
        <time>2019-04-02T11:44:01Z</time>
      </trkpt>
      <trkpt lat="60.37498" lon="7.55257">
        <ele>1241.2</ele>
        <time>2019-04-02T11:44:03Z</time>
      </trkpt>
      <trkpt lat="60.3749" lon="7.55192">
        <ele>1238.8</ele>
        <time>2019-04-02T11:44:07Z</time>
      </trkpt>
      <trkpt lat="60.37488" lon="7.55178">
        <ele>1242.64</ele>
        <time>2019-04-02T11:44:08Z</time>
      </trkpt>
      <trkpt lat="60.37486" lon="7.55164">
        <ele>1242.64</ele>
        <time>2019-04-02T11:44:09Z</time>
      </trkpt>
      <trkpt lat="60.37475" lon="7.5507">
        <ele>1241.2</ele>
        <time>2019-04-02T11:44:15Z</time>
      </trkpt>
      <trkpt lat="60.37469" lon="7.5502">
        <ele>1242.16</ele>
        <time>2019-04-02T11:44:18Z</time>
      </trkpt>
      <trkpt lat="60.37463" lon="7.54973">
        <ele>1241.68</ele>
        <time>2019-04-02T11:44:21Z</time>
      </trkpt>
      <trkpt lat="60.37461" lon="7.5496">
        <ele>1240.24</ele>
        <time>2019-04-02T11:44:22Z</time>
      </trkpt>
      <trkpt lat="60.37459" lon="7.54948">
        <ele>1240.72</ele>
        <time>2019-04-02T11:44:23Z</time>
      </trkpt>
      <trkpt lat="60.37458" lon="7.54936">
        <ele>1242.16</ele>
        <time>2019-04-02T11:44:24Z</time>
      </trkpt>
      <trkpt lat="60.37457" lon="7.54924">
        <ele>1245.04</ele>
        <time>2019-04-02T11:44:25Z</time>
      </trkpt>
      <trkpt lat="60.37456" lon="7.54911">
        <ele>1245.04</ele>
        <time>2019-04-02T11:44:26Z</time>
      </trkpt>
      <trkpt lat="60.37447" lon="7.54793">
        <ele>1247.45</ele>
        <time>2019-04-02T11:44:34Z</time>
      </trkpt>
      <trkpt lat="60.37446" lon="7.54778">
        <ele>1247.45</ele>
        <time>2019-04-02T11:44:35Z</time>
      </trkpt>
      <trkpt lat="60.37443" lon="7.54747">
        <ele>1249.37</ele>
        <time>2019-04-02T11:44:37Z</time>
      </trkpt>
      <trkpt lat="60.37436" lon="7.54692">
        <ele>1250.33</ele>
        <time>2019-04-02T11:44:41Z</time>
      </trkpt>
      <trkpt lat="60.37435" lon="7.54679">
        <ele>1251.29</ele>
        <time>2019-04-02T11:44:42Z</time>
      </trkpt>
      <trkpt lat="60.37433" lon="7.54667">
        <ele>1252.25</ele>
        <time>2019-04-02T11:44:43Z</time>
      </trkpt>
      <trkpt lat="60.37427" lon="7.54631">
        <ele>1253.7</ele>
        <time>2019-04-02T11:44:46Z</time>
      </trkpt>
      <trkpt lat="60.37424" lon="7.54619">
        <ele>1254.66</ele>
        <time>2019-04-02T11:44:47Z</time>
      </trkpt>
      <trkpt lat="60.37391" lon="7.54486">
        <ele>1251.29</ele>
        <time>2019-04-02T11:44:56Z</time>
      </trkpt>
      <trkpt lat="60.37388" lon="7.54466">
        <ele>1247.93</ele>
        <time>2019-04-02T11:44:57Z</time>
      </trkpt>
      <trkpt lat="60.37384" lon="7.54446">
        <ele>1247.93</ele>
        <time>2019-04-02T11:44:58Z</time>
      </trkpt>
      <trkpt lat="60.3735" lon="7.54289">
        <ele>1243.6</ele>
        <time>2019-04-02T11:45:07Z</time>
      </trkpt>
      <trkpt lat="60.37345" lon="7.54273">
        <ele>1243.6</ele>
        <time>2019-04-02T11:45:08Z</time>
      </trkpt>
      <trkpt lat="60.3734" lon="7.54257">
        <ele>1247.45</ele>
        <time>2019-04-02T11:45:09Z</time>
      </trkpt>
      <trkpt lat="60.37336" lon="7.54242">
        <ele>1247.45</ele>
        <time>2019-04-02T11:45:10Z</time>
      </trkpt>
      <trkpt lat="60.37322" lon="7.54196">
        <ele>1242.64</ele>
        <time>2019-04-02T11:45:13Z</time>
      </trkpt>
      <trkpt lat="60.37305" lon="7.54139">
        <ele>1243.6</ele>
        <time>2019-04-02T11:45:17Z</time>
      </trkpt>
      <trkpt lat="60.37296" lon="7.54113">
        <ele>1242.16</ele>
        <time>2019-04-02T11:45:19Z</time>
      </trkpt>
      <trkpt lat="60.37292" lon="7.54099">
        <ele>1242.16</ele>
        <time>2019-04-02T11:45:20Z</time>
      </trkpt>
      <trkpt lat="60.37282" lon="7.54058">
        <ele>1239.76</ele>
        <time>2019-04-02T11:45:23Z</time>
      </trkpt>
      <trkpt lat="60.37272" lon="7.54019">
        <ele>1241.2</ele>
        <time>2019-04-02T11:45:26Z</time>
      </trkpt>
      <trkpt lat="60.3727" lon="7.54006">
        <ele>1242.16</ele>
        <time>2019-04-02T11:45:27Z</time>
      </trkpt>
      <trkpt lat="60.37267" lon="7.53994">
        <ele>1240.24</ele>
        <time>2019-04-02T11:45:28Z</time>
      </trkpt>
      <trkpt lat="60.37245" lon="7.53843">
        <ele>1243.12</ele>
        <time>2019-04-02T11:45:39Z</time>
      </trkpt>
      <trkpt lat="60.37241" lon="7.53822">
        <ele>1242.64</ele>
        <time>2019-04-02T11:45:41Z</time>
      </trkpt>
      <trkpt lat="60.37238" lon="7.53812">
        <ele>1244.56</ele>
        <time>2019-04-02T11:45:42Z</time>
      </trkpt>
      <trkpt lat="60.37237" lon="7.53802">
        <ele>1244.56</ele>
        <time>2019-04-02T11:45:43Z</time>
      </trkpt>
      <trkpt lat="60.37235" lon="7.53792">
        <ele>1243.12</ele>
        <time>2019-04-02T11:45:44Z</time>
      </trkpt>
      <trkpt lat="60.37234" lon="7.53781">
        <ele>1243.12</ele>
        <time>2019-04-02T11:45:45Z</time>
      </trkpt>
      <trkpt lat="60.37229" lon="7.53702">
        <ele>1241.68</ele>
        <time>2019-04-02T11:45:52Z</time>
      </trkpt>
      <trkpt lat="60.37229" lon="7.5369">
        <ele>1241.68</ele>
        <time>2019-04-02T11:45:53Z</time>
      </trkpt>
      <trkpt lat="60.3723" lon="7.53679">
        <ele>1241.68</ele>
        <time>2019-04-02T11:45:54Z</time>
      </trkpt>
      <trkpt lat="60.37235" lon="7.53637">
        <ele>1241.68</ele>
        <time>2019-04-02T11:45:58Z</time>
      </trkpt>
      <trkpt lat="60.37237" lon="7.53627">
        <ele>1241.68</ele>
        <time>2019-04-02T11:45:59Z</time>
      </trkpt>
      <trkpt lat="60.37255" lon="7.53562">
        <ele>1237.83</ele>
        <time>2019-04-02T11:46:05Z</time>
      </trkpt>
      <trkpt lat="60.37257" lon="7.53557">
        <ele>1237.83</ele>
        <time>2019-04-02T11:46:06Z</time>
      </trkpt>
      <trkpt lat="60.37258" lon="7.53555">
        <ele>1239.28</ele>
        <time>2019-04-02T11:46:08Z</time>
      </trkpt>
      <trkpt lat="60.3726" lon="7.53553">
        <ele>1239.28</ele>
        <time>2019-04-02T11:46:09Z</time>
      </trkpt>
      <trkpt lat="60.37262" lon="7.53549">
        <ele>1239.28</ele>
        <time>2019-04-02T11:46:10Z</time>
      </trkpt>
      <trkpt lat="60.37265" lon="7.53542">
        <ele>1239.28</ele>
        <time>2019-04-02T11:46:11Z</time>
      </trkpt>
      <trkpt lat="60.37266" lon="7.53534">
        <ele>1239.28</ele>
        <time>2019-04-02T11:46:12Z</time>
      </trkpt>
      <trkpt lat="60.37267" lon="7.53524">
        <ele>1239.28</ele>
        <time>2019-04-02T11:46:13Z</time>
      </trkpt>
      <trkpt lat="60.37268" lon="7.53515">
        <ele>1239.28</ele>
        <time>2019-04-02T11:46:14Z</time>
      </trkpt>
      <trkpt lat="60.37271" lon="7.53505">
        <ele>1239.28</ele>
        <time>2019-04-02T11:46:15Z</time>
      </trkpt>
      <trkpt lat="60.37273" lon="7.53501">
        <ele>1239.28</ele>
        <time>2019-04-02T11:46:16Z</time>
      </trkpt>
      <trkpt lat="60.37274" lon="7.535">
        <ele>1239.28</ele>
        <time>2019-04-02T11:46:17Z</time>
      </trkpt>
      <trkpt lat="60.37275" lon="7.53497">
        <ele>1239.76</ele>
        <time>2019-04-02T11:46:18Z</time>
      </trkpt>
      <trkpt lat="60.37275" lon="7.53495">
        <ele>1239.76</ele>
        <time>2019-04-02T11:46:19Z</time>
      </trkpt>
      <trkpt lat="60.37275" lon="7.53492">
        <ele>1239.76</ele>
        <time>2019-04-02T11:46:20Z</time>
      </trkpt>
      <trkpt lat="60.37275" lon="7.5349">
        <ele>1239.76</ele>
        <time>2019-04-02T11:46:21Z</time>
      </trkpt>
      <trkpt lat="60.37275" lon="7.53488">
        <ele>1240.24</ele>
        <time>2019-04-02T11:46:35Z</time>
      </trkpt>
      <trkpt lat="60.37276" lon="7.53486">
        <ele>1240.24</ele>
        <time>2019-04-02T11:46:37Z</time>
      </trkpt>
      <trkpt lat="60.37276" lon="7.53482">
        <ele>1240.24</ele>
        <time>2019-04-02T11:46:38Z</time>
      </trkpt>
      <trkpt lat="60.37276" lon="7.53475">
        <ele>1240.24</ele>
        <time>2019-04-02T11:46:39Z</time>
      </trkpt>
      <trkpt lat="60.37279" lon="7.53443">
        <ele>1238.8</ele>
        <time>2019-04-02T11:46:42Z</time>
      </trkpt>
      <trkpt lat="60.37281" lon="7.53431">
        <ele>1238.8</ele>
        <time>2019-04-02T11:46:43Z</time>
      </trkpt>
      <trkpt lat="60.37283" lon="7.53419">
        <ele>1236.87</ele>
        <time>2019-04-02T11:46:44Z</time>
      </trkpt>
      <trkpt lat="60.37288" lon="7.53394">
        <ele>1235.43</ele>
        <time>2019-04-02T11:46:46Z</time>
      </trkpt>
      <trkpt lat="60.37289" lon="7.53381">
        <ele>1235.43</ele>
        <time>2019-04-02T11:46:47Z</time>
      </trkpt>
      <trkpt lat="60.37292" lon="7.53325">
        <ele>1230.14</ele>
        <time>2019-04-02T11:46:50Z</time>
      </trkpt>
      <trkpt lat="60.37292" lon="7.53302">
        <ele>1227.26</ele>
        <time>2019-04-02T11:46:51Z</time>
      </trkpt>
      <trkpt lat="60.37291" lon="7.53279">
        <ele>1224.38</ele>
        <time>2019-04-02T11:46:52Z</time>
      </trkpt>
      <trkpt lat="60.37289" lon="7.53256">
        <ele>1225.82</ele>
        <time>2019-04-02T11:46:53Z</time>
      </trkpt>
      <trkpt lat="60.37273" lon="7.53156">
        <ele>1221.97</ele>
        <time>2019-04-02T11:46:58Z</time>
      </trkpt>
      <trkpt lat="60.37269" lon="7.53138">
        <ele>1221.97</ele>
        <time>2019-04-02T11:46:59Z</time>
      </trkpt>
      <trkpt lat="60.37265" lon="7.53121">
        <ele>1225.82</ele>
        <time>2019-04-02T11:47:00Z</time>
      </trkpt>
      <trkpt lat="60.37257" lon="7.53091">
        <ele>1229.18</ele>
        <time>2019-04-02T11:47:02Z</time>
      </trkpt>
      <trkpt lat="60.3725" lon="7.53062">
        <ele>1228.7</ele>
        <time>2019-04-02T11:47:04Z</time>
      </trkpt>
      <trkpt lat="60.37247" lon="7.53047">
        <ele>1227.74</ele>
        <time>2019-04-02T11:47:05Z</time>
      </trkpt>
      <trkpt lat="60.3724" lon="7.53017">
        <ele>1230.62</ele>
        <time>2019-04-02T11:47:07Z</time>
      </trkpt>
      <trkpt lat="60.37229" lon="7.52973">
        <ele>1232.07</ele>
        <time>2019-04-02T11:47:10Z</time>
      </trkpt>
      <trkpt lat="60.37219" lon="7.5293">
        <ele>1232.55</ele>
        <time>2019-04-02T11:47:13Z</time>
      </trkpt>
      <trkpt lat="60.37212" lon="7.52904">
        <ele>1233.99</ele>
        <time>2019-04-02T11:47:15Z</time>
      </trkpt>
      <trkpt lat="60.37191" lon="7.52829">
        <ele>1234.47</ele>
        <time>2019-04-02T11:47:21Z</time>
      </trkpt>
      <trkpt lat="60.37187" lon="7.52817">
        <ele>1233.03</ele>
        <time>2019-04-02T11:47:22Z</time>
      </trkpt>
      <trkpt lat="60.37184" lon="7.52805">
        <ele>1233.03</ele>
        <time>2019-04-02T11:47:23Z</time>
      </trkpt>
      <trkpt lat="60.37158" lon="7.52714">
        <ele>1232.55</ele>
        <time>2019-04-02T11:47:31Z</time>
      </trkpt>
      <trkpt lat="60.37146" lon="7.52669">
        <ele>1233.03</ele>
        <time>2019-04-02T11:47:35Z</time>
      </trkpt>
      <trkpt lat="60.37143" lon="7.52657">
        <ele>1233.03</ele>
        <time>2019-04-02T11:47:36Z</time>
      </trkpt>
      <trkpt lat="60.3714" lon="7.52646">
        <ele>1229.66</ele>
        <time>2019-04-02T11:47:37Z</time>
      </trkpt>
      <trkpt lat="60.37137" lon="7.52636">
        <ele>1231.11</ele>
        <time>2019-04-02T11:47:38Z</time>
      </trkpt>
      <trkpt lat="60.37114" lon="7.52554">
        <ele>1230.62</ele>
        <time>2019-04-02T11:47:45Z</time>
      </trkpt>
      <trkpt lat="60.37104" lon="7.52514">
        <ele>1232.07</ele>
        <time>2019-04-02T11:47:48Z</time>
      </trkpt>
      <trkpt lat="60.37084" lon="7.52439">
        <ele>1227.74</ele>
        <time>2019-04-02T11:47:53Z</time>
      </trkpt>
      <trkpt lat="60.37075" lon="7.52406">
        <ele>1225.82</ele>
        <time>2019-04-02T11:47:55Z</time>
      </trkpt>
      <trkpt lat="60.37066" lon="7.52376">
        <ele>1228.7</ele>
        <time>2019-04-02T11:47:57Z</time>
      </trkpt>
      <trkpt lat="60.37053" lon="7.52332">
        <ele>1224.38</ele>
        <time>2019-04-02T11:48:00Z</time>
      </trkpt>
      <trkpt lat="60.37049" lon="7.52318">
        <ele>1228.22</ele>
        <time>2019-04-02T11:48:01Z</time>
      </trkpt>
      <trkpt lat="60.37046" lon="7.52303">
        <ele>1225.34</ele>
        <time>2019-04-02T11:48:02Z</time>
      </trkpt>
      <trkpt lat="60.37043" lon="7.52289">
        <ele>1225.34</ele>
        <time>2019-04-02T11:48:03Z</time>
      </trkpt>
      <trkpt lat="60.37036" lon="7.5226">
        <ele>1223.9</ele>
        <time>2019-04-02T11:48:05Z</time>
      </trkpt>
      <trkpt lat="60.37025" lon="7.5222">
        <ele>1227.74</ele>
        <time>2019-04-02T11:48:08Z</time>
      </trkpt>
      <trkpt lat="60.37021" lon="7.52206">
        <ele>1227.74</ele>
        <time>2019-04-02T11:48:09Z</time>
      </trkpt>
      <trkpt lat="60.37013" lon="7.5218">
        <ele>1229.66</ele>
        <time>2019-04-02T11:48:11Z</time>
      </trkpt>
      <trkpt lat="60.36992" lon="7.52111">
        <ele>1226.3</ele>
        <time>2019-04-02T11:48:16Z</time>
      </trkpt>
      <trkpt lat="60.36988" lon="7.52098">
        <ele>1230.62</ele>
        <time>2019-04-02T11:48:17Z</time>
      </trkpt>
      <trkpt lat="60.36984" lon="7.52085">
        <ele>1230.62</ele>
        <time>2019-04-02T11:48:18Z</time>
      </trkpt>
      <trkpt lat="60.36976" lon="7.52055">
        <ele>1228.7</ele>
        <time>2019-04-02T11:48:20Z</time>
      </trkpt>
      <trkpt lat="60.36968" lon="7.52028">
        <ele>1229.66</ele>
        <time>2019-04-02T11:48:22Z</time>
      </trkpt>
      <trkpt lat="60.36956" lon="7.51986">
        <ele>1226.3</ele>
        <time>2019-04-02T11:48:25Z</time>
      </trkpt>
      <trkpt lat="60.36951" lon="7.51972">
        <ele>1227.26</ele>
        <time>2019-04-02T11:48:26Z</time>
      </trkpt>
      <trkpt lat="60.36945" lon="7.51946">
        <ele>1228.22</ele>
        <time>2019-04-02T11:48:28Z</time>
      </trkpt>
      <trkpt lat="60.36935" lon="7.51895">
        <ele>1229.66</ele>
        <time>2019-04-02T11:48:32Z</time>
      </trkpt>
      <trkpt lat="60.36922" lon="7.51831">
        <ele>1233.03</ele>
        <time>2019-04-02T11:48:38Z</time>
      </trkpt>
      <trkpt lat="60.3692" lon="7.51821">
        <ele>1233.03</ele>
        <time>2019-04-02T11:48:39Z</time>
      </trkpt>
      <trkpt lat="60.36914" lon="7.51773">
        <ele>1233.99</ele>
        <time>2019-04-02T11:48:43Z</time>
      </trkpt>
      <trkpt lat="60.36912" lon="7.51759">
        <ele>1233.99</ele>
        <time>2019-04-02T11:48:44Z</time>
      </trkpt>
      <trkpt lat="60.3691" lon="7.5173">
        <ele>1232.07</ele>
        <time>2019-04-02T11:48:46Z</time>
      </trkpt>
      <trkpt lat="60.36906" lon="7.51684">
        <ele>1233.51</ele>
        <time>2019-04-02T11:48:49Z</time>
      </trkpt>
      <trkpt lat="60.36902" lon="7.51653">
        <ele>1234.47</ele>
        <time>2019-04-02T11:48:51Z</time>
      </trkpt>
      <trkpt lat="60.36893" lon="7.51571">
        <ele>1230.62</ele>
        <time>2019-04-02T11:48:56Z</time>
      </trkpt>
      <trkpt lat="60.36889" lon="7.51538">
        <ele>1229.66</ele>
        <time>2019-04-02T11:48:58Z</time>
      </trkpt>
      <trkpt lat="60.36888" lon="7.51523">
        <ele>1233.51</ele>
        <time>2019-04-02T11:48:59Z</time>
      </trkpt>
      <trkpt lat="60.36886" lon="7.51508">
        <ele>1233.51</ele>
        <time>2019-04-02T11:49:00Z</time>
      </trkpt>
      <trkpt lat="60.36881" lon="7.51463">
        <ele>1232.07</ele>
        <time>2019-04-02T11:49:03Z</time>
      </trkpt>
      <trkpt lat="60.36876" lon="7.51399">
        <ele>1232.07</ele>
        <time>2019-04-02T11:49:08Z</time>
      </trkpt>
      <trkpt lat="60.36875" lon="7.51372">
        <ele>1233.51</ele>
        <time>2019-04-02T11:49:10Z</time>
      </trkpt>
      <trkpt lat="60.36873" lon="7.51328">
        <ele>1232.07</ele>
        <time>2019-04-02T11:49:13Z</time>
      </trkpt>
      <trkpt lat="60.3687" lon="7.51278">
        <ele>1233.99</ele>
        <time>2019-04-02T11:49:16Z</time>
      </trkpt>
      <trkpt lat="60.36869" lon="7.51262">
        <ele>1235.43</ele>
        <time>2019-04-02T11:49:17Z</time>
      </trkpt>
      <trkpt lat="60.36866" lon="7.51248">
        <ele>1235.43</ele>
        <time>2019-04-02T11:49:18Z</time>
      </trkpt>
      <trkpt lat="60.36864" lon="7.51235">
        <ele>1233.99</ele>
        <time>2019-04-02T11:49:19Z</time>
      </trkpt>
      <trkpt lat="60.36862" lon="7.51225">
        <ele>1235.43</ele>
        <time>2019-04-02T11:49:20Z</time>
      </trkpt>
      <trkpt lat="60.36861" lon="7.51215">
        <ele>1235.91</ele>
        <time>2019-04-02T11:49:21Z</time>
      </trkpt>
      <trkpt lat="60.3686" lon="7.51205">
        <ele>1237.35</ele>
        <time>2019-04-02T11:49:22Z</time>
      </trkpt>
      <trkpt lat="60.36858" lon="7.51174">
        <ele>1240.24</ele>
        <time>2019-04-02T11:49:25Z</time>
      </trkpt>
      <trkpt lat="60.36857" lon="7.51134">
        <ele>1243.6</ele>
        <time>2019-04-02T11:49:29Z</time>
      </trkpt>
      <trkpt lat="60.36857" lon="7.51115">
        <ele>1245.53</ele>
        <time>2019-04-02T11:49:31Z</time>
      </trkpt>
      <trkpt lat="60.36857" lon="7.51107">
        <ele>1245.53</ele>
        <time>2019-04-02T11:49:32Z</time>
      </trkpt>
      <trkpt lat="60.36859" lon="7.51089">
        <ele>1246.49</ele>
        <time>2019-04-02T11:49:34Z</time>
      </trkpt>
      <trkpt lat="60.3686" lon="7.5108">
        <ele>1247.93</ele>
        <time>2019-04-02T11:49:35Z</time>
      </trkpt>
      <trkpt lat="60.36861" lon="7.51071">
        <ele>1247.93</ele>
        <time>2019-04-02T11:49:36Z</time>
      </trkpt>
      <trkpt lat="60.36861" lon="7.51063">
        <ele>1248.89</ele>
        <time>2019-04-02T11:49:37Z</time>
      </trkpt>
      <trkpt lat="60.36861" lon="7.51053">
        <ele>1250.33</ele>
        <time>2019-04-02T11:49:38Z</time>
      </trkpt>
      <trkpt lat="60.3686" lon="7.51013">
        <ele>1254.18</ele>
        <time>2019-04-02T11:49:42Z</time>
      </trkpt>
      <trkpt lat="60.36853" lon="7.50981">
        <ele>1257.54</ele>
        <time>2019-04-02T11:49:45Z</time>
      </trkpt>
      <trkpt lat="60.36852" lon="7.50969">
        <ele>1257.54</ele>
        <time>2019-04-02T11:49:46Z</time>
      </trkpt>
      <trkpt lat="60.36845" lon="7.50916">
        <ele>1258.02</ele>
        <time>2019-04-02T11:49:51Z</time>
      </trkpt>
      <trkpt lat="60.36848" lon="7.50826">
        <ele>1258.98</ele>
        <time>2019-04-02T11:50:03Z</time>
      </trkpt>
      <trkpt lat="60.3685" lon="7.50773">
        <ele>1256.58</ele>
        <time>2019-04-02T11:50:14Z</time>
      </trkpt>
      <trkpt lat="60.36851" lon="7.50762">
        <ele>1254.66</ele>
        <time>2019-04-02T11:50:15Z</time>
      </trkpt>
      <trkpt lat="60.36852" lon="7.50749">
        <ele>1253.7</ele>
        <time>2019-04-02T11:50:16Z</time>
      </trkpt>
      <trkpt lat="60.36855" lon="7.50736">
        <ele>1252.25</ele>
        <time>2019-04-02T11:50:17Z</time>
      </trkpt>
      <trkpt lat="60.36863" lon="7.50686">
        <ele>1245.04</ele>
        <time>2019-04-02T11:50:20Z</time>
      </trkpt>
      <trkpt lat="60.36864" lon="7.50668">
        <ele>1243.12</ele>
        <time>2019-04-02T11:50:21Z</time>
      </trkpt>
      <trkpt lat="60.36863" lon="7.50628">
        <ele>1239.76</ele>
        <time>2019-04-02T11:50:23Z</time>
      </trkpt>
      <trkpt lat="60.36862" lon="7.50609">
        <ele>1239.76</ele>
        <time>2019-04-02T11:50:24Z</time>
      </trkpt>
      <trkpt lat="60.36861" lon="7.50593">
        <ele>1242.16</ele>
        <time>2019-04-02T11:50:25Z</time>
      </trkpt>
      <trkpt lat="60.36862" lon="7.50578">
        <ele>1243.6</ele>
        <time>2019-04-02T11:50:26Z</time>
      </trkpt>
      <trkpt lat="60.36865" lon="7.50557">
        <ele>1246.97</ele>
        <time>2019-04-02T11:50:32Z</time>
      </trkpt>
      <trkpt lat="60.36867" lon="7.50557">
        <ele>1247.45</ele>
        <time>2019-04-02T11:50:41Z</time>
      </trkpt>
      <trkpt lat="60.36868" lon="7.50557">
        <ele>1247.45</ele>
        <time>2019-04-02T11:50:42Z</time>
      </trkpt>
      <trkpt lat="60.3687" lon="7.50558">
        <ele>1248.41</ele>
        <time>2019-04-02T11:50:53Z</time>
      </trkpt>
      <trkpt lat="60.3687" lon="7.50558">
        <ele>1245.04</ele>
        <time>2019-04-02T11:50:55Z</time>
      </trkpt>
      <trkpt lat="60.3687" lon="7.50558">
        <ele>1248.41</ele>
        <time>2019-04-02T11:50:58Z</time>
      </trkpt>
      <trkpt lat="60.3687" lon="7.50558">
        <ele>1245.04</ele>
        <time>2019-04-02T11:51:06Z</time>
      </trkpt>
      <trkpt lat="60.36871" lon="7.50558">
        <ele>1246.01</ele>
        <time>2019-04-02T11:51:07Z</time>
      </trkpt>
      <trkpt lat="60.36871" lon="7.50555">
        <ele>1246.01</ele>
        <time>2019-04-02T11:51:08Z</time>
      </trkpt>
      <trkpt lat="60.3687" lon="7.50552">
        <ele>1254.66</ele>
        <time>2019-04-02T11:51:09Z</time>
      </trkpt>
      <trkpt lat="60.3687" lon="7.50549">
        <ele>1246.49</ele>
        <time>2019-04-02T11:51:10Z</time>
      </trkpt>
      <trkpt lat="60.36869" lon="7.50545">
        <ele>1244.56</ele>
        <time>2019-04-02T11:51:11Z</time>
      </trkpt>
      <trkpt lat="60.36869" lon="7.50541">
        <ele>1243.12</ele>
        <time>2019-04-02T11:51:12Z</time>
      </trkpt>
      <trkpt lat="60.36868" lon="7.50538">
        <ele>1245.04</ele>
        <time>2019-04-02T11:51:13Z</time>
      </trkpt>
      <trkpt lat="60.36868" lon="7.50534">
        <ele>1241.2</ele>
        <time>2019-04-02T11:51:16Z</time>
      </trkpt>
      <trkpt lat="60.36868" lon="7.50533">
        <ele>1248.89</ele>
        <time>2019-04-02T11:51:17Z</time>
      </trkpt>
      <trkpt lat="60.36868" lon="7.5053">
        <ele>1250.81</ele>
        <time>2019-04-02T11:51:19Z</time>
      </trkpt>
      <trkpt lat="60.36869" lon="7.50533">
        <ele>1246.49</ele>
        <time>2019-04-02T11:51:21Z</time>
      </trkpt>
      <trkpt lat="60.36871" lon="7.50549">
        <ele>1246.01</ele>
        <time>2019-04-02T11:51:29Z</time>
      </trkpt>
      <trkpt lat="60.36871" lon="7.50553">
        <ele>1244.08</ele>
        <time>2019-04-02T11:51:33Z</time>
      </trkpt>
      <trkpt lat="60.36871" lon="7.50555">
        <ele>1248.41</ele>
        <time>2019-04-02T11:51:37Z</time>
      </trkpt>
      <trkpt lat="60.36871" lon="7.50556">
        <ele>1248.41</ele>
        <time>2019-04-02T11:51:38Z</time>
      </trkpt>
      <trkpt lat="60.36871" lon="7.50557">
        <ele>1244.56</ele>
        <time>2019-04-02T11:51:41Z</time>
      </trkpt>
      <trkpt lat="60.36871" lon="7.50558">
        <ele>1241.2</ele>
        <time>2019-04-02T11:51:43Z</time>
      </trkpt>
      <trkpt lat="60.36871" lon="7.50557">
        <ele>1251.29</ele>
        <time>2019-04-02T11:51:44Z</time>
      </trkpt>
      <trkpt lat="60.3687" lon="7.50558">
        <ele>1246.97</ele>
        <time>2019-04-02T11:51:45Z</time>
      </trkpt>
      <trkpt lat="60.3687" lon="7.50557">
        <ele>1247.93</ele>
        <time>2019-04-02T11:52:03Z</time>
      </trkpt>
      <trkpt lat="60.3687" lon="7.50557">
        <ele>1247.93</ele>
        <time>2019-04-02T11:52:32Z</time>
      </trkpt>
      <trkpt lat="60.36874" lon="7.50554">
        <ele>1248.41</ele>
        <time>2019-04-02T11:52:47Z</time>
      </trkpt>
      <trkpt lat="60.36878" lon="7.5055">
        <ele>1248.41</ele>
        <time>2019-04-02T11:52:58Z</time>
      </trkpt>
      <trkpt lat="60.3688" lon="7.50546">
        <ele>1248.41</ele>
        <time>2019-04-02T11:53:02Z</time>
      </trkpt>
      <trkpt lat="60.36884" lon="7.50542">
        <ele>1248.89</ele>
        <time>2019-04-02T11:53:13Z</time>
      </trkpt>
      <trkpt lat="60.36885" lon="7.50541">
        <ele>1247.93</ele>
        <time>2019-04-02T11:53:16Z</time>
      </trkpt>
      <trkpt lat="60.36886" lon="7.50541">
        <ele>1246.97</ele>
        <time>2019-04-02T11:53:30Z</time>
      </trkpt>
      <trkpt lat="60.36885" lon="7.50539">
        <ele>1250.33</ele>
        <time>2019-04-02T11:53:45Z</time>
      </trkpt>
      <trkpt lat="60.36885" lon="7.50539">
        <ele>1247.45</ele>
        <time>2019-04-02T11:53:46Z</time>
      </trkpt>
      <trkpt lat="60.36885" lon="7.5054">
        <ele>1245.04</ele>
        <time>2019-04-02T11:54:05Z</time>
      </trkpt>
      <trkpt lat="60.36885" lon="7.50541">
        <ele>1244.56</ele>
        <time>2019-04-02T11:54:19Z</time>
      </trkpt>
      <trkpt lat="60.36885" lon="7.50542">
        <ele>1246.01</ele>
        <time>2019-04-02T11:54:29Z</time>
      </trkpt>
      <trkpt lat="60.36885" lon="7.50542">
        <ele>1244.56</ele>
        <time>2019-04-02T11:54:34Z</time>
      </trkpt>
      <trkpt lat="60.36885" lon="7.50542">
        <ele>1245.53</ele>
        <time>2019-04-02T11:54:37Z</time>
      </trkpt>
      <trkpt lat="60.36885" lon="7.50542">
        <ele>1246.97</ele>
        <time>2019-04-02T11:54:56Z</time>
      </trkpt>
      <trkpt lat="60.36885" lon="7.50543">
        <ele>1245.04</ele>
        <time>2019-04-02T11:54:59Z</time>
      </trkpt>
      <trkpt lat="60.36885" lon="7.50543">
        <ele>1246.49</ele>
        <time>2019-04-02T11:55:07Z</time>
      </trkpt>
      <trkpt lat="60.36885" lon="7.50543">
        <ele>1245.04</ele>
        <time>2019-04-02T11:55:13Z</time>
      </trkpt>
      <trkpt lat="60.36885" lon="7.50543">
        <ele>1246.01</ele>
        <time>2019-04-02T11:55:20Z</time>
      </trkpt>
      <trkpt lat="60.36885" lon="7.50543">
        <ele>1245.04</ele>
        <time>2019-04-02T11:55:52Z</time>
      </trkpt>
      <trkpt lat="60.36885" lon="7.50543">
        <ele>1246.01</ele>
        <time>2019-04-02T11:55:59Z</time>
      </trkpt>
      <trkpt lat="60.36884" lon="7.50543">
        <ele>1244.56</ele>
        <time>2019-04-02T11:56:01Z</time>
      </trkpt>
      <trkpt lat="60.36885" lon="7.50543">
        <ele>1246.01</ele>
        <time>2019-04-02T11:56:26Z</time>
      </trkpt>
      <trkpt lat="60.36885" lon="7.50543">
        <ele>1246.01</ele>
        <time>2019-04-02T11:56:56Z</time>
      </trkpt>
      <trkpt lat="60.36886" lon="7.50543">
        <ele>1246.01</ele>
        <time>2019-04-02T11:57:27Z</time>
      </trkpt>
      <trkpt lat="60.36886" lon="7.50542">
        <ele>1246.01</ele>
        <time>2019-04-02T11:57:59Z</time>
      </trkpt>
      <trkpt lat="60.36886" lon="7.50542">
        <ele>1246.01</ele>
        <time>2019-04-02T11:58:15Z</time>
      </trkpt>
      <trkpt lat="60.36886" lon="7.50542">
        <ele>1246.49</ele>
        <time>2019-04-02T11:58:42Z</time>
      </trkpt>
      <trkpt lat="60.36886" lon="7.50542">
        <ele>1245.04</ele>
        <time>2019-04-02T11:59:00Z</time>
      </trkpt>
      <trkpt lat="60.36886" lon="7.50542">
        <ele>1246.49</ele>
        <time>2019-04-02T11:59:39Z</time>
      </trkpt>
      <trkpt lat="60.36886" lon="7.50542">
        <ele>1245.04</ele>
        <time>2019-04-02T11:59:43Z</time>
      </trkpt>
      <trkpt lat="60.36886" lon="7.50542">
        <ele>1246.49</ele>
        <time>2019-04-02T11:59:50Z</time>
      </trkpt>
      <trkpt lat="60.36886" lon="7.50541">
        <ele>1246.97</ele>
        <time>2019-04-02T12:00:28Z</time>
      </trkpt>
      <trkpt lat="60.36886" lon="7.50542">
        <ele>1247.45</ele>
        <time>2019-04-02T12:01:02Z</time>
      </trkpt>
      <trkpt lat="60.36887" lon="7.50541">
        <ele>1246.97</ele>
        <time>2019-04-02T12:01:40Z</time>
      </trkpt>
      <trkpt lat="60.36886" lon="7.50542">
        <ele>1246.49</ele>
        <time>2019-04-02T12:02:18Z</time>
      </trkpt>
      <trkpt lat="60.36887" lon="7.50542">
        <ele>1247.45</ele>
        <time>2019-04-02T12:02:21Z</time>
      </trkpt>
      <trkpt lat="60.36886" lon="7.50542">
        <ele>1247.45</ele>
        <time>2019-04-02T12:02:29Z</time>
      </trkpt>
      <trkpt lat="60.36886" lon="7.50542">
        <ele>1246.01</ele>
        <time>2019-04-02T12:02:50Z</time>
      </trkpt>
      <trkpt lat="60.36886" lon="7.50542">
        <ele>1247.45</ele>
        <time>2019-04-02T12:02:54Z</time>
      </trkpt>
      <trkpt lat="60.36886" lon="7.50542">
        <ele>1246.49</ele>
        <time>2019-04-02T12:03:10Z</time>
      </trkpt>
      <trkpt lat="60.36886" lon="7.50541">
        <ele>1247.93</ele>
        <time>2019-04-02T12:03:22Z</time>
      </trkpt>
      <trkpt lat="60.36886" lon="7.50541">
        <ele>1246.49</ele>
        <time>2019-04-02T12:03:57Z</time>
      </trkpt>
      <trkpt lat="60.36886" lon="7.50541">
        <ele>1248.41</ele>
        <time>2019-04-02T12:04:15Z</time>
      </trkpt>
      <trkpt lat="60.36886" lon="7.50541">
        <ele>1247.45</ele>
        <time>2019-04-02T12:04:25Z</time>
      </trkpt>
      <trkpt lat="60.36886" lon="7.50541">
        <ele>1247.93</ele>
        <time>2019-04-02T12:04:41Z</time>
      </trkpt>
      <trkpt lat="60.36886" lon="7.50541">
        <ele>1246.49</ele>
        <time>2019-04-02T12:04:50Z</time>
      </trkpt>
      <trkpt lat="60.36886" lon="7.50541">
        <ele>1247.93</ele>
        <time>2019-04-02T12:04:53Z</time>
      </trkpt>
      <trkpt lat="60.36887" lon="7.5054">
        <ele>1246.49</ele>
        <time>2019-04-02T12:05:23Z</time>
      </trkpt>
      <trkpt lat="60.36887" lon="7.5054">
        <ele>1246.49</ele>
        <time>2019-04-02T12:05:24Z</time>
      </trkpt>
      <trkpt lat="60.36887" lon="7.5054">
        <ele>1247.93</ele>
        <time>2019-04-02T12:05:27Z</time>
      </trkpt>
      <trkpt lat="60.36887" lon="7.5054">
        <ele>1247.45</ele>
        <time>2019-04-02T12:05:48Z</time>
      </trkpt>
      <trkpt lat="60.36887" lon="7.50541">
        <ele>1247.45</ele>
        <time>2019-04-02T12:06:09Z</time>
      </trkpt>
      <trkpt lat="60.36886" lon="7.50541">
        <ele>1247.93</ele>
        <time>2019-04-02T12:06:43Z</time>
      </trkpt>
      <trkpt lat="60.36886" lon="7.50541">
        <ele>1247.45</ele>
        <time>2019-04-02T12:07:01Z</time>
      </trkpt>
      <trkpt lat="60.36886" lon="7.50541">
        <ele>1248.89</ele>
        <time>2019-04-02T12:07:03Z</time>
      </trkpt>
      <trkpt lat="60.36886" lon="7.50541">
        <ele>1247.93</ele>
        <time>2019-04-02T12:07:28Z</time>
      </trkpt>
      <trkpt lat="60.36886" lon="7.5054">
        <ele>1248.89</ele>
        <time>2019-04-02T12:07:37Z</time>
      </trkpt>
      <trkpt lat="60.36886" lon="7.5054">
        <ele>1247.45</ele>
        <time>2019-04-02T12:08:01Z</time>
      </trkpt>
      <trkpt lat="60.36886" lon="7.5054">
        <ele>1247.93</ele>
        <time>2019-04-02T12:08:16Z</time>
      </trkpt>
      <trkpt lat="60.36886" lon="7.5054">
        <ele>1247.45</ele>
        <time>2019-04-02T12:08:52Z</time>
      </trkpt>
      <trkpt lat="60.36886" lon="7.5054">
        <ele>1248.41</ele>
        <time>2019-04-02T12:09:17Z</time>
      </trkpt>
      <trkpt lat="60.36886" lon="7.5054">
        <ele>1247.93</ele>
        <time>2019-04-02T12:09:47Z</time>
      </trkpt>
      <trkpt lat="60.36886" lon="7.5054">
        <ele>1246.97</ele>
        <time>2019-04-02T12:09:52Z</time>
      </trkpt>
      <trkpt lat="60.36886" lon="7.5054">
        <ele>1248.41</ele>
        <time>2019-04-02T12:10:03Z</time>
      </trkpt>
      <trkpt lat="60.36886" lon="7.50539">
        <ele>1248.41</ele>
        <time>2019-04-02T12:10:30Z</time>
      </trkpt>
      <trkpt lat="60.36886" lon="7.5054">
        <ele>1247.45</ele>
        <time>2019-04-02T12:10:51Z</time>
      </trkpt>
      <trkpt lat="60.36886" lon="7.5054">
        <ele>1249.37</ele>
        <time>2019-04-02T12:11:23Z</time>
      </trkpt>
      <trkpt lat="60.36886" lon="7.50539">
        <ele>1247.93</ele>
        <time>2019-04-02T12:12:00Z</time>
      </trkpt>
      <trkpt lat="60.36886" lon="7.50539">
        <ele>1247.93</ele>
        <time>2019-04-02T12:12:36Z</time>
      </trkpt>
      <trkpt lat="60.36886" lon="7.50539">
        <ele>1249.37</ele>
        <time>2019-04-02T12:12:38Z</time>
      </trkpt>
      <trkpt lat="60.36886" lon="7.5054">
        <ele>1249.37</ele>
        <time>2019-04-02T12:13:12Z</time>
      </trkpt>
      <trkpt lat="60.36886" lon="7.5054">
        <ele>1247.93</ele>
        <time>2019-04-02T12:13:16Z</time>
      </trkpt>
      <trkpt lat="60.36886" lon="7.50539">
        <ele>1248.89</ele>
        <time>2019-04-02T12:13:58Z</time>
      </trkpt>
      <trkpt lat="60.36886" lon="7.50539">
        <ele>1247.93</ele>
        <time>2019-04-02T12:14:40Z</time>
      </trkpt>
      <trkpt lat="60.36886" lon="7.50539">
        <ele>1249.37</ele>
        <time>2019-04-02T12:14:42Z</time>
      </trkpt>
      <trkpt lat="60.36887" lon="7.5054">
        <ele>1247.93</ele>
        <time>2019-04-02T12:15:05Z</time>
      </trkpt>
      <trkpt lat="60.36887" lon="7.5054">
        <ele>1249.37</ele>
        <time>2019-04-02T12:15:11Z</time>
      </trkpt>
      <trkpt lat="60.36887" lon="7.5054">
        <ele>1247.93</ele>
        <time>2019-04-02T12:15:18Z</time>
      </trkpt>
      <trkpt lat="60.36886" lon="7.5054">
        <ele>1249.85</ele>
        <time>2019-04-02T12:15:57Z</time>
      </trkpt>
      <trkpt lat="60.36886" lon="7.5054">
        <ele>1248.41</ele>
        <time>2019-04-02T12:16:00Z</time>
      </trkpt>
      <trkpt lat="60.36886" lon="7.5054">
        <ele>1249.85</ele>
        <time>2019-04-02T12:16:03Z</time>
      </trkpt>
      <trkpt lat="60.36886" lon="7.5054">
        <ele>1248.41</ele>
        <time>2019-04-02T12:16:23Z</time>
      </trkpt>
      <trkpt lat="60.36886" lon="7.50539">
        <ele>1249.85</ele>
        <time>2019-04-02T12:17:11Z</time>
      </trkpt>
      <trkpt lat="60.36886" lon="7.50539">
        <ele>1249.85</ele>
        <time>2019-04-02T12:17:39Z</time>
      </trkpt>
      <trkpt lat="60.36886" lon="7.50539">
        <ele>1248.89</ele>
        <time>2019-04-02T12:18:05Z</time>
      </trkpt>
      <trkpt lat="60.36886" lon="7.5054">
        <ele>1250.33</ele>
        <time>2019-04-02T12:18:45Z</time>
      </trkpt>
      <trkpt lat="60.36887" lon="7.50539">
        <ele>1250.81</ele>
        <time>2019-04-02T12:19:23Z</time>
      </trkpt>
      <trkpt lat="60.36887" lon="7.50539">
        <ele>1249.37</ele>
        <time>2019-04-02T12:19:30Z</time>
      </trkpt>
      <trkpt lat="60.36887" lon="7.50538">
        <ele>1249.85</ele>
        <time>2019-04-02T12:20:11Z</time>
      </trkpt>
      <trkpt lat="60.36887" lon="7.50537">
        <ele>1250.33</ele>
        <time>2019-04-02T12:20:42Z</time>
      </trkpt>
      <trkpt lat="60.36887" lon="7.50537">
        <ele>1248.89</ele>
        <time>2019-04-02T12:21:09Z</time>
      </trkpt>
      <trkpt lat="60.36887" lon="7.50537">
        <ele>1248.89</ele>
        <time>2019-04-02T12:21:44Z</time>
      </trkpt>
      <trkpt lat="60.36887" lon="7.50538">
        <ele>1250.33</ele>
        <time>2019-04-02T12:22:18Z</time>
      </trkpt>
      <trkpt lat="60.36887" lon="7.50538">
        <ele>1249.37</ele>
        <time>2019-04-02T12:22:43Z</time>
      </trkpt>
      <trkpt lat="60.36886" lon="7.50537">
        <ele>1249.37</ele>
        <time>2019-04-02T12:23:22Z</time>
      </trkpt>
      <trkpt lat="60.36886" lon="7.50537">
        <ele>1249.37</ele>
        <time>2019-04-02T12:23:37Z</time>
      </trkpt>
      <trkpt lat="60.36887" lon="7.50538">
        <ele>1250.33</ele>
        <time>2019-04-02T12:24:17Z</time>
      </trkpt>
      <trkpt lat="60.36887" lon="7.50538">
        <ele>1250.33</ele>
        <time>2019-04-02T12:24:50Z</time>
      </trkpt>
      <trkpt lat="60.36887" lon="7.50539">
        <ele>1249.37</ele>
        <time>2019-04-02T12:25:02Z</time>
      </trkpt>
      <trkpt lat="60.36887" lon="7.5054">
        <ele>1249.37</ele>
        <time>2019-04-02T12:25:49Z</time>
      </trkpt>
      <trkpt lat="60.36887" lon="7.5054">
        <ele>1250.81</ele>
        <time>2019-04-02T12:26:10Z</time>
      </trkpt>
      <trkpt lat="60.36887" lon="7.5054">
        <ele>1249.37</ele>
        <time>2019-04-02T12:26:15Z</time>
      </trkpt>
      <trkpt lat="60.36887" lon="7.5054">
        <ele>1249.37</ele>
        <time>2019-04-02T12:26:24Z</time>
      </trkpt>
      <trkpt lat="60.36887" lon="7.5054">
        <ele>1250.81</ele>
        <time>2019-04-02T12:27:01Z</time>
      </trkpt>
      <trkpt lat="60.36887" lon="7.5054">
        <ele>1250.81</ele>
        <time>2019-04-02T12:27:37Z</time>
      </trkpt>
      <trkpt lat="60.36887" lon="7.50541">
        <ele>1249.37</ele>
        <time>2019-04-02T12:28:07Z</time>
      </trkpt>
      <trkpt lat="60.36886" lon="7.5054">
        <ele>1250.81</ele>
        <time>2019-04-02T12:28:15Z</time>
      </trkpt>
      <trkpt lat="60.36887" lon="7.50539">
        <ele>1249.37</ele>
        <time>2019-04-02T12:28:57Z</time>
      </trkpt>
      <trkpt lat="60.36887" lon="7.50539">
        <ele>1250.81</ele>
        <time>2019-04-02T12:29:03Z</time>
      </trkpt>
      <trkpt lat="60.36887" lon="7.50539">
        <ele>1249.85</ele>
        <time>2019-04-02T12:29:38Z</time>
      </trkpt>
      <trkpt lat="60.36887" lon="7.50539">
        <ele>1251.29</ele>
        <time>2019-04-02T12:29:43Z</time>
      </trkpt>
      <trkpt lat="60.36887" lon="7.50538">
        <ele>1249.85</ele>
        <time>2019-04-02T12:30:03Z</time>
      </trkpt>
      <trkpt lat="60.36886" lon="7.50538">
        <ele>1249.37</ele>
        <time>2019-04-02T12:30:10Z</time>
      </trkpt>
      <trkpt lat="60.36886" lon="7.50538">
        <ele>1250.81</ele>
        <time>2019-04-02T12:30:17Z</time>
      </trkpt>
      <trkpt lat="60.36886" lon="7.50538">
        <ele>1249.85</ele>
        <time>2019-04-02T12:30:23Z</time>
      </trkpt>
      <trkpt lat="60.36886" lon="7.50539">
        <ele>1249.37</ele>
        <time>2019-04-02T12:31:05Z</time>
      </trkpt>
      <trkpt lat="60.36886" lon="7.50539">
        <ele>1250.33</ele>
        <time>2019-04-02T12:31:48Z</time>
      </trkpt>
      <trkpt lat="60.36886" lon="7.50538">
        <ele>1248.89</ele>
        <time>2019-04-02T12:32:01Z</time>
      </trkpt>
      <trkpt lat="60.36887" lon="7.50538">
        <ele>1248.89</ele>
        <time>2019-04-02T12:32:44Z</time>
      </trkpt>
      <trkpt lat="60.36886" lon="7.50538">
        <ele>1248.89</ele>
        <time>2019-04-02T12:33:19Z</time>
      </trkpt>
      <trkpt lat="60.36886" lon="7.50539">
        <ele>1247.93</ele>
        <time>2019-04-02T12:33:48Z</time>
      </trkpt>
      <trkpt lat="60.36886" lon="7.50539">
        <ele>1249.37</ele>
        <time>2019-04-02T12:34:28Z</time>
      </trkpt>
      <trkpt lat="60.36885" lon="7.50539">
        <ele>1248.89</ele>
        <time>2019-04-02T12:34:56Z</time>
      </trkpt>
      <trkpt lat="60.36885" lon="7.50538">
        <ele>1247.93</ele>
        <time>2019-04-02T12:35:19Z</time>
      </trkpt>
      <trkpt lat="60.36885" lon="7.50539">
        <ele>1247.93</ele>
        <time>2019-04-02T12:35:55Z</time>
      </trkpt>
      <trkpt lat="60.36886" lon="7.50539">
        <ele>1248.89</ele>
        <time>2019-04-02T12:36:35Z</time>
      </trkpt>
      <trkpt lat="60.36886" lon="7.50539">
        <ele>1248.89</ele>
        <time>2019-04-02T12:37:15Z</time>
      </trkpt>
      <trkpt lat="60.36886" lon="7.50538">
        <ele>1248.89</ele>
        <time>2019-04-02T12:37:46Z</time>
      </trkpt>
      <trkpt lat="60.36887" lon="7.50538">
        <ele>1247.45</ele>
        <time>2019-04-02T12:38:21Z</time>
      </trkpt>
      <trkpt lat="60.36887" lon="7.50538">
        <ele>1248.41</ele>
        <time>2019-04-02T12:39:02Z</time>
      </trkpt>
      <trkpt lat="60.36887" lon="7.50538">
        <ele>1248.41</ele>
        <time>2019-04-02T12:39:43Z</time>
      </trkpt>
      <trkpt lat="60.36887" lon="7.50539">
        <ele>1247.45</ele>
        <time>2019-04-02T12:40:07Z</time>
      </trkpt>
      <trkpt lat="60.36887" lon="7.50539">
        <ele>1248.41</ele>
        <time>2019-04-02T12:40:09Z</time>
      </trkpt>
      <trkpt lat="60.36887" lon="7.50539">
        <ele>1248.41</ele>
        <time>2019-04-02T12:40:43Z</time>
      </trkpt>
      <trkpt lat="60.36886" lon="7.5054">
        <ele>1248.41</ele>
        <time>2019-04-02T12:41:19Z</time>
      </trkpt>
      <trkpt lat="60.36887" lon="7.5054">
        <ele>1248.41</ele>
        <time>2019-04-02T12:42:00Z</time>
      </trkpt>
      <trkpt lat="60.36886" lon="7.50539">
        <ele>1248.41</ele>
        <time>2019-04-02T12:42:38Z</time>
      </trkpt>
      <trkpt lat="60.36886" lon="7.50539">
        <ele>1248.41</ele>
        <time>2019-04-02T12:43:13Z</time>
      </trkpt>
      <trkpt lat="60.36886" lon="7.50538">
        <ele>1248.41</ele>
        <time>2019-04-02T12:43:48Z</time>
      </trkpt>
      <trkpt lat="60.36886" lon="7.50538">
        <ele>1248.41</ele>
        <time>2019-04-02T12:44:22Z</time>
      </trkpt>
      <trkpt lat="60.36886" lon="7.50538">
        <ele>1248.41</ele>
        <time>2019-04-02T12:44:54Z</time>
      </trkpt>
      <trkpt lat="60.36886" lon="7.50538">
        <ele>1248.41</ele>
        <time>2019-04-02T12:45:28Z</time>
      </trkpt>
      <trkpt lat="60.36886" lon="7.50538">
        <ele>1248.41</ele>
        <time>2019-04-02T12:46:02Z</time>
      </trkpt>
      <trkpt lat="60.36886" lon="7.50539">
        <ele>1248.41</ele>
        <time>2019-04-02T12:46:31Z</time>
      </trkpt>
      <trkpt lat="60.36886" lon="7.50539">
        <ele>1248.41</ele>
        <time>2019-04-02T12:46:55Z</time>
      </trkpt>
      <trkpt lat="60.36887" lon="7.50539">
        <ele>1248.41</ele>
        <time>2019-04-02T12:47:39Z</time>
      </trkpt>
      <trkpt lat="60.36887" lon="7.50538">
        <ele>1248.41</ele>
        <time>2019-04-02T12:48:17Z</time>
      </trkpt>
      <trkpt lat="60.36886" lon="7.50537">
        <ele>1248.41</ele>
        <time>2019-04-02T12:48:57Z</time>
      </trkpt>
      <trkpt lat="60.36886" lon="7.50537">
        <ele>1248.41</ele>
        <time>2019-04-02T12:49:34Z</time>
      </trkpt>
      <trkpt lat="60.36886" lon="7.50537">
        <ele>1248.41</ele>
        <time>2019-04-02T12:50:11Z</time>
      </trkpt>
      <trkpt lat="60.36887" lon="7.50537">
        <ele>1248.41</ele>
        <time>2019-04-02T12:50:50Z</time>
      </trkpt>
      <trkpt lat="60.36887" lon="7.50538">
        <ele>1248.41</ele>
        <time>2019-04-02T12:51:30Z</time>
      </trkpt>
      <trkpt lat="60.36887" lon="7.50537">
        <ele>1248.89</ele>
        <time>2019-04-02T12:52:20Z</time>
      </trkpt>
      <trkpt lat="60.36887" lon="7.50537">
        <ele>1248.89</ele>
        <time>2019-04-02T12:53:07Z</time>
      </trkpt>
      <trkpt lat="60.36887" lon="7.50537">
        <ele>1248.89</ele>
        <time>2019-04-02T12:53:58Z</time>
      </trkpt>
      <trkpt lat="60.36887" lon="7.50537">
        <ele>1247.93</ele>
        <time>2019-04-02T12:54:34Z</time>
      </trkpt>
      <trkpt lat="60.36886" lon="7.50537">
        <ele>1247.93</ele>
        <time>2019-04-02T12:55:19Z</time>
      </trkpt>
      <trkpt lat="60.36886" lon="7.50537">
        <ele>1247.45</ele>
        <time>2019-04-02T12:55:58Z</time>
      </trkpt>
      <trkpt lat="60.36886" lon="7.50538">
        <ele>1247.45</ele>
        <time>2019-04-02T12:56:38Z</time>
      </trkpt>
      <trkpt lat="60.36886" lon="7.50537">
        <ele>1248.89</ele>
        <time>2019-04-02T12:57:26Z</time>
      </trkpt>
      <trkpt lat="60.36887" lon="7.50537">
        <ele>1249.37</ele>
        <time>2019-04-02T12:58:15Z</time>
      </trkpt>
      <trkpt lat="60.36887" lon="7.50536">
        <ele>1249.37</ele>
        <time>2019-04-02T12:58:40Z</time>
      </trkpt>
      <trkpt lat="60.36887" lon="7.50536">
        <ele>1248.41</ele>
        <time>2019-04-02T12:59:14Z</time>
      </trkpt>
      <trkpt lat="60.36887" lon="7.50536">
        <ele>1249.85</ele>
        <time>2019-04-02T12:59:16Z</time>
      </trkpt>
      <trkpt lat="60.36887" lon="7.50536">
        <ele>1249.85</ele>
        <time>2019-04-02T12:59:46Z</time>
      </trkpt>
      <trkpt lat="60.36887" lon="7.50537">
        <ele>1249.85</ele>
        <time>2019-04-02T13:00:24Z</time>
      </trkpt>
      <trkpt lat="60.36887" lon="7.50538">
        <ele>1249.85</ele>
        <time>2019-04-02T13:01:00Z</time>
      </trkpt>
      <trkpt lat="60.36887" lon="7.50538">
        <ele>1249.85</ele>
        <time>2019-04-02T13:01:35Z</time>
      </trkpt>
      <trkpt lat="60.36887" lon="7.50538">
        <ele>1250.33</ele>
        <time>2019-04-02T13:02:19Z</time>
      </trkpt>
      <trkpt lat="60.36887" lon="7.50537">
        <ele>1250.33</ele>
        <time>2019-04-02T13:02:51Z</time>
      </trkpt>
      <trkpt lat="60.36887" lon="7.50537">
        <ele>1249.37</ele>
        <time>2019-04-02T13:03:28Z</time>
      </trkpt>
      <trkpt lat="60.36887" lon="7.50537">
        <ele>1249.37</ele>
        <time>2019-04-02T13:04:03Z</time>
      </trkpt>
      <trkpt lat="60.36886" lon="7.50537">
        <ele>1250.33</ele>
        <time>2019-04-02T13:04:48Z</time>
      </trkpt>
      <trkpt lat="60.36886" lon="7.50537">
        <ele>1249.37</ele>
        <time>2019-04-02T13:05:31Z</time>
      </trkpt>
      <trkpt lat="60.36886" lon="7.50538">
        <ele>1249.37</ele>
        <time>2019-04-02T13:06:15Z</time>
      </trkpt>
      <trkpt lat="60.36886" lon="7.50538">
        <ele>1250.33</ele>
        <time>2019-04-02T13:06:55Z</time>
      </trkpt>
      <trkpt lat="60.36886" lon="7.50538">
        <ele>1250.33</ele>
        <time>2019-04-02T13:07:33Z</time>
      </trkpt>
      <trkpt lat="60.36887" lon="7.50538">
        <ele>1250.33</ele>
        <time>2019-04-02T13:08:20Z</time>
      </trkpt>
      <trkpt lat="60.36887" lon="7.50539">
        <ele>1250.33</ele>
        <time>2019-04-02T13:08:48Z</time>
      </trkpt>
      <trkpt lat="60.36886" lon="7.50536">
        <ele>1250.33</ele>
        <time>2019-04-02T13:09:33Z</time>
      </trkpt>
      <trkpt lat="60.36886" lon="7.50535">
        <ele>1250.33</ele>
        <time>2019-04-02T13:10:22Z</time>
      </trkpt>
      <trkpt lat="60.36889" lon="7.50532">
        <ele>1251.29</ele>
        <time>2019-04-02T13:10:52Z</time>
      </trkpt>
      <trkpt lat="60.36891" lon="7.50535">
        <ele>1253.22</ele>
        <time>2019-04-02T13:11:03Z</time>
      </trkpt>
      <trkpt lat="60.36893" lon="7.50537">
        <ele>1253.7</ele>
        <time>2019-04-02T13:11:07Z</time>
      </trkpt>
      <trkpt lat="60.36894" lon="7.50538">
        <ele>1254.18</ele>
        <time>2019-04-02T13:11:12Z</time>
      </trkpt>
      <trkpt lat="60.36895" lon="7.5054">
        <ele>1254.18</ele>
        <time>2019-04-02T13:11:13Z</time>
      </trkpt>
      <trkpt lat="60.36898" lon="7.50544">
        <ele>1253.7</ele>
        <time>2019-04-02T13:11:26Z</time>
      </trkpt>
      <trkpt lat="60.369" lon="7.50545">
        <ele>1253.7</ele>
        <time>2019-04-02T13:11:31Z</time>
      </trkpt>
      <trkpt lat="60.36907" lon="7.50552">
        <ele>1252.25</ele>
        <time>2019-04-02T13:11:33Z</time>
      </trkpt>
      <trkpt lat="60.36909" lon="7.50561">
        <ele>1254.18</ele>
        <time>2019-04-02T13:11:34Z</time>
      </trkpt>
      <trkpt lat="60.36912" lon="7.50584">
        <ele>1255.14</ele>
        <time>2019-04-02T13:11:36Z</time>
      </trkpt>
      <trkpt lat="60.36914" lon="7.50606">
        <ele>1255.14</ele>
        <time>2019-04-02T13:11:38Z</time>
      </trkpt>
      <trkpt lat="60.36919" lon="7.50644">
        <ele>1255.62</ele>
        <time>2019-04-02T13:11:41Z</time>
      </trkpt>
      <trkpt lat="60.36921" lon="7.50679">
        <ele>1258.5</ele>
        <time>2019-04-02T13:11:44Z</time>
      </trkpt>
      <trkpt lat="60.36922" lon="7.50694">
        <ele>1257.06</ele>
        <time>2019-04-02T13:11:45Z</time>
      </trkpt>
      <trkpt lat="60.36924" lon="7.50731">
        <ele>1257.06</ele>
        <time>2019-04-02T13:11:48Z</time>
      </trkpt>
      <trkpt lat="60.36923" lon="7.50768">
        <ele>1257.06</ele>
        <time>2019-04-02T13:11:52Z</time>
      </trkpt>
      <trkpt lat="60.36914" lon="7.50746">
        <ele>1255.62</ele>
        <time>2019-04-02T13:11:57Z</time>
      </trkpt>
      <trkpt lat="60.36909" lon="7.50742">
        <ele>1256.1</ele>
        <time>2019-04-02T13:11:58Z</time>
      </trkpt>
      <trkpt lat="60.36894" lon="7.50732">
        <ele>1256.58</ele>
        <time>2019-04-02T13:12:01Z</time>
      </trkpt>
      <trkpt lat="60.36867" lon="7.50718">
        <ele>1255.14</ele>
        <time>2019-04-02T13:12:07Z</time>
      </trkpt>
      <trkpt lat="60.36852" lon="7.50712">
        <ele>1255.14</ele>
        <time>2019-04-02T13:12:11Z</time>
      </trkpt>
      <trkpt lat="60.36858" lon="7.50707">
        <ele>1253.22</ele>
        <time>2019-04-02T13:12:14Z</time>
      </trkpt>
      <trkpt lat="60.36861" lon="7.50714">
        <ele>1255.14</ele>
        <time>2019-04-02T13:12:16Z</time>
      </trkpt>
      <trkpt lat="60.36863" lon="7.50718">
        <ele>1255.62</ele>
        <time>2019-04-02T13:12:17Z</time>
      </trkpt>
      <trkpt lat="60.36871" lon="7.50737">
        <ele>1257.06</ele>
        <time>2019-04-02T13:12:27Z</time>
      </trkpt>
      <trkpt lat="60.36878" lon="7.50778">
        <ele>1259.94</ele>
        <time>2019-04-02T13:12:36Z</time>
      </trkpt>
      <trkpt lat="60.36878" lon="7.50808">
        <ele>1260.91</ele>
        <time>2019-04-02T13:12:43Z</time>
      </trkpt>
      <trkpt lat="60.36882" lon="7.50837">
        <ele>1262.83</ele>
        <time>2019-04-02T13:12:49Z</time>
      </trkpt>
      <trkpt lat="60.36883" lon="7.50851">
        <ele>1264.27</ele>
        <time>2019-04-02T13:12:51Z</time>
      </trkpt>
      <trkpt lat="60.36886" lon="7.5095">
        <ele>1266.67</ele>
        <time>2019-04-02T13:13:02Z</time>
      </trkpt>
      <trkpt lat="60.36886" lon="7.5096">
        <ele>1266.67</ele>
        <time>2019-04-02T13:13:03Z</time>
      </trkpt>
      <trkpt lat="60.36887" lon="7.51018">
        <ele>1263.79</ele>
        <time>2019-04-02T13:13:08Z</time>
      </trkpt>
      <trkpt lat="60.36889" lon="7.51043">
        <ele>1262.83</ele>
        <time>2019-04-02T13:13:10Z</time>
      </trkpt>
      <trkpt lat="60.36889" lon="7.51068">
        <ele>1260.91</ele>
        <time>2019-04-02T13:13:12Z</time>
      </trkpt>
      <trkpt lat="60.36892" lon="7.51127">
        <ele>1258.5</ele>
        <time>2019-04-02T13:13:16Z</time>
      </trkpt>
      <trkpt lat="60.36894" lon="7.5116">
        <ele>1256.1</ele>
        <time>2019-04-02T13:13:18Z</time>
      </trkpt>
      <trkpt lat="60.36896" lon="7.51196">
        <ele>1252.25</ele>
        <time>2019-04-02T13:13:20Z</time>
      </trkpt>
      <trkpt lat="60.369" lon="7.51248">
        <ele>1247.45</ele>
        <time>2019-04-02T13:13:23Z</time>
      </trkpt>
      <trkpt lat="60.36901" lon="7.51264">
        <ele>1247.45</ele>
        <time>2019-04-02T13:13:24Z</time>
      </trkpt>
      <trkpt lat="60.36904" lon="7.51309">
        <ele>1244.08</ele>
        <time>2019-04-02T13:13:27Z</time>
      </trkpt>
      <trkpt lat="60.36913" lon="7.51404">
        <ele>1241.2</ele>
        <time>2019-04-02T13:13:33Z</time>
      </trkpt>
      <trkpt lat="60.36914" lon="7.51419">
        <ele>1242.64</ele>
        <time>2019-04-02T13:13:34Z</time>
      </trkpt>
      <trkpt lat="60.36914" lon="7.51456">
        <ele>1239.28</ele>
        <time>2019-04-02T13:13:38Z</time>
      </trkpt>
      <trkpt lat="60.36913" lon="7.51461">
        <ele>1238.8</ele>
        <time>2019-04-02T13:13:39Z</time>
      </trkpt>
      <trkpt lat="60.36915" lon="7.51476">
        <ele>1236.87</ele>
        <time>2019-04-02T13:13:43Z</time>
      </trkpt>
      <trkpt lat="60.36939" lon="7.51501">
        <ele>1236.39</ele>
        <time>2019-04-02T13:13:49Z</time>
      </trkpt>
      <trkpt lat="60.36949" lon="7.51545">
        <ele>1238.32</ele>
        <time>2019-04-02T13:13:53Z</time>
      </trkpt>
      <trkpt lat="60.36949" lon="7.5157">
        <ele>1234.95</ele>
        <time>2019-04-02T13:13:56Z</time>
      </trkpt>
      <trkpt lat="60.36952" lon="7.51589">
        <ele>1234.95</ele>
        <time>2019-04-02T13:14:01Z</time>
      </trkpt>
      <trkpt lat="60.36952" lon="7.5162">
        <ele>1234.95</ele>
        <time>2019-04-02T13:14:07Z</time>
      </trkpt>
      <trkpt lat="60.36951" lon="7.51636">
        <ele>1236.87</ele>
        <time>2019-04-02T13:14:09Z</time>
      </trkpt>
      <trkpt lat="60.3695" lon="7.51665">
        <ele>1235.91</ele>
        <time>2019-04-02T13:14:12Z</time>
      </trkpt>
      <trkpt lat="60.36949" lon="7.51691">
        <ele>1236.87</ele>
        <time>2019-04-02T13:14:15Z</time>
      </trkpt>
      <trkpt lat="60.36949" lon="7.517">
        <ele>1235.43</ele>
        <time>2019-04-02T13:14:16Z</time>
      </trkpt>
      <trkpt lat="60.36949" lon="7.51717">
        <ele>1235.43</ele>
        <time>2019-04-02T13:14:18Z</time>
      </trkpt>
      <trkpt lat="60.3695" lon="7.51736">
        <ele>1234.95</ele>
        <time>2019-04-02T13:14:20Z</time>
      </trkpt>
      <trkpt lat="60.3695" lon="7.51766">
        <ele>1235.43</ele>
        <time>2019-04-02T13:14:23Z</time>
      </trkpt>
      <trkpt lat="60.36951" lon="7.5181">
        <ele>1234.47</ele>
        <time>2019-04-02T13:14:27Z</time>
      </trkpt>
      <trkpt lat="60.36962" lon="7.51915">
        <ele>1233.99</ele>
        <time>2019-04-02T13:14:35Z</time>
      </trkpt>
      <trkpt lat="60.3697" lon="7.51968">
        <ele>1232.55</ele>
        <time>2019-04-02T13:14:39Z</time>
      </trkpt>
      <trkpt lat="60.36973" lon="7.51998">
        <ele>1232.55</ele>
        <time>2019-04-02T13:14:41Z</time>
      </trkpt>
      <trkpt lat="60.36976" lon="7.52023">
        <ele>1233.99</ele>
        <time>2019-04-02T13:14:43Z</time>
      </trkpt>
      <trkpt lat="60.36985" lon="7.5206">
        <ele>1233.99</ele>
        <time>2019-04-02T13:14:46Z</time>
      </trkpt>
      <trkpt lat="60.36989" lon="7.52085">
        <ele>1234.47</ele>
        <time>2019-04-02T13:14:48Z</time>
      </trkpt>
      <trkpt lat="60.36998" lon="7.52124">
        <ele>1234.47</ele>
        <time>2019-04-02T13:14:51Z</time>
      </trkpt>
      <trkpt lat="60.37006" lon="7.52167">
        <ele>1234.95</ele>
        <time>2019-04-02T13:14:54Z</time>
      </trkpt>
      <trkpt lat="60.37018" lon="7.52206">
        <ele>1233.51</ele>
        <time>2019-04-02T13:14:57Z</time>
      </trkpt>
      <trkpt lat="60.37024" lon="7.5222">
        <ele>1232.55</ele>
        <time>2019-04-02T13:14:58Z</time>
      </trkpt>
      <trkpt lat="60.37033" lon="7.52248">
        <ele>1231.11</ele>
        <time>2019-04-02T13:15:00Z</time>
      </trkpt>
      <trkpt lat="60.37049" lon="7.52308">
        <ele>1233.51</ele>
        <time>2019-04-02T13:15:04Z</time>
      </trkpt>
      <trkpt lat="60.3706" lon="7.52356">
        <ele>1233.99</ele>
        <time>2019-04-02T13:15:07Z</time>
      </trkpt>
      <trkpt lat="60.37076" lon="7.52415">
        <ele>1232.55</ele>
        <time>2019-04-02T13:15:11Z</time>
      </trkpt>
      <trkpt lat="60.37082" lon="7.52428">
        <ele>1232.55</ele>
        <time>2019-04-02T13:15:12Z</time>
      </trkpt>
      <trkpt lat="60.37099" lon="7.52465">
        <ele>1234.95</ele>
        <time>2019-04-02T13:15:15Z</time>
      </trkpt>
      <trkpt lat="60.37104" lon="7.5248">
        <ele>1235.43</ele>
        <time>2019-04-02T13:15:16Z</time>
      </trkpt>
      <trkpt lat="60.37117" lon="7.52526">
        <ele>1235.43</ele>
        <time>2019-04-02T13:15:19Z</time>
      </trkpt>
      <trkpt lat="60.37125" lon="7.52567">
        <ele>1234.95</ele>
        <time>2019-04-02T13:15:22Z</time>
      </trkpt>
      <trkpt lat="60.37141" lon="7.52639">
        <ele>1236.39</ele>
        <time>2019-04-02T13:15:27Z</time>
      </trkpt>
      <trkpt lat="60.37183" lon="7.52788">
        <ele>1235.43</ele>
        <time>2019-04-02T13:15:39Z</time>
      </trkpt>
      <trkpt lat="60.37186" lon="7.52802">
        <ele>1236.87</ele>
        <time>2019-04-02T13:15:40Z</time>
      </trkpt>
      <trkpt lat="60.3719" lon="7.52814">
        <ele>1238.32</ele>
        <time>2019-04-02T13:15:41Z</time>
      </trkpt>
      <trkpt lat="60.37194" lon="7.52827">
        <ele>1238.32</ele>
        <time>2019-04-02T13:15:42Z</time>
      </trkpt>
      <trkpt lat="60.37198" lon="7.52841">
        <ele>1238.32</ele>
        <time>2019-04-02T13:15:43Z</time>
      </trkpt>
      <trkpt lat="60.37203" lon="7.52857">
        <ele>1238.32</ele>
        <time>2019-04-02T13:15:44Z</time>
      </trkpt>
      <trkpt lat="60.37213" lon="7.52889">
        <ele>1238.32</ele>
        <time>2019-04-02T13:15:46Z</time>
      </trkpt>
      <trkpt lat="60.37229" lon="7.52965">
        <ele>1234.95</ele>
        <time>2019-04-02T13:15:51Z</time>
      </trkpt>
      <trkpt lat="60.37233" lon="7.52982">
        <ele>1238.32</ele>
        <time>2019-04-02T13:15:52Z</time>
      </trkpt>
      <trkpt lat="60.37235" lon="7.52998">
        <ele>1236.39</ele>
        <time>2019-04-02T13:15:53Z</time>
      </trkpt>
      <trkpt lat="60.37241" lon="7.5305">
        <ele>1234.95</ele>
        <time>2019-04-02T13:15:56Z</time>
      </trkpt>
      <trkpt lat="60.37243" lon="7.53066">
        <ele>1234.95</ele>
        <time>2019-04-02T13:15:57Z</time>
      </trkpt>
      <trkpt lat="60.37248" lon="7.53099">
        <ele>1232.07</ele>
        <time>2019-04-02T13:15:59Z</time>
      </trkpt>
      <trkpt lat="60.37279" lon="7.53271">
        <ele>1233.51</ele>
        <time>2019-04-02T13:16:09Z</time>
      </trkpt>
      <trkpt lat="60.37282" lon="7.53303">
        <ele>1235.43</ele>
        <time>2019-04-02T13:16:11Z</time>
      </trkpt>
      <trkpt lat="60.37285" lon="7.53328">
        <ele>1236.87</ele>
        <time>2019-04-02T13:16:13Z</time>
      </trkpt>
      <trkpt lat="60.37287" lon="7.5337">
        <ele>1239.76</ele>
        <time>2019-04-02T13:16:18Z</time>
      </trkpt>
      <trkpt lat="60.37289" lon="7.53395">
        <ele>1241.2</ele>
        <time>2019-04-02T13:16:21Z</time>
      </trkpt>
      <trkpt lat="60.37289" lon="7.53438">
        <ele>1243.6</ele>
        <time>2019-04-02T13:16:25Z</time>
      </trkpt>
      <trkpt lat="60.37291" lon="7.53468">
        <ele>1245.04</ele>
        <time>2019-04-02T13:16:28Z</time>
      </trkpt>
      <trkpt lat="60.37293" lon="7.53504">
        <ele>1246.97</ele>
        <time>2019-04-02T13:16:31Z</time>
      </trkpt>
      <trkpt lat="60.37295" lon="7.53526">
        <ele>1251.29</ele>
        <time>2019-04-02T13:16:33Z</time>
      </trkpt>
      <trkpt lat="60.37296" lon="7.53537">
        <ele>1251.29</ele>
        <time>2019-04-02T13:16:34Z</time>
      </trkpt>
      <trkpt lat="60.37298" lon="7.53574">
        <ele>1253.22</ele>
        <time>2019-04-02T13:16:37Z</time>
      </trkpt>
      <trkpt lat="60.37302" lon="7.53662">
        <ele>1255.14</ele>
        <time>2019-04-02T13:16:43Z</time>
      </trkpt>
      <trkpt lat="60.37301" lon="7.53688">
        <ele>1256.1</ele>
        <time>2019-04-02T13:16:45Z</time>
      </trkpt>
      <trkpt lat="60.37301" lon="7.53701">
        <ele>1254.18</ele>
        <time>2019-04-02T13:16:46Z</time>
      </trkpt>
      <trkpt lat="60.37301" lon="7.53788">
        <ele>1253.22</ele>
        <time>2019-04-02T13:16:52Z</time>
      </trkpt>
      <trkpt lat="60.37299" lon="7.53849">
        <ele>1248.41</ele>
        <time>2019-04-02T13:16:56Z</time>
      </trkpt>
      <trkpt lat="60.37304" lon="7.53936">
        <ele>1247.45</ele>
        <time>2019-04-02T13:17:01Z</time>
      </trkpt>
      <trkpt lat="60.37307" lon="7.53971">
        <ele>1246.49</ele>
        <time>2019-04-02T13:17:03Z</time>
      </trkpt>
      <trkpt lat="60.37316" lon="7.5404">
        <ele>1247.45</ele>
        <time>2019-04-02T13:17:07Z</time>
      </trkpt>
      <trkpt lat="60.37327" lon="7.541">
        <ele>1248.89</ele>
        <time>2019-04-02T13:17:11Z</time>
      </trkpt>
      <trkpt lat="60.37331" lon="7.5413">
        <ele>1249.85</ele>
        <time>2019-04-02T13:17:13Z</time>
      </trkpt>
      <trkpt lat="60.37341" lon="7.54189">
        <ele>1252.74</ele>
        <time>2019-04-02T13:17:17Z</time>
      </trkpt>
      <trkpt lat="60.37361" lon="7.54324">
        <ele>1251.29</ele>
        <time>2019-04-02T13:17:27Z</time>
      </trkpt>
      <trkpt lat="60.37368" lon="7.54352">
        <ele>1252.74</ele>
        <time>2019-04-02T13:17:30Z</time>
      </trkpt>
      <trkpt lat="60.37372" lon="7.54379">
        <ele>1253.22</ele>
        <time>2019-04-02T13:17:33Z</time>
      </trkpt>
      <trkpt lat="60.37374" lon="7.54385">
        <ele>1253.22</ele>
        <time>2019-04-02T13:17:34Z</time>
      </trkpt>
      <trkpt lat="60.37377" lon="7.54392">
        <ele>1252.25</ele>
        <time>2019-04-02T13:17:35Z</time>
      </trkpt>
      <trkpt lat="60.37379" lon="7.54399">
        <ele>1252.25</ele>
        <time>2019-04-02T13:17:36Z</time>
      </trkpt>
      <trkpt lat="60.37382" lon="7.54408">
        <ele>1252.25</ele>
        <time>2019-04-02T13:17:37Z</time>
      </trkpt>
      <trkpt lat="60.37383" lon="7.54418">
        <ele>1252.25</ele>
        <time>2019-04-02T13:17:38Z</time>
      </trkpt>
      <trkpt lat="60.37385" lon="7.54428">
        <ele>1253.7</ele>
        <time>2019-04-02T13:17:39Z</time>
      </trkpt>
      <trkpt lat="60.37387" lon="7.54439">
        <ele>1254.18</ele>
        <time>2019-04-02T13:17:40Z</time>
      </trkpt>
      <trkpt lat="60.37388" lon="7.54446">
        <ele>1254.18</ele>
        <time>2019-04-02T13:17:41Z</time>
      </trkpt>
      <trkpt lat="60.3739" lon="7.54455">
        <ele>1253.7</ele>
        <time>2019-04-02T13:17:42Z</time>
      </trkpt>
      <trkpt lat="60.3739" lon="7.54464">
        <ele>1254.66</ele>
        <time>2019-04-02T13:17:43Z</time>
      </trkpt>
      <trkpt lat="60.37391" lon="7.54472">
        <ele>1254.18</ele>
        <time>2019-04-02T13:17:44Z</time>
      </trkpt>
      <trkpt lat="60.37392" lon="7.54481">
        <ele>1254.66</ele>
        <time>2019-04-02T13:17:45Z</time>
      </trkpt>
      <trkpt lat="60.37394" lon="7.5449">
        <ele>1255.62</ele>
        <time>2019-04-02T13:17:46Z</time>
      </trkpt>
      <trkpt lat="60.37395" lon="7.54499">
        <ele>1255.62</ele>
        <time>2019-04-02T13:17:47Z</time>
      </trkpt>
      <trkpt lat="60.37399" lon="7.54544">
        <ele>1258.02</ele>
        <time>2019-04-02T13:17:51Z</time>
      </trkpt>
      <trkpt lat="60.37402" lon="7.54557">
        <ele>1258.02</ele>
        <time>2019-04-02T13:17:52Z</time>
      </trkpt>
      <trkpt lat="60.37411" lon="7.5463">
        <ele>1262.83</ele>
        <time>2019-04-02T13:17:57Z</time>
      </trkpt>
      <trkpt lat="60.37415" lon="7.54663">
        <ele>1258.02</ele>
        <time>2019-04-02T13:17:59Z</time>
      </trkpt>
      <trkpt lat="60.37417" lon="7.54681">
        <ele>1258.02</ele>
        <time>2019-04-02T13:18:00Z</time>
      </trkpt>
      <trkpt lat="60.37423" lon="7.54715">
        <ele>1256.58</ele>
        <time>2019-04-02T13:18:02Z</time>
      </trkpt>
      <trkpt lat="60.3743" lon="7.54752">
        <ele>1255.62</ele>
        <time>2019-04-02T13:18:04Z</time>
      </trkpt>
      <trkpt lat="60.37434" lon="7.54771">
        <ele>1254.66</ele>
        <time>2019-04-02T13:18:05Z</time>
      </trkpt>
      <trkpt lat="60.37445" lon="7.54827">
        <ele>1253.22</ele>
        <time>2019-04-02T13:18:08Z</time>
      </trkpt>
      <trkpt lat="60.37448" lon="7.54846">
        <ele>1252.74</ele>
        <time>2019-04-02T13:18:09Z</time>
      </trkpt>
      <trkpt lat="60.37457" lon="7.54917">
        <ele>1249.37</ele>
        <time>2019-04-02T13:18:13Z</time>
      </trkpt>
      <trkpt lat="60.37462" lon="7.54947">
        <ele>1248.89</ele>
        <time>2019-04-02T13:18:15Z</time>
      </trkpt>
      <trkpt lat="60.37472" lon="7.54998">
        <ele>1245.53</ele>
        <time>2019-04-02T13:18:18Z</time>
      </trkpt>
      <trkpt lat="60.3748" lon="7.5505">
        <ele>1246.97</ele>
        <time>2019-04-02T13:18:21Z</time>
      </trkpt>
      <trkpt lat="60.37486" lon="7.55094">
        <ele>1246.97</ele>
        <time>2019-04-02T13:18:24Z</time>
      </trkpt>
      <trkpt lat="60.37506" lon="7.55194">
        <ele>1245.04</ele>
        <time>2019-04-02T13:18:31Z</time>
      </trkpt>
      <trkpt lat="60.37516" lon="7.55254">
        <ele>1247.45</ele>
        <time>2019-04-02T13:18:35Z</time>
      </trkpt>
      <trkpt lat="60.37521" lon="7.55283">
        <ele>1245.53</ele>
        <time>2019-04-02T13:18:37Z</time>
      </trkpt>
      <trkpt lat="60.37529" lon="7.5534">
        <ele>1244.08</ele>
        <time>2019-04-02T13:18:41Z</time>
      </trkpt>
      <trkpt lat="60.37538" lon="7.55382">
        <ele>1242.64</ele>
        <time>2019-04-02T13:18:44Z</time>
      </trkpt>
      <trkpt lat="60.37541" lon="7.55397">
        <ele>1242.64</ele>
        <time>2019-04-02T13:18:45Z</time>
      </trkpt>
      <trkpt lat="60.37554" lon="7.55468">
        <ele>1238.32</ele>
        <time>2019-04-02T13:18:50Z</time>
      </trkpt>
      <trkpt lat="60.37556" lon="7.5548">
        <ele>1239.76</ele>
        <time>2019-04-02T13:18:51Z</time>
      </trkpt>
      <trkpt lat="60.37561" lon="7.55504">
        <ele>1240.72</ele>
        <time>2019-04-02T13:18:53Z</time>
      </trkpt>
      <trkpt lat="60.37566" lon="7.5553">
        <ele>1239.28</ele>
        <time>2019-04-02T13:18:55Z</time>
      </trkpt>
      <trkpt lat="60.37576" lon="7.55574">
        <ele>1241.2</ele>
        <time>2019-04-02T13:18:58Z</time>
      </trkpt>
      <trkpt lat="60.37581" lon="7.55602">
        <ele>1241.2</ele>
        <time>2019-04-02T13:19:00Z</time>
      </trkpt>
      <trkpt lat="60.37584" lon="7.55615">
        <ele>1238.8</ele>
        <time>2019-04-02T13:19:01Z</time>
      </trkpt>
      <trkpt lat="60.37586" lon="7.55628">
        <ele>1238.8</ele>
        <time>2019-04-02T13:19:02Z</time>
      </trkpt>
      <trkpt lat="60.37605" lon="7.5571">
        <ele>1237.83</ele>
        <time>2019-04-02T13:19:08Z</time>
      </trkpt>
      <trkpt lat="60.37609" lon="7.55724">
        <ele>1240.72</ele>
        <time>2019-04-02T13:19:09Z</time>
      </trkpt>
      <trkpt lat="60.37613" lon="7.55739">
        <ele>1240.72</ele>
        <time>2019-04-02T13:19:10Z</time>
      </trkpt>
      <trkpt lat="60.37617" lon="7.55756">
        <ele>1240.72</ele>
        <time>2019-04-02T13:19:11Z</time>
      </trkpt>
      <trkpt lat="60.37629" lon="7.55817">
        <ele>1242.64</ele>
        <time>2019-04-02T13:19:15Z</time>
      </trkpt>
      <trkpt lat="60.3764" lon="7.55878">
        <ele>1242.64</ele>
        <time>2019-04-02T13:19:19Z</time>
      </trkpt>
      <trkpt lat="60.37646" lon="7.55923">
        <ele>1241.68</ele>
        <time>2019-04-02T13:19:22Z</time>
      </trkpt>
      <trkpt lat="60.37651" lon="7.55961">
        <ele>1241.2</ele>
        <time>2019-04-02T13:19:25Z</time>
      </trkpt>
      <trkpt lat="60.37653" lon="7.55973">
        <ele>1239.76</ele>
        <time>2019-04-02T13:19:26Z</time>
      </trkpt>
      <trkpt lat="60.37657" lon="7.55985">
        <ele>1239.76</ele>
        <time>2019-04-02T13:19:27Z</time>
      </trkpt>
      <trkpt lat="60.3766" lon="7.55996">
        <ele>1238.8</ele>
        <time>2019-04-02T13:19:28Z</time>
      </trkpt>
      <trkpt lat="60.37663" lon="7.56008">
        <ele>1238.8</ele>
        <time>2019-04-02T13:19:29Z</time>
      </trkpt>
      <trkpt lat="60.37673" lon="7.56061">
        <ele>1240.24</ele>
        <time>2019-04-02T13:19:33Z</time>
      </trkpt>
      <trkpt lat="60.37686" lon="7.56115">
        <ele>1241.68</ele>
        <time>2019-04-02T13:19:37Z</time>
      </trkpt>
      <trkpt lat="60.37708" lon="7.56225">
        <ele>1240.72</ele>
        <time>2019-04-02T13:19:44Z</time>
      </trkpt>
      <trkpt lat="60.37727" lon="7.56291">
        <ele>1239.28</ele>
        <time>2019-04-02T13:19:49Z</time>
      </trkpt>
      <trkpt lat="60.37751" lon="7.5639">
        <ele>1241.68</ele>
        <time>2019-04-02T13:19:56Z</time>
      </trkpt>
      <trkpt lat="60.37755" lon="7.56405">
        <ele>1241.68</ele>
        <time>2019-04-02T13:19:57Z</time>
      </trkpt>
      <trkpt lat="60.37765" lon="7.5645">
        <ele>1240.24</ele>
        <time>2019-04-02T13:20:00Z</time>
      </trkpt>
      <trkpt lat="60.37767" lon="7.56465">
        <ele>1240.72</ele>
        <time>2019-04-02T13:20:01Z</time>
      </trkpt>
      <trkpt lat="60.3777" lon="7.56479">
        <ele>1240.24</ele>
        <time>2019-04-02T13:20:02Z</time>
      </trkpt>
      <trkpt lat="60.37777" lon="7.56507">
        <ele>1241.68</ele>
        <time>2019-04-02T13:20:04Z</time>
      </trkpt>
      <trkpt lat="60.3781" lon="7.56633">
        <ele>1239.28</ele>
        <time>2019-04-02T13:20:13Z</time>
      </trkpt>
      <trkpt lat="60.3782" lon="7.5667">
        <ele>1239.28</ele>
        <time>2019-04-02T13:20:16Z</time>
      </trkpt>
      <trkpt lat="60.37828" lon="7.56695">
        <ele>1241.2</ele>
        <time>2019-04-02T13:20:18Z</time>
      </trkpt>
      <trkpt lat="60.37861" lon="7.56819">
        <ele>1238.8</ele>
        <time>2019-04-02T13:20:27Z</time>
      </trkpt>
      <trkpt lat="60.37865" lon="7.56831">
        <ele>1238.8</ele>
        <time>2019-04-02T13:20:28Z</time>
      </trkpt>
      <trkpt lat="60.3787" lon="7.56853">
        <ele>1240.24</ele>
        <time>2019-04-02T13:20:30Z</time>
      </trkpt>
      <trkpt lat="60.37873" lon="7.56863">
        <ele>1240.24</ele>
        <time>2019-04-02T13:20:31Z</time>
      </trkpt>
      <trkpt lat="60.37903" lon="7.56966">
        <ele>1241.2</ele>
        <time>2019-04-02T13:20:39Z</time>
      </trkpt>
      <trkpt lat="60.37908" lon="7.5698">
        <ele>1241.68</ele>
        <time>2019-04-02T13:20:40Z</time>
      </trkpt>
      <trkpt lat="60.37926" lon="7.57053">
        <ele>1242.64</ele>
        <time>2019-04-02T13:20:45Z</time>
      </trkpt>
      <trkpt lat="60.37934" lon="7.57081">
        <ele>1242.64</ele>
        <time>2019-04-02T13:20:47Z</time>
      </trkpt>
      <trkpt lat="60.37937" lon="7.57094">
        <ele>1242.64</ele>
        <time>2019-04-02T13:20:48Z</time>
      </trkpt>
      <trkpt lat="60.37941" lon="7.57107">
        <ele>1241.2</ele>
        <time>2019-04-02T13:20:49Z</time>
      </trkpt>
      <trkpt lat="60.37946" lon="7.5712">
        <ele>1241.2</ele>
        <time>2019-04-02T13:20:50Z</time>
      </trkpt>
      <trkpt lat="60.37951" lon="7.57133">
        <ele>1241.2</ele>
        <time>2019-04-02T13:20:51Z</time>
      </trkpt>
      <trkpt lat="60.37957" lon="7.57148">
        <ele>1240.24</ele>
        <time>2019-04-02T13:20:52Z</time>
      </trkpt>
      <trkpt lat="60.3799" lon="7.57255">
        <ele>1240.72</ele>
        <time>2019-04-02T13:20:59Z</time>
      </trkpt>
      <trkpt lat="60.3802" lon="7.5734">
        <ele>1240.24</ele>
        <time>2019-04-02T13:21:05Z</time>
      </trkpt>
      <trkpt lat="60.38028" lon="7.57368">
        <ele>1240.24</ele>
        <time>2019-04-02T13:21:07Z</time>
      </trkpt>
      <trkpt lat="60.38033" lon="7.57382">
        <ele>1240.24</ele>
        <time>2019-04-02T13:21:08Z</time>
      </trkpt>
      <trkpt lat="60.38039" lon="7.57395">
        <ele>1242.64</ele>
        <time>2019-04-02T13:21:09Z</time>
      </trkpt>
      <trkpt lat="60.38045" lon="7.57408">
        <ele>1242.64</ele>
        <time>2019-04-02T13:21:10Z</time>
      </trkpt>
      <trkpt lat="60.38051" lon="7.57422">
        <ele>1240.24</ele>
        <time>2019-04-02T13:21:11Z</time>
      </trkpt>
      <trkpt lat="60.38057" lon="7.57437">
        <ele>1240.24</ele>
        <time>2019-04-02T13:21:12Z</time>
      </trkpt>
      <trkpt lat="60.38062" lon="7.57452">
        <ele>1240.24</ele>
        <time>2019-04-02T13:21:13Z</time>
      </trkpt>
      <trkpt lat="60.38074" lon="7.57479">
        <ele>1240.24</ele>
        <time>2019-04-02T13:21:15Z</time>
      </trkpt>
      <trkpt lat="60.3808" lon="7.57492">
        <ele>1242.16</ele>
        <time>2019-04-02T13:21:16Z</time>
      </trkpt>
      <trkpt lat="60.38086" lon="7.57507">
        <ele>1242.16</ele>
        <time>2019-04-02T13:21:17Z</time>
      </trkpt>
      <trkpt lat="60.38098" lon="7.57536">
        <ele>1240.72</ele>
        <time>2019-04-02T13:21:19Z</time>
      </trkpt>
      <trkpt lat="60.38107" lon="7.57561">
        <ele>1243.12</ele>
        <time>2019-04-02T13:21:21Z</time>
      </trkpt>
      <trkpt lat="60.38122" lon="7.57594">
        <ele>1240.24</ele>
        <time>2019-04-02T13:21:24Z</time>
      </trkpt>
      <trkpt lat="60.38153" lon="7.57662">
        <ele>1239.28</ele>
        <time>2019-04-02T13:21:31Z</time>
      </trkpt>
      <trkpt lat="60.3817" lon="7.57689">
        <ele>1240.24</ele>
        <time>2019-04-02T13:21:36Z</time>
      </trkpt>
      <trkpt lat="60.38173" lon="7.57692">
        <ele>1240.24</ele>
        <time>2019-04-02T13:21:38Z</time>
      </trkpt>
      <trkpt lat="60.38175" lon="7.57698">
        <ele>1240.24</ele>
        <time>2019-04-02T13:21:46Z</time>
      </trkpt>
      <trkpt lat="60.38177" lon="7.57701">
        <ele>1240.24</ele>
        <time>2019-04-02T13:21:47Z</time>
      </trkpt>
      <trkpt lat="60.38182" lon="7.57711">
        <ele>1240.24</ele>
        <time>2019-04-02T13:21:49Z</time>
      </trkpt>
      <trkpt lat="60.38185" lon="7.57718">
        <ele>1240.24</ele>
        <time>2019-04-02T13:21:50Z</time>
      </trkpt>
      <trkpt lat="60.38188" lon="7.57725">
        <ele>1240.24</ele>
        <time>2019-04-02T13:21:51Z</time>
      </trkpt>
      <trkpt lat="60.38206" lon="7.57765">
        <ele>1241.68</ele>
        <time>2019-04-02T13:21:55Z</time>
      </trkpt>
      <trkpt lat="60.38254" lon="7.57887">
        <ele>1241.2</ele>
        <time>2019-04-02T13:22:04Z</time>
      </trkpt>
      <trkpt lat="60.38283" lon="7.57953">
        <ele>1242.16</ele>
        <time>2019-04-02T13:22:09Z</time>
      </trkpt>
      <trkpt lat="60.38323" lon="7.58041">
        <ele>1240.24</ele>
        <time>2019-04-02T13:22:16Z</time>
      </trkpt>
      <trkpt lat="60.3833" lon="7.58053">
        <ele>1240.24</ele>
        <time>2019-04-02T13:22:17Z</time>
      </trkpt>
      <trkpt lat="60.38336" lon="7.58066">
        <ele>1240.24</ele>
        <time>2019-04-02T13:22:18Z</time>
      </trkpt>
      <trkpt lat="60.38342" lon="7.58081">
        <ele>1239.28</ele>
        <time>2019-04-02T13:22:19Z</time>
      </trkpt>
      <trkpt lat="60.38348" lon="7.58094">
        <ele>1241.2</ele>
        <time>2019-04-02T13:22:20Z</time>
      </trkpt>
      <trkpt lat="60.38354" lon="7.58106">
        <ele>1240.24</ele>
        <time>2019-04-02T13:22:21Z</time>
      </trkpt>
      <trkpt lat="60.38359" lon="7.58118">
        <ele>1239.76</ele>
        <time>2019-04-02T13:22:22Z</time>
      </trkpt>
      <trkpt lat="60.38366" lon="7.58129">
        <ele>1239.76</ele>
        <time>2019-04-02T13:22:23Z</time>
      </trkpt>
      <trkpt lat="60.38385" lon="7.58163">
        <ele>1237.83</ele>
        <time>2019-04-02T13:22:26Z</time>
      </trkpt>
      <trkpt lat="60.38389" lon="7.58171">
        <ele>1237.83</ele>
        <time>2019-04-02T13:22:27Z</time>
      </trkpt>
      <trkpt lat="60.38392" lon="7.58178">
        <ele>1240.24</ele>
        <time>2019-04-02T13:22:28Z</time>
      </trkpt>
      <trkpt lat="60.38394" lon="7.58181">
        <ele>1240.24</ele>
        <time>2019-04-02T13:22:29Z</time>
      </trkpt>
      <trkpt lat="60.38399" lon="7.58177">
        <ele>1238.8</ele>
        <time>2019-04-02T13:22:32Z</time>
      </trkpt>
      <trkpt lat="60.38399" lon="7.58174">
        <ele>1238.8</ele>
        <time>2019-04-02T13:22:33Z</time>
      </trkpt>
      <trkpt lat="60.384" lon="7.58161">
        <ele>1238.32</ele>
        <time>2019-04-02T13:22:37Z</time>
      </trkpt>
      <trkpt lat="60.38409" lon="7.58166">
        <ele>1239.76</ele>
        <time>2019-04-02T13:22:44Z</time>
      </trkpt>
      <trkpt lat="60.38411" lon="7.58172">
        <ele>1238.8</ele>
        <time>2019-04-02T13:22:46Z</time>
      </trkpt>
      <trkpt lat="60.38412" lon="7.58173">
        <ele>1238.8</ele>
        <time>2019-04-02T13:22:47Z</time>
      </trkpt>
      <trkpt lat="60.38418" lon="7.58186">
        <ele>1239.76</ele>
        <time>2019-04-02T13:22:52Z</time>
      </trkpt>
      <trkpt lat="60.3842" lon="7.58192">
        <ele>1240.24</ele>
        <time>2019-04-02T13:22:58Z</time>
      </trkpt>
      <trkpt lat="60.38423" lon="7.582">
        <ele>1238.8</ele>
        <time>2019-04-02T13:23:01Z</time>
      </trkpt>
      <trkpt lat="60.38427" lon="7.58209">
        <ele>1238.8</ele>
        <time>2019-04-02T13:23:04Z</time>
      </trkpt>
      <trkpt lat="60.38436" lon="7.58239">
        <ele>1237.35</ele>
        <time>2019-04-02T13:23:10Z</time>
      </trkpt>
      <trkpt lat="60.3844" lon="7.58251">
        <ele>1236.87</ele>
        <time>2019-04-02T13:23:17Z</time>
      </trkpt>
      <trkpt lat="60.3844" lon="7.5825">
        <ele>1238.8</ele>
        <time>2019-04-02T13:23:22Z</time>
      </trkpt>
      <trkpt lat="60.3844" lon="7.58249">
        <ele>1239.28</ele>
        <time>2019-04-02T13:23:28Z</time>
      </trkpt>
      <trkpt lat="60.38445" lon="7.58253">
        <ele>1236.87</ele>
        <time>2019-04-02T13:23:30Z</time>
      </trkpt>
      <trkpt lat="60.38452" lon="7.58266">
        <ele>1236.87</ele>
        <time>2019-04-02T13:23:32Z</time>
      </trkpt>
      <trkpt lat="60.38464" lon="7.58296">
        <ele>1238.32</ele>
        <time>2019-04-02T13:23:35Z</time>
      </trkpt>
      <trkpt lat="60.38501" lon="7.58379">
        <ele>1239.76</ele>
        <time>2019-04-02T13:23:42Z</time>
      </trkpt>
      <trkpt lat="60.38517" lon="7.5842">
        <ele>1240.72</ele>
        <time>2019-04-02T13:23:47Z</time>
      </trkpt>
      <trkpt lat="60.3852" lon="7.58429">
        <ele>1241.2</ele>
        <time>2019-04-02T13:23:48Z</time>
      </trkpt>
      <trkpt lat="60.38526" lon="7.58448">
        <ele>1241.2</ele>
        <time>2019-04-02T13:23:50Z</time>
      </trkpt>
      <trkpt lat="60.38543" lon="7.58487">
        <ele>1239.76</ele>
        <time>2019-04-02T13:23:54Z</time>
      </trkpt>
      <trkpt lat="60.38554" lon="7.5851">
        <ele>1238.8</ele>
        <time>2019-04-02T13:23:56Z</time>
      </trkpt>
      <trkpt lat="60.38564" lon="7.58536">
        <ele>1238.8</ele>
        <time>2019-04-02T13:23:58Z</time>
      </trkpt>
      <trkpt lat="60.38582" lon="7.58593">
        <ele>1239.76</ele>
        <time>2019-04-02T13:24:02Z</time>
      </trkpt>
      <trkpt lat="60.38586" lon="7.58607">
        <ele>1239.76</ele>
        <time>2019-04-02T13:24:03Z</time>
      </trkpt>
      <trkpt lat="60.38591" lon="7.58621">
        <ele>1239.76</ele>
        <time>2019-04-02T13:24:04Z</time>
      </trkpt>
      <trkpt lat="60.38595" lon="7.58634">
        <ele>1239.76</ele>
        <time>2019-04-02T13:24:05Z</time>
      </trkpt>
      <trkpt lat="60.38599" lon="7.58647">
        <ele>1239.76</ele>
        <time>2019-04-02T13:24:06Z</time>
      </trkpt>
      <trkpt lat="60.38604" lon="7.58659">
        <ele>1239.76</ele>
        <time>2019-04-02T13:24:07Z</time>
      </trkpt>
      <trkpt lat="60.38621" lon="7.58695">
        <ele>1237.83</ele>
        <time>2019-04-02T13:24:10Z</time>
      </trkpt>
      <trkpt lat="60.38646" lon="7.58751">
        <ele>1235.43</ele>
        <time>2019-04-02T13:24:14Z</time>
      </trkpt>
      <trkpt lat="60.38658" lon="7.5878">
        <ele>1234.95</ele>
        <time>2019-04-02T13:24:16Z</time>
      </trkpt>
      <trkpt lat="60.38665" lon="7.58795">
        <ele>1234.95</ele>
        <time>2019-04-02T13:24:17Z</time>
      </trkpt>
      <trkpt lat="60.38677" lon="7.58824">
        <ele>1235.91</ele>
        <time>2019-04-02T13:24:19Z</time>
      </trkpt>
      <trkpt lat="60.38684" lon="7.58837">
        <ele>1236.87</ele>
        <time>2019-04-02T13:24:20Z</time>
      </trkpt>
      <trkpt lat="60.38691" lon="7.58851">
        <ele>1235.91</ele>
        <time>2019-04-02T13:24:21Z</time>
      </trkpt>
      <trkpt lat="60.38709" lon="7.58894">
        <ele>1233.03</ele>
        <time>2019-04-02T13:24:24Z</time>
      </trkpt>
      <trkpt lat="60.38716" lon="7.58908">
        <ele>1233.03</ele>
        <time>2019-04-02T13:24:25Z</time>
      </trkpt>
      <trkpt lat="60.38723" lon="7.58923">
        <ele>1233.03</ele>
        <time>2019-04-02T13:24:26Z</time>
      </trkpt>
      <trkpt lat="60.38731" lon="7.58935">
        <ele>1234.47</ele>
        <time>2019-04-02T13:24:27Z</time>
      </trkpt>
      <trkpt lat="60.38739" lon="7.58947">
        <ele>1233.03</ele>
        <time>2019-04-02T13:24:28Z</time>
      </trkpt>
      <trkpt lat="60.38747" lon="7.5896">
        <ele>1232.07</ele>
        <time>2019-04-02T13:24:29Z</time>
      </trkpt>
      <trkpt lat="60.38756" lon="7.58973">
        <ele>1232.07</ele>
        <time>2019-04-02T13:24:30Z</time>
      </trkpt>
      <trkpt lat="60.38799" lon="7.5904">
        <ele>1231.11</ele>
        <time>2019-04-02T13:24:35Z</time>
      </trkpt>
      <trkpt lat="60.38822" lon="7.59087">
        <ele>1229.66</ele>
        <time>2019-04-02T13:24:38Z</time>
      </trkpt>
      <trkpt lat="60.38829" lon="7.59104">
        <ele>1228.7</ele>
        <time>2019-04-02T13:24:39Z</time>
      </trkpt>
      <trkpt lat="60.38849" lon="7.59153">
        <ele>1230.62</ele>
        <time>2019-04-02T13:24:42Z</time>
      </trkpt>
      <trkpt lat="60.38867" lon="7.59203">
        <ele>1228.22</ele>
        <time>2019-04-02T13:24:45Z</time>
      </trkpt>
      <trkpt lat="60.38874" lon="7.59219">
        <ele>1228.22</ele>
        <time>2019-04-02T13:24:46Z</time>
      </trkpt>
      <trkpt lat="60.3891" lon="7.59301">
        <ele>1224.86</ele>
        <time>2019-04-02T13:24:51Z</time>
      </trkpt>
      <trkpt lat="60.38917" lon="7.59317">
        <ele>1224.86</ele>
        <time>2019-04-02T13:24:52Z</time>
      </trkpt>
      <trkpt lat="60.38954" lon="7.59393">
        <ele>1223.42</ele>
        <time>2019-04-02T13:24:57Z</time>
      </trkpt>
      <trkpt lat="60.38964" lon="7.59404">
        <ele>1221.97</ele>
        <time>2019-04-02T13:24:58Z</time>
      </trkpt>
      <trkpt lat="60.38984" lon="7.59421">
        <ele>1218.61</ele>
        <time>2019-04-02T13:25:00Z</time>
      </trkpt>
      <trkpt lat="60.38992" lon="7.59432">
        <ele>1217.65</ele>
        <time>2019-04-02T13:25:01Z</time>
      </trkpt>
      <trkpt lat="60.38999" lon="7.59443">
        <ele>1217.65</ele>
        <time>2019-04-02T13:25:02Z</time>
      </trkpt>
      <trkpt lat="60.39012" lon="7.59465">
        <ele>1219.57</ele>
        <time>2019-04-02T13:25:04Z</time>
      </trkpt>
      <trkpt lat="60.39027" lon="7.59491">
        <ele>1216.69</ele>
        <time>2019-04-02T13:25:06Z</time>
      </trkpt>
      <trkpt lat="60.39033" lon="7.59507">
        <ele>1215.24</ele>
        <time>2019-04-02T13:25:07Z</time>
      </trkpt>
      <trkpt lat="60.39041" lon="7.59541">
        <ele>1214.28</ele>
        <time>2019-04-02T13:25:09Z</time>
      </trkpt>
      <trkpt lat="60.39044" lon="7.59557">
        <ele>1214.28</ele>
        <time>2019-04-02T13:25:10Z</time>
      </trkpt>
      <trkpt lat="60.39048" lon="7.59572">
        <ele>1215.72</ele>
        <time>2019-04-02T13:25:11Z</time>
      </trkpt>
      <trkpt lat="60.39052" lon="7.59587">
        <ele>1215.72</ele>
        <time>2019-04-02T13:25:12Z</time>
      </trkpt>
      <trkpt lat="60.3907" lon="7.59652">
        <ele>1213.8</ele>
        <time>2019-04-02T13:25:16Z</time>
      </trkpt>
      <trkpt lat="60.39076" lon="7.59669">
        <ele>1215.24</ele>
        <time>2019-04-02T13:25:17Z</time>
      </trkpt>
      <trkpt lat="60.39081" lon="7.59685">
        <ele>1215.24</ele>
        <time>2019-04-02T13:25:18Z</time>
      </trkpt>
      <trkpt lat="60.39085" lon="7.59702">
        <ele>1213.8</ele>
        <time>2019-04-02T13:25:19Z</time>
      </trkpt>
      <trkpt lat="60.3909" lon="7.59721">
        <ele>1213.8</ele>
        <time>2019-04-02T13:25:20Z</time>
      </trkpt>
      <trkpt lat="60.39099" lon="7.59757">
        <ele>1212.36</ele>
        <time>2019-04-02T13:25:22Z</time>
      </trkpt>
      <trkpt lat="60.39111" lon="7.5981">
        <ele>1208.03</ele>
        <time>2019-04-02T13:25:25Z</time>
      </trkpt>
      <trkpt lat="60.39117" lon="7.59825">
        <ele>1208.03</ele>
        <time>2019-04-02T13:25:26Z</time>
      </trkpt>
      <trkpt lat="60.39123" lon="7.59842">
        <ele>1208.03</ele>
        <time>2019-04-02T13:25:27Z</time>
      </trkpt>
      <trkpt lat="60.39128" lon="7.59857">
        <ele>1207.55</ele>
        <time>2019-04-02T13:25:28Z</time>
      </trkpt>
      <trkpt lat="60.39135" lon="7.59873">
        <ele>1207.55</ele>
        <time>2019-04-02T13:25:29Z</time>
      </trkpt>
      <trkpt lat="60.39164" lon="7.59965">
        <ele>1205.15</ele>
        <time>2019-04-02T13:25:35Z</time>
      </trkpt>
      <trkpt lat="60.39173" lon="7.59993">
        <ele>1206.11</ele>
        <time>2019-04-02T13:25:37Z</time>
      </trkpt>
      <trkpt lat="60.3919" lon="7.60056">
        <ele>1204.67</ele>
        <time>2019-04-02T13:25:41Z</time>
      </trkpt>
      <trkpt lat="60.39207" lon="7.60124">
        <ele>1202.75</ele>
        <time>2019-04-02T13:25:45Z</time>
      </trkpt>
      <trkpt lat="60.39228" lon="7.60198">
        <ele>1202.27</ele>
        <time>2019-04-02T13:25:50Z</time>
      </trkpt>
      <trkpt lat="60.3923" lon="7.6021">
        <ele>1202.27</ele>
        <time>2019-04-02T13:25:51Z</time>
      </trkpt>
      <trkpt lat="60.39245" lon="7.60272">
        <ele>1203.23</ele>
        <time>2019-04-02T13:25:56Z</time>
      </trkpt>
      <trkpt lat="60.39248" lon="7.60285">
        <ele>1203.23</ele>
        <time>2019-04-02T13:25:57Z</time>
      </trkpt>
      <trkpt lat="60.3925" lon="7.60298">
        <ele>1203.23</ele>
        <time>2019-04-02T13:25:58Z</time>
      </trkpt>
      <trkpt lat="60.39254" lon="7.6031">
        <ele>1201.3</ele>
        <time>2019-04-02T13:25:59Z</time>
      </trkpt>
      <trkpt lat="60.39259" lon="7.6032">
        <ele>1201.3</ele>
        <time>2019-04-02T13:26:00Z</time>
      </trkpt>
      <trkpt lat="60.39264" lon="7.60329">
        <ele>1201.3</ele>
        <time>2019-04-02T13:26:01Z</time>
      </trkpt>
      <trkpt lat="60.39268" lon="7.60339">
        <ele>1201.3</ele>
        <time>2019-04-02T13:26:02Z</time>
      </trkpt>
      <trkpt lat="60.39272" lon="7.60348">
        <ele>1201.3</ele>
        <time>2019-04-02T13:26:03Z</time>
      </trkpt>
      <trkpt lat="60.3928" lon="7.60367">
        <ele>1203.23</ele>
        <time>2019-04-02T13:26:05Z</time>
      </trkpt>
      <trkpt lat="60.39284" lon="7.60378">
        <ele>1201.79</ele>
        <time>2019-04-02T13:26:06Z</time>
      </trkpt>
      <trkpt lat="60.39289" lon="7.60391">
        <ele>1201.79</ele>
        <time>2019-04-02T13:26:07Z</time>
      </trkpt>
      <trkpt lat="60.39305" lon="7.60431">
        <ele>1199.86</ele>
        <time>2019-04-02T13:26:10Z</time>
      </trkpt>
      <trkpt lat="60.3931" lon="7.60445">
        <ele>1198.9</ele>
        <time>2019-04-02T13:26:11Z</time>
      </trkpt>
      <trkpt lat="60.39315" lon="7.6046">
        <ele>1197.46</ele>
        <time>2019-04-02T13:26:12Z</time>
      </trkpt>
      <trkpt lat="60.39321" lon="7.60474">
        <ele>1197.94</ele>
        <time>2019-04-02T13:26:13Z</time>
      </trkpt>
      <trkpt lat="60.39332" lon="7.60501">
        <ele>1196.02</ele>
        <time>2019-04-02T13:26:15Z</time>
      </trkpt>
      <trkpt lat="60.3935" lon="7.60537">
        <ele>1196.5</ele>
        <time>2019-04-02T13:26:18Z</time>
      </trkpt>
      <trkpt lat="60.39356" lon="7.60546">
        <ele>1196.5</ele>
        <time>2019-04-02T13:26:19Z</time>
      </trkpt>
      <trkpt lat="60.39394" lon="7.60588">
        <ele>1191.69</ele>
        <time>2019-04-02T13:26:24Z</time>
      </trkpt>
      <trkpt lat="60.39411" lon="7.60608">
        <ele>1190.73</ele>
        <time>2019-04-02T13:26:26Z</time>
      </trkpt>
      <trkpt lat="60.39418" lon="7.60619">
        <ele>1190.73</ele>
        <time>2019-04-02T13:26:27Z</time>
      </trkpt>
      <trkpt lat="60.3943" lon="7.6064">
        <ele>1190.73</ele>
        <time>2019-04-02T13:26:29Z</time>
      </trkpt>
      <trkpt lat="60.3944" lon="7.60661">
        <ele>1192.65</ele>
        <time>2019-04-02T13:26:31Z</time>
      </trkpt>
      <trkpt lat="60.39448" lon="7.60686">
        <ele>1191.21</ele>
        <time>2019-04-02T13:26:33Z</time>
      </trkpt>
      <trkpt lat="60.39452" lon="7.60699">
        <ele>1189.77</ele>
        <time>2019-04-02T13:26:34Z</time>
      </trkpt>
      <trkpt lat="60.39461" lon="7.60727">
        <ele>1189.29</ele>
        <time>2019-04-02T13:26:36Z</time>
      </trkpt>
      <trkpt lat="60.39466" lon="7.6074">
        <ele>1188.81</ele>
        <time>2019-04-02T13:26:37Z</time>
      </trkpt>
      <trkpt lat="60.39471" lon="7.60753">
        <ele>1188.81</ele>
        <time>2019-04-02T13:26:38Z</time>
      </trkpt>
      <trkpt lat="60.39476" lon="7.60766">
        <ele>1188.81</ele>
        <time>2019-04-02T13:26:39Z</time>
      </trkpt>
      <trkpt lat="60.39481" lon="7.60779">
        <ele>1188.81</ele>
        <time>2019-04-02T13:26:40Z</time>
      </trkpt>
      <trkpt lat="60.39485" lon="7.60792">
        <ele>1187.85</ele>
        <time>2019-04-02T13:26:41Z</time>
      </trkpt>
      <trkpt lat="60.39494" lon="7.60817">
        <ele>1186.88</ele>
        <time>2019-04-02T13:26:43Z</time>
      </trkpt>
      <trkpt lat="60.39514" lon="7.60864">
        <ele>1186.88</ele>
        <time>2019-04-02T13:26:47Z</time>
      </trkpt>
      <trkpt lat="60.39543" lon="7.60924">
        <ele>1184.96</ele>
        <time>2019-04-02T13:26:52Z</time>
      </trkpt>
      <trkpt lat="60.39548" lon="7.60935">
        <ele>1184.96</ele>
        <time>2019-04-02T13:26:53Z</time>
      </trkpt>
      <trkpt lat="60.39553" lon="7.60945">
        <ele>1183.52</ele>
        <time>2019-04-02T13:26:54Z</time>
      </trkpt>
      <trkpt lat="60.39559" lon="7.60954">
        <ele>1182.56</ele>
        <time>2019-04-02T13:26:55Z</time>
      </trkpt>
      <trkpt lat="60.39565" lon="7.60963">
        <ele>1183.04</ele>
        <time>2019-04-02T13:26:56Z</time>
      </trkpt>
      <trkpt lat="60.3957" lon="7.60971">
        <ele>1182.56</ele>
        <time>2019-04-02T13:26:57Z</time>
      </trkpt>
      <trkpt lat="60.39575" lon="7.60979">
        <ele>1182.56</ele>
        <time>2019-04-02T13:26:58Z</time>
      </trkpt>
      <trkpt lat="60.39581" lon="7.60988">
        <ele>1182.56</ele>
        <time>2019-04-02T13:26:59Z</time>
      </trkpt>
      <trkpt lat="60.39607" lon="7.61029">
        <ele>1183.04</ele>
        <time>2019-04-02T13:27:04Z</time>
      </trkpt>
      <trkpt lat="60.39613" lon="7.61036">
        <ele>1183.04</ele>
        <time>2019-04-02T13:27:05Z</time>
      </trkpt>
      <trkpt lat="60.39641" lon="7.61068">
        <ele>1185.92</ele>
        <time>2019-04-02T13:27:09Z</time>
      </trkpt>
      <trkpt lat="60.39662" lon="7.61097">
        <ele>1184</ele>
        <time>2019-04-02T13:27:12Z</time>
      </trkpt>
      <trkpt lat="60.3967" lon="7.61109">
        <ele>1183.52</ele>
        <time>2019-04-02T13:27:13Z</time>
      </trkpt>
      <trkpt lat="60.39696" lon="7.61155">
        <ele>1181.6</ele>
        <time>2019-04-02T13:27:17Z</time>
      </trkpt>
      <trkpt lat="60.39713" lon="7.6119">
        <ele>1181.12</ele>
        <time>2019-04-02T13:27:20Z</time>
      </trkpt>
      <trkpt lat="60.39729" lon="7.61224">
        <ele>1183.04</ele>
        <time>2019-04-02T13:27:24Z</time>
      </trkpt>
      <trkpt lat="60.39732" lon="7.6123">
        <ele>1183.04</ele>
        <time>2019-04-02T13:27:25Z</time>
      </trkpt>
      <trkpt lat="60.39739" lon="7.61243">
        <ele>1184</ele>
        <time>2019-04-02T13:27:28Z</time>
      </trkpt>
      <trkpt lat="60.39742" lon="7.61243">
        <ele>1184</ele>
        <time>2019-04-02T13:27:29Z</time>
      </trkpt>
      <trkpt lat="60.39743" lon="7.61242">
        <ele>1182.56</ele>
        <time>2019-04-02T13:27:30Z</time>
      </trkpt>
      <trkpt lat="60.39745" lon="7.61239">
        <ele>1182.56</ele>
        <time>2019-04-02T13:27:31Z</time>
      </trkpt>
      <trkpt lat="60.39747" lon="7.61236">
        <ele>1182.56</ele>
        <time>2019-04-02T13:27:32Z</time>
      </trkpt>
      <trkpt lat="60.3975" lon="7.61233">
        <ele>1182.08</ele>
        <time>2019-04-02T13:27:33Z</time>
      </trkpt>
      <trkpt lat="60.39753" lon="7.6123">
        <ele>1182.08</ele>
        <time>2019-04-02T13:27:34Z</time>
      </trkpt>
      <trkpt lat="60.39757" lon="7.61227">
        <ele>1181.12</ele>
        <time>2019-04-02T13:27:35Z</time>
      </trkpt>
      <trkpt lat="60.39774" lon="7.61207">
        <ele>1180.64</ele>
        <time>2019-04-02T13:27:40Z</time>
      </trkpt>
      <trkpt lat="60.39778" lon="7.61204">
        <ele>1180.64</ele>
        <time>2019-04-02T13:27:41Z</time>
      </trkpt>
      <trkpt lat="60.39782" lon="7.61198">
        <ele>1180.64</ele>
        <time>2019-04-02T13:27:42Z</time>
      </trkpt>
      <trkpt lat="60.39787" lon="7.61161">
        <ele>1177.75</ele>
        <time>2019-04-02T13:27:45Z</time>
      </trkpt>
      <trkpt lat="60.39789" lon="7.61103">
        <ele>1175.35</ele>
        <time>2019-04-02T13:27:49Z</time>
      </trkpt>
      <trkpt lat="60.3979" lon="7.61089">
        <ele>1175.35</ele>
        <time>2019-04-02T13:27:50Z</time>
      </trkpt>
      <trkpt lat="60.39801" lon="7.61064">
        <ele>1175.83</ele>
        <time>2019-04-02T13:27:55Z</time>
      </trkpt>
      <trkpt lat="60.39806" lon="7.61066">
        <ele>1175.83</ele>
        <time>2019-04-02T13:27:56Z</time>
      </trkpt>
      <trkpt lat="60.39815" lon="7.61071">
        <ele>1176.79</ele>
        <time>2019-04-02T13:27:58Z</time>
      </trkpt>
      <trkpt lat="60.39838" lon="7.61083">
        <ele>1176.79</ele>
        <time>2019-04-02T13:28:03Z</time>
      </trkpt>
      <trkpt lat="60.39845" lon="7.61087">
        <ele>1176.79</ele>
        <time>2019-04-02T13:28:05Z</time>
      </trkpt>
      <trkpt lat="60.3986" lon="7.61109">
        <ele>1176.79</ele>
        <time>2019-04-02T13:28:09Z</time>
      </trkpt>
      <trkpt lat="60.39872" lon="7.61133">
        <ele>1177.27</ele>
        <time>2019-04-02T13:28:13Z</time>
      </trkpt>
      <trkpt lat="60.39887" lon="7.61164">
        <ele>1175.83</ele>
        <time>2019-04-02T13:28:18Z</time>
      </trkpt>
      <trkpt lat="60.399" lon="7.61187">
        <ele>1175.83</ele>
        <time>2019-04-02T13:28:23Z</time>
      </trkpt>
      <trkpt lat="60.39913" lon="7.61233">
        <ele>1175.35</ele>
        <time>2019-04-02T13:28:31Z</time>
      </trkpt>
      <trkpt lat="60.39915" lon="7.61234">
        <ele>1176.31</ele>
        <time>2019-04-02T13:28:44Z</time>
      </trkpt>
      <trkpt lat="60.39915" lon="7.61233">
        <ele>1177.27</ele>
        <time>2019-04-02T13:28:49Z</time>
      </trkpt>
      <trkpt lat="60.39913" lon="7.61236">
        <ele>1176.31</ele>
        <time>2019-04-02T13:29:09Z</time>
      </trkpt>
      <trkpt lat="60.39912" lon="7.61237">
        <ele>1176.79</ele>
        <time>2019-04-02T13:29:26Z</time>
      </trkpt>
      <trkpt lat="60.39914" lon="7.61233">
        <ele>1175.83</ele>
        <time>2019-04-02T13:29:48Z</time>
      </trkpt>
      <trkpt lat="60.39914" lon="7.6123">
        <ele>1176.79</ele>
        <time>2019-04-02T13:30:04Z</time>
      </trkpt>
      <trkpt lat="60.39913" lon="7.61227">
        <ele>1176.79</ele>
        <time>2019-04-02T13:30:13Z</time>
      </trkpt>
      <trkpt lat="60.39911" lon="7.61204">
        <ele>1175.35</ele>
        <time>2019-04-02T13:30:18Z</time>
      </trkpt>
      <trkpt lat="60.3994" lon="7.6117">
        <ele>1175.35</ele>
        <time>2019-04-02T13:30:25Z</time>
      </trkpt>
      <trkpt lat="60.39964" lon="7.61171">
        <ele>1176.79</ele>
        <time>2019-04-02T13:30:28Z</time>
      </trkpt>
      <trkpt lat="60.39983" lon="7.61167">
        <ele>1176.79</ele>
        <time>2019-04-02T13:30:30Z</time>
      </trkpt>
      <trkpt lat="60.40036" lon="7.61171">
        <ele>1176.79</ele>
        <time>2019-04-02T13:30:35Z</time>
      </trkpt>
      <trkpt lat="60.40112" lon="7.61198">
        <ele>1175.35</ele>
        <time>2019-04-02T13:30:42Z</time>
      </trkpt>
      <trkpt lat="60.40131" lon="7.61202">
        <ele>1173.91</ele>
        <time>2019-04-02T13:30:44Z</time>
      </trkpt>
      <trkpt lat="60.40151" lon="7.61208">
        <ele>1172.95</ele>
        <time>2019-04-02T13:30:46Z</time>
      </trkpt>
      <trkpt lat="60.40227" lon="7.61237">
        <ele>1173.43</ele>
        <time>2019-04-02T13:30:54Z</time>
      </trkpt>
      <trkpt lat="60.40266" lon="7.61262">
        <ele>1174.87</ele>
        <time>2019-04-02T13:30:58Z</time>
      </trkpt>
      <trkpt lat="60.40322" lon="7.61318">
        <ele>1171.98</ele>
        <time>2019-04-02T13:31:05Z</time>
      </trkpt>
      <trkpt lat="60.4035" lon="7.61341">
        <ele>1172.47</ele>
        <time>2019-04-02T13:31:10Z</time>
      </trkpt>
      <trkpt lat="60.40381" lon="7.61362">
        <ele>1175.83</ele>
        <time>2019-04-02T13:31:15Z</time>
      </trkpt>
      <trkpt lat="60.40389" lon="7.61368">
        <ele>1175.83</ele>
        <time>2019-04-02T13:31:16Z</time>
      </trkpt>
      <trkpt lat="60.40396" lon="7.61376">
        <ele>1176.31</ele>
        <time>2019-04-02T13:31:17Z</time>
      </trkpt>
      <trkpt lat="60.40423" lon="7.61406">
        <ele>1176.79</ele>
        <time>2019-04-02T13:31:21Z</time>
      </trkpt>
      <trkpt lat="60.40469" lon="7.61441">
        <ele>1177.75</ele>
        <time>2019-04-02T13:31:28Z</time>
      </trkpt>
      <trkpt lat="60.40487" lon="7.61451">
        <ele>1177.75</ele>
        <time>2019-04-02T13:31:31Z</time>
      </trkpt>
      <trkpt lat="60.405" lon="7.61462">
        <ele>1179.19</ele>
        <time>2019-04-02T13:31:35Z</time>
      </trkpt>
      <trkpt lat="60.40502" lon="7.61461">
        <ele>1178.71</ele>
        <time>2019-04-02T13:31:36Z</time>
      </trkpt>
      <trkpt lat="60.40508" lon="7.6146">
        <ele>1179.67</ele>
        <time>2019-04-02T13:31:38Z</time>
      </trkpt>
      <trkpt lat="60.40514" lon="7.61459">
        <ele>1181.12</ele>
        <time>2019-04-02T13:31:40Z</time>
      </trkpt>
      <trkpt lat="60.40517" lon="7.61458">
        <ele>1181.6</ele>
        <time>2019-04-02T13:31:41Z</time>
      </trkpt>
      <trkpt lat="60.40525" lon="7.61457">
        <ele>1182.56</ele>
        <time>2019-04-02T13:31:44Z</time>
      </trkpt>
      <trkpt lat="60.40548" lon="7.61454">
        <ele>1188.81</ele>
        <time>2019-04-02T13:31:50Z</time>
      </trkpt>
      <trkpt lat="60.40559" lon="7.61455">
        <ele>1192.17</ele>
        <time>2019-04-02T13:31:55Z</time>
      </trkpt>
      <trkpt lat="60.40579" lon="7.61454">
        <ele>1195.54</ele>
        <time>2019-04-02T13:32:00Z</time>
      </trkpt>
      <trkpt lat="60.40585" lon="7.61456">
        <ele>1197.46</ele>
        <time>2019-04-02T13:32:02Z</time>
      </trkpt>
      <trkpt lat="60.40598" lon="7.6145">
        <ele>1200.34</ele>
        <time>2019-04-02T13:32:05Z</time>
      </trkpt>
      <trkpt lat="60.40606" lon="7.61451">
        <ele>1203.23</ele>
        <time>2019-04-02T13:32:07Z</time>
      </trkpt>
      <trkpt lat="60.40622" lon="7.61449">
        <ele>1207.55</ele>
        <time>2019-04-02T13:32:11Z</time>
      </trkpt>
      <trkpt lat="60.40625" lon="7.61449">
        <ele>1209</ele>
        <time>2019-04-02T13:32:12Z</time>
      </trkpt>
      <trkpt lat="60.40633" lon="7.6145">
        <ele>1212.36</ele>
        <time>2019-04-02T13:32:15Z</time>
      </trkpt>
      <trkpt lat="60.40638" lon="7.61448">
        <ele>1213.32</ele>
        <time>2019-04-02T13:32:18Z</time>
      </trkpt>
      <trkpt lat="60.40645" lon="7.61449">
        <ele>1216.69</ele>
        <time>2019-04-02T13:32:21Z</time>
      </trkpt>
      <trkpt lat="60.40661" lon="7.61443">
        <ele>1220.05</ele>
        <time>2019-04-02T13:32:26Z</time>
      </trkpt>
      <trkpt lat="60.40665" lon="7.6144">
        <ele>1220.05</ele>
        <time>2019-04-02T13:32:27Z</time>
      </trkpt>
      <trkpt lat="60.40669" lon="7.61437">
        <ele>1220.53</ele>
        <time>2019-04-02T13:32:28Z</time>
      </trkpt>
      <trkpt lat="60.40683" lon="7.61427">
        <ele>1223.9</ele>
        <time>2019-04-02T13:32:32Z</time>
      </trkpt>
      <trkpt lat="60.40698" lon="7.61422">
        <ele>1229.18</ele>
        <time>2019-04-02T13:32:36Z</time>
      </trkpt>
      <trkpt lat="60.40716" lon="7.61418">
        <ele>1233.99</ele>
        <time>2019-04-02T13:32:40Z</time>
      </trkpt>
      <trkpt lat="60.40728" lon="7.61426">
        <ele>1237.35</ele>
        <time>2019-04-02T13:32:43Z</time>
      </trkpt>
      <trkpt lat="60.40755" lon="7.61434">
        <ele>1244.08</ele>
        <time>2019-04-02T13:32:49Z</time>
      </trkpt>
      <trkpt lat="60.4077" lon="7.61446">
        <ele>1247.45</ele>
        <time>2019-04-02T13:32:52Z</time>
      </trkpt>
      <trkpt lat="60.40779" lon="7.6146">
        <ele>1250.33</ele>
        <time>2019-04-02T13:32:54Z</time>
      </trkpt>
      <trkpt lat="60.40803" lon="7.61489">
        <ele>1253.7</ele>
        <time>2019-04-02T13:32:59Z</time>
      </trkpt>
      <trkpt lat="60.40822" lon="7.61502">
        <ele>1257.06</ele>
        <time>2019-04-02T13:33:03Z</time>
      </trkpt>
      <trkpt lat="60.40826" lon="7.61506">
        <ele>1257.54</ele>
        <time>2019-04-02T13:33:04Z</time>
      </trkpt>
      <trkpt lat="60.40854" lon="7.61535">
        <ele>1262.83</ele>
        <time>2019-04-02T13:33:10Z</time>
      </trkpt>
      <trkpt lat="60.40879" lon="7.61553">
        <ele>1266.19</ele>
        <time>2019-04-02T13:33:16Z</time>
      </trkpt>
      <trkpt lat="60.40911" lon="7.61566">
        <ele>1270.52</ele>
        <time>2019-04-02T13:33:22Z</time>
      </trkpt>
      <trkpt lat="60.40916" lon="7.61571">
        <ele>1271.48</ele>
        <time>2019-04-02T13:33:23Z</time>
      </trkpt>
      <trkpt lat="60.40946" lon="7.61602">
        <ele>1274.36</ele>
        <time>2019-04-02T13:33:29Z</time>
      </trkpt>
      <trkpt lat="60.40963" lon="7.61617">
        <ele>1275.81</ele>
        <time>2019-04-02T13:33:32Z</time>
      </trkpt>
      <trkpt lat="60.40979" lon="7.61636">
        <ele>1279.17</ele>
        <time>2019-04-02T13:33:36Z</time>
      </trkpt>
      <trkpt lat="60.40991" lon="7.61648">
        <ele>1280.61</ele>
        <time>2019-04-02T13:33:39Z</time>
      </trkpt>
      <trkpt lat="60.41003" lon="7.61665">
        <ele>1282.06</ele>
        <time>2019-04-02T13:33:42Z</time>
      </trkpt>
      <trkpt lat="60.41017" lon="7.61699">
        <ele>1284.46</ele>
        <time>2019-04-02T13:33:48Z</time>
      </trkpt>
      <trkpt lat="60.41013" lon="7.61691">
        <ele>1283.98</ele>
        <time>2019-04-02T13:33:55Z</time>
      </trkpt>
      <trkpt lat="60.41015" lon="7.61683">
        <ele>1283.5</ele>
        <time>2019-04-02T13:34:01Z</time>
      </trkpt>
      <trkpt lat="60.41014" lon="7.61679">
        <ele>1283.02</ele>
        <time>2019-04-02T13:34:06Z</time>
      </trkpt>
      <trkpt lat="60.41002" lon="7.61673">
        <ele>1282.54</ele>
        <time>2019-04-02T13:34:11Z</time>
      </trkpt>
      <trkpt lat="60.40991" lon="7.6167">
        <ele>1282.06</ele>
        <time>2019-04-02T13:34:14Z</time>
      </trkpt>
      <trkpt lat="60.40981" lon="7.61669">
        <ele>1281.09</ele>
        <time>2019-04-02T13:34:16Z</time>
      </trkpt>
      <trkpt lat="60.40965" lon="7.61668">
        <ele>1279.17</ele>
        <time>2019-04-02T13:34:19Z</time>
      </trkpt>
      <trkpt lat="60.40953" lon="7.61667">
        <ele>1276.29</ele>
        <time>2019-04-02T13:34:21Z</time>
      </trkpt>
      <trkpt lat="60.40947" lon="7.61667">
        <ele>1276.29</ele>
        <time>2019-04-02T13:34:22Z</time>
      </trkpt>
      <trkpt lat="60.40935" lon="7.61664">
        <ele>1276.29</ele>
        <time>2019-04-02T13:34:24Z</time>
      </trkpt>
      <trkpt lat="60.40913" lon="7.61653">
        <ele>1276.29</ele>
        <time>2019-04-02T13:34:28Z</time>
      </trkpt>
      <trkpt lat="60.40889" lon="7.61643">
        <ele>1272.44</ele>
        <time>2019-04-02T13:34:34Z</time>
      </trkpt>
      <trkpt lat="60.40876" lon="7.61633">
        <ele>1270.04</ele>
        <time>2019-04-02T13:34:37Z</time>
      </trkpt>
      <trkpt lat="60.40865" lon="7.61623">
        <ele>1263.31</ele>
        <time>2019-04-02T13:34:39Z</time>
      </trkpt>
      <trkpt lat="60.40859" lon="7.61618">
        <ele>1267.16</ele>
        <time>2019-04-02T13:34:40Z</time>
      </trkpt>
      <trkpt lat="60.40853" lon="7.61612">
        <ele>1263.79</ele>
        <time>2019-04-02T13:34:41Z</time>
      </trkpt>
      <trkpt lat="60.40827" lon="7.61587">
        <ele>1261.39</ele>
        <time>2019-04-02T13:34:45Z</time>
      </trkpt>
      <trkpt lat="60.40807" lon="7.61563">
        <ele>1255.62</ele>
        <time>2019-04-02T13:34:48Z</time>
      </trkpt>
      <trkpt lat="60.408" lon="7.61554">
        <ele>1250.33</ele>
        <time>2019-04-02T13:34:49Z</time>
      </trkpt>
      <trkpt lat="60.40788" lon="7.61532">
        <ele>1246.97</ele>
        <time>2019-04-02T13:34:51Z</time>
      </trkpt>
      <trkpt lat="60.40782" lon="7.61524">
        <ele>1252.25</ele>
        <time>2019-04-02T13:34:52Z</time>
      </trkpt>
      <trkpt lat="60.40775" lon="7.61518">
        <ele>1252.25</ele>
        <time>2019-04-02T13:34:53Z</time>
      </trkpt>
      <trkpt lat="60.40768" lon="7.61512">
        <ele>1248.41</ele>
        <time>2019-04-02T13:34:54Z</time>
      </trkpt>
      <trkpt lat="60.4076" lon="7.61507">
        <ele>1243.6</ele>
        <time>2019-04-02T13:34:55Z</time>
      </trkpt>
      <trkpt lat="60.40733" lon="7.61484">
        <ele>1237.35</ele>
        <time>2019-04-02T13:34:59Z</time>
      </trkpt>
      <trkpt lat="60.40726" lon="7.61478">
        <ele>1240.24</ele>
        <time>2019-04-02T13:35:00Z</time>
      </trkpt>
      <trkpt lat="60.40713" lon="7.61471">
        <ele>1235.91</ele>
        <time>2019-04-02T13:35:02Z</time>
      </trkpt>
      <trkpt lat="60.40708" lon="7.61467">
        <ele>1228.7</ele>
        <time>2019-04-02T13:35:03Z</time>
      </trkpt>
      <trkpt lat="60.407" lon="7.61463">
        <ele>1227.74</ele>
        <time>2019-04-02T13:35:05Z</time>
      </trkpt>
      <trkpt lat="60.40684" lon="7.61459">
        <ele>1227.26</ele>
        <time>2019-04-02T13:35:08Z</time>
      </trkpt>
      <trkpt lat="60.40667" lon="7.61452">
        <ele>1215.24</ele>
        <time>2019-04-02T13:35:11Z</time>
      </trkpt>
      <trkpt lat="60.4066" lon="7.61449">
        <ele>1220.05</ele>
        <time>2019-04-02T13:35:12Z</time>
      </trkpt>
      <trkpt lat="60.40655" lon="7.61446">
        <ele>1216.21</ele>
        <time>2019-04-02T13:35:13Z</time>
      </trkpt>
      <trkpt lat="60.40639" lon="7.61438">
        <ele>1212.36</ele>
        <time>2019-04-02T13:35:16Z</time>
      </trkpt>
      <trkpt lat="60.40628" lon="7.61427">
        <ele>1204.67</ele>
        <time>2019-04-02T13:35:18Z</time>
      </trkpt>
      <trkpt lat="60.40622" lon="7.61423">
        <ele>1203.71</ele>
        <time>2019-04-02T13:35:19Z</time>
      </trkpt>
      <trkpt lat="60.40608" lon="7.61416">
        <ele>1198.42</ele>
        <time>2019-04-02T13:35:21Z</time>
      </trkpt>
      <trkpt lat="60.40595" lon="7.61407">
        <ele>1195.54</ele>
        <time>2019-04-02T13:35:23Z</time>
      </trkpt>
      <trkpt lat="60.40587" lon="7.61404">
        <ele>1189.29</ele>
        <time>2019-04-02T13:35:24Z</time>
      </trkpt>
      <trkpt lat="60.40549" lon="7.61387">
        <ele>1183.04</ele>
        <time>2019-04-02T13:35:29Z</time>
      </trkpt>
      <trkpt lat="60.4054" lon="7.61382">
        <ele>1183.04</ele>
        <time>2019-04-02T13:35:30Z</time>
      </trkpt>
      <trkpt lat="60.40521" lon="7.61374">
        <ele>1179.19</ele>
        <time>2019-04-02T13:35:32Z</time>
      </trkpt>
      <trkpt lat="60.40493" lon="7.61367">
        <ele>1171.5</ele>
        <time>2019-04-02T13:35:35Z</time>
      </trkpt>
      <trkpt lat="60.40444" lon="7.61342">
        <ele>1173.91</ele>
        <time>2019-04-02T13:35:43Z</time>
      </trkpt>
      <trkpt lat="60.40427" lon="7.61332">
        <ele>1171.98</ele>
        <time>2019-04-02T13:35:47Z</time>
      </trkpt>
      <trkpt lat="60.40411" lon="7.61326">
        <ele>1173.91</ele>
        <time>2019-04-02T13:35:50Z</time>
      </trkpt>
      <trkpt lat="60.40386" lon="7.61312">
        <ele>1170.06</ele>
        <time>2019-04-02T13:35:55Z</time>
      </trkpt>
      <trkpt lat="60.40381" lon="7.6131">
        <ele>1170.06</ele>
        <time>2019-04-02T13:35:56Z</time>
      </trkpt>
      <trkpt lat="60.40365" lon="7.61306">
        <ele>1171.5</ele>
        <time>2019-04-02T13:35:59Z</time>
      </trkpt>
      <trkpt lat="60.4036" lon="7.61306">
        <ele>1171.5</ele>
        <time>2019-04-02T13:36:00Z</time>
      </trkpt>
      <trkpt lat="60.4035" lon="7.613">
        <ele>1170.54</ele>
        <time>2019-04-02T13:36:02Z</time>
      </trkpt>
      <trkpt lat="60.40346" lon="7.61296">
        <ele>1170.54</ele>
        <time>2019-04-02T13:36:03Z</time>
      </trkpt>
      <trkpt lat="60.40309" lon="7.61279">
        <ele>1170.54</ele>
        <time>2019-04-02T13:36:11Z</time>
      </trkpt>
      <trkpt lat="60.40289" lon="7.61264">
        <ele>1170.06</ele>
        <time>2019-04-02T13:36:16Z</time>
      </trkpt>
      <trkpt lat="60.40256" lon="7.61237">
        <ele>1170.06</ele>
        <time>2019-04-02T13:36:25Z</time>
      </trkpt>
      <trkpt lat="60.40253" lon="7.61233">
        <ele>1170.06</ele>
        <time>2019-04-02T13:36:26Z</time>
      </trkpt>
      <trkpt lat="60.40234" lon="7.61225">
        <ele>1170.54</ele>
        <time>2019-04-02T13:36:30Z</time>
      </trkpt>
      <trkpt lat="60.40207" lon="7.61223">
        <ele>1170.54</ele>
        <time>2019-04-02T13:36:36Z</time>
      </trkpt>
      <trkpt lat="60.40194" lon="7.6122">
        <ele>1170.54</ele>
        <time>2019-04-02T13:36:39Z</time>
      </trkpt>
      <trkpt lat="60.40177" lon="7.61219">
        <ele>1168.62</ele>
        <time>2019-04-02T13:36:44Z</time>
      </trkpt>
      <trkpt lat="60.40175" lon="7.61218">
        <ele>1168.62</ele>
        <time>2019-04-02T13:36:45Z</time>
      </trkpt>
      <trkpt lat="60.40174" lon="7.61209">
        <ele>1168.14</ele>
        <time>2019-04-02T13:36:57Z</time>
      </trkpt>
      <trkpt lat="60.40174" lon="7.61206">
        <ele>1168.14</ele>
        <time>2019-04-02T13:37:22Z</time>
      </trkpt>
      <trkpt lat="60.40175" lon="7.61208">
        <ele>1169.1</ele>
        <time>2019-04-02T13:37:38Z</time>
      </trkpt>
      <trkpt lat="60.40176" lon="7.61208">
        <ele>1169.1</ele>
        <time>2019-04-02T13:37:48Z</time>
      </trkpt>
      <trkpt lat="60.40178" lon="7.61211">
        <ele>1170.06</ele>
        <time>2019-04-02T13:38:02Z</time>
      </trkpt>
      <trkpt lat="60.40179" lon="7.61212">
        <ele>1168.62</ele>
        <time>2019-04-02T13:38:10Z</time>
      </trkpt>
      <trkpt lat="60.40178" lon="7.6121">
        <ele>1168.62</ele>
        <time>2019-04-02T13:38:15Z</time>
      </trkpt>
      <trkpt lat="60.40164" lon="7.61199">
        <ele>1168.62</ele>
        <time>2019-04-02T13:38:21Z</time>
      </trkpt>
      <trkpt lat="60.40156" lon="7.61195">
        <ele>1170.54</ele>
        <time>2019-04-02T13:38:23Z</time>
      </trkpt>
      <trkpt lat="60.40108" lon="7.61165">
        <ele>1172.47</ele>
        <time>2019-04-02T13:38:34Z</time>
      </trkpt>
      <trkpt lat="60.401" lon="7.61162">
        <ele>1172.47</ele>
        <time>2019-04-02T13:38:36Z</time>
      </trkpt>
      <trkpt lat="60.4009" lon="7.61151">
        <ele>1170.54</ele>
        <time>2019-04-02T13:38:39Z</time>
      </trkpt>
      <trkpt lat="60.40072" lon="7.6114">
        <ele>1172.95</ele>
        <time>2019-04-02T13:38:43Z</time>
      </trkpt>
      <trkpt lat="60.40055" lon="7.61123">
        <ele>1172.95</ele>
        <time>2019-04-02T13:38:47Z</time>
      </trkpt>
      <trkpt lat="60.40026" lon="7.61099">
        <ele>1172.95</ele>
        <time>2019-04-02T13:38:53Z</time>
      </trkpt>
      <trkpt lat="60.40017" lon="7.6109">
        <ele>1172.95</ele>
        <time>2019-04-02T13:38:55Z</time>
      </trkpt>
      <trkpt lat="60.4" lon="7.61077">
        <ele>1172.95</ele>
        <time>2019-04-02T13:38:59Z</time>
      </trkpt>
      <trkpt lat="60.39988" lon="7.61064">
        <ele>1173.91</ele>
        <time>2019-04-02T13:39:02Z</time>
      </trkpt>
      <trkpt lat="60.3996" lon="7.61041">
        <ele>1171.98</ele>
        <time>2019-04-02T13:39:08Z</time>
      </trkpt>
      <trkpt lat="60.39929" lon="7.61003">
        <ele>1173.43</ele>
        <time>2019-04-02T13:39:15Z</time>
      </trkpt>
      <trkpt lat="60.39903" lon="7.60962">
        <ele>1173.91</ele>
        <time>2019-04-02T13:39:23Z</time>
      </trkpt>
      <trkpt lat="60.3989" lon="7.60939">
        <ele>1174.39</ele>
        <time>2019-04-02T13:39:27Z</time>
      </trkpt>
      <trkpt lat="60.39877" lon="7.60914">
        <ele>1175.83</ele>
        <time>2019-04-02T13:39:31Z</time>
      </trkpt>
      <trkpt lat="60.39853" lon="7.60846">
        <ele>1178.71</ele>
        <time>2019-04-02T13:39:40Z</time>
      </trkpt>
      <trkpt lat="60.39846" lon="7.60831">
        <ele>1179.67</ele>
        <time>2019-04-02T13:39:43Z</time>
      </trkpt>
      <trkpt lat="60.39826" lon="7.60811">
        <ele>1180.16</ele>
        <time>2019-04-02T13:39:47Z</time>
      </trkpt>
      <trkpt lat="60.39806" lon="7.60795">
        <ele>1173.91</ele>
        <time>2019-04-02T13:39:50Z</time>
      </trkpt>
      <trkpt lat="60.398" lon="7.60785">
        <ele>1173.91</ele>
        <time>2019-04-02T13:39:51Z</time>
      </trkpt>
      <trkpt lat="60.39789" lon="7.60773">
        <ele>1177.27</ele>
        <time>2019-04-02T13:39:53Z</time>
      </trkpt>
      <trkpt lat="60.39773" lon="7.60766">
        <ele>1177.27</ele>
        <time>2019-04-02T13:39:56Z</time>
      </trkpt>
      <trkpt lat="60.39759" lon="7.60761">
        <ele>1176.79</ele>
        <time>2019-04-02T13:40:00Z</time>
      </trkpt>
      <trkpt lat="60.3976" lon="7.60757">
        <ele>1175.35</ele>
        <time>2019-04-02T13:40:03Z</time>
      </trkpt>
      <trkpt lat="60.3977" lon="7.60792">
        <ele>1176.31</ele>
        <time>2019-04-02T13:40:09Z</time>
      </trkpt>
      <trkpt lat="60.39773" lon="7.60807">
        <ele>1174.87</ele>
        <time>2019-04-02T13:40:11Z</time>
      </trkpt>
      <trkpt lat="60.39789" lon="7.60874">
        <ele>1174.87</ele>
        <time>2019-04-02T13:40:19Z</time>
      </trkpt>
      <trkpt lat="60.39804" lon="7.60926">
        <ele>1174.39</ele>
        <time>2019-04-02T13:40:30Z</time>
      </trkpt>
      <trkpt lat="60.39809" lon="7.60939">
        <ele>1174.39</ele>
        <time>2019-04-02T13:40:37Z</time>
      </trkpt>
      <trkpt lat="60.3981" lon="7.6094">
        <ele>1174.39</ele>
        <time>2019-04-02T13:40:39Z</time>
      </trkpt>
      <trkpt lat="60.39816" lon="7.60951">
        <ele>1174.39</ele>
        <time>2019-04-02T13:40:43Z</time>
      </trkpt>
      <trkpt lat="60.3982" lon="7.60964">
        <ele>1174.39</ele>
        <time>2019-04-02T13:40:45Z</time>
      </trkpt>
      <trkpt lat="60.39823" lon="7.60979">
        <ele>1176.31</ele>
        <time>2019-04-02T13:40:47Z</time>
      </trkpt>
      <trkpt lat="60.39828" lon="7.61004">
        <ele>1176.31</ele>
        <time>2019-04-02T13:40:51Z</time>
      </trkpt>
      <trkpt lat="60.39832" lon="7.61019">
        <ele>1174.87</ele>
        <time>2019-04-02T13:40:54Z</time>
      </trkpt>
      <trkpt lat="60.3985" lon="7.61077">
        <ele>1174.39</ele>
        <time>2019-04-02T13:41:04Z</time>
      </trkpt>
      <trkpt lat="60.39869" lon="7.61132">
        <ele>1172.95</ele>
        <time>2019-04-02T13:41:16Z</time>
      </trkpt>
      <trkpt lat="60.39886" lon="7.61173">
        <ele>1172.95</ele>
        <time>2019-04-02T13:41:26Z</time>
      </trkpt>
      <trkpt lat="60.39887" lon="7.61173">
        <ele>1173.91</ele>
        <time>2019-04-02T13:41:39Z</time>
      </trkpt>
      <trkpt lat="60.39886" lon="7.61175">
        <ele>1173.91</ele>
        <time>2019-04-02T13:41:57Z</time>
      </trkpt>
      <trkpt lat="60.39896" lon="7.61157">
        <ele>1172.95</ele>
        <time>2019-04-02T13:42:02Z</time>
      </trkpt>
      <trkpt lat="60.39902" lon="7.61128">
        <ele>1172.47</ele>
        <time>2019-04-02T13:42:07Z</time>
      </trkpt>
      <trkpt lat="60.39902" lon="7.61105">
        <ele>1172.47</ele>
        <time>2019-04-02T13:42:10Z</time>
      </trkpt>
      <trkpt lat="60.39905" lon="7.61095">
        <ele>1171.98</ele>
        <time>2019-04-02T13:42:15Z</time>
      </trkpt>
      <trkpt lat="60.39908" lon="7.61089">
        <ele>1171.98</ele>
        <time>2019-04-02T13:42:19Z</time>
      </trkpt>
      <trkpt lat="60.39933" lon="7.61115">
        <ele>1171.98</ele>
        <time>2019-04-02T13:42:30Z</time>
      </trkpt>
      <trkpt lat="60.39955" lon="7.61148">
        <ele>1172.95</ele>
        <time>2019-04-02T13:42:41Z</time>
      </trkpt>
      <trkpt lat="60.3997" lon="7.61169">
        <ele>1172.95</ele>
        <time>2019-04-02T13:42:48Z</time>
      </trkpt>
      <trkpt lat="60.39981" lon="7.61173">
        <ele>1172.95</ele>
        <time>2019-04-02T13:42:53Z</time>
      </trkpt>
      <trkpt lat="60.40001" lon="7.61192">
        <ele>1172.95</ele>
        <time>2019-04-02T13:43:06Z</time>
      </trkpt>
      <trkpt lat="60.40013" lon="7.61207">
        <ele>1171.98</ele>
        <time>2019-04-02T13:43:10Z</time>
      </trkpt>
      <trkpt lat="60.40022" lon="7.61219">
        <ele>1171.98</ele>
        <time>2019-04-02T13:43:13Z</time>
      </trkpt>
      <trkpt lat="60.40035" lon="7.61244">
        <ele>1171.98</ele>
        <time>2019-04-02T13:43:17Z</time>
      </trkpt>
      <trkpt lat="60.40057" lon="7.61275">
        <ele>1171.98</ele>
        <time>2019-04-02T13:43:23Z</time>
      </trkpt>
      <trkpt lat="60.40078" lon="7.61301">
        <ele>1171.02</ele>
        <time>2019-04-02T13:43:29Z</time>
      </trkpt>
      <trkpt lat="60.40108" lon="7.61324">
        <ele>1171.02</ele>
        <time>2019-04-02T13:43:36Z</time>
      </trkpt>
      <trkpt lat="60.4013" lon="7.61354">
        <ele>1172.47</ele>
        <time>2019-04-02T13:43:40Z</time>
      </trkpt>
      <trkpt lat="60.4015" lon="7.61404">
        <ele>1172.47</ele>
        <time>2019-04-02T13:43:45Z</time>
      </trkpt>
      <trkpt lat="60.40158" lon="7.61421">
        <ele>1171.02</ele>
        <time>2019-04-02T13:43:47Z</time>
      </trkpt>
      <trkpt lat="60.40161" lon="7.6143">
        <ele>1171.02</ele>
        <time>2019-04-02T13:43:48Z</time>
      </trkpt>
      <trkpt lat="60.40175" lon="7.61464">
        <ele>1170.06</ele>
        <time>2019-04-02T13:43:52Z</time>
      </trkpt>
      <trkpt lat="60.40187" lon="7.61501">
        <ele>1170.06</ele>
        <time>2019-04-02T13:43:56Z</time>
      </trkpt>
      <trkpt lat="60.40193" lon="7.61515">
        <ele>1169.58</ele>
        <time>2019-04-02T13:43:58Z</time>
      </trkpt>
      <trkpt lat="60.40208" lon="7.61548">
        <ele>1169.1</ele>
        <time>2019-04-02T13:44:03Z</time>
      </trkpt>
      <trkpt lat="60.40224" lon="7.61574">
        <ele>1169.1</ele>
        <time>2019-04-02T13:44:07Z</time>
      </trkpt>
      <trkpt lat="60.40241" lon="7.61613">
        <ele>1169.1</ele>
        <time>2019-04-02T13:44:13Z</time>
      </trkpt>
      <trkpt lat="60.40275" lon="7.61668">
        <ele>1169.1</ele>
        <time>2019-04-02T13:44:24Z</time>
      </trkpt>
      <trkpt lat="60.40282" lon="7.61674">
        <ele>1169.1</ele>
        <time>2019-04-02T13:44:26Z</time>
      </trkpt>
      <trkpt lat="60.40326" lon="7.61694">
        <ele>1171.5</ele>
        <time>2019-04-02T13:44:34Z</time>
      </trkpt>
      <trkpt lat="60.40346" lon="7.6173">
        <ele>1171.5</ele>
        <time>2019-04-02T13:44:39Z</time>
      </trkpt>
      <trkpt lat="60.40364" lon="7.61756">
        <ele>1171.5</ele>
        <time>2019-04-02T13:44:44Z</time>
      </trkpt>
      <trkpt lat="60.40388" lon="7.61807">
        <ele>1171.98</ele>
        <time>2019-04-02T13:44:51Z</time>
      </trkpt>
      <trkpt lat="60.40419" lon="7.6186">
        <ele>1173.91</ele>
        <time>2019-04-02T13:45:01Z</time>
      </trkpt>
      <trkpt lat="60.40426" lon="7.61872">
        <ele>1173.91</ele>
        <time>2019-04-02T13:45:07Z</time>
      </trkpt>
      <trkpt lat="60.4045" lon="7.61883">
        <ele>1177.75</ele>
        <time>2019-04-02T13:45:14Z</time>
      </trkpt>
      <trkpt lat="60.4047" lon="7.61897">
        <ele>1180.16</ele>
        <time>2019-04-02T13:45:19Z</time>
      </trkpt>
      <trkpt lat="60.40474" lon="7.61901">
        <ele>1180.64</ele>
        <time>2019-04-02T13:45:20Z</time>
      </trkpt>
      <trkpt lat="60.40481" lon="7.61909">
        <ele>1181.6</ele>
        <time>2019-04-02T13:45:22Z</time>
      </trkpt>
      <trkpt lat="60.40497" lon="7.61912">
        <ele>1184.48</ele>
        <time>2019-04-02T13:45:27Z</time>
      </trkpt>
      <trkpt lat="60.40499" lon="7.61913">
        <ele>1184.48</ele>
        <time>2019-04-02T13:45:28Z</time>
      </trkpt>
      <trkpt lat="60.4052" lon="7.61909">
        <ele>1188.33</ele>
        <time>2019-04-02T13:45:37Z</time>
      </trkpt>
      <trkpt lat="60.40526" lon="7.61905">
        <ele>1189.77</ele>
        <time>2019-04-02T13:45:39Z</time>
      </trkpt>
      <trkpt lat="60.40539" lon="7.61901">
        <ele>1193.61</ele>
        <time>2019-04-02T13:45:44Z</time>
      </trkpt>
      <trkpt lat="60.40541" lon="7.61899">
        <ele>1194.09</ele>
        <time>2019-04-02T13:45:45Z</time>
      </trkpt>
      <trkpt lat="60.40547" lon="7.61894">
        <ele>1195.54</ele>
        <time>2019-04-02T13:45:48Z</time>
      </trkpt>
      <trkpt lat="60.40558" lon="7.61884">
        <ele>1198.9</ele>
        <time>2019-04-02T13:45:54Z</time>
      </trkpt>
      <trkpt lat="60.40564" lon="7.61872">
        <ele>1200.82</ele>
        <time>2019-04-02T13:45:59Z</time>
      </trkpt>
      <trkpt lat="60.40569" lon="7.61861">
        <ele>1202.75</ele>
        <time>2019-04-02T13:46:03Z</time>
      </trkpt>
      <trkpt lat="60.40576" lon="7.61842">
        <ele>1204.19</ele>
        <time>2019-04-02T13:46:07Z</time>
      </trkpt>
      <trkpt lat="60.40589" lon="7.61828">
        <ele>1209</ele>
        <time>2019-04-02T13:46:12Z</time>
      </trkpt>
      <trkpt lat="60.406" lon="7.61822">
        <ele>1215.24</ele>
        <time>2019-04-02T13:46:15Z</time>
      </trkpt>
      <trkpt lat="60.4061" lon="7.61821">
        <ele>1219.09</ele>
        <time>2019-04-02T13:46:18Z</time>
      </trkpt>
      <trkpt lat="60.40619" lon="7.61818">
        <ele>1223.42</ele>
        <time>2019-04-02T13:46:22Z</time>
      </trkpt>
      <trkpt lat="60.40631" lon="7.61809">
        <ele>1227.74</ele>
        <time>2019-04-02T13:46:26Z</time>
      </trkpt>
      <trkpt lat="60.40633" lon="7.61807">
        <ele>1227.74</ele>
        <time>2019-04-02T13:46:27Z</time>
      </trkpt>
      <trkpt lat="60.4064" lon="7.618">
        <ele>1231.11</ele>
        <time>2019-04-02T13:46:29Z</time>
      </trkpt>
      <trkpt lat="60.40645" lon="7.61794">
        <ele>1233.03</ele>
        <time>2019-04-02T13:46:31Z</time>
      </trkpt>
      <trkpt lat="60.40649" lon="7.6179">
        <ele>1234.47</ele>
        <time>2019-04-02T13:46:32Z</time>
      </trkpt>
      <trkpt lat="60.40658" lon="7.61781">
        <ele>1236.39</ele>
        <time>2019-04-02T13:46:35Z</time>
      </trkpt>
      <trkpt lat="60.40668" lon="7.61775">
        <ele>1239.76</ele>
        <time>2019-04-02T13:46:38Z</time>
      </trkpt>
      <trkpt lat="60.40677" lon="7.61773">
        <ele>1243.12</ele>
        <time>2019-04-02T13:46:41Z</time>
      </trkpt>
      <trkpt lat="60.40678" lon="7.61772">
        <ele>1243.12</ele>
        <time>2019-04-02T13:46:42Z</time>
      </trkpt>
      <trkpt lat="60.40683" lon="7.61768">
        <ele>1243.6</ele>
        <time>2019-04-02T13:46:44Z</time>
      </trkpt>
      <trkpt lat="60.40709" lon="7.61768">
        <ele>1247.45</ele>
        <time>2019-04-02T13:46:51Z</time>
      </trkpt>
      <trkpt lat="60.40719" lon="7.61787">
        <ele>1249.85</ele>
        <time>2019-04-02T13:46:54Z</time>
      </trkpt>
      <trkpt lat="60.40732" lon="7.61828">
        <ele>1253.22</ele>
        <time>2019-04-02T13:46:59Z</time>
      </trkpt>
      <trkpt lat="60.40737" lon="7.61847">
        <ele>1254.66</ele>
        <time>2019-04-02T13:47:01Z</time>
      </trkpt>
      <trkpt lat="60.40744" lon="7.61899">
        <ele>1255.62</ele>
        <time>2019-04-02T13:47:06Z</time>
      </trkpt>
      <trkpt lat="60.40748" lon="7.61933">
        <ele>1255.62</ele>
        <time>2019-04-02T13:47:09Z</time>
      </trkpt>
      <trkpt lat="60.40754" lon="7.61994">
        <ele>1254.18</ele>
        <time>2019-04-02T13:47:16Z</time>
      </trkpt>
      <trkpt lat="60.4076" lon="7.62003">
        <ele>1252.25</ele>
        <time>2019-04-02T13:47:19Z</time>
      </trkpt>
      <trkpt lat="60.40753" lon="7.62004">
        <ele>1250.33</ele>
        <time>2019-04-02T13:47:24Z</time>
      </trkpt>
      <trkpt lat="60.4075" lon="7.62008">
        <ele>1248.89</ele>
        <time>2019-04-02T13:47:25Z</time>
      </trkpt>
      <trkpt lat="60.40737" lon="7.62026">
        <ele>1245.53</ele>
        <time>2019-04-02T13:47:29Z</time>
      </trkpt>
      <trkpt lat="60.40723" lon="7.62048">
        <ele>1243.12</ele>
        <time>2019-04-02T13:47:34Z</time>
      </trkpt>
      <trkpt lat="60.40716" lon="7.62051">
        <ele>1244.56</ele>
        <time>2019-04-02T13:47:36Z</time>
      </trkpt>
      <trkpt lat="60.40713" lon="7.62051">
        <ele>1244.56</ele>
        <time>2019-04-02T13:47:37Z</time>
      </trkpt>
      <trkpt lat="60.40702" lon="7.62061">
        <ele>1240.24</ele>
        <time>2019-04-02T13:47:40Z</time>
      </trkpt>
      <trkpt lat="60.40694" lon="7.62072">
        <ele>1237.83</ele>
        <time>2019-04-02T13:47:42Z</time>
      </trkpt>
      <trkpt lat="60.40684" lon="7.62091">
        <ele>1234.95</ele>
        <time>2019-04-02T13:47:45Z</time>
      </trkpt>
      <trkpt lat="60.40675" lon="7.62111">
        <ele>1230.62</ele>
        <time>2019-04-02T13:47:49Z</time>
      </trkpt>
      <trkpt lat="60.40668" lon="7.62125">
        <ele>1229.66</ele>
        <time>2019-04-02T13:47:52Z</time>
      </trkpt>
      <trkpt lat="60.4067" lon="7.62123">
        <ele>1231.11</ele>
        <time>2019-04-02T13:47:57Z</time>
      </trkpt>
      <trkpt lat="60.4068" lon="7.62122">
        <ele>1232.55</ele>
        <time>2019-04-02T13:48:01Z</time>
      </trkpt>
      <trkpt lat="60.40695" lon="7.62155">
        <ele>1235.91</ele>
        <time>2019-04-02T13:48:09Z</time>
      </trkpt>
      <trkpt lat="60.40707" lon="7.62163">
        <ele>1236.87</ele>
        <time>2019-04-02T13:48:14Z</time>
      </trkpt>
      <trkpt lat="60.40721" lon="7.6216">
        <ele>1238.8</ele>
        <time>2019-04-02T13:48:18Z</time>
      </trkpt>
      <trkpt lat="60.40728" lon="7.62162">
        <ele>1240.24</ele>
        <time>2019-04-02T13:48:20Z</time>
      </trkpt>
      <trkpt lat="60.40743" lon="7.62176">
        <ele>1244.56</ele>
        <time>2019-04-02T13:48:24Z</time>
      </trkpt>
      <trkpt lat="60.40751" lon="7.62193">
        <ele>1245.04</ele>
        <time>2019-04-02T13:48:27Z</time>
      </trkpt>
      <trkpt lat="60.40756" lon="7.62206">
        <ele>1246.49</ele>
        <time>2019-04-02T13:48:29Z</time>
      </trkpt>
      <trkpt lat="60.4077" lon="7.62276">
        <ele>1247.93</ele>
        <time>2019-04-02T13:48:39Z</time>
      </trkpt>
      <trkpt lat="60.4077" lon="7.62274">
        <ele>1246.49</ele>
        <time>2019-04-02T13:48:40Z</time>
      </trkpt>
      <trkpt lat="60.4076" lon="7.62277">
        <ele>1244.08</ele>
        <time>2019-04-02T13:48:44Z</time>
      </trkpt>
      <trkpt lat="60.40757" lon="7.62281">
        <ele>1242.16</ele>
        <time>2019-04-02T13:48:45Z</time>
      </trkpt>
      <trkpt lat="60.40741" lon="7.62311">
        <ele>1237.83</ele>
        <time>2019-04-02T13:48:50Z</time>
      </trkpt>
      <trkpt lat="60.40735" lon="7.62322">
        <ele>1236.87</ele>
        <time>2019-04-02T13:48:52Z</time>
      </trkpt>
      <trkpt lat="60.40724" lon="7.62341">
        <ele>1235.43</ele>
        <time>2019-04-02T13:48:56Z</time>
      </trkpt>
      <trkpt lat="60.40717" lon="7.62344">
        <ele>1233.99</ele>
        <time>2019-04-02T13:48:58Z</time>
      </trkpt>
      <trkpt lat="60.40725" lon="7.62348">
        <ele>1235.91</ele>
        <time>2019-04-02T13:49:03Z</time>
      </trkpt>
      <trkpt lat="60.40738" lon="7.62373">
        <ele>1239.28</ele>
        <time>2019-04-02T13:49:08Z</time>
      </trkpt>
      <trkpt lat="60.40741" lon="7.62379">
        <ele>1239.28</ele>
        <time>2019-04-02T13:49:09Z</time>
      </trkpt>
      <trkpt lat="60.40787" lon="7.62477">
        <ele>1243.12</ele>
        <time>2019-04-02T13:49:23Z</time>
      </trkpt>
      <trkpt lat="60.40791" lon="7.62496">
        <ele>1241.68</ele>
        <time>2019-04-02T13:49:26Z</time>
      </trkpt>
      <trkpt lat="60.40806" lon="7.62532">
        <ele>1241.2</ele>
        <time>2019-04-02T13:49:37Z</time>
      </trkpt>
      <trkpt lat="60.40805" lon="7.62531">
        <ele>1241.2</ele>
        <time>2019-04-02T13:49:54Z</time>
      </trkpt>
      <trkpt lat="60.40805" lon="7.62531">
        <ele>1242.16</ele>
        <time>2019-04-02T13:50:21Z</time>
      </trkpt>
      <trkpt lat="60.40805" lon="7.6253">
        <ele>1242.16</ele>
        <time>2019-04-02T13:50:43Z</time>
      </trkpt>
      <trkpt lat="60.40806" lon="7.62529">
        <ele>1241.2</ele>
        <time>2019-04-02T13:51:01Z</time>
      </trkpt>
      <trkpt lat="60.40815" lon="7.62529">
        <ele>1242.64</ele>
        <time>2019-04-02T13:51:05Z</time>
      </trkpt>
      <trkpt lat="60.40843" lon="7.62593">
        <ele>1245.53</ele>
        <time>2019-04-02T13:51:16Z</time>
      </trkpt>
      <trkpt lat="60.40865" lon="7.62662">
        <ele>1243.6</ele>
        <time>2019-04-02T13:51:22Z</time>
      </trkpt>
      <trkpt lat="60.40894" lon="7.62771">
        <ele>1239.76</ele>
        <time>2019-04-02T13:51:29Z</time>
      </trkpt>
      <trkpt lat="60.40903" lon="7.62804">
        <ele>1236.87</ele>
        <time>2019-04-02T13:51:31Z</time>
      </trkpt>
      <trkpt lat="60.40915" lon="7.62845">
        <ele>1232.07</ele>
        <time>2019-04-02T13:51:34Z</time>
      </trkpt>
      <trkpt lat="60.40928" lon="7.62881">
        <ele>1229.66</ele>
        <time>2019-04-02T13:51:37Z</time>
      </trkpt>
      <trkpt lat="60.4098" lon="7.63053">
        <ele>1225.82</ele>
        <time>2019-04-02T13:51:49Z</time>
      </trkpt>
      <trkpt lat="60.41021" lon="7.63197">
        <ele>1222.45</ele>
        <time>2019-04-02T13:51:59Z</time>
      </trkpt>
      <trkpt lat="60.41037" lon="7.63274">
        <ele>1218.61</ele>
        <time>2019-04-02T13:52:04Z</time>
      </trkpt>
      <trkpt lat="60.41041" lon="7.63287">
        <ele>1218.61</ele>
        <time>2019-04-02T13:52:05Z</time>
      </trkpt>
      <trkpt lat="60.41066" lon="7.63397">
        <ele>1215.24</ele>
        <time>2019-04-02T13:52:12Z</time>
      </trkpt>
      <trkpt lat="60.41084" lon="7.63474">
        <ele>1211.4</ele>
        <time>2019-04-02T13:52:17Z</time>
      </trkpt>
      <trkpt lat="60.41103" lon="7.63546">
        <ele>1208.03</ele>
        <time>2019-04-02T13:52:22Z</time>
      </trkpt>
      <trkpt lat="60.41113" lon="7.63586">
        <ele>1205.15</ele>
        <time>2019-04-02T13:52:25Z</time>
      </trkpt>
      <trkpt lat="60.41121" lon="7.63612">
        <ele>1204.19</ele>
        <time>2019-04-02T13:52:27Z</time>
      </trkpt>
      <trkpt lat="60.41146" lon="7.63714">
        <ele>1201.79</ele>
        <time>2019-04-02T13:52:34Z</time>
      </trkpt>
      <trkpt lat="60.41154" lon="7.63743">
        <ele>1199.86</ele>
        <time>2019-04-02T13:52:36Z</time>
      </trkpt>
      <trkpt lat="60.41175" lon="7.63819">
        <ele>1198.42</ele>
        <time>2019-04-02T13:52:41Z</time>
      </trkpt>
      <trkpt lat="60.41194" lon="7.63899">
        <ele>1195.06</ele>
        <time>2019-04-02T13:52:46Z</time>
      </trkpt>
      <trkpt lat="60.41197" lon="7.63916">
        <ele>1195.06</ele>
        <time>2019-04-02T13:52:47Z</time>
      </trkpt>
      <trkpt lat="60.41207" lon="7.63961">
        <ele>1193.61</ele>
        <time>2019-04-02T13:52:50Z</time>
      </trkpt>
      <trkpt lat="60.41235" lon="7.64093">
        <ele>1189.77</ele>
        <time>2019-04-02T13:52:59Z</time>
      </trkpt>
      <trkpt lat="60.41237" lon="7.64107">
        <ele>1189.29</ele>
        <time>2019-04-02T13:53:00Z</time>
      </trkpt>
      <trkpt lat="60.41245" lon="7.64144">
        <ele>1187.85</ele>
        <time>2019-04-02T13:53:03Z</time>
      </trkpt>
      <trkpt lat="60.4125" lon="7.64167">
        <ele>1187.37</ele>
        <time>2019-04-02T13:53:05Z</time>
      </trkpt>
      <trkpt lat="60.41265" lon="7.64235">
        <ele>1186.4</ele>
        <time>2019-04-02T13:53:11Z</time>
      </trkpt>
      <trkpt lat="60.41271" lon="7.64255">
        <ele>1185.44</ele>
        <time>2019-04-02T13:53:13Z</time>
      </trkpt>
      <trkpt lat="60.41288" lon="7.64315">
        <ele>1184</ele>
        <time>2019-04-02T13:53:19Z</time>
      </trkpt>
      <trkpt lat="60.41301" lon="7.64341">
        <ele>1184</ele>
        <time>2019-04-02T13:53:23Z</time>
      </trkpt>
      <trkpt lat="60.41311" lon="7.6436">
        <ele>1184</ele>
        <time>2019-04-02T13:53:26Z</time>
      </trkpt>
      <trkpt lat="60.41341" lon="7.64415">
        <ele>1183.52</ele>
        <time>2019-04-02T13:53:36Z</time>
      </trkpt>
      <trkpt lat="60.41363" lon="7.64455">
        <ele>1182.56</ele>
        <time>2019-04-02T13:53:43Z</time>
      </trkpt>
      <trkpt lat="60.41371" lon="7.64469">
        <ele>1182.56</ele>
        <time>2019-04-02T13:53:45Z</time>
      </trkpt>
      <trkpt lat="60.4139" lon="7.64514">
        <ele>1182.08</ele>
        <time>2019-04-02T13:53:50Z</time>
      </trkpt>
      <trkpt lat="60.41401" lon="7.64553">
        <ele>1182.08</ele>
        <time>2019-04-02T13:53:54Z</time>
      </trkpt>
      <trkpt lat="60.41412" lon="7.6458">
        <ele>1181.6</ele>
        <time>2019-04-02T13:53:58Z</time>
      </trkpt>
      <trkpt lat="60.41418" lon="7.64594">
        <ele>1181.6</ele>
        <time>2019-04-02T13:54:00Z</time>
      </trkpt>
      <trkpt lat="60.41436" lon="7.6462">
        <ele>1180.64</ele>
        <time>2019-04-02T13:54:04Z</time>
      </trkpt>
      <trkpt lat="60.41457" lon="7.64668">
        <ele>1180.64</ele>
        <time>2019-04-02T13:54:09Z</time>
      </trkpt>
      <trkpt lat="60.41491" lon="7.64758">
        <ele>1176.31</ele>
        <time>2019-04-02T13:54:17Z</time>
      </trkpt>
      <trkpt lat="60.4151" lon="7.64814">
        <ele>1173.43</ele>
        <time>2019-04-02T13:54:21Z</time>
      </trkpt>
      <trkpt lat="60.41519" lon="7.6484">
        <ele>1172.47</ele>
        <time>2019-04-02T13:54:23Z</time>
      </trkpt>
      <trkpt lat="60.41524" lon="7.64853">
        <ele>1171.98</ele>
        <time>2019-04-02T13:54:24Z</time>
      </trkpt>
      <trkpt lat="60.41532" lon="7.64879">
        <ele>1171.02</ele>
        <time>2019-04-02T13:54:26Z</time>
      </trkpt>
      <trkpt lat="60.41568" lon="7.65034">
        <ele>1168.62</ele>
        <time>2019-04-02T13:54:37Z</time>
      </trkpt>
      <trkpt lat="60.41576" lon="7.65075">
        <ele>1166.7</ele>
        <time>2019-04-02T13:54:40Z</time>
      </trkpt>
      <trkpt lat="60.41582" lon="7.65105">
        <ele>1165.74</ele>
        <time>2019-04-02T13:54:42Z</time>
      </trkpt>
      <trkpt lat="60.41596" lon="7.65161">
        <ele>1163.33</ele>
        <time>2019-04-02T13:54:46Z</time>
      </trkpt>
      <trkpt lat="60.41614" lon="7.65258">
        <ele>1160.93</ele>
        <time>2019-04-02T13:54:53Z</time>
      </trkpt>
      <trkpt lat="60.4162" lon="7.65284">
        <ele>1160.93</ele>
        <time>2019-04-02T13:54:55Z</time>
      </trkpt>
      <trkpt lat="60.41644" lon="7.65372">
        <ele>1161.89</ele>
        <time>2019-04-02T13:55:02Z</time>
      </trkpt>
      <trkpt lat="60.41656" lon="7.65423">
        <ele>1161.89</ele>
        <time>2019-04-02T13:55:06Z</time>
      </trkpt>
      <trkpt lat="60.41662" lon="7.65447">
        <ele>1160.45</ele>
        <time>2019-04-02T13:55:08Z</time>
      </trkpt>
      <trkpt lat="60.41669" lon="7.65477">
        <ele>1159.97</ele>
        <time>2019-04-02T13:55:11Z</time>
      </trkpt>
      <trkpt lat="60.41707" lon="7.65615">
        <ele>1159.97</ele>
        <time>2019-04-02T13:55:23Z</time>
      </trkpt>
      <trkpt lat="60.41744" lon="7.65739">
        <ele>1159.49</ele>
        <time>2019-04-02T13:55:33Z</time>
      </trkpt>
      <trkpt lat="60.41757" lon="7.65765">
        <ele>1158.05</ele>
        <time>2019-04-02T13:55:36Z</time>
      </trkpt>
      <trkpt lat="60.41771" lon="7.65785">
        <ele>1158.05</ele>
        <time>2019-04-02T13:55:39Z</time>
      </trkpt>
      <trkpt lat="60.41792" lon="7.65835">
        <ele>1162.85</ele>
        <time>2019-04-02T13:55:44Z</time>
      </trkpt>
      <trkpt lat="60.41806" lon="7.65862">
        <ele>1162.85</ele>
        <time>2019-04-02T13:55:47Z</time>
      </trkpt>
      <trkpt lat="60.41817" lon="7.65882">
        <ele>1164.29</ele>
        <time>2019-04-02T13:55:49Z</time>
      </trkpt>
      <trkpt lat="60.41838" lon="7.65918">
        <ele>1169.58</ele>
        <time>2019-04-02T13:55:53Z</time>
      </trkpt>
      <trkpt lat="60.41841" lon="7.65924">
        <ele>1170.54</ele>
        <time>2019-04-02T13:55:54Z</time>
      </trkpt>
      <trkpt lat="60.41855" lon="7.65938">
        <ele>1174.39</ele>
        <time>2019-04-02T13:55:58Z</time>
      </trkpt>
      <trkpt lat="60.41864" lon="7.6595">
        <ele>1178.23</ele>
        <time>2019-04-02T13:56:01Z</time>
      </trkpt>
      <trkpt lat="60.41877" lon="7.65964">
        <ele>1180.64</ele>
        <time>2019-04-02T13:56:04Z</time>
      </trkpt>
      <trkpt lat="60.41903" lon="7.66005">
        <ele>1184.48</ele>
        <time>2019-04-02T13:56:09Z</time>
      </trkpt>
      <trkpt lat="60.4191" lon="7.66014">
        <ele>1184.48</ele>
        <time>2019-04-02T13:56:10Z</time>
      </trkpt>
      <trkpt lat="60.41976" lon="7.66108">
        <ele>1188.33</ele>
        <time>2019-04-02T13:56:20Z</time>
      </trkpt>
      <trkpt lat="60.41979" lon="7.66113">
        <ele>1189.29</ele>
        <time>2019-04-02T13:56:21Z</time>
      </trkpt>
      <trkpt lat="60.41988" lon="7.66118">
        <ele>1192.65</ele>
        <time>2019-04-02T13:56:24Z</time>
      </trkpt>
      <trkpt lat="60.4199" lon="7.66119">
        <ele>1194.09</ele>
        <time>2019-04-02T13:56:25Z</time>
      </trkpt>
      <trkpt lat="60.41993" lon="7.6612">
        <ele>1196.02</ele>
        <time>2019-04-02T13:56:27Z</time>
      </trkpt>
      <trkpt lat="60.42003" lon="7.66123">
        <ele>1200.34</ele>
        <time>2019-04-02T13:56:31Z</time>
      </trkpt>
      <trkpt lat="60.42013" lon="7.66131">
        <ele>1203.71</ele>
        <time>2019-04-02T13:56:35Z</time>
      </trkpt>
      <trkpt lat="60.42016" lon="7.66134">
        <ele>1204.19</ele>
        <time>2019-04-02T13:56:36Z</time>
      </trkpt>
      <trkpt lat="60.4203" lon="7.66149">
        <ele>1207.55</ele>
        <time>2019-04-02T13:56:44Z</time>
      </trkpt>
      <trkpt lat="60.42035" lon="7.66152">
        <ele>1209</ele>
        <time>2019-04-02T13:56:47Z</time>
      </trkpt>
      <trkpt lat="60.42048" lon="7.66166">
        <ele>1212.36</ele>
        <time>2019-04-02T13:56:51Z</time>
      </trkpt>
      <trkpt lat="60.42064" lon="7.66192">
        <ele>1216.21</ele>
        <time>2019-04-02T13:56:55Z</time>
      </trkpt>
      <trkpt lat="60.42073" lon="7.66211">
        <ele>1219.09</ele>
        <time>2019-04-02T13:56:58Z</time>
      </trkpt>
      <trkpt lat="60.42083" lon="7.66227">
        <ele>1221.49</ele>
        <time>2019-04-02T13:57:03Z</time>
      </trkpt>
      <trkpt lat="60.42084" lon="7.66229">
        <ele>1221.97</ele>
        <time>2019-04-02T13:57:04Z</time>
      </trkpt>
      <trkpt lat="60.42103" lon="7.6625">
        <ele>1223.9</ele>
        <time>2019-04-02T13:57:10Z</time>
      </trkpt>
      <trkpt lat="60.42123" lon="7.66283">
        <ele>1228.22</ele>
        <time>2019-04-02T13:57:16Z</time>
      </trkpt>
      <trkpt lat="60.42139" lon="7.66309">
        <ele>1232.55</ele>
        <time>2019-04-02T13:57:20Z</time>
      </trkpt>
      <trkpt lat="60.42146" lon="7.66323">
        <ele>1234.95</ele>
        <time>2019-04-02T13:57:22Z</time>
      </trkpt>
      <trkpt lat="60.4216" lon="7.66362">
        <ele>1239.28</ele>
        <time>2019-04-02T13:57:26Z</time>
      </trkpt>
      <trkpt lat="60.42167" lon="7.66384">
        <ele>1239.76</ele>
        <time>2019-04-02T13:57:28Z</time>
      </trkpt>
      <trkpt lat="60.4217" lon="7.66395">
        <ele>1240.72</ele>
        <time>2019-04-02T13:57:29Z</time>
      </trkpt>
      <trkpt lat="60.42184" lon="7.66484">
        <ele>1243.6</ele>
        <time>2019-04-02T13:57:37Z</time>
      </trkpt>
      <trkpt lat="60.42187" lon="7.66505">
        <ele>1244.56</ele>
        <time>2019-04-02T13:57:39Z</time>
      </trkpt>
      <trkpt lat="60.42195" lon="7.66564">
        <ele>1247.93</ele>
        <time>2019-04-02T13:57:44Z</time>
      </trkpt>
      <trkpt lat="60.42197" lon="7.66575">
        <ele>1247.93</ele>
        <time>2019-04-02T13:57:45Z</time>
      </trkpt>
      <trkpt lat="60.42203" lon="7.66624">
        <ele>1250.33</ele>
        <time>2019-04-02T13:57:49Z</time>
      </trkpt>
      <trkpt lat="60.42208" lon="7.66668">
        <ele>1251.77</ele>
        <time>2019-04-02T13:57:53Z</time>
      </trkpt>
      <trkpt lat="60.42211" lon="7.66691">
        <ele>1253.7</ele>
        <time>2019-04-02T13:57:55Z</time>
      </trkpt>
      <trkpt lat="60.42227" lon="7.66773">
        <ele>1255.62</ele>
        <time>2019-04-02T13:58:02Z</time>
      </trkpt>
      <trkpt lat="60.42235" lon="7.66824">
        <ele>1256.1</ele>
        <time>2019-04-02T13:58:06Z</time>
      </trkpt>
      <trkpt lat="60.42238" lon="7.66865">
        <ele>1255.14</ele>
        <time>2019-04-02T13:58:09Z</time>
      </trkpt>
      <trkpt lat="60.42238" lon="7.66892">
        <ele>1256.58</ele>
        <time>2019-04-02T13:58:11Z</time>
      </trkpt>
      <trkpt lat="60.42238" lon="7.66905">
        <ele>1256.58</ele>
        <time>2019-04-02T13:58:12Z</time>
      </trkpt>
      <trkpt lat="60.42244" lon="7.66948">
        <ele>1255.62</ele>
        <time>2019-04-02T13:58:15Z</time>
      </trkpt>
      <trkpt lat="60.42251" lon="7.66989">
        <ele>1253.7</ele>
        <time>2019-04-02T13:58:18Z</time>
      </trkpt>
      <trkpt lat="60.42258" lon="7.6701">
        <ele>1253.22</ele>
        <time>2019-04-02T13:58:20Z</time>
      </trkpt>
      <trkpt lat="60.42285" lon="7.6706">
        <ele>1255.62</ele>
        <time>2019-04-02T13:58:30Z</time>
      </trkpt>
      <trkpt lat="60.42292" lon="7.67048">
        <ele>1257.54</ele>
        <time>2019-04-02T13:58:41Z</time>
      </trkpt>
      <trkpt lat="60.42292" lon="7.67048">
        <ele>1257.54</ele>
        <time>2019-04-02T13:58:42Z</time>
      </trkpt>
      <trkpt lat="60.42288" lon="7.67031">
        <ele>1251.77</ele>
        <time>2019-04-02T13:58:51Z</time>
      </trkpt>
      <trkpt lat="60.42288" lon="7.6703">
        <ele>1251.77</ele>
        <time>2019-04-02T13:58:52Z</time>
      </trkpt>
      <trkpt lat="60.42285" lon="7.67026">
        <ele>1257.06</ele>
        <time>2019-04-02T13:58:55Z</time>
      </trkpt>
      <trkpt lat="60.42285" lon="7.67023">
        <ele>1257.06</ele>
        <time>2019-04-02T13:58:56Z</time>
      </trkpt>
      <trkpt lat="60.42288" lon="7.67014">
        <ele>1258.02</ele>
        <time>2019-04-02T13:59:05Z</time>
      </trkpt>
      <trkpt lat="60.42288" lon="7.67014">
        <ele>1256.1</ele>
        <time>2019-04-02T13:59:07Z</time>
      </trkpt>
      <trkpt lat="60.42288" lon="7.67013">
        <ele>1257.06</ele>
        <time>2019-04-02T13:59:19Z</time>
      </trkpt>
      <trkpt lat="60.42288" lon="7.67013">
        <ele>1255.62</ele>
        <time>2019-04-02T13:59:22Z</time>
      </trkpt>
      <trkpt lat="60.42288" lon="7.67013">
        <ele>1257.54</ele>
        <time>2019-04-02T13:59:24Z</time>
      </trkpt>
      <trkpt lat="60.42288" lon="7.67013">
        <ele>1256.1</ele>
        <time>2019-04-02T13:59:29Z</time>
      </trkpt>
      <trkpt lat="60.42288" lon="7.67013">
        <ele>1255.14</ele>
        <time>2019-04-02T13:59:51Z</time>
      </trkpt>
      <trkpt lat="60.42288" lon="7.67014">
        <ele>1256.58</ele>
        <time>2019-04-02T14:00:06Z</time>
      </trkpt>
      <trkpt lat="60.42288" lon="7.67014">
        <ele>1257.06</ele>
        <time>2019-04-02T14:00:28Z</time>
      </trkpt>
      <trkpt lat="60.42288" lon="7.67008">
        <ele>1256.58</ele>
        <time>2019-04-02T14:00:40Z</time>
      </trkpt>
      <trkpt lat="60.42289" lon="7.6701">
        <ele>1256.58</ele>
        <time>2019-04-02T14:00:43Z</time>
      </trkpt>
      <trkpt lat="60.42301" lon="7.67061">
        <ele>1257.06</ele>
        <time>2019-04-02T14:00:51Z</time>
      </trkpt>
      <trkpt lat="60.42308" lon="7.67111">
        <ele>1256.58</ele>
        <time>2019-04-02T14:00:57Z</time>
      </trkpt>
      <trkpt lat="60.42331" lon="7.67139">
        <ele>1256.58</ele>
        <time>2019-04-02T14:01:08Z</time>
      </trkpt>
      <trkpt lat="60.42364" lon="7.67159">
        <ele>1257.06</ele>
        <time>2019-04-02T14:01:17Z</time>
      </trkpt>
      <trkpt lat="60.42385" lon="7.67166">
        <ele>1258.02</ele>
        <time>2019-04-02T14:01:22Z</time>
      </trkpt>
      <trkpt lat="60.42392" lon="7.6717">
        <ele>1258.02</ele>
        <time>2019-04-02T14:01:24Z</time>
      </trkpt>
      <trkpt lat="60.42396" lon="7.67179">
        <ele>1259.46</ele>
        <time>2019-04-02T14:01:26Z</time>
      </trkpt>
      <trkpt lat="60.42396" lon="7.67187">
        <ele>1258.02</ele>
        <time>2019-04-02T14:01:28Z</time>
      </trkpt>
      <trkpt lat="60.42396" lon="7.67199">
        <ele>1259.46</ele>
        <time>2019-04-02T14:01:30Z</time>
      </trkpt>
      <trkpt lat="60.42395" lon="7.67234">
        <ele>1255.62</ele>
        <time>2019-04-02T14:01:34Z</time>
      </trkpt>
      <trkpt lat="60.42395" lon="7.67243">
        <ele>1255.62</ele>
        <time>2019-04-02T14:01:35Z</time>
      </trkpt>
      <trkpt lat="60.42393" lon="7.67256">
        <ele>1254.66</ele>
        <time>2019-04-02T14:01:37Z</time>
      </trkpt>
      <trkpt lat="60.424" lon="7.67262">
        <ele>1250.81</ele>
        <time>2019-04-02T14:01:40Z</time>
      </trkpt>
      <trkpt lat="60.42421" lon="7.67282">
        <ele>1246.01</ele>
        <time>2019-04-02T14:01:47Z</time>
      </trkpt>
      <trkpt lat="60.42426" lon="7.67314">
        <ele>1244.56</ele>
        <time>2019-04-02T14:01:50Z</time>
      </trkpt>
      <trkpt lat="60.42429" lon="7.67341">
        <ele>1240.24</ele>
        <time>2019-04-02T14:01:54Z</time>
      </trkpt>
      <trkpt lat="60.42433" lon="7.67372">
        <ele>1237.83</ele>
        <time>2019-04-02T14:02:01Z</time>
      </trkpt>
      <trkpt lat="60.42432" lon="7.67391">
        <ele>1237.35</ele>
        <time>2019-04-02T14:02:05Z</time>
      </trkpt>
      <trkpt lat="60.42432" lon="7.67396">
        <ele>1236.39</ele>
        <time>2019-04-02T14:02:06Z</time>
      </trkpt>
      <trkpt lat="60.42441" lon="7.67422">
        <ele>1234.47</ele>
        <time>2019-04-02T14:02:10Z</time>
      </trkpt>
      <trkpt lat="60.42442" lon="7.6743">
        <ele>1234.47</ele>
        <time>2019-04-02T14:02:11Z</time>
      </trkpt>
      <trkpt lat="60.42444" lon="7.6747">
        <ele>1232.55</ele>
        <time>2019-04-02T14:02:15Z</time>
      </trkpt>
      <trkpt lat="60.42446" lon="7.67497">
        <ele>1231.59</ele>
        <time>2019-04-02T14:02:17Z</time>
      </trkpt>
      <trkpt lat="60.42447" lon="7.67536">
        <ele>1227.26</ele>
        <time>2019-04-02T14:02:20Z</time>
      </trkpt>
      <trkpt lat="60.42447" lon="7.67564">
        <ele>1224.86</ele>
        <time>2019-04-02T14:02:22Z</time>
      </trkpt>
      <trkpt lat="60.42447" lon="7.67609">
        <ele>1220.53</ele>
        <time>2019-04-02T14:02:25Z</time>
      </trkpt>
      <trkpt lat="60.42446" lon="7.67622">
        <ele>1215.72</ele>
        <time>2019-04-02T14:02:26Z</time>
      </trkpt>
      <trkpt lat="60.42447" lon="7.6765">
        <ele>1212.36</ele>
        <time>2019-04-02T14:02:28Z</time>
      </trkpt>
      <trkpt lat="60.42445" lon="7.67656">
        <ele>1212.36</ele>
        <time>2019-04-02T14:02:29Z</time>
      </trkpt>
      <trkpt lat="60.42443" lon="7.6766">
        <ele>1211.4</ele>
        <time>2019-04-02T14:02:30Z</time>
      </trkpt>
      <trkpt lat="60.42442" lon="7.67662">
        <ele>1211.4</ele>
        <time>2019-04-02T14:02:32Z</time>
      </trkpt>
      <trkpt lat="60.42444" lon="7.67667">
        <ele>1210.92</ele>
        <time>2019-04-02T14:02:34Z</time>
      </trkpt>
      <trkpt lat="60.42451" lon="7.67677">
        <ele>1209.48</ele>
        <time>2019-04-02T14:02:37Z</time>
      </trkpt>
      <trkpt lat="60.42454" lon="7.67681">
        <ele>1209.48</ele>
        <time>2019-04-02T14:02:38Z</time>
      </trkpt>
      <trkpt lat="60.4246" lon="7.67725">
        <ele>1207.55</ele>
        <time>2019-04-02T14:02:42Z</time>
      </trkpt>
      <trkpt lat="60.42456" lon="7.67754">
        <ele>1206.59</ele>
        <time>2019-04-02T14:02:44Z</time>
      </trkpt>
      <trkpt lat="60.4245" lon="7.678">
        <ele>1200.34</ele>
        <time>2019-04-02T14:02:47Z</time>
      </trkpt>
      <trkpt lat="60.42446" lon="7.67836">
        <ele>1202.27</ele>
        <time>2019-04-02T14:02:50Z</time>
      </trkpt>
      <trkpt lat="60.42452" lon="7.67872">
        <ele>1200.82</ele>
        <time>2019-04-02T14:02:54Z</time>
      </trkpt>
      <trkpt lat="60.42458" lon="7.67878">
        <ele>1200.82</ele>
        <time>2019-04-02T14:02:55Z</time>
      </trkpt>
      <trkpt lat="60.42464" lon="7.67883">
        <ele>1202.27</ele>
        <time>2019-04-02T14:02:56Z</time>
      </trkpt>
      <trkpt lat="60.4247" lon="7.67886">
        <ele>1202.27</ele>
        <time>2019-04-02T14:02:57Z</time>
      </trkpt>
      <trkpt lat="60.42477" lon="7.67889">
        <ele>1204.19</ele>
        <time>2019-04-02T14:02:58Z</time>
      </trkpt>
      <trkpt lat="60.42482" lon="7.67894">
        <ele>1205.63</ele>
        <time>2019-04-02T14:02:59Z</time>
      </trkpt>
      <trkpt lat="60.42487" lon="7.67899">
        <ele>1207.55</ele>
        <time>2019-04-02T14:03:00Z</time>
      </trkpt>
      <trkpt lat="60.42491" lon="7.67906">
        <ele>1208.51</ele>
        <time>2019-04-02T14:03:01Z</time>
      </trkpt>
      <trkpt lat="60.42496" lon="7.67911">
        <ele>1209</ele>
        <time>2019-04-02T14:03:02Z</time>
      </trkpt>
      <trkpt lat="60.42508" lon="7.67921">
        <ele>1210.92</ele>
        <time>2019-04-02T14:03:04Z</time>
      </trkpt>
      <trkpt lat="60.42526" lon="7.67943">
        <ele>1217.17</ele>
        <time>2019-04-02T14:03:07Z</time>
      </trkpt>
      <trkpt lat="60.42531" lon="7.67952">
        <ele>1219.09</ele>
        <time>2019-04-02T14:03:08Z</time>
      </trkpt>
      <trkpt lat="60.42542" lon="7.67982">
        <ele>1225.82</ele>
        <time>2019-04-02T14:03:11Z</time>
      </trkpt>
      <trkpt lat="60.42545" lon="7.67991">
        <ele>1228.22</ele>
        <time>2019-04-02T14:03:12Z</time>
      </trkpt>
      <trkpt lat="60.42557" lon="7.68012">
        <ele>1231.11</ele>
        <time>2019-04-02T14:03:15Z</time>
      </trkpt>
      <trkpt lat="60.42563" lon="7.68023">
        <ele>1230.14</ele>
        <time>2019-04-02T14:03:17Z</time>
      </trkpt>
      <trkpt lat="60.4258" lon="7.6804">
        <ele>1234.95</ele>
        <time>2019-04-02T14:03:20Z</time>
      </trkpt>
      <trkpt lat="60.42585" lon="7.68049">
        <ele>1236.87</ele>
        <time>2019-04-02T14:03:21Z</time>
      </trkpt>
      <trkpt lat="60.42594" lon="7.68066">
        <ele>1239.28</ele>
        <time>2019-04-02T14:03:23Z</time>
      </trkpt>
      <trkpt lat="60.42606" lon="7.68098">
        <ele>1244.08</ele>
        <time>2019-04-02T14:03:27Z</time>
      </trkpt>
      <trkpt lat="60.42612" lon="7.68115">
        <ele>1247.45</ele>
        <time>2019-04-02T14:03:30Z</time>
      </trkpt>
      <trkpt lat="60.42614" lon="7.6812">
        <ele>1247.93</ele>
        <time>2019-04-02T14:03:31Z</time>
      </trkpt>
      <trkpt lat="60.42616" lon="7.68136">
        <ele>1249.37</ele>
        <time>2019-04-02T14:03:36Z</time>
      </trkpt>
      <trkpt lat="60.42616" lon="7.6814">
        <ele>1248.41</ele>
        <time>2019-04-02T14:03:43Z</time>
      </trkpt>
      <trkpt lat="60.42615" lon="7.6814">
        <ele>1248.89</ele>
        <time>2019-04-02T14:03:48Z</time>
      </trkpt>
      <trkpt lat="60.42615" lon="7.68142">
        <ele>1247.93</ele>
        <time>2019-04-02T14:03:51Z</time>
      </trkpt>
      <trkpt lat="60.42615" lon="7.68144">
        <ele>1248.89</ele>
        <time>2019-04-02T14:03:56Z</time>
      </trkpt>
      <trkpt lat="60.42629" lon="7.68163">
        <ele>1246.97</ele>
        <time>2019-04-02T14:04:00Z</time>
      </trkpt>
      <trkpt lat="60.42654" lon="7.68191">
        <ele>1248.89</ele>
        <time>2019-04-02T14:04:04Z</time>
      </trkpt>
      <trkpt lat="60.42675" lon="7.68206">
        <ele>1255.14</ele>
        <time>2019-04-02T14:04:07Z</time>
      </trkpt>
      <trkpt lat="60.42691" lon="7.68223">
        <ele>1259.46</ele>
        <time>2019-04-02T14:04:10Z</time>
      </trkpt>
      <trkpt lat="60.42699" lon="7.68232">
        <ele>1262.35</ele>
        <time>2019-04-02T14:04:12Z</time>
      </trkpt>
      <trkpt lat="60.42709" lon="7.6824">
        <ele>1264.27</ele>
        <time>2019-04-02T14:04:15Z</time>
      </trkpt>
      <trkpt lat="60.42726" lon="7.68256">
        <ele>1267.64</ele>
        <time>2019-04-02T14:04:21Z</time>
      </trkpt>
      <trkpt lat="60.42735" lon="7.68268">
        <ele>1270.04</ele>
        <time>2019-04-02T14:04:32Z</time>
      </trkpt>
      <trkpt lat="60.42737" lon="7.68269">
        <ele>1269.08</ele>
        <time>2019-04-02T14:04:49Z</time>
      </trkpt>
      <trkpt lat="60.42742" lon="7.68282">
        <ele>1270.52</ele>
        <time>2019-04-02T14:04:54Z</time>
      </trkpt>
      <trkpt lat="60.42749" lon="7.68325">
        <ele>1267.64</ele>
        <time>2019-04-02T14:04:59Z</time>
      </trkpt>
      <trkpt lat="60.4276" lon="7.68353">
        <ele>1264.27</ele>
        <time>2019-04-02T14:05:02Z</time>
      </trkpt>
      <trkpt lat="60.42768" lon="7.68404">
        <ele>1261.39</ele>
        <time>2019-04-02T14:05:07Z</time>
      </trkpt>
      <trkpt lat="60.42771" lon="7.68416">
        <ele>1257.54</ele>
        <time>2019-04-02T14:05:08Z</time>
      </trkpt>
      <trkpt lat="60.42785" lon="7.6844">
        <ele>1255.62</ele>
        <time>2019-04-02T14:05:11Z</time>
      </trkpt>
      <trkpt lat="60.42815" lon="7.68475">
        <ele>1251.77</ele>
        <time>2019-04-02T14:05:16Z</time>
      </trkpt>
      <trkpt lat="60.42829" lon="7.68486">
        <ele>1258.02</ele>
        <time>2019-04-02T14:05:20Z</time>
      </trkpt>
      <trkpt lat="60.42836" lon="7.68492">
        <ele>1258.5</ele>
        <time>2019-04-02T14:05:23Z</time>
      </trkpt>
      <trkpt lat="60.4285" lon="7.68498">
        <ele>1258.5</ele>
        <time>2019-04-02T14:05:26Z</time>
      </trkpt>
      <trkpt lat="60.42863" lon="7.68502">
        <ele>1256.58</ele>
        <time>2019-04-02T14:05:28Z</time>
      </trkpt>
      <trkpt lat="60.42901" lon="7.68547">
        <ele>1254.18</ele>
        <time>2019-04-02T14:05:34Z</time>
      </trkpt>
      <trkpt lat="60.42934" lon="7.68576">
        <ele>1250.81</ele>
        <time>2019-04-02T14:05:39Z</time>
      </trkpt>
      <trkpt lat="60.42955" lon="7.68605">
        <ele>1247.93</ele>
        <time>2019-04-02T14:05:42Z</time>
      </trkpt>
      <trkpt lat="60.42977" lon="7.68636">
        <ele>1246.01</ele>
        <time>2019-04-02T14:05:45Z</time>
      </trkpt>
      <trkpt lat="60.43009" lon="7.68695">
        <ele>1245.53</ele>
        <time>2019-04-02T14:05:50Z</time>
      </trkpt>
      <trkpt lat="60.43023" lon="7.68723">
        <ele>1244.08</ele>
        <time>2019-04-02T14:05:52Z</time>
      </trkpt>
      <trkpt lat="60.43052" lon="7.68777">
        <ele>1242.64</ele>
        <time>2019-04-02T14:05:56Z</time>
      </trkpt>
      <trkpt lat="60.43077" lon="7.68809">
        <ele>1244.08</ele>
        <time>2019-04-02T14:06:00Z</time>
      </trkpt>
      <trkpt lat="60.43086" lon="7.68817">
        <ele>1244.56</ele>
        <time>2019-04-02T14:06:02Z</time>
      </trkpt>
      <trkpt lat="60.43105" lon="7.68826">
        <ele>1246.49</ele>
        <time>2019-04-02T14:06:07Z</time>
      </trkpt>
      <trkpt lat="60.43118" lon="7.68835">
        <ele>1247.45</ele>
        <time>2019-04-02T14:06:10Z</time>
      </trkpt>
      <trkpt lat="60.43133" lon="7.68847">
        <ele>1249.85</ele>
        <time>2019-04-02T14:06:14Z</time>
      </trkpt>
      <trkpt lat="60.4314" lon="7.68856">
        <ele>1251.77</ele>
        <time>2019-04-02T14:06:19Z</time>
      </trkpt>
      <trkpt lat="60.43151" lon="7.68874">
        <ele>1251.77</ele>
        <time>2019-04-02T14:06:23Z</time>
      </trkpt>
      <trkpt lat="60.43155" lon="7.68881">
        <ele>1252.25</ele>
        <time>2019-04-02T14:06:25Z</time>
      </trkpt>
      <trkpt lat="60.43173" lon="7.68903">
        <ele>1253.7</ele>
        <time>2019-04-02T14:06:34Z</time>
      </trkpt>
      <trkpt lat="60.43194" lon="7.68934">
        <ele>1254.66</ele>
        <time>2019-04-02T14:06:44Z</time>
      </trkpt>
      <trkpt lat="60.43212" lon="7.68958">
        <ele>1256.1</ele>
        <time>2019-04-02T14:06:49Z</time>
      </trkpt>
      <trkpt lat="60.43221" lon="7.68977">
        <ele>1256.1</ele>
        <time>2019-04-02T14:06:52Z</time>
      </trkpt>
      <trkpt lat="60.43243" lon="7.69012">
        <ele>1257.54</ele>
        <time>2019-04-02T14:06:58Z</time>
      </trkpt>
      <trkpt lat="60.43273" lon="7.69093">
        <ele>1253.7</ele>
        <time>2019-04-02T14:07:04Z</time>
      </trkpt>
      <trkpt lat="60.43284" lon="7.69125">
        <ele>1253.22</ele>
        <time>2019-04-02T14:07:06Z</time>
      </trkpt>
      <trkpt lat="60.43289" lon="7.69141">
        <ele>1252.25</ele>
        <time>2019-04-02T14:07:07Z</time>
      </trkpt>
      <trkpt lat="60.43299" lon="7.69184">
        <ele>1254.18</ele>
        <time>2019-04-02T14:07:10Z</time>
      </trkpt>
      <trkpt lat="60.43315" lon="7.69216">
        <ele>1256.1</ele>
        <time>2019-04-02T14:07:15Z</time>
      </trkpt>
      <trkpt lat="60.43329" lon="7.6925">
        <ele>1259.94</ele>
        <time>2019-04-02T14:07:21Z</time>
      </trkpt>
      <trkpt lat="60.43331" lon="7.69254">
        <ele>1259.94</ele>
        <time>2019-04-02T14:07:22Z</time>
      </trkpt>
      <trkpt lat="60.43341" lon="7.69288">
        <ele>1262.35</ele>
        <time>2019-04-02T14:07:27Z</time>
      </trkpt>
      <trkpt lat="60.43345" lon="7.69314">
        <ele>1264.75</ele>
        <time>2019-04-02T14:07:30Z</time>
      </trkpt>
      <trkpt lat="60.43347" lon="7.69331">
        <ele>1265.23</ele>
        <time>2019-04-02T14:07:32Z</time>
      </trkpt>
      <trkpt lat="60.4335" lon="7.69369">
        <ele>1267.16</ele>
        <time>2019-04-02T14:07:38Z</time>
      </trkpt>
      <trkpt lat="60.43354" lon="7.69385">
        <ele>1267.16</ele>
        <time>2019-04-02T14:07:40Z</time>
      </trkpt>
      <trkpt lat="60.43359" lon="7.69406">
        <ele>1267.16</ele>
        <time>2019-04-02T14:07:42Z</time>
      </trkpt>
      <trkpt lat="60.43366" lon="7.69429">
        <ele>1265.71</ele>
        <time>2019-04-02T14:07:44Z</time>
      </trkpt>
      <trkpt lat="60.4337" lon="7.6944">
        <ele>1264.75</ele>
        <time>2019-04-02T14:07:45Z</time>
      </trkpt>
      <trkpt lat="60.4338" lon="7.69462">
        <ele>1263.79</ele>
        <time>2019-04-02T14:07:47Z</time>
      </trkpt>
      <trkpt lat="60.4339" lon="7.69482">
        <ele>1261.87</ele>
        <time>2019-04-02T14:07:49Z</time>
      </trkpt>
      <trkpt lat="60.43401" lon="7.69502">
        <ele>1261.87</ele>
        <time>2019-04-02T14:07:51Z</time>
      </trkpt>
      <trkpt lat="60.43413" lon="7.69517">
        <ele>1261.87</ele>
        <time>2019-04-02T14:07:53Z</time>
      </trkpt>
      <trkpt lat="60.43425" lon="7.69532">
        <ele>1263.31</ele>
        <time>2019-04-02T14:07:55Z</time>
      </trkpt>
      <trkpt lat="60.43434" lon="7.69549">
        <ele>1263.79</ele>
        <time>2019-04-02T14:07:57Z</time>
      </trkpt>
      <trkpt lat="60.43439" lon="7.69558">
        <ele>1263.79</ele>
        <time>2019-04-02T14:07:58Z</time>
      </trkpt>
      <trkpt lat="60.43444" lon="7.69578">
        <ele>1265.23</ele>
        <time>2019-04-02T14:08:00Z</time>
      </trkpt>
      <trkpt lat="60.43465" lon="7.69626">
        <ele>1268.12</ele>
        <time>2019-04-02T14:08:07Z</time>
      </trkpt>
      <trkpt lat="60.43491" lon="7.69677">
        <ele>1273.88</ele>
        <time>2019-04-02T14:08:13Z</time>
      </trkpt>
      <trkpt lat="60.43507" lon="7.69719">
        <ele>1278.21</ele>
        <time>2019-04-02T14:08:18Z</time>
      </trkpt>
      <trkpt lat="60.43521" lon="7.69747">
        <ele>1280.13</ele>
        <time>2019-04-02T14:08:23Z</time>
      </trkpt>
      <trkpt lat="60.43528" lon="7.69758">
        <ele>1280.61</ele>
        <time>2019-04-02T14:08:25Z</time>
      </trkpt>
      <trkpt lat="60.43545" lon="7.69804">
        <ele>1283.98</ele>
        <time>2019-04-02T14:08:31Z</time>
      </trkpt>
      <trkpt lat="60.4355" lon="7.69819">
        <ele>1283.98</ele>
        <time>2019-04-02T14:08:33Z</time>
      </trkpt>
      <trkpt lat="60.43556" lon="7.69855">
        <ele>1285.42</ele>
        <time>2019-04-02T14:08:38Z</time>
      </trkpt>
      <trkpt lat="60.43559" lon="7.69867">
        <ele>1286.38</ele>
        <time>2019-04-02T14:08:40Z</time>
      </trkpt>
      <trkpt lat="60.4356" lon="7.69872">
        <ele>1284.46</ele>
        <time>2019-04-02T14:08:42Z</time>
      </trkpt>
      <trkpt lat="60.4356" lon="7.69874">
        <ele>1284.46</ele>
        <time>2019-04-02T14:08:43Z</time>
      </trkpt>
      <trkpt lat="60.43583" lon="7.69901">
        <ele>1283.98</ele>
        <time>2019-04-02T14:08:54Z</time>
      </trkpt>
      <trkpt lat="60.43583" lon="7.69907">
        <ele>1283.98</ele>
        <time>2019-04-02T14:09:08Z</time>
      </trkpt>
      <trkpt lat="60.43585" lon="7.69912">
        <ele>1283.98</ele>
        <time>2019-04-02T14:09:20Z</time>
      </trkpt>
      <trkpt lat="60.43593" lon="7.69914">
        <ele>1283.5</ele>
        <time>2019-04-02T14:09:31Z</time>
      </trkpt>
      <trkpt lat="60.43593" lon="7.69915">
        <ele>1283.5</ele>
        <time>2019-04-02T14:09:50Z</time>
      </trkpt>
      <trkpt lat="60.43594" lon="7.69915">
        <ele>1283.02</ele>
        <time>2019-04-02T14:10:18Z</time>
      </trkpt>
      <trkpt lat="60.43594" lon="7.69915">
        <ele>1283.02</ele>
        <time>2019-04-02T14:10:36Z</time>
      </trkpt>
      <trkpt lat="60.43594" lon="7.69916">
        <ele>1283.02</ele>
        <time>2019-04-02T14:10:53Z</time>
      </trkpt>
      <trkpt lat="60.43595" lon="7.69918">
        <ele>1282.54</ele>
        <time>2019-04-02T14:11:16Z</time>
      </trkpt>
      <trkpt lat="60.43596" lon="7.69919">
        <ele>1282.06</ele>
        <time>2019-04-02T14:11:25Z</time>
      </trkpt>
      <trkpt lat="60.43601" lon="7.6994">
        <ele>1282.06</ele>
        <time>2019-04-02T14:11:30Z</time>
      </trkpt>
      <trkpt lat="60.43602" lon="7.69961">
        <ele>1276.77</ele>
        <time>2019-04-02T14:11:32Z</time>
      </trkpt>
      <trkpt lat="60.43603" lon="7.69973">
        <ele>1276.77</ele>
        <time>2019-04-02T14:11:33Z</time>
      </trkpt>
      <trkpt lat="60.43606" lon="7.69985">
        <ele>1273.88</ele>
        <time>2019-04-02T14:11:34Z</time>
      </trkpt>
      <trkpt lat="60.43614" lon="7.70014">
        <ele>1268.12</ele>
        <time>2019-04-02T14:11:37Z</time>
      </trkpt>
      <trkpt lat="60.43617" lon="7.70034">
        <ele>1266.19</ele>
        <time>2019-04-02T14:11:39Z</time>
      </trkpt>
      <trkpt lat="60.43625" lon="7.70057">
        <ele>1262.35</ele>
        <time>2019-04-02T14:11:41Z</time>
      </trkpt>
      <trkpt lat="60.43629" lon="7.70073">
        <ele>1260.91</ele>
        <time>2019-04-02T14:11:42Z</time>
      </trkpt>
      <trkpt lat="60.43635" lon="7.70106">
        <ele>1259.94</ele>
        <time>2019-04-02T14:11:44Z</time>
      </trkpt>
      <trkpt lat="60.43643" lon="7.70142">
        <ele>1258.5</ele>
        <time>2019-04-02T14:11:46Z</time>
      </trkpt>
      <trkpt lat="60.4365" lon="7.70236">
        <ele>1257.54</ele>
        <time>2019-04-02T14:11:51Z</time>
      </trkpt>
      <trkpt lat="60.43648" lon="7.70287">
        <ele>1259.94</ele>
        <time>2019-04-02T14:11:54Z</time>
      </trkpt>
      <trkpt lat="60.43645" lon="7.70372">
        <ele>1259.46</ele>
        <time>2019-04-02T14:12:00Z</time>
      </trkpt>
      <trkpt lat="60.43644" lon="7.70403">
        <ele>1259.94</ele>
        <time>2019-04-02T14:12:02Z</time>
      </trkpt>
      <trkpt lat="60.43637" lon="7.70481">
        <ele>1259.46</ele>
        <time>2019-04-02T14:12:07Z</time>
      </trkpt>
      <trkpt lat="60.43637" lon="7.70511">
        <ele>1258.02</ele>
        <time>2019-04-02T14:12:09Z</time>
      </trkpt>
      <trkpt lat="60.43637" lon="7.7054">
        <ele>1258.02</ele>
        <time>2019-04-02T14:12:11Z</time>
      </trkpt>
      <trkpt lat="60.43637" lon="7.7057">
        <ele>1256.1</ele>
        <time>2019-04-02T14:12:13Z</time>
      </trkpt>
      <trkpt lat="60.43637" lon="7.70586">
        <ele>1256.1</ele>
        <time>2019-04-02T14:12:14Z</time>
      </trkpt>
      <trkpt lat="60.43634" lon="7.70648">
        <ele>1255.62</ele>
        <time>2019-04-02T14:12:18Z</time>
      </trkpt>
      <trkpt lat="60.43631" lon="7.70713">
        <ele>1258.98</ele>
        <time>2019-04-02T14:12:22Z</time>
      </trkpt>
      <trkpt lat="60.4363" lon="7.70727">
        <ele>1258.98</ele>
        <time>2019-04-02T14:12:23Z</time>
      </trkpt>
      <trkpt lat="60.43627" lon="7.70749">
        <ele>1257.54</ele>
        <time>2019-04-02T14:12:25Z</time>
      </trkpt>
      <trkpt lat="60.43624" lon="7.70767">
        <ele>1256.1</ele>
        <time>2019-04-02T14:12:27Z</time>
      </trkpt>
      <trkpt lat="60.43616" lon="7.70814">
        <ele>1254.66</ele>
        <time>2019-04-02T14:12:33Z</time>
      </trkpt>
      <trkpt lat="60.43613" lon="7.7084">
        <ele>1253.22</ele>
        <time>2019-04-02T14:12:36Z</time>
      </trkpt>
      <trkpt lat="60.43607" lon="7.70867">
        <ele>1251.77</ele>
        <time>2019-04-02T14:12:39Z</time>
      </trkpt>
      <trkpt lat="60.43601" lon="7.70924">
        <ele>1250.81</ele>
        <time>2019-04-02T14:12:44Z</time>
      </trkpt>
      <trkpt lat="60.43598" lon="7.70951">
        <ele>1250.33</ele>
        <time>2019-04-02T14:12:46Z</time>
      </trkpt>
      <trkpt lat="60.43588" lon="7.7101">
        <ele>1247.93</ele>
        <time>2019-04-02T14:12:50Z</time>
      </trkpt>
      <trkpt lat="60.43581" lon="7.71058">
        <ele>1244.56</ele>
        <time>2019-04-02T14:12:53Z</time>
      </trkpt>
      <trkpt lat="60.43579" lon="7.71076">
        <ele>1241.68</ele>
        <time>2019-04-02T14:12:54Z</time>
      </trkpt>
      <trkpt lat="60.43577" lon="7.71094">
        <ele>1240.72</ele>
        <time>2019-04-02T14:12:55Z</time>
      </trkpt>
      <trkpt lat="60.43574" lon="7.7132">
        <ele>1237.83</ele>
        <time>2019-04-02T14:13:07Z</time>
      </trkpt>
      <trkpt lat="60.43572" lon="7.71496">
        <ele>1236.39</ele>
        <time>2019-04-02T14:13:18Z</time>
      </trkpt>
      <trkpt lat="60.4357" lon="7.71564">
        <ele>1234.95</ele>
        <time>2019-04-02T14:13:22Z</time>
      </trkpt>
      <trkpt lat="60.43569" lon="7.71597">
        <ele>1234.95</ele>
        <time>2019-04-02T14:13:24Z</time>
      </trkpt>
      <trkpt lat="60.43571" lon="7.71646">
        <ele>1233.99</ele>
        <time>2019-04-02T14:13:27Z</time>
      </trkpt>
      <trkpt lat="60.43574" lon="7.717">
        <ele>1234.95</ele>
        <time>2019-04-02T14:13:30Z</time>
      </trkpt>
      <trkpt lat="60.43575" lon="7.71733">
        <ele>1236.39</ele>
        <time>2019-04-02T14:13:32Z</time>
      </trkpt>
      <trkpt lat="60.43575" lon="7.71769">
        <ele>1238.8</ele>
        <time>2019-04-02T14:13:35Z</time>
      </trkpt>
      <trkpt lat="60.43575" lon="7.71788">
        <ele>1239.76</ele>
        <time>2019-04-02T14:13:37Z</time>
      </trkpt>
      <trkpt lat="60.43571" lon="7.71858">
        <ele>1243.12</ele>
        <time>2019-04-02T14:13:44Z</time>
      </trkpt>
      <trkpt lat="60.4357" lon="7.71868">
        <ele>1243.12</ele>
        <time>2019-04-02T14:13:45Z</time>
      </trkpt>
      <trkpt lat="60.43569" lon="7.71908">
        <ele>1241.68</ele>
        <time>2019-04-02T14:13:49Z</time>
      </trkpt>
      <trkpt lat="60.43566" lon="7.71951">
        <ele>1242.16</ele>
        <time>2019-04-02T14:13:54Z</time>
      </trkpt>
      <trkpt lat="60.43566" lon="7.71996">
        <ele>1241.2</ele>
        <time>2019-04-02T14:13:58Z</time>
      </trkpt>
      <trkpt lat="60.4357" lon="7.72037">
        <ele>1239.76</ele>
        <time>2019-04-02T14:14:01Z</time>
      </trkpt>
      <trkpt lat="60.43574" lon="7.72094">
        <ele>1242.64</ele>
        <time>2019-04-02T14:14:05Z</time>
      </trkpt>
      <trkpt lat="60.43577" lon="7.72122">
        <ele>1241.2</ele>
        <time>2019-04-02T14:14:07Z</time>
      </trkpt>
      <trkpt lat="60.43579" lon="7.72136">
        <ele>1241.2</ele>
        <time>2019-04-02T14:14:08Z</time>
      </trkpt>
      <trkpt lat="60.43581" lon="7.72166">
        <ele>1240.72</ele>
        <time>2019-04-02T14:14:10Z</time>
      </trkpt>
      <trkpt lat="60.43578" lon="7.72205">
        <ele>1240.72</ele>
        <time>2019-04-02T14:14:13Z</time>
      </trkpt>
      <trkpt lat="60.43575" lon="7.72226">
        <ele>1242.16</ele>
        <time>2019-04-02T14:14:15Z</time>
      </trkpt>
      <trkpt lat="60.43574" lon="7.72236">
        <ele>1240.24</ele>
        <time>2019-04-02T14:14:16Z</time>
      </trkpt>
      <trkpt lat="60.43574" lon="7.72254">
        <ele>1238.32</ele>
        <time>2019-04-02T14:14:18Z</time>
      </trkpt>
      <trkpt lat="60.43568" lon="7.72344">
        <ele>1236.87</ele>
        <time>2019-04-02T14:14:25Z</time>
      </trkpt>
      <trkpt lat="60.43566" lon="7.72391">
        <ele>1235.43</ele>
        <time>2019-04-02T14:14:28Z</time>
      </trkpt>
      <trkpt lat="60.43564" lon="7.72436">
        <ele>1232.07</ele>
        <time>2019-04-02T14:14:31Z</time>
      </trkpt>
      <trkpt lat="60.43563" lon="7.72451">
        <ele>1231.59</ele>
        <time>2019-04-02T14:14:32Z</time>
      </trkpt>
      <trkpt lat="60.43561" lon="7.725">
        <ele>1228.7</ele>
        <time>2019-04-02T14:14:35Z</time>
      </trkpt>
      <trkpt lat="60.43559" lon="7.72518">
        <ele>1227.26</ele>
        <time>2019-04-02T14:14:36Z</time>
      </trkpt>
      <trkpt lat="60.43555" lon="7.72552">
        <ele>1223.9</ele>
        <time>2019-04-02T14:14:38Z</time>
      </trkpt>
      <trkpt lat="60.4355" lon="7.72585">
        <ele>1218.61</ele>
        <time>2019-04-02T14:14:40Z</time>
      </trkpt>
      <trkpt lat="60.43548" lon="7.72602">
        <ele>1216.69</ele>
        <time>2019-04-02T14:14:41Z</time>
      </trkpt>
      <trkpt lat="60.43543" lon="7.72655">
        <ele>1210.92</ele>
        <time>2019-04-02T14:14:44Z</time>
      </trkpt>
      <trkpt lat="60.43541" lon="7.72674">
        <ele>1209.96</ele>
        <time>2019-04-02T14:14:45Z</time>
      </trkpt>
      <trkpt lat="60.43538" lon="7.72735">
        <ele>1202.75</ele>
        <time>2019-04-02T14:14:48Z</time>
      </trkpt>
      <trkpt lat="60.43538" lon="7.72774">
        <ele>1200.82</ele>
        <time>2019-04-02T14:14:50Z</time>
      </trkpt>
      <trkpt lat="60.43533" lon="7.72889">
        <ele>1201.79</ele>
        <time>2019-04-02T14:14:57Z</time>
      </trkpt>
      <trkpt lat="60.43532" lon="7.72943">
        <ele>1200.82</ele>
        <time>2019-04-02T14:15:01Z</time>
      </trkpt>
      <trkpt lat="60.4353" lon="7.72979">
        <ele>1199.38</ele>
        <time>2019-04-02T14:15:04Z</time>
      </trkpt>
      <trkpt lat="60.4352" lon="7.73034">
        <ele>1199.86</ele>
        <time>2019-04-02T14:15:09Z</time>
      </trkpt>
      <trkpt lat="60.43516" lon="7.7308">
        <ele>1195.06</ele>
        <time>2019-04-02T14:15:12Z</time>
      </trkpt>
      <trkpt lat="60.43514" lon="7.73114">
        <ele>1194.09</ele>
        <time>2019-04-02T14:15:14Z</time>
      </trkpt>
      <trkpt lat="60.43513" lon="7.73131">
        <ele>1190.73</ele>
        <time>2019-04-02T14:15:15Z</time>
      </trkpt>
      <trkpt lat="60.4351" lon="7.73157">
        <ele>1188.81</ele>
        <time>2019-04-02T14:15:17Z</time>
      </trkpt>
      <trkpt lat="60.43506" lon="7.73192">
        <ele>1191.69</ele>
        <time>2019-04-02T14:15:20Z</time>
      </trkpt>
      <trkpt lat="60.43504" lon="7.73206">
        <ele>1191.69</ele>
        <time>2019-04-02T14:15:21Z</time>
      </trkpt>
      <trkpt lat="60.435" lon="7.73292">
        <ele>1188.33</ele>
        <time>2019-04-02T14:15:26Z</time>
      </trkpt>
      <trkpt lat="60.43495" lon="7.7338">
        <ele>1182.56</ele>
        <time>2019-04-02T14:15:31Z</time>
      </trkpt>
      <trkpt lat="60.43491" lon="7.7345">
        <ele>1179.19</ele>
        <time>2019-04-02T14:15:35Z</time>
      </trkpt>
      <trkpt lat="60.43489" lon="7.73502">
        <ele>1177.75</ele>
        <time>2019-04-02T14:15:38Z</time>
      </trkpt>
      <trkpt lat="60.43483" lon="7.73595">
        <ele>1178.71</ele>
        <time>2019-04-02T14:15:44Z</time>
      </trkpt>
      <trkpt lat="60.43482" lon="7.73609">
        <ele>1178.71</ele>
        <time>2019-04-02T14:15:45Z</time>
      </trkpt>
      <trkpt lat="60.43481" lon="7.73636">
        <ele>1178.23</ele>
        <time>2019-04-02T14:15:47Z</time>
      </trkpt>
      <trkpt lat="60.43479" lon="7.73661">
        <ele>1177.27</ele>
        <time>2019-04-02T14:15:49Z</time>
      </trkpt>
      <trkpt lat="60.4348" lon="7.73713">
        <ele>1177.27</ele>
        <time>2019-04-02T14:15:53Z</time>
      </trkpt>
      <trkpt lat="60.4348" lon="7.73752">
        <ele>1178.71</ele>
        <time>2019-04-02T14:15:56Z</time>
      </trkpt>
      <trkpt lat="60.43482" lon="7.7378">
        <ele>1178.71</ele>
        <time>2019-04-02T14:15:58Z</time>
      </trkpt>
      <trkpt lat="60.43484" lon="7.73884">
        <ele>1179.19</ele>
        <time>2019-04-02T14:16:05Z</time>
      </trkpt>
      <trkpt lat="60.43486" lon="7.73911">
        <ele>1177.75</ele>
        <time>2019-04-02T14:16:07Z</time>
      </trkpt>
      <trkpt lat="60.43495" lon="7.73986">
        <ele>1180.16</ele>
        <time>2019-04-02T14:16:12Z</time>
      </trkpt>
      <trkpt lat="60.43498" lon="7.74017">
        <ele>1180.64</ele>
        <time>2019-04-02T14:16:14Z</time>
      </trkpt>
      <trkpt lat="60.43502" lon="7.74069">
        <ele>1183.04</ele>
        <time>2019-04-02T14:16:17Z</time>
      </trkpt>
      <trkpt lat="60.43502" lon="7.74099">
        <ele>1183.52</ele>
        <time>2019-04-02T14:16:19Z</time>
      </trkpt>
      <trkpt lat="60.43505" lon="7.74158">
        <ele>1183.52</ele>
        <time>2019-04-02T14:16:23Z</time>
      </trkpt>
      <trkpt lat="60.4351" lon="7.74231">
        <ele>1187.85</ele>
        <time>2019-04-02T14:16:28Z</time>
      </trkpt>
      <trkpt lat="60.43512" lon="7.74259">
        <ele>1188.81</ele>
        <time>2019-04-02T14:16:30Z</time>
      </trkpt>
      <trkpt lat="60.43516" lon="7.74301">
        <ele>1189.29</ele>
        <time>2019-04-02T14:16:33Z</time>
      </trkpt>
      <trkpt lat="60.4352" lon="7.74331">
        <ele>1190.25</ele>
        <time>2019-04-02T14:16:35Z</time>
      </trkpt>
      <trkpt lat="60.43523" lon="7.74363">
        <ele>1192.65</ele>
        <time>2019-04-02T14:16:37Z</time>
      </trkpt>
      <trkpt lat="60.43529" lon="7.74436">
        <ele>1196.98</ele>
        <time>2019-04-02T14:16:42Z</time>
      </trkpt>
      <trkpt lat="60.43532" lon="7.74478">
        <ele>1200.34</ele>
        <time>2019-04-02T14:16:45Z</time>
      </trkpt>
      <trkpt lat="60.43535" lon="7.74507">
        <ele>1201.79</ele>
        <time>2019-04-02T14:16:47Z</time>
      </trkpt>
      <trkpt lat="60.43538" lon="7.74547">
        <ele>1201.79</ele>
        <time>2019-04-02T14:16:50Z</time>
      </trkpt>
      <trkpt lat="60.43541" lon="7.74572">
        <ele>1201.79</ele>
        <time>2019-04-02T14:16:52Z</time>
      </trkpt>
      <trkpt lat="60.43549" lon="7.74626">
        <ele>1203.71</ele>
        <time>2019-04-02T14:16:56Z</time>
      </trkpt>
      <trkpt lat="60.43552" lon="7.74674">
        <ele>1206.11</ele>
        <time>2019-04-02T14:17:00Z</time>
      </trkpt>
      <trkpt lat="60.43554" lon="7.74692">
        <ele>1207.07</ele>
        <time>2019-04-02T14:17:02Z</time>
      </trkpt>
      <trkpt lat="60.4356" lon="7.74719">
        <ele>1208.03</ele>
        <time>2019-04-02T14:17:05Z</time>
      </trkpt>
      <trkpt lat="60.43575" lon="7.74778">
        <ele>1210.92</ele>
        <time>2019-04-02T14:17:10Z</time>
      </trkpt>
      <trkpt lat="60.43587" lon="7.7482">
        <ele>1210.92</ele>
        <time>2019-04-02T14:17:14Z</time>
      </trkpt>
      <trkpt lat="60.43598" lon="7.74886">
        <ele>1212.36</ele>
        <time>2019-04-02T14:17:20Z</time>
      </trkpt>
      <trkpt lat="60.43604" lon="7.74953">
        <ele>1213.32</ele>
        <time>2019-04-02T14:17:26Z</time>
      </trkpt>
      <trkpt lat="60.4362" lon="7.75033">
        <ele>1218.13</ele>
        <time>2019-04-02T14:17:33Z</time>
      </trkpt>
      <trkpt lat="60.43629" lon="7.75069">
        <ele>1219.57</ele>
        <time>2019-04-02T14:17:37Z</time>
      </trkpt>
      <trkpt lat="60.4364" lon="7.75102">
        <ele>1220.05</ele>
        <time>2019-04-02T14:17:41Z</time>
      </trkpt>
      <trkpt lat="60.43639" lon="7.75118">
        <ele>1220.53</ele>
        <time>2019-04-02T14:17:48Z</time>
      </trkpt>
      <trkpt lat="60.43638" lon="7.75119">
        <ele>1221.01</ele>
        <time>2019-04-02T14:18:04Z</time>
      </trkpt>
      <trkpt lat="60.43629" lon="7.7508">
        <ele>1221.49</ele>
        <time>2019-04-02T14:18:12Z</time>
      </trkpt>
      <trkpt lat="60.43614" lon="7.75049">
        <ele>1219.57</ele>
        <time>2019-04-02T14:18:16Z</time>
      </trkpt>
      <trkpt lat="60.43609" lon="7.75039">
        <ele>1219.09</ele>
        <time>2019-04-02T14:18:17Z</time>
      </trkpt>
      <trkpt lat="60.43596" lon="7.75018">
        <ele>1215.24</ele>
        <time>2019-04-02T14:18:19Z</time>
      </trkpt>
      <trkpt lat="60.43572" lon="7.7499">
        <ele>1213.8</ele>
        <time>2019-04-02T14:18:24Z</time>
      </trkpt>
      <trkpt lat="60.43571" lon="7.74976">
        <ele>1213.32</ele>
        <time>2019-04-02T14:18:31Z</time>
      </trkpt>
      <trkpt lat="60.43574" lon="7.74974">
        <ele>1212.84</ele>
        <time>2019-04-02T14:18:47Z</time>
      </trkpt>
      <trkpt lat="60.43578" lon="7.7497">
        <ele>1212.36</ele>
        <time>2019-04-02T14:19:03Z</time>
      </trkpt>
      <trkpt lat="60.4358" lon="7.7497">
        <ele>1212.36</ele>
        <time>2019-04-02T14:19:21Z</time>
      </trkpt>
      <trkpt lat="60.43582" lon="7.74971">
        <ele>1213.8</ele>
        <time>2019-04-02T14:19:34Z</time>
      </trkpt>
      <trkpt lat="60.43582" lon="7.7497">
        <ele>1212.84</ele>
        <time>2019-04-02T14:19:58Z</time>
      </trkpt>
      <trkpt lat="60.43584" lon="7.74969">
        <ele>1212.84</ele>
        <time>2019-04-02T14:20:17Z</time>
      </trkpt>
      <trkpt lat="60.43585" lon="7.74971">
        <ele>1212.84</ele>
        <time>2019-04-02T14:20:36Z</time>
      </trkpt>
      <trkpt lat="60.43585" lon="7.74971">
        <ele>1212.84</ele>
        <time>2019-04-02T14:20:55Z</time>
      </trkpt>
      <trkpt lat="60.43586" lon="7.74972">
        <ele>1212.84</ele>
        <time>2019-04-02T14:21:06Z</time>
      </trkpt>
      <trkpt lat="60.43593" lon="7.7499">
        <ele>1214.76</ele>
        <time>2019-04-02T14:21:09Z</time>
      </trkpt>
      <trkpt lat="60.43601" lon="7.75009">
        <ele>1214.76</ele>
        <time>2019-04-02T14:21:11Z</time>
      </trkpt>
      <trkpt lat="60.43609" lon="7.75028">
        <ele>1216.21</ele>
        <time>2019-04-02T14:21:13Z</time>
      </trkpt>
      <trkpt lat="60.43625" lon="7.75064">
        <ele>1219.09</ele>
        <time>2019-04-02T14:21:17Z</time>
      </trkpt>
      <trkpt lat="60.43629" lon="7.75073">
        <ele>1219.57</ele>
        <time>2019-04-02T14:21:18Z</time>
      </trkpt>
      <trkpt lat="60.43635" lon="7.75092">
        <ele>1220.53</ele>
        <time>2019-04-02T14:21:20Z</time>
      </trkpt>
      <trkpt lat="60.43648" lon="7.75135">
        <ele>1219.57</ele>
        <time>2019-04-02T14:21:25Z</time>
      </trkpt>
      <trkpt lat="60.43651" lon="7.75151">
        <ele>1219.57</ele>
        <time>2019-04-02T14:21:27Z</time>
      </trkpt>
      <trkpt lat="60.43652" lon="7.75164">
        <ele>1218.13</ele>
        <time>2019-04-02T14:21:39Z</time>
      </trkpt>
      <trkpt lat="60.43654" lon="7.75181">
        <ele>1218.13</ele>
        <time>2019-04-02T14:21:49Z</time>
      </trkpt>
      <trkpt lat="60.43661" lon="7.75267">
        <ele>1219.09</ele>
        <time>2019-04-02T14:21:59Z</time>
      </trkpt>
      <trkpt lat="60.43664" lon="7.75287">
        <ele>1220.53</ele>
        <time>2019-04-02T14:22:01Z</time>
      </trkpt>
      <trkpt lat="60.43668" lon="7.75319">
        <ele>1219.09</ele>
        <time>2019-04-02T14:22:04Z</time>
      </trkpt>
      <trkpt lat="60.43672" lon="7.75346">
        <ele>1218.61</ele>
        <time>2019-04-02T14:22:07Z</time>
      </trkpt>
      <trkpt lat="60.43679" lon="7.7539">
        <ele>1221.49</ele>
        <time>2019-04-02T14:22:15Z</time>
      </trkpt>
      <trkpt lat="60.43682" lon="7.75406">
        <ele>1222.93</ele>
        <time>2019-04-02T14:22:18Z</time>
      </trkpt>
      <trkpt lat="60.43683" lon="7.75425">
        <ele>1222.93</ele>
        <time>2019-04-02T14:22:27Z</time>
      </trkpt>
      <trkpt lat="60.43683" lon="7.75423">
        <ele>1221.97</ele>
        <time>2019-04-02T14:22:36Z</time>
      </trkpt>
      <trkpt lat="60.43683" lon="7.75424">
        <ele>1222.93</ele>
        <time>2019-04-02T14:22:38Z</time>
      </trkpt>
      <trkpt lat="60.43684" lon="7.75425">
        <ele>1221.97</ele>
        <time>2019-04-02T14:22:50Z</time>
      </trkpt>
      <trkpt lat="60.4368" lon="7.75403">
        <ele>1221.97</ele>
        <time>2019-04-02T14:22:55Z</time>
      </trkpt>
      <trkpt lat="60.43662" lon="7.75368">
        <ele>1223.42</ele>
        <time>2019-04-02T14:23:01Z</time>
      </trkpt>
      <trkpt lat="60.4365" lon="7.7534">
        <ele>1225.34</ele>
        <time>2019-04-02T14:23:05Z</time>
      </trkpt>
      <trkpt lat="60.43637" lon="7.75312">
        <ele>1228.22</ele>
        <time>2019-04-02T14:23:10Z</time>
      </trkpt>
      <trkpt lat="60.43618" lon="7.75275">
        <ele>1231.11</ele>
        <time>2019-04-02T14:23:21Z</time>
      </trkpt>
      <trkpt lat="60.43607" lon="7.75267">
        <ele>1226.78</ele>
        <time>2019-04-02T14:23:25Z</time>
      </trkpt>
      <trkpt lat="60.43586" lon="7.75258">
        <ele>1221.97</ele>
        <time>2019-04-02T14:23:31Z</time>
      </trkpt>
      <trkpt lat="60.43582" lon="7.75257">
        <ele>1221.49</ele>
        <time>2019-04-02T14:23:32Z</time>
      </trkpt>
      <trkpt lat="60.43574" lon="7.75252">
        <ele>1219.09</ele>
        <time>2019-04-02T14:23:34Z</time>
      </trkpt>
      <trkpt lat="60.43556" lon="7.75244">
        <ele>1217.65</ele>
        <time>2019-04-02T14:23:37Z</time>
      </trkpt>
      <trkpt lat="60.43544" lon="7.75238">
        <ele>1221.01</ele>
        <time>2019-04-02T14:23:39Z</time>
      </trkpt>
      <trkpt lat="60.43536" lon="7.75237">
        <ele>1217.65</ele>
        <time>2019-04-02T14:23:41Z</time>
      </trkpt>
      <trkpt lat="60.43535" lon="7.75231">
        <ele>1219.57</ele>
        <time>2019-04-02T14:23:43Z</time>
      </trkpt>
      <trkpt lat="60.43546" lon="7.75274">
        <ele>1223.42</ele>
        <time>2019-04-02T14:23:48Z</time>
      </trkpt>
      <trkpt lat="60.43549" lon="7.75318">
        <ele>1225.34</ele>
        <time>2019-04-02T14:23:52Z</time>
      </trkpt>
      <trkpt lat="60.43551" lon="7.75338">
        <ele>1226.78</ele>
        <time>2019-04-02T14:23:54Z</time>
      </trkpt>
      <trkpt lat="60.43557" lon="7.75377">
        <ele>1228.7</ele>
        <time>2019-04-02T14:23:58Z</time>
      </trkpt>
      <trkpt lat="60.43558" lon="7.75426">
        <ele>1233.99</ele>
        <time>2019-04-02T14:24:02Z</time>
      </trkpt>
      <trkpt lat="60.43557" lon="7.75471">
        <ele>1231.11</ele>
        <time>2019-04-02T14:24:06Z</time>
      </trkpt>
      <trkpt lat="60.43557" lon="7.75506">
        <ele>1232.55</ele>
        <time>2019-04-02T14:24:09Z</time>
      </trkpt>
      <trkpt lat="60.43557" lon="7.75526">
        <ele>1232.07</ele>
        <time>2019-04-02T14:24:11Z</time>
      </trkpt>
      <trkpt lat="60.4356" lon="7.75565">
        <ele>1230.62</ele>
        <time>2019-04-02T14:24:14Z</time>
      </trkpt>
      <trkpt lat="60.43562" lon="7.75594">
        <ele>1230.62</ele>
        <time>2019-04-02T14:24:16Z</time>
      </trkpt>
      <trkpt lat="60.43565" lon="7.75661">
        <ele>1229.18</ele>
        <time>2019-04-02T14:24:20Z</time>
      </trkpt>
      <trkpt lat="60.43566" lon="7.75697">
        <ele>1230.62</ele>
        <time>2019-04-02T14:24:22Z</time>
      </trkpt>
      <trkpt lat="60.43567" lon="7.75713">
        <ele>1228.7</ele>
        <time>2019-04-02T14:24:23Z</time>
      </trkpt>
      <trkpt lat="60.43567" lon="7.75744">
        <ele>1231.59</ele>
        <time>2019-04-02T14:24:25Z</time>
      </trkpt>
      <trkpt lat="60.43565" lon="7.75781">
        <ele>1226.3</ele>
        <time>2019-04-02T14:24:28Z</time>
      </trkpt>
      <trkpt lat="60.43564" lon="7.75792">
        <ele>1226.3</ele>
        <time>2019-04-02T14:24:29Z</time>
      </trkpt>
      <trkpt lat="60.43561" lon="7.75914">
        <ele>1222.45</ele>
        <time>2019-04-02T14:24:38Z</time>
      </trkpt>
      <trkpt lat="60.43562" lon="7.75931">
        <ele>1222.45</ele>
        <time>2019-04-02T14:24:39Z</time>
      </trkpt>
      <trkpt lat="60.43563" lon="7.75982">
        <ele>1219.57</ele>
        <time>2019-04-02T14:24:42Z</time>
      </trkpt>
      <trkpt lat="60.43563" lon="7.76049">
        <ele>1215.72</ele>
        <time>2019-04-02T14:24:46Z</time>
      </trkpt>
      <trkpt lat="60.43564" lon="7.76081">
        <ele>1211.4</ele>
        <time>2019-04-02T14:24:48Z</time>
      </trkpt>
      <trkpt lat="60.43564" lon="7.76097">
        <ele>1211.4</ele>
        <time>2019-04-02T14:24:49Z</time>
      </trkpt>
      <trkpt lat="60.43565" lon="7.76143">
        <ele>1209</ele>
        <time>2019-04-02T14:24:52Z</time>
      </trkpt>
      <trkpt lat="60.43566" lon="7.76173">
        <ele>1208.03</ele>
        <time>2019-04-02T14:24:54Z</time>
      </trkpt>
      <trkpt lat="60.43565" lon="7.76246">
        <ele>1204.67</ele>
        <time>2019-04-02T14:24:59Z</time>
      </trkpt>
      <trkpt lat="60.43565" lon="7.7626">
        <ele>1204.67</ele>
        <time>2019-04-02T14:25:00Z</time>
      </trkpt>
      <trkpt lat="60.43565" lon="7.76322">
        <ele>1200.34</ele>
        <time>2019-04-02T14:25:04Z</time>
      </trkpt>
      <trkpt lat="60.43565" lon="7.76338">
        <ele>1198.9</ele>
        <time>2019-04-02T14:25:05Z</time>
      </trkpt>
      <trkpt lat="60.43564" lon="7.76382">
        <ele>1197.94</ele>
        <time>2019-04-02T14:25:08Z</time>
      </trkpt>
      <trkpt lat="60.43566" lon="7.76426">
        <ele>1194.58</ele>
        <time>2019-04-02T14:25:11Z</time>
      </trkpt>
      <trkpt lat="60.43566" lon="7.7647">
        <ele>1193.13</ele>
        <time>2019-04-02T14:25:14Z</time>
      </trkpt>
      <trkpt lat="60.43567" lon="7.76597">
        <ele>1190.73</ele>
        <time>2019-04-02T14:25:24Z</time>
      </trkpt>
      <trkpt lat="60.43567" lon="7.7662">
        <ele>1189.77</ele>
        <time>2019-04-02T14:25:26Z</time>
      </trkpt>
      <trkpt lat="60.43568" lon="7.76664">
        <ele>1188.33</ele>
        <time>2019-04-02T14:25:30Z</time>
      </trkpt>
      <trkpt lat="60.43567" lon="7.7669">
        <ele>1188.33</ele>
        <time>2019-04-02T14:25:32Z</time>
      </trkpt>
      <trkpt lat="60.43567" lon="7.7674">
        <ele>1186.4</ele>
        <time>2019-04-02T14:25:36Z</time>
      </trkpt>
      <trkpt lat="60.43563" lon="7.76788">
        <ele>1183.04</ele>
        <time>2019-04-02T14:25:40Z</time>
      </trkpt>
      <trkpt lat="60.43564" lon="7.76826">
        <ele>1181.6</ele>
        <time>2019-04-02T14:25:43Z</time>
      </trkpt>
      <trkpt lat="60.43564" lon="7.76862">
        <ele>1178.23</ele>
        <time>2019-04-02T14:25:46Z</time>
      </trkpt>
      <trkpt lat="60.43565" lon="7.76888">
        <ele>1177.27</ele>
        <time>2019-04-02T14:25:48Z</time>
      </trkpt>
      <trkpt lat="60.43565" lon="7.76901">
        <ele>1176.79</ele>
        <time>2019-04-02T14:25:49Z</time>
      </trkpt>
      <trkpt lat="60.43565" lon="7.76939">
        <ele>1173.43</ele>
        <time>2019-04-02T14:25:52Z</time>
      </trkpt>
      <trkpt lat="60.43568" lon="7.7698">
        <ele>1170.54</ele>
        <time>2019-04-02T14:25:55Z</time>
      </trkpt>
      <trkpt lat="60.43569" lon="7.76994">
        <ele>1170.54</ele>
        <time>2019-04-02T14:25:56Z</time>
      </trkpt>
      <trkpt lat="60.43573" lon="7.7704">
        <ele>1167.18</ele>
        <time>2019-04-02T14:25:59Z</time>
      </trkpt>
      <trkpt lat="60.43582" lon="7.77109">
        <ele>1163.81</ele>
        <time>2019-04-02T14:26:04Z</time>
      </trkpt>
      <trkpt lat="60.43586" lon="7.77136">
        <ele>1162.85</ele>
        <time>2019-04-02T14:26:06Z</time>
      </trkpt>
      <trkpt lat="60.43592" lon="7.77164">
        <ele>1162.37</ele>
        <time>2019-04-02T14:26:08Z</time>
      </trkpt>
      <trkpt lat="60.43596" lon="7.77196">
        <ele>1162.37</ele>
        <time>2019-04-02T14:26:10Z</time>
      </trkpt>
      <trkpt lat="60.43597" lon="7.77209">
        <ele>1162.37</ele>
        <time>2019-04-02T14:26:11Z</time>
      </trkpt>
      <trkpt lat="60.43598" lon="7.77225">
        <ele>1161.41</ele>
        <time>2019-04-02T14:26:12Z</time>
      </trkpt>
      <trkpt lat="60.436" lon="7.77237">
        <ele>1160.45</ele>
        <time>2019-04-02T14:26:13Z</time>
      </trkpt>
      <trkpt lat="60.43604" lon="7.77265">
        <ele>1159.49</ele>
        <time>2019-04-02T14:26:15Z</time>
      </trkpt>
      <trkpt lat="60.43611" lon="7.77307">
        <ele>1156.12</ele>
        <time>2019-04-02T14:26:18Z</time>
      </trkpt>
      <trkpt lat="60.43616" lon="7.77333">
        <ele>1154.68</ele>
        <time>2019-04-02T14:26:20Z</time>
      </trkpt>
      <trkpt lat="60.43626" lon="7.7738">
        <ele>1151.32</ele>
        <time>2019-04-02T14:26:23Z</time>
      </trkpt>
      <trkpt lat="60.43628" lon="7.77393">
        <ele>1150.84</ele>
        <time>2019-04-02T14:26:24Z</time>
      </trkpt>
      <trkpt lat="60.43643" lon="7.77468">
        <ele>1148.43</ele>
        <time>2019-04-02T14:26:29Z</time>
      </trkpt>
      <trkpt lat="60.43651" lon="7.77503">
        <ele>1148.43</ele>
        <time>2019-04-02T14:26:32Z</time>
      </trkpt>
      <trkpt lat="60.43657" lon="7.77537">
        <ele>1148.43</ele>
        <time>2019-04-02T14:26:36Z</time>
      </trkpt>
      <trkpt lat="60.43669" lon="7.77613">
        <ele>1148.43</ele>
        <time>2019-04-02T14:26:46Z</time>
      </trkpt>
      <trkpt lat="60.43677" lon="7.77667">
        <ele>1148.43</ele>
        <time>2019-04-02T14:26:53Z</time>
      </trkpt>
      <trkpt lat="60.43703" lon="7.77755">
        <ele>1145.55</ele>
        <time>2019-04-02T14:27:01Z</time>
      </trkpt>
      <trkpt lat="60.43719" lon="7.7781">
        <ele>1145.07</ele>
        <time>2019-04-02T14:27:05Z</time>
      </trkpt>
      <trkpt lat="60.43731" lon="7.77855">
        <ele>1142.18</ele>
        <time>2019-04-02T14:27:09Z</time>
      </trkpt>
      <trkpt lat="60.43745" lon="7.77875">
        <ele>1141.22</ele>
        <time>2019-04-02T14:27:12Z</time>
      </trkpt>
      <trkpt lat="60.43761" lon="7.7791">
        <ele>1141.22</ele>
        <time>2019-04-02T14:27:17Z</time>
      </trkpt>
      <trkpt lat="60.43777" lon="7.77938">
        <ele>1142.18</ele>
        <time>2019-04-02T14:27:22Z</time>
      </trkpt>
      <trkpt lat="60.43804" lon="7.77989">
        <ele>1140.74</ele>
        <time>2019-04-02T14:27:34Z</time>
      </trkpt>
      <trkpt lat="60.43811" lon="7.78003">
        <ele>1141.22</ele>
        <time>2019-04-02T14:27:38Z</time>
      </trkpt>
      <trkpt lat="60.43839" lon="7.78035">
        <ele>1140.74</ele>
        <time>2019-04-02T14:27:47Z</time>
      </trkpt>
      <trkpt lat="60.43845" lon="7.78047">
        <ele>1141.7</ele>
        <time>2019-04-02T14:27:49Z</time>
      </trkpt>
      <trkpt lat="60.43859" lon="7.78071">
        <ele>1141.7</ele>
        <time>2019-04-02T14:27:56Z</time>
      </trkpt>
      <trkpt lat="60.43867" lon="7.78075">
        <ele>1140.74</ele>
        <time>2019-04-02T14:27:59Z</time>
      </trkpt>
      <trkpt lat="60.43881" lon="7.7809">
        <ele>1141.7</ele>
        <time>2019-04-02T14:28:03Z</time>
      </trkpt>
      <trkpt lat="60.43892" lon="7.78101">
        <ele>1141.7</ele>
        <time>2019-04-02T14:28:06Z</time>
      </trkpt>
      <trkpt lat="60.43929" lon="7.78128">
        <ele>1141.7</ele>
        <time>2019-04-02T14:28:15Z</time>
      </trkpt>
      <trkpt lat="60.43947" lon="7.78153">
        <ele>1142.18</ele>
        <time>2019-04-02T14:28:19Z</time>
      </trkpt>
      <trkpt lat="60.43953" lon="7.78167">
        <ele>1142.18</ele>
        <time>2019-04-02T14:28:21Z</time>
      </trkpt>
      <trkpt lat="60.43979" lon="7.78181">
        <ele>1142.18</ele>
        <time>2019-04-02T14:28:31Z</time>
      </trkpt>
      <trkpt lat="60.43992" lon="7.78179">
        <ele>1143.14</ele>
        <time>2019-04-02T14:28:39Z</time>
      </trkpt>
      <trkpt lat="60.44001" lon="7.78175">
        <ele>1143.63</ele>
        <time>2019-04-02T14:28:50Z</time>
      </trkpt>
      <trkpt lat="60.44006" lon="7.78168">
        <ele>1144.11</ele>
        <time>2019-04-02T14:29:04Z</time>
      </trkpt>
      <trkpt lat="60.44011" lon="7.78166">
        <ele>1144.59</ele>
        <time>2019-04-02T14:29:10Z</time>
      </trkpt>
      <trkpt lat="60.44027" lon="7.78168">
        <ele>1146.99</ele>
        <time>2019-04-02T14:29:19Z</time>
      </trkpt>
      <trkpt lat="60.44035" lon="7.78166">
        <ele>1147.95</ele>
        <time>2019-04-02T14:29:25Z</time>
      </trkpt>
      <trkpt lat="60.44041" lon="7.78166">
        <ele>1148.91</ele>
        <time>2019-04-02T14:29:30Z</time>
      </trkpt>
      <trkpt lat="60.44048" lon="7.78162">
        <ele>1149.87</ele>
        <time>2019-04-02T14:29:34Z</time>
      </trkpt>
      <trkpt lat="60.44051" lon="7.78161">
        <ele>1150.35</ele>
        <time>2019-04-02T14:29:37Z</time>
      </trkpt>
      <trkpt lat="60.44057" lon="7.7816">
        <ele>1150.35</ele>
        <time>2019-04-02T14:29:41Z</time>
      </trkpt>
      <trkpt lat="60.44073" lon="7.7817">
        <ele>1151.32</ele>
        <time>2019-04-02T14:29:47Z</time>
      </trkpt>
      <trkpt lat="60.44085" lon="7.78178">
        <ele>1151.32</ele>
        <time>2019-04-02T14:29:50Z</time>
      </trkpt>
      <trkpt lat="60.44091" lon="7.7818">
        <ele>1151.32</ele>
        <time>2019-04-02T14:29:51Z</time>
      </trkpt>
      <trkpt lat="60.44096" lon="7.78182">
        <ele>1151.32</ele>
        <time>2019-04-02T14:29:52Z</time>
      </trkpt>
      <trkpt lat="60.44101" lon="7.78185">
        <ele>1151.32</ele>
        <time>2019-04-02T14:29:53Z</time>
      </trkpt>
      <trkpt lat="60.44106" lon="7.78189">
        <ele>1151.32</ele>
        <time>2019-04-02T14:29:54Z</time>
      </trkpt>
      <trkpt lat="60.44131" lon="7.78194">
        <ele>1151.8</ele>
        <time>2019-04-02T14:30:03Z</time>
      </trkpt>
      <trkpt lat="60.44151" lon="7.78182">
        <ele>1153.24</ele>
        <time>2019-04-02T14:30:14Z</time>
      </trkpt>
      <trkpt lat="60.44158" lon="7.78175">
        <ele>1154.2</ele>
        <time>2019-04-02T14:30:26Z</time>
      </trkpt>
      <trkpt lat="60.44164" lon="7.78173">
        <ele>1155.64</ele>
        <time>2019-04-02T14:30:31Z</time>
      </trkpt>
      <trkpt lat="60.4417" lon="7.78165">
        <ele>1156.12</ele>
        <time>2019-04-02T14:30:42Z</time>
      </trkpt>
      <trkpt lat="60.44175" lon="7.78162">
        <ele>1157.08</ele>
        <time>2019-04-02T14:30:49Z</time>
      </trkpt>
      <trkpt lat="60.4419" lon="7.7815">
        <ele>1159.01</ele>
        <time>2019-04-02T14:31:01Z</time>
      </trkpt>
      <trkpt lat="60.442" lon="7.78145">
        <ele>1159.49</ele>
        <time>2019-04-02T14:31:05Z</time>
      </trkpt>
      <trkpt lat="60.44221" lon="7.78147">
        <ele>1163.33</ele>
        <time>2019-04-02T14:31:10Z</time>
      </trkpt>
      <trkpt lat="60.44226" lon="7.78149">
        <ele>1164.29</ele>
        <time>2019-04-02T14:31:12Z</time>
      </trkpt>
      <trkpt lat="60.4426" lon="7.78166">
        <ele>1166.7</ele>
        <time>2019-04-02T14:31:23Z</time>
      </trkpt>
      <trkpt lat="60.44282" lon="7.78171">
        <ele>1167.66</ele>
        <time>2019-04-02T14:31:32Z</time>
      </trkpt>
      <trkpt lat="60.44309" lon="7.78172">
        <ele>1169.58</ele>
        <time>2019-04-02T14:31:40Z</time>
      </trkpt>
      <trkpt lat="60.44339" lon="7.7816">
        <ele>1171.98</ele>
        <time>2019-04-02T14:31:51Z</time>
      </trkpt>
      <trkpt lat="60.44352" lon="7.78161">
        <ele>1174.39</ele>
        <time>2019-04-02T14:31:55Z</time>
      </trkpt>
      <trkpt lat="60.4436" lon="7.78159">
        <ele>1174.39</ele>
        <time>2019-04-02T14:31:58Z</time>
      </trkpt>
      <trkpt lat="60.44372" lon="7.78167">
        <ele>1176.31</ele>
        <time>2019-04-02T14:32:02Z</time>
      </trkpt>
      <trkpt lat="60.44399" lon="7.7818">
        <ele>1179.19</ele>
        <time>2019-04-02T14:32:11Z</time>
      </trkpt>
      <trkpt lat="60.44419" lon="7.78189">
        <ele>1182.08</ele>
        <time>2019-04-02T14:32:17Z</time>
      </trkpt>
      <trkpt lat="60.44436" lon="7.782">
        <ele>1184.96</ele>
        <time>2019-04-02T14:32:24Z</time>
      </trkpt>
      <trkpt lat="60.44443" lon="7.78207">
        <ele>1185.92</ele>
        <time>2019-04-02T14:32:26Z</time>
      </trkpt>
      <trkpt lat="60.44457" lon="7.78226">
        <ele>1187.37</ele>
        <time>2019-04-02T14:32:30Z</time>
      </trkpt>
      <trkpt lat="60.44479" lon="7.78248">
        <ele>1188.81</ele>
        <time>2019-04-02T14:32:36Z</time>
      </trkpt>
      <trkpt lat="60.44517" lon="7.78286">
        <ele>1190.73</ele>
        <time>2019-04-02T14:32:45Z</time>
      </trkpt>
      <trkpt lat="60.44541" lon="7.78314">
        <ele>1194.09</ele>
        <time>2019-04-02T14:32:55Z</time>
      </trkpt>
      <trkpt lat="60.44566" lon="7.78324">
        <ele>1195.54</ele>
        <time>2019-04-02T14:33:04Z</time>
      </trkpt>
      <trkpt lat="60.44568" lon="7.78325">
        <ele>1196.02</ele>
        <time>2019-04-02T14:33:05Z</time>
      </trkpt>
      <trkpt lat="60.44593" lon="7.78331">
        <ele>1197.46</ele>
        <time>2019-04-02T14:33:17Z</time>
      </trkpt>
      <trkpt lat="60.44608" lon="7.78335">
        <ele>1199.38</ele>
        <time>2019-04-02T14:33:27Z</time>
      </trkpt>
      <trkpt lat="60.4462" lon="7.78334">
        <ele>1200.82</ele>
        <time>2019-04-02T14:33:35Z</time>
      </trkpt>
      <trkpt lat="60.44634" lon="7.78339">
        <ele>1202.75</ele>
        <time>2019-04-02T14:33:40Z</time>
      </trkpt>
      <trkpt lat="60.44666" lon="7.78355">
        <ele>1205.15</ele>
        <time>2019-04-02T14:33:50Z</time>
      </trkpt>
      <trkpt lat="60.44679" lon="7.78356">
        <ele>1207.07</ele>
        <time>2019-04-02T14:33:55Z</time>
      </trkpt>
      <trkpt lat="60.44696" lon="7.78355">
        <ele>1210.44</ele>
        <time>2019-04-02T14:34:08Z</time>
      </trkpt>
      <trkpt lat="60.44722" lon="7.7837">
        <ele>1213.8</ele>
        <time>2019-04-02T14:34:19Z</time>
      </trkpt>
      <trkpt lat="60.44736" lon="7.78391">
        <ele>1216.21</ele>
        <time>2019-04-02T14:34:25Z</time>
      </trkpt>
      <trkpt lat="60.44749" lon="7.784">
        <ele>1217.17</ele>
        <time>2019-04-02T14:34:29Z</time>
      </trkpt>
      <trkpt lat="60.44782" lon="7.7845">
        <ele>1217.17</ele>
        <time>2019-04-02T14:34:41Z</time>
      </trkpt>
      <trkpt lat="60.44784" lon="7.78452">
        <ele>1217.17</ele>
        <time>2019-04-02T14:34:42Z</time>
      </trkpt>
      <trkpt lat="60.4481" lon="7.78471">
        <ele>1218.61</ele>
        <time>2019-04-02T14:34:51Z</time>
      </trkpt>
      <trkpt lat="60.44831" lon="7.78489">
        <ele>1220.53</ele>
        <time>2019-04-02T14:35:00Z</time>
      </trkpt>
      <trkpt lat="60.44851" lon="7.78516">
        <ele>1223.42</ele>
        <time>2019-04-02T14:35:10Z</time>
      </trkpt>
      <trkpt lat="60.44854" lon="7.78522">
        <ele>1223.42</ele>
        <time>2019-04-02T14:35:14Z</time>
      </trkpt>
      <trkpt lat="60.44871" lon="7.78535">
        <ele>1224.38</ele>
        <time>2019-04-02T14:35:23Z</time>
      </trkpt>
      <trkpt lat="60.44879" lon="7.78559">
        <ele>1226.3</ele>
        <time>2019-04-02T14:35:27Z</time>
      </trkpt>
      <trkpt lat="60.44901" lon="7.78625">
        <ele>1226.3</ele>
        <time>2019-04-02T14:35:39Z</time>
      </trkpt>
      <trkpt lat="60.44898" lon="7.78616">
        <ele>1224.86</ele>
        <time>2019-04-02T14:35:46Z</time>
      </trkpt>
      <trkpt lat="60.44895" lon="7.78611">
        <ele>1224.86</ele>
        <time>2019-04-02T14:35:49Z</time>
      </trkpt>
      <trkpt lat="60.44879" lon="7.7859">
        <ele>1226.3</ele>
        <time>2019-04-02T14:35:59Z</time>
      </trkpt>
      <trkpt lat="60.44862" lon="7.78576">
        <ele>1226.3</ele>
        <time>2019-04-02T14:36:09Z</time>
      </trkpt>
      <trkpt lat="60.44849" lon="7.78573">
        <ele>1224.86</ele>
        <time>2019-04-02T14:36:16Z</time>
      </trkpt>
      <trkpt lat="60.44859" lon="7.78589">
        <ele>1226.3</ele>
        <time>2019-04-02T14:36:23Z</time>
      </trkpt>
      <trkpt lat="60.44864" lon="7.78591">
        <ele>1226.78</ele>
        <time>2019-04-02T14:36:26Z</time>
      </trkpt>
      <trkpt lat="60.44872" lon="7.78608">
        <ele>1227.26</ele>
        <time>2019-04-02T14:36:32Z</time>
      </trkpt>
      <trkpt lat="60.44885" lon="7.7865">
        <ele>1228.7</ele>
        <time>2019-04-02T14:36:41Z</time>
      </trkpt>
      <trkpt lat="60.44896" lon="7.7868">
        <ele>1230.14</ele>
        <time>2019-04-02T14:36:46Z</time>
      </trkpt>
      <trkpt lat="60.44904" lon="7.78703">
        <ele>1230.14</ele>
        <time>2019-04-02T14:36:51Z</time>
      </trkpt>
      <trkpt lat="60.44924" lon="7.78741">
        <ele>1232.07</ele>
        <time>2019-04-02T14:37:03Z</time>
      </trkpt>
      <trkpt lat="60.44942" lon="7.78775">
        <ele>1233.03</ele>
        <time>2019-04-02T14:37:12Z</time>
      </trkpt>
      <trkpt lat="60.4496" lon="7.78822">
        <ele>1234.47</ele>
        <time>2019-04-02T14:37:23Z</time>
      </trkpt>
      <trkpt lat="60.44982" lon="7.78862">
        <ele>1234.47</ele>
        <time>2019-04-02T14:37:34Z</time>
      </trkpt>
      <trkpt lat="60.44992" lon="7.78877">
        <ele>1234.47</ele>
        <time>2019-04-02T14:37:37Z</time>
      </trkpt>
      <trkpt lat="60.45011" lon="7.78904">
        <ele>1235.43</ele>
        <time>2019-04-02T14:37:43Z</time>
      </trkpt>
      <trkpt lat="60.45032" lon="7.78916">
        <ele>1235.91</ele>
        <time>2019-04-02T14:37:50Z</time>
      </trkpt>
      <trkpt lat="60.4504" lon="7.78918">
        <ele>1235.91</ele>
        <time>2019-04-02T14:37:52Z</time>
      </trkpt>
      <trkpt lat="60.45058" lon="7.78928">
        <ele>1236.87</ele>
        <time>2019-04-02T14:37:57Z</time>
      </trkpt>
      <trkpt lat="60.45092" lon="7.78972">
        <ele>1238.8</ele>
        <time>2019-04-02T14:38:09Z</time>
      </trkpt>
      <trkpt lat="60.45118" lon="7.79007">
        <ele>1239.76</ele>
        <time>2019-04-02T14:38:22Z</time>
      </trkpt>
      <trkpt lat="60.45138" lon="7.79039">
        <ele>1238.32</ele>
        <time>2019-04-02T14:38:35Z</time>
      </trkpt>
      <trkpt lat="60.4516" lon="7.79093">
        <ele>1235.43</ele>
        <time>2019-04-02T14:38:46Z</time>
      </trkpt>
      <trkpt lat="60.4518" lon="7.79134">
        <ele>1234.47</ele>
        <time>2019-04-02T14:38:56Z</time>
      </trkpt>
      <trkpt lat="60.45185" lon="7.79138">
        <ele>1233.99</ele>
        <time>2019-04-02T14:38:59Z</time>
      </trkpt>
      <trkpt lat="60.45201" lon="7.79159">
        <ele>1233.99</ele>
        <time>2019-04-02T14:39:11Z</time>
      </trkpt>
      <trkpt lat="60.45224" lon="7.79185">
        <ele>1233.99</ele>
        <time>2019-04-02T14:39:20Z</time>
      </trkpt>
      <trkpt lat="60.45243" lon="7.79212">
        <ele>1233.99</ele>
        <time>2019-04-02T14:39:29Z</time>
      </trkpt>
      <trkpt lat="60.45251" lon="7.79222">
        <ele>1235.43</ele>
        <time>2019-04-02T14:39:34Z</time>
      </trkpt>
      <trkpt lat="60.45273" lon="7.79253">
        <ele>1235.43</ele>
        <time>2019-04-02T14:39:45Z</time>
      </trkpt>
      <trkpt lat="60.45274" lon="7.79258">
        <ele>1235.43</ele>
        <time>2019-04-02T14:39:47Z</time>
      </trkpt>
      <trkpt lat="60.45299" lon="7.7929">
        <ele>1233.99</ele>
        <time>2019-04-02T14:39:59Z</time>
      </trkpt>
      <trkpt lat="60.45335" lon="7.79342">
        <ele>1233.03</ele>
        <time>2019-04-02T14:40:10Z</time>
      </trkpt>
      <trkpt lat="60.45357" lon="7.79397">
        <ele>1233.03</ele>
        <time>2019-04-02T14:40:19Z</time>
      </trkpt>
      <trkpt lat="60.45378" lon="7.79444">
        <ele>1233.99</ele>
        <time>2019-04-02T14:40:30Z</time>
      </trkpt>
      <trkpt lat="60.45391" lon="7.79491">
        <ele>1234.95</ele>
        <time>2019-04-02T14:40:42Z</time>
      </trkpt>
      <trkpt lat="60.45393" lon="7.79505">
        <ele>1234.95</ele>
        <time>2019-04-02T14:40:44Z</time>
      </trkpt>
      <trkpt lat="60.45394" lon="7.79556">
        <ele>1235.43</ele>
        <time>2019-04-02T14:40:53Z</time>
      </trkpt>
      <trkpt lat="60.45394" lon="7.79606">
        <ele>1232.55</ele>
        <time>2019-04-02T14:41:03Z</time>
      </trkpt>
      <trkpt lat="60.45395" lon="7.79624">
        <ele>1232.07</ele>
        <time>2019-04-02T14:41:05Z</time>
      </trkpt>
      <trkpt lat="60.45395" lon="7.79632">
        <ele>1232.07</ele>
        <time>2019-04-02T14:41:06Z</time>
      </trkpt>
      <trkpt lat="60.45397" lon="7.79671">
        <ele>1230.62</ele>
        <time>2019-04-02T14:41:10Z</time>
      </trkpt>
      <trkpt lat="60.45402" lon="7.7981">
        <ele>1227.26</ele>
        <time>2019-04-02T14:41:24Z</time>
      </trkpt>
      <trkpt lat="60.45409" lon="7.79849">
        <ele>1229.18</ele>
        <time>2019-04-02T14:41:29Z</time>
      </trkpt>
      <trkpt lat="60.4541" lon="7.79856">
        <ele>1229.18</ele>
        <time>2019-04-02T14:41:30Z</time>
      </trkpt>
      <trkpt lat="60.45414" lon="7.79891">
        <ele>1230.62</ele>
        <time>2019-04-02T14:41:34Z</time>
      </trkpt>
      <trkpt lat="60.45415" lon="7.79911">
        <ele>1230.62</ele>
        <time>2019-04-02T14:41:36Z</time>
      </trkpt>
      <trkpt lat="60.45419" lon="7.79978">
        <ele>1224.38</ele>
        <time>2019-04-02T14:41:42Z</time>
      </trkpt>
      <trkpt lat="60.45427" lon="7.79981">
        <ele>1221.97</ele>
        <time>2019-04-02T14:41:44Z</time>
      </trkpt>
      <trkpt lat="60.45447" lon="7.79989">
        <ele>1220.05</ele>
        <time>2019-04-02T14:41:48Z</time>
      </trkpt>
      <trkpt lat="60.45467" lon="7.8001">
        <ele>1216.69</ele>
        <time>2019-04-02T14:41:51Z</time>
      </trkpt>
      <trkpt lat="60.45486" lon="7.80056">
        <ele>1210.92</ele>
        <time>2019-04-02T14:41:54Z</time>
      </trkpt>
      <trkpt lat="60.45493" lon="7.80089">
        <ele>1208.51</ele>
        <time>2019-04-02T14:41:56Z</time>
      </trkpt>
      <trkpt lat="60.45506" lon="7.80154">
        <ele>1204.67</ele>
        <time>2019-04-02T14:42:00Z</time>
      </trkpt>
      <trkpt lat="60.45515" lon="7.802">
        <ele>1201.79</ele>
        <time>2019-04-02T14:42:03Z</time>
      </trkpt>
      <trkpt lat="60.4552" lon="7.80241">
        <ele>1199.38</ele>
        <time>2019-04-02T14:42:06Z</time>
      </trkpt>
      <trkpt lat="60.45524" lon="7.80264">
        <ele>1200.82</ele>
        <time>2019-04-02T14:42:08Z</time>
      </trkpt>
      <trkpt lat="60.45534" lon="7.803">
        <ele>1198.42</ele>
        <time>2019-04-02T14:42:11Z</time>
      </trkpt>
      <trkpt lat="60.45554" lon="7.80353">
        <ele>1195.06</ele>
        <time>2019-04-02T14:42:15Z</time>
      </trkpt>
      <trkpt lat="60.45567" lon="7.80395">
        <ele>1191.21</ele>
        <time>2019-04-02T14:42:18Z</time>
      </trkpt>
      <trkpt lat="60.4558" lon="7.80454">
        <ele>1187.37</ele>
        <time>2019-04-02T14:42:22Z</time>
      </trkpt>
      <trkpt lat="60.45588" lon="7.80485">
        <ele>1184.48</ele>
        <time>2019-04-02T14:42:24Z</time>
      </trkpt>
      <trkpt lat="60.45602" lon="7.80537">
        <ele>1180.64</ele>
        <time>2019-04-02T14:42:27Z</time>
      </trkpt>
      <trkpt lat="60.45607" lon="7.80553">
        <ele>1179.67</ele>
        <time>2019-04-02T14:42:28Z</time>
      </trkpt>
      <trkpt lat="60.45622" lon="7.80605">
        <ele>1175.83</ele>
        <time>2019-04-02T14:42:31Z</time>
      </trkpt>
      <trkpt lat="60.45633" lon="7.80657">
        <ele>1172.47</ele>
        <time>2019-04-02T14:42:34Z</time>
      </trkpt>
      <trkpt lat="60.4565" lon="7.8072">
        <ele>1168.62</ele>
        <time>2019-04-02T14:42:38Z</time>
      </trkpt>
      <trkpt lat="60.45659" lon="7.80751">
        <ele>1166.7</ele>
        <time>2019-04-02T14:42:40Z</time>
      </trkpt>
      <trkpt lat="60.45676" lon="7.80795">
        <ele>1163.81</ele>
        <time>2019-04-02T14:42:43Z</time>
      </trkpt>
      <trkpt lat="60.45688" lon="7.80825">
        <ele>1160.45</ele>
        <time>2019-04-02T14:42:45Z</time>
      </trkpt>
      <trkpt lat="60.45708" lon="7.80886">
        <ele>1156.6</ele>
        <time>2019-04-02T14:42:49Z</time>
      </trkpt>
      <trkpt lat="60.45713" lon="7.80902">
        <ele>1156.6</ele>
        <time>2019-04-02T14:42:50Z</time>
      </trkpt>
      <trkpt lat="60.45739" lon="7.80975">
        <ele>1152.28</ele>
        <time>2019-04-02T14:42:55Z</time>
      </trkpt>
      <trkpt lat="60.45761" lon="7.81029">
        <ele>1148.43</ele>
        <time>2019-04-02T14:42:59Z</time>
      </trkpt>
      <trkpt lat="60.4578" lon="7.81081">
        <ele>1145.07</ele>
        <time>2019-04-02T14:43:03Z</time>
      </trkpt>
      <trkpt lat="60.45789" lon="7.81108">
        <ele>1144.11</ele>
        <time>2019-04-02T14:43:05Z</time>
      </trkpt>
      <trkpt lat="60.45804" lon="7.81164">
        <ele>1140.74</ele>
        <time>2019-04-02T14:43:09Z</time>
      </trkpt>
      <trkpt lat="60.45812" lon="7.8119">
        <ele>1139.78</ele>
        <time>2019-04-02T14:43:11Z</time>
      </trkpt>
      <trkpt lat="60.45817" lon="7.81204">
        <ele>1139.78</ele>
        <time>2019-04-02T14:43:12Z</time>
      </trkpt>
      <trkpt lat="60.45861" lon="7.81305">
        <ele>1136.42</ele>
        <time>2019-04-02T14:43:21Z</time>
      </trkpt>
      <trkpt lat="60.45917" lon="7.81391">
        <ele>1133.05</ele>
        <time>2019-04-02T14:43:30Z</time>
      </trkpt>
      <trkpt lat="60.45967" lon="7.81458">
        <ele>1131.13</ele>
        <time>2019-04-02T14:43:37Z</time>
      </trkpt>
      <trkpt lat="60.45982" lon="7.81478">
        <ele>1131.13</ele>
        <time>2019-04-02T14:43:39Z</time>
      </trkpt>
      <trkpt lat="60.46049" lon="7.81544">
        <ele>1130.65</ele>
        <time>2019-04-02T14:43:50Z</time>
      </trkpt>
      <trkpt lat="60.46054" lon="7.8155">
        <ele>1130.65</ele>
        <time>2019-04-02T14:43:51Z</time>
      </trkpt>
      <trkpt lat="60.46068" lon="7.8156">
        <ele>1130.65</ele>
        <time>2019-04-02T14:43:54Z</time>
      </trkpt>
      <trkpt lat="60.46084" lon="7.81573">
        <ele>1132.09</ele>
        <time>2019-04-02T14:43:58Z</time>
      </trkpt>
      <trkpt lat="60.46094" lon="7.81578">
        <ele>1132.57</ele>
        <time>2019-04-02T14:44:02Z</time>
      </trkpt>
      <trkpt lat="60.46124" lon="7.81587">
        <ele>1135.45</ele>
        <time>2019-04-02T14:44:11Z</time>
      </trkpt>
      <trkpt lat="60.46132" lon="7.8159">
        <ele>1136.42</ele>
        <time>2019-04-02T14:44:13Z</time>
      </trkpt>
      <trkpt lat="60.46149" lon="7.81615">
        <ele>1137.38</ele>
        <time>2019-04-02T14:44:25Z</time>
      </trkpt>
      <trkpt lat="60.46148" lon="7.81613">
        <ele>1137.86</ele>
        <time>2019-04-02T14:44:51Z</time>
      </trkpt>
      <trkpt lat="60.46148" lon="7.81614">
        <ele>1138.34</ele>
        <time>2019-04-02T14:45:09Z</time>
      </trkpt>
      <trkpt lat="60.46148" lon="7.81615">
        <ele>1138.34</ele>
        <time>2019-04-02T14:45:27Z</time>
      </trkpt>
      <trkpt lat="60.46148" lon="7.81615">
        <ele>1138.34</ele>
        <time>2019-04-02T14:45:46Z</time>
      </trkpt>
      <trkpt lat="60.46147" lon="7.81616">
        <ele>1138.34</ele>
        <time>2019-04-02T14:46:02Z</time>
      </trkpt>
      <trkpt lat="60.46147" lon="7.81617">
        <ele>1136.9</ele>
        <time>2019-04-02T14:46:05Z</time>
      </trkpt>
      <trkpt lat="60.46147" lon="7.81617">
        <ele>1136.9</ele>
        <time>2019-04-02T14:46:23Z</time>
      </trkpt>
      <trkpt lat="60.46149" lon="7.81615">
        <ele>1138.34</ele>
        <time>2019-04-02T14:46:37Z</time>
      </trkpt>
      <trkpt lat="60.46152" lon="7.81608">
        <ele>1138.34</ele>
        <time>2019-04-02T14:46:58Z</time>
      </trkpt>
      <trkpt lat="60.46156" lon="7.816">
        <ele>1138.34</ele>
        <time>2019-04-02T14:47:09Z</time>
      </trkpt>
      <trkpt lat="60.46159" lon="7.81595">
        <ele>1138.34</ele>
        <time>2019-04-02T14:47:25Z</time>
      </trkpt>
      <trkpt lat="60.46162" lon="7.81592">
        <ele>1138.34</ele>
        <time>2019-04-02T14:47:38Z</time>
      </trkpt>
      <trkpt lat="60.46161" lon="7.81592">
        <ele>1138.82</ele>
        <time>2019-04-02T14:47:55Z</time>
      </trkpt>
      <trkpt lat="60.46161" lon="7.81591">
        <ele>1136.9</ele>
        <time>2019-04-02T14:47:58Z</time>
      </trkpt>
      <trkpt lat="60.46161" lon="7.81593">
        <ele>1138.34</ele>
        <time>2019-04-02T14:48:03Z</time>
      </trkpt>
      <trkpt lat="60.4616" lon="7.81594">
        <ele>1136.42</ele>
        <time>2019-04-02T14:48:20Z</time>
      </trkpt>
      <trkpt lat="60.4616" lon="7.81595">
        <ele>1138.34</ele>
        <time>2019-04-02T14:48:39Z</time>
      </trkpt>
      <trkpt lat="60.46159" lon="7.81594">
        <ele>1136.9</ele>
        <time>2019-04-02T14:48:46Z</time>
      </trkpt>
      <trkpt lat="60.46161" lon="7.81592">
        <ele>1136.9</ele>
        <time>2019-04-02T14:49:08Z</time>
      </trkpt>
      <trkpt lat="60.46161" lon="7.81591">
        <ele>1136.9</ele>
        <time>2019-04-02T14:49:34Z</time>
      </trkpt>
      <trkpt lat="60.46161" lon="7.81591">
        <ele>1137.38</ele>
        <time>2019-04-02T14:50:03Z</time>
      </trkpt>
      <trkpt lat="60.46161" lon="7.81591">
        <ele>1137.38</ele>
        <time>2019-04-02T14:50:34Z</time>
      </trkpt>
      <trkpt lat="60.46161" lon="7.81592">
        <ele>1137.38</ele>
        <time>2019-04-02T14:50:48Z</time>
      </trkpt>
      <trkpt lat="60.46161" lon="7.81592">
        <ele>1137.38</ele>
        <time>2019-04-02T14:51:20Z</time>
      </trkpt>
      <trkpt lat="60.46161" lon="7.81591">
        <ele>1137.86</ele>
        <time>2019-04-02T14:51:46Z</time>
      </trkpt>
      <trkpt lat="60.46161" lon="7.81591">
        <ele>1137.86</ele>
        <time>2019-04-02T14:52:17Z</time>
      </trkpt>
      <trkpt lat="60.4616" lon="7.81592">
        <ele>1137.86</ele>
        <time>2019-04-02T14:52:49Z</time>
      </trkpt>
      <trkpt lat="60.46161" lon="7.81593">
        <ele>1138.34</ele>
        <time>2019-04-02T14:53:16Z</time>
      </trkpt>
      <trkpt lat="60.4616" lon="7.81593">
        <ele>1138.34</ele>
        <time>2019-04-02T14:53:56Z</time>
      </trkpt>
      <trkpt lat="60.4616" lon="7.81592">
        <ele>1138.34</ele>
        <time>2019-04-02T14:54:36Z</time>
      </trkpt>
      <trkpt lat="60.46159" lon="7.81592">
        <ele>1138.82</ele>
        <time>2019-04-02T14:55:17Z</time>
      </trkpt>
      <trkpt lat="60.46159" lon="7.81593">
        <ele>1138.82</ele>
        <time>2019-04-02T14:55:45Z</time>
      </trkpt>
      <trkpt lat="60.46159" lon="7.81593">
        <ele>1138.82</ele>
        <time>2019-04-02T14:56:21Z</time>
      </trkpt>
      <trkpt lat="60.4616" lon="7.81593">
        <ele>1139.3</ele>
        <time>2019-04-02T14:56:56Z</time>
      </trkpt>
      <trkpt lat="60.4616" lon="7.81592">
        <ele>1139.3</ele>
        <time>2019-04-02T14:57:29Z</time>
      </trkpt>
      <trkpt lat="60.4616" lon="7.81592">
        <ele>1139.3</ele>
        <time>2019-04-02T14:58:04Z</time>
      </trkpt>
      <trkpt lat="60.4616" lon="7.81592">
        <ele>1139.3</ele>
        <time>2019-04-02T14:58:34Z</time>
      </trkpt>
      <trkpt lat="60.4616" lon="7.81592">
        <ele>1140.74</ele>
        <time>2019-04-02T14:58:46Z</time>
      </trkpt>
      <trkpt lat="60.4616" lon="7.81592">
        <ele>1140.74</ele>
        <time>2019-04-02T14:59:17Z</time>
      </trkpt>
      <trkpt lat="60.4616" lon="7.81592">
        <ele>1140.74</ele>
        <time>2019-04-02T14:59:42Z</time>
      </trkpt>
      <trkpt lat="60.4616" lon="7.81592">
        <ele>1141.22</ele>
        <time>2019-04-02T15:00:19Z</time>
      </trkpt>
      <trkpt lat="60.4616" lon="7.81591">
        <ele>1141.22</ele>
        <time>2019-04-02T15:00:54Z</time>
      </trkpt>
      <trkpt lat="60.4616" lon="7.81591">
        <ele>1141.22</ele>
        <time>2019-04-02T15:01:31Z</time>
      </trkpt>
      <trkpt lat="60.46159" lon="7.81592">
        <ele>1141.7</ele>
        <time>2019-04-02T15:02:06Z</time>
      </trkpt>
      <trkpt lat="60.4616" lon="7.81592">
        <ele>1141.7</ele>
        <time>2019-04-02T15:02:41Z</time>
      </trkpt>
      <trkpt lat="60.4616" lon="7.81592">
        <ele>1142.18</ele>
        <time>2019-04-02T15:03:16Z</time>
      </trkpt>
      <trkpt lat="60.4616" lon="7.81592">
        <ele>1142.18</ele>
        <time>2019-04-02T15:03:51Z</time>
      </trkpt>
      <trkpt lat="60.46161" lon="7.81592">
        <ele>1142.18</ele>
        <time>2019-04-02T15:04:23Z</time>
      </trkpt>
      <trkpt lat="60.4616" lon="7.81592">
        <ele>1142.18</ele>
        <time>2019-04-02T15:04:54Z</time>
      </trkpt>
      <trkpt lat="60.46161" lon="7.81592">
        <ele>1142.66</ele>
        <time>2019-04-02T15:05:32Z</time>
      </trkpt>
      <trkpt lat="60.46161" lon="7.81593">
        <ele>1143.14</ele>
        <time>2019-04-02T15:06:05Z</time>
      </trkpt>
      <trkpt lat="60.46161" lon="7.81592">
        <ele>1143.14</ele>
        <time>2019-04-02T15:06:38Z</time>
      </trkpt>
      <trkpt lat="60.4616" lon="7.81593">
        <ele>1143.14</ele>
        <time>2019-04-02T15:07:16Z</time>
      </trkpt>
      <trkpt lat="60.4616" lon="7.81593">
        <ele>1143.14</ele>
        <time>2019-04-02T15:07:48Z</time>
      </trkpt>
      <trkpt lat="60.4616" lon="7.81593">
        <ele>1143.63</ele>
        <time>2019-04-02T15:08:26Z</time>
      </trkpt>
      <trkpt lat="60.46161" lon="7.81592">
        <ele>1143.63</ele>
        <time>2019-04-02T15:09:03Z</time>
      </trkpt>
      <trkpt lat="60.46161" lon="7.81592">
        <ele>1143.63</ele>
        <time>2019-04-02T15:09:48Z</time>
      </trkpt>
      <trkpt lat="60.4616" lon="7.81592">
        <ele>1144.11</ele>
        <time>2019-04-02T15:10:30Z</time>
      </trkpt>
      <trkpt lat="60.4616" lon="7.81593">
        <ele>1142.66</ele>
        <time>2019-04-02T15:10:54Z</time>
      </trkpt>
      <trkpt lat="60.4616" lon="7.81594">
        <ele>1142.66</ele>
        <time>2019-04-02T15:11:26Z</time>
      </trkpt>
      <trkpt lat="60.4616" lon="7.81595">
        <ele>1142.66</ele>
        <time>2019-04-02T15:11:55Z</time>
      </trkpt>
      <trkpt lat="60.4616" lon="7.81596">
        <ele>1143.14</ele>
        <time>2019-04-02T15:12:34Z</time>
      </trkpt>
      <trkpt lat="60.46159" lon="7.81595">
        <ele>1143.14</ele>
        <time>2019-04-02T15:12:56Z</time>
      </trkpt>
      <trkpt lat="60.4616" lon="7.81592">
        <ele>1145.07</ele>
        <time>2019-04-02T15:12:59Z</time>
      </trkpt>
      <trkpt lat="60.46161" lon="7.81595">
        <ele>1143.63</ele>
        <time>2019-04-02T15:13:16Z</time>
      </trkpt>
    </trkseg>
  </trk>
  <trk>
    <name><![CDATA[2019-04-05]]></name>
    <trkseg>
      <trkpt lat="60.184" lon="7.48206">
        <ele>1249.85</ele>
        <time>2019-04-05T08:42:24Z</time>
      </trkpt>
      <trkpt lat="60.184" lon="7.48206">
        <ele>1249.85</ele>
        <time>2019-04-05T08:42:25Z</time>
      </trkpt>
      <trkpt lat="60.18402" lon="7.48217">
        <ele>1251.77</ele>
        <time>2019-04-05T08:42:45Z</time>
      </trkpt>
      <trkpt lat="60.18402" lon="7.48238">
        <ele>1249.85</ele>
        <time>2019-04-05T08:42:57Z</time>
      </trkpt>
      <trkpt lat="60.18407" lon="7.4828">
        <ele>1249.85</ele>
        <time>2019-04-05T08:43:15Z</time>
      </trkpt>
      <trkpt lat="60.18413" lon="7.48314">
        <ele>1251.29</ele>
        <time>2019-04-05T08:43:32Z</time>
      </trkpt>
      <trkpt lat="60.18417" lon="7.48344">
        <ele>1251.77</ele>
        <time>2019-04-05T08:43:48Z</time>
      </trkpt>
      <trkpt lat="60.18419" lon="7.48351">
        <ele>1252.25</ele>
        <time>2019-04-05T08:44:03Z</time>
      </trkpt>
      <trkpt lat="60.18419" lon="7.48354">
        <ele>1252.74</ele>
        <time>2019-04-05T08:44:28Z</time>
      </trkpt>
      <trkpt lat="60.18418" lon="7.48353">
        <ele>1252.74</ele>
        <time>2019-04-05T08:44:40Z</time>
      </trkpt>
      <trkpt lat="60.18422" lon="7.48366">
        <ele>1252.25</ele>
        <time>2019-04-05T08:45:02Z</time>
      </trkpt>
      <trkpt lat="60.18429" lon="7.48392">
        <ele>1252.25</ele>
        <time>2019-04-05T08:45:20Z</time>
      </trkpt>
      <trkpt lat="60.18434" lon="7.48406">
        <ele>1253.22</ele>
        <time>2019-04-05T08:45:30Z</time>
      </trkpt>
      <trkpt lat="60.18443" lon="7.48428">
        <ele>1253.7</ele>
        <time>2019-04-05T08:45:46Z</time>
      </trkpt>
      <trkpt lat="60.18452" lon="7.48454">
        <ele>1254.66</ele>
        <time>2019-04-05T08:46:03Z</time>
      </trkpt>
      <trkpt lat="60.18461" lon="7.48478">
        <ele>1254.66</ele>
        <time>2019-04-05T08:46:18Z</time>
      </trkpt>
      <trkpt lat="60.18463" lon="7.48484">
        <ele>1255.62</ele>
        <time>2019-04-05T08:46:32Z</time>
      </trkpt>
      <trkpt lat="60.18472" lon="7.48508">
        <ele>1255.62</ele>
        <time>2019-04-05T08:46:47Z</time>
      </trkpt>
      <trkpt lat="60.18478" lon="7.48528">
        <ele>1256.1</ele>
        <time>2019-04-05T08:47:02Z</time>
      </trkpt>
      <trkpt lat="60.18487" lon="7.48551">
        <ele>1256.58</ele>
        <time>2019-04-05T08:47:18Z</time>
      </trkpt>
      <trkpt lat="60.18494" lon="7.48573">
        <ele>1257.54</ele>
        <time>2019-04-05T08:47:33Z</time>
      </trkpt>
      <trkpt lat="60.18501" lon="7.48594">
        <ele>1258.02</ele>
        <time>2019-04-05T08:47:49Z</time>
      </trkpt>
      <trkpt lat="60.18508" lon="7.48613">
        <ele>1258.98</ele>
        <time>2019-04-05T08:48:04Z</time>
      </trkpt>
      <trkpt lat="60.18517" lon="7.48637">
        <ele>1260.43</ele>
        <time>2019-04-05T08:48:21Z</time>
      </trkpt>
      <trkpt lat="60.18525" lon="7.48659">
        <ele>1260.91</ele>
        <time>2019-04-05T08:48:38Z</time>
      </trkpt>
      <trkpt lat="60.18533" lon="7.48678">
        <ele>1261.87</ele>
        <time>2019-04-05T08:48:53Z</time>
      </trkpt>
      <trkpt lat="60.18541" lon="7.48703">
        <ele>1262.35</ele>
        <time>2019-04-05T08:49:11Z</time>
      </trkpt>
      <trkpt lat="60.18551" lon="7.4873">
        <ele>1263.79</ele>
        <time>2019-04-05T08:49:31Z</time>
      </trkpt>
      <trkpt lat="60.18558" lon="7.48749">
        <ele>1264.75</ele>
        <time>2019-04-05T08:49:47Z</time>
      </trkpt>
      <trkpt lat="60.18564" lon="7.48766">
        <ele>1266.67</ele>
        <time>2019-04-05T08:50:04Z</time>
      </trkpt>
      <trkpt lat="60.18574" lon="7.48793">
        <ele>1266.67</ele>
        <time>2019-04-05T08:50:21Z</time>
      </trkpt>
      <trkpt lat="60.18582" lon="7.48814">
        <ele>1267.16</ele>
        <time>2019-04-05T08:50:36Z</time>
      </trkpt>
      <trkpt lat="60.18584" lon="7.48818">
        <ele>1267.64</ele>
        <time>2019-04-05T08:50:40Z</time>
      </trkpt>
      <trkpt lat="60.18589" lon="7.4883">
        <ele>1267.64</ele>
        <time>2019-04-05T08:50:49Z</time>
      </trkpt>
      <trkpt lat="60.18594" lon="7.48846">
        <ele>1268.12</ele>
        <time>2019-04-05T08:51:01Z</time>
      </trkpt>
      <trkpt lat="60.18597" lon="7.48852">
        <ele>1268.12</ele>
        <time>2019-04-05T08:51:18Z</time>
      </trkpt>
      <trkpt lat="60.18599" lon="7.48856">
        <ele>1268.12</ele>
        <time>2019-04-05T08:51:48Z</time>
      </trkpt>
      <trkpt lat="60.18603" lon="7.48864">
        <ele>1268.12</ele>
        <time>2019-04-05T08:52:07Z</time>
      </trkpt>
      <trkpt lat="60.18609" lon="7.48882">
        <ele>1268.12</ele>
        <time>2019-04-05T08:52:22Z</time>
      </trkpt>
      <trkpt lat="60.18617" lon="7.48902">
        <ele>1268.12</ele>
        <time>2019-04-05T08:52:38Z</time>
      </trkpt>
      <trkpt lat="60.18626" lon="7.48925">
        <ele>1268.12</ele>
        <time>2019-04-05T08:52:56Z</time>
      </trkpt>
      <trkpt lat="60.18635" lon="7.48945">
        <ele>1268.12</ele>
        <time>2019-04-05T08:53:13Z</time>
      </trkpt>
      <trkpt lat="60.18644" lon="7.48964">
        <ele>1268.12</ele>
        <time>2019-04-05T08:53:30Z</time>
      </trkpt>
      <trkpt lat="60.18653" lon="7.48984">
        <ele>1268.6</ele>
        <time>2019-04-05T08:53:47Z</time>
      </trkpt>
      <trkpt lat="60.18662" lon="7.49004">
        <ele>1269.56</ele>
        <time>2019-04-05T08:54:04Z</time>
      </trkpt>
      <trkpt lat="60.18669" lon="7.49018">
        <ele>1270.04</ele>
        <time>2019-04-05T08:54:19Z</time>
      </trkpt>
      <trkpt lat="60.18676" lon="7.49035">
        <ele>1270.04</ele>
        <time>2019-04-05T08:54:36Z</time>
      </trkpt>
      <trkpt lat="60.18685" lon="7.49051">
        <ele>1270.52</ele>
        <time>2019-04-05T08:54:52Z</time>
      </trkpt>
      <trkpt lat="60.18694" lon="7.4907">
        <ele>1271</ele>
        <time>2019-04-05T08:55:11Z</time>
      </trkpt>
      <trkpt lat="60.18704" lon="7.49089">
        <ele>1271.48</ele>
        <time>2019-04-05T08:55:30Z</time>
      </trkpt>
      <trkpt lat="60.1871" lon="7.49102">
        <ele>1271.96</ele>
        <time>2019-04-05T08:55:44Z</time>
      </trkpt>
      <trkpt lat="60.18718" lon="7.49117">
        <ele>1272.92</ele>
        <time>2019-04-05T08:55:59Z</time>
      </trkpt>
      <trkpt lat="60.18727" lon="7.49136">
        <ele>1272.92</ele>
        <time>2019-04-05T08:56:15Z</time>
      </trkpt>
      <trkpt lat="60.18733" lon="7.49149">
        <ele>1272.44</ele>
        <time>2019-04-05T08:56:32Z</time>
      </trkpt>
      <trkpt lat="60.18744" lon="7.49169">
        <ele>1272.44</ele>
        <time>2019-04-05T08:56:48Z</time>
      </trkpt>
      <trkpt lat="60.18756" lon="7.49192">
        <ele>1273.4</ele>
        <time>2019-04-05T08:57:06Z</time>
      </trkpt>
      <trkpt lat="60.18767" lon="7.49212">
        <ele>1273.88</ele>
        <time>2019-04-05T08:57:24Z</time>
      </trkpt>
      <trkpt lat="60.1878" lon="7.49228">
        <ele>1273.88</ele>
        <time>2019-04-05T08:57:39Z</time>
      </trkpt>
      <trkpt lat="60.18792" lon="7.49243">
        <ele>1273.88</ele>
        <time>2019-04-05T08:57:53Z</time>
      </trkpt>
      <trkpt lat="60.18805" lon="7.4926">
        <ele>1273.88</ele>
        <time>2019-04-05T08:58:08Z</time>
      </trkpt>
      <trkpt lat="60.18818" lon="7.49277">
        <ele>1273.88</ele>
        <time>2019-04-05T08:58:24Z</time>
      </trkpt>
      <trkpt lat="60.18833" lon="7.49294">
        <ele>1273.88</ele>
        <time>2019-04-05T08:58:42Z</time>
      </trkpt>
      <trkpt lat="60.18845" lon="7.49309">
        <ele>1274.36</ele>
        <time>2019-04-05T08:58:58Z</time>
      </trkpt>
      <trkpt lat="60.18856" lon="7.49324">
        <ele>1275.33</ele>
        <time>2019-04-05T08:59:15Z</time>
      </trkpt>
      <trkpt lat="60.18868" lon="7.49338">
        <ele>1276.29</ele>
        <time>2019-04-05T08:59:33Z</time>
      </trkpt>
      <trkpt lat="60.18881" lon="7.49355">
        <ele>1276.77</ele>
        <time>2019-04-05T08:59:52Z</time>
      </trkpt>
      <trkpt lat="60.18892" lon="7.49372">
        <ele>1277.25</ele>
        <time>2019-04-05T09:00:06Z</time>
      </trkpt>
      <trkpt lat="60.18906" lon="7.49389">
        <ele>1277.25</ele>
        <time>2019-04-05T09:00:22Z</time>
      </trkpt>
      <trkpt lat="60.18922" lon="7.49407">
        <ele>1277.25</ele>
        <time>2019-04-05T09:00:40Z</time>
      </trkpt>
      <trkpt lat="60.18937" lon="7.49426">
        <ele>1277.25</ele>
        <time>2019-04-05T09:00:57Z</time>
      </trkpt>
      <trkpt lat="60.18949" lon="7.49441">
        <ele>1277.25</ele>
        <time>2019-04-05T09:01:11Z</time>
      </trkpt>
      <trkpt lat="60.18964" lon="7.49458">
        <ele>1277.25</ele>
        <time>2019-04-05T09:01:26Z</time>
      </trkpt>
      <trkpt lat="60.18976" lon="7.49471">
        <ele>1277.25</ele>
        <time>2019-04-05T09:01:38Z</time>
      </trkpt>
      <trkpt lat="60.1899" lon="7.49484">
        <ele>1277.25</ele>
        <time>2019-04-05T09:01:53Z</time>
      </trkpt>
      <trkpt lat="60.19002" lon="7.49501">
        <ele>1277.25</ele>
        <time>2019-04-05T09:02:08Z</time>
      </trkpt>
      <trkpt lat="60.19016" lon="7.49516">
        <ele>1277.25</ele>
        <time>2019-04-05T09:02:24Z</time>
      </trkpt>
      <trkpt lat="60.19031" lon="7.49533">
        <ele>1277.25</ele>
        <time>2019-04-05T09:02:39Z</time>
      </trkpt>
      <trkpt lat="60.19044" lon="7.4955">
        <ele>1277.25</ele>
        <time>2019-04-05T09:02:55Z</time>
      </trkpt>
      <trkpt lat="60.19058" lon="7.49567">
        <ele>1277.25</ele>
        <time>2019-04-05T09:03:12Z</time>
      </trkpt>
      <trkpt lat="60.19073" lon="7.49586">
        <ele>1277.25</ele>
        <time>2019-04-05T09:03:29Z</time>
      </trkpt>
      <trkpt lat="60.19081" lon="7.49597">
        <ele>1277.25</ele>
        <time>2019-04-05T09:03:42Z</time>
      </trkpt>
      <trkpt lat="60.19082" lon="7.49599">
        <ele>1277.25</ele>
        <time>2019-04-05T09:04:13Z</time>
      </trkpt>
      <trkpt lat="60.19084" lon="7.496">
        <ele>1277.25</ele>
        <time>2019-04-05T09:04:36Z</time>
      </trkpt>
      <trkpt lat="60.19092" lon="7.49614">
        <ele>1277.25</ele>
        <time>2019-04-05T09:04:48Z</time>
      </trkpt>
      <trkpt lat="60.19103" lon="7.49636">
        <ele>1277.25</ele>
        <time>2019-04-05T09:05:03Z</time>
      </trkpt>
      <trkpt lat="60.19112" lon="7.49653">
        <ele>1277.25</ele>
        <time>2019-04-05T09:05:17Z</time>
      </trkpt>
      <trkpt lat="60.19119" lon="7.49665">
        <ele>1277.25</ele>
        <time>2019-04-05T09:05:26Z</time>
      </trkpt>
      <trkpt lat="60.19124" lon="7.49669">
        <ele>1277.25</ele>
        <time>2019-04-05T09:05:44Z</time>
      </trkpt>
      <trkpt lat="60.19125" lon="7.49671">
        <ele>1277.25</ele>
        <time>2019-04-05T09:05:47Z</time>
      </trkpt>
      <trkpt lat="60.19134" lon="7.49696">
        <ele>1277.25</ele>
        <time>2019-04-05T09:06:01Z</time>
      </trkpt>
      <trkpt lat="60.19145" lon="7.49718">
        <ele>1278.21</ele>
        <time>2019-04-05T09:06:17Z</time>
      </trkpt>
      <trkpt lat="60.19156" lon="7.49742">
        <ele>1278.21</ele>
        <time>2019-04-05T09:06:34Z</time>
      </trkpt>
      <trkpt lat="60.19167" lon="7.49763">
        <ele>1279.17</ele>
        <time>2019-04-05T09:06:49Z</time>
      </trkpt>
      <trkpt lat="60.19176" lon="7.49782">
        <ele>1279.65</ele>
        <time>2019-04-05T09:07:03Z</time>
      </trkpt>
      <trkpt lat="60.19186" lon="7.49806">
        <ele>1280.13</ele>
        <time>2019-04-05T09:07:20Z</time>
      </trkpt>
      <trkpt lat="60.19193" lon="7.49823">
        <ele>1280.61</ele>
        <time>2019-04-05T09:07:36Z</time>
      </trkpt>
      <trkpt lat="60.19195" lon="7.49823">
        <ele>1280.61</ele>
        <time>2019-04-05T09:08:01Z</time>
      </trkpt>
      <trkpt lat="60.19195" lon="7.49826">
        <ele>1280.61</ele>
        <time>2019-04-05T09:08:30Z</time>
      </trkpt>
      <trkpt lat="60.19194" lon="7.49826">
        <ele>1280.61</ele>
        <time>2019-04-05T09:08:51Z</time>
      </trkpt>
      <trkpt lat="60.19194" lon="7.49826">
        <ele>1281.09</ele>
        <time>2019-04-05T09:09:14Z</time>
      </trkpt>
      <trkpt lat="60.19194" lon="7.49831">
        <ele>1280.61</ele>
        <time>2019-04-05T09:09:25Z</time>
      </trkpt>
      <trkpt lat="60.19193" lon="7.49836">
        <ele>1280.61</ele>
        <time>2019-04-05T09:09:28Z</time>
      </trkpt>
      <trkpt lat="60.19194" lon="7.4987">
        <ele>1280.13</ele>
        <time>2019-04-05T09:09:43Z</time>
      </trkpt>
      <trkpt lat="60.19197" lon="7.49901">
        <ele>1280.13</ele>
        <time>2019-04-05T09:09:56Z</time>
      </trkpt>
      <trkpt lat="60.19199" lon="7.49903">
        <ele>1282.06</ele>
        <time>2019-04-05T09:10:07Z</time>
      </trkpt>
      <trkpt lat="60.19198" lon="7.49903">
        <ele>1281.57</ele>
        <time>2019-04-05T09:10:27Z</time>
      </trkpt>
      <trkpt lat="60.19198" lon="7.49904">
        <ele>1281.57</ele>
        <time>2019-04-05T09:10:28Z</time>
      </trkpt>
      <trkpt lat="60.19199" lon="7.49903">
        <ele>1283.02</ele>
        <time>2019-04-05T09:10:42Z</time>
      </trkpt>
      <trkpt lat="60.19198" lon="7.49899">
        <ele>1281.09</ele>
        <time>2019-04-05T09:10:52Z</time>
      </trkpt>
      <trkpt lat="60.19195" lon="7.49898">
        <ele>1281.09</ele>
        <time>2019-04-05T09:11:02Z</time>
      </trkpt>
      <trkpt lat="60.19195" lon="7.49894">
        <ele>1281.09</ele>
        <time>2019-04-05T09:11:27Z</time>
      </trkpt>
      <trkpt lat="60.19196" lon="7.49896">
        <ele>1281.09</ele>
        <time>2019-04-05T09:11:57Z</time>
      </trkpt>
      <trkpt lat="60.19196" lon="7.49896">
        <ele>1281.09</ele>
        <time>2019-04-05T09:12:32Z</time>
      </trkpt>
      <trkpt lat="60.19193" lon="7.49894">
        <ele>1281.09</ele>
        <time>2019-04-05T09:13:07Z</time>
      </trkpt>
      <trkpt lat="60.19195" lon="7.49895">
        <ele>1281.09</ele>
        <time>2019-04-05T09:13:45Z</time>
      </trkpt>
      <trkpt lat="60.19196" lon="7.49891">
        <ele>1281.09</ele>
        <time>2019-04-05T09:14:14Z</time>
      </trkpt>
      <trkpt lat="60.19196" lon="7.49895">
        <ele>1281.09</ele>
        <time>2019-04-05T09:14:53Z</time>
      </trkpt>
      <trkpt lat="60.19196" lon="7.49895">
        <ele>1281.09</ele>
        <time>2019-04-05T09:15:31Z</time>
      </trkpt>
      <trkpt lat="60.19196" lon="7.49896">
        <ele>1281.09</ele>
        <time>2019-04-05T09:16:06Z</time>
      </trkpt>
      <trkpt lat="60.19197" lon="7.49893">
        <ele>1281.09</ele>
        <time>2019-04-05T09:16:45Z</time>
      </trkpt>
      <trkpt lat="60.19196" lon="7.49893">
        <ele>1281.09</ele>
        <time>2019-04-05T09:17:16Z</time>
      </trkpt>
      <trkpt lat="60.19196" lon="7.49893">
        <ele>1281.09</ele>
        <time>2019-04-05T09:17:55Z</time>
      </trkpt>
      <trkpt lat="60.19194" lon="7.49894">
        <ele>1280.61</ele>
        <time>2019-04-05T09:18:26Z</time>
      </trkpt>
      <trkpt lat="60.19194" lon="7.49894">
        <ele>1280.61</ele>
        <time>2019-04-05T09:18:59Z</time>
      </trkpt>
      <trkpt lat="60.19195" lon="7.49894">
        <ele>1280.61</ele>
        <time>2019-04-05T09:19:35Z</time>
      </trkpt>
      <trkpt lat="60.19195" lon="7.49894">
        <ele>1280.61</ele>
        <time>2019-04-05T09:20:15Z</time>
      </trkpt>
      <trkpt lat="60.19195" lon="7.49893">
        <ele>1280.61</ele>
        <time>2019-04-05T09:20:56Z</time>
      </trkpt>
      <trkpt lat="60.19194" lon="7.49895">
        <ele>1280.61</ele>
        <time>2019-04-05T09:21:27Z</time>
      </trkpt>
      <trkpt lat="60.19195" lon="7.49897">
        <ele>1280.61</ele>
        <time>2019-04-05T09:22:00Z</time>
      </trkpt>
      <trkpt lat="60.19195" lon="7.49896">
        <ele>1281.09</ele>
        <time>2019-04-05T09:22:33Z</time>
      </trkpt>
      <trkpt lat="60.19195" lon="7.49898">
        <ele>1281.09</ele>
        <time>2019-04-05T09:23:03Z</time>
      </trkpt>
      <trkpt lat="60.19195" lon="7.49898">
        <ele>1281.09</ele>
        <time>2019-04-05T09:23:33Z</time>
      </trkpt>
      <trkpt lat="60.19196" lon="7.49898">
        <ele>1281.09</ele>
        <time>2019-04-05T09:24:03Z</time>
      </trkpt>
      <trkpt lat="60.19196" lon="7.49896">
        <ele>1281.57</ele>
        <time>2019-04-05T09:24:46Z</time>
      </trkpt>
      <trkpt lat="60.19197" lon="7.49896">
        <ele>1281.57</ele>
        <time>2019-04-05T09:25:22Z</time>
      </trkpt>
      <trkpt lat="60.19197" lon="7.49896">
        <ele>1281.57</ele>
        <time>2019-04-05T09:26:00Z</time>
      </trkpt>
      <trkpt lat="60.19196" lon="7.49894">
        <ele>1281.57</ele>
        <time>2019-04-05T09:26:41Z</time>
      </trkpt>
      <trkpt lat="60.19198" lon="7.49895">
        <ele>1281.57</ele>
        <time>2019-04-05T09:27:25Z</time>
      </trkpt>
      <trkpt lat="60.19196" lon="7.49897">
        <ele>1283.02</ele>
        <time>2019-04-05T09:28:01Z</time>
      </trkpt>
      <trkpt lat="60.19198" lon="7.49899">
        <ele>1284.46</ele>
        <time>2019-04-05T09:28:21Z</time>
      </trkpt>
      <trkpt lat="60.19198" lon="7.499">
        <ele>1284.46</ele>
        <time>2019-04-05T09:28:35Z</time>
      </trkpt>
      <trkpt lat="60.19198" lon="7.499">
        <ele>1284.94</ele>
        <time>2019-04-05T09:28:40Z</time>
      </trkpt>
      <trkpt lat="60.19198" lon="7.49904">
        <ele>1284.94</ele>
        <time>2019-04-05T09:28:54Z</time>
      </trkpt>
      <trkpt lat="60.19198" lon="7.49903">
        <ele>1284.94</ele>
        <time>2019-04-05T09:28:55Z</time>
      </trkpt>
      <trkpt lat="60.19199" lon="7.49902">
        <ele>1283.5</ele>
        <time>2019-04-05T09:29:01Z</time>
      </trkpt>
      <trkpt lat="60.19194" lon="7.49934">
        <ele>1284.94</ele>
        <time>2019-04-05T09:29:15Z</time>
      </trkpt>
      <trkpt lat="60.19193" lon="7.49939">
        <ele>1284.94</ele>
        <time>2019-04-05T09:29:18Z</time>
      </trkpt>
      <trkpt lat="60.19197" lon="7.49946">
        <ele>1284.94</ele>
        <time>2019-04-05T09:29:24Z</time>
      </trkpt>
      <trkpt lat="60.19198" lon="7.49937">
        <ele>1283.02</ele>
        <time>2019-04-05T09:29:35Z</time>
      </trkpt>
      <trkpt lat="60.19197" lon="7.49935">
        <ele>1284.94</ele>
        <time>2019-04-05T09:29:46Z</time>
      </trkpt>
      <trkpt lat="60.19196" lon="7.49933">
        <ele>1284.46</ele>
        <time>2019-04-05T09:29:56Z</time>
      </trkpt>
      <trkpt lat="60.19196" lon="7.49934">
        <ele>1279.17</ele>
        <time>2019-04-05T09:29:58Z</time>
      </trkpt>
      <trkpt lat="60.19196" lon="7.49932">
        <ele>1287.34</ele>
        <time>2019-04-05T09:29:59Z</time>
      </trkpt>
      <trkpt lat="60.19196" lon="7.49932">
        <ele>1283.02</ele>
        <time>2019-04-05T09:30:02Z</time>
      </trkpt>
      <trkpt lat="60.19194" lon="7.49932">
        <ele>1284.94</ele>
        <time>2019-04-05T09:30:18Z</time>
      </trkpt>
      <trkpt lat="60.19194" lon="7.49933">
        <ele>1283.98</ele>
        <time>2019-04-05T09:30:35Z</time>
      </trkpt>
      <trkpt lat="60.19195" lon="7.49932">
        <ele>1284.94</ele>
        <time>2019-04-05T09:30:44Z</time>
      </trkpt>
      <trkpt lat="60.19194" lon="7.49929">
        <ele>1284.94</ele>
        <time>2019-04-05T09:31:06Z</time>
      </trkpt>
      <trkpt lat="60.19193" lon="7.49927">
        <ele>1284.94</ele>
        <time>2019-04-05T09:31:28Z</time>
      </trkpt>
      <trkpt lat="60.19195" lon="7.49931">
        <ele>1284.94</ele>
        <time>2019-04-05T09:31:48Z</time>
      </trkpt>
      <trkpt lat="60.19194" lon="7.49931">
        <ele>1283.02</ele>
        <time>2019-04-05T09:32:05Z</time>
      </trkpt>
      <trkpt lat="60.19196" lon="7.49931">
        <ele>1283.98</ele>
        <time>2019-04-05T09:32:31Z</time>
      </trkpt>
      <trkpt lat="60.19196" lon="7.4993">
        <ele>1283.98</ele>
        <time>2019-04-05T09:32:56Z</time>
      </trkpt>
      <trkpt lat="60.19195" lon="7.49929">
        <ele>1283.5</ele>
        <time>2019-04-05T09:33:22Z</time>
      </trkpt>
      <trkpt lat="60.19195" lon="7.49929">
        <ele>1283.5</ele>
        <time>2019-04-05T09:33:23Z</time>
      </trkpt>
      <trkpt lat="60.19195" lon="7.49928">
        <ele>1284.94</ele>
        <time>2019-04-05T09:33:28Z</time>
      </trkpt>
      <trkpt lat="60.19194" lon="7.4993">
        <ele>1284.46</ele>
        <time>2019-04-05T09:33:46Z</time>
      </trkpt>
      <trkpt lat="60.19195" lon="7.49927">
        <ele>1284.46</ele>
        <time>2019-04-05T09:34:12Z</time>
      </trkpt>
      <trkpt lat="60.19195" lon="7.49931">
        <ele>1284.46</ele>
        <time>2019-04-05T09:34:31Z</time>
      </trkpt>
      <trkpt lat="60.19199" lon="7.49935">
        <ele>1284.46</ele>
        <time>2019-04-05T09:34:45Z</time>
      </trkpt>
      <trkpt lat="60.19198" lon="7.49931">
        <ele>1284.46</ele>
        <time>2019-04-05T09:34:56Z</time>
      </trkpt>
      <trkpt lat="60.19177" lon="7.49955">
        <ele>1284.46</ele>
        <time>2019-04-05T09:35:09Z</time>
      </trkpt>
      <trkpt lat="60.19174" lon="7.49958">
        <ele>1284.46</ele>
        <time>2019-04-05T09:35:10Z</time>
      </trkpt>
      <trkpt lat="60.19162" lon="7.49995">
        <ele>1284.46</ele>
        <time>2019-04-05T09:35:15Z</time>
      </trkpt>
      <trkpt lat="60.1916" lon="7.50013">
        <ele>1284.94</ele>
        <time>2019-04-05T09:35:17Z</time>
      </trkpt>
      <trkpt lat="60.19148" lon="7.50085">
        <ele>1285.42</ele>
        <time>2019-04-05T09:35:27Z</time>
      </trkpt>
      <trkpt lat="60.19144" lon="7.50109">
        <ele>1285.42</ele>
        <time>2019-04-05T09:35:30Z</time>
      </trkpt>
      <trkpt lat="60.19138" lon="7.50131">
        <ele>1286.38</ele>
        <time>2019-04-05T09:35:33Z</time>
      </trkpt>
      <trkpt lat="60.19131" lon="7.50176">
        <ele>1286.38</ele>
        <time>2019-04-05T09:35:38Z</time>
      </trkpt>
      <trkpt lat="60.19124" lon="7.50196">
        <ele>1286.38</ele>
        <time>2019-04-05T09:35:43Z</time>
      </trkpt>
      <trkpt lat="60.19121" lon="7.50198">
        <ele>1286.86</ele>
        <time>2019-04-05T09:36:02Z</time>
      </trkpt>
      <trkpt lat="60.1912" lon="7.50199">
        <ele>1286.86</ele>
        <time>2019-04-05T09:36:27Z</time>
      </trkpt>
      <trkpt lat="60.1912" lon="7.50202">
        <ele>1287.34</ele>
        <time>2019-04-05T09:37:01Z</time>
      </trkpt>
      <trkpt lat="60.19115" lon="7.50203">
        <ele>1287.34</ele>
        <time>2019-04-05T09:37:25Z</time>
      </trkpt>
      <trkpt lat="60.191" lon="7.50242">
        <ele>1288.78</ele>
        <time>2019-04-05T09:37:31Z</time>
      </trkpt>
      <trkpt lat="60.19088" lon="7.503">
        <ele>1291.19</ele>
        <time>2019-04-05T09:37:37Z</time>
      </trkpt>
      <trkpt lat="60.19086" lon="7.50341">
        <ele>1288.3</ele>
        <time>2019-04-05T09:37:41Z</time>
      </trkpt>
      <trkpt lat="60.19086" lon="7.50362">
        <ele>1285.9</ele>
        <time>2019-04-05T09:37:44Z</time>
      </trkpt>
      <trkpt lat="60.19086" lon="7.50368">
        <ele>1288.3</ele>
        <time>2019-04-05T09:37:45Z</time>
      </trkpt>
      <trkpt lat="60.19079" lon="7.50369">
        <ele>1288.78</ele>
        <time>2019-04-05T09:37:53Z</time>
      </trkpt>
      <trkpt lat="60.19091" lon="7.50361">
        <ele>1290.71</ele>
        <time>2019-04-05T09:37:58Z</time>
      </trkpt>
      <trkpt lat="60.191" lon="7.50363">
        <ele>1290.71</ele>
        <time>2019-04-05T09:38:00Z</time>
      </trkpt>
      <trkpt lat="60.19142" lon="7.50373">
        <ele>1289.27</ele>
        <time>2019-04-05T09:38:08Z</time>
      </trkpt>
      <trkpt lat="60.19214" lon="7.50387">
        <ele>1289.75</ele>
        <time>2019-04-05T09:38:21Z</time>
      </trkpt>
      <trkpt lat="60.19218" lon="7.50388">
        <ele>1289.75</ele>
        <time>2019-04-05T09:38:22Z</time>
      </trkpt>
      <trkpt lat="60.19251" lon="7.50401">
        <ele>1288.78</ele>
        <time>2019-04-05T09:38:29Z</time>
      </trkpt>
      <trkpt lat="60.19264" lon="7.50404">
        <ele>1288.78</ele>
        <time>2019-04-05T09:38:32Z</time>
      </trkpt>
      <trkpt lat="60.19278" lon="7.50417">
        <ele>1287.82</ele>
        <time>2019-04-05T09:38:38Z</time>
      </trkpt>
      <trkpt lat="60.19278" lon="7.50416">
        <ele>1287.34</ele>
        <time>2019-04-05T09:38:40Z</time>
      </trkpt>
      <trkpt lat="60.19276" lon="7.50411">
        <ele>1286.86</ele>
        <time>2019-04-05T09:38:49Z</time>
      </trkpt>
      <trkpt lat="60.19273" lon="7.50409">
        <ele>1286.86</ele>
        <time>2019-04-05T09:39:08Z</time>
      </trkpt>
      <trkpt lat="60.19276" lon="7.50407">
        <ele>1286.86</ele>
        <time>2019-04-05T09:39:20Z</time>
      </trkpt>
      <trkpt lat="60.19277" lon="7.50406">
        <ele>1286.86</ele>
        <time>2019-04-05T09:39:29Z</time>
      </trkpt>
      <trkpt lat="60.19287" lon="7.50404">
        <ele>1288.3</ele>
        <time>2019-04-05T09:39:34Z</time>
      </trkpt>
      <trkpt lat="60.19321" lon="7.50416">
        <ele>1289.27</ele>
        <time>2019-04-05T09:39:45Z</time>
      </trkpt>
      <trkpt lat="60.19329" lon="7.50416">
        <ele>1289.27</ele>
        <time>2019-04-05T09:39:47Z</time>
      </trkpt>
      <trkpt lat="60.19342" lon="7.5042">
        <ele>1289.27</ele>
        <time>2019-04-05T09:39:50Z</time>
      </trkpt>
      <trkpt lat="60.19362" lon="7.50423">
        <ele>1288.78</ele>
        <time>2019-04-05T09:39:54Z</time>
      </trkpt>
      <trkpt lat="60.19384" lon="7.50428">
        <ele>1289.27</ele>
        <time>2019-04-05T09:39:58Z</time>
      </trkpt>
      <trkpt lat="60.19406" lon="7.50436">
        <ele>1287.82</ele>
        <time>2019-04-05T09:40:02Z</time>
      </trkpt>
      <trkpt lat="60.19421" lon="7.50441">
        <ele>1287.34</ele>
        <time>2019-04-05T09:40:05Z</time>
      </trkpt>
      <trkpt lat="60.19446" lon="7.50452">
        <ele>1287.34</ele>
        <time>2019-04-05T09:40:10Z</time>
      </trkpt>
      <trkpt lat="60.19459" lon="7.50458">
        <ele>1287.34</ele>
        <time>2019-04-05T09:40:13Z</time>
      </trkpt>
      <trkpt lat="60.19481" lon="7.50458">
        <ele>1287.34</ele>
        <time>2019-04-05T09:40:18Z</time>
      </trkpt>
      <trkpt lat="60.19495" lon="7.50454">
        <ele>1288.78</ele>
        <time>2019-04-05T09:40:21Z</time>
      </trkpt>
      <trkpt lat="60.195" lon="7.50452">
        <ele>1289.75</ele>
        <time>2019-04-05T09:40:22Z</time>
      </trkpt>
      <trkpt lat="60.19544" lon="7.50453">
        <ele>1293.59</ele>
        <time>2019-04-05T09:40:34Z</time>
      </trkpt>
      <trkpt lat="60.19546" lon="7.50454">
        <ele>1294.55</ele>
        <time>2019-04-05T09:40:35Z</time>
      </trkpt>
      <trkpt lat="60.19541" lon="7.50461">
        <ele>1291.19</ele>
        <time>2019-04-05T09:40:41Z</time>
      </trkpt>
      <trkpt lat="60.19539" lon="7.50482">
        <ele>1290.23</ele>
        <time>2019-04-05T09:40:43Z</time>
      </trkpt>
      <trkpt lat="60.19538" lon="7.50492">
        <ele>1290.23</ele>
        <time>2019-04-05T09:40:44Z</time>
      </trkpt>
      <trkpt lat="60.19536" lon="7.50527">
        <ele>1287.34</ele>
        <time>2019-04-05T09:40:47Z</time>
      </trkpt>
      <trkpt lat="60.19535" lon="7.50571">
        <ele>1283.5</ele>
        <time>2019-04-05T09:40:51Z</time>
      </trkpt>
      <trkpt lat="60.19535" lon="7.50582">
        <ele>1283.5</ele>
        <time>2019-04-05T09:40:52Z</time>
      </trkpt>
      <trkpt lat="60.19535" lon="7.50592">
        <ele>1283.5</ele>
        <time>2019-04-05T09:40:53Z</time>
      </trkpt>
      <trkpt lat="60.19532" lon="7.50625">
        <ele>1284.46</ele>
        <time>2019-04-05T09:40:56Z</time>
      </trkpt>
      <trkpt lat="60.19531" lon="7.50646">
        <ele>1283.5</ele>
        <time>2019-04-05T09:40:58Z</time>
      </trkpt>
      <trkpt lat="60.19529" lon="7.50666">
        <ele>1283.02</ele>
        <time>2019-04-05T09:41:00Z</time>
      </trkpt>
      <trkpt lat="60.19519" lon="7.50733">
        <ele>1284.46</ele>
        <time>2019-04-05T09:41:08Z</time>
      </trkpt>
      <trkpt lat="60.19513" lon="7.50757">
        <ele>1283.02</ele>
        <time>2019-04-05T09:41:11Z</time>
      </trkpt>
      <trkpt lat="60.19499" lon="7.50819">
        <ele>1283.5</ele>
        <time>2019-04-05T09:41:18Z</time>
      </trkpt>
      <trkpt lat="60.19493" lon="7.50858">
        <ele>1283.5</ele>
        <time>2019-04-05T09:41:22Z</time>
      </trkpt>
      <trkpt lat="60.19488" lon="7.50875">
        <ele>1284.46</ele>
        <time>2019-04-05T09:41:24Z</time>
      </trkpt>
      <trkpt lat="60.19456" lon="7.51041">
        <ele>1281.57</ele>
        <time>2019-04-05T09:41:41Z</time>
      </trkpt>
      <trkpt lat="60.19442" lon="7.51103">
        <ele>1278.69</ele>
        <time>2019-04-05T09:41:47Z</time>
      </trkpt>
      <trkpt lat="60.19432" lon="7.51146">
        <ele>1280.13</ele>
        <time>2019-04-05T09:41:51Z</time>
      </trkpt>
      <trkpt lat="60.19425" lon="7.51175">
        <ele>1280.13</ele>
        <time>2019-04-05T09:41:54Z</time>
      </trkpt>
      <trkpt lat="60.19406" lon="7.51271">
        <ele>1280.61</ele>
        <time>2019-04-05T09:42:04Z</time>
      </trkpt>
      <trkpt lat="60.194" lon="7.51304">
        <ele>1278.69</ele>
        <time>2019-04-05T09:42:07Z</time>
      </trkpt>
      <trkpt lat="60.19398" lon="7.51315">
        <ele>1278.69</ele>
        <time>2019-04-05T09:42:08Z</time>
      </trkpt>
      <trkpt lat="60.19389" lon="7.51358">
        <ele>1278.69</ele>
        <time>2019-04-05T09:42:13Z</time>
      </trkpt>
      <trkpt lat="60.19385" lon="7.51366">
        <ele>1280.13</ele>
        <time>2019-04-05T09:42:15Z</time>
      </trkpt>
      <trkpt lat="60.1937" lon="7.51366">
        <ele>1281.57</ele>
        <time>2019-04-05T09:42:20Z</time>
      </trkpt>
      <trkpt lat="60.19359" lon="7.51378">
        <ele>1284.94</ele>
        <time>2019-04-05T09:42:23Z</time>
      </trkpt>
      <trkpt lat="60.19348" lon="7.51411">
        <ele>1287.82</ele>
        <time>2019-04-05T09:42:28Z</time>
      </trkpt>
      <trkpt lat="60.19338" lon="7.51428">
        <ele>1288.78</ele>
        <time>2019-04-05T09:42:32Z</time>
      </trkpt>
      <trkpt lat="60.19323" lon="7.51457">
        <ele>1291.19</ele>
        <time>2019-04-05T09:42:37Z</time>
      </trkpt>
      <trkpt lat="60.19296" lon="7.51524">
        <ele>1295.03</ele>
        <time>2019-04-05T09:42:48Z</time>
      </trkpt>
      <trkpt lat="60.19276" lon="7.51553">
        <ele>1296.96</ele>
        <time>2019-04-05T09:42:57Z</time>
      </trkpt>
      <trkpt lat="60.19274" lon="7.51551">
        <ele>1297.92</ele>
        <time>2019-04-05T09:43:11Z</time>
      </trkpt>
      <trkpt lat="60.19275" lon="7.51551">
        <ele>1297.92</ele>
        <time>2019-04-05T09:43:44Z</time>
      </trkpt>
      <trkpt lat="60.19275" lon="7.5155">
        <ele>1297.92</ele>
        <time>2019-04-05T09:44:11Z</time>
      </trkpt>
      <trkpt lat="60.19275" lon="7.5155">
        <ele>1297.92</ele>
        <time>2019-04-05T09:44:49Z</time>
      </trkpt>
      <trkpt lat="60.19275" lon="7.51548">
        <ele>1297.92</ele>
        <time>2019-04-05T09:45:06Z</time>
      </trkpt>
      <trkpt lat="60.19285" lon="7.51552">
        <ele>1295.51</ele>
        <time>2019-04-05T09:45:15Z</time>
      </trkpt>
      <trkpt lat="60.19285" lon="7.51555">
        <ele>1295.51</ele>
        <time>2019-04-05T09:45:35Z</time>
      </trkpt>
      <trkpt lat="60.19287" lon="7.51556">
        <ele>1295.51</ele>
        <time>2019-04-05T09:45:58Z</time>
      </trkpt>
      <trkpt lat="60.19288" lon="7.51555">
        <ele>1295.99</ele>
        <time>2019-04-05T09:46:09Z</time>
      </trkpt>
      <trkpt lat="60.193" lon="7.51548">
        <ele>1295.51</ele>
        <time>2019-04-05T09:46:15Z</time>
      </trkpt>
      <trkpt lat="60.19314" lon="7.5153">
        <ele>1294.55</ele>
        <time>2019-04-05T09:46:18Z</time>
      </trkpt>
      <trkpt lat="60.19352" lon="7.51498">
        <ele>1291.19</ele>
        <time>2019-04-05T09:46:23Z</time>
      </trkpt>
      <trkpt lat="60.19383" lon="7.51466">
        <ele>1286.86</ele>
        <time>2019-04-05T09:46:27Z</time>
      </trkpt>
      <trkpt lat="60.19408" lon="7.51451">
        <ele>1284.94</ele>
        <time>2019-04-05T09:46:30Z</time>
      </trkpt>
      <trkpt lat="60.19416" lon="7.51449">
        <ele>1283.98</ele>
        <time>2019-04-05T09:46:31Z</time>
      </trkpt>
      <trkpt lat="60.19425" lon="7.51435">
        <ele>1278.69</ele>
        <time>2019-04-05T09:46:33Z</time>
      </trkpt>
      <trkpt lat="60.19424" lon="7.51426">
        <ele>1276.77</ele>
        <time>2019-04-05T09:46:35Z</time>
      </trkpt>
      <trkpt lat="60.19422" lon="7.51419">
        <ele>1276.77</ele>
        <time>2019-04-05T09:46:38Z</time>
      </trkpt>
      <trkpt lat="60.19397" lon="7.51405">
        <ele>1279.17</ele>
        <time>2019-04-05T09:46:46Z</time>
      </trkpt>
      <trkpt lat="60.19395" lon="7.51405">
        <ele>1279.65</ele>
        <time>2019-04-05T09:46:47Z</time>
      </trkpt>
      <trkpt lat="60.19369" lon="7.51413">
        <ele>1283.98</ele>
        <time>2019-04-05T09:46:56Z</time>
      </trkpt>
      <trkpt lat="60.19364" lon="7.51423">
        <ele>1284.94</ele>
        <time>2019-04-05T09:46:58Z</time>
      </trkpt>
      <trkpt lat="60.19356" lon="7.51435">
        <ele>1286.86</ele>
        <time>2019-04-05T09:47:01Z</time>
      </trkpt>
      <trkpt lat="60.19353" lon="7.51436">
        <ele>1287.34</ele>
        <time>2019-04-05T09:47:03Z</time>
      </trkpt>
      <trkpt lat="60.19342" lon="7.51433">
        <ele>1287.82</ele>
        <time>2019-04-05T09:47:09Z</time>
      </trkpt>
      <trkpt lat="60.1934" lon="7.51433">
        <ele>1288.78</ele>
        <time>2019-04-05T09:47:23Z</time>
      </trkpt>
      <trkpt lat="60.1934" lon="7.51431">
        <ele>1288.78</ele>
        <time>2019-04-05T09:47:32Z</time>
      </trkpt>
      <trkpt lat="60.19353" lon="7.51428">
        <ele>1288.78</ele>
        <time>2019-04-05T09:47:38Z</time>
      </trkpt>
      <trkpt lat="60.1938" lon="7.51445">
        <ele>1287.34</ele>
        <time>2019-04-05T09:47:44Z</time>
      </trkpt>
      <trkpt lat="60.19398" lon="7.51456">
        <ele>1284.94</ele>
        <time>2019-04-05T09:47:47Z</time>
      </trkpt>
      <trkpt lat="60.19417" lon="7.51465">
        <ele>1283.5</ele>
        <time>2019-04-05T09:47:50Z</time>
      </trkpt>
      <trkpt lat="60.19429" lon="7.51473">
        <ele>1280.13</ele>
        <time>2019-04-05T09:47:52Z</time>
      </trkpt>
      <trkpt lat="60.19436" lon="7.51477">
        <ele>1280.13</ele>
        <time>2019-04-05T09:47:53Z</time>
      </trkpt>
      <trkpt lat="60.19452" lon="7.51484">
        <ele>1278.69</ele>
        <time>2019-04-05T09:47:56Z</time>
      </trkpt>
      <trkpt lat="60.19487" lon="7.51492">
        <ele>1279.17</ele>
        <time>2019-04-05T09:48:03Z</time>
      </trkpt>
      <trkpt lat="60.19497" lon="7.51492">
        <ele>1279.17</ele>
        <time>2019-04-05T09:48:05Z</time>
      </trkpt>
      <trkpt lat="60.19528" lon="7.51497">
        <ele>1279.17</ele>
        <time>2019-04-05T09:48:12Z</time>
      </trkpt>
      <trkpt lat="60.19554" lon="7.51507">
        <ele>1279.17</ele>
        <time>2019-04-05T09:48:18Z</time>
      </trkpt>
      <trkpt lat="60.19562" lon="7.51513">
        <ele>1279.17</ele>
        <time>2019-04-05T09:48:20Z</time>
      </trkpt>
      <trkpt lat="60.19571" lon="7.51516">
        <ele>1278.21</ele>
        <time>2019-04-05T09:48:22Z</time>
      </trkpt>
      <trkpt lat="60.19587" lon="7.51528">
        <ele>1278.21</ele>
        <time>2019-04-05T09:48:26Z</time>
      </trkpt>
      <trkpt lat="60.19587" lon="7.51526">
        <ele>1276.77</ele>
        <time>2019-04-05T09:48:28Z</time>
      </trkpt>
      <trkpt lat="60.19577" lon="7.5154">
        <ele>1274.36</ele>
        <time>2019-04-05T09:48:31Z</time>
      </trkpt>
      <trkpt lat="60.19567" lon="7.5156">
        <ele>1275.81</ele>
        <time>2019-04-05T09:48:34Z</time>
      </trkpt>
      <trkpt lat="60.19555" lon="7.51588">
        <ele>1275.81</ele>
        <time>2019-04-05T09:48:37Z</time>
      </trkpt>
      <trkpt lat="60.19532" lon="7.51672">
        <ele>1275.33</ele>
        <time>2019-04-05T09:48:45Z</time>
      </trkpt>
      <trkpt lat="60.19524" lon="7.517">
        <ele>1277.73</ele>
        <time>2019-04-05T09:48:48Z</time>
      </trkpt>
      <trkpt lat="60.19517" lon="7.5172">
        <ele>1276.29</ele>
        <time>2019-04-05T09:48:50Z</time>
      </trkpt>
      <trkpt lat="60.19505" lon="7.51757">
        <ele>1278.21</ele>
        <time>2019-04-05T09:48:54Z</time>
      </trkpt>
      <trkpt lat="60.19494" lon="7.51799">
        <ele>1279.17</ele>
        <time>2019-04-05T09:48:59Z</time>
      </trkpt>
      <trkpt lat="60.1949" lon="7.51809">
        <ele>1279.17</ele>
        <time>2019-04-05T09:49:01Z</time>
      </trkpt>
      <trkpt lat="60.19483" lon="7.51826">
        <ele>1279.65</ele>
        <time>2019-04-05T09:49:06Z</time>
      </trkpt>
      <trkpt lat="60.19468" lon="7.51839">
        <ele>1281.57</ele>
        <time>2019-04-05T09:49:11Z</time>
      </trkpt>
      <trkpt lat="60.19448" lon="7.51876">
        <ele>1283.98</ele>
        <time>2019-04-05T09:49:20Z</time>
      </trkpt>
      <trkpt lat="60.19433" lon="7.51925">
        <ele>1285.9</ele>
        <time>2019-04-05T09:49:29Z</time>
      </trkpt>
      <trkpt lat="60.19423" lon="7.51948">
        <ele>1287.34</ele>
        <time>2019-04-05T09:49:35Z</time>
      </trkpt>
      <trkpt lat="60.19415" lon="7.51951">
        <ele>1287.82</ele>
        <time>2019-04-05T09:49:37Z</time>
      </trkpt>
      <trkpt lat="60.19394" lon="7.51997">
        <ele>1289.75</ele>
        <time>2019-04-05T09:49:44Z</time>
      </trkpt>
      <trkpt lat="60.19381" lon="7.52023">
        <ele>1290.23</ele>
        <time>2019-04-05T09:49:48Z</time>
      </trkpt>
      <trkpt lat="60.19365" lon="7.52056">
        <ele>1290.71</ele>
        <time>2019-04-05T09:49:53Z</time>
      </trkpt>
      <trkpt lat="60.19353" lon="7.52082">
        <ele>1291.19</ele>
        <time>2019-04-05T09:49:57Z</time>
      </trkpt>
      <trkpt lat="60.19334" lon="7.52113">
        <ele>1292.63</ele>
        <time>2019-04-05T09:50:02Z</time>
      </trkpt>
      <trkpt lat="60.19325" lon="7.52133">
        <ele>1293.59</ele>
        <time>2019-04-05T09:50:05Z</time>
      </trkpt>
      <trkpt lat="60.19315" lon="7.52148">
        <ele>1293.59</ele>
        <time>2019-04-05T09:50:08Z</time>
      </trkpt>
      <trkpt lat="60.19294" lon="7.52188">
        <ele>1295.03</ele>
        <time>2019-04-05T09:50:14Z</time>
      </trkpt>
      <trkpt lat="60.19286" lon="7.52201">
        <ele>1295.03</ele>
        <time>2019-04-05T09:50:16Z</time>
      </trkpt>
      <trkpt lat="60.19258" lon="7.52262">
        <ele>1295.03</ele>
        <time>2019-04-05T09:50:23Z</time>
      </trkpt>
      <trkpt lat="60.19245" lon="7.52282">
        <ele>1292.63</ele>
        <time>2019-04-05T09:50:27Z</time>
      </trkpt>
      <trkpt lat="60.19253" lon="7.52274">
        <ele>1294.55</ele>
        <time>2019-04-05T09:50:32Z</time>
      </trkpt>
      <trkpt lat="60.19269" lon="7.52255">
        <ele>1294.55</ele>
        <time>2019-04-05T09:50:38Z</time>
      </trkpt>
      <trkpt lat="60.19312" lon="7.5225">
        <ele>1295.51</ele>
        <time>2019-04-05T09:50:50Z</time>
      </trkpt>
      <trkpt lat="60.19345" lon="7.52254">
        <ele>1295.99</ele>
        <time>2019-04-05T09:51:00Z</time>
      </trkpt>
      <trkpt lat="60.1935" lon="7.52254">
        <ele>1295.99</ele>
        <time>2019-04-05T09:51:01Z</time>
      </trkpt>
      <trkpt lat="60.1938" lon="7.52264">
        <ele>1294.55</ele>
        <time>2019-04-05T09:51:08Z</time>
      </trkpt>
      <trkpt lat="60.19393" lon="7.52269">
        <ele>1294.55</ele>
        <time>2019-04-05T09:51:11Z</time>
      </trkpt>
      <trkpt lat="60.19402" lon="7.52271">
        <ele>1294.07</ele>
        <time>2019-04-05T09:51:13Z</time>
      </trkpt>
      <trkpt lat="60.19415" lon="7.52276">
        <ele>1294.07</ele>
        <time>2019-04-05T09:51:16Z</time>
      </trkpt>
      <trkpt lat="60.19425" lon="7.52278">
        <ele>1293.11</ele>
        <time>2019-04-05T09:51:18Z</time>
      </trkpt>
      <trkpt lat="60.19455" lon="7.52295">
        <ele>1292.15</ele>
        <time>2019-04-05T09:51:26Z</time>
      </trkpt>
      <trkpt lat="60.19463" lon="7.52301">
        <ele>1292.15</ele>
        <time>2019-04-05T09:51:28Z</time>
      </trkpt>
      <trkpt lat="60.19498" lon="7.5232">
        <ele>1290.71</ele>
        <time>2019-04-05T09:51:36Z</time>
      </trkpt>
      <trkpt lat="60.19513" lon="7.52328">
        <ele>1289.75</ele>
        <time>2019-04-05T09:51:39Z</time>
      </trkpt>
      <trkpt lat="60.19536" lon="7.52343">
        <ele>1288.78</ele>
        <time>2019-04-05T09:51:44Z</time>
      </trkpt>
      <trkpt lat="60.19561" lon="7.52357">
        <ele>1287.82</ele>
        <time>2019-04-05T09:51:51Z</time>
      </trkpt>
      <trkpt lat="60.19571" lon="7.52361">
        <ele>1287.34</ele>
        <time>2019-04-05T09:51:54Z</time>
      </trkpt>
      <trkpt lat="60.19615" lon="7.52401">
        <ele>1285.9</ele>
        <time>2019-04-05T09:52:07Z</time>
      </trkpt>
      <trkpt lat="60.19643" lon="7.52423">
        <ele>1284.46</ele>
        <time>2019-04-05T09:52:15Z</time>
      </trkpt>
      <trkpt lat="60.19676" lon="7.52461">
        <ele>1283.98</ele>
        <time>2019-04-05T09:52:27Z</time>
      </trkpt>
      <trkpt lat="60.19706" lon="7.52485">
        <ele>1282.54</ele>
        <time>2019-04-05T09:52:37Z</time>
      </trkpt>
      <trkpt lat="60.19717" lon="7.52496">
        <ele>1282.06</ele>
        <time>2019-04-05T09:52:40Z</time>
      </trkpt>
      <trkpt lat="60.19743" lon="7.52528">
        <ele>1280.61</ele>
        <time>2019-04-05T09:52:48Z</time>
      </trkpt>
      <trkpt lat="60.19745" lon="7.52526">
        <ele>1279.17</ele>
        <time>2019-04-05T09:52:52Z</time>
      </trkpt>
      <trkpt lat="60.19732" lon="7.52535">
        <ele>1280.61</ele>
        <time>2019-04-05T09:52:57Z</time>
      </trkpt>
      <trkpt lat="60.1971" lon="7.52544">
        <ele>1282.54</ele>
        <time>2019-04-05T09:53:03Z</time>
      </trkpt>
      <trkpt lat="60.19707" lon="7.52549">
        <ele>1282.54</ele>
        <time>2019-04-05T09:53:04Z</time>
      </trkpt>
      <trkpt lat="60.19702" lon="7.52557">
        <ele>1282.54</ele>
        <time>2019-04-05T09:53:06Z</time>
      </trkpt>
      <trkpt lat="60.19673" lon="7.52574">
        <ele>1284.94</ele>
        <time>2019-04-05T09:53:14Z</time>
      </trkpt>
      <trkpt lat="60.1967" lon="7.5258">
        <ele>1285.42</ele>
        <time>2019-04-05T09:53:15Z</time>
      </trkpt>
      <trkpt lat="60.19665" lon="7.52587">
        <ele>1285.42</ele>
        <time>2019-04-05T09:53:17Z</time>
      </trkpt>
      <trkpt lat="60.19649" lon="7.52589">
        <ele>1286.86</ele>
        <time>2019-04-05T09:53:22Z</time>
      </trkpt>
      <trkpt lat="60.19635" lon="7.52598">
        <ele>1286.86</ele>
        <time>2019-04-05T09:53:26Z</time>
      </trkpt>
      <trkpt lat="60.19624" lon="7.52612">
        <ele>1288.78</ele>
        <time>2019-04-05T09:53:29Z</time>
      </trkpt>
      <trkpt lat="60.19618" lon="7.52619">
        <ele>1288.78</ele>
        <time>2019-04-05T09:53:31Z</time>
      </trkpt>
      <trkpt lat="60.19606" lon="7.52634">
        <ele>1289.75</ele>
        <time>2019-04-05T09:53:35Z</time>
      </trkpt>
      <trkpt lat="60.1959" lon="7.52653">
        <ele>1290.71</ele>
        <time>2019-04-05T09:53:41Z</time>
      </trkpt>
      <trkpt lat="60.19577" lon="7.52658">
        <ele>1291.19</ele>
        <time>2019-04-05T09:53:46Z</time>
      </trkpt>
      <trkpt lat="60.19546" lon="7.52699">
        <ele>1293.11</ele>
        <time>2019-04-05T09:53:55Z</time>
      </trkpt>
      <trkpt lat="60.19537" lon="7.52703">
        <ele>1293.11</ele>
        <time>2019-04-05T09:54:02Z</time>
      </trkpt>
      <trkpt lat="60.19539" lon="7.52704">
        <ele>1293.11</ele>
        <time>2019-04-05T09:54:03Z</time>
      </trkpt>
      <trkpt lat="60.19549" lon="7.52717">
        <ele>1293.11</ele>
        <time>2019-04-05T09:54:10Z</time>
      </trkpt>
      <trkpt lat="60.19575" lon="7.52732">
        <ele>1293.11</ele>
        <time>2019-04-05T09:54:21Z</time>
      </trkpt>
      <trkpt lat="60.19591" lon="7.52747">
        <ele>1291.67</ele>
        <time>2019-04-05T09:54:27Z</time>
      </trkpt>
      <trkpt lat="60.19626" lon="7.52781">
        <ele>1290.23</ele>
        <time>2019-04-05T09:54:38Z</time>
      </trkpt>
      <trkpt lat="60.19662" lon="7.52814">
        <ele>1288.78</ele>
        <time>2019-04-05T09:54:50Z</time>
      </trkpt>
      <trkpt lat="60.19669" lon="7.52815">
        <ele>1288.3</ele>
        <time>2019-04-05T09:54:52Z</time>
      </trkpt>
      <trkpt lat="60.19687" lon="7.52824">
        <ele>1288.3</ele>
        <time>2019-04-05T09:54:56Z</time>
      </trkpt>
      <trkpt lat="60.19728" lon="7.52866">
        <ele>1286.86</ele>
        <time>2019-04-05T09:55:08Z</time>
      </trkpt>
      <trkpt lat="60.19782" lon="7.52934">
        <ele>1283.02</ele>
        <time>2019-04-05T09:55:23Z</time>
      </trkpt>
      <trkpt lat="60.19813" lon="7.52964">
        <ele>1280.61</ele>
        <time>2019-04-05T09:55:31Z</time>
      </trkpt>
      <trkpt lat="60.19825" lon="7.52978">
        <ele>1280.13</ele>
        <time>2019-04-05T09:55:34Z</time>
      </trkpt>
      <trkpt lat="60.19853" lon="7.53005">
        <ele>1278.21</ele>
        <time>2019-04-05T09:55:41Z</time>
      </trkpt>
      <trkpt lat="60.1989" lon="7.53055">
        <ele>1275.81</ele>
        <time>2019-04-05T09:55:50Z</time>
      </trkpt>
      <trkpt lat="60.19916" lon="7.5309">
        <ele>1272.44</ele>
        <time>2019-04-05T09:55:56Z</time>
      </trkpt>
      <trkpt lat="60.19938" lon="7.53119">
        <ele>1269.56</ele>
        <time>2019-04-05T09:56:01Z</time>
      </trkpt>
      <trkpt lat="60.19942" lon="7.53125">
        <ele>1269.56</ele>
        <time>2019-04-05T09:56:02Z</time>
      </trkpt>
      <trkpt lat="60.1996" lon="7.53147">
        <ele>1267.16</ele>
        <time>2019-04-05T09:56:06Z</time>
      </trkpt>
      <trkpt lat="60.19977" lon="7.53167">
        <ele>1266.19</ele>
        <time>2019-04-05T09:56:10Z</time>
      </trkpt>
      <trkpt lat="60.2" lon="7.53192">
        <ele>1266.19</ele>
        <time>2019-04-05T09:56:16Z</time>
      </trkpt>
      <trkpt lat="60.20027" lon="7.53231">
        <ele>1263.31</ele>
        <time>2019-04-05T09:56:23Z</time>
      </trkpt>
      <trkpt lat="60.20041" lon="7.53251">
        <ele>1260.91</ele>
        <time>2019-04-05T09:56:26Z</time>
      </trkpt>
      <trkpt lat="60.20065" lon="7.53285">
        <ele>1258.02</ele>
        <time>2019-04-05T09:56:31Z</time>
      </trkpt>
      <trkpt lat="60.20092" lon="7.53314">
        <ele>1256.58</ele>
        <time>2019-04-05T09:56:39Z</time>
      </trkpt>
      <trkpt lat="60.20107" lon="7.53329">
        <ele>1256.1</ele>
        <time>2019-04-05T09:56:43Z</time>
      </trkpt>
      <trkpt lat="60.2014" lon="7.53355">
        <ele>1255.62</ele>
        <time>2019-04-05T09:56:50Z</time>
      </trkpt>
      <trkpt lat="60.20153" lon="7.53369">
        <ele>1255.62</ele>
        <time>2019-04-05T09:56:53Z</time>
      </trkpt>
      <trkpt lat="60.20166" lon="7.53384">
        <ele>1254.66</ele>
        <time>2019-04-05T09:56:56Z</time>
      </trkpt>
      <trkpt lat="60.2018" lon="7.53403">
        <ele>1254.66</ele>
        <time>2019-04-05T09:57:00Z</time>
      </trkpt>
      <trkpt lat="60.20181" lon="7.53398">
        <ele>1252.74</ele>
        <time>2019-04-05T09:57:04Z</time>
      </trkpt>
      <trkpt lat="60.20165" lon="7.5341">
        <ele>1253.7</ele>
        <time>2019-04-05T09:57:08Z</time>
      </trkpt>
      <trkpt lat="60.20141" lon="7.53426">
        <ele>1254.18</ele>
        <time>2019-04-05T09:57:13Z</time>
      </trkpt>
      <trkpt lat="60.20129" lon="7.53442">
        <ele>1255.62</ele>
        <time>2019-04-05T09:57:15Z</time>
      </trkpt>
      <trkpt lat="60.20104" lon="7.53463">
        <ele>1256.58</ele>
        <time>2019-04-05T09:57:19Z</time>
      </trkpt>
      <trkpt lat="60.20079" lon="7.53481">
        <ele>1258.98</ele>
        <time>2019-04-05T09:57:23Z</time>
      </trkpt>
      <trkpt lat="60.20062" lon="7.53491">
        <ele>1261.87</ele>
        <time>2019-04-05T09:57:26Z</time>
      </trkpt>
      <trkpt lat="60.20057" lon="7.53492">
        <ele>1261.87</ele>
        <time>2019-04-05T09:57:27Z</time>
      </trkpt>
      <trkpt lat="60.20036" lon="7.53501">
        <ele>1264.75</ele>
        <time>2019-04-05T09:57:31Z</time>
      </trkpt>
      <trkpt lat="60.20026" lon="7.53504">
        <ele>1266.19</ele>
        <time>2019-04-05T09:57:33Z</time>
      </trkpt>
      <trkpt lat="60.20016" lon="7.5351">
        <ele>1267.16</ele>
        <time>2019-04-05T09:57:35Z</time>
      </trkpt>
      <trkpt lat="60.19995" lon="7.53512">
        <ele>1269.08</ele>
        <time>2019-04-05T09:57:39Z</time>
      </trkpt>
      <trkpt lat="60.19959" lon="7.53517">
        <ele>1273.88</ele>
        <time>2019-04-05T09:57:46Z</time>
      </trkpt>
      <trkpt lat="60.19949" lon="7.5352">
        <ele>1275.33</ele>
        <time>2019-04-05T09:57:48Z</time>
      </trkpt>
      <trkpt lat="60.1994" lon="7.53521">
        <ele>1275.81</ele>
        <time>2019-04-05T09:57:50Z</time>
      </trkpt>
      <trkpt lat="60.19925" lon="7.53531">
        <ele>1277.73</ele>
        <time>2019-04-05T09:57:53Z</time>
      </trkpt>
      <trkpt lat="60.19915" lon="7.53536">
        <ele>1279.17</ele>
        <time>2019-04-05T09:57:55Z</time>
      </trkpt>
      <trkpt lat="60.19889" lon="7.53545">
        <ele>1282.54</ele>
        <time>2019-04-05T09:58:00Z</time>
      </trkpt>
      <trkpt lat="60.19862" lon="7.53561">
        <ele>1285.42</ele>
        <time>2019-04-05T09:58:05Z</time>
      </trkpt>
      <trkpt lat="60.19832" lon="7.5359">
        <ele>1288.78</ele>
        <time>2019-04-05T09:58:11Z</time>
      </trkpt>
      <trkpt lat="60.19817" lon="7.53607">
        <ele>1290.23</ele>
        <time>2019-04-05T09:58:15Z</time>
      </trkpt>
      <trkpt lat="60.19779" lon="7.53647">
        <ele>1292.63</ele>
        <time>2019-04-05T09:58:23Z</time>
      </trkpt>
      <trkpt lat="60.19753" lon="7.53682">
        <ele>1295.51</ele>
        <time>2019-04-05T09:58:31Z</time>
      </trkpt>
      <trkpt lat="60.19729" lon="7.5371">
        <ele>1296.96</ele>
        <time>2019-04-05T09:58:41Z</time>
      </trkpt>
      <trkpt lat="60.19709" lon="7.53742">
        <ele>1298.88</ele>
        <time>2019-04-05T09:58:48Z</time>
      </trkpt>
      <trkpt lat="60.19703" lon="7.5375">
        <ele>1298.88</ele>
        <time>2019-04-05T09:58:52Z</time>
      </trkpt>
      <trkpt lat="60.19699" lon="7.53751">
        <ele>1299.36</ele>
        <time>2019-04-05T09:59:11Z</time>
      </trkpt>
      <trkpt lat="60.19698" lon="7.5375">
        <ele>1299.36</ele>
        <time>2019-04-05T09:59:48Z</time>
      </trkpt>
      <trkpt lat="60.19688" lon="7.53761">
        <ele>1300.32</ele>
        <time>2019-04-05T09:59:53Z</time>
      </trkpt>
      <trkpt lat="60.19658" lon="7.5382">
        <ele>1302.72</ele>
        <time>2019-04-05T10:00:05Z</time>
      </trkpt>
      <trkpt lat="60.19632" lon="7.53888">
        <ele>1303.69</ele>
        <time>2019-04-05T10:00:19Z</time>
      </trkpt>
      <trkpt lat="60.19609" lon="7.53927">
        <ele>1304.65</ele>
        <time>2019-04-05T10:00:34Z</time>
      </trkpt>
      <trkpt lat="60.19608" lon="7.53927">
        <ele>1304.65</ele>
        <time>2019-04-05T10:00:50Z</time>
      </trkpt>
      <trkpt lat="60.19605" lon="7.53928">
        <ele>1304.65</ele>
        <time>2019-04-05T10:01:03Z</time>
      </trkpt>
      <trkpt lat="60.19626" lon="7.53943">
        <ele>1305.13</ele>
        <time>2019-04-05T10:01:13Z</time>
      </trkpt>
      <trkpt lat="60.19656" lon="7.53992">
        <ele>1301.76</ele>
        <time>2019-04-05T10:01:26Z</time>
      </trkpt>
      <trkpt lat="60.19666" lon="7.54016">
        <ele>1299.84</ele>
        <time>2019-04-05T10:01:38Z</time>
      </trkpt>
      <trkpt lat="60.19666" lon="7.54016">
        <ele>1300.32</ele>
        <time>2019-04-05T10:02:06Z</time>
      </trkpt>
      <trkpt lat="60.19667" lon="7.54017">
        <ele>1300.32</ele>
        <time>2019-04-05T10:02:28Z</time>
      </trkpt>
      <trkpt lat="60.19667" lon="7.54018">
        <ele>1300.32</ele>
        <time>2019-04-05T10:02:56Z</time>
      </trkpt>
      <trkpt lat="60.19668" lon="7.54016">
        <ele>1300.32</ele>
        <time>2019-04-05T10:03:19Z</time>
      </trkpt>
      <trkpt lat="60.19668" lon="7.54017">
        <ele>1300.32</ele>
        <time>2019-04-05T10:03:40Z</time>
      </trkpt>
      <trkpt lat="60.19669" lon="7.54015">
        <ele>1300.32</ele>
        <time>2019-04-05T10:04:02Z</time>
      </trkpt>
      <trkpt lat="60.19667" lon="7.54013">
        <ele>1300.32</ele>
        <time>2019-04-05T10:04:26Z</time>
      </trkpt>
      <trkpt lat="60.19669" lon="7.54015">
        <ele>1300.32</ele>
        <time>2019-04-05T10:04:58Z</time>
      </trkpt>
      <trkpt lat="60.19669" lon="7.54014">
        <ele>1300.32</ele>
        <time>2019-04-05T10:05:23Z</time>
      </trkpt>
      <trkpt lat="60.19668" lon="7.54015">
        <ele>1300.32</ele>
        <time>2019-04-05T10:05:48Z</time>
      </trkpt>
      <trkpt lat="60.19669" lon="7.54015">
        <ele>1300.32</ele>
        <time>2019-04-05T10:06:19Z</time>
      </trkpt>
      <trkpt lat="60.19671" lon="7.54013">
        <ele>1300.32</ele>
        <time>2019-04-05T10:06:44Z</time>
      </trkpt>
      <trkpt lat="60.19671" lon="7.54011">
        <ele>1299.84</ele>
        <time>2019-04-05T10:07:06Z</time>
      </trkpt>
      <trkpt lat="60.19673" lon="7.54013">
        <ele>1299.84</ele>
        <time>2019-04-05T10:07:28Z</time>
      </trkpt>
      <trkpt lat="60.19673" lon="7.54013">
        <ele>1299.84</ele>
        <time>2019-04-05T10:07:57Z</time>
      </trkpt>
      <trkpt lat="60.19677" lon="7.54012">
        <ele>1299.84</ele>
        <time>2019-04-05T10:08:10Z</time>
      </trkpt>
      <trkpt lat="60.19678" lon="7.54012">
        <ele>1299.84</ele>
        <time>2019-04-05T10:08:15Z</time>
      </trkpt>
      <trkpt lat="60.19681" lon="7.54015">
        <ele>1298.4</ele>
        <time>2019-04-05T10:08:23Z</time>
      </trkpt>
      <trkpt lat="60.19671" lon="7.54022">
        <ele>1297.44</ele>
        <time>2019-04-05T10:08:25Z</time>
      </trkpt>
      <trkpt lat="60.19656" lon="7.54047">
        <ele>1295.99</ele>
        <time>2019-04-05T10:08:28Z</time>
      </trkpt>
      <trkpt lat="60.19639" lon="7.54087">
        <ele>1299.36</ele>
        <time>2019-04-05T10:08:32Z</time>
      </trkpt>
      <trkpt lat="60.19623" lon="7.54126">
        <ele>1302.24</ele>
        <time>2019-04-05T10:08:36Z</time>
      </trkpt>
      <trkpt lat="60.1962" lon="7.54136">
        <ele>1302.24</ele>
        <time>2019-04-05T10:08:37Z</time>
      </trkpt>
      <trkpt lat="60.19604" lon="7.54169">
        <ele>1304.65</ele>
        <time>2019-04-05T10:08:41Z</time>
      </trkpt>
      <trkpt lat="60.19593" lon="7.5419">
        <ele>1306.09</ele>
        <time>2019-04-05T10:08:44Z</time>
      </trkpt>
      <trkpt lat="60.19594" lon="7.54185">
        <ele>1307.53</ele>
        <time>2019-04-05T10:08:48Z</time>
      </trkpt>
      <trkpt lat="60.19597" lon="7.54187">
        <ele>1308.49</ele>
        <time>2019-04-05T10:08:49Z</time>
      </trkpt>
      <trkpt lat="60.19609" lon="7.54199">
        <ele>1307.05</ele>
        <time>2019-04-05T10:08:52Z</time>
      </trkpt>
      <trkpt lat="60.19636" lon="7.5423">
        <ele>1304.65</ele>
        <time>2019-04-05T10:08:58Z</time>
      </trkpt>
      <trkpt lat="60.19652" lon="7.54258">
        <ele>1301.28</ele>
        <time>2019-04-05T10:09:02Z</time>
      </trkpt>
      <trkpt lat="60.19664" lon="7.54288">
        <ele>1297.92</ele>
        <time>2019-04-05T10:09:06Z</time>
      </trkpt>
      <trkpt lat="60.19675" lon="7.5431">
        <ele>1296.48</ele>
        <time>2019-04-05T10:09:09Z</time>
      </trkpt>
      <trkpt lat="60.19684" lon="7.5434">
        <ele>1291.67</ele>
        <time>2019-04-05T10:09:14Z</time>
      </trkpt>
      <trkpt lat="60.19686" lon="7.54346">
        <ele>1289.75</ele>
        <time>2019-04-05T10:09:27Z</time>
      </trkpt>
      <trkpt lat="60.1969" lon="7.54348">
        <ele>1288.78</ele>
        <time>2019-04-05T10:09:46Z</time>
      </trkpt>
      <trkpt lat="60.19696" lon="7.54357">
        <ele>1288.78</ele>
        <time>2019-04-05T10:09:49Z</time>
      </trkpt>
      <trkpt lat="60.19709" lon="7.54396">
        <ele>1285.9</ele>
        <time>2019-04-05T10:09:54Z</time>
      </trkpt>
      <trkpt lat="60.19716" lon="7.54424">
        <ele>1281.09</ele>
        <time>2019-04-05T10:09:57Z</time>
      </trkpt>
      <trkpt lat="60.19726" lon="7.54457">
        <ele>1276.77</ele>
        <time>2019-04-05T10:10:01Z</time>
      </trkpt>
      <trkpt lat="60.19753" lon="7.54502">
        <ele>1271</ele>
        <time>2019-04-05T10:10:07Z</time>
      </trkpt>
      <trkpt lat="60.19766" lon="7.54519">
        <ele>1268.12</ele>
        <time>2019-04-05T10:10:09Z</time>
      </trkpt>
      <trkpt lat="60.19804" lon="7.54567">
        <ele>1264.75</ele>
        <time>2019-04-05T10:10:16Z</time>
      </trkpt>
      <trkpt lat="60.19808" lon="7.54572">
        <ele>1264.27</ele>
        <time>2019-04-05T10:10:17Z</time>
      </trkpt>
      <trkpt lat="60.19827" lon="7.54585">
        <ele>1262.83</ele>
        <time>2019-04-05T10:10:21Z</time>
      </trkpt>
      <trkpt lat="60.19838" lon="7.54591">
        <ele>1262.83</ele>
        <time>2019-04-05T10:10:23Z</time>
      </trkpt>
      <trkpt lat="60.19854" lon="7.54596">
        <ele>1262.35</ele>
        <time>2019-04-05T10:10:26Z</time>
      </trkpt>
      <trkpt lat="60.19877" lon="7.54604">
        <ele>1262.35</ele>
        <time>2019-04-05T10:10:30Z</time>
      </trkpt>
      <trkpt lat="60.19899" lon="7.5462">
        <ele>1261.39</ele>
        <time>2019-04-05T10:10:34Z</time>
      </trkpt>
      <trkpt lat="60.19933" lon="7.54647">
        <ele>1258.5</ele>
        <time>2019-04-05T10:10:40Z</time>
      </trkpt>
      <trkpt lat="60.19954" lon="7.54657">
        <ele>1255.62</ele>
        <time>2019-04-05T10:10:43Z</time>
      </trkpt>
      <trkpt lat="60.1996" lon="7.5466">
        <ele>1255.62</ele>
        <time>2019-04-05T10:10:44Z</time>
      </trkpt>
      <trkpt lat="60.19974" lon="7.54666">
        <ele>1254.18</ele>
        <time>2019-04-05T10:10:46Z</time>
      </trkpt>
      <trkpt lat="60.20027" lon="7.54683">
        <ele>1253.22</ele>
        <time>2019-04-05T10:10:54Z</time>
      </trkpt>
      <trkpt lat="60.20086" lon="7.54692">
        <ele>1249.85</ele>
        <time>2019-04-05T10:11:03Z</time>
      </trkpt>
      <trkpt lat="60.20094" lon="7.54694">
        <ele>1249.85</ele>
        <time>2019-04-05T10:11:04Z</time>
      </trkpt>
      <trkpt lat="60.20138" lon="7.54708">
        <ele>1246.97</ele>
        <time>2019-04-05T10:11:10Z</time>
      </trkpt>
      <trkpt lat="60.20166" lon="7.54718">
        <ele>1245.53</ele>
        <time>2019-04-05T10:11:14Z</time>
      </trkpt>
      <trkpt lat="60.20179" lon="7.54723">
        <ele>1245.53</ele>
        <time>2019-04-05T10:11:16Z</time>
      </trkpt>
      <trkpt lat="60.20278" lon="7.54743">
        <ele>1245.04</ele>
        <time>2019-04-05T10:11:32Z</time>
      </trkpt>
      <trkpt lat="60.20299" lon="7.54745">
        <ele>1244.56</ele>
        <time>2019-04-05T10:11:35Z</time>
      </trkpt>
      <trkpt lat="60.20325" lon="7.54749">
        <ele>1244.08</ele>
        <time>2019-04-05T10:11:39Z</time>
      </trkpt>
      <trkpt lat="60.20346" lon="7.54752">
        <ele>1243.12</ele>
        <time>2019-04-05T10:11:42Z</time>
      </trkpt>
      <trkpt lat="60.20366" lon="7.54756">
        <ele>1243.12</ele>
        <time>2019-04-05T10:11:45Z</time>
      </trkpt>
      <trkpt lat="60.20414" lon="7.54767">
        <ele>1244.08</ele>
        <time>2019-04-05T10:11:53Z</time>
      </trkpt>
      <trkpt lat="60.20438" lon="7.54779">
        <ele>1244.08</ele>
        <time>2019-04-05T10:11:57Z</time>
      </trkpt>
      <trkpt lat="60.20469" lon="7.54784">
        <ele>1244.08</ele>
        <time>2019-04-05T10:12:02Z</time>
      </trkpt>
      <trkpt lat="60.20506" lon="7.54775">
        <ele>1244.08</ele>
        <time>2019-04-05T10:12:07Z</time>
      </trkpt>
      <trkpt lat="60.20528" lon="7.54774">
        <ele>1243.12</ele>
        <time>2019-04-05T10:12:10Z</time>
      </trkpt>
      <trkpt lat="60.20548" lon="7.54776">
        <ele>1243.12</ele>
        <time>2019-04-05T10:12:13Z</time>
      </trkpt>
      <trkpt lat="60.20591" lon="7.54788">
        <ele>1243.12</ele>
        <time>2019-04-05T10:12:20Z</time>
      </trkpt>
      <trkpt lat="60.20633" lon="7.54799">
        <ele>1244.56</ele>
        <time>2019-04-05T10:12:27Z</time>
      </trkpt>
      <trkpt lat="60.20653" lon="7.54802">
        <ele>1243.12</ele>
        <time>2019-04-05T10:12:30Z</time>
      </trkpt>
      <trkpt lat="60.20672" lon="7.54811">
        <ele>1244.56</ele>
        <time>2019-04-05T10:12:33Z</time>
      </trkpt>
      <trkpt lat="60.20684" lon="7.54814">
        <ele>1244.56</ele>
        <time>2019-04-05T10:12:35Z</time>
      </trkpt>
      <trkpt lat="60.20707" lon="7.54818">
        <ele>1243.12</ele>
        <time>2019-04-05T10:12:39Z</time>
      </trkpt>
      <trkpt lat="60.20741" lon="7.54827">
        <ele>1244.56</ele>
        <time>2019-04-05T10:12:45Z</time>
      </trkpt>
      <trkpt lat="60.20746" lon="7.54828">
        <ele>1244.56</ele>
        <time>2019-04-05T10:12:46Z</time>
      </trkpt>
      <trkpt lat="60.20806" lon="7.54845">
        <ele>1247.93</ele>
        <time>2019-04-05T10:12:57Z</time>
      </trkpt>
      <trkpt lat="60.2081" lon="7.54847">
        <ele>1247.93</ele>
        <time>2019-04-05T10:12:58Z</time>
      </trkpt>
      <trkpt lat="60.20814" lon="7.54849">
        <ele>1247.93</ele>
        <time>2019-04-05T10:13:06Z</time>
      </trkpt>
      <trkpt lat="60.20813" lon="7.54847">
        <ele>1247.93</ele>
        <time>2019-04-05T10:13:29Z</time>
      </trkpt>
      <trkpt lat="60.20813" lon="7.54846">
        <ele>1247.93</ele>
        <time>2019-04-05T10:13:43Z</time>
      </trkpt>
      <trkpt lat="60.20812" lon="7.5484">
        <ele>1246.49</ele>
        <time>2019-04-05T10:13:46Z</time>
      </trkpt>
      <trkpt lat="60.20806" lon="7.54846">
        <ele>1242.16</ele>
        <time>2019-04-05T10:13:48Z</time>
      </trkpt>
      <trkpt lat="60.20802" lon="7.54852">
        <ele>1242.16</ele>
        <time>2019-04-05T10:13:49Z</time>
      </trkpt>
      <trkpt lat="60.20799" lon="7.54861">
        <ele>1240.72</ele>
        <time>2019-04-05T10:13:50Z</time>
      </trkpt>
      <trkpt lat="60.20785" lon="7.54893">
        <ele>1242.64</ele>
        <time>2019-04-05T10:13:54Z</time>
      </trkpt>
      <trkpt lat="60.20761" lon="7.54956">
        <ele>1242.64</ele>
        <time>2019-04-05T10:14:01Z</time>
      </trkpt>
      <trkpt lat="60.2073" lon="7.55061">
        <ele>1241.68</ele>
        <time>2019-04-05T10:14:11Z</time>
      </trkpt>
      <trkpt lat="60.20699" lon="7.55178">
        <ele>1241.2</ele>
        <time>2019-04-05T10:14:22Z</time>
      </trkpt>
      <trkpt lat="60.20687" lon="7.55226">
        <ele>1244.08</ele>
        <time>2019-04-05T10:14:27Z</time>
      </trkpt>
      <trkpt lat="60.20667" lon="7.55304">
        <ele>1245.53</ele>
        <time>2019-04-05T10:14:35Z</time>
      </trkpt>
      <trkpt lat="60.20652" lon="7.55363">
        <ele>1243.6</ele>
        <time>2019-04-05T10:14:41Z</time>
      </trkpt>
      <trkpt lat="60.20623" lon="7.55472">
        <ele>1243.6</ele>
        <time>2019-04-05T10:14:51Z</time>
      </trkpt>
      <trkpt lat="60.20591" lon="7.55589">
        <ele>1246.01</ele>
        <time>2019-04-05T10:15:02Z</time>
      </trkpt>
      <trkpt lat="60.20584" lon="7.55616">
        <ele>1246.49</ele>
        <time>2019-04-05T10:15:05Z</time>
      </trkpt>
      <trkpt lat="60.20571" lon="7.55663">
        <ele>1247.45</ele>
        <time>2019-04-05T10:15:10Z</time>
      </trkpt>
      <trkpt lat="60.20558" lon="7.55709">
        <ele>1247.93</ele>
        <time>2019-04-05T10:15:15Z</time>
      </trkpt>
      <trkpt lat="60.20546" lon="7.55754">
        <ele>1249.37</ele>
        <time>2019-04-05T10:15:20Z</time>
      </trkpt>
      <trkpt lat="60.20536" lon="7.55794">
        <ele>1247.93</ele>
        <time>2019-04-05T10:15:24Z</time>
      </trkpt>
      <trkpt lat="60.20513" lon="7.55889">
        <ele>1250.33</ele>
        <time>2019-04-05T10:15:34Z</time>
      </trkpt>
      <trkpt lat="60.20488" lon="7.55975">
        <ele>1252.25</ele>
        <time>2019-04-05T10:15:43Z</time>
      </trkpt>
      <trkpt lat="60.20467" lon="7.56038">
        <ele>1251.77</ele>
        <time>2019-04-05T10:15:49Z</time>
      </trkpt>
      <trkpt lat="60.20441" lon="7.56145">
        <ele>1253.22</ele>
        <time>2019-04-05T10:15:59Z</time>
      </trkpt>
      <trkpt lat="60.20437" lon="7.56166">
        <ele>1253.22</ele>
        <time>2019-04-05T10:16:01Z</time>
      </trkpt>
      <trkpt lat="60.20431" lon="7.56176">
        <ele>1253.22</ele>
        <time>2019-04-05T10:16:06Z</time>
      </trkpt>
      <trkpt lat="60.20442" lon="7.56168">
        <ele>1254.18</ele>
        <time>2019-04-05T10:16:09Z</time>
      </trkpt>
      <trkpt lat="60.20466" lon="7.56155">
        <ele>1255.14</ele>
        <time>2019-04-05T10:16:15Z</time>
      </trkpt>
      <trkpt lat="60.20481" lon="7.56149">
        <ele>1256.1</ele>
        <time>2019-04-05T10:16:18Z</time>
      </trkpt>
      <trkpt lat="60.20486" lon="7.56146">
        <ele>1256.1</ele>
        <time>2019-04-05T10:16:19Z</time>
      </trkpt>
      <trkpt lat="60.20544" lon="7.56133">
        <ele>1258.5</ele>
        <time>2019-04-05T10:16:30Z</time>
      </trkpt>
      <trkpt lat="60.20569" lon="7.56123">
        <ele>1259.46</ele>
        <time>2019-04-05T10:16:35Z</time>
      </trkpt>
      <trkpt lat="60.20622" lon="7.56106">
        <ele>1260.43</ele>
        <time>2019-04-05T10:16:44Z</time>
      </trkpt>
      <trkpt lat="60.20632" lon="7.56106">
        <ele>1260.43</ele>
        <time>2019-04-05T10:16:46Z</time>
      </trkpt>
      <trkpt lat="60.20647" lon="7.56099">
        <ele>1260.91</ele>
        <time>2019-04-05T10:16:49Z</time>
      </trkpt>
      <trkpt lat="60.20668" lon="7.56094">
        <ele>1261.87</ele>
        <time>2019-04-05T10:16:53Z</time>
      </trkpt>
      <trkpt lat="60.20691" lon="7.56085">
        <ele>1262.35</ele>
        <time>2019-04-05T10:16:57Z</time>
      </trkpt>
      <trkpt lat="60.20734" lon="7.56082">
        <ele>1262.83</ele>
        <time>2019-04-05T10:17:04Z</time>
      </trkpt>
      <trkpt lat="60.208" lon="7.5607">
        <ele>1264.27</ele>
        <time>2019-04-05T10:17:16Z</time>
      </trkpt>
      <trkpt lat="60.20825" lon="7.56063">
        <ele>1264.27</ele>
        <time>2019-04-05T10:17:20Z</time>
      </trkpt>
      <trkpt lat="60.20838" lon="7.56061">
        <ele>1263.31</ele>
        <time>2019-04-05T10:17:22Z</time>
      </trkpt>
      <trkpt lat="60.20927" lon="7.56037">
        <ele>1259.94</ele>
        <time>2019-04-05T10:17:35Z</time>
      </trkpt>
      <trkpt lat="60.20933" lon="7.56034">
        <ele>1259.94</ele>
        <time>2019-04-05T10:17:36Z</time>
      </trkpt>
      <trkpt lat="60.20967" lon="7.5603">
        <ele>1259.94</ele>
        <time>2019-04-05T10:17:41Z</time>
      </trkpt>
      <trkpt lat="60.20981" lon="7.5603">
        <ele>1258.98</ele>
        <time>2019-04-05T10:17:43Z</time>
      </trkpt>
      <trkpt lat="60.21027" lon="7.56043">
        <ele>1259.46</ele>
        <time>2019-04-05T10:17:51Z</time>
      </trkpt>
      <trkpt lat="60.21051" lon="7.56049">
        <ele>1258.5</ele>
        <time>2019-04-05T10:17:56Z</time>
      </trkpt>
      <trkpt lat="60.21065" lon="7.56051">
        <ele>1258.5</ele>
        <time>2019-04-05T10:17:59Z</time>
      </trkpt>
      <trkpt lat="60.21081" lon="7.56053">
        <ele>1259.94</ele>
        <time>2019-04-05T10:18:02Z</time>
      </trkpt>
      <trkpt lat="60.21097" lon="7.56053">
        <ele>1259.94</ele>
        <time>2019-04-05T10:18:05Z</time>
      </trkpt>
      <trkpt lat="60.2113" lon="7.56066">
        <ele>1260.43</ele>
        <time>2019-04-05T10:18:11Z</time>
      </trkpt>
      <trkpt lat="60.2115" lon="7.5607">
        <ele>1260.91</ele>
        <time>2019-04-05T10:18:15Z</time>
      </trkpt>
      <trkpt lat="60.21172" lon="7.56074">
        <ele>1260.91</ele>
        <time>2019-04-05T10:18:19Z</time>
      </trkpt>
      <trkpt lat="60.21233" lon="7.56093">
        <ele>1257.54</ele>
        <time>2019-04-05T10:18:29Z</time>
      </trkpt>
      <trkpt lat="60.21291" lon="7.56114">
        <ele>1256.1</ele>
        <time>2019-04-05T10:18:38Z</time>
      </trkpt>
      <trkpt lat="60.21303" lon="7.56119">
        <ele>1256.1</ele>
        <time>2019-04-05T10:18:40Z</time>
      </trkpt>
      <trkpt lat="60.21337" lon="7.5613">
        <ele>1255.62</ele>
        <time>2019-04-05T10:18:46Z</time>
      </trkpt>
      <trkpt lat="60.21411" lon="7.56146">
        <ele>1255.14</ele>
        <time>2019-04-05T10:18:59Z</time>
      </trkpt>
      <trkpt lat="60.21422" lon="7.5615">
        <ele>1255.14</ele>
        <time>2019-04-05T10:19:01Z</time>
      </trkpt>
      <trkpt lat="60.21452" lon="7.5617">
        <ele>1253.22</ele>
        <time>2019-04-05T10:19:06Z</time>
      </trkpt>
      <trkpt lat="60.2147" lon="7.5618">
        <ele>1251.77</ele>
        <time>2019-04-05T10:19:09Z</time>
      </trkpt>
      <trkpt lat="60.215" lon="7.56194">
        <ele>1251.29</ele>
        <time>2019-04-05T10:19:14Z</time>
      </trkpt>
      <trkpt lat="60.21524" lon="7.56206">
        <ele>1251.29</ele>
        <time>2019-04-05T10:19:18Z</time>
      </trkpt>
      <trkpt lat="60.21579" lon="7.56241">
        <ele>1249.85</ele>
        <time>2019-04-05T10:19:28Z</time>
      </trkpt>
      <trkpt lat="60.2162" lon="7.56264">
        <ele>1248.41</ele>
        <time>2019-04-05T10:19:36Z</time>
      </trkpt>
      <trkpt lat="60.21639" lon="7.56276">
        <ele>1247.45</ele>
        <time>2019-04-05T10:19:40Z</time>
      </trkpt>
      <trkpt lat="60.21644" lon="7.56284">
        <ele>1246.49</ele>
        <time>2019-04-05T10:19:53Z</time>
      </trkpt>
      <trkpt lat="60.21645" lon="7.56284">
        <ele>1246.01</ele>
        <time>2019-04-05T10:19:58Z</time>
      </trkpt>
      <trkpt lat="60.21655" lon="7.5629">
        <ele>1246.01</ele>
        <time>2019-04-05T10:20:02Z</time>
      </trkpt>
      <trkpt lat="60.21687" lon="7.56313">
        <ele>1246.01</ele>
        <time>2019-04-05T10:20:09Z</time>
      </trkpt>
      <trkpt lat="60.21761" lon="7.56353">
        <ele>1243.6</ele>
        <time>2019-04-05T10:20:22Z</time>
      </trkpt>
      <trkpt lat="60.21846" lon="7.56378">
        <ele>1242.16</ele>
        <time>2019-04-05T10:20:35Z</time>
      </trkpt>
      <trkpt lat="60.2189" lon="7.56402">
        <ele>1240.72</ele>
        <time>2019-04-05T10:20:42Z</time>
      </trkpt>
      <trkpt lat="60.21922" lon="7.56422">
        <ele>1240.72</ele>
        <time>2019-04-05T10:20:47Z</time>
      </trkpt>
      <trkpt lat="60.21946" lon="7.56433">
        <ele>1240.72</ele>
        <time>2019-04-05T10:20:51Z</time>
      </trkpt>
      <trkpt lat="60.21979" lon="7.56447">
        <ele>1242.16</ele>
        <time>2019-04-05T10:20:57Z</time>
      </trkpt>
      <trkpt lat="60.22001" lon="7.56455">
        <ele>1243.12</ele>
        <time>2019-04-05T10:21:01Z</time>
      </trkpt>
      <trkpt lat="60.22024" lon="7.56466">
        <ele>1244.56</ele>
        <time>2019-04-05T10:21:05Z</time>
      </trkpt>
      <trkpt lat="60.22053" lon="7.56482">
        <ele>1245.04</ele>
        <time>2019-04-05T10:21:11Z</time>
      </trkpt>
      <trkpt lat="60.22061" lon="7.56488">
        <ele>1245.53</ele>
        <time>2019-04-05T10:21:13Z</time>
      </trkpt>
      <trkpt lat="60.22065" lon="7.56483">
        <ele>1244.56</ele>
        <time>2019-04-05T10:21:16Z</time>
      </trkpt>
      <trkpt lat="60.22053" lon="7.56483">
        <ele>1241.2</ele>
        <time>2019-04-05T10:21:19Z</time>
      </trkpt>
      <trkpt lat="60.22039" lon="7.56503">
        <ele>1239.76</ele>
        <time>2019-04-05T10:21:22Z</time>
      </trkpt>
      <trkpt lat="60.22014" lon="7.56547">
        <ele>1237.83</ele>
        <time>2019-04-05T10:21:27Z</time>
      </trkpt>
      <trkpt lat="60.21996" lon="7.56596">
        <ele>1237.35</ele>
        <time>2019-04-05T10:21:32Z</time>
      </trkpt>
      <trkpt lat="60.21972" lon="7.56633">
        <ele>1240.72</ele>
        <time>2019-04-05T10:21:37Z</time>
      </trkpt>
      <trkpt lat="60.21939" lon="7.56676">
        <ele>1237.83</ele>
        <time>2019-04-05T10:21:42Z</time>
      </trkpt>
      <trkpt lat="60.21899" lon="7.56734">
        <ele>1235.91</ele>
        <time>2019-04-05T10:21:48Z</time>
      </trkpt>
      <trkpt lat="60.21821" lon="7.56824">
        <ele>1238.32</ele>
        <time>2019-04-05T10:21:59Z</time>
      </trkpt>
      <trkpt lat="60.21773" lon="7.56862">
        <ele>1239.76</ele>
        <time>2019-04-05T10:22:05Z</time>
      </trkpt>
      <trkpt lat="60.21728" lon="7.569">
        <ele>1240.24</ele>
        <time>2019-04-05T10:22:11Z</time>
      </trkpt>
      <trkpt lat="60.21705" lon="7.56932">
        <ele>1242.64</ele>
        <time>2019-04-05T10:22:15Z</time>
      </trkpt>
      <trkpt lat="60.21619" lon="7.56987">
        <ele>1243.12</ele>
        <time>2019-04-05T10:22:29Z</time>
      </trkpt>
      <trkpt lat="60.21585" lon="7.57007">
        <ele>1243.12</ele>
        <time>2019-04-05T10:22:34Z</time>
      </trkpt>
      <trkpt lat="60.21572" lon="7.57015">
        <ele>1241.2</ele>
        <time>2019-04-05T10:22:36Z</time>
      </trkpt>
      <trkpt lat="60.21567" lon="7.57019">
        <ele>1241.2</ele>
        <time>2019-04-05T10:22:37Z</time>
      </trkpt>
      <trkpt lat="60.21554" lon="7.57022">
        <ele>1242.64</ele>
        <time>2019-04-05T10:22:40Z</time>
      </trkpt>
      <trkpt lat="60.2155" lon="7.57018">
        <ele>1242.64</ele>
        <time>2019-04-05T10:22:49Z</time>
      </trkpt>
      <trkpt lat="60.21551" lon="7.57017">
        <ele>1243.6</ele>
        <time>2019-04-05T10:23:12Z</time>
      </trkpt>
      <trkpt lat="60.21551" lon="7.57016">
        <ele>1243.6</ele>
        <time>2019-04-05T10:23:40Z</time>
      </trkpt>
      <trkpt lat="60.21552" lon="7.57016">
        <ele>1243.6</ele>
        <time>2019-04-05T10:24:18Z</time>
      </trkpt>
      <trkpt lat="60.21551" lon="7.57015">
        <ele>1244.08</ele>
        <time>2019-04-05T10:24:51Z</time>
      </trkpt>
      <trkpt lat="60.2155" lon="7.57014">
        <ele>1244.08</ele>
        <time>2019-04-05T10:25:23Z</time>
      </trkpt>
      <trkpt lat="60.21548" lon="7.57013">
        <ele>1244.08</ele>
        <time>2019-04-05T10:25:48Z</time>
      </trkpt>
      <trkpt lat="60.2154" lon="7.57027">
        <ele>1244.08</ele>
        <time>2019-04-05T10:25:53Z</time>
      </trkpt>
      <trkpt lat="60.21536" lon="7.57034">
        <ele>1244.08</ele>
        <time>2019-04-05T10:25:55Z</time>
      </trkpt>
      <trkpt lat="60.21521" lon="7.57072">
        <ele>1244.56</ele>
        <time>2019-04-05T10:26:00Z</time>
      </trkpt>
      <trkpt lat="60.21513" lon="7.57123">
        <ele>1243.6</ele>
        <time>2019-04-05T10:26:05Z</time>
      </trkpt>
      <trkpt lat="60.21499" lon="7.57187">
        <ele>1242.64</ele>
        <time>2019-04-05T10:26:12Z</time>
      </trkpt>
      <trkpt lat="60.21481" lon="7.57274">
        <ele>1240.72</ele>
        <time>2019-04-05T10:26:21Z</time>
      </trkpt>
      <trkpt lat="60.2145" lon="7.57396">
        <ele>1240.72</ele>
        <time>2019-04-05T10:26:34Z</time>
      </trkpt>
      <trkpt lat="60.21446" lon="7.57414">
        <ele>1240.72</ele>
        <time>2019-04-05T10:26:36Z</time>
      </trkpt>
      <trkpt lat="60.21439" lon="7.57439">
        <ele>1240.72</ele>
        <time>2019-04-05T10:26:39Z</time>
      </trkpt>
      <trkpt lat="60.21425" lon="7.57481">
        <ele>1240.72</ele>
        <time>2019-04-05T10:26:44Z</time>
      </trkpt>
      <trkpt lat="60.214" lon="7.57555">
        <ele>1240.72</ele>
        <time>2019-04-05T10:26:53Z</time>
      </trkpt>
      <trkpt lat="60.21391" lon="7.5758">
        <ele>1241.68</ele>
        <time>2019-04-05T10:26:56Z</time>
      </trkpt>
      <trkpt lat="60.21376" lon="7.57607">
        <ele>1241.2</ele>
        <time>2019-04-05T10:27:01Z</time>
      </trkpt>
      <trkpt lat="60.21345" lon="7.57672">
        <ele>1241.2</ele>
        <time>2019-04-05T10:27:14Z</time>
      </trkpt>
      <trkpt lat="60.21335" lon="7.57709">
        <ele>1241.2</ele>
        <time>2019-04-05T10:27:19Z</time>
      </trkpt>
      <trkpt lat="60.21312" lon="7.57781">
        <ele>1243.12</ele>
        <time>2019-04-05T10:27:28Z</time>
      </trkpt>
      <trkpt lat="60.21304" lon="7.5781">
        <ele>1241.68</ele>
        <time>2019-04-05T10:27:31Z</time>
      </trkpt>
      <trkpt lat="60.21266" lon="7.57929">
        <ele>1237.83</ele>
        <time>2019-04-05T10:27:44Z</time>
      </trkpt>
      <trkpt lat="60.21263" lon="7.5794">
        <ele>1237.83</ele>
        <time>2019-04-05T10:27:45Z</time>
      </trkpt>
      <trkpt lat="60.2126" lon="7.5795">
        <ele>1236.87</ele>
        <time>2019-04-05T10:27:46Z</time>
      </trkpt>
      <trkpt lat="60.21246" lon="7.58013">
        <ele>1239.28</ele>
        <time>2019-04-05T10:27:52Z</time>
      </trkpt>
      <trkpt lat="60.2124" lon="7.58034">
        <ele>1237.83</ele>
        <time>2019-04-05T10:27:54Z</time>
      </trkpt>
      <trkpt lat="60.21234" lon="7.58056">
        <ele>1236.87</ele>
        <time>2019-04-05T10:27:56Z</time>
      </trkpt>
      <trkpt lat="60.21228" lon="7.58091">
        <ele>1235.43</ele>
        <time>2019-04-05T10:27:59Z</time>
      </trkpt>
      <trkpt lat="60.21221" lon="7.5813">
        <ele>1235.43</ele>
        <time>2019-04-05T10:28:03Z</time>
      </trkpt>
      <trkpt lat="60.21215" lon="7.58153">
        <ele>1235.43</ele>
        <time>2019-04-05T10:28:06Z</time>
      </trkpt>
      <trkpt lat="60.21209" lon="7.58167">
        <ele>1234.95</ele>
        <time>2019-04-05T10:28:08Z</time>
      </trkpt>
      <trkpt lat="60.21182" lon="7.58275">
        <ele>1233.99</ele>
        <time>2019-04-05T10:28:19Z</time>
      </trkpt>
      <trkpt lat="60.21177" lon="7.58305">
        <ele>1236.39</ele>
        <time>2019-04-05T10:28:22Z</time>
      </trkpt>
      <trkpt lat="60.21175" lon="7.58313">
        <ele>1234.95</ele>
        <time>2019-04-05T10:28:23Z</time>
      </trkpt>
      <trkpt lat="60.21144" lon="7.58368">
        <ele>1233.99</ele>
        <time>2019-04-05T10:28:34Z</time>
      </trkpt>
      <trkpt lat="60.21138" lon="7.58375">
        <ele>1234.47</ele>
        <time>2019-04-05T10:28:43Z</time>
      </trkpt>
      <trkpt lat="60.21136" lon="7.58376">
        <ele>1234.47</ele>
        <time>2019-04-05T10:28:55Z</time>
      </trkpt>
      <trkpt lat="60.21134" lon="7.5838">
        <ele>1234.47</ele>
        <time>2019-04-05T10:28:57Z</time>
      </trkpt>
      <trkpt lat="60.21118" lon="7.58405">
        <ele>1234.47</ele>
        <time>2019-04-05T10:29:04Z</time>
      </trkpt>
      <trkpt lat="60.211" lon="7.58456">
        <ele>1235.43</ele>
        <time>2019-04-05T10:29:10Z</time>
      </trkpt>
      <trkpt lat="60.21091" lon="7.58482">
        <ele>1233.99</ele>
        <time>2019-04-05T10:29:13Z</time>
      </trkpt>
      <trkpt lat="60.21084" lon="7.585">
        <ele>1233.99</ele>
        <time>2019-04-05T10:29:15Z</time>
      </trkpt>
      <trkpt lat="60.21074" lon="7.58527">
        <ele>1235.43</ele>
        <time>2019-04-05T10:29:18Z</time>
      </trkpt>
      <trkpt lat="60.21065" lon="7.58555">
        <ele>1234.47</ele>
        <time>2019-04-05T10:29:21Z</time>
      </trkpt>
      <trkpt lat="60.2104" lon="7.5862">
        <ele>1233.03</ele>
        <time>2019-04-05T10:29:28Z</time>
      </trkpt>
      <trkpt lat="60.2101" lon="7.58703">
        <ele>1233.51</ele>
        <time>2019-04-05T10:29:37Z</time>
      </trkpt>
      <trkpt lat="60.2097" lon="7.58802">
        <ele>1234.47</ele>
        <time>2019-04-05T10:29:48Z</time>
      </trkpt>
      <trkpt lat="60.20953" lon="7.58839">
        <ele>1233.03</ele>
        <time>2019-04-05T10:29:52Z</time>
      </trkpt>
      <trkpt lat="60.20944" lon="7.58859">
        <ele>1234.95</ele>
        <time>2019-04-05T10:29:54Z</time>
      </trkpt>
      <trkpt lat="60.20936" lon="7.58881">
        <ele>1233.51</ele>
        <time>2019-04-05T10:29:56Z</time>
      </trkpt>
      <trkpt lat="60.20906" lon="7.58946">
        <ele>1235.43</ele>
        <time>2019-04-05T10:30:03Z</time>
      </trkpt>
      <trkpt lat="60.20897" lon="7.58961">
        <ele>1233.99</ele>
        <time>2019-04-05T10:30:05Z</time>
      </trkpt>
      <trkpt lat="60.20888" lon="7.58978">
        <ele>1233.99</ele>
        <time>2019-04-05T10:30:07Z</time>
      </trkpt>
      <trkpt lat="60.20836" lon="7.59089">
        <ele>1235.43</ele>
        <time>2019-04-05T10:30:19Z</time>
      </trkpt>
      <trkpt lat="60.20817" lon="7.59127">
        <ele>1234.47</ele>
        <time>2019-04-05T10:30:23Z</time>
      </trkpt>
      <trkpt lat="60.20775" lon="7.59211">
        <ele>1230.14</ele>
        <time>2019-04-05T10:30:32Z</time>
      </trkpt>
      <trkpt lat="60.20767" lon="7.59229">
        <ele>1228.7</ele>
        <time>2019-04-05T10:30:34Z</time>
      </trkpt>
      <trkpt lat="60.20756" lon="7.59255">
        <ele>1231.59</ele>
        <time>2019-04-05T10:30:37Z</time>
      </trkpt>
      <trkpt lat="60.20753" lon="7.59263">
        <ele>1233.03</ele>
        <time>2019-04-05T10:30:38Z</time>
      </trkpt>
      <trkpt lat="60.20704" lon="7.59357">
        <ele>1233.03</ele>
        <time>2019-04-05T10:30:50Z</time>
      </trkpt>
      <trkpt lat="60.20699" lon="7.59366">
        <ele>1233.03</ele>
        <time>2019-04-05T10:30:51Z</time>
      </trkpt>
      <trkpt lat="60.20686" lon="7.59394">
        <ele>1231.11</ele>
        <time>2019-04-05T10:30:54Z</time>
      </trkpt>
      <trkpt lat="60.20659" lon="7.5946">
        <ele>1233.51</ele>
        <time>2019-04-05T10:31:01Z</time>
      </trkpt>
      <trkpt lat="60.20655" lon="7.59469">
        <ele>1233.51</ele>
        <time>2019-04-05T10:31:02Z</time>
      </trkpt>
      <trkpt lat="60.20642" lon="7.59495">
        <ele>1233.99</ele>
        <time>2019-04-05T10:31:05Z</time>
      </trkpt>
      <trkpt lat="60.20625" lon="7.59535">
        <ele>1234.47</ele>
        <time>2019-04-05T10:31:09Z</time>
      </trkpt>
      <trkpt lat="60.20613" lon="7.59564">
        <ele>1234.47</ele>
        <time>2019-04-05T10:31:12Z</time>
      </trkpt>
      <trkpt lat="60.20557" lon="7.59714">
        <ele>1233.03</ele>
        <time>2019-04-05T10:31:27Z</time>
      </trkpt>
      <trkpt lat="60.20549" lon="7.59732">
        <ele>1233.51</ele>
        <time>2019-04-05T10:31:29Z</time>
      </trkpt>
      <trkpt lat="60.20531" lon="7.59784">
        <ele>1233.03</ele>
        <time>2019-04-05T10:31:34Z</time>
      </trkpt>
      <trkpt lat="60.20522" lon="7.59802">
        <ele>1231.59</ele>
        <time>2019-04-05T10:31:36Z</time>
      </trkpt>
      <trkpt lat="60.20486" lon="7.59868">
        <ele>1231.59</ele>
        <time>2019-04-05T10:31:44Z</time>
      </trkpt>
      <trkpt lat="60.20481" lon="7.59878">
        <ele>1233.03</ele>
        <time>2019-04-05T10:31:45Z</time>
      </trkpt>
      <trkpt lat="60.20467" lon="7.59909">
        <ele>1233.99</ele>
        <time>2019-04-05T10:31:48Z</time>
      </trkpt>
      <trkpt lat="60.20443" lon="7.5999">
        <ele>1234.95</ele>
        <time>2019-04-05T10:31:56Z</time>
      </trkpt>
      <trkpt lat="60.20435" lon="7.6002">
        <ele>1233.03</ele>
        <time>2019-04-05T10:31:59Z</time>
      </trkpt>
      <trkpt lat="60.20424" lon="7.60054">
        <ele>1232.07</ele>
        <time>2019-04-05T10:32:03Z</time>
      </trkpt>
      <trkpt lat="60.20417" lon="7.60075">
        <ele>1235.43</ele>
        <time>2019-04-05T10:32:06Z</time>
      </trkpt>
      <trkpt lat="60.2041" lon="7.60088">
        <ele>1235.43</ele>
        <time>2019-04-05T10:32:08Z</time>
      </trkpt>
      <trkpt lat="60.20394" lon="7.60133">
        <ele>1235.43</ele>
        <time>2019-04-05T10:32:13Z</time>
      </trkpt>
      <trkpt lat="60.20385" lon="7.60165">
        <ele>1235.91</ele>
        <time>2019-04-05T10:32:16Z</time>
      </trkpt>
      <trkpt lat="60.20374" lon="7.60198">
        <ele>1236.39</ele>
        <time>2019-04-05T10:32:20Z</time>
      </trkpt>
      <trkpt lat="60.2036" lon="7.60223">
        <ele>1233.99</ele>
        <time>2019-04-05T10:32:23Z</time>
      </trkpt>
      <trkpt lat="60.20321" lon="7.60306">
        <ele>1230.62</ele>
        <time>2019-04-05T10:32:31Z</time>
      </trkpt>
      <trkpt lat="60.20305" lon="7.6035">
        <ele>1227.74</ele>
        <time>2019-04-05T10:32:35Z</time>
      </trkpt>
      <trkpt lat="60.20293" lon="7.60385">
        <ele>1229.18</ele>
        <time>2019-04-05T10:32:38Z</time>
      </trkpt>
      <trkpt lat="60.20268" lon="7.60455">
        <ele>1232.55</ele>
        <time>2019-04-05T10:32:44Z</time>
      </trkpt>
      <trkpt lat="60.20258" lon="7.6049">
        <ele>1234.95</ele>
        <time>2019-04-05T10:32:47Z</time>
      </trkpt>
      <trkpt lat="60.20254" lon="7.60501">
        <ele>1234.95</ele>
        <time>2019-04-05T10:32:48Z</time>
      </trkpt>
      <trkpt lat="60.20245" lon="7.60523">
        <ele>1229.66</ele>
        <time>2019-04-05T10:32:50Z</time>
      </trkpt>
      <trkpt lat="60.20237" lon="7.60545">
        <ele>1228.7</ele>
        <time>2019-04-05T10:32:52Z</time>
      </trkpt>
      <trkpt lat="60.20223" lon="7.6059">
        <ele>1233.03</ele>
        <time>2019-04-05T10:32:56Z</time>
      </trkpt>
      <trkpt lat="60.2022" lon="7.606">
        <ele>1233.03</ele>
        <time>2019-04-05T10:32:57Z</time>
      </trkpt>
      <trkpt lat="60.20187" lon="7.6069">
        <ele>1231.59</ele>
        <time>2019-04-05T10:33:05Z</time>
      </trkpt>
      <trkpt lat="60.2018" lon="7.60711">
        <ele>1233.51</ele>
        <time>2019-04-05T10:33:07Z</time>
      </trkpt>
      <trkpt lat="60.20177" lon="7.60721">
        <ele>1231.59</ele>
        <time>2019-04-05T10:33:08Z</time>
      </trkpt>
      <trkpt lat="60.20172" lon="7.60737">
        <ele>1229.66</ele>
        <time>2019-04-05T10:33:10Z</time>
      </trkpt>
      <trkpt lat="60.20165" lon="7.60744">
        <ele>1232.55</ele>
        <time>2019-04-05T10:33:13Z</time>
      </trkpt>
      <trkpt lat="60.20164" lon="7.60742">
        <ele>1232.55</ele>
        <time>2019-04-05T10:33:14Z</time>
      </trkpt>
      <trkpt lat="60.20164" lon="7.60738">
        <ele>1232.55</ele>
        <time>2019-04-05T10:33:23Z</time>
      </trkpt>
      <trkpt lat="60.20135" lon="7.60753">
        <ele>1233.99</ele>
        <time>2019-04-05T10:33:30Z</time>
      </trkpt>
      <trkpt lat="60.20111" lon="7.60782">
        <ele>1231.11</ele>
        <time>2019-04-05T10:33:34Z</time>
      </trkpt>
      <trkpt lat="60.20102" lon="7.60798">
        <ele>1229.66</ele>
        <time>2019-04-05T10:33:36Z</time>
      </trkpt>
      <trkpt lat="60.20093" lon="7.60813">
        <ele>1233.03</ele>
        <time>2019-04-05T10:33:38Z</time>
      </trkpt>
      <trkpt lat="60.20089" lon="7.60822">
        <ele>1229.18</ele>
        <time>2019-04-05T10:33:39Z</time>
      </trkpt>
      <trkpt lat="60.20075" lon="7.60855">
        <ele>1233.03</ele>
        <time>2019-04-05T10:33:43Z</time>
      </trkpt>
      <trkpt lat="60.20072" lon="7.60861">
        <ele>1233.03</ele>
        <time>2019-04-05T10:33:44Z</time>
      </trkpt>
      <trkpt lat="60.20058" lon="7.60893">
        <ele>1233.51</ele>
        <time>2019-04-05T10:33:48Z</time>
      </trkpt>
      <trkpt lat="60.20022" lon="7.60982">
        <ele>1228.7</ele>
        <time>2019-04-05T10:33:57Z</time>
      </trkpt>
      <trkpt lat="60.20012" lon="7.61023">
        <ele>1230.14</ele>
        <time>2019-04-05T10:34:01Z</time>
      </trkpt>
      <trkpt lat="60.2001" lon="7.61032">
        <ele>1228.7</ele>
        <time>2019-04-05T10:34:02Z</time>
      </trkpt>
      <trkpt lat="60.20004" lon="7.61048">
        <ele>1233.51</ele>
        <time>2019-04-05T10:34:04Z</time>
      </trkpt>
      <trkpt lat="60.19998" lon="7.61064">
        <ele>1233.51</ele>
        <time>2019-04-05T10:34:06Z</time>
      </trkpt>
      <trkpt lat="60.19983" lon="7.61091">
        <ele>1232.07</ele>
        <time>2019-04-05T10:34:09Z</time>
      </trkpt>
      <trkpt lat="60.19974" lon="7.61111">
        <ele>1234.95</ele>
        <time>2019-04-05T10:34:11Z</time>
      </trkpt>
      <trkpt lat="60.19953" lon="7.61156">
        <ele>1233.03</ele>
        <time>2019-04-05T10:34:16Z</time>
      </trkpt>
      <trkpt lat="60.1995" lon="7.61165">
        <ele>1235.91</ele>
        <time>2019-04-05T10:34:17Z</time>
      </trkpt>
      <trkpt lat="60.19944" lon="7.61182">
        <ele>1232.55</ele>
        <time>2019-04-05T10:34:19Z</time>
      </trkpt>
      <trkpt lat="60.19939" lon="7.61208">
        <ele>1232.55</ele>
        <time>2019-04-05T10:34:22Z</time>
      </trkpt>
      <trkpt lat="60.19931" lon="7.61228">
        <ele>1235.91</ele>
        <time>2019-04-05T10:34:25Z</time>
      </trkpt>
      <trkpt lat="60.19922" lon="7.61251">
        <ele>1235.43</ele>
        <time>2019-04-05T10:34:28Z</time>
      </trkpt>
      <trkpt lat="60.19913" lon="7.61279">
        <ele>1236.87</ele>
        <time>2019-04-05T10:34:31Z</time>
      </trkpt>
      <trkpt lat="60.19908" lon="7.61298">
        <ele>1235.43</ele>
        <time>2019-04-05T10:34:33Z</time>
      </trkpt>
      <trkpt lat="60.19897" lon="7.61345">
        <ele>1235.91</ele>
        <time>2019-04-05T10:34:38Z</time>
      </trkpt>
      <trkpt lat="60.19891" lon="7.61374">
        <ele>1237.35</ele>
        <time>2019-04-05T10:34:41Z</time>
      </trkpt>
      <trkpt lat="60.19891" lon="7.61383">
        <ele>1237.35</ele>
        <time>2019-04-05T10:34:42Z</time>
      </trkpt>
      <trkpt lat="60.1989" lon="7.61396">
        <ele>1235.43</ele>
        <time>2019-04-05T10:34:44Z</time>
      </trkpt>
      <trkpt lat="60.19886" lon="7.614">
        <ele>1236.87</ele>
        <time>2019-04-05T10:34:47Z</time>
      </trkpt>
      <trkpt lat="60.19884" lon="7.61396">
        <ele>1236.87</ele>
        <time>2019-04-05T10:35:01Z</time>
      </trkpt>
      <trkpt lat="60.19882" lon="7.61396">
        <ele>1236.87</ele>
        <time>2019-04-05T10:35:26Z</time>
      </trkpt>
      <trkpt lat="60.19877" lon="7.61394">
        <ele>1236.87</ele>
        <time>2019-04-05T10:35:42Z</time>
      </trkpt>
      <trkpt lat="60.19878" lon="7.61391">
        <ele>1236.87</ele>
        <time>2019-04-05T10:35:45Z</time>
      </trkpt>
      <trkpt lat="60.19892" lon="7.61374">
        <ele>1237.35</ele>
        <time>2019-04-05T10:35:49Z</time>
      </trkpt>
      <trkpt lat="60.19925" lon="7.61351">
        <ele>1238.32</ele>
        <time>2019-04-05T10:35:54Z</time>
      </trkpt>
      <trkpt lat="60.19959" lon="7.6134">
        <ele>1239.28</ele>
        <time>2019-04-05T10:35:59Z</time>
      </trkpt>
      <trkpt lat="60.19973" lon="7.61332">
        <ele>1239.76</ele>
        <time>2019-04-05T10:36:01Z</time>
      </trkpt>
      <trkpt lat="60.19989" lon="7.61328">
        <ele>1239.76</ele>
        <time>2019-04-05T10:36:03Z</time>
      </trkpt>
      <trkpt lat="60.2002" lon="7.6132">
        <ele>1238.32</ele>
        <time>2019-04-05T10:36:07Z</time>
      </trkpt>
      <trkpt lat="60.20048" lon="7.61321">
        <ele>1238.32</ele>
        <time>2019-04-05T10:36:11Z</time>
      </trkpt>
      <trkpt lat="60.20089" lon="7.61323">
        <ele>1238.32</ele>
        <time>2019-04-05T10:36:17Z</time>
      </trkpt>
      <trkpt lat="60.20115" lon="7.61322">
        <ele>1238.32</ele>
        <time>2019-04-05T10:36:21Z</time>
      </trkpt>
      <trkpt lat="60.20141" lon="7.6132">
        <ele>1238.32</ele>
        <time>2019-04-05T10:36:25Z</time>
      </trkpt>
      <trkpt lat="60.20189" lon="7.61314">
        <ele>1235.91</ele>
        <time>2019-04-05T10:36:35Z</time>
      </trkpt>
      <trkpt lat="60.20188" lon="7.61313">
        <ele>1235.91</ele>
        <time>2019-04-05T10:36:51Z</time>
      </trkpt>
      <trkpt lat="60.20188" lon="7.61313">
        <ele>1235.91</ele>
        <time>2019-04-05T10:36:54Z</time>
      </trkpt>
      <trkpt lat="60.20224" lon="7.61304">
        <ele>1238.8</ele>
        <time>2019-04-05T10:37:03Z</time>
      </trkpt>
      <trkpt lat="60.2027" lon="7.61298">
        <ele>1240.24</ele>
        <time>2019-04-05T10:37:10Z</time>
      </trkpt>
      <trkpt lat="60.20288" lon="7.61299">
        <ele>1239.28</ele>
        <time>2019-04-05T10:37:13Z</time>
      </trkpt>
      <trkpt lat="60.20321" lon="7.61292">
        <ele>1239.28</ele>
        <time>2019-04-05T10:37:18Z</time>
      </trkpt>
      <trkpt lat="60.20349" lon="7.61285">
        <ele>1240.72</ele>
        <time>2019-04-05T10:37:22Z</time>
      </trkpt>
      <trkpt lat="60.2038" lon="7.6128">
        <ele>1242.64</ele>
        <time>2019-04-05T10:37:26Z</time>
      </trkpt>
      <trkpt lat="60.2041" lon="7.61274">
        <ele>1242.16</ele>
        <time>2019-04-05T10:37:30Z</time>
      </trkpt>
      <trkpt lat="60.20451" lon="7.61258">
        <ele>1246.49</ele>
        <time>2019-04-05T10:37:36Z</time>
      </trkpt>
      <trkpt lat="60.20464" lon="7.61255">
        <ele>1247.45</ele>
        <time>2019-04-05T10:37:38Z</time>
      </trkpt>
      <trkpt lat="60.20548" lon="7.61219">
        <ele>1248.41</ele>
        <time>2019-04-05T10:37:50Z</time>
      </trkpt>
      <trkpt lat="60.20576" lon="7.61206">
        <ele>1249.37</ele>
        <time>2019-04-05T10:37:54Z</time>
      </trkpt>
      <trkpt lat="60.20616" lon="7.61182">
        <ele>1252.74</ele>
        <time>2019-04-05T10:38:00Z</time>
      </trkpt>
      <trkpt lat="60.20656" lon="7.61159">
        <ele>1254.66</ele>
        <time>2019-04-05T10:38:06Z</time>
      </trkpt>
      <trkpt lat="60.20675" lon="7.61149">
        <ele>1258.02</ele>
        <time>2019-04-05T10:38:09Z</time>
      </trkpt>
      <trkpt lat="60.20687" lon="7.61144">
        <ele>1259.46</ele>
        <time>2019-04-05T10:38:11Z</time>
      </trkpt>
      <trkpt lat="60.20721" lon="7.61138">
        <ele>1260.91</ele>
        <time>2019-04-05T10:38:17Z</time>
      </trkpt>
      <trkpt lat="60.20763" lon="7.61126">
        <ele>1259.46</ele>
        <time>2019-04-05T10:38:26Z</time>
      </trkpt>
      <trkpt lat="60.20785" lon="7.61093">
        <ele>1261.39</ele>
        <time>2019-04-05T10:38:36Z</time>
      </trkpt>
      <trkpt lat="60.20811" lon="7.61082">
        <ele>1263.31</ele>
        <time>2019-04-05T10:38:41Z</time>
      </trkpt>
      <trkpt lat="60.20829" lon="7.61085">
        <ele>1264.75</ele>
        <time>2019-04-05T10:38:45Z</time>
      </trkpt>
      <trkpt lat="60.20837" lon="7.61083">
        <ele>1264.75</ele>
        <time>2019-04-05T10:38:47Z</time>
      </trkpt>
      <trkpt lat="60.20844" lon="7.61079">
        <ele>1264.75</ele>
        <time>2019-04-05T10:38:49Z</time>
      </trkpt>
      <trkpt lat="60.20861" lon="7.61074">
        <ele>1265.23</ele>
        <time>2019-04-05T10:38:53Z</time>
      </trkpt>
      <trkpt lat="60.20887" lon="7.61075">
        <ele>1266.19</ele>
        <time>2019-04-05T10:38:59Z</time>
      </trkpt>
      <trkpt lat="60.20909" lon="7.61075">
        <ele>1266.67</ele>
        <time>2019-04-05T10:39:04Z</time>
      </trkpt>
      <trkpt lat="60.20941" lon="7.6107">
        <ele>1267.16</ele>
        <time>2019-04-05T10:39:09Z</time>
      </trkpt>
      <trkpt lat="60.20985" lon="7.6106">
        <ele>1268.12</ele>
        <time>2019-04-05T10:39:15Z</time>
      </trkpt>
      <trkpt lat="60.2104" lon="7.61054">
        <ele>1270.52</ele>
        <time>2019-04-05T10:39:24Z</time>
      </trkpt>
      <trkpt lat="60.21046" lon="7.61052">
        <ele>1271</ele>
        <time>2019-04-05T10:39:25Z</time>
      </trkpt>
      <trkpt lat="60.21134" lon="7.61029">
        <ele>1271.48</ele>
        <time>2019-04-05T10:39:37Z</time>
      </trkpt>
      <trkpt lat="60.21186" lon="7.6102">
        <ele>1272.44</ele>
        <time>2019-04-05T10:39:44Z</time>
      </trkpt>
      <trkpt lat="60.21228" lon="7.61009">
        <ele>1277.25</ele>
        <time>2019-04-05T10:39:51Z</time>
      </trkpt>
      <trkpt lat="60.21308" lon="7.60995">
        <ele>1279.17</ele>
        <time>2019-04-05T10:40:03Z</time>
      </trkpt>
      <trkpt lat="60.21373" lon="7.60985">
        <ele>1280.61</ele>
        <time>2019-04-05T10:40:13Z</time>
      </trkpt>
      <trkpt lat="60.2141" lon="7.60989">
        <ele>1281.57</ele>
        <time>2019-04-05T10:40:19Z</time>
      </trkpt>
      <trkpt lat="60.2147" lon="7.61">
        <ele>1279.17</ele>
        <time>2019-04-05T10:40:28Z</time>
      </trkpt>
      <trkpt lat="60.21518" lon="7.61018">
        <ele>1279.17</ele>
        <time>2019-04-05T10:40:35Z</time>
      </trkpt>
      <trkpt lat="60.21538" lon="7.61028">
        <ele>1275.81</ele>
        <time>2019-04-05T10:40:38Z</time>
      </trkpt>
      <trkpt lat="60.21544" lon="7.61031">
        <ele>1275.81</ele>
        <time>2019-04-05T10:40:39Z</time>
      </trkpt>
      <trkpt lat="60.21576" lon="7.6105">
        <ele>1273.88</ele>
        <time>2019-04-05T10:40:44Z</time>
      </trkpt>
      <trkpt lat="60.21582" lon="7.61053">
        <ele>1272.92</ele>
        <time>2019-04-05T10:40:45Z</time>
      </trkpt>
      <trkpt lat="60.21606" lon="7.61069">
        <ele>1271</ele>
        <time>2019-04-05T10:40:49Z</time>
      </trkpt>
      <trkpt lat="60.21618" lon="7.61077">
        <ele>1270.04</ele>
        <time>2019-04-05T10:40:51Z</time>
      </trkpt>
      <trkpt lat="60.21681" lon="7.61109">
        <ele>1267.64</ele>
        <time>2019-04-05T10:41:01Z</time>
      </trkpt>
      <trkpt lat="60.2171" lon="7.61115">
        <ele>1267.16</ele>
        <time>2019-04-05T10:41:06Z</time>
      </trkpt>
      <trkpt lat="60.21728" lon="7.61124">
        <ele>1267.16</ele>
        <time>2019-04-05T10:41:09Z</time>
      </trkpt>
      <trkpt lat="60.21787" lon="7.61158">
        <ele>1263.31</ele>
        <time>2019-04-05T10:41:18Z</time>
      </trkpt>
      <trkpt lat="60.21808" lon="7.61167">
        <ele>1262.83</ele>
        <time>2019-04-05T10:41:21Z</time>
      </trkpt>
      <trkpt lat="60.21822" lon="7.61176">
        <ele>1262.83</ele>
        <time>2019-04-05T10:41:23Z</time>
      </trkpt>
      <trkpt lat="60.21832" lon="7.61183">
        <ele>1262.83</ele>
        <time>2019-04-05T10:41:25Z</time>
      </trkpt>
      <trkpt lat="60.21862" lon="7.61187">
        <ele>1264.75</ele>
        <time>2019-04-05T10:41:32Z</time>
      </trkpt>
      <trkpt lat="60.21889" lon="7.61194">
        <ele>1267.64</ele>
        <time>2019-04-05T10:41:39Z</time>
      </trkpt>
      <trkpt lat="60.21924" lon="7.61219">
        <ele>1270.52</ele>
        <time>2019-04-05T10:41:51Z</time>
      </trkpt>
      <trkpt lat="60.21955" lon="7.6124">
        <ele>1271</ele>
        <time>2019-04-05T10:42:03Z</time>
      </trkpt>
      <trkpt lat="60.21983" lon="7.61251">
        <ele>1271.48</ele>
        <time>2019-04-05T10:42:16Z</time>
      </trkpt>
      <trkpt lat="60.21986" lon="7.61255">
        <ele>1271.48</ele>
        <time>2019-04-05T10:42:19Z</time>
      </trkpt>
      <trkpt lat="60.21992" lon="7.61263">
        <ele>1270.52</ele>
        <time>2019-04-05T10:42:27Z</time>
      </trkpt>
      <trkpt lat="60.21993" lon="7.61266">
        <ele>1270.04</ele>
        <time>2019-04-05T10:42:44Z</time>
      </trkpt>
      <trkpt lat="60.21993" lon="7.61265">
        <ele>1270.04</ele>
        <time>2019-04-05T10:43:03Z</time>
      </trkpt>
      <trkpt lat="60.21994" lon="7.61263">
        <ele>1269.56</ele>
        <time>2019-04-05T10:43:22Z</time>
      </trkpt>
      <trkpt lat="60.21994" lon="7.61262">
        <ele>1269.56</ele>
        <time>2019-04-05T10:43:51Z</time>
      </trkpt>
      <trkpt lat="60.21995" lon="7.61262">
        <ele>1269.56</ele>
        <time>2019-04-05T10:44:20Z</time>
      </trkpt>
      <trkpt lat="60.21996" lon="7.61263">
        <ele>1269.56</ele>
        <time>2019-04-05T10:44:44Z</time>
      </trkpt>
      <trkpt lat="60.21996" lon="7.61261">
        <ele>1269.56</ele>
        <time>2019-04-05T10:45:04Z</time>
      </trkpt>
      <trkpt lat="60.21996" lon="7.61261">
        <ele>1268.6</ele>
        <time>2019-04-05T10:45:30Z</time>
      </trkpt>
      <trkpt lat="60.21996" lon="7.6126">
        <ele>1270.04</ele>
        <time>2019-04-05T10:45:58Z</time>
      </trkpt>
      <trkpt lat="60.22014" lon="7.61263">
        <ele>1271.48</ele>
        <time>2019-04-05T10:46:04Z</time>
      </trkpt>
      <trkpt lat="60.22039" lon="7.61283">
        <ele>1270.04</ele>
        <time>2019-04-05T10:46:09Z</time>
      </trkpt>
      <trkpt lat="60.2205" lon="7.61294">
        <ele>1271</ele>
        <time>2019-04-05T10:46:11Z</time>
      </trkpt>
      <trkpt lat="60.22063" lon="7.61304">
        <ele>1268.6</ele>
        <time>2019-04-05T10:46:13Z</time>
      </trkpt>
      <trkpt lat="60.22093" lon="7.61328">
        <ele>1265.71</ele>
        <time>2019-04-05T10:46:18Z</time>
      </trkpt>
      <trkpt lat="60.22106" lon="7.61338">
        <ele>1265.23</ele>
        <time>2019-04-05T10:46:20Z</time>
      </trkpt>
      <trkpt lat="60.22125" lon="7.61358">
        <ele>1263.31</ele>
        <time>2019-04-05T10:46:23Z</time>
      </trkpt>
      <trkpt lat="60.2215" lon="7.61381">
        <ele>1260.91</ele>
        <time>2019-04-05T10:46:27Z</time>
      </trkpt>
      <trkpt lat="60.22184" lon="7.61411">
        <ele>1258.5</ele>
        <time>2019-04-05T10:46:32Z</time>
      </trkpt>
      <trkpt lat="60.22203" lon="7.6143">
        <ele>1256.1</ele>
        <time>2019-04-05T10:46:35Z</time>
      </trkpt>
      <trkpt lat="60.2221" lon="7.61436">
        <ele>1255.62</ele>
        <time>2019-04-05T10:46:36Z</time>
      </trkpt>
      <trkpt lat="60.22243" lon="7.61465">
        <ele>1252.25</ele>
        <time>2019-04-05T10:46:41Z</time>
      </trkpt>
      <trkpt lat="60.22288" lon="7.61489">
        <ele>1247.93</ele>
        <time>2019-04-05T10:46:47Z</time>
      </trkpt>
      <trkpt lat="60.22304" lon="7.61496">
        <ele>1247.45</ele>
        <time>2019-04-05T10:46:49Z</time>
      </trkpt>
      <trkpt lat="60.22343" lon="7.61519">
        <ele>1243.12</ele>
        <time>2019-04-05T10:46:54Z</time>
      </trkpt>
      <trkpt lat="60.22368" lon="7.61533">
        <ele>1239.28</ele>
        <time>2019-04-05T10:46:57Z</time>
      </trkpt>
      <trkpt lat="60.22395" lon="7.61549">
        <ele>1234.95</ele>
        <time>2019-04-05T10:47:00Z</time>
      </trkpt>
      <trkpt lat="60.22431" lon="7.61565">
        <ele>1232.55</ele>
        <time>2019-04-05T10:47:04Z</time>
      </trkpt>
      <trkpt lat="60.2244" lon="7.61568">
        <ele>1231.59</ele>
        <time>2019-04-05T10:47:05Z</time>
      </trkpt>
      <trkpt lat="60.22476" lon="7.61568">
        <ele>1229.18</ele>
        <time>2019-04-05T10:47:09Z</time>
      </trkpt>
      <trkpt lat="60.22508" lon="7.61572">
        <ele>1228.7</ele>
        <time>2019-04-05T10:47:13Z</time>
      </trkpt>
      <trkpt lat="60.22537" lon="7.61572">
        <ele>1229.18</ele>
        <time>2019-04-05T10:47:17Z</time>
      </trkpt>
      <trkpt lat="60.22558" lon="7.6158">
        <ele>1232.07</ele>
        <time>2019-04-05T10:47:20Z</time>
      </trkpt>
      <trkpt lat="60.22564" lon="7.61584">
        <ele>1232.07</ele>
        <time>2019-04-05T10:47:21Z</time>
      </trkpt>
      <trkpt lat="60.22585" lon="7.6159">
        <ele>1230.14</ele>
        <time>2019-04-05T10:47:24Z</time>
      </trkpt>
      <trkpt lat="60.22592" lon="7.61592">
        <ele>1231.11</ele>
        <time>2019-04-05T10:47:25Z</time>
      </trkpt>
      <trkpt lat="60.22606" lon="7.61591">
        <ele>1231.59</ele>
        <time>2019-04-05T10:47:27Z</time>
      </trkpt>
      <trkpt lat="60.22635" lon="7.61584">
        <ele>1233.03</ele>
        <time>2019-04-05T10:47:31Z</time>
      </trkpt>
      <trkpt lat="60.2265" lon="7.61582">
        <ele>1233.51</ele>
        <time>2019-04-05T10:47:33Z</time>
      </trkpt>
      <trkpt lat="60.22673" lon="7.61581">
        <ele>1234.95</ele>
        <time>2019-04-05T10:47:36Z</time>
      </trkpt>
      <trkpt lat="60.22695" lon="7.61579">
        <ele>1236.39</ele>
        <time>2019-04-05T10:47:39Z</time>
      </trkpt>
      <trkpt lat="60.22725" lon="7.61577">
        <ele>1237.35</ele>
        <time>2019-04-05T10:47:43Z</time>
      </trkpt>
      <trkpt lat="60.228" lon="7.61595">
        <ele>1239.28</ele>
        <time>2019-04-05T10:47:53Z</time>
      </trkpt>
      <trkpt lat="60.22857" lon="7.61642">
        <ele>1233.99</ele>
        <time>2019-04-05T10:48:01Z</time>
      </trkpt>
      <trkpt lat="60.22875" lon="7.61658">
        <ele>1233.51</ele>
        <time>2019-04-05T10:48:04Z</time>
      </trkpt>
      <trkpt lat="60.22924" lon="7.61694">
        <ele>1232.07</ele>
        <time>2019-04-05T10:48:12Z</time>
      </trkpt>
      <trkpt lat="60.22954" lon="7.6172">
        <ele>1230.62</ele>
        <time>2019-04-05T10:48:17Z</time>
      </trkpt>
      <trkpt lat="60.22968" lon="7.61736">
        <ele>1230.14</ele>
        <time>2019-04-05T10:48:20Z</time>
      </trkpt>
      <trkpt lat="60.22982" lon="7.61747">
        <ele>1229.18</ele>
        <time>2019-04-05T10:48:23Z</time>
      </trkpt>
      <trkpt lat="60.23013" lon="7.61762">
        <ele>1229.18</ele>
        <time>2019-04-05T10:48:29Z</time>
      </trkpt>
      <trkpt lat="60.23018" lon="7.61765">
        <ele>1229.18</ele>
        <time>2019-04-05T10:48:30Z</time>
      </trkpt>
      <trkpt lat="60.23023" lon="7.61767">
        <ele>1229.18</ele>
        <time>2019-04-05T10:48:31Z</time>
      </trkpt>
      <trkpt lat="60.23028" lon="7.61771">
        <ele>1229.18</ele>
        <time>2019-04-05T10:48:32Z</time>
      </trkpt>
      <trkpt lat="60.23047" lon="7.61786">
        <ele>1229.18</ele>
        <time>2019-04-05T10:48:36Z</time>
      </trkpt>
      <trkpt lat="60.23082" lon="7.61812">
        <ele>1226.3</ele>
        <time>2019-04-05T10:48:42Z</time>
      </trkpt>
      <trkpt lat="60.23104" lon="7.61826">
        <ele>1224.38</ele>
        <time>2019-04-05T10:48:45Z</time>
      </trkpt>
      <trkpt lat="60.2311" lon="7.61831">
        <ele>1224.38</ele>
        <time>2019-04-05T10:48:46Z</time>
      </trkpt>
      <trkpt lat="60.23188" lon="7.61869">
        <ele>1222.93</ele>
        <time>2019-04-05T10:48:58Z</time>
      </trkpt>
      <trkpt lat="60.23203" lon="7.61874">
        <ele>1224.86</ele>
        <time>2019-04-05T10:49:00Z</time>
      </trkpt>
      <trkpt lat="60.23224" lon="7.61885">
        <ele>1222.93</ele>
        <time>2019-04-05T10:49:03Z</time>
      </trkpt>
      <trkpt lat="60.23289" lon="7.61928">
        <ele>1220.05</ele>
        <time>2019-04-05T10:49:12Z</time>
      </trkpt>
      <trkpt lat="60.23322" lon="7.61959">
        <ele>1219.57</ele>
        <time>2019-04-05T10:49:18Z</time>
      </trkpt>
      <trkpt lat="60.2338" lon="7.62006">
        <ele>1214.76</ele>
        <time>2019-04-05T10:49:27Z</time>
      </trkpt>
      <trkpt lat="60.23387" lon="7.62012">
        <ele>1214.76</ele>
        <time>2019-04-05T10:49:28Z</time>
      </trkpt>
      <trkpt lat="60.23394" lon="7.62018">
        <ele>1214.28</ele>
        <time>2019-04-05T10:49:29Z</time>
      </trkpt>
      <trkpt lat="60.23427" lon="7.6205">
        <ele>1213.32</ele>
        <time>2019-04-05T10:49:34Z</time>
      </trkpt>
      <trkpt lat="60.2345" lon="7.62068">
        <ele>1212.36</ele>
        <time>2019-04-05T10:49:38Z</time>
      </trkpt>
      <trkpt lat="60.23534" lon="7.62105">
        <ele>1211.88</ele>
        <time>2019-04-05T10:49:51Z</time>
      </trkpt>
      <trkpt lat="60.23588" lon="7.62138">
        <ele>1210.92</ele>
        <time>2019-04-05T10:49:59Z</time>
      </trkpt>
      <trkpt lat="60.2361" lon="7.62146">
        <ele>1210.92</ele>
        <time>2019-04-05T10:50:03Z</time>
      </trkpt>
      <trkpt lat="60.23638" lon="7.62152">
        <ele>1213.32</ele>
        <time>2019-04-05T10:50:08Z</time>
      </trkpt>
      <trkpt lat="60.2365" lon="7.6216">
        <ele>1214.28</ele>
        <time>2019-04-05T10:50:11Z</time>
      </trkpt>
      <trkpt lat="60.23663" lon="7.62162">
        <ele>1215.72</ele>
        <time>2019-04-05T10:50:15Z</time>
      </trkpt>
      <trkpt lat="60.23698" lon="7.62195">
        <ele>1217.65</ele>
        <time>2019-04-05T10:50:23Z</time>
      </trkpt>
      <trkpt lat="60.23716" lon="7.62217">
        <ele>1213.8</ele>
        <time>2019-04-05T10:50:26Z</time>
      </trkpt>
      <trkpt lat="60.23745" lon="7.62241">
        <ele>1210.44</ele>
        <time>2019-04-05T10:50:30Z</time>
      </trkpt>
      <trkpt lat="60.2376" lon="7.6225">
        <ele>1209.96</ele>
        <time>2019-04-05T10:50:32Z</time>
      </trkpt>
      <trkpt lat="60.2378" lon="7.62266">
        <ele>1209.48</ele>
        <time>2019-04-05T10:50:35Z</time>
      </trkpt>
      <trkpt lat="60.23847" lon="7.62313">
        <ele>1209</ele>
        <time>2019-04-05T10:50:46Z</time>
      </trkpt>
      <trkpt lat="60.23885" lon="7.62341">
        <ele>1209</ele>
        <time>2019-04-05T10:50:52Z</time>
      </trkpt>
      <trkpt lat="60.2391" lon="7.62359">
        <ele>1209</ele>
        <time>2019-04-05T10:50:56Z</time>
      </trkpt>
      <trkpt lat="60.23929" lon="7.6237">
        <ele>1210.44</ele>
        <time>2019-04-05T10:50:59Z</time>
      </trkpt>
      <trkpt lat="60.23935" lon="7.62374">
        <ele>1210.44</ele>
        <time>2019-04-05T10:51:00Z</time>
      </trkpt>
      <trkpt lat="60.23961" lon="7.62385">
        <ele>1210.44</ele>
        <time>2019-04-05T10:51:04Z</time>
      </trkpt>
      <trkpt lat="60.23987" lon="7.62403">
        <ele>1209</ele>
        <time>2019-04-05T10:51:08Z</time>
      </trkpt>
      <trkpt lat="60.23998" lon="7.62406">
        <ele>1209</ele>
        <time>2019-04-05T10:51:10Z</time>
      </trkpt>
      <trkpt lat="60.24014" lon="7.62415">
        <ele>1209</ele>
        <time>2019-04-05T10:51:13Z</time>
      </trkpt>
      <trkpt lat="60.24041" lon="7.6242">
        <ele>1209</ele>
        <time>2019-04-05T10:51:18Z</time>
      </trkpt>
      <trkpt lat="60.24088" lon="7.62433">
        <ele>1210.44</ele>
        <time>2019-04-05T10:51:26Z</time>
      </trkpt>
      <trkpt lat="60.24117" lon="7.62431">
        <ele>1209.48</ele>
        <time>2019-04-05T10:51:31Z</time>
      </trkpt>
      <trkpt lat="60.24167" lon="7.62444">
        <ele>1209.48</ele>
        <time>2019-04-05T10:51:38Z</time>
      </trkpt>
      <trkpt lat="60.24207" lon="7.62455">
        <ele>1210.44</ele>
        <time>2019-04-05T10:51:44Z</time>
      </trkpt>
      <trkpt lat="60.24256" lon="7.62475">
        <ele>1212.84</ele>
        <time>2019-04-05T10:51:52Z</time>
      </trkpt>
      <trkpt lat="60.2433" lon="7.6251">
        <ele>1211.88</ele>
        <time>2019-04-05T10:52:03Z</time>
      </trkpt>
      <trkpt lat="60.24386" lon="7.62532">
        <ele>1210.44</ele>
        <time>2019-04-05T10:52:11Z</time>
      </trkpt>
      <trkpt lat="60.24401" lon="7.62538">
        <ele>1210.44</ele>
        <time>2019-04-05T10:52:13Z</time>
      </trkpt>
      <trkpt lat="60.2445" lon="7.62549">
        <ele>1211.88</ele>
        <time>2019-04-05T10:52:20Z</time>
      </trkpt>
      <trkpt lat="60.24479" lon="7.62554">
        <ele>1212.36</ele>
        <time>2019-04-05T10:52:24Z</time>
      </trkpt>
      <trkpt lat="60.24502" lon="7.62556">
        <ele>1212.84</ele>
        <time>2019-04-05T10:52:27Z</time>
      </trkpt>
      <trkpt lat="60.24548" lon="7.62541">
        <ele>1215.72</ele>
        <time>2019-04-05T10:52:33Z</time>
      </trkpt>
      <trkpt lat="60.2456" lon="7.62533">
        <ele>1217.17</ele>
        <time>2019-04-05T10:52:35Z</time>
      </trkpt>
      <trkpt lat="60.24569" lon="7.62518">
        <ele>1218.13</ele>
        <time>2019-04-05T10:52:42Z</time>
      </trkpt>
      <trkpt lat="60.24567" lon="7.62517">
        <ele>1218.61</ele>
        <time>2019-04-05T10:53:03Z</time>
      </trkpt>
      <trkpt lat="60.24566" lon="7.62518">
        <ele>1218.13</ele>
        <time>2019-04-05T10:53:28Z</time>
      </trkpt>
      <trkpt lat="60.24565" lon="7.6252">
        <ele>1219.09</ele>
        <time>2019-04-05T10:54:00Z</time>
      </trkpt>
      <trkpt lat="60.24564" lon="7.6252">
        <ele>1216.21</ele>
        <time>2019-04-05T10:54:08Z</time>
      </trkpt>
      <trkpt lat="60.24565" lon="7.62521">
        <ele>1215.24</ele>
        <time>2019-04-05T10:54:32Z</time>
      </trkpt>
      <trkpt lat="60.24565" lon="7.62523">
        <ele>1214.76</ele>
        <time>2019-04-05T10:54:33Z</time>
      </trkpt>
      <trkpt lat="60.24564" lon="7.62531">
        <ele>1213.32</ele>
        <time>2019-04-05T10:54:36Z</time>
      </trkpt>
      <trkpt lat="60.24564" lon="7.62544">
        <ele>1212.84</ele>
        <time>2019-04-05T10:54:50Z</time>
      </trkpt>
      <trkpt lat="60.24563" lon="7.62544">
        <ele>1214.28</ele>
        <time>2019-04-05T10:55:08Z</time>
      </trkpt>
      <trkpt lat="60.24562" lon="7.62546">
        <ele>1215.72</ele>
        <time>2019-04-05T10:55:16Z</time>
      </trkpt>
      <trkpt lat="60.24562" lon="7.62546">
        <ele>1214.28</ele>
        <time>2019-04-05T10:55:20Z</time>
      </trkpt>
      <trkpt lat="60.24558" lon="7.62544">
        <ele>1215.72</ele>
        <time>2019-04-05T10:55:45Z</time>
      </trkpt>
      <trkpt lat="60.24557" lon="7.62547">
        <ele>1215.72</ele>
        <time>2019-04-05T10:56:24Z</time>
      </trkpt>
      <trkpt lat="60.24556" lon="7.62545">
        <ele>1215.72</ele>
        <time>2019-04-05T10:56:47Z</time>
      </trkpt>
      <trkpt lat="60.24556" lon="7.62541">
        <ele>1216.21</ele>
        <time>2019-04-05T10:57:23Z</time>
      </trkpt>
      <trkpt lat="60.24555" lon="7.62541">
        <ele>1215.72</ele>
        <time>2019-04-05T10:57:26Z</time>
      </trkpt>
      <trkpt lat="60.24578" lon="7.62555">
        <ele>1216.69</ele>
        <time>2019-04-05T10:57:34Z</time>
      </trkpt>
      <trkpt lat="60.24594" lon="7.62574">
        <ele>1217.17</ele>
        <time>2019-04-05T10:57:37Z</time>
      </trkpt>
      <trkpt lat="60.24601" lon="7.6258">
        <ele>1216.21</ele>
        <time>2019-04-05T10:57:38Z</time>
      </trkpt>
      <trkpt lat="60.24607" lon="7.62586">
        <ele>1216.21</ele>
        <time>2019-04-05T10:57:39Z</time>
      </trkpt>
      <trkpt lat="60.24637" lon="7.62614">
        <ele>1209.96</ele>
        <time>2019-04-05T10:57:43Z</time>
      </trkpt>
      <trkpt lat="60.24653" lon="7.6263">
        <ele>1209</ele>
        <time>2019-04-05T10:57:45Z</time>
      </trkpt>
      <trkpt lat="60.24681" lon="7.62655">
        <ele>1208.03</ele>
        <time>2019-04-05T10:57:49Z</time>
      </trkpt>
      <trkpt lat="60.24708" lon="7.62674">
        <ele>1208.03</ele>
        <time>2019-04-05T10:57:53Z</time>
      </trkpt>
      <trkpt lat="60.24737" lon="7.62675">
        <ele>1208.03</ele>
        <time>2019-04-05T10:57:57Z</time>
      </trkpt>
      <trkpt lat="60.24768" lon="7.62681">
        <ele>1208.03</ele>
        <time>2019-04-05T10:58:01Z</time>
      </trkpt>
      <trkpt lat="60.24791" lon="7.62684">
        <ele>1209</ele>
        <time>2019-04-05T10:58:04Z</time>
      </trkpt>
      <trkpt lat="60.24884" lon="7.62695">
        <ele>1209</ele>
        <time>2019-04-05T10:58:16Z</time>
      </trkpt>
      <trkpt lat="60.24897" lon="7.627">
        <ele>1209.96</ele>
        <time>2019-04-05T10:58:18Z</time>
      </trkpt>
      <trkpt lat="60.2496" lon="7.62741">
        <ele>1210.92</ele>
        <time>2019-04-05T10:58:29Z</time>
      </trkpt>
      <trkpt lat="60.2505" lon="7.62788">
        <ele>1209.48</ele>
        <time>2019-04-05T10:58:43Z</time>
      </trkpt>
      <trkpt lat="60.25063" lon="7.62794">
        <ele>1208.51</ele>
        <time>2019-04-05T10:58:45Z</time>
      </trkpt>
      <trkpt lat="60.25157" lon="7.62851">
        <ele>1208.03</ele>
        <time>2019-04-05T10:59:00Z</time>
      </trkpt>
      <trkpt lat="60.25182" lon="7.62863">
        <ele>1208.03</ele>
        <time>2019-04-05T10:59:04Z</time>
      </trkpt>
      <trkpt lat="60.25201" lon="7.62871">
        <ele>1209</ele>
        <time>2019-04-05T10:59:07Z</time>
      </trkpt>
      <trkpt lat="60.25207" lon="7.62872">
        <ele>1209.48</ele>
        <time>2019-04-05T10:59:08Z</time>
      </trkpt>
      <trkpt lat="60.2528" lon="7.62885">
        <ele>1212.84</ele>
        <time>2019-04-05T10:59:19Z</time>
      </trkpt>
      <trkpt lat="60.25287" lon="7.62887">
        <ele>1212.84</ele>
        <time>2019-04-05T10:59:20Z</time>
      </trkpt>
      <trkpt lat="60.25313" lon="7.629">
        <ele>1214.76</ele>
        <time>2019-04-05T10:59:24Z</time>
      </trkpt>
      <trkpt lat="60.25329" lon="7.62913">
        <ele>1215.24</ele>
        <time>2019-04-05T10:59:27Z</time>
      </trkpt>
      <trkpt lat="60.25335" lon="7.62918">
        <ele>1215.24</ele>
        <time>2019-04-05T10:59:28Z</time>
      </trkpt>
      <trkpt lat="60.25341" lon="7.62922">
        <ele>1215.24</ele>
        <time>2019-04-05T10:59:29Z</time>
      </trkpt>
      <trkpt lat="60.25423" lon="7.62981">
        <ele>1215.72</ele>
        <time>2019-04-05T10:59:42Z</time>
      </trkpt>
      <trkpt lat="60.25499" lon="7.63004">
        <ele>1218.61</ele>
        <time>2019-04-05T10:59:53Z</time>
      </trkpt>
      <trkpt lat="60.25571" lon="7.63009">
        <ele>1222.45</ele>
        <time>2019-04-05T11:00:02Z</time>
      </trkpt>
      <trkpt lat="60.25591" lon="7.63013">
        <ele>1223.9</ele>
        <time>2019-04-05T11:00:05Z</time>
      </trkpt>
      <trkpt lat="60.25598" lon="7.63016">
        <ele>1223.9</ele>
        <time>2019-04-05T11:00:06Z</time>
      </trkpt>
      <trkpt lat="60.25622" lon="7.63025">
        <ele>1226.3</ele>
        <time>2019-04-05T11:00:10Z</time>
      </trkpt>
      <trkpt lat="60.2564" lon="7.63036">
        <ele>1224.38</ele>
        <time>2019-04-05T11:00:13Z</time>
      </trkpt>
      <trkpt lat="60.25684" lon="7.63061">
        <ele>1224.38</ele>
        <time>2019-04-05T11:00:20Z</time>
      </trkpt>
      <trkpt lat="60.25689" lon="7.63065">
        <ele>1224.38</ele>
        <time>2019-04-05T11:00:21Z</time>
      </trkpt>
      <trkpt lat="60.25694" lon="7.63069">
        <ele>1223.42</ele>
        <time>2019-04-05T11:00:22Z</time>
      </trkpt>
      <trkpt lat="60.25698" lon="7.63072">
        <ele>1222.93</ele>
        <time>2019-04-05T11:00:23Z</time>
      </trkpt>
      <trkpt lat="60.25703" lon="7.63074">
        <ele>1222.93</ele>
        <time>2019-04-05T11:00:24Z</time>
      </trkpt>
      <trkpt lat="60.25707" lon="7.63076">
        <ele>1221.97</ele>
        <time>2019-04-05T11:00:25Z</time>
      </trkpt>
      <trkpt lat="60.2572" lon="7.63083">
        <ele>1221.49</ele>
        <time>2019-04-05T11:00:28Z</time>
      </trkpt>
      <trkpt lat="60.25724" lon="7.63087">
        <ele>1221.49</ele>
        <time>2019-04-05T11:00:29Z</time>
      </trkpt>
      <trkpt lat="60.2574" lon="7.63105">
        <ele>1220.53</ele>
        <time>2019-04-05T11:00:33Z</time>
      </trkpt>
      <trkpt lat="60.25781" lon="7.63135">
        <ele>1220.05</ele>
        <time>2019-04-05T11:00:40Z</time>
      </trkpt>
      <trkpt lat="60.25872" lon="7.63169">
        <ele>1216.69</ele>
        <time>2019-04-05T11:00:51Z</time>
      </trkpt>
      <trkpt lat="60.25879" lon="7.63172">
        <ele>1216.69</ele>
        <time>2019-04-05T11:00:52Z</time>
      </trkpt>
      <trkpt lat="60.25984" lon="7.63201">
        <ele>1214.28</ele>
        <time>2019-04-05T11:01:05Z</time>
      </trkpt>
      <trkpt lat="60.26068" lon="7.63218">
        <ele>1212.36</ele>
        <time>2019-04-05T11:01:16Z</time>
      </trkpt>
      <trkpt lat="60.26153" lon="7.63207">
        <ele>1211.88</ele>
        <time>2019-04-05T11:01:26Z</time>
      </trkpt>
      <trkpt lat="60.26204" lon="7.63221">
        <ele>1212.36</ele>
        <time>2019-04-05T11:01:33Z</time>
      </trkpt>
      <trkpt lat="60.2629" lon="7.63231">
        <ele>1210.44</ele>
        <time>2019-04-05T11:01:45Z</time>
      </trkpt>
      <trkpt lat="60.2633" lon="7.63239">
        <ele>1209</ele>
        <time>2019-04-05T11:01:51Z</time>
      </trkpt>
      <trkpt lat="60.26362" lon="7.63253">
        <ele>1210.44</ele>
        <time>2019-04-05T11:01:56Z</time>
      </trkpt>
      <trkpt lat="60.26381" lon="7.63262">
        <ele>1209.48</ele>
        <time>2019-04-05T11:01:59Z</time>
      </trkpt>
      <trkpt lat="60.26412" lon="7.63279">
        <ele>1210.44</ele>
        <time>2019-04-05T11:02:04Z</time>
      </trkpt>
      <trkpt lat="60.26471" lon="7.63305">
        <ele>1212.36</ele>
        <time>2019-04-05T11:02:14Z</time>
      </trkpt>
      <trkpt lat="60.2652" lon="7.63329">
        <ele>1215.72</ele>
        <time>2019-04-05T11:02:22Z</time>
      </trkpt>
      <trkpt lat="60.26562" lon="7.63345">
        <ele>1216.69</ele>
        <time>2019-04-05T11:02:30Z</time>
      </trkpt>
      <trkpt lat="60.26635" lon="7.63386">
        <ele>1217.17</ele>
        <time>2019-04-05T11:02:43Z</time>
      </trkpt>
      <trkpt lat="60.26661" lon="7.634">
        <ele>1214.76</ele>
        <time>2019-04-05T11:02:47Z</time>
      </trkpt>
      <trkpt lat="60.26668" lon="7.63403">
        <ele>1214.76</ele>
        <time>2019-04-05T11:02:48Z</time>
      </trkpt>
      <trkpt lat="60.26682" lon="7.63409">
        <ele>1214.76</ele>
        <time>2019-04-05T11:02:50Z</time>
      </trkpt>
      <trkpt lat="60.26778" lon="7.63447">
        <ele>1213.32</ele>
        <time>2019-04-05T11:03:03Z</time>
      </trkpt>
      <trkpt lat="60.26815" lon="7.63465">
        <ele>1213.32</ele>
        <time>2019-04-05T11:03:09Z</time>
      </trkpt>
      <trkpt lat="60.26842" lon="7.63472">
        <ele>1215.24</ele>
        <time>2019-04-05T11:03:13Z</time>
      </trkpt>
      <trkpt lat="60.26863" lon="7.63474">
        <ele>1216.69</ele>
        <time>2019-04-05T11:03:16Z</time>
      </trkpt>
      <trkpt lat="60.26907" lon="7.63482">
        <ele>1217.65</ele>
        <time>2019-04-05T11:03:22Z</time>
      </trkpt>
      <trkpt lat="60.26982" lon="7.63497">
        <ele>1216.21</ele>
        <time>2019-04-05T11:03:31Z</time>
      </trkpt>
      <trkpt lat="60.27017" lon="7.63505">
        <ele>1213.8</ele>
        <time>2019-04-05T11:03:35Z</time>
      </trkpt>
      <trkpt lat="60.27052" lon="7.63509">
        <ele>1212.36</ele>
        <time>2019-04-05T11:03:39Z</time>
      </trkpt>
      <trkpt lat="60.27126" lon="7.63519">
        <ele>1211.88</ele>
        <time>2019-04-05T11:03:48Z</time>
      </trkpt>
      <trkpt lat="60.27159" lon="7.63517">
        <ele>1211.88</ele>
        <time>2019-04-05T11:03:52Z</time>
      </trkpt>
      <trkpt lat="60.2719" lon="7.63522">
        <ele>1213.32</ele>
        <time>2019-04-05T11:03:56Z</time>
      </trkpt>
      <trkpt lat="60.2724" lon="7.63528">
        <ele>1212.36</ele>
        <time>2019-04-05T11:04:02Z</time>
      </trkpt>
      <trkpt lat="60.27256" lon="7.63532">
        <ele>1213.8</ele>
        <time>2019-04-05T11:04:04Z</time>
      </trkpt>
      <trkpt lat="60.27346" lon="7.63547">
        <ele>1212.36</ele>
        <time>2019-04-05T11:04:15Z</time>
      </trkpt>
      <trkpt lat="60.27367" lon="7.63555">
        <ele>1214.76</ele>
        <time>2019-04-05T11:04:18Z</time>
      </trkpt>
      <trkpt lat="60.27386" lon="7.63559">
        <ele>1212.84</ele>
        <time>2019-04-05T11:04:21Z</time>
      </trkpt>
      <trkpt lat="60.27392" lon="7.63561">
        <ele>1212.84</ele>
        <time>2019-04-05T11:04:22Z</time>
      </trkpt>
      <trkpt lat="60.27425" lon="7.63576">
        <ele>1212.84</ele>
        <time>2019-04-05T11:04:28Z</time>
      </trkpt>
      <trkpt lat="60.27436" lon="7.63575">
        <ele>1212.36</ele>
        <time>2019-04-05T11:04:30Z</time>
      </trkpt>
      <trkpt lat="60.2746" lon="7.63577">
        <ele>1212.36</ele>
        <time>2019-04-05T11:04:34Z</time>
      </trkpt>
      <trkpt lat="60.27541" lon="7.63605">
        <ele>1212.36</ele>
        <time>2019-04-05T11:04:46Z</time>
      </trkpt>
      <trkpt lat="60.27555" lon="7.63608">
        <ele>1213.8</ele>
        <time>2019-04-05T11:04:48Z</time>
      </trkpt>
      <trkpt lat="60.27596" lon="7.63619">
        <ele>1214.28</ele>
        <time>2019-04-05T11:04:54Z</time>
      </trkpt>
      <trkpt lat="60.27626" lon="7.63621">
        <ele>1214.76</ele>
        <time>2019-04-05T11:04:58Z</time>
      </trkpt>
      <trkpt lat="60.27746" lon="7.63617">
        <ele>1216.21</ele>
        <time>2019-04-05T11:05:13Z</time>
      </trkpt>
      <trkpt lat="60.27753" lon="7.63615">
        <ele>1216.21</ele>
        <time>2019-04-05T11:05:14Z</time>
      </trkpt>
      <trkpt lat="60.27803" lon="7.63588">
        <ele>1216.69</ele>
        <time>2019-04-05T11:05:21Z</time>
      </trkpt>
      <trkpt lat="60.27851" lon="7.63582">
        <ele>1215.72</ele>
        <time>2019-04-05T11:05:27Z</time>
      </trkpt>
      <trkpt lat="60.27893" lon="7.63584">
        <ele>1215.72</ele>
        <time>2019-04-05T11:05:32Z</time>
      </trkpt>
      <trkpt lat="60.27953" lon="7.63613">
        <ele>1217.17</ele>
        <time>2019-04-05T11:05:40Z</time>
      </trkpt>
      <trkpt lat="60.28005" lon="7.63638">
        <ele>1217.17</ele>
        <time>2019-04-05T11:05:47Z</time>
      </trkpt>
      <trkpt lat="60.28025" lon="7.63653">
        <ele>1218.61</ele>
        <time>2019-04-05T11:05:50Z</time>
      </trkpt>
      <trkpt lat="60.28067" lon="7.6368">
        <ele>1217.17</ele>
        <time>2019-04-05T11:05:56Z</time>
      </trkpt>
      <trkpt lat="60.28152" lon="7.6371">
        <ele>1218.61</ele>
        <time>2019-04-05T11:06:07Z</time>
      </trkpt>
      <trkpt lat="60.28166" lon="7.63706">
        <ele>1218.61</ele>
        <time>2019-04-05T11:06:09Z</time>
      </trkpt>
      <trkpt lat="60.28178" lon="7.63707">
        <ele>1216.69</ele>
        <time>2019-04-05T11:06:12Z</time>
      </trkpt>
      <trkpt lat="60.28178" lon="7.63702">
        <ele>1216.21</ele>
        <time>2019-04-05T11:06:22Z</time>
      </trkpt>
      <trkpt lat="60.28177" lon="7.637">
        <ele>1215.72</ele>
        <time>2019-04-05T11:06:35Z</time>
      </trkpt>
      <trkpt lat="60.28181" lon="7.63697">
        <ele>1215.72</ele>
        <time>2019-04-05T11:06:52Z</time>
      </trkpt>
      <trkpt lat="60.28183" lon="7.637">
        <ele>1216.69</ele>
        <time>2019-04-05T11:07:23Z</time>
      </trkpt>
      <trkpt lat="60.28185" lon="7.63701">
        <ele>1216.69</ele>
        <time>2019-04-05T11:07:39Z</time>
      </trkpt>
      <trkpt lat="60.28192" lon="7.63707">
        <ele>1216.69</ele>
        <time>2019-04-05T11:07:43Z</time>
      </trkpt>
      <trkpt lat="60.28251" lon="7.63755">
        <ele>1219.57</ele>
        <time>2019-04-05T11:07:56Z</time>
      </trkpt>
      <trkpt lat="60.28292" lon="7.63799">
        <ele>1217.65</ele>
        <time>2019-04-05T11:08:06Z</time>
      </trkpt>
      <trkpt lat="60.28297" lon="7.63801">
        <ele>1216.69</ele>
        <time>2019-04-05T11:08:19Z</time>
      </trkpt>
      <trkpt lat="60.28297" lon="7.63801">
        <ele>1216.69</ele>
        <time>2019-04-05T11:08:39Z</time>
      </trkpt>
      <trkpt lat="60.28308" lon="7.63811">
        <ele>1218.13</ele>
        <time>2019-04-05T11:08:44Z</time>
      </trkpt>
      <trkpt lat="60.2833" lon="7.63826">
        <ele>1220.05</ele>
        <time>2019-04-05T11:08:49Z</time>
      </trkpt>
      <trkpt lat="60.28341" lon="7.63833">
        <ele>1220.53</ele>
        <time>2019-04-05T11:08:51Z</time>
      </trkpt>
      <trkpt lat="60.28358" lon="7.63846">
        <ele>1221.01</ele>
        <time>2019-04-05T11:08:54Z</time>
      </trkpt>
      <trkpt lat="60.28368" lon="7.63857">
        <ele>1219.57</ele>
        <time>2019-04-05T11:08:56Z</time>
      </trkpt>
      <trkpt lat="60.28405" lon="7.63882">
        <ele>1221.01</ele>
        <time>2019-04-05T11:09:02Z</time>
      </trkpt>
      <trkpt lat="60.2849" lon="7.63936">
        <ele>1221.01</ele>
        <time>2019-04-05T11:09:15Z</time>
      </trkpt>
      <trkpt lat="60.28514" lon="7.63951">
        <ele>1221.01</ele>
        <time>2019-04-05T11:09:19Z</time>
      </trkpt>
      <trkpt lat="60.28566" lon="7.63984">
        <ele>1219.09</ele>
        <time>2019-04-05T11:09:28Z</time>
      </trkpt>
      <trkpt lat="60.28601" lon="7.64012">
        <ele>1219.09</ele>
        <time>2019-04-05T11:09:34Z</time>
      </trkpt>
      <trkpt lat="60.28684" lon="7.64095">
        <ele>1218.13</ele>
        <time>2019-04-05T11:09:49Z</time>
      </trkpt>
      <trkpt lat="60.28728" lon="7.64136">
        <ele>1217.17</ele>
        <time>2019-04-05T11:09:57Z</time>
      </trkpt>
      <trkpt lat="60.28797" lon="7.64202">
        <ele>1216.69</ele>
        <time>2019-04-05T11:10:08Z</time>
      </trkpt>
      <trkpt lat="60.28808" lon="7.64216">
        <ele>1218.13</ele>
        <time>2019-04-05T11:10:10Z</time>
      </trkpt>
      <trkpt lat="60.28813" lon="7.64222">
        <ele>1218.61</ele>
        <time>2019-04-05T11:10:11Z</time>
      </trkpt>
      <trkpt lat="60.28817" lon="7.64226">
        <ele>1218.61</ele>
        <time>2019-04-05T11:10:12Z</time>
      </trkpt>
      <trkpt lat="60.28822" lon="7.64231">
        <ele>1218.61</ele>
        <time>2019-04-05T11:10:13Z</time>
      </trkpt>
      <trkpt lat="60.28833" lon="7.64241">
        <ele>1219.09</ele>
        <time>2019-04-05T11:10:15Z</time>
      </trkpt>
      <trkpt lat="60.28853" lon="7.64267">
        <ele>1219.57</ele>
        <time>2019-04-05T11:10:19Z</time>
      </trkpt>
      <trkpt lat="60.28858" lon="7.64272">
        <ele>1219.57</ele>
        <time>2019-04-05T11:10:20Z</time>
      </trkpt>
      <trkpt lat="60.28879" lon="7.64297">
        <ele>1219.57</ele>
        <time>2019-04-05T11:10:24Z</time>
      </trkpt>
      <trkpt lat="60.28906" lon="7.64338">
        <ele>1218.61</ele>
        <time>2019-04-05T11:10:29Z</time>
      </trkpt>
      <trkpt lat="60.28912" lon="7.64345">
        <ele>1218.61</ele>
        <time>2019-04-05T11:10:30Z</time>
      </trkpt>
      <trkpt lat="60.2893" lon="7.64368">
        <ele>1217.65</ele>
        <time>2019-04-05T11:10:33Z</time>
      </trkpt>
      <trkpt lat="60.28936" lon="7.64375">
        <ele>1217.17</ele>
        <time>2019-04-05T11:10:34Z</time>
      </trkpt>
      <trkpt lat="60.28942" lon="7.64381">
        <ele>1217.17</ele>
        <time>2019-04-05T11:10:35Z</time>
      </trkpt>
      <trkpt lat="60.28955" lon="7.64391">
        <ele>1216.69</ele>
        <time>2019-04-05T11:10:37Z</time>
      </trkpt>
      <trkpt lat="60.28977" lon="7.64403">
        <ele>1216.69</ele>
        <time>2019-04-05T11:10:40Z</time>
      </trkpt>
      <trkpt lat="60.28991" lon="7.64415">
        <ele>1216.69</ele>
        <time>2019-04-05T11:10:42Z</time>
      </trkpt>
      <trkpt lat="60.28996" lon="7.6442">
        <ele>1216.69</ele>
        <time>2019-04-05T11:10:43Z</time>
      </trkpt>
      <trkpt lat="60.29021" lon="7.64442">
        <ele>1218.13</ele>
        <time>2019-04-05T11:10:48Z</time>
      </trkpt>
      <trkpt lat="60.29026" lon="7.64446">
        <ele>1218.13</ele>
        <time>2019-04-05T11:10:49Z</time>
      </trkpt>
      <trkpt lat="60.29031" lon="7.6445">
        <ele>1218.13</ele>
        <time>2019-04-05T11:10:50Z</time>
      </trkpt>
      <trkpt lat="60.29036" lon="7.64455">
        <ele>1218.13</ele>
        <time>2019-04-05T11:10:51Z</time>
      </trkpt>
      <trkpt lat="60.29041" lon="7.64459">
        <ele>1218.13</ele>
        <time>2019-04-05T11:10:52Z</time>
      </trkpt>
      <trkpt lat="60.29067" lon="7.64479">
        <ele>1219.57</ele>
        <time>2019-04-05T11:10:57Z</time>
      </trkpt>
      <trkpt lat="60.29073" lon="7.64483">
        <ele>1219.57</ele>
        <time>2019-04-05T11:10:58Z</time>
      </trkpt>
      <trkpt lat="60.29085" lon="7.6449">
        <ele>1219.57</ele>
        <time>2019-04-05T11:11:00Z</time>
      </trkpt>
      <trkpt lat="60.2909" lon="7.64495">
        <ele>1219.57</ele>
        <time>2019-04-05T11:11:01Z</time>
      </trkpt>
      <trkpt lat="60.29112" lon="7.6451">
        <ele>1221.49</ele>
        <time>2019-04-05T11:11:05Z</time>
      </trkpt>
      <trkpt lat="60.29151" lon="7.64524">
        <ele>1224.38</ele>
        <time>2019-04-05T11:11:12Z</time>
      </trkpt>
      <trkpt lat="60.2919" lon="7.64533">
        <ele>1222.45</ele>
        <time>2019-04-05T11:11:19Z</time>
      </trkpt>
      <trkpt lat="60.29197" lon="7.64535">
        <ele>1222.45</ele>
        <time>2019-04-05T11:11:20Z</time>
      </trkpt>
      <trkpt lat="60.29217" lon="7.64543">
        <ele>1221.01</ele>
        <time>2019-04-05T11:11:23Z</time>
      </trkpt>
      <trkpt lat="60.29241" lon="7.64555">
        <ele>1219.09</ele>
        <time>2019-04-05T11:11:26Z</time>
      </trkpt>
      <trkpt lat="60.2925" lon="7.64558">
        <ele>1219.09</ele>
        <time>2019-04-05T11:11:27Z</time>
      </trkpt>
      <trkpt lat="60.29258" lon="7.64559">
        <ele>1219.09</ele>
        <time>2019-04-05T11:11:28Z</time>
      </trkpt>
      <trkpt lat="60.29266" lon="7.64557">
        <ele>1217.17</ele>
        <time>2019-04-05T11:11:29Z</time>
      </trkpt>
      <trkpt lat="60.29275" lon="7.64555">
        <ele>1217.17</ele>
        <time>2019-04-05T11:11:30Z</time>
      </trkpt>
      <trkpt lat="60.29283" lon="7.64555">
        <ele>1218.61</ele>
        <time>2019-04-05T11:11:31Z</time>
      </trkpt>
      <trkpt lat="60.29291" lon="7.64556">
        <ele>1218.61</ele>
        <time>2019-04-05T11:11:32Z</time>
      </trkpt>
      <trkpt lat="60.29298" lon="7.64558">
        <ele>1218.61</ele>
        <time>2019-04-05T11:11:33Z</time>
      </trkpt>
      <trkpt lat="60.29305" lon="7.64559">
        <ele>1217.17</ele>
        <time>2019-04-05T11:11:34Z</time>
      </trkpt>
      <trkpt lat="60.29312" lon="7.64561">
        <ele>1217.17</ele>
        <time>2019-04-05T11:11:35Z</time>
      </trkpt>
      <trkpt lat="60.29319" lon="7.64561">
        <ele>1217.17</ele>
        <time>2019-04-05T11:11:36Z</time>
      </trkpt>
      <trkpt lat="60.29326" lon="7.64563">
        <ele>1219.09</ele>
        <time>2019-04-05T11:11:37Z</time>
      </trkpt>
      <trkpt lat="60.29333" lon="7.64564">
        <ele>1219.09</ele>
        <time>2019-04-05T11:11:38Z</time>
      </trkpt>
      <trkpt lat="60.29339" lon="7.64565">
        <ele>1219.09</ele>
        <time>2019-04-05T11:11:39Z</time>
      </trkpt>
      <trkpt lat="60.2935" lon="7.64567">
        <ele>1219.09</ele>
        <time>2019-04-05T11:11:41Z</time>
      </trkpt>
      <trkpt lat="60.29355" lon="7.64569">
        <ele>1219.09</ele>
        <time>2019-04-05T11:11:42Z</time>
      </trkpt>
      <trkpt lat="60.2936" lon="7.6457">
        <ele>1219.57</ele>
        <time>2019-04-05T11:11:43Z</time>
      </trkpt>
      <trkpt lat="60.29365" lon="7.64571">
        <ele>1219.57</ele>
        <time>2019-04-05T11:11:44Z</time>
      </trkpt>
      <trkpt lat="60.29371" lon="7.64571">
        <ele>1219.57</ele>
        <time>2019-04-05T11:11:45Z</time>
      </trkpt>
      <trkpt lat="60.29376" lon="7.64572">
        <ele>1219.57</ele>
        <time>2019-04-05T11:11:46Z</time>
      </trkpt>
      <trkpt lat="60.29382" lon="7.64573">
        <ele>1220.05</ele>
        <time>2019-04-05T11:11:47Z</time>
      </trkpt>
      <trkpt lat="60.29393" lon="7.64577">
        <ele>1221.01</ele>
        <time>2019-04-05T11:11:49Z</time>
      </trkpt>
      <trkpt lat="60.29408" lon="7.64582">
        <ele>1221.49</ele>
        <time>2019-04-05T11:11:52Z</time>
      </trkpt>
      <trkpt lat="60.29419" lon="7.64587">
        <ele>1221.97</ele>
        <time>2019-04-05T11:11:54Z</time>
      </trkpt>
      <trkpt lat="60.29437" lon="7.64586">
        <ele>1221.97</ele>
        <time>2019-04-05T11:11:58Z</time>
      </trkpt>
      <trkpt lat="60.29458" lon="7.64584">
        <ele>1224.38</ele>
        <time>2019-04-05T11:12:02Z</time>
      </trkpt>
      <trkpt lat="60.29487" lon="7.64594">
        <ele>1222.45</ele>
        <time>2019-04-05T11:12:07Z</time>
      </trkpt>
      <trkpt lat="60.29539" lon="7.64611">
        <ele>1219.57</ele>
        <time>2019-04-05T11:12:15Z</time>
      </trkpt>
      <trkpt lat="60.29554" lon="7.64612">
        <ele>1218.13</ele>
        <time>2019-04-05T11:12:17Z</time>
      </trkpt>
      <trkpt lat="60.29583" lon="7.64612">
        <ele>1214.28</ele>
        <time>2019-04-05T11:12:20Z</time>
      </trkpt>
      <trkpt lat="60.29604" lon="7.64609">
        <ele>1212.84</ele>
        <time>2019-04-05T11:12:22Z</time>
      </trkpt>
      <trkpt lat="60.29667" lon="7.64591">
        <ele>1213.32</ele>
        <time>2019-04-05T11:12:29Z</time>
      </trkpt>
      <trkpt lat="60.29725" lon="7.64569">
        <ele>1211.88</ele>
        <time>2019-04-05T11:12:36Z</time>
      </trkpt>
      <trkpt lat="60.29731" lon="7.64567">
        <ele>1211.88</ele>
        <time>2019-04-05T11:12:37Z</time>
      </trkpt>
      <trkpt lat="60.29744" lon="7.64558">
        <ele>1215.24</ele>
        <time>2019-04-05T11:12:39Z</time>
      </trkpt>
      <trkpt lat="60.29768" lon="7.64547">
        <ele>1216.21</ele>
        <time>2019-04-05T11:12:43Z</time>
      </trkpt>
      <trkpt lat="60.29825" lon="7.64527">
        <ele>1216.21</ele>
        <time>2019-04-05T11:12:52Z</time>
      </trkpt>
      <trkpt lat="60.29841" lon="7.64523">
        <ele>1219.57</ele>
        <time>2019-04-05T11:12:55Z</time>
      </trkpt>
      <trkpt lat="60.29846" lon="7.64521">
        <ele>1219.57</ele>
        <time>2019-04-05T11:12:56Z</time>
      </trkpt>
      <trkpt lat="60.29927" lon="7.64485">
        <ele>1221.97</ele>
        <time>2019-04-05T11:13:09Z</time>
      </trkpt>
      <trkpt lat="60.29963" lon="7.64473">
        <ele>1218.61</ele>
        <time>2019-04-05T11:13:14Z</time>
      </trkpt>
      <trkpt lat="60.29981" lon="7.64473">
        <ele>1218.61</ele>
        <time>2019-04-05T11:13:17Z</time>
      </trkpt>
      <trkpt lat="60.30016" lon="7.64472">
        <ele>1221.97</ele>
        <time>2019-04-05T11:13:24Z</time>
      </trkpt>
      <trkpt lat="60.3002" lon="7.64471">
        <ele>1222.93</ele>
        <time>2019-04-05T11:13:25Z</time>
      </trkpt>
      <trkpt lat="60.30029" lon="7.64469">
        <ele>1223.9</ele>
        <time>2019-04-05T11:13:27Z</time>
      </trkpt>
      <trkpt lat="60.30034" lon="7.64467">
        <ele>1223.9</ele>
        <time>2019-04-05T11:13:28Z</time>
      </trkpt>
      <trkpt lat="60.3006" lon="7.64462">
        <ele>1226.78</ele>
        <time>2019-04-05T11:13:33Z</time>
      </trkpt>
      <trkpt lat="60.30107" lon="7.6444">
        <ele>1228.22</ele>
        <time>2019-04-05T11:13:40Z</time>
      </trkpt>
      <trkpt lat="60.30161" lon="7.64396">
        <ele>1225.82</ele>
        <time>2019-04-05T11:13:47Z</time>
      </trkpt>
      <trkpt lat="60.30167" lon="7.6439">
        <ele>1225.82</ele>
        <time>2019-04-05T11:13:48Z</time>
      </trkpt>
      <trkpt lat="60.30214" lon="7.64369">
        <ele>1226.3</ele>
        <time>2019-04-05T11:13:55Z</time>
      </trkpt>
      <trkpt lat="60.30231" lon="7.6436">
        <ele>1227.26</ele>
        <time>2019-04-05T11:13:57Z</time>
      </trkpt>
      <trkpt lat="60.3028" lon="7.64324">
        <ele>1230.62</ele>
        <time>2019-04-05T11:14:04Z</time>
      </trkpt>
      <trkpt lat="60.30286" lon="7.6432">
        <ele>1230.62</ele>
        <time>2019-04-05T11:14:05Z</time>
      </trkpt>
      <trkpt lat="60.30303" lon="7.64311">
        <ele>1232.55</ele>
        <time>2019-04-05T11:14:08Z</time>
      </trkpt>
      <trkpt lat="60.30314" lon="7.64307">
        <ele>1233.99</ele>
        <time>2019-04-05T11:14:10Z</time>
      </trkpt>
      <trkpt lat="60.30324" lon="7.64306">
        <ele>1234.95</ele>
        <time>2019-04-05T11:14:12Z</time>
      </trkpt>
      <trkpt lat="60.30331" lon="7.64309">
        <ele>1236.39</ele>
        <time>2019-04-05T11:14:15Z</time>
      </trkpt>
      <trkpt lat="60.30335" lon="7.64307">
        <ele>1234.47</ele>
        <time>2019-04-05T11:14:18Z</time>
      </trkpt>
      <trkpt lat="60.30344" lon="7.64296">
        <ele>1233.99</ele>
        <time>2019-04-05T11:14:26Z</time>
      </trkpt>
      <trkpt lat="60.30348" lon="7.64282">
        <ele>1233.03</ele>
        <time>2019-04-05T11:14:35Z</time>
      </trkpt>
      <trkpt lat="60.30351" lon="7.64279">
        <ele>1233.03</ele>
        <time>2019-04-05T11:14:38Z</time>
      </trkpt>
      <trkpt lat="60.30354" lon="7.64279">
        <ele>1232.07</ele>
        <time>2019-04-05T11:14:51Z</time>
      </trkpt>
      <trkpt lat="60.30355" lon="7.64278">
        <ele>1232.07</ele>
        <time>2019-04-05T11:15:10Z</time>
      </trkpt>
      <trkpt lat="60.30357" lon="7.64275">
        <ele>1233.51</ele>
        <time>2019-04-05T11:15:23Z</time>
      </trkpt>
      <trkpt lat="60.30358" lon="7.64273">
        <ele>1234.47</ele>
        <time>2019-04-05T11:15:31Z</time>
      </trkpt>
      <trkpt lat="60.3036" lon="7.64263">
        <ele>1233.03</ele>
        <time>2019-04-05T11:15:35Z</time>
      </trkpt>
      <trkpt lat="60.30361" lon="7.64259">
        <ele>1232.55</ele>
        <time>2019-04-05T11:15:36Z</time>
      </trkpt>
      <trkpt lat="60.30369" lon="7.64245">
        <ele>1235.43</ele>
        <time>2019-04-05T11:15:49Z</time>
      </trkpt>
      <trkpt lat="60.30375" lon="7.6421">
        <ele>1233.51</ele>
        <time>2019-04-05T11:16:00Z</time>
      </trkpt>
      <trkpt lat="60.30376" lon="7.64208">
        <ele>1233.99</ele>
        <time>2019-04-05T11:16:19Z</time>
      </trkpt>
      <trkpt lat="60.30377" lon="7.64206">
        <ele>1233.99</ele>
        <time>2019-04-05T11:16:25Z</time>
      </trkpt>
      <trkpt lat="60.30378" lon="7.64198">
        <ele>1233.99</ele>
        <time>2019-04-05T11:16:28Z</time>
      </trkpt>
      <trkpt lat="60.30371" lon="7.64197">
        <ele>1230.62</ele>
        <time>2019-04-05T11:16:32Z</time>
      </trkpt>
      <trkpt lat="60.3036" lon="7.64204">
        <ele>1228.7</ele>
        <time>2019-04-05T11:16:35Z</time>
      </trkpt>
      <trkpt lat="60.30344" lon="7.64214">
        <ele>1231.11</ele>
        <time>2019-04-05T11:16:39Z</time>
      </trkpt>
      <trkpt lat="60.30335" lon="7.6422">
        <ele>1228.22</ele>
        <time>2019-04-05T11:16:41Z</time>
      </trkpt>
      <trkpt lat="60.30326" lon="7.64229">
        <ele>1223.9</ele>
        <time>2019-04-05T11:16:43Z</time>
      </trkpt>
      <trkpt lat="60.30317" lon="7.64238">
        <ele>1222.93</ele>
        <time>2019-04-05T11:16:45Z</time>
      </trkpt>
      <trkpt lat="60.30312" lon="7.64244">
        <ele>1224.86</ele>
        <time>2019-04-05T11:16:46Z</time>
      </trkpt>
      <trkpt lat="60.30301" lon="7.64257">
        <ele>1221.01</ele>
        <time>2019-04-05T11:16:48Z</time>
      </trkpt>
      <trkpt lat="60.30294" lon="7.64264">
        <ele>1221.01</ele>
        <time>2019-04-05T11:16:49Z</time>
      </trkpt>
      <trkpt lat="60.30289" lon="7.64271">
        <ele>1221.49</ele>
        <time>2019-04-05T11:16:50Z</time>
      </trkpt>
      <trkpt lat="60.30263" lon="7.6429">
        <ele>1216.21</ele>
        <time>2019-04-05T11:16:54Z</time>
      </trkpt>
      <trkpt lat="60.30256" lon="7.64294">
        <ele>1216.21</ele>
        <time>2019-04-05T11:16:55Z</time>
      </trkpt>
      <trkpt lat="60.30234" lon="7.64311">
        <ele>1212.84</ele>
        <time>2019-04-05T11:16:58Z</time>
      </trkpt>
      <trkpt lat="60.30207" lon="7.64341">
        <ele>1216.69</ele>
        <time>2019-04-05T11:17:03Z</time>
      </trkpt>
      <trkpt lat="60.30188" lon="7.64361">
        <ele>1219.57</ele>
        <time>2019-04-05T11:17:07Z</time>
      </trkpt>
      <trkpt lat="60.30178" lon="7.64372">
        <ele>1219.57</ele>
        <time>2019-04-05T11:17:09Z</time>
      </trkpt>
      <trkpt lat="60.30167" lon="7.64383">
        <ele>1218.13</ele>
        <time>2019-04-05T11:17:11Z</time>
      </trkpt>
      <trkpt lat="60.30136" lon="7.64412">
        <ele>1219.09</ele>
        <time>2019-04-05T11:17:16Z</time>
      </trkpt>
      <trkpt lat="60.30124" lon="7.64412">
        <ele>1223.42</ele>
        <time>2019-04-05T11:17:18Z</time>
      </trkpt>
      <trkpt lat="60.30122" lon="7.64405">
        <ele>1224.38</ele>
        <time>2019-04-05T11:17:20Z</time>
      </trkpt>
      <trkpt lat="60.3012" lon="7.64397">
        <ele>1219.57</ele>
        <time>2019-04-05T11:17:30Z</time>
      </trkpt>
      <trkpt lat="60.3012" lon="7.64397">
        <ele>1222.45</ele>
        <time>2019-04-05T11:17:31Z</time>
      </trkpt>
      <trkpt lat="60.30119" lon="7.64399">
        <ele>1218.13</ele>
        <time>2019-04-05T11:17:34Z</time>
      </trkpt>
      <trkpt lat="60.30118" lon="7.644">
        <ele>1222.45</ele>
        <time>2019-04-05T11:17:37Z</time>
      </trkpt>
      <trkpt lat="60.30118" lon="7.644">
        <ele>1222.45</ele>
        <time>2019-04-05T11:17:38Z</time>
      </trkpt>
      <trkpt lat="60.30116" lon="7.644">
        <ele>1223.9</ele>
        <time>2019-04-05T11:17:40Z</time>
      </trkpt>
      <trkpt lat="60.30115" lon="7.64401">
        <ele>1221.97</ele>
        <time>2019-04-05T11:17:42Z</time>
      </trkpt>
      <trkpt lat="60.30112" lon="7.64403">
        <ele>1220.05</ele>
        <time>2019-04-05T11:17:45Z</time>
      </trkpt>
      <trkpt lat="60.30098" lon="7.6441">
        <ele>1219.09</ele>
        <time>2019-04-05T11:17:51Z</time>
      </trkpt>
      <trkpt lat="60.30095" lon="7.64412">
        <ele>1219.09</ele>
        <time>2019-04-05T11:17:52Z</time>
      </trkpt>
      <trkpt lat="60.30081" lon="7.64413">
        <ele>1221.01</ele>
        <time>2019-04-05T11:17:55Z</time>
      </trkpt>
      <trkpt lat="60.30057" lon="7.64416">
        <ele>1216.69</ele>
        <time>2019-04-05T11:17:59Z</time>
      </trkpt>
      <trkpt lat="60.30012" lon="7.64423">
        <ele>1212.84</ele>
        <time>2019-04-05T11:18:05Z</time>
      </trkpt>
      <trkpt lat="60.29996" lon="7.64427">
        <ele>1211.4</ele>
        <time>2019-04-05T11:18:07Z</time>
      </trkpt>
      <trkpt lat="60.29972" lon="7.64433">
        <ele>1209.96</ele>
        <time>2019-04-05T11:18:10Z</time>
      </trkpt>
      <trkpt lat="60.29919" lon="7.6443">
        <ele>1209.96</ele>
        <time>2019-04-05T11:18:16Z</time>
      </trkpt>
      <trkpt lat="60.29902" lon="7.64432">
        <ele>1212.84</ele>
        <time>2019-04-05T11:18:18Z</time>
      </trkpt>
      <trkpt lat="60.29869" lon="7.64455">
        <ele>1211.88</ele>
        <time>2019-04-05T11:18:23Z</time>
      </trkpt>
      <trkpt lat="60.29863" lon="7.64461">
        <ele>1211.88</ele>
        <time>2019-04-05T11:18:24Z</time>
      </trkpt>
      <trkpt lat="60.29841" lon="7.64486">
        <ele>1208.51</ele>
        <time>2019-04-05T11:18:28Z</time>
      </trkpt>
      <trkpt lat="60.29813" lon="7.64518">
        <ele>1209.48</ele>
        <time>2019-04-05T11:18:36Z</time>
      </trkpt>
      <trkpt lat="60.29807" lon="7.64519">
        <ele>1212.36</ele>
        <time>2019-04-05T11:18:40Z</time>
      </trkpt>
      <trkpt lat="60.29807" lon="7.64513">
        <ele>1212.84</ele>
        <time>2019-04-05T11:18:52Z</time>
      </trkpt>
      <trkpt lat="60.2981" lon="7.64506">
        <ele>1212.84</ele>
        <time>2019-04-05T11:19:03Z</time>
      </trkpt>
      <trkpt lat="60.29811" lon="7.64483">
        <ele>1211.4</ele>
        <time>2019-04-05T11:19:09Z</time>
      </trkpt>
      <trkpt lat="60.29808" lon="7.64472">
        <ele>1211.4</ele>
        <time>2019-04-05T11:19:22Z</time>
      </trkpt>
      <trkpt lat="60.29811" lon="7.64466">
        <ele>1211.4</ele>
        <time>2019-04-05T11:19:37Z</time>
      </trkpt>
      <trkpt lat="60.2981" lon="7.64466">
        <ele>1211.4</ele>
        <time>2019-04-05T11:20:00Z</time>
      </trkpt>
      <trkpt lat="60.2981" lon="7.64465">
        <ele>1211.4</ele>
        <time>2019-04-05T11:20:19Z</time>
      </trkpt>
      <trkpt lat="60.2981" lon="7.64465">
        <ele>1212.84</ele>
        <time>2019-04-05T11:20:30Z</time>
      </trkpt>
      <trkpt lat="60.2981" lon="7.64465">
        <ele>1211.4</ele>
        <time>2019-04-05T11:20:51Z</time>
      </trkpt>
      <trkpt lat="60.2981" lon="7.64464">
        <ele>1211.4</ele>
        <time>2019-04-05T11:21:06Z</time>
      </trkpt>
      <trkpt lat="60.2981" lon="7.64466">
        <ele>1211.4</ele>
        <time>2019-04-05T11:21:22Z</time>
      </trkpt>
      <trkpt lat="60.29811" lon="7.64465">
        <ele>1211.4</ele>
        <time>2019-04-05T11:21:40Z</time>
      </trkpt>
      <trkpt lat="60.2981" lon="7.64465">
        <ele>1211.4</ele>
        <time>2019-04-05T11:21:48Z</time>
      </trkpt>
      <trkpt lat="60.29808" lon="7.64454">
        <ele>1210.92</ele>
        <time>2019-04-05T11:21:52Z</time>
      </trkpt>
      <trkpt lat="60.29803" lon="7.64421">
        <ele>1212.84</ele>
        <time>2019-04-05T11:22:02Z</time>
      </trkpt>
      <trkpt lat="60.298" lon="7.64429">
        <ele>1210.92</ele>
        <time>2019-04-05T11:22:16Z</time>
      </trkpt>
      <trkpt lat="60.29799" lon="7.64428">
        <ele>1210.92</ele>
        <time>2019-04-05T11:22:29Z</time>
      </trkpt>
      <trkpt lat="60.29799" lon="7.64429">
        <ele>1210.92</ele>
        <time>2019-04-05T11:22:31Z</time>
      </trkpt>
      <trkpt lat="60.29799" lon="7.64432">
        <ele>1207.55</ele>
        <time>2019-04-05T11:22:38Z</time>
      </trkpt>
      <trkpt lat="60.29798" lon="7.64427">
        <ele>1209.48</ele>
        <time>2019-04-05T11:23:15Z</time>
      </trkpt>
      <trkpt lat="60.29798" lon="7.64425">
        <ele>1209.48</ele>
        <time>2019-04-05T11:23:48Z</time>
      </trkpt>
      <trkpt lat="60.29798" lon="7.64425">
        <ele>1209.48</ele>
        <time>2019-04-05T11:24:29Z</time>
      </trkpt>
      <trkpt lat="60.29798" lon="7.64423">
        <ele>1209.96</ele>
        <time>2019-04-05T11:25:02Z</time>
      </trkpt>
      <trkpt lat="60.29798" lon="7.64424">
        <ele>1209.96</ele>
        <time>2019-04-05T11:25:31Z</time>
      </trkpt>
      <trkpt lat="60.29798" lon="7.64426">
        <ele>1209.96</ele>
        <time>2019-04-05T11:25:47Z</time>
      </trkpt>
      <trkpt lat="60.29801" lon="7.64428">
        <ele>1210.44</ele>
        <time>2019-04-05T11:26:05Z</time>
      </trkpt>
      <trkpt lat="60.29802" lon="7.64429">
        <ele>1210.44</ele>
        <time>2019-04-05T11:26:38Z</time>
      </trkpt>
      <trkpt lat="60.29802" lon="7.64427">
        <ele>1209.48</ele>
        <time>2019-04-05T11:27:14Z</time>
      </trkpt>
      <trkpt lat="60.29803" lon="7.64427">
        <ele>1209.48</ele>
        <time>2019-04-05T11:27:54Z</time>
      </trkpt>
      <trkpt lat="60.29803" lon="7.64428">
        <ele>1209.48</ele>
        <time>2019-04-05T11:28:32Z</time>
      </trkpt>
      <trkpt lat="60.29802" lon="7.64428">
        <ele>1209.48</ele>
        <time>2019-04-05T11:29:12Z</time>
      </trkpt>
      <trkpt lat="60.29802" lon="7.64428">
        <ele>1211.4</ele>
        <time>2019-04-05T11:29:17Z</time>
      </trkpt>
      <trkpt lat="60.29802" lon="7.64428">
        <ele>1209.96</ele>
        <time>2019-04-05T11:29:19Z</time>
      </trkpt>
      <trkpt lat="60.29802" lon="7.64428">
        <ele>1209.96</ele>
        <time>2019-04-05T11:29:56Z</time>
      </trkpt>
      <trkpt lat="60.29802" lon="7.64427">
        <ele>1209.48</ele>
        <time>2019-04-05T11:30:17Z</time>
      </trkpt>
      <trkpt lat="60.29802" lon="7.64426">
        <ele>1210.44</ele>
        <time>2019-04-05T11:30:33Z</time>
      </trkpt>
      <trkpt lat="60.29801" lon="7.64428">
        <ele>1211.88</ele>
        <time>2019-04-05T11:30:37Z</time>
      </trkpt>
      <trkpt lat="60.29807" lon="7.64452">
        <ele>1212.36</ele>
        <time>2019-04-05T11:30:49Z</time>
      </trkpt>
      <trkpt lat="60.29808" lon="7.64456">
        <ele>1210.92</ele>
        <time>2019-04-05T11:30:51Z</time>
      </trkpt>
      <trkpt lat="60.29811" lon="7.64463">
        <ele>1212.36</ele>
        <time>2019-04-05T11:30:56Z</time>
      </trkpt>
      <trkpt lat="60.29811" lon="7.64465">
        <ele>1209.48</ele>
        <time>2019-04-05T11:31:00Z</time>
      </trkpt>
      <trkpt lat="60.29811" lon="7.64471">
        <ele>1211.88</ele>
        <time>2019-04-05T11:31:03Z</time>
      </trkpt>
      <trkpt lat="60.29813" lon="7.64507">
        <ele>1212.36</ele>
        <time>2019-04-05T11:31:18Z</time>
      </trkpt>
      <trkpt lat="60.29813" lon="7.64515">
        <ele>1212.84</ele>
        <time>2019-04-05T11:31:30Z</time>
      </trkpt>
      <trkpt lat="60.29813" lon="7.64514">
        <ele>1211.4</ele>
        <time>2019-04-05T11:31:40Z</time>
      </trkpt>
      <trkpt lat="60.29813" lon="7.64514">
        <ele>1211.4</ele>
        <time>2019-04-05T11:32:02Z</time>
      </trkpt>
      <trkpt lat="60.29813" lon="7.64513">
        <ele>1209.96</ele>
        <time>2019-04-05T11:32:09Z</time>
      </trkpt>
      <trkpt lat="60.29813" lon="7.64514">
        <ele>1211.88</ele>
        <time>2019-04-05T11:32:12Z</time>
      </trkpt>
      <trkpt lat="60.29813" lon="7.64514">
        <ele>1212.36</ele>
        <time>2019-04-05T11:32:24Z</time>
      </trkpt>
      <trkpt lat="60.29812" lon="7.64515">
        <ele>1209.96</ele>
        <time>2019-04-05T11:32:28Z</time>
      </trkpt>
      <trkpt lat="60.29813" lon="7.64516">
        <ele>1209.96</ele>
        <time>2019-04-05T11:33:06Z</time>
      </trkpt>
      <trkpt lat="60.29813" lon="7.64515">
        <ele>1209.96</ele>
        <time>2019-04-05T11:33:39Z</time>
      </trkpt>
      <trkpt lat="60.29811" lon="7.64515">
        <ele>1209.96</ele>
        <time>2019-04-05T11:34:10Z</time>
      </trkpt>
      <trkpt lat="60.29812" lon="7.64513">
        <ele>1209.96</ele>
        <time>2019-04-05T11:34:42Z</time>
      </trkpt>
      <trkpt lat="60.29812" lon="7.64514">
        <ele>1209.96</ele>
        <time>2019-04-05T11:35:19Z</time>
      </trkpt>
      <trkpt lat="60.29813" lon="7.64516">
        <ele>1209.96</ele>
        <time>2019-04-05T11:35:53Z</time>
      </trkpt>
      <trkpt lat="60.29811" lon="7.64514">
        <ele>1211.88</ele>
        <time>2019-04-05T11:35:57Z</time>
      </trkpt>
      <trkpt lat="60.29811" lon="7.64508">
        <ele>1211.88</ele>
        <time>2019-04-05T11:36:01Z</time>
      </trkpt>
      <trkpt lat="60.2981" lon="7.64498">
        <ele>1210.44</ele>
        <time>2019-04-05T11:36:05Z</time>
      </trkpt>
      <trkpt lat="60.29809" lon="7.64483">
        <ele>1209.96</ele>
        <time>2019-04-05T11:36:11Z</time>
      </trkpt>
      <trkpt lat="60.29805" lon="7.64468">
        <ele>1209.48</ele>
        <time>2019-04-05T11:36:18Z</time>
      </trkpt>
      <trkpt lat="60.29804" lon="7.64464">
        <ele>1209.48</ele>
        <time>2019-04-05T11:36:20Z</time>
      </trkpt>
      <trkpt lat="60.29804" lon="7.64463">
        <ele>1208.03</ele>
        <time>2019-04-05T11:36:40Z</time>
      </trkpt>
      <trkpt lat="60.29803" lon="7.6446">
        <ele>1207.55</ele>
        <time>2019-04-05T11:37:28Z</time>
      </trkpt>
      <trkpt lat="60.29804" lon="7.64464">
        <ele>1207.55</ele>
        <time>2019-04-05T11:38:11Z</time>
      </trkpt>
      <trkpt lat="60.29804" lon="7.64464">
        <ele>1207.55</ele>
        <time>2019-04-05T11:38:21Z</time>
      </trkpt>
      <trkpt lat="60.29804" lon="7.64465">
        <ele>1209</ele>
        <time>2019-04-05T11:38:24Z</time>
      </trkpt>
      <trkpt lat="60.29803" lon="7.64467">
        <ele>1209.48</ele>
        <time>2019-04-05T11:38:42Z</time>
      </trkpt>
      <trkpt lat="60.29802" lon="7.64468">
        <ele>1209.96</ele>
        <time>2019-04-05T11:39:18Z</time>
      </trkpt>
      <trkpt lat="60.29803" lon="7.64466">
        <ele>1210.44</ele>
        <time>2019-04-05T11:39:56Z</time>
      </trkpt>
      <trkpt lat="60.29803" lon="7.64464">
        <ele>1210.44</ele>
        <time>2019-04-05T11:40:30Z</time>
      </trkpt>
      <trkpt lat="60.29803" lon="7.64464">
        <ele>1210.44</ele>
        <time>2019-04-05T11:41:07Z</time>
      </trkpt>
      <trkpt lat="60.29803" lon="7.64464">
        <ele>1210.44</ele>
        <time>2019-04-05T11:41:45Z</time>
      </trkpt>
      <trkpt lat="60.29804" lon="7.64464">
        <ele>1210.44</ele>
        <time>2019-04-05T11:42:17Z</time>
      </trkpt>
      <trkpt lat="60.29803" lon="7.64464">
        <ele>1210.44</ele>
        <time>2019-04-05T11:42:52Z</time>
      </trkpt>
      <trkpt lat="60.29803" lon="7.64464">
        <ele>1210.44</ele>
        <time>2019-04-05T11:43:26Z</time>
      </trkpt>
      <trkpt lat="60.29803" lon="7.64464">
        <ele>1210.92</ele>
        <time>2019-04-05T11:43:55Z</time>
      </trkpt>
      <trkpt lat="60.29803" lon="7.64461">
        <ele>1212.84</ele>
        <time>2019-04-05T11:44:18Z</time>
      </trkpt>
      <trkpt lat="60.29805" lon="7.64457">
        <ele>1211.4</ele>
        <time>2019-04-05T11:44:35Z</time>
      </trkpt>
      <trkpt lat="60.29805" lon="7.64456">
        <ele>1211.4</ele>
        <time>2019-04-05T11:44:36Z</time>
      </trkpt>
      <trkpt lat="60.29807" lon="7.64453">
        <ele>1211.4</ele>
        <time>2019-04-05T11:44:48Z</time>
      </trkpt>
      <trkpt lat="60.29815" lon="7.64442">
        <ele>1211.4</ele>
        <time>2019-04-05T11:44:58Z</time>
      </trkpt>
      <trkpt lat="60.29815" lon="7.64442">
        <ele>1211.4</ele>
        <time>2019-04-05T11:44:59Z</time>
      </trkpt>
      <trkpt lat="60.29825" lon="7.64436">
        <ele>1211.4</ele>
        <time>2019-04-05T11:45:05Z</time>
      </trkpt>
      <trkpt lat="60.29833" lon="7.64438">
        <ele>1212.36</ele>
        <time>2019-04-05T11:45:07Z</time>
      </trkpt>
      <trkpt lat="60.2985" lon="7.64445">
        <ele>1212.84</ele>
        <time>2019-04-05T11:45:11Z</time>
      </trkpt>
      <trkpt lat="60.29899" lon="7.64457">
        <ele>1216.21</ele>
        <time>2019-04-05T11:45:24Z</time>
      </trkpt>
      <trkpt lat="60.29933" lon="7.64462">
        <ele>1216.69</ele>
        <time>2019-04-05T11:45:35Z</time>
      </trkpt>
      <trkpt lat="60.29956" lon="7.64465">
        <ele>1216.69</ele>
        <time>2019-04-05T11:45:39Z</time>
      </trkpt>
      <trkpt lat="60.29974" lon="7.6447">
        <ele>1216.69</ele>
        <time>2019-04-05T11:45:42Z</time>
      </trkpt>
      <trkpt lat="60.29998" lon="7.64473">
        <ele>1219.09</ele>
        <time>2019-04-05T11:45:46Z</time>
      </trkpt>
      <trkpt lat="60.30009" lon="7.64476">
        <ele>1219.57</ele>
        <time>2019-04-05T11:45:48Z</time>
      </trkpt>
      <trkpt lat="60.30019" lon="7.64476">
        <ele>1221.01</ele>
        <time>2019-04-05T11:45:50Z</time>
      </trkpt>
      <trkpt lat="60.30028" lon="7.64477">
        <ele>1222.45</ele>
        <time>2019-04-05T11:45:52Z</time>
      </trkpt>
      <trkpt lat="60.3006" lon="7.64485">
        <ele>1224.86</ele>
        <time>2019-04-05T11:45:58Z</time>
      </trkpt>
      <trkpt lat="60.30135" lon="7.64503">
        <ele>1226.78</ele>
        <time>2019-04-05T11:46:08Z</time>
      </trkpt>
      <trkpt lat="60.30159" lon="7.64508">
        <ele>1226.78</ele>
        <time>2019-04-05T11:46:11Z</time>
      </trkpt>
      <trkpt lat="60.30172" lon="7.64507">
        <ele>1228.22</ele>
        <time>2019-04-05T11:46:13Z</time>
      </trkpt>
      <trkpt lat="60.30175" lon="7.64501">
        <ele>1223.9</ele>
        <time>2019-04-05T11:46:14Z</time>
      </trkpt>
      <trkpt lat="60.30165" lon="7.645">
        <ele>1220.05</ele>
        <time>2019-04-05T11:46:18Z</time>
      </trkpt>
      <trkpt lat="60.30156" lon="7.64507">
        <ele>1220.05</ele>
        <time>2019-04-05T11:46:20Z</time>
      </trkpt>
      <trkpt lat="60.30141" lon="7.64522">
        <ele>1217.65</ele>
        <time>2019-04-05T11:46:23Z</time>
      </trkpt>
      <trkpt lat="60.30117" lon="7.64547">
        <ele>1218.61</ele>
        <time>2019-04-05T11:46:27Z</time>
      </trkpt>
      <trkpt lat="60.30106" lon="7.6456">
        <ele>1220.53</ele>
        <time>2019-04-05T11:46:29Z</time>
      </trkpt>
      <trkpt lat="60.3009" lon="7.64581">
        <ele>1223.9</ele>
        <time>2019-04-05T11:46:32Z</time>
      </trkpt>
      <trkpt lat="60.30085" lon="7.64589">
        <ele>1223.9</ele>
        <time>2019-04-05T11:46:33Z</time>
      </trkpt>
      <trkpt lat="60.30039" lon="7.64653">
        <ele>1225.34</ele>
        <time>2019-04-05T11:46:42Z</time>
      </trkpt>
      <trkpt lat="60.30027" lon="7.64666">
        <ele>1226.78</ele>
        <time>2019-04-05T11:46:44Z</time>
      </trkpt>
      <trkpt lat="60.30016" lon="7.6468">
        <ele>1225.34</ele>
        <time>2019-04-05T11:46:46Z</time>
      </trkpt>
      <trkpt lat="60.29961" lon="7.64738">
        <ele>1226.78</ele>
        <time>2019-04-05T11:46:55Z</time>
      </trkpt>
      <trkpt lat="60.29935" lon="7.64771">
        <ele>1224.86</ele>
        <time>2019-04-05T11:47:00Z</time>
      </trkpt>
      <trkpt lat="60.29917" lon="7.64793">
        <ele>1223.9</ele>
        <time>2019-04-05T11:47:03Z</time>
      </trkpt>
      <trkpt lat="60.2991" lon="7.64799">
        <ele>1223.9</ele>
        <time>2019-04-05T11:47:04Z</time>
      </trkpt>
      <trkpt lat="60.29891" lon="7.64812">
        <ele>1224.86</ele>
        <time>2019-04-05T11:47:07Z</time>
      </trkpt>
      <trkpt lat="60.29873" lon="7.64815">
        <ele>1227.26</ele>
        <time>2019-04-05T11:47:13Z</time>
      </trkpt>
      <trkpt lat="60.29872" lon="7.6481">
        <ele>1225.82</ele>
        <time>2019-04-05T11:47:17Z</time>
      </trkpt>
      <trkpt lat="60.2988" lon="7.64787">
        <ele>1223.9</ele>
        <time>2019-04-05T11:47:30Z</time>
      </trkpt>
      <trkpt lat="60.29879" lon="7.64779">
        <ele>1225.34</ele>
        <time>2019-04-05T11:47:46Z</time>
      </trkpt>
      <trkpt lat="60.29878" lon="7.64776">
        <ele>1225.34</ele>
        <time>2019-04-05T11:48:05Z</time>
      </trkpt>
      <trkpt lat="60.29878" lon="7.64774">
        <ele>1224.86</ele>
        <time>2019-04-05T11:48:19Z</time>
      </trkpt>
      <trkpt lat="60.29877" lon="7.64771">
        <ele>1226.78</ele>
        <time>2019-04-05T11:48:24Z</time>
      </trkpt>
      <trkpt lat="60.29877" lon="7.64771">
        <ele>1224.86</ele>
        <time>2019-04-05T11:48:35Z</time>
      </trkpt>
      <trkpt lat="60.29877" lon="7.6477">
        <ele>1225.82</ele>
        <time>2019-04-05T11:48:38Z</time>
      </trkpt>
      <trkpt lat="60.29874" lon="7.64754">
        <ele>1221.97</ele>
        <time>2019-04-05T11:48:53Z</time>
      </trkpt>
      <trkpt lat="60.29876" lon="7.64754">
        <ele>1221.97</ele>
        <time>2019-04-05T11:49:22Z</time>
      </trkpt>
      <trkpt lat="60.29883" lon="7.64747">
        <ele>1223.42</ele>
        <time>2019-04-05T11:49:26Z</time>
      </trkpt>
      <trkpt lat="60.2992" lon="7.64741">
        <ele>1225.34</ele>
        <time>2019-04-05T11:49:33Z</time>
      </trkpt>
      <trkpt lat="60.29947" lon="7.64744">
        <ele>1227.26</ele>
        <time>2019-04-05T11:49:38Z</time>
      </trkpt>
      <trkpt lat="60.29952" lon="7.64745">
        <ele>1226.3</ele>
        <time>2019-04-05T11:49:39Z</time>
      </trkpt>
      <trkpt lat="60.29972" lon="7.64752">
        <ele>1228.7</ele>
        <time>2019-04-05T11:49:43Z</time>
      </trkpt>
      <trkpt lat="60.29981" lon="7.64755">
        <ele>1225.82</ele>
        <time>2019-04-05T11:49:45Z</time>
      </trkpt>
      <trkpt lat="60.30017" lon="7.64749">
        <ele>1224.86</ele>
        <time>2019-04-05T11:49:55Z</time>
      </trkpt>
      <trkpt lat="60.30021" lon="7.64744">
        <ele>1224.86</ele>
        <time>2019-04-05T11:50:09Z</time>
      </trkpt>
      <trkpt lat="60.30021" lon="7.64744">
        <ele>1225.82</ele>
        <time>2019-04-05T11:50:11Z</time>
      </trkpt>
      <trkpt lat="60.30022" lon="7.64743">
        <ele>1225.82</ele>
        <time>2019-04-05T11:50:38Z</time>
      </trkpt>
      <trkpt lat="60.30027" lon="7.6474">
        <ele>1225.82</ele>
        <time>2019-04-05T11:50:49Z</time>
      </trkpt>
      <trkpt lat="60.30033" lon="7.64743">
        <ele>1227.26</ele>
        <time>2019-04-05T11:50:53Z</time>
      </trkpt>
      <trkpt lat="60.30036" lon="7.6474">
        <ele>1225.34</ele>
        <time>2019-04-05T11:51:00Z</time>
      </trkpt>
      <trkpt lat="60.30045" lon="7.64738">
        <ele>1226.78</ele>
        <time>2019-04-05T11:51:05Z</time>
      </trkpt>
      <trkpt lat="60.30055" lon="7.64741">
        <ele>1227.74</ele>
        <time>2019-04-05T11:51:09Z</time>
      </trkpt>
      <trkpt lat="60.3008" lon="7.64765">
        <ele>1227.74</ele>
        <time>2019-04-05T11:51:20Z</time>
      </trkpt>
      <trkpt lat="60.30082" lon="7.64768">
        <ele>1229.18</ele>
        <time>2019-04-05T11:51:35Z</time>
      </trkpt>
      <trkpt lat="60.30082" lon="7.64768">
        <ele>1229.18</ele>
        <time>2019-04-05T11:51:36Z</time>
      </trkpt>
      <trkpt lat="60.30082" lon="7.64767">
        <ele>1227.74</ele>
        <time>2019-04-05T11:51:54Z</time>
      </trkpt>
      <trkpt lat="60.30083" lon="7.64766">
        <ele>1227.26</ele>
        <time>2019-04-05T11:52:17Z</time>
      </trkpt>
      <trkpt lat="60.30085" lon="7.64767">
        <ele>1227.26</ele>
        <time>2019-04-05T11:52:38Z</time>
      </trkpt>
      <trkpt lat="60.30086" lon="7.64767">
        <ele>1229.18</ele>
        <time>2019-04-05T11:52:50Z</time>
      </trkpt>
      <trkpt lat="60.30085" lon="7.64752">
        <ele>1227.26</ele>
        <time>2019-04-05T11:52:54Z</time>
      </trkpt>
      <trkpt lat="60.30075" lon="7.64748">
        <ele>1223.42</ele>
        <time>2019-04-05T11:52:56Z</time>
      </trkpt>
      <trkpt lat="60.30069" lon="7.64748">
        <ele>1223.42</ele>
        <time>2019-04-05T11:52:57Z</time>
      </trkpt>
      <trkpt lat="60.30062" lon="7.6475">
        <ele>1223.42</ele>
        <time>2019-04-05T11:52:58Z</time>
      </trkpt>
      <trkpt lat="60.30008" lon="7.64767">
        <ele>1219.09</ele>
        <time>2019-04-05T11:53:04Z</time>
      </trkpt>
      <trkpt lat="60.29998" lon="7.64769">
        <ele>1217.65</ele>
        <time>2019-04-05T11:53:05Z</time>
      </trkpt>
      <trkpt lat="60.29956" lon="7.64764">
        <ele>1222.45</ele>
        <time>2019-04-05T11:53:09Z</time>
      </trkpt>
      <trkpt lat="60.29948" lon="7.64763">
        <ele>1223.9</ele>
        <time>2019-04-05T11:53:10Z</time>
      </trkpt>
      <trkpt lat="60.29906" lon="7.64754">
        <ele>1219.57</ele>
        <time>2019-04-05T11:53:15Z</time>
      </trkpt>
      <trkpt lat="60.29897" lon="7.64752">
        <ele>1219.57</ele>
        <time>2019-04-05T11:53:16Z</time>
      </trkpt>
      <trkpt lat="60.29879" lon="7.64747">
        <ele>1222.93</ele>
        <time>2019-04-05T11:53:19Z</time>
      </trkpt>
      <trkpt lat="60.29875" lon="7.64746">
        <ele>1222.93</ele>
        <time>2019-04-05T11:53:20Z</time>
      </trkpt>
      <trkpt lat="60.29862" lon="7.64741">
        <ele>1220.05</ele>
        <time>2019-04-05T11:53:24Z</time>
      </trkpt>
      <trkpt lat="60.29855" lon="7.6473">
        <ele>1217.65</ele>
        <time>2019-04-05T11:53:27Z</time>
      </trkpt>
      <trkpt lat="60.29856" lon="7.64724">
        <ele>1217.17</ele>
        <time>2019-04-05T11:53:40Z</time>
      </trkpt>
      <trkpt lat="60.29857" lon="7.64721">
        <ele>1218.61</ele>
        <time>2019-04-05T11:53:50Z</time>
      </trkpt>
      <trkpt lat="60.29882" lon="7.6472">
        <ele>1221.01</ele>
        <time>2019-04-05T11:53:59Z</time>
      </trkpt>
      <trkpt lat="60.29895" lon="7.64719">
        <ele>1222.93</ele>
        <time>2019-04-05T11:54:02Z</time>
      </trkpt>
      <trkpt lat="60.29945" lon="7.64698">
        <ele>1225.82</ele>
        <time>2019-04-05T11:54:10Z</time>
      </trkpt>
      <trkpt lat="60.29951" lon="7.64697">
        <ele>1225.82</ele>
        <time>2019-04-05T11:54:11Z</time>
      </trkpt>
      <trkpt lat="60.29979" lon="7.64698">
        <ele>1227.26</ele>
        <time>2019-04-05T11:54:16Z</time>
      </trkpt>
      <trkpt lat="60.29996" lon="7.64703">
        <ele>1227.26</ele>
        <time>2019-04-05T11:54:19Z</time>
      </trkpt>
      <trkpt lat="60.30017" lon="7.64702">
        <ele>1225.82</ele>
        <time>2019-04-05T11:54:22Z</time>
      </trkpt>
      <trkpt lat="60.30044" lon="7.64701">
        <ele>1227.26</ele>
        <time>2019-04-05T11:54:26Z</time>
      </trkpt>
      <trkpt lat="60.30117" lon="7.64679">
        <ele>1228.7</ele>
        <time>2019-04-05T11:54:35Z</time>
      </trkpt>
      <trkpt lat="60.30149" lon="7.64678">
        <ele>1228.7</ele>
        <time>2019-04-05T11:54:39Z</time>
      </trkpt>
      <trkpt lat="60.30165" lon="7.64681">
        <ele>1227.74</ele>
        <time>2019-04-05T11:54:44Z</time>
      </trkpt>
      <trkpt lat="60.30162" lon="7.64674">
        <ele>1227.74</ele>
        <time>2019-04-05T11:54:59Z</time>
      </trkpt>
      <trkpt lat="60.30156" lon="7.64666">
        <ele>1225.34</ele>
        <time>2019-04-05T11:55:05Z</time>
      </trkpt>
      <trkpt lat="60.30156" lon="7.64666">
        <ele>1226.78</ele>
        <time>2019-04-05T11:55:07Z</time>
      </trkpt>
      <trkpt lat="60.30155" lon="7.64665">
        <ele>1227.26</ele>
        <time>2019-04-05T11:55:20Z</time>
      </trkpt>
      <trkpt lat="60.30157" lon="7.64656">
        <ele>1226.3</ele>
        <time>2019-04-05T11:55:24Z</time>
      </trkpt>
      <trkpt lat="60.30158" lon="7.64655">
        <ele>1226.3</ele>
        <time>2019-04-05T11:55:46Z</time>
      </trkpt>
      <trkpt lat="60.3016" lon="7.64653">
        <ele>1226.3</ele>
        <time>2019-04-05T11:56:14Z</time>
      </trkpt>
      <trkpt lat="60.30162" lon="7.64649">
        <ele>1226.3</ele>
        <time>2019-04-05T11:56:40Z</time>
      </trkpt>
      <trkpt lat="60.30163" lon="7.64647">
        <ele>1226.3</ele>
        <time>2019-04-05T11:57:10Z</time>
      </trkpt>
      <trkpt lat="60.3016" lon="7.64646">
        <ele>1226.3</ele>
        <time>2019-04-05T11:57:34Z</time>
      </trkpt>
      <trkpt lat="60.30159" lon="7.64647">
        <ele>1226.3</ele>
        <time>2019-04-05T11:58:02Z</time>
      </trkpt>
      <trkpt lat="60.30152" lon="7.64648">
        <ele>1224.86</ele>
        <time>2019-04-05T11:58:05Z</time>
      </trkpt>
      <trkpt lat="60.30143" lon="7.64659">
        <ele>1223.9</ele>
        <time>2019-04-05T11:58:08Z</time>
      </trkpt>
      <trkpt lat="60.30109" lon="7.64704">
        <ele>1221.97</ele>
        <time>2019-04-05T11:58:16Z</time>
      </trkpt>
      <trkpt lat="60.30105" lon="7.6471">
        <ele>1223.9</ele>
        <time>2019-04-05T11:58:17Z</time>
      </trkpt>
      <trkpt lat="60.30082" lon="7.64723">
        <ele>1226.3</ele>
        <time>2019-04-05T11:58:22Z</time>
      </trkpt>
      <trkpt lat="60.3007" lon="7.64731">
        <ele>1221.01</ele>
        <time>2019-04-05T11:58:24Z</time>
      </trkpt>
      <trkpt lat="60.30064" lon="7.64738">
        <ele>1221.01</ele>
        <time>2019-04-05T11:58:25Z</time>
      </trkpt>
      <trkpt lat="60.30048" lon="7.64757">
        <ele>1230.14</ele>
        <time>2019-04-05T11:58:28Z</time>
      </trkpt>
      <trkpt lat="60.30036" lon="7.64774">
        <ele>1226.3</ele>
        <time>2019-04-05T11:58:31Z</time>
      </trkpt>
      <trkpt lat="60.30014" lon="7.6481">
        <ele>1226.3</ele>
        <time>2019-04-05T11:58:36Z</time>
      </trkpt>
      <trkpt lat="60.30002" lon="7.64841">
        <ele>1224.86</ele>
        <time>2019-04-05T11:58:40Z</time>
      </trkpt>
      <trkpt lat="60.29997" lon="7.64844">
        <ele>1222.93</ele>
        <time>2019-04-05T11:58:42Z</time>
      </trkpt>
      <trkpt lat="60.30002" lon="7.64829">
        <ele>1222.93</ele>
        <time>2019-04-05T11:58:45Z</time>
      </trkpt>
      <trkpt lat="60.30026" lon="7.64821">
        <ele>1226.3</ele>
        <time>2019-04-05T11:58:52Z</time>
      </trkpt>
      <trkpt lat="60.30027" lon="7.64819">
        <ele>1225.82</ele>
        <time>2019-04-05T11:59:08Z</time>
      </trkpt>
      <trkpt lat="60.3004" lon="7.64816">
        <ele>1227.26</ele>
        <time>2019-04-05T11:59:13Z</time>
      </trkpt>
      <trkpt lat="60.30053" lon="7.64815">
        <ele>1227.74</ele>
        <time>2019-04-05T11:59:16Z</time>
      </trkpt>
      <trkpt lat="60.30103" lon="7.64804">
        <ele>1230.14</ele>
        <time>2019-04-05T11:59:24Z</time>
      </trkpt>
      <trkpt lat="60.30118" lon="7.64803">
        <ele>1230.62</ele>
        <time>2019-04-05T11:59:26Z</time>
      </trkpt>
      <trkpt lat="60.30136" lon="7.648">
        <ele>1232.55</ele>
        <time>2019-04-05T11:59:29Z</time>
      </trkpt>
      <trkpt lat="60.30165" lon="7.64791">
        <ele>1236.87</ele>
        <time>2019-04-05T11:59:34Z</time>
      </trkpt>
      <trkpt lat="60.30178" lon="7.64788">
        <ele>1237.83</ele>
        <time>2019-04-05T11:59:36Z</time>
      </trkpt>
      <trkpt lat="60.302" lon="7.64794">
        <ele>1242.16</ele>
        <time>2019-04-05T11:59:40Z</time>
      </trkpt>
      <trkpt lat="60.30205" lon="7.64795">
        <ele>1242.16</ele>
        <time>2019-04-05T11:59:41Z</time>
      </trkpt>
      <trkpt lat="60.30231" lon="7.648">
        <ele>1243.12</ele>
        <time>2019-04-05T11:59:46Z</time>
      </trkpt>
      <trkpt lat="60.30235" lon="7.64791">
        <ele>1241.2</ele>
        <time>2019-04-05T11:59:49Z</time>
      </trkpt>
      <trkpt lat="60.30222" lon="7.64798">
        <ele>1237.83</ele>
        <time>2019-04-05T11:59:52Z</time>
      </trkpt>
      <trkpt lat="60.30205" lon="7.64821">
        <ele>1236.39</ele>
        <time>2019-04-05T11:59:55Z</time>
      </trkpt>
      <trkpt lat="60.30131" lon="7.64927">
        <ele>1233.99</ele>
        <time>2019-04-05T12:00:09Z</time>
      </trkpt>
      <trkpt lat="60.30085" lon="7.64992">
        <ele>1232.55</ele>
        <time>2019-04-05T12:00:17Z</time>
      </trkpt>
      <trkpt lat="60.30083" lon="7.64999">
        <ele>1232.55</ele>
        <time>2019-04-05T12:00:18Z</time>
      </trkpt>
      <trkpt lat="60.30081" lon="7.64997">
        <ele>1236.39</ele>
        <time>2019-04-05T12:00:20Z</time>
      </trkpt>
      <trkpt lat="60.30089" lon="7.6499">
        <ele>1237.35</ele>
        <time>2019-04-05T12:00:25Z</time>
      </trkpt>
      <trkpt lat="60.30102" lon="7.64987">
        <ele>1239.28</ele>
        <time>2019-04-05T12:00:29Z</time>
      </trkpt>
      <trkpt lat="60.30106" lon="7.64987">
        <ele>1239.28</ele>
        <time>2019-04-05T12:00:30Z</time>
      </trkpt>
      <trkpt lat="60.30119" lon="7.64986">
        <ele>1242.64</ele>
        <time>2019-04-05T12:00:33Z</time>
      </trkpt>
      <trkpt lat="60.30133" lon="7.64988">
        <ele>1244.56</ele>
        <time>2019-04-05T12:00:36Z</time>
      </trkpt>
      <trkpt lat="60.3018" lon="7.64992">
        <ele>1246.49</ele>
        <time>2019-04-05T12:00:44Z</time>
      </trkpt>
      <trkpt lat="60.30186" lon="7.64992">
        <ele>1246.49</ele>
        <time>2019-04-05T12:00:45Z</time>
      </trkpt>
      <trkpt lat="60.30197" lon="7.64993">
        <ele>1248.41</ele>
        <time>2019-04-05T12:00:47Z</time>
      </trkpt>
      <trkpt lat="60.30208" lon="7.64992">
        <ele>1248.41</ele>
        <time>2019-04-05T12:00:49Z</time>
      </trkpt>
      <trkpt lat="60.30226" lon="7.6499">
        <ele>1249.37</ele>
        <time>2019-04-05T12:00:52Z</time>
      </trkpt>
      <trkpt lat="60.30256" lon="7.64989">
        <ele>1251.77</ele>
        <time>2019-04-05T12:00:57Z</time>
      </trkpt>
      <trkpt lat="60.30292" lon="7.64998">
        <ele>1255.14</ele>
        <time>2019-04-05T12:01:04Z</time>
      </trkpt>
      <trkpt lat="60.30315" lon="7.65004">
        <ele>1255.62</ele>
        <time>2019-04-05T12:01:09Z</time>
      </trkpt>
      <trkpt lat="60.30324" lon="7.65004">
        <ele>1255.14</ele>
        <time>2019-04-05T12:01:11Z</time>
      </trkpt>
      <trkpt lat="60.3034" lon="7.65006">
        <ele>1256.58</ele>
        <time>2019-04-05T12:01:14Z</time>
      </trkpt>
      <trkpt lat="60.30359" lon="7.65012">
        <ele>1257.06</ele>
        <time>2019-04-05T12:01:18Z</time>
      </trkpt>
      <trkpt lat="60.30369" lon="7.65012">
        <ele>1258.02</ele>
        <time>2019-04-05T12:01:20Z</time>
      </trkpt>
      <trkpt lat="60.30432" lon="7.65019">
        <ele>1259.94</ele>
        <time>2019-04-05T12:01:31Z</time>
      </trkpt>
      <trkpt lat="60.30453" lon="7.65019">
        <ele>1260.91</ele>
        <time>2019-04-05T12:01:35Z</time>
      </trkpt>
      <trkpt lat="60.30475" lon="7.65017">
        <ele>1261.87</ele>
        <time>2019-04-05T12:01:39Z</time>
      </trkpt>
      <trkpt lat="60.30487" lon="7.65017">
        <ele>1263.79</ele>
        <time>2019-04-05T12:01:41Z</time>
      </trkpt>
      <trkpt lat="60.30498" lon="7.65016">
        <ele>1263.79</ele>
        <time>2019-04-05T12:01:43Z</time>
      </trkpt>
      <trkpt lat="60.30546" lon="7.65016">
        <ele>1265.71</ele>
        <time>2019-04-05T12:01:51Z</time>
      </trkpt>
      <trkpt lat="60.30557" lon="7.65014">
        <ele>1265.71</ele>
        <time>2019-04-05T12:01:53Z</time>
      </trkpt>
      <trkpt lat="60.30611" lon="7.65011">
        <ele>1269.56</ele>
        <time>2019-04-05T12:02:02Z</time>
      </trkpt>
      <trkpt lat="60.30666" lon="7.65019">
        <ele>1270.04</ele>
        <time>2019-04-05T12:02:12Z</time>
      </trkpt>
      <trkpt lat="60.30688" lon="7.65018">
        <ele>1271</ele>
        <time>2019-04-05T12:02:16Z</time>
      </trkpt>
      <trkpt lat="60.30699" lon="7.65021">
        <ele>1271</ele>
        <time>2019-04-05T12:02:18Z</time>
      </trkpt>
      <trkpt lat="60.30729" lon="7.65018">
        <ele>1272.44</ele>
        <time>2019-04-05T12:02:24Z</time>
      </trkpt>
      <trkpt lat="60.30742" lon="7.65019">
        <ele>1274.85</ele>
        <time>2019-04-05T12:02:27Z</time>
      </trkpt>
      <trkpt lat="60.30746" lon="7.65019">
        <ele>1274.85</ele>
        <time>2019-04-05T12:02:28Z</time>
      </trkpt>
      <trkpt lat="60.30783" lon="7.65014">
        <ele>1277.73</ele>
        <time>2019-04-05T12:02:35Z</time>
      </trkpt>
      <trkpt lat="60.30798" lon="7.65015">
        <ele>1279.65</ele>
        <time>2019-04-05T12:02:38Z</time>
      </trkpt>
      <trkpt lat="60.30827" lon="7.65014">
        <ele>1279.17</ele>
        <time>2019-04-05T12:02:43Z</time>
      </trkpt>
      <trkpt lat="60.30844" lon="7.65013">
        <ele>1281.09</ele>
        <time>2019-04-05T12:02:46Z</time>
      </trkpt>
      <trkpt lat="60.30876" lon="7.65007">
        <ele>1283.02</ele>
        <time>2019-04-05T12:02:52Z</time>
      </trkpt>
      <trkpt lat="60.30919" lon="7.65">
        <ele>1286.38</ele>
        <time>2019-04-05T12:03:01Z</time>
      </trkpt>
      <trkpt lat="60.30965" lon="7.65003">
        <ele>1288.78</ele>
        <time>2019-04-05T12:03:14Z</time>
      </trkpt>
      <trkpt lat="60.30992" lon="7.64997">
        <ele>1289.75</ele>
        <time>2019-04-05T12:03:25Z</time>
      </trkpt>
      <trkpt lat="60.30995" lon="7.64997">
        <ele>1288.78</ele>
        <time>2019-04-05T12:03:27Z</time>
      </trkpt>
      <trkpt lat="60.30999" lon="7.64996">
        <ele>1288.78</ele>
        <time>2019-04-05T12:03:33Z</time>
      </trkpt>
      <trkpt lat="60.30985" lon="7.65008">
        <ele>1286.38</ele>
        <time>2019-04-05T12:03:39Z</time>
      </trkpt>
      <trkpt lat="60.30978" lon="7.65018">
        <ele>1286.38</ele>
        <time>2019-04-05T12:03:41Z</time>
      </trkpt>
      <trkpt lat="60.3097" lon="7.65027">
        <ele>1286.38</ele>
        <time>2019-04-05T12:03:43Z</time>
      </trkpt>
      <trkpt lat="60.30951" lon="7.65047">
        <ele>1287.82</ele>
        <time>2019-04-05T12:03:47Z</time>
      </trkpt>
      <trkpt lat="60.30935" lon="7.65068">
        <ele>1285.9</ele>
        <time>2019-04-05T12:03:50Z</time>
      </trkpt>
      <trkpt lat="60.30926" lon="7.65079">
        <ele>1288.78</ele>
        <time>2019-04-05T12:03:52Z</time>
      </trkpt>
      <trkpt lat="60.30918" lon="7.6509">
        <ele>1286.86</ele>
        <time>2019-04-05T12:03:54Z</time>
      </trkpt>
      <trkpt lat="60.30867" lon="7.65158">
        <ele>1287.82</ele>
        <time>2019-04-05T12:04:04Z</time>
      </trkpt>
      <trkpt lat="60.30857" lon="7.65175">
        <ele>1287.82</ele>
        <time>2019-04-05T12:04:06Z</time>
      </trkpt>
      <trkpt lat="60.30828" lon="7.65215">
        <ele>1287.82</ele>
        <time>2019-04-05T12:04:12Z</time>
      </trkpt>
      <trkpt lat="60.30814" lon="7.65233">
        <ele>1287.82</ele>
        <time>2019-04-05T12:04:15Z</time>
      </trkpt>
      <trkpt lat="60.30788" lon="7.6527">
        <ele>1288.78</ele>
        <time>2019-04-05T12:04:21Z</time>
      </trkpt>
      <trkpt lat="60.30771" lon="7.65294">
        <ele>1289.75</ele>
        <time>2019-04-05T12:04:25Z</time>
      </trkpt>
      <trkpt lat="60.30756" lon="7.65317">
        <ele>1290.23</ele>
        <time>2019-04-05T12:04:29Z</time>
      </trkpt>
      <trkpt lat="60.3074" lon="7.65337">
        <ele>1288.78</ele>
        <time>2019-04-05T12:04:33Z</time>
      </trkpt>
      <trkpt lat="60.30699" lon="7.65394">
        <ele>1289.75</ele>
        <time>2019-04-05T12:04:42Z</time>
      </trkpt>
      <trkpt lat="60.30645" lon="7.65479">
        <ele>1290.23</ele>
        <time>2019-04-05T12:04:55Z</time>
      </trkpt>
      <trkpt lat="60.30633" lon="7.65495">
        <ele>1289.75</ele>
        <time>2019-04-05T12:04:58Z</time>
      </trkpt>
      <trkpt lat="60.30622" lon="7.65512">
        <ele>1289.75</ele>
        <time>2019-04-05T12:05:01Z</time>
      </trkpt>
      <trkpt lat="60.30595" lon="7.65548">
        <ele>1293.11</ele>
        <time>2019-04-05T12:05:07Z</time>
      </trkpt>
      <trkpt lat="60.30591" lon="7.65555">
        <ele>1293.11</ele>
        <time>2019-04-05T12:05:08Z</time>
      </trkpt>
      <trkpt lat="60.30579" lon="7.65576">
        <ele>1293.59</ele>
        <time>2019-04-05T12:05:11Z</time>
      </trkpt>
      <trkpt lat="60.30521" lon="7.65657">
        <ele>1293.11</ele>
        <time>2019-04-05T12:05:23Z</time>
      </trkpt>
      <trkpt lat="60.30505" lon="7.65681">
        <ele>1293.59</ele>
        <time>2019-04-05T12:05:26Z</time>
      </trkpt>
      <trkpt lat="60.305" lon="7.65689">
        <ele>1293.59</ele>
        <time>2019-04-05T12:05:27Z</time>
      </trkpt>
      <trkpt lat="60.30477" lon="7.65721">
        <ele>1292.15</ele>
        <time>2019-04-05T12:05:31Z</time>
      </trkpt>
      <trkpt lat="60.30466" lon="7.65735">
        <ele>1291.67</ele>
        <time>2019-04-05T12:05:33Z</time>
      </trkpt>
      <trkpt lat="60.30437" lon="7.65771">
        <ele>1291.67</ele>
        <time>2019-04-05T12:05:38Z</time>
      </trkpt>
      <trkpt lat="60.30416" lon="7.65803">
        <ele>1292.63</ele>
        <time>2019-04-05T12:05:42Z</time>
      </trkpt>
      <trkpt lat="60.3041" lon="7.65814">
        <ele>1289.75</ele>
        <time>2019-04-05T12:05:44Z</time>
      </trkpt>
      <trkpt lat="60.30408" lon="7.65813">
        <ele>1288.3</ele>
        <time>2019-04-05T12:05:45Z</time>
      </trkpt>
      <trkpt lat="60.30408" lon="7.65803">
        <ele>1287.34</ele>
        <time>2019-04-05T12:05:47Z</time>
      </trkpt>
      <trkpt lat="60.30411" lon="7.65797">
        <ele>1288.78</ele>
        <time>2019-04-05T12:05:48Z</time>
      </trkpt>
      <trkpt lat="60.30415" lon="7.65791">
        <ele>1288.78</ele>
        <time>2019-04-05T12:05:49Z</time>
      </trkpt>
      <trkpt lat="60.30419" lon="7.65789">
        <ele>1288.78</ele>
        <time>2019-04-05T12:05:50Z</time>
      </trkpt>
      <trkpt lat="60.30424" lon="7.65787">
        <ele>1288.78</ele>
        <time>2019-04-05T12:05:51Z</time>
      </trkpt>
      <trkpt lat="60.30429" lon="7.65786">
        <ele>1289.27</ele>
        <time>2019-04-05T12:05:52Z</time>
      </trkpt>
      <trkpt lat="60.30435" lon="7.65785">
        <ele>1290.23</ele>
        <time>2019-04-05T12:05:53Z</time>
      </trkpt>
      <trkpt lat="60.3044" lon="7.65784">
        <ele>1290.23</ele>
        <time>2019-04-05T12:05:54Z</time>
      </trkpt>
      <trkpt lat="60.30445" lon="7.65783">
        <ele>1290.71</ele>
        <time>2019-04-05T12:05:55Z</time>
      </trkpt>
      <trkpt lat="60.30462" lon="7.65779">
        <ele>1291.67</ele>
        <time>2019-04-05T12:05:58Z</time>
      </trkpt>
      <trkpt lat="60.3048" lon="7.65772">
        <ele>1291.67</ele>
        <time>2019-04-05T12:06:01Z</time>
      </trkpt>
      <trkpt lat="60.30523" lon="7.65743">
        <ele>1295.99</ele>
        <time>2019-04-05T12:06:08Z</time>
      </trkpt>
      <trkpt lat="60.3056" lon="7.65724">
        <ele>1298.4</ele>
        <time>2019-04-05T12:06:14Z</time>
      </trkpt>
      <trkpt lat="60.30579" lon="7.65717">
        <ele>1299.36</ele>
        <time>2019-04-05T12:06:17Z</time>
      </trkpt>
      <trkpt lat="60.30624" lon="7.65697">
        <ele>1301.28</ele>
        <time>2019-04-05T12:06:24Z</time>
      </trkpt>
      <trkpt lat="60.30692" lon="7.65657">
        <ele>1304.65</ele>
        <time>2019-04-05T12:06:34Z</time>
      </trkpt>
      <trkpt lat="60.307" lon="7.65652">
        <ele>1304.65</ele>
        <time>2019-04-05T12:06:35Z</time>
      </trkpt>
      <trkpt lat="60.30707" lon="7.65647">
        <ele>1305.61</ele>
        <time>2019-04-05T12:06:36Z</time>
      </trkpt>
      <trkpt lat="60.30786" lon="7.65555">
        <ele>1306.09</ele>
        <time>2019-04-05T12:06:47Z</time>
      </trkpt>
      <trkpt lat="60.30816" lon="7.65526">
        <ele>1307.53</ele>
        <time>2019-04-05T12:06:51Z</time>
      </trkpt>
      <trkpt lat="60.3085" lon="7.65502">
        <ele>1306.57</ele>
        <time>2019-04-05T12:06:56Z</time>
      </trkpt>
      <trkpt lat="60.30883" lon="7.65479">
        <ele>1306.09</ele>
        <time>2019-04-05T12:07:01Z</time>
      </trkpt>
      <trkpt lat="60.30945" lon="7.65415">
        <ele>1304.17</ele>
        <time>2019-04-05T12:07:12Z</time>
      </trkpt>
      <trkpt lat="60.30948" lon="7.65411">
        <ele>1303.69</ele>
        <time>2019-04-05T12:07:13Z</time>
      </trkpt>
      <trkpt lat="60.30952" lon="7.65406">
        <ele>1302.72</ele>
        <time>2019-04-05T12:07:14Z</time>
      </trkpt>
      <trkpt lat="60.30966" lon="7.65376">
        <ele>1301.76</ele>
        <time>2019-04-05T12:07:18Z</time>
      </trkpt>
      <trkpt lat="60.3097" lon="7.6537">
        <ele>1301.76</ele>
        <time>2019-04-05T12:07:19Z</time>
      </trkpt>
      <trkpt lat="60.30975" lon="7.65366">
        <ele>1301.76</ele>
        <time>2019-04-05T12:07:20Z</time>
      </trkpt>
      <trkpt lat="60.30979" lon="7.65363">
        <ele>1301.76</ele>
        <time>2019-04-05T12:07:21Z</time>
      </trkpt>
      <trkpt lat="60.30984" lon="7.65362">
        <ele>1301.76</ele>
        <time>2019-04-05T12:07:22Z</time>
      </trkpt>
      <trkpt lat="60.30989" lon="7.65362">
        <ele>1303.69</ele>
        <time>2019-04-05T12:07:23Z</time>
      </trkpt>
      <trkpt lat="60.30994" lon="7.65362">
        <ele>1303.69</ele>
        <time>2019-04-05T12:07:24Z</time>
      </trkpt>
      <trkpt lat="60.31036" lon="7.65356">
        <ele>1303.69</ele>
        <time>2019-04-05T12:07:32Z</time>
      </trkpt>
      <trkpt lat="60.31042" lon="7.65353">
        <ele>1303.69</ele>
        <time>2019-04-05T12:07:33Z</time>
      </trkpt>
      <trkpt lat="60.31047" lon="7.65351">
        <ele>1303.69</ele>
        <time>2019-04-05T12:07:34Z</time>
      </trkpt>
      <trkpt lat="60.31136" lon="7.6533">
        <ele>1301.76</ele>
        <time>2019-04-05T12:07:48Z</time>
      </trkpt>
      <trkpt lat="60.31167" lon="7.65331">
        <ele>1298.88</ele>
        <time>2019-04-05T12:07:52Z</time>
      </trkpt>
      <trkpt lat="60.31246" lon="7.65323">
        <ele>1298.88</ele>
        <time>2019-04-05T12:08:04Z</time>
      </trkpt>
      <trkpt lat="60.31253" lon="7.65323">
        <ele>1298.88</ele>
        <time>2019-04-05T12:08:05Z</time>
      </trkpt>
      <trkpt lat="60.31272" lon="7.65321">
        <ele>1300.32</ele>
        <time>2019-04-05T12:08:08Z</time>
      </trkpt>
      <trkpt lat="60.31304" lon="7.65316">
        <ele>1300.32</ele>
        <time>2019-04-05T12:08:13Z</time>
      </trkpt>
      <trkpt lat="60.3131" lon="7.65317">
        <ele>1300.8</ele>
        <time>2019-04-05T12:08:14Z</time>
      </trkpt>
      <trkpt lat="60.31338" lon="7.65319">
        <ele>1301.76</ele>
        <time>2019-04-05T12:08:19Z</time>
      </trkpt>
      <trkpt lat="60.31346" lon="7.65321">
        <ele>1301.76</ele>
        <time>2019-04-05T12:08:21Z</time>
      </trkpt>
      <trkpt lat="60.31358" lon="7.65322">
        <ele>1302.24</ele>
        <time>2019-04-05T12:08:24Z</time>
      </trkpt>
      <trkpt lat="60.31367" lon="7.65321">
        <ele>1303.2</ele>
        <time>2019-04-05T12:08:26Z</time>
      </trkpt>
      <trkpt lat="60.31371" lon="7.6532">
        <ele>1303.69</ele>
        <time>2019-04-05T12:08:27Z</time>
      </trkpt>
      <trkpt lat="60.31376" lon="7.65319">
        <ele>1304.65</ele>
        <time>2019-04-05T12:08:28Z</time>
      </trkpt>
      <trkpt lat="60.31381" lon="7.65319">
        <ele>1304.65</ele>
        <time>2019-04-05T12:08:29Z</time>
      </trkpt>
      <trkpt lat="60.31386" lon="7.65319">
        <ele>1305.61</ele>
        <time>2019-04-05T12:08:30Z</time>
      </trkpt>
      <trkpt lat="60.31408" lon="7.65319">
        <ele>1307.53</ele>
        <time>2019-04-05T12:08:34Z</time>
      </trkpt>
      <trkpt lat="60.31411" lon="7.65321">
        <ele>1308.49</ele>
        <time>2019-04-05T12:08:35Z</time>
      </trkpt>
      <trkpt lat="60.31415" lon="7.65324">
        <ele>1308.49</ele>
        <time>2019-04-05T12:08:36Z</time>
      </trkpt>
      <trkpt lat="60.31418" lon="7.65324">
        <ele>1308.49</ele>
        <time>2019-04-05T12:08:40Z</time>
      </trkpt>
      <trkpt lat="60.3142" lon="7.65324">
        <ele>1308.49</ele>
        <time>2019-04-05T12:08:43Z</time>
      </trkpt>
      <trkpt lat="60.31425" lon="7.65316">
        <ele>1308.49</ele>
        <time>2019-04-05T12:08:46Z</time>
      </trkpt>
      <trkpt lat="60.31428" lon="7.65312">
        <ele>1308.49</ele>
        <time>2019-04-05T12:08:47Z</time>
      </trkpt>
      <trkpt lat="60.31431" lon="7.6531">
        <ele>1309.45</ele>
        <time>2019-04-05T12:08:48Z</time>
      </trkpt>
      <trkpt lat="60.31434" lon="7.65309">
        <ele>1310.41</ele>
        <time>2019-04-05T12:08:49Z</time>
      </trkpt>
      <trkpt lat="60.31438" lon="7.65307">
        <ele>1311.38</ele>
        <time>2019-04-05T12:08:50Z</time>
      </trkpt>
      <trkpt lat="60.31455" lon="7.65304">
        <ele>1315.22</ele>
        <time>2019-04-05T12:08:55Z</time>
      </trkpt>
      <trkpt lat="60.31458" lon="7.65304">
        <ele>1315.7</ele>
        <time>2019-04-05T12:08:56Z</time>
      </trkpt>
      <trkpt lat="60.31461" lon="7.65304">
        <ele>1315.7</ele>
        <time>2019-04-05T12:08:57Z</time>
      </trkpt>
      <trkpt lat="60.31464" lon="7.65304">
        <ele>1317.14</ele>
        <time>2019-04-05T12:08:58Z</time>
      </trkpt>
      <trkpt lat="60.31466" lon="7.65303">
        <ele>1317.14</ele>
        <time>2019-04-05T12:08:59Z</time>
      </trkpt>
      <trkpt lat="60.31468" lon="7.65303">
        <ele>1317.62</ele>
        <time>2019-04-05T12:09:00Z</time>
      </trkpt>
      <trkpt lat="60.31471" lon="7.65301">
        <ele>1317.62</ele>
        <time>2019-04-05T12:09:01Z</time>
      </trkpt>
      <trkpt lat="60.31473" lon="7.653">
        <ele>1318.59</ele>
        <time>2019-04-05T12:09:02Z</time>
      </trkpt>
      <trkpt lat="60.31487" lon="7.65293">
        <ele>1321.95</ele>
        <time>2019-04-05T12:09:06Z</time>
      </trkpt>
      <trkpt lat="60.31497" lon="7.65292">
        <ele>1323.87</ele>
        <time>2019-04-05T12:09:09Z</time>
      </trkpt>
      <trkpt lat="60.3151" lon="7.65289">
        <ele>1325.8</ele>
        <time>2019-04-05T12:09:12Z</time>
      </trkpt>
      <trkpt lat="60.31514" lon="7.65287">
        <ele>1325.8</ele>
        <time>2019-04-05T12:09:13Z</time>
      </trkpt>
      <trkpt lat="60.31543" lon="7.65273">
        <ele>1329.16</ele>
        <time>2019-04-05T12:09:20Z</time>
      </trkpt>
      <trkpt lat="60.31585" lon="7.65261">
        <ele>1329.64</ele>
        <time>2019-04-05T12:09:30Z</time>
      </trkpt>
      <trkpt lat="60.3159" lon="7.65258">
        <ele>1329.64</ele>
        <time>2019-04-05T12:09:31Z</time>
      </trkpt>
      <trkpt lat="60.31613" lon="7.65246">
        <ele>1328.2</ele>
        <time>2019-04-05T12:09:35Z</time>
      </trkpt>
      <trkpt lat="60.31645" lon="7.6524">
        <ele>1325.8</ele>
        <time>2019-04-05T12:09:41Z</time>
      </trkpt>
      <trkpt lat="60.31723" lon="7.65224">
        <ele>1323.39</ele>
        <time>2019-04-05T12:09:53Z</time>
      </trkpt>
      <trkpt lat="60.3176" lon="7.65219">
        <ele>1321.95</ele>
        <time>2019-04-05T12:09:58Z</time>
      </trkpt>
      <trkpt lat="60.31785" lon="7.65212">
        <ele>1320.99</ele>
        <time>2019-04-05T12:10:01Z</time>
      </trkpt>
      <trkpt lat="60.31838" lon="7.65206">
        <ele>1319.07</ele>
        <time>2019-04-05T12:10:07Z</time>
      </trkpt>
      <trkpt lat="60.31889" lon="7.65184">
        <ele>1318.59</ele>
        <time>2019-04-05T12:10:13Z</time>
      </trkpt>
      <trkpt lat="60.31907" lon="7.6517">
        <ele>1317.14</ele>
        <time>2019-04-05T12:10:15Z</time>
      </trkpt>
      <trkpt lat="60.31951" lon="7.65129">
        <ele>1318.59</ele>
        <time>2019-04-05T12:10:21Z</time>
      </trkpt>
      <trkpt lat="60.31956" lon="7.65127">
        <ele>1318.59</ele>
        <time>2019-04-05T12:10:22Z</time>
      </trkpt>
      <trkpt lat="60.3196" lon="7.65125">
        <ele>1318.59</ele>
        <time>2019-04-05T12:10:23Z</time>
      </trkpt>
      <trkpt lat="60.31963" lon="7.65121">
        <ele>1318.59</ele>
        <time>2019-04-05T12:10:24Z</time>
      </trkpt>
      <trkpt lat="60.31972" lon="7.65107">
        <ele>1318.59</ele>
        <time>2019-04-05T12:10:28Z</time>
      </trkpt>
      <trkpt lat="60.31992" lon="7.65087">
        <ele>1318.59</ele>
        <time>2019-04-05T12:10:32Z</time>
      </trkpt>
      <trkpt lat="60.32098" lon="7.65029">
        <ele>1318.59</ele>
        <time>2019-04-05T12:10:47Z</time>
      </trkpt>
      <trkpt lat="60.32112" lon="7.65027">
        <ele>1318.59</ele>
        <time>2019-04-05T12:10:49Z</time>
      </trkpt>
      <trkpt lat="60.32118" lon="7.65026">
        <ele>1318.59</ele>
        <time>2019-04-05T12:10:50Z</time>
      </trkpt>
      <trkpt lat="60.32136" lon="7.6502">
        <ele>1319.07</ele>
        <time>2019-04-05T12:10:53Z</time>
      </trkpt>
      <trkpt lat="60.32142" lon="7.65017">
        <ele>1319.07</ele>
        <time>2019-04-05T12:10:54Z</time>
      </trkpt>
      <trkpt lat="60.32148" lon="7.65014">
        <ele>1319.07</ele>
        <time>2019-04-05T12:10:55Z</time>
      </trkpt>
      <trkpt lat="60.32154" lon="7.65012">
        <ele>1319.55</ele>
        <time>2019-04-05T12:10:56Z</time>
      </trkpt>
      <trkpt lat="60.3216" lon="7.65011">
        <ele>1319.55</ele>
        <time>2019-04-05T12:10:57Z</time>
      </trkpt>
      <trkpt lat="60.32166" lon="7.65008">
        <ele>1319.55</ele>
        <time>2019-04-05T12:10:58Z</time>
      </trkpt>
      <trkpt lat="60.32173" lon="7.65005">
        <ele>1319.55</ele>
        <time>2019-04-05T12:10:59Z</time>
      </trkpt>
      <trkpt lat="60.32186" lon="7.65002">
        <ele>1320.51</ele>
        <time>2019-04-05T12:11:01Z</time>
      </trkpt>
      <trkpt lat="60.32218" lon="7.65001">
        <ele>1320.99</ele>
        <time>2019-04-05T12:11:06Z</time>
      </trkpt>
      <trkpt lat="60.32224" lon="7.65002">
        <ele>1320.99</ele>
        <time>2019-04-05T12:11:07Z</time>
      </trkpt>
      <trkpt lat="60.32235" lon="7.65003">
        <ele>1320.99</ele>
        <time>2019-04-05T12:11:09Z</time>
      </trkpt>
      <trkpt lat="60.32246" lon="7.65001">
        <ele>1322.43</ele>
        <time>2019-04-05T12:11:11Z</time>
      </trkpt>
      <trkpt lat="60.32251" lon="7.65">
        <ele>1322.91</ele>
        <time>2019-04-05T12:11:12Z</time>
      </trkpt>
      <trkpt lat="60.3227" lon="7.64997">
        <ele>1325.31</ele>
        <time>2019-04-05T12:11:16Z</time>
      </trkpt>
      <trkpt lat="60.3228" lon="7.64995">
        <ele>1326.28</ele>
        <time>2019-04-05T12:11:18Z</time>
      </trkpt>
      <trkpt lat="60.32284" lon="7.64994">
        <ele>1326.76</ele>
        <time>2019-04-05T12:11:19Z</time>
      </trkpt>
      <trkpt lat="60.32289" lon="7.64994">
        <ele>1327.72</ele>
        <time>2019-04-05T12:11:20Z</time>
      </trkpt>
      <trkpt lat="60.32293" lon="7.64994">
        <ele>1327.72</ele>
        <time>2019-04-05T12:11:21Z</time>
      </trkpt>
      <trkpt lat="60.32298" lon="7.64994">
        <ele>1328.2</ele>
        <time>2019-04-05T12:11:22Z</time>
      </trkpt>
      <trkpt lat="60.32303" lon="7.64995">
        <ele>1329.16</ele>
        <time>2019-04-05T12:11:23Z</time>
      </trkpt>
      <trkpt lat="60.32308" lon="7.64995">
        <ele>1330.12</ele>
        <time>2019-04-05T12:11:24Z</time>
      </trkpt>
      <trkpt lat="60.32313" lon="7.64996">
        <ele>1330.12</ele>
        <time>2019-04-05T12:11:25Z</time>
      </trkpt>
      <trkpt lat="60.32318" lon="7.64997">
        <ele>1330.12</ele>
        <time>2019-04-05T12:11:26Z</time>
      </trkpt>
      <trkpt lat="60.32323" lon="7.64998">
        <ele>1329.64</ele>
        <time>2019-04-05T12:11:27Z</time>
      </trkpt>
      <trkpt lat="60.32328" lon="7.64997">
        <ele>1330.12</ele>
        <time>2019-04-05T12:11:28Z</time>
      </trkpt>
      <trkpt lat="60.32333" lon="7.64996">
        <ele>1330.6</ele>
        <time>2019-04-05T12:11:29Z</time>
      </trkpt>
      <trkpt lat="60.32342" lon="7.64993">
        <ele>1331.56</ele>
        <time>2019-04-05T12:11:31Z</time>
      </trkpt>
      <trkpt lat="60.32352" lon="7.64992">
        <ele>1332.04</ele>
        <time>2019-04-05T12:11:33Z</time>
      </trkpt>
      <trkpt lat="60.32357" lon="7.64992">
        <ele>1333.01</ele>
        <time>2019-04-05T12:11:34Z</time>
      </trkpt>
      <trkpt lat="60.32361" lon="7.64994">
        <ele>1333.49</ele>
        <time>2019-04-05T12:11:35Z</time>
      </trkpt>
      <trkpt lat="60.32366" lon="7.64994">
        <ele>1333.49</ele>
        <time>2019-04-05T12:11:36Z</time>
      </trkpt>
      <trkpt lat="60.3237" lon="7.64994">
        <ele>1334.45</ele>
        <time>2019-04-05T12:11:37Z</time>
      </trkpt>
      <trkpt lat="60.32375" lon="7.64995">
        <ele>1334.45</ele>
        <time>2019-04-05T12:11:38Z</time>
      </trkpt>
      <trkpt lat="60.32387" lon="7.65">
        <ele>1335.89</ele>
        <time>2019-04-05T12:11:41Z</time>
      </trkpt>
      <trkpt lat="60.32406" lon="7.65004">
        <ele>1336.85</ele>
        <time>2019-04-05T12:11:50Z</time>
      </trkpt>
      <trkpt lat="60.32409" lon="7.65004">
        <ele>1337.33</ele>
        <time>2019-04-05T12:11:53Z</time>
      </trkpt>
      <trkpt lat="60.3241" lon="7.65005">
        <ele>1337.33</ele>
        <time>2019-04-05T12:11:54Z</time>
      </trkpt>
      <trkpt lat="60.32412" lon="7.65005">
        <ele>1337.33</ele>
        <time>2019-04-05T12:11:55Z</time>
      </trkpt>
      <trkpt lat="60.32414" lon="7.65006">
        <ele>1337.33</ele>
        <time>2019-04-05T12:11:56Z</time>
      </trkpt>
      <trkpt lat="60.32416" lon="7.65007">
        <ele>1337.33</ele>
        <time>2019-04-05T12:11:57Z</time>
      </trkpt>
      <trkpt lat="60.32418" lon="7.65009">
        <ele>1337.33</ele>
        <time>2019-04-05T12:11:58Z</time>
      </trkpt>
      <trkpt lat="60.32421" lon="7.65011">
        <ele>1337.81</ele>
        <time>2019-04-05T12:12:10Z</time>
      </trkpt>
      <trkpt lat="60.32421" lon="7.65009">
        <ele>1337.81</ele>
        <time>2019-04-05T12:12:33Z</time>
      </trkpt>
      <trkpt lat="60.32421" lon="7.6501">
        <ele>1337.33</ele>
        <time>2019-04-05T12:13:08Z</time>
      </trkpt>
      <trkpt lat="60.32424" lon="7.65006">
        <ele>1337.33</ele>
        <time>2019-04-05T12:13:13Z</time>
      </trkpt>
      <trkpt lat="60.32426" lon="7.65003">
        <ele>1337.33</ele>
        <time>2019-04-05T12:13:14Z</time>
      </trkpt>
      <trkpt lat="60.32428" lon="7.64998">
        <ele>1337.33</ele>
        <time>2019-04-05T12:13:15Z</time>
      </trkpt>
      <trkpt lat="60.32432" lon="7.64993">
        <ele>1337.33</ele>
        <time>2019-04-05T12:13:16Z</time>
      </trkpt>
      <trkpt lat="60.32435" lon="7.6499">
        <ele>1338.29</ele>
        <time>2019-04-05T12:13:17Z</time>
      </trkpt>
      <trkpt lat="60.32438" lon="7.64988">
        <ele>1338.29</ele>
        <time>2019-04-05T12:13:18Z</time>
      </trkpt>
      <trkpt lat="60.32441" lon="7.64988">
        <ele>1339.25</ele>
        <time>2019-04-05T12:13:19Z</time>
      </trkpt>
      <trkpt lat="60.32445" lon="7.64989">
        <ele>1339.73</ele>
        <time>2019-04-05T12:13:20Z</time>
      </trkpt>
      <trkpt lat="60.32448" lon="7.6499">
        <ele>1340.22</ele>
        <time>2019-04-05T12:13:21Z</time>
      </trkpt>
      <trkpt lat="60.32481" lon="7.65001">
        <ele>1340.7</ele>
        <time>2019-04-05T12:13:30Z</time>
      </trkpt>
      <trkpt lat="60.32492" lon="7.65004">
        <ele>1341.18</ele>
        <time>2019-04-05T12:13:32Z</time>
      </trkpt>
      <trkpt lat="60.32497" lon="7.65006">
        <ele>1341.18</ele>
        <time>2019-04-05T12:13:33Z</time>
      </trkpt>
      <trkpt lat="60.32518" lon="7.64993">
        <ele>1342.14</ele>
        <time>2019-04-05T12:13:41Z</time>
      </trkpt>
      <trkpt lat="60.32518" lon="7.64993">
        <ele>1342.14</ele>
        <time>2019-04-05T12:13:58Z</time>
      </trkpt>
      <trkpt lat="60.32519" lon="7.64992">
        <ele>1342.62</ele>
        <time>2019-04-05T12:14:26Z</time>
      </trkpt>
      <trkpt lat="60.3252" lon="7.64984">
        <ele>1341.18</ele>
        <time>2019-04-05T12:14:28Z</time>
      </trkpt>
      <trkpt lat="60.32523" lon="7.64978">
        <ele>1341.18</ele>
        <time>2019-04-05T12:14:29Z</time>
      </trkpt>
      <trkpt lat="60.32526" lon="7.64976">
        <ele>1341.18</ele>
        <time>2019-04-05T12:14:30Z</time>
      </trkpt>
      <trkpt lat="60.32529" lon="7.64975">
        <ele>1342.62</ele>
        <time>2019-04-05T12:14:31Z</time>
      </trkpt>
      <trkpt lat="60.32532" lon="7.64975">
        <ele>1343.58</ele>
        <time>2019-04-05T12:14:32Z</time>
      </trkpt>
      <trkpt lat="60.32535" lon="7.64976">
        <ele>1343.58</ele>
        <time>2019-04-05T12:14:33Z</time>
      </trkpt>
      <trkpt lat="60.32555" lon="7.64957">
        <ele>1344.54</ele>
        <time>2019-04-05T12:14:44Z</time>
      </trkpt>
      <trkpt lat="60.32557" lon="7.64943">
        <ele>1344.54</ele>
        <time>2019-04-05T12:14:48Z</time>
      </trkpt>
      <trkpt lat="60.32554" lon="7.64936">
        <ele>1343.58</ele>
        <time>2019-04-05T12:15:01Z</time>
      </trkpt>
      <trkpt lat="60.32553" lon="7.64929">
        <ele>1344.54</ele>
        <time>2019-04-05T12:15:31Z</time>
      </trkpt>
      <trkpt lat="60.32554" lon="7.64929">
        <ele>1344.54</ele>
        <time>2019-04-05T12:15:51Z</time>
      </trkpt>
      <trkpt lat="60.32552" lon="7.64926">
        <ele>1343.58</ele>
        <time>2019-04-05T12:15:56Z</time>
      </trkpt>
      <trkpt lat="60.3255" lon="7.64926">
        <ele>1343.58</ele>
        <time>2019-04-05T12:15:57Z</time>
      </trkpt>
      <trkpt lat="60.32547" lon="7.64928">
        <ele>1343.58</ele>
        <time>2019-04-05T12:15:58Z</time>
      </trkpt>
      <trkpt lat="60.32543" lon="7.64932">
        <ele>1342.62</ele>
        <time>2019-04-05T12:15:59Z</time>
      </trkpt>
      <trkpt lat="60.3254" lon="7.64937">
        <ele>1342.14</ele>
        <time>2019-04-05T12:16:00Z</time>
      </trkpt>
      <trkpt lat="60.32537" lon="7.64943">
        <ele>1342.14</ele>
        <time>2019-04-05T12:16:01Z</time>
      </trkpt>
      <trkpt lat="60.32533" lon="7.6495">
        <ele>1342.14</ele>
        <time>2019-04-05T12:16:02Z</time>
      </trkpt>
      <trkpt lat="60.32526" lon="7.64966">
        <ele>1340.7</ele>
        <time>2019-04-05T12:16:05Z</time>
      </trkpt>
      <trkpt lat="60.32524" lon="7.64965">
        <ele>1340.7</ele>
        <time>2019-04-05T12:16:06Z</time>
      </trkpt>
      <trkpt lat="60.32524" lon="7.64961">
        <ele>1340.7</ele>
        <time>2019-04-05T12:16:07Z</time>
      </trkpt>
      <trkpt lat="60.32529" lon="7.64955">
        <ele>1341.66</ele>
        <time>2019-04-05T12:16:09Z</time>
      </trkpt>
      <trkpt lat="60.32533" lon="7.64954">
        <ele>1342.62</ele>
        <time>2019-04-05T12:16:10Z</time>
      </trkpt>
      <trkpt lat="60.32536" lon="7.64952">
        <ele>1342.62</ele>
        <time>2019-04-05T12:16:11Z</time>
      </trkpt>
      <trkpt lat="60.32564" lon="7.64938">
        <ele>1345.02</ele>
        <time>2019-04-05T12:16:21Z</time>
      </trkpt>
      <trkpt lat="60.32564" lon="7.64937">
        <ele>1344.54</ele>
        <time>2019-04-05T12:16:25Z</time>
      </trkpt>
      <trkpt lat="60.32566" lon="7.64935">
        <ele>1344.54</ele>
        <time>2019-04-05T12:16:26Z</time>
      </trkpt>
      <trkpt lat="60.32583" lon="7.64906">
        <ele>1345.98</ele>
        <time>2019-04-05T12:16:37Z</time>
      </trkpt>
      <trkpt lat="60.32579" lon="7.64892">
        <ele>1344.54</ele>
        <time>2019-04-05T12:16:40Z</time>
      </trkpt>
      <trkpt lat="60.32567" lon="7.64904">
        <ele>1344.54</ele>
        <time>2019-04-05T12:16:44Z</time>
      </trkpt>
      <trkpt lat="60.32557" lon="7.64919">
        <ele>1344.06</ele>
        <time>2019-04-05T12:16:58Z</time>
      </trkpt>
      <trkpt lat="60.32559" lon="7.64919">
        <ele>1343.58</ele>
        <time>2019-04-05T12:17:18Z</time>
      </trkpt>
      <trkpt lat="60.3256" lon="7.64917">
        <ele>1343.58</ele>
        <time>2019-04-05T12:17:42Z</time>
      </trkpt>
      <trkpt lat="60.32558" lon="7.64917">
        <ele>1343.58</ele>
        <time>2019-04-05T12:17:53Z</time>
      </trkpt>
      <trkpt lat="60.32555" lon="7.64918">
        <ele>1343.58</ele>
        <time>2019-04-05T12:17:55Z</time>
      </trkpt>
      <trkpt lat="60.32552" lon="7.64921">
        <ele>1343.58</ele>
        <time>2019-04-05T12:17:56Z</time>
      </trkpt>
      <trkpt lat="60.32538" lon="7.64942">
        <ele>1342.62</ele>
        <time>2019-04-05T12:18:01Z</time>
      </trkpt>
      <trkpt lat="60.32536" lon="7.64939">
        <ele>1342.62</ele>
        <time>2019-04-05T12:18:02Z</time>
      </trkpt>
      <trkpt lat="60.32536" lon="7.64934">
        <ele>1341.66</ele>
        <time>2019-04-05T12:18:03Z</time>
      </trkpt>
      <trkpt lat="60.32541" lon="7.6493">
        <ele>1343.58</ele>
        <time>2019-04-05T12:18:05Z</time>
      </trkpt>
      <trkpt lat="60.32544" lon="7.64929">
        <ele>1343.58</ele>
        <time>2019-04-05T12:18:06Z</time>
      </trkpt>
      <trkpt lat="60.32552" lon="7.64929">
        <ele>1343.58</ele>
        <time>2019-04-05T12:18:11Z</time>
      </trkpt>
      <trkpt lat="60.32553" lon="7.64928">
        <ele>1343.58</ele>
        <time>2019-04-05T12:18:12Z</time>
      </trkpt>
      <trkpt lat="60.32554" lon="7.64927">
        <ele>1343.58</ele>
        <time>2019-04-05T12:18:13Z</time>
      </trkpt>
      <trkpt lat="60.32555" lon="7.64929">
        <ele>1344.06</ele>
        <time>2019-04-05T12:18:30Z</time>
      </trkpt>
      <trkpt lat="60.32556" lon="7.64928">
        <ele>1344.06</ele>
        <time>2019-04-05T12:18:58Z</time>
      </trkpt>
      <trkpt lat="60.32556" lon="7.64927">
        <ele>1344.06</ele>
        <time>2019-04-05T12:19:24Z</time>
      </trkpt>
      <trkpt lat="60.32555" lon="7.64926">
        <ele>1344.06</ele>
        <time>2019-04-05T12:19:53Z</time>
      </trkpt>
      <trkpt lat="60.32555" lon="7.64925">
        <ele>1344.06</ele>
        <time>2019-04-05T12:20:25Z</time>
      </trkpt>
      <trkpt lat="60.32555" lon="7.64925">
        <ele>1344.06</ele>
        <time>2019-04-05T12:20:48Z</time>
      </trkpt>
      <trkpt lat="60.32554" lon="7.64923">
        <ele>1343.58</ele>
        <time>2019-04-05T12:21:12Z</time>
      </trkpt>
      <trkpt lat="60.32555" lon="7.64923">
        <ele>1343.58</ele>
        <time>2019-04-05T12:21:43Z</time>
      </trkpt>
      <trkpt lat="60.32555" lon="7.64921">
        <ele>1343.1</ele>
        <time>2019-04-05T12:22:11Z</time>
      </trkpt>
      <trkpt lat="60.32555" lon="7.64922">
        <ele>1343.1</ele>
        <time>2019-04-05T12:22:38Z</time>
      </trkpt>
      <trkpt lat="60.32556" lon="7.6492">
        <ele>1343.1</ele>
        <time>2019-04-05T12:22:40Z</time>
      </trkpt>
      <trkpt lat="60.32551" lon="7.64912">
        <ele>1341.18</ele>
        <time>2019-04-05T12:22:44Z</time>
      </trkpt>
      <trkpt lat="60.32548" lon="7.64915">
        <ele>1339.73</ele>
        <time>2019-04-05T12:22:45Z</time>
      </trkpt>
      <trkpt lat="60.32544" lon="7.6492">
        <ele>1339.73</ele>
        <time>2019-04-05T12:22:46Z</time>
      </trkpt>
      <trkpt lat="60.32541" lon="7.64926">
        <ele>1339.73</ele>
        <time>2019-04-05T12:22:47Z</time>
      </trkpt>
      <trkpt lat="60.32537" lon="7.64933">
        <ele>1339.25</ele>
        <time>2019-04-05T12:22:48Z</time>
      </trkpt>
      <trkpt lat="60.32534" lon="7.6494">
        <ele>1339.25</ele>
        <time>2019-04-05T12:22:49Z</time>
      </trkpt>
      <trkpt lat="60.32528" lon="7.64954">
        <ele>1338.77</ele>
        <time>2019-04-05T12:22:51Z</time>
      </trkpt>
      <trkpt lat="60.3252" lon="7.64974">
        <ele>1337.33</ele>
        <time>2019-04-05T12:22:54Z</time>
      </trkpt>
      <trkpt lat="60.32514" lon="7.64986">
        <ele>1338.77</ele>
        <time>2019-04-05T12:22:56Z</time>
      </trkpt>
      <trkpt lat="60.32508" lon="7.64999">
        <ele>1337.33</ele>
        <time>2019-04-05T12:22:58Z</time>
      </trkpt>
      <trkpt lat="60.32504" lon="7.65005">
        <ele>1340.7</ele>
        <time>2019-04-05T12:22:59Z</time>
      </trkpt>
      <trkpt lat="60.32496" lon="7.65029">
        <ele>1338.77</ele>
        <time>2019-04-05T12:23:03Z</time>
      </trkpt>
      <trkpt lat="60.32491" lon="7.65033">
        <ele>1337.33</ele>
        <time>2019-04-05T12:23:05Z</time>
      </trkpt>
      <trkpt lat="60.32499" lon="7.65024">
        <ele>1339.25</ele>
        <time>2019-04-05T12:23:10Z</time>
      </trkpt>
      <trkpt lat="60.32511" lon="7.65019">
        <ele>1340.22</ele>
        <time>2019-04-05T12:23:14Z</time>
      </trkpt>
      <trkpt lat="60.32525" lon="7.65002">
        <ele>1342.14</ele>
        <time>2019-04-05T12:23:26Z</time>
      </trkpt>
      <trkpt lat="60.32523" lon="7.64998">
        <ele>1341.66</ele>
        <time>2019-04-05T12:23:43Z</time>
      </trkpt>
      <trkpt lat="60.32522" lon="7.64995">
        <ele>1341.66</ele>
        <time>2019-04-05T12:23:45Z</time>
      </trkpt>
      <trkpt lat="60.3252" lon="7.64989">
        <ele>1341.66</ele>
        <time>2019-04-05T12:23:47Z</time>
      </trkpt>
      <trkpt lat="60.32518" lon="7.64969">
        <ele>1339.73</ele>
        <time>2019-04-05T12:23:50Z</time>
      </trkpt>
      <trkpt lat="60.32519" lon="7.64966">
        <ele>1339.73</ele>
        <time>2019-04-05T12:23:53Z</time>
      </trkpt>
      <trkpt lat="60.32521" lon="7.64962">
        <ele>1339.73</ele>
        <time>2019-04-05T12:23:55Z</time>
      </trkpt>
      <trkpt lat="60.32542" lon="7.64941">
        <ele>1342.62</ele>
        <time>2019-04-05T12:24:04Z</time>
      </trkpt>
      <trkpt lat="60.32545" lon="7.64935">
        <ele>1342.62</ele>
        <time>2019-04-05T12:24:08Z</time>
      </trkpt>
      <trkpt lat="60.32546" lon="7.64932">
        <ele>1342.62</ele>
        <time>2019-04-05T12:24:09Z</time>
      </trkpt>
      <trkpt lat="60.32548" lon="7.64928">
        <ele>1342.62</ele>
        <time>2019-04-05T12:24:10Z</time>
      </trkpt>
      <trkpt lat="60.3255" lon="7.64927">
        <ele>1342.62</ele>
        <time>2019-04-05T12:24:11Z</time>
      </trkpt>
      <trkpt lat="60.32551" lon="7.64926">
        <ele>1342.62</ele>
        <time>2019-04-05T12:24:12Z</time>
      </trkpt>
      <trkpt lat="60.32553" lon="7.64922">
        <ele>1343.58</ele>
        <time>2019-04-05T12:24:28Z</time>
      </trkpt>
      <trkpt lat="60.32554" lon="7.64923">
        <ele>1343.58</ele>
        <time>2019-04-05T12:24:57Z</time>
      </trkpt>
      <trkpt lat="60.32554" lon="7.64922">
        <ele>1343.58</ele>
        <time>2019-04-05T12:25:23Z</time>
      </trkpt>
      <trkpt lat="60.32554" lon="7.64921">
        <ele>1343.58</ele>
        <time>2019-04-05T12:25:50Z</time>
      </trkpt>
      <trkpt lat="60.32553" lon="7.64921">
        <ele>1343.58</ele>
        <time>2019-04-05T12:26:26Z</time>
      </trkpt>
      <trkpt lat="60.32554" lon="7.64923">
        <ele>1343.58</ele>
        <time>2019-04-05T12:26:54Z</time>
      </trkpt>
      <trkpt lat="60.32555" lon="7.64922">
        <ele>1343.58</ele>
        <time>2019-04-05T12:27:21Z</time>
      </trkpt>
      <trkpt lat="60.32555" lon="7.64926">
        <ele>1343.1</ele>
        <time>2019-04-05T12:27:44Z</time>
      </trkpt>
      <trkpt lat="60.32555" lon="7.64925">
        <ele>1342.14</ele>
        <time>2019-04-05T12:28:03Z</time>
      </trkpt>
      <trkpt lat="60.32554" lon="7.64927">
        <ele>1342.14</ele>
        <time>2019-04-05T12:28:24Z</time>
      </trkpt>
      <trkpt lat="60.32554" lon="7.64926">
        <ele>1342.14</ele>
        <time>2019-04-05T12:28:47Z</time>
      </trkpt>
      <trkpt lat="60.32555" lon="7.64924">
        <ele>1341.66</ele>
        <time>2019-04-05T12:29:20Z</time>
      </trkpt>
      <trkpt lat="60.32556" lon="7.64923">
        <ele>1341.66</ele>
        <time>2019-04-05T12:29:43Z</time>
      </trkpt>
      <trkpt lat="60.32553" lon="7.64923">
        <ele>1342.62</ele>
        <time>2019-04-05T12:30:17Z</time>
      </trkpt>
      <trkpt lat="60.32555" lon="7.6492">
        <ele>1342.62</ele>
        <time>2019-04-05T12:30:23Z</time>
      </trkpt>
      <trkpt lat="60.32555" lon="7.64918">
        <ele>1341.18</ele>
        <time>2019-04-05T12:30:24Z</time>
      </trkpt>
      <trkpt lat="60.32553" lon="7.64918">
        <ele>1341.18</ele>
        <time>2019-04-05T12:30:25Z</time>
      </trkpt>
      <trkpt lat="60.32549" lon="7.64921">
        <ele>1341.18</ele>
        <time>2019-04-05T12:30:26Z</time>
      </trkpt>
      <trkpt lat="60.32546" lon="7.64925">
        <ele>1341.18</ele>
        <time>2019-04-05T12:30:27Z</time>
      </trkpt>
      <trkpt lat="60.32542" lon="7.64931">
        <ele>1340.7</ele>
        <time>2019-04-05T12:30:28Z</time>
      </trkpt>
      <trkpt lat="60.32526" lon="7.64957">
        <ele>1339.73</ele>
        <time>2019-04-05T12:30:32Z</time>
      </trkpt>
      <trkpt lat="60.32523" lon="7.64964">
        <ele>1339.73</ele>
        <time>2019-04-05T12:30:33Z</time>
      </trkpt>
      <trkpt lat="60.32517" lon="7.64978">
        <ele>1339.25</ele>
        <time>2019-04-05T12:30:35Z</time>
      </trkpt>
      <trkpt lat="60.32509" lon="7.64998">
        <ele>1339.25</ele>
        <time>2019-04-05T12:30:38Z</time>
      </trkpt>
      <trkpt lat="60.32495" lon="7.65031">
        <ele>1338.29</ele>
        <time>2019-04-05T12:30:43Z</time>
      </trkpt>
      <trkpt lat="60.32478" lon="7.6509">
        <ele>1335.41</ele>
        <time>2019-04-05T12:30:53Z</time>
      </trkpt>
      <trkpt lat="60.32471" lon="7.65091">
        <ele>1333.49</ele>
        <time>2019-04-05T12:30:56Z</time>
      </trkpt>
      <trkpt lat="60.32482" lon="7.65066">
        <ele>1335.41</ele>
        <time>2019-04-05T12:31:02Z</time>
      </trkpt>
      <trkpt lat="60.32484" lon="7.65066">
        <ele>1336.37</ele>
        <time>2019-04-05T12:31:03Z</time>
      </trkpt>
      <trkpt lat="60.3249" lon="7.65069">
        <ele>1336.37</ele>
        <time>2019-04-05T12:31:16Z</time>
      </trkpt>
      <trkpt lat="60.3249" lon="7.65068">
        <ele>1336.37</ele>
        <time>2019-04-05T12:31:23Z</time>
      </trkpt>
      <trkpt lat="60.32498" lon="7.65059">
        <ele>1337.33</ele>
        <time>2019-04-05T12:31:29Z</time>
      </trkpt>
      <trkpt lat="60.3251" lon="7.65055">
        <ele>1338.77</ele>
        <time>2019-04-05T12:31:35Z</time>
      </trkpt>
      <trkpt lat="60.32529" lon="7.6505">
        <ele>1340.7</ele>
        <time>2019-04-05T12:31:45Z</time>
      </trkpt>
      <trkpt lat="60.32532" lon="7.6505">
        <ele>1341.66</ele>
        <time>2019-04-05T12:31:47Z</time>
      </trkpt>
      <trkpt lat="60.32539" lon="7.65046">
        <ele>1342.14</ele>
        <time>2019-04-05T12:31:58Z</time>
      </trkpt>
      <trkpt lat="60.32539" lon="7.65047">
        <ele>1342.14</ele>
        <time>2019-04-05T12:32:32Z</time>
      </trkpt>
      <trkpt lat="60.32539" lon="7.65047">
        <ele>1342.14</ele>
        <time>2019-04-05T12:33:07Z</time>
      </trkpt>
      <trkpt lat="60.32539" lon="7.65047">
        <ele>1342.14</ele>
        <time>2019-04-05T12:33:34Z</time>
      </trkpt>
      <trkpt lat="60.32538" lon="7.65047">
        <ele>1342.14</ele>
        <time>2019-04-05T12:34:06Z</time>
      </trkpt>
      <trkpt lat="60.32538" lon="7.65048">
        <ele>1342.14</ele>
        <time>2019-04-05T12:34:42Z</time>
      </trkpt>
      <trkpt lat="60.32538" lon="7.65046">
        <ele>1342.14</ele>
        <time>2019-04-05T12:35:20Z</time>
      </trkpt>
      <trkpt lat="60.32539" lon="7.65046">
        <ele>1342.14</ele>
        <time>2019-04-05T12:35:52Z</time>
      </trkpt>
      <trkpt lat="60.32539" lon="7.65046">
        <ele>1342.14</ele>
        <time>2019-04-05T12:35:56Z</time>
      </trkpt>
      <trkpt lat="60.32558" lon="7.65032">
        <ele>1343.1</ele>
        <time>2019-04-05T12:36:06Z</time>
      </trkpt>
      <trkpt lat="60.32566" lon="7.65028">
        <ele>1343.58</ele>
        <time>2019-04-05T12:36:08Z</time>
      </trkpt>
      <trkpt lat="60.32576" lon="7.65025">
        <ele>1344.06</ele>
        <time>2019-04-05T12:36:10Z</time>
      </trkpt>
      <trkpt lat="60.32585" lon="7.65025">
        <ele>1345.98</ele>
        <time>2019-04-05T12:36:12Z</time>
      </trkpt>
      <trkpt lat="60.32603" lon="7.65025">
        <ele>1346.46</ele>
        <time>2019-04-05T12:36:16Z</time>
      </trkpt>
      <trkpt lat="60.32616" lon="7.65023">
        <ele>1347.43</ele>
        <time>2019-04-05T12:36:19Z</time>
      </trkpt>
      <trkpt lat="60.32625" lon="7.65022">
        <ele>1347.43</ele>
        <time>2019-04-05T12:36:21Z</time>
      </trkpt>
      <trkpt lat="60.32638" lon="7.65014">
        <ele>1348.39</ele>
        <time>2019-04-05T12:36:24Z</time>
      </trkpt>
      <trkpt lat="60.32665" lon="7.65009">
        <ele>1349.83</ele>
        <time>2019-04-05T12:36:30Z</time>
      </trkpt>
      <trkpt lat="60.32702" lon="7.65025">
        <ele>1349.35</ele>
        <time>2019-04-05T12:36:39Z</time>
      </trkpt>
      <trkpt lat="60.32728" lon="7.65036">
        <ele>1347.91</ele>
        <time>2019-04-05T12:36:45Z</time>
      </trkpt>
      <trkpt lat="60.32747" lon="7.65034">
        <ele>1347.91</ele>
        <time>2019-04-05T12:36:49Z</time>
      </trkpt>
      <trkpt lat="60.3277" lon="7.65024">
        <ele>1347.91</ele>
        <time>2019-04-05T12:36:53Z</time>
      </trkpt>
      <trkpt lat="60.32787" lon="7.65018">
        <ele>1347.91</ele>
        <time>2019-04-05T12:36:56Z</time>
      </trkpt>
      <trkpt lat="60.32813" lon="7.65001">
        <ele>1347.43</ele>
        <time>2019-04-05T12:37:01Z</time>
      </trkpt>
      <trkpt lat="60.32834" lon="7.64995">
        <ele>1347.43</ele>
        <time>2019-04-05T12:37:05Z</time>
      </trkpt>
      <trkpt lat="60.3287" lon="7.64967">
        <ele>1346.46</ele>
        <time>2019-04-05T12:37:13Z</time>
      </trkpt>
      <trkpt lat="60.32884" lon="7.64937">
        <ele>1344.06</ele>
        <time>2019-04-05T12:37:18Z</time>
      </trkpt>
      <trkpt lat="60.32892" lon="7.64919">
        <ele>1344.54</ele>
        <time>2019-04-05T12:37:21Z</time>
      </trkpt>
      <trkpt lat="60.3291" lon="7.64897">
        <ele>1344.06</ele>
        <time>2019-04-05T12:37:25Z</time>
      </trkpt>
      <trkpt lat="60.3292" lon="7.64884">
        <ele>1343.58</ele>
        <time>2019-04-05T12:37:27Z</time>
      </trkpt>
      <trkpt lat="60.32926" lon="7.64878">
        <ele>1343.58</ele>
        <time>2019-04-05T12:37:28Z</time>
      </trkpt>
      <trkpt lat="60.32939" lon="7.64868">
        <ele>1343.1</ele>
        <time>2019-04-05T12:37:30Z</time>
      </trkpt>
      <trkpt lat="60.32945" lon="7.64866">
        <ele>1343.1</ele>
        <time>2019-04-05T12:37:31Z</time>
      </trkpt>
      <trkpt lat="60.32949" lon="7.64861">
        <ele>1342.14</ele>
        <time>2019-04-05T12:37:32Z</time>
      </trkpt>
      <trkpt lat="60.32954" lon="7.64855">
        <ele>1341.66</ele>
        <time>2019-04-05T12:37:33Z</time>
      </trkpt>
      <trkpt lat="60.32958" lon="7.64848">
        <ele>1341.18</ele>
        <time>2019-04-05T12:37:34Z</time>
      </trkpt>
      <trkpt lat="60.32962" lon="7.64841">
        <ele>1341.18</ele>
        <time>2019-04-05T12:37:35Z</time>
      </trkpt>
      <trkpt lat="60.32967" lon="7.64836">
        <ele>1341.18</ele>
        <time>2019-04-05T12:37:36Z</time>
      </trkpt>
      <trkpt lat="60.32973" lon="7.64831">
        <ele>1341.18</ele>
        <time>2019-04-05T12:37:37Z</time>
      </trkpt>
      <trkpt lat="60.32978" lon="7.64826">
        <ele>1341.18</ele>
        <time>2019-04-05T12:37:38Z</time>
      </trkpt>
      <trkpt lat="60.32984" lon="7.64821">
        <ele>1341.18</ele>
        <time>2019-04-05T12:37:39Z</time>
      </trkpt>
      <trkpt lat="60.3299" lon="7.64817">
        <ele>1340.7</ele>
        <time>2019-04-05T12:37:40Z</time>
      </trkpt>
      <trkpt lat="60.32996" lon="7.64813">
        <ele>1341.18</ele>
        <time>2019-04-05T12:37:41Z</time>
      </trkpt>
      <trkpt lat="60.33002" lon="7.64809">
        <ele>1340.7</ele>
        <time>2019-04-05T12:37:42Z</time>
      </trkpt>
      <trkpt lat="60.33015" lon="7.648">
        <ele>1340.22</ele>
        <time>2019-04-05T12:37:44Z</time>
      </trkpt>
      <trkpt lat="60.33046" lon="7.64786">
        <ele>1339.73</ele>
        <time>2019-04-05T12:37:49Z</time>
      </trkpt>
      <trkpt lat="60.33052" lon="7.64785">
        <ele>1339.73</ele>
        <time>2019-04-05T12:37:50Z</time>
      </trkpt>
      <trkpt lat="60.33058" lon="7.64786">
        <ele>1339.73</ele>
        <time>2019-04-05T12:37:51Z</time>
      </trkpt>
      <trkpt lat="60.33063" lon="7.64787">
        <ele>1339.73</ele>
        <time>2019-04-05T12:37:52Z</time>
      </trkpt>
      <trkpt lat="60.33068" lon="7.64787">
        <ele>1339.25</ele>
        <time>2019-04-05T12:37:53Z</time>
      </trkpt>
      <trkpt lat="60.33073" lon="7.64788">
        <ele>1339.25</ele>
        <time>2019-04-05T12:37:54Z</time>
      </trkpt>
      <trkpt lat="60.33077" lon="7.64789">
        <ele>1339.25</ele>
        <time>2019-04-05T12:37:55Z</time>
      </trkpt>
      <trkpt lat="60.33081" lon="7.6479">
        <ele>1339.25</ele>
        <time>2019-04-05T12:37:56Z</time>
      </trkpt>
      <trkpt lat="60.33118" lon="7.64797">
        <ele>1339.25</ele>
        <time>2019-04-05T12:38:06Z</time>
      </trkpt>
      <trkpt lat="60.33153" lon="7.64805">
        <ele>1340.7</ele>
        <time>2019-04-05T12:38:16Z</time>
      </trkpt>
      <trkpt lat="60.33158" lon="7.64807">
        <ele>1340.7</ele>
        <time>2019-04-05T12:38:18Z</time>
      </trkpt>
      <trkpt lat="60.33192" lon="7.64809">
        <ele>1341.18</ele>
        <time>2019-04-05T12:38:29Z</time>
      </trkpt>
      <trkpt lat="60.332" lon="7.6481">
        <ele>1342.14</ele>
        <time>2019-04-05T12:38:32Z</time>
      </trkpt>
      <trkpt lat="60.33202" lon="7.64807">
        <ele>1342.14</ele>
        <time>2019-04-05T12:38:33Z</time>
      </trkpt>
      <trkpt lat="60.33205" lon="7.64805">
        <ele>1342.14</ele>
        <time>2019-04-05T12:38:34Z</time>
      </trkpt>
      <trkpt lat="60.33209" lon="7.64805">
        <ele>1342.14</ele>
        <time>2019-04-05T12:38:35Z</time>
      </trkpt>
      <trkpt lat="60.33212" lon="7.64806">
        <ele>1342.14</ele>
        <time>2019-04-05T12:38:36Z</time>
      </trkpt>
      <trkpt lat="60.33215" lon="7.64807">
        <ele>1342.14</ele>
        <time>2019-04-05T12:38:37Z</time>
      </trkpt>
      <trkpt lat="60.33217" lon="7.64808">
        <ele>1342.14</ele>
        <time>2019-04-05T12:38:38Z</time>
      </trkpt>
      <trkpt lat="60.33244" lon="7.64806">
        <ele>1342.14</ele>
        <time>2019-04-05T12:38:48Z</time>
      </trkpt>
      <trkpt lat="60.33247" lon="7.64804">
        <ele>1342.14</ele>
        <time>2019-04-05T12:38:49Z</time>
      </trkpt>
      <trkpt lat="60.3325" lon="7.64803">
        <ele>1342.14</ele>
        <time>2019-04-05T12:38:50Z</time>
      </trkpt>
      <trkpt lat="60.33252" lon="7.64801">
        <ele>1342.14</ele>
        <time>2019-04-05T12:38:51Z</time>
      </trkpt>
      <trkpt lat="60.33255" lon="7.64799">
        <ele>1342.14</ele>
        <time>2019-04-05T12:38:52Z</time>
      </trkpt>
      <trkpt lat="60.33259" lon="7.64798">
        <ele>1342.62</ele>
        <time>2019-04-05T12:38:53Z</time>
      </trkpt>
      <trkpt lat="60.33263" lon="7.64799">
        <ele>1343.58</ele>
        <time>2019-04-05T12:38:54Z</time>
      </trkpt>
      <trkpt lat="60.33293" lon="7.64793">
        <ele>1344.06</ele>
        <time>2019-04-05T12:39:03Z</time>
      </trkpt>
      <trkpt lat="60.33335" lon="7.64785">
        <ele>1345.5</ele>
        <time>2019-04-05T12:39:15Z</time>
      </trkpt>
      <trkpt lat="60.33343" lon="7.64779">
        <ele>1345.98</ele>
        <time>2019-04-05T12:39:17Z</time>
      </trkpt>
      <trkpt lat="60.33347" lon="7.64776">
        <ele>1345.98</ele>
        <time>2019-04-05T12:39:18Z</time>
      </trkpt>
      <trkpt lat="60.33351" lon="7.64773">
        <ele>1345.98</ele>
        <time>2019-04-05T12:39:19Z</time>
      </trkpt>
      <trkpt lat="60.33359" lon="7.6477">
        <ele>1346.46</ele>
        <time>2019-04-05T12:39:21Z</time>
      </trkpt>
      <trkpt lat="60.33363" lon="7.6477">
        <ele>1346.94</ele>
        <time>2019-04-05T12:39:22Z</time>
      </trkpt>
      <trkpt lat="60.33365" lon="7.64769">
        <ele>1346.94</ele>
        <time>2019-04-05T12:39:23Z</time>
      </trkpt>
      <trkpt lat="60.33374" lon="7.64759">
        <ele>1346.94</ele>
        <time>2019-04-05T12:39:26Z</time>
      </trkpt>
      <trkpt lat="60.33377" lon="7.64758">
        <ele>1347.91</ele>
        <time>2019-04-05T12:39:27Z</time>
      </trkpt>
      <trkpt lat="60.33381" lon="7.64757">
        <ele>1347.91</ele>
        <time>2019-04-05T12:39:28Z</time>
      </trkpt>
      <trkpt lat="60.33384" lon="7.64755">
        <ele>1348.39</ele>
        <time>2019-04-05T12:39:29Z</time>
      </trkpt>
      <trkpt lat="60.33387" lon="7.64754">
        <ele>1348.39</ele>
        <time>2019-04-05T12:39:30Z</time>
      </trkpt>
      <trkpt lat="60.3339" lon="7.64755">
        <ele>1348.87</ele>
        <time>2019-04-05T12:39:31Z</time>
      </trkpt>
      <trkpt lat="60.33397" lon="7.64748">
        <ele>1348.87</ele>
        <time>2019-04-05T12:39:39Z</time>
      </trkpt>
      <trkpt lat="60.33399" lon="7.64746">
        <ele>1348.87</ele>
        <time>2019-04-05T12:39:40Z</time>
      </trkpt>
      <trkpt lat="60.33401" lon="7.64745">
        <ele>1348.87</ele>
        <time>2019-04-05T12:39:41Z</time>
      </trkpt>
      <trkpt lat="60.33403" lon="7.64744">
        <ele>1348.87</ele>
        <time>2019-04-05T12:39:42Z</time>
      </trkpt>
      <trkpt lat="60.33405" lon="7.64742">
        <ele>1348.87</ele>
        <time>2019-04-05T12:39:43Z</time>
      </trkpt>
      <trkpt lat="60.33407" lon="7.64741">
        <ele>1349.35</ele>
        <time>2019-04-05T12:39:44Z</time>
      </trkpt>
      <trkpt lat="60.3341" lon="7.6474">
        <ele>1349.35</ele>
        <time>2019-04-05T12:39:45Z</time>
      </trkpt>
      <trkpt lat="60.33412" lon="7.64739">
        <ele>1349.35</ele>
        <time>2019-04-05T12:39:46Z</time>
      </trkpt>
      <trkpt lat="60.33415" lon="7.64738">
        <ele>1349.35</ele>
        <time>2019-04-05T12:39:47Z</time>
      </trkpt>
      <trkpt lat="60.33417" lon="7.64737">
        <ele>1349.35</ele>
        <time>2019-04-05T12:39:48Z</time>
      </trkpt>
      <trkpt lat="60.3342" lon="7.64736">
        <ele>1349.35</ele>
        <time>2019-04-05T12:39:49Z</time>
      </trkpt>
      <trkpt lat="60.33423" lon="7.64734">
        <ele>1349.83</ele>
        <time>2019-04-05T12:39:50Z</time>
      </trkpt>
      <trkpt lat="60.33425" lon="7.64733">
        <ele>1349.83</ele>
        <time>2019-04-05T12:39:51Z</time>
      </trkpt>
      <trkpt lat="60.33428" lon="7.64732">
        <ele>1349.83</ele>
        <time>2019-04-05T12:39:52Z</time>
      </trkpt>
      <trkpt lat="60.33439" lon="7.6473">
        <ele>1351.27</ele>
        <time>2019-04-05T12:39:56Z</time>
      </trkpt>
      <trkpt lat="60.33442" lon="7.64728">
        <ele>1351.27</ele>
        <time>2019-04-05T12:39:57Z</time>
      </trkpt>
      <trkpt lat="60.33445" lon="7.64726">
        <ele>1351.27</ele>
        <time>2019-04-05T12:39:58Z</time>
      </trkpt>
      <trkpt lat="60.33448" lon="7.64724">
        <ele>1351.27</ele>
        <time>2019-04-05T12:39:59Z</time>
      </trkpt>
      <trkpt lat="60.33452" lon="7.64721">
        <ele>1351.27</ele>
        <time>2019-04-05T12:40:00Z</time>
      </trkpt>
      <trkpt lat="60.33455" lon="7.64717">
        <ele>1351.75</ele>
        <time>2019-04-05T12:40:01Z</time>
      </trkpt>
      <trkpt lat="60.33459" lon="7.64713">
        <ele>1351.75</ele>
        <time>2019-04-05T12:40:02Z</time>
      </trkpt>
      <trkpt lat="60.33472" lon="7.64704">
        <ele>1352.71</ele>
        <time>2019-04-05T12:40:05Z</time>
      </trkpt>
      <trkpt lat="60.33494" lon="7.64696">
        <ele>1353.19</ele>
        <time>2019-04-05T12:40:09Z</time>
      </trkpt>
      <trkpt lat="60.33511" lon="7.64684">
        <ele>1353.19</ele>
        <time>2019-04-05T12:40:12Z</time>
      </trkpt>
      <trkpt lat="60.33529" lon="7.64677">
        <ele>1352.23</ele>
        <time>2019-04-05T12:40:15Z</time>
      </trkpt>
      <trkpt lat="60.33552" lon="7.64665">
        <ele>1352.23</ele>
        <time>2019-04-05T12:40:20Z</time>
      </trkpt>
      <trkpt lat="60.33555" lon="7.6466">
        <ele>1352.23</ele>
        <time>2019-04-05T12:40:21Z</time>
      </trkpt>
      <trkpt lat="60.33559" lon="7.64656">
        <ele>1352.23</ele>
        <time>2019-04-05T12:40:22Z</time>
      </trkpt>
      <trkpt lat="60.33563" lon="7.64653">
        <ele>1352.23</ele>
        <time>2019-04-05T12:40:23Z</time>
      </trkpt>
      <trkpt lat="60.33567" lon="7.6465">
        <ele>1352.23</ele>
        <time>2019-04-05T12:40:24Z</time>
      </trkpt>
      <trkpt lat="60.33571" lon="7.64647">
        <ele>1352.23</ele>
        <time>2019-04-05T12:40:25Z</time>
      </trkpt>
      <trkpt lat="60.3358" lon="7.64641">
        <ele>1352.23</ele>
        <time>2019-04-05T12:40:27Z</time>
      </trkpt>
      <trkpt lat="60.3359" lon="7.64634">
        <ele>1353.19</ele>
        <time>2019-04-05T12:40:29Z</time>
      </trkpt>
      <trkpt lat="60.33628" lon="7.64605">
        <ele>1354.15</ele>
        <time>2019-04-05T12:40:38Z</time>
      </trkpt>
      <trkpt lat="60.33633" lon="7.64601">
        <ele>1355.12</ele>
        <time>2019-04-05T12:40:39Z</time>
      </trkpt>
      <trkpt lat="60.33637" lon="7.64597">
        <ele>1355.12</ele>
        <time>2019-04-05T12:40:40Z</time>
      </trkpt>
      <trkpt lat="60.33645" lon="7.64589">
        <ele>1355.6</ele>
        <time>2019-04-05T12:40:42Z</time>
      </trkpt>
      <trkpt lat="60.33649" lon="7.64584">
        <ele>1355.6</ele>
        <time>2019-04-05T12:40:43Z</time>
      </trkpt>
      <trkpt lat="60.33653" lon="7.64579">
        <ele>1355.6</ele>
        <time>2019-04-05T12:40:44Z</time>
      </trkpt>
      <trkpt lat="60.33657" lon="7.64575">
        <ele>1356.08</ele>
        <time>2019-04-05T12:40:45Z</time>
      </trkpt>
      <trkpt lat="60.33662" lon="7.6457">
        <ele>1356.08</ele>
        <time>2019-04-05T12:40:46Z</time>
      </trkpt>
      <trkpt lat="60.33671" lon="7.64559">
        <ele>1357.04</ele>
        <time>2019-04-05T12:40:48Z</time>
      </trkpt>
      <trkpt lat="60.33676" lon="7.64555">
        <ele>1357.04</ele>
        <time>2019-04-05T12:40:49Z</time>
      </trkpt>
      <trkpt lat="60.33681" lon="7.6455">
        <ele>1358</ele>
        <time>2019-04-05T12:40:50Z</time>
      </trkpt>
      <trkpt lat="60.33686" lon="7.64546">
        <ele>1358</ele>
        <time>2019-04-05T12:40:51Z</time>
      </trkpt>
      <trkpt lat="60.33691" lon="7.64542">
        <ele>1358.48</ele>
        <time>2019-04-05T12:40:52Z</time>
      </trkpt>
      <trkpt lat="60.33704" lon="7.6453">
        <ele>1358.48</ele>
        <time>2019-04-05T12:40:55Z</time>
      </trkpt>
      <trkpt lat="60.33709" lon="7.64525">
        <ele>1358.96</ele>
        <time>2019-04-05T12:40:56Z</time>
      </trkpt>
      <trkpt lat="60.33718" lon="7.64515">
        <ele>1359.44</ele>
        <time>2019-04-05T12:40:58Z</time>
      </trkpt>
      <trkpt lat="60.33723" lon="7.64513">
        <ele>1359.44</ele>
        <time>2019-04-05T12:40:59Z</time>
      </trkpt>
      <trkpt lat="60.33728" lon="7.64512">
        <ele>1359.92</ele>
        <time>2019-04-05T12:41:00Z</time>
      </trkpt>
      <trkpt lat="60.33733" lon="7.64511">
        <ele>1360.4</ele>
        <time>2019-04-05T12:41:01Z</time>
      </trkpt>
      <trkpt lat="60.33737" lon="7.64509">
        <ele>1360.4</ele>
        <time>2019-04-05T12:41:02Z</time>
      </trkpt>
      <trkpt lat="60.33742" lon="7.64506">
        <ele>1360.4</ele>
        <time>2019-04-05T12:41:03Z</time>
      </trkpt>
      <trkpt lat="60.33746" lon="7.64503">
        <ele>1360.4</ele>
        <time>2019-04-05T12:41:04Z</time>
      </trkpt>
      <trkpt lat="60.33751" lon="7.645">
        <ele>1360.4</ele>
        <time>2019-04-05T12:41:05Z</time>
      </trkpt>
      <trkpt lat="60.33756" lon="7.64496">
        <ele>1360.4</ele>
        <time>2019-04-05T12:41:06Z</time>
      </trkpt>
      <trkpt lat="60.33767" lon="7.64487">
        <ele>1358.96</ele>
        <time>2019-04-05T12:41:08Z</time>
      </trkpt>
      <trkpt lat="60.33773" lon="7.64484">
        <ele>1358</ele>
        <time>2019-04-05T12:41:09Z</time>
      </trkpt>
      <trkpt lat="60.33777" lon="7.64481">
        <ele>1357.04</ele>
        <time>2019-04-05T12:41:10Z</time>
      </trkpt>
      <trkpt lat="60.3378" lon="7.64476">
        <ele>1355.12</ele>
        <time>2019-04-05T12:41:11Z</time>
      </trkpt>
      <trkpt lat="60.33783" lon="7.6447">
        <ele>1354.15</ele>
        <time>2019-04-05T12:41:12Z</time>
      </trkpt>
      <trkpt lat="60.33788" lon="7.64466">
        <ele>1354.15</ele>
        <time>2019-04-05T12:41:13Z</time>
      </trkpt>
      <trkpt lat="60.33792" lon="7.64462">
        <ele>1353.67</ele>
        <time>2019-04-05T12:41:14Z</time>
      </trkpt>
      <trkpt lat="60.33804" lon="7.64456">
        <ele>1352.71</ele>
        <time>2019-04-05T12:41:16Z</time>
      </trkpt>
      <trkpt lat="60.3382" lon="7.64446">
        <ele>1349.35</ele>
        <time>2019-04-05T12:41:19Z</time>
      </trkpt>
      <trkpt lat="60.33829" lon="7.64437">
        <ele>1348.39</ele>
        <time>2019-04-05T12:41:21Z</time>
      </trkpt>
      <trkpt lat="60.3384" lon="7.64424">
        <ele>1346.94</ele>
        <time>2019-04-05T12:41:23Z</time>
      </trkpt>
      <trkpt lat="60.33853" lon="7.64414">
        <ele>1345.98</ele>
        <time>2019-04-05T12:41:25Z</time>
      </trkpt>
      <trkpt lat="60.33859" lon="7.64411">
        <ele>1345.98</ele>
        <time>2019-04-05T12:41:26Z</time>
      </trkpt>
      <trkpt lat="60.33866" lon="7.64408">
        <ele>1345.98</ele>
        <time>2019-04-05T12:41:27Z</time>
      </trkpt>
      <trkpt lat="60.33879" lon="7.64403">
        <ele>1345.5</ele>
        <time>2019-04-05T12:41:29Z</time>
      </trkpt>
      <trkpt lat="60.33886" lon="7.64402">
        <ele>1344.54</ele>
        <time>2019-04-05T12:41:30Z</time>
      </trkpt>
      <trkpt lat="60.33892" lon="7.64401">
        <ele>1344.54</ele>
        <time>2019-04-05T12:41:31Z</time>
      </trkpt>
      <trkpt lat="60.33916" lon="7.64395">
        <ele>1344.54</ele>
        <time>2019-04-05T12:41:35Z</time>
      </trkpt>
      <trkpt lat="60.33947" lon="7.64387">
        <ele>1343.58</ele>
        <time>2019-04-05T12:41:40Z</time>
      </trkpt>
      <trkpt lat="60.33953" lon="7.64384">
        <ele>1343.58</ele>
        <time>2019-04-05T12:41:41Z</time>
      </trkpt>
      <trkpt lat="60.33979" lon="7.64369">
        <ele>1342.62</ele>
        <time>2019-04-05T12:41:45Z</time>
      </trkpt>
      <trkpt lat="60.33997" lon="7.64353">
        <ele>1342.14</ele>
        <time>2019-04-05T12:41:48Z</time>
      </trkpt>
      <trkpt lat="60.34004" lon="7.6435">
        <ele>1342.14</ele>
        <time>2019-04-05T12:41:49Z</time>
      </trkpt>
      <trkpt lat="60.3401" lon="7.64349">
        <ele>1342.14</ele>
        <time>2019-04-05T12:41:50Z</time>
      </trkpt>
      <trkpt lat="60.34028" lon="7.64347">
        <ele>1341.66</ele>
        <time>2019-04-05T12:41:53Z</time>
      </trkpt>
      <trkpt lat="60.34044" lon="7.64343">
        <ele>1341.66</ele>
        <time>2019-04-05T12:41:56Z</time>
      </trkpt>
      <trkpt lat="60.34058" lon="7.64341">
        <ele>1341.66</ele>
        <time>2019-04-05T12:41:59Z</time>
      </trkpt>
      <trkpt lat="60.34062" lon="7.64341">
        <ele>1341.66</ele>
        <time>2019-04-05T12:42:00Z</time>
      </trkpt>
      <trkpt lat="60.34067" lon="7.6434">
        <ele>1341.66</ele>
        <time>2019-04-05T12:42:01Z</time>
      </trkpt>
      <trkpt lat="60.3407" lon="7.6434">
        <ele>1341.66</ele>
        <time>2019-04-05T12:42:02Z</time>
      </trkpt>
      <trkpt lat="60.34074" lon="7.64342">
        <ele>1341.66</ele>
        <time>2019-04-05T12:42:03Z</time>
      </trkpt>
      <trkpt lat="60.34077" lon="7.64343">
        <ele>1343.1</ele>
        <time>2019-04-05T12:42:04Z</time>
      </trkpt>
      <trkpt lat="60.3408" lon="7.64344">
        <ele>1343.1</ele>
        <time>2019-04-05T12:42:05Z</time>
      </trkpt>
      <trkpt lat="60.34109" lon="7.64337">
        <ele>1344.54</ele>
        <time>2019-04-05T12:42:14Z</time>
      </trkpt>
      <trkpt lat="60.34126" lon="7.64337">
        <ele>1345.5</ele>
        <time>2019-04-05T12:42:18Z</time>
      </trkpt>
      <trkpt lat="60.3413" lon="7.64338">
        <ele>1345.5</ele>
        <time>2019-04-05T12:42:19Z</time>
      </trkpt>
      <trkpt lat="60.34148" lon="7.64345">
        <ele>1345.5</ele>
        <time>2019-04-05T12:42:23Z</time>
      </trkpt>
      <trkpt lat="60.34157" lon="7.64349">
        <ele>1345.5</ele>
        <time>2019-04-05T12:42:25Z</time>
      </trkpt>
      <trkpt lat="60.34177" lon="7.64349">
        <ele>1345.5</ele>
        <time>2019-04-05T12:42:29Z</time>
      </trkpt>
      <trkpt lat="60.34195" lon="7.64346">
        <ele>1345.5</ele>
        <time>2019-04-05T12:42:32Z</time>
      </trkpt>
      <trkpt lat="60.34201" lon="7.64345">
        <ele>1345.5</ele>
        <time>2019-04-05T12:42:33Z</time>
      </trkpt>
      <trkpt lat="60.34207" lon="7.64343">
        <ele>1344.06</ele>
        <time>2019-04-05T12:42:34Z</time>
      </trkpt>
      <trkpt lat="60.34213" lon="7.64341">
        <ele>1344.06</ele>
        <time>2019-04-05T12:42:35Z</time>
      </trkpt>
      <trkpt lat="60.3422" lon="7.6434">
        <ele>1343.58</ele>
        <time>2019-04-05T12:42:36Z</time>
      </trkpt>
      <trkpt lat="60.34263" lon="7.64332">
        <ele>1340.7</ele>
        <time>2019-04-05T12:42:42Z</time>
      </trkpt>
      <trkpt lat="60.34292" lon="7.64309">
        <ele>1338.29</ele>
        <time>2019-04-05T12:42:46Z</time>
      </trkpt>
      <trkpt lat="60.34299" lon="7.64307">
        <ele>1337.81</ele>
        <time>2019-04-05T12:42:47Z</time>
      </trkpt>
      <trkpt lat="60.34306" lon="7.64308">
        <ele>1337.33</ele>
        <time>2019-04-05T12:42:48Z</time>
      </trkpt>
      <trkpt lat="60.34319" lon="7.6431">
        <ele>1335.89</ele>
        <time>2019-04-05T12:42:50Z</time>
      </trkpt>
      <trkpt lat="60.34323" lon="7.64313">
        <ele>1335.41</ele>
        <time>2019-04-05T12:42:51Z</time>
      </trkpt>
      <trkpt lat="60.3433" lon="7.64314">
        <ele>1333.49</ele>
        <time>2019-04-05T12:42:53Z</time>
      </trkpt>
      <trkpt lat="60.34331" lon="7.64313">
        <ele>1333.01</ele>
        <time>2019-04-05T12:42:54Z</time>
      </trkpt>
      <trkpt lat="60.34332" lon="7.6431">
        <ele>1333.01</ele>
        <time>2019-04-05T12:42:55Z</time>
      </trkpt>
      <trkpt lat="60.34345" lon="7.64283">
        <ele>1333.49</ele>
        <time>2019-04-05T12:43:01Z</time>
      </trkpt>
      <trkpt lat="60.34349" lon="7.64278">
        <ele>1333.49</ele>
        <time>2019-04-05T12:43:02Z</time>
      </trkpt>
      <trkpt lat="60.34353" lon="7.64275">
        <ele>1333.49</ele>
        <time>2019-04-05T12:43:03Z</time>
      </trkpt>
      <trkpt lat="60.34357" lon="7.64272">
        <ele>1333.49</ele>
        <time>2019-04-05T12:43:04Z</time>
      </trkpt>
      <trkpt lat="60.34361" lon="7.64267">
        <ele>1334.93</ele>
        <time>2019-04-05T12:43:05Z</time>
      </trkpt>
      <trkpt lat="60.34365" lon="7.64263">
        <ele>1334.93</ele>
        <time>2019-04-05T12:43:06Z</time>
      </trkpt>
      <trkpt lat="60.34369" lon="7.6426">
        <ele>1334.93</ele>
        <time>2019-04-05T12:43:07Z</time>
      </trkpt>
      <trkpt lat="60.34377" lon="7.64256">
        <ele>1335.89</ele>
        <time>2019-04-05T12:43:09Z</time>
      </trkpt>
      <trkpt lat="60.34387" lon="7.6425">
        <ele>1336.37</ele>
        <time>2019-04-05T12:43:11Z</time>
      </trkpt>
      <trkpt lat="60.34392" lon="7.64247">
        <ele>1336.37</ele>
        <time>2019-04-05T12:43:12Z</time>
      </trkpt>
      <trkpt lat="60.34397" lon="7.64243">
        <ele>1336.85</ele>
        <time>2019-04-05T12:43:13Z</time>
      </trkpt>
      <trkpt lat="60.34402" lon="7.64238">
        <ele>1336.85</ele>
        <time>2019-04-05T12:43:14Z</time>
      </trkpt>
      <trkpt lat="60.34407" lon="7.64234">
        <ele>1336.85</ele>
        <time>2019-04-05T12:43:15Z</time>
      </trkpt>
      <trkpt lat="60.34411" lon="7.64231">
        <ele>1337.33</ele>
        <time>2019-04-05T12:43:16Z</time>
      </trkpt>
      <trkpt lat="60.34414" lon="7.64228">
        <ele>1337.33</ele>
        <time>2019-04-05T12:43:17Z</time>
      </trkpt>
      <trkpt lat="60.34422" lon="7.64219">
        <ele>1337.33</ele>
        <time>2019-04-05T12:43:19Z</time>
      </trkpt>
      <trkpt lat="60.34427" lon="7.64216">
        <ele>1337.33</ele>
        <time>2019-04-05T12:43:20Z</time>
      </trkpt>
      <trkpt lat="60.34439" lon="7.6421">
        <ele>1337.33</ele>
        <time>2019-04-05T12:43:22Z</time>
      </trkpt>
      <trkpt lat="60.3447" lon="7.64187">
        <ele>1335.89</ele>
        <time>2019-04-05T12:43:27Z</time>
      </trkpt>
      <trkpt lat="60.34476" lon="7.64181">
        <ele>1335.89</ele>
        <time>2019-04-05T12:43:28Z</time>
      </trkpt>
      <trkpt lat="60.34488" lon="7.6417">
        <ele>1335.89</ele>
        <time>2019-04-05T12:43:30Z</time>
      </trkpt>
      <trkpt lat="60.34498" lon="7.64161">
        <ele>1335.89</ele>
        <time>2019-04-05T12:43:32Z</time>
      </trkpt>
      <trkpt lat="60.34508" lon="7.64148">
        <ele>1337.33</ele>
        <time>2019-04-05T12:43:35Z</time>
      </trkpt>
      <trkpt lat="60.34516" lon="7.64143">
        <ele>1337.33</ele>
        <time>2019-04-05T12:43:37Z</time>
      </trkpt>
      <trkpt lat="60.3452" lon="7.64142">
        <ele>1337.33</ele>
        <time>2019-04-05T12:43:38Z</time>
      </trkpt>
      <trkpt lat="60.34528" lon="7.6414">
        <ele>1337.33</ele>
        <time>2019-04-05T12:43:40Z</time>
      </trkpt>
      <trkpt lat="60.34531" lon="7.64137">
        <ele>1337.33</ele>
        <time>2019-04-05T12:43:41Z</time>
      </trkpt>
      <trkpt lat="60.34537" lon="7.64131">
        <ele>1336.37</ele>
        <time>2019-04-05T12:43:43Z</time>
      </trkpt>
      <trkpt lat="60.34551" lon="7.64116">
        <ele>1335.89</ele>
        <time>2019-04-05T12:43:55Z</time>
      </trkpt>
      <trkpt lat="60.34558" lon="7.64104">
        <ele>1335.89</ele>
        <time>2019-04-05T12:44:06Z</time>
      </trkpt>
      <trkpt lat="60.34586" lon="7.64088">
        <ele>1335.89</ele>
        <time>2019-04-05T12:44:12Z</time>
      </trkpt>
      <trkpt lat="60.34591" lon="7.64084">
        <ele>1335.89</ele>
        <time>2019-04-05T12:44:13Z</time>
      </trkpt>
      <trkpt lat="60.34597" lon="7.64082">
        <ele>1335.89</ele>
        <time>2019-04-05T12:44:14Z</time>
      </trkpt>
      <trkpt lat="60.34603" lon="7.64081">
        <ele>1335.89</ele>
        <time>2019-04-05T12:44:15Z</time>
      </trkpt>
      <trkpt lat="60.34609" lon="7.64081">
        <ele>1335.89</ele>
        <time>2019-04-05T12:44:16Z</time>
      </trkpt>
      <trkpt lat="60.34615" lon="7.64082">
        <ele>1335.89</ele>
        <time>2019-04-05T12:44:17Z</time>
      </trkpt>
      <trkpt lat="60.34621" lon="7.64083">
        <ele>1335.89</ele>
        <time>2019-04-05T12:44:18Z</time>
      </trkpt>
      <trkpt lat="60.34626" lon="7.64081">
        <ele>1335.89</ele>
        <time>2019-04-05T12:44:19Z</time>
      </trkpt>
      <trkpt lat="60.34707" lon="7.6407">
        <ele>1333.01</ele>
        <time>2019-04-05T12:44:31Z</time>
      </trkpt>
      <trkpt lat="60.34715" lon="7.64067">
        <ele>1332.04</ele>
        <time>2019-04-05T12:44:32Z</time>
      </trkpt>
      <trkpt lat="60.34733" lon="7.64061">
        <ele>1331.56</ele>
        <time>2019-04-05T12:44:34Z</time>
      </trkpt>
      <trkpt lat="60.34751" lon="7.64053">
        <ele>1329.64</ele>
        <time>2019-04-05T12:44:36Z</time>
      </trkpt>
      <trkpt lat="60.34759" lon="7.64048">
        <ele>1328.68</ele>
        <time>2019-04-05T12:44:37Z</time>
      </trkpt>
      <trkpt lat="60.34767" lon="7.64043">
        <ele>1326.76</ele>
        <time>2019-04-05T12:44:38Z</time>
      </trkpt>
      <trkpt lat="60.34776" lon="7.64038">
        <ele>1324.83</ele>
        <time>2019-04-05T12:44:39Z</time>
      </trkpt>
      <trkpt lat="60.34784" lon="7.64035">
        <ele>1323.87</ele>
        <time>2019-04-05T12:44:40Z</time>
      </trkpt>
      <trkpt lat="60.34794" lon="7.64032">
        <ele>1323.87</ele>
        <time>2019-04-05T12:44:41Z</time>
      </trkpt>
      <trkpt lat="60.34803" lon="7.64027">
        <ele>1322.91</ele>
        <time>2019-04-05T12:44:42Z</time>
      </trkpt>
      <trkpt lat="60.34812" lon="7.64023">
        <ele>1321.95</ele>
        <time>2019-04-05T12:44:43Z</time>
      </trkpt>
      <trkpt lat="60.3482" lon="7.64021">
        <ele>1321.47</ele>
        <time>2019-04-05T12:44:44Z</time>
      </trkpt>
      <trkpt lat="60.34828" lon="7.6402">
        <ele>1321.47</ele>
        <time>2019-04-05T12:44:45Z</time>
      </trkpt>
      <trkpt lat="60.3487" lon="7.64011">
        <ele>1318.1</ele>
        <time>2019-04-05T12:44:51Z</time>
      </trkpt>
      <trkpt lat="60.34876" lon="7.64008">
        <ele>1318.1</ele>
        <time>2019-04-05T12:44:52Z</time>
      </trkpt>
      <trkpt lat="60.34882" lon="7.64007">
        <ele>1318.1</ele>
        <time>2019-04-05T12:44:53Z</time>
      </trkpt>
      <trkpt lat="60.34887" lon="7.64006">
        <ele>1318.1</ele>
        <time>2019-04-05T12:44:54Z</time>
      </trkpt>
      <trkpt lat="60.34892" lon="7.64004">
        <ele>1317.62</ele>
        <time>2019-04-05T12:44:55Z</time>
      </trkpt>
      <trkpt lat="60.34897" lon="7.64002">
        <ele>1317.62</ele>
        <time>2019-04-05T12:44:56Z</time>
      </trkpt>
      <trkpt lat="60.34902" lon="7.64001">
        <ele>1317.62</ele>
        <time>2019-04-05T12:44:57Z</time>
      </trkpt>
      <trkpt lat="60.34908" lon="7.64001">
        <ele>1317.62</ele>
        <time>2019-04-05T12:44:58Z</time>
      </trkpt>
      <trkpt lat="60.34913" lon="7.64">
        <ele>1317.62</ele>
        <time>2019-04-05T12:44:59Z</time>
      </trkpt>
      <trkpt lat="60.34917" lon="7.63997">
        <ele>1317.62</ele>
        <time>2019-04-05T12:45:00Z</time>
      </trkpt>
      <trkpt lat="60.34922" lon="7.63994">
        <ele>1317.62</ele>
        <time>2019-04-05T12:45:01Z</time>
      </trkpt>
      <trkpt lat="60.34934" lon="7.63988">
        <ele>1317.14</ele>
        <time>2019-04-05T12:45:03Z</time>
      </trkpt>
      <trkpt lat="60.34974" lon="7.63964">
        <ele>1315.7</ele>
        <time>2019-04-05T12:45:10Z</time>
      </trkpt>
      <trkpt lat="60.34987" lon="7.63952">
        <ele>1315.22</ele>
        <time>2019-04-05T12:45:12Z</time>
      </trkpt>
      <trkpt lat="60.34993" lon="7.63948">
        <ele>1314.26</ele>
        <time>2019-04-05T12:45:13Z</time>
      </trkpt>
      <trkpt lat="60.34999" lon="7.63944">
        <ele>1314.26</ele>
        <time>2019-04-05T12:45:14Z</time>
      </trkpt>
      <trkpt lat="60.35005" lon="7.63939">
        <ele>1313.78</ele>
        <time>2019-04-05T12:45:15Z</time>
      </trkpt>
      <trkpt lat="60.35011" lon="7.63935">
        <ele>1312.82</ele>
        <time>2019-04-05T12:45:16Z</time>
      </trkpt>
      <trkpt lat="60.35016" lon="7.63931">
        <ele>1312.34</ele>
        <time>2019-04-05T12:45:17Z</time>
      </trkpt>
      <trkpt lat="60.35052" lon="7.63912">
        <ele>1309.45</ele>
        <time>2019-04-05T12:45:23Z</time>
      </trkpt>
      <trkpt lat="60.35069" lon="7.63902">
        <ele>1307.53</ele>
        <time>2019-04-05T12:45:26Z</time>
      </trkpt>
      <trkpt lat="60.35087" lon="7.63887">
        <ele>1306.57</ele>
        <time>2019-04-05T12:45:29Z</time>
      </trkpt>
      <trkpt lat="60.35106" lon="7.63879">
        <ele>1306.09</ele>
        <time>2019-04-05T12:45:32Z</time>
      </trkpt>
      <trkpt lat="60.35112" lon="7.63875">
        <ele>1305.61</ele>
        <time>2019-04-05T12:45:33Z</time>
      </trkpt>
      <trkpt lat="60.35123" lon="7.63867">
        <ele>1305.61</ele>
        <time>2019-04-05T12:45:35Z</time>
      </trkpt>
      <trkpt lat="60.35145" lon="7.63851">
        <ele>1307.05</ele>
        <time>2019-04-05T12:45:39Z</time>
      </trkpt>
      <trkpt lat="60.35165" lon="7.6383">
        <ele>1308.49</ele>
        <time>2019-04-05T12:45:43Z</time>
      </trkpt>
      <trkpt lat="60.35171" lon="7.63824">
        <ele>1308.49</ele>
        <time>2019-04-05T12:45:44Z</time>
      </trkpt>
      <trkpt lat="60.35176" lon="7.63818">
        <ele>1308.97</ele>
        <time>2019-04-05T12:45:45Z</time>
      </trkpt>
      <trkpt lat="60.35183" lon="7.6381">
        <ele>1308.97</ele>
        <time>2019-04-05T12:45:46Z</time>
      </trkpt>
      <trkpt lat="60.3519" lon="7.63804">
        <ele>1308.97</ele>
        <time>2019-04-05T12:45:47Z</time>
      </trkpt>
      <trkpt lat="60.35197" lon="7.63797">
        <ele>1308.97</ele>
        <time>2019-04-05T12:45:48Z</time>
      </trkpt>
      <trkpt lat="60.35203" lon="7.63789">
        <ele>1308.97</ele>
        <time>2019-04-05T12:45:49Z</time>
      </trkpt>
      <trkpt lat="60.35209" lon="7.6378">
        <ele>1308.97</ele>
        <time>2019-04-05T12:45:50Z</time>
      </trkpt>
      <trkpt lat="60.35214" lon="7.63771">
        <ele>1308.97</ele>
        <time>2019-04-05T12:45:51Z</time>
      </trkpt>
      <trkpt lat="60.35219" lon="7.63764">
        <ele>1307.53</ele>
        <time>2019-04-05T12:45:52Z</time>
      </trkpt>
      <trkpt lat="60.35223" lon="7.63756">
        <ele>1307.53</ele>
        <time>2019-04-05T12:45:53Z</time>
      </trkpt>
      <trkpt lat="60.35227" lon="7.63747">
        <ele>1307.05</ele>
        <time>2019-04-05T12:45:54Z</time>
      </trkpt>
      <trkpt lat="60.35232" lon="7.63739">
        <ele>1307.05</ele>
        <time>2019-04-05T12:45:55Z</time>
      </trkpt>
      <trkpt lat="60.35238" lon="7.63732">
        <ele>1307.05</ele>
        <time>2019-04-05T12:45:56Z</time>
      </trkpt>
      <trkpt lat="60.35269" lon="7.63695">
        <ele>1305.13</ele>
        <time>2019-04-05T12:46:02Z</time>
      </trkpt>
      <trkpt lat="60.35275" lon="7.63693">
        <ele>1305.13</ele>
        <time>2019-04-05T12:46:03Z</time>
      </trkpt>
      <trkpt lat="60.35291" lon="7.63693">
        <ele>1304.17</ele>
        <time>2019-04-05T12:46:06Z</time>
      </trkpt>
      <trkpt lat="60.35315" lon="7.63692">
        <ele>1301.76</ele>
        <time>2019-04-05T12:46:10Z</time>
      </trkpt>
      <trkpt lat="60.35331" lon="7.63693">
        <ele>1298.88</ele>
        <time>2019-04-05T12:46:13Z</time>
      </trkpt>
      <trkpt lat="60.35336" lon="7.63695">
        <ele>1298.88</ele>
        <time>2019-04-05T12:46:14Z</time>
      </trkpt>
      <trkpt lat="60.3534" lon="7.63698">
        <ele>1298.4</ele>
        <time>2019-04-05T12:46:15Z</time>
      </trkpt>
      <trkpt lat="60.35353" lon="7.63708">
        <ele>1298.4</ele>
        <time>2019-04-05T12:46:18Z</time>
      </trkpt>
      <trkpt lat="60.35358" lon="7.63709">
        <ele>1297.92</ele>
        <time>2019-04-05T12:46:19Z</time>
      </trkpt>
      <trkpt lat="60.35363" lon="7.6371">
        <ele>1296.96</ele>
        <time>2019-04-05T12:46:20Z</time>
      </trkpt>
      <trkpt lat="60.35369" lon="7.63711">
        <ele>1295.51</ele>
        <time>2019-04-05T12:46:21Z</time>
      </trkpt>
      <trkpt lat="60.35375" lon="7.63712">
        <ele>1294.55</ele>
        <time>2019-04-05T12:46:22Z</time>
      </trkpt>
      <trkpt lat="60.35382" lon="7.63713">
        <ele>1293.59</ele>
        <time>2019-04-05T12:46:23Z</time>
      </trkpt>
      <trkpt lat="60.35394" lon="7.63715">
        <ele>1291.19</ele>
        <time>2019-04-05T12:46:25Z</time>
      </trkpt>
      <trkpt lat="60.35412" lon="7.63727">
        <ele>1286.86</ele>
        <time>2019-04-05T12:46:29Z</time>
      </trkpt>
      <trkpt lat="60.3542" lon="7.63735">
        <ele>1285.42</ele>
        <time>2019-04-05T12:46:31Z</time>
      </trkpt>
      <trkpt lat="60.35425" lon="7.63739">
        <ele>1283.98</ele>
        <time>2019-04-05T12:46:32Z</time>
      </trkpt>
      <trkpt lat="60.35442" lon="7.63748">
        <ele>1280.61</ele>
        <time>2019-04-05T12:46:35Z</time>
      </trkpt>
      <trkpt lat="60.35463" lon="7.63752">
        <ele>1275.81</ele>
        <time>2019-04-05T12:46:38Z</time>
      </trkpt>
      <trkpt lat="60.35469" lon="7.63752">
        <ele>1274.36</ele>
        <time>2019-04-05T12:46:39Z</time>
      </trkpt>
      <trkpt lat="60.35494" lon="7.63755">
        <ele>1269.08</ele>
        <time>2019-04-05T12:46:43Z</time>
      </trkpt>
      <trkpt lat="60.3551" lon="7.63757">
        <ele>1267.16</ele>
        <time>2019-04-05T12:46:46Z</time>
      </trkpt>
      <trkpt lat="60.35534" lon="7.63761">
        <ele>1264.27</ele>
        <time>2019-04-05T12:46:50Z</time>
      </trkpt>
      <trkpt lat="60.35546" lon="7.63761">
        <ele>1262.35</ele>
        <time>2019-04-05T12:46:52Z</time>
      </trkpt>
      <trkpt lat="60.35579" lon="7.63761">
        <ele>1257.54</ele>
        <time>2019-04-05T12:46:58Z</time>
      </trkpt>
      <trkpt lat="60.35591" lon="7.63765">
        <ele>1255.62</ele>
        <time>2019-04-05T12:47:00Z</time>
      </trkpt>
      <trkpt lat="60.35618" lon="7.63772">
        <ele>1251.29</ele>
        <time>2019-04-05T12:47:04Z</time>
      </trkpt>
      <trkpt lat="60.35624" lon="7.63773">
        <ele>1251.29</ele>
        <time>2019-04-05T12:47:05Z</time>
      </trkpt>
      <trkpt lat="60.35649" lon="7.6378">
        <ele>1246.97</ele>
        <time>2019-04-05T12:47:09Z</time>
      </trkpt>
      <trkpt lat="60.35662" lon="7.63778">
        <ele>1245.04</ele>
        <time>2019-04-05T12:47:11Z</time>
      </trkpt>
      <trkpt lat="60.35691" lon="7.63767">
        <ele>1242.16</ele>
        <time>2019-04-05T12:47:15Z</time>
      </trkpt>
      <trkpt lat="60.35706" lon="7.63763">
        <ele>1240.24</ele>
        <time>2019-04-05T12:47:17Z</time>
      </trkpt>
      <trkpt lat="60.35746" lon="7.63765">
        <ele>1235.43</ele>
        <time>2019-04-05T12:47:23Z</time>
      </trkpt>
      <trkpt lat="60.35752" lon="7.63764">
        <ele>1235.43</ele>
        <time>2019-04-05T12:47:24Z</time>
      </trkpt>
      <trkpt lat="60.35759" lon="7.63764">
        <ele>1234.95</ele>
        <time>2019-04-05T12:47:25Z</time>
      </trkpt>
      <trkpt lat="60.35776" lon="7.63768">
        <ele>1233.03</ele>
        <time>2019-04-05T12:47:28Z</time>
      </trkpt>
      <trkpt lat="60.35797" lon="7.6377">
        <ele>1232.55</ele>
        <time>2019-04-05T12:47:32Z</time>
      </trkpt>
      <trkpt lat="60.35829" lon="7.63778">
        <ele>1230.14</ele>
        <time>2019-04-05T12:47:38Z</time>
      </trkpt>
      <trkpt lat="60.3584" lon="7.63781">
        <ele>1229.18</ele>
        <time>2019-04-05T12:47:40Z</time>
      </trkpt>
      <trkpt lat="60.35851" lon="7.63782">
        <ele>1228.22</ele>
        <time>2019-04-05T12:47:42Z</time>
      </trkpt>
      <trkpt lat="60.35856" lon="7.63783">
        <ele>1228.22</ele>
        <time>2019-04-05T12:47:43Z</time>
      </trkpt>
      <trkpt lat="60.35911" lon="7.63788">
        <ele>1224.86</ele>
        <time>2019-04-05T12:47:53Z</time>
      </trkpt>
      <trkpt lat="60.35944" lon="7.63798">
        <ele>1222.93</ele>
        <time>2019-04-05T12:47:59Z</time>
      </trkpt>
      <trkpt lat="60.35959" lon="7.63801">
        <ele>1221.01</ele>
        <time>2019-04-05T12:48:02Z</time>
      </trkpt>
      <trkpt lat="60.35969" lon="7.63804">
        <ele>1221.01</ele>
        <time>2019-04-05T12:48:04Z</time>
      </trkpt>
      <trkpt lat="60.3601" lon="7.63814">
        <ele>1218.13</ele>
        <time>2019-04-05T12:48:12Z</time>
      </trkpt>
      <trkpt lat="60.36031" lon="7.63818">
        <ele>1216.21</ele>
        <time>2019-04-05T12:48:16Z</time>
      </trkpt>
      <trkpt lat="60.3607" lon="7.63824">
        <ele>1213.32</ele>
        <time>2019-04-05T12:48:23Z</time>
      </trkpt>
      <trkpt lat="60.36075" lon="7.63826">
        <ele>1212.84</ele>
        <time>2019-04-05T12:48:24Z</time>
      </trkpt>
      <trkpt lat="60.36085" lon="7.63827">
        <ele>1212.36</ele>
        <time>2019-04-05T12:48:26Z</time>
      </trkpt>
      <trkpt lat="60.36131" lon="7.63836">
        <ele>1209.96</ele>
        <time>2019-04-05T12:48:35Z</time>
      </trkpt>
      <trkpt lat="60.36147" lon="7.63843">
        <ele>1209</ele>
        <time>2019-04-05T12:48:38Z</time>
      </trkpt>
      <trkpt lat="60.3619" lon="7.63843">
        <ele>1205.15</ele>
        <time>2019-04-05T12:48:45Z</time>
      </trkpt>
      <trkpt lat="60.36196" lon="7.63842">
        <ele>1205.15</ele>
        <time>2019-04-05T12:48:46Z</time>
      </trkpt>
      <trkpt lat="60.36221" lon="7.63838">
        <ele>1203.71</ele>
        <time>2019-04-05T12:48:50Z</time>
      </trkpt>
      <trkpt lat="60.36238" lon="7.6384">
        <ele>1202.27</ele>
        <time>2019-04-05T12:48:53Z</time>
      </trkpt>
      <trkpt lat="60.36249" lon="7.63841">
        <ele>1201.3</ele>
        <time>2019-04-05T12:48:55Z</time>
      </trkpt>
      <trkpt lat="60.36276" lon="7.63843">
        <ele>1199.38</ele>
        <time>2019-04-05T12:49:00Z</time>
      </trkpt>
      <trkpt lat="60.36303" lon="7.63839">
        <ele>1198.9</ele>
        <time>2019-04-05T12:49:05Z</time>
      </trkpt>
      <trkpt lat="60.36333" lon="7.63843">
        <ele>1197.46</ele>
        <time>2019-04-05T12:49:10Z</time>
      </trkpt>
      <trkpt lat="60.36356" lon="7.63847">
        <ele>1196.98</ele>
        <time>2019-04-05T12:49:15Z</time>
      </trkpt>
      <trkpt lat="60.3637" lon="7.63845">
        <ele>1196.5</ele>
        <time>2019-04-05T12:49:18Z</time>
      </trkpt>
      <trkpt lat="60.36396" lon="7.63842">
        <ele>1196.02</ele>
        <time>2019-04-05T12:49:23Z</time>
      </trkpt>
      <trkpt lat="60.36416" lon="7.6384">
        <ele>1195.54</ele>
        <time>2019-04-05T12:49:27Z</time>
      </trkpt>
      <trkpt lat="60.3643" lon="7.63842">
        <ele>1195.54</ele>
        <time>2019-04-05T12:49:30Z</time>
      </trkpt>
      <trkpt lat="60.36442" lon="7.63845">
        <ele>1194.09</ele>
        <time>2019-04-05T12:49:36Z</time>
      </trkpt>
      <trkpt lat="60.36449" lon="7.63826">
        <ele>1195.54</ele>
        <time>2019-04-05T12:49:41Z</time>
      </trkpt>
      <trkpt lat="60.3647" lon="7.6382">
        <ele>1196.5</ele>
        <time>2019-04-05T12:49:46Z</time>
      </trkpt>
      <trkpt lat="60.36483" lon="7.6382">
        <ele>1196.5</ele>
        <time>2019-04-05T12:49:49Z</time>
      </trkpt>
      <trkpt lat="60.36502" lon="7.63817">
        <ele>1195.54</ele>
        <time>2019-04-05T12:49:54Z</time>
      </trkpt>
      <trkpt lat="60.36514" lon="7.63811">
        <ele>1195.54</ele>
        <time>2019-04-05T12:49:57Z</time>
      </trkpt>
      <trkpt lat="60.36533" lon="7.63807">
        <ele>1195.06</ele>
        <time>2019-04-05T12:50:01Z</time>
      </trkpt>
      <trkpt lat="60.36555" lon="7.63809">
        <ele>1196.5</ele>
        <time>2019-04-05T12:50:06Z</time>
      </trkpt>
      <trkpt lat="60.36569" lon="7.63811">
        <ele>1195.06</ele>
        <time>2019-04-05T12:50:09Z</time>
      </trkpt>
      <trkpt lat="60.36593" lon="7.63816">
        <ele>1194.09</ele>
        <time>2019-04-05T12:50:13Z</time>
      </trkpt>
      <trkpt lat="60.36625" lon="7.63825">
        <ele>1190.25</ele>
        <time>2019-04-05T12:50:18Z</time>
      </trkpt>
      <trkpt lat="60.36631" lon="7.63827">
        <ele>1190.25</ele>
        <time>2019-04-05T12:50:19Z</time>
      </trkpt>
      <trkpt lat="60.36654" lon="7.63834">
        <ele>1188.81</ele>
        <time>2019-04-05T12:50:23Z</time>
      </trkpt>
      <trkpt lat="60.36664" lon="7.63836">
        <ele>1187.85</ele>
        <time>2019-04-05T12:50:25Z</time>
      </trkpt>
      <trkpt lat="60.36678" lon="7.63834">
        <ele>1187.85</ele>
        <time>2019-04-05T12:50:28Z</time>
      </trkpt>
      <trkpt lat="60.36682" lon="7.63831">
        <ele>1187.85</ele>
        <time>2019-04-05T12:50:29Z</time>
      </trkpt>
      <trkpt lat="60.36686" lon="7.63828">
        <ele>1186.88</ele>
        <time>2019-04-05T12:50:30Z</time>
      </trkpt>
      <trkpt lat="60.3669" lon="7.63824">
        <ele>1186.88</ele>
        <time>2019-04-05T12:50:31Z</time>
      </trkpt>
      <trkpt lat="60.36693" lon="7.63822">
        <ele>1186.88</ele>
        <time>2019-04-05T12:50:32Z</time>
      </trkpt>
      <trkpt lat="60.36702" lon="7.63813">
        <ele>1188.33</ele>
        <time>2019-04-05T12:50:35Z</time>
      </trkpt>
      <trkpt lat="60.36718" lon="7.63797">
        <ele>1189.77</ele>
        <time>2019-04-05T12:50:40Z</time>
      </trkpt>
      <trkpt lat="60.3672" lon="7.63792">
        <ele>1190.25</ele>
        <time>2019-04-05T12:50:41Z</time>
      </trkpt>
      <trkpt lat="60.36723" lon="7.6379">
        <ele>1190.25</ele>
        <time>2019-04-05T12:50:42Z</time>
      </trkpt>
      <trkpt lat="60.36726" lon="7.63788">
        <ele>1190.25</ele>
        <time>2019-04-05T12:50:43Z</time>
      </trkpt>
      <trkpt lat="60.36729" lon="7.63785">
        <ele>1190.73</ele>
        <time>2019-04-05T12:50:44Z</time>
      </trkpt>
      <trkpt lat="60.36732" lon="7.63783">
        <ele>1190.73</ele>
        <time>2019-04-05T12:50:45Z</time>
      </trkpt>
      <trkpt lat="60.36735" lon="7.63781">
        <ele>1191.21</ele>
        <time>2019-04-05T12:50:46Z</time>
      </trkpt>
      <trkpt lat="60.36756" lon="7.63754">
        <ele>1194.09</ele>
        <time>2019-04-05T12:50:55Z</time>
      </trkpt>
      <trkpt lat="60.36773" lon="7.63739">
        <ele>1196.02</ele>
        <time>2019-04-05T12:51:00Z</time>
      </trkpt>
      <trkpt lat="60.36803" lon="7.63721">
        <ele>1198.9</ele>
        <time>2019-04-05T12:51:09Z</time>
      </trkpt>
      <trkpt lat="60.36825" lon="7.63712">
        <ele>1200.34</ele>
        <time>2019-04-05T12:51:15Z</time>
      </trkpt>
      <trkpt lat="60.36828" lon="7.6371">
        <ele>1200.34</ele>
        <time>2019-04-05T12:51:16Z</time>
      </trkpt>
      <trkpt lat="60.36832" lon="7.63709">
        <ele>1199.86</ele>
        <time>2019-04-05T12:51:17Z</time>
      </trkpt>
      <trkpt lat="60.36836" lon="7.63707">
        <ele>1199.86</ele>
        <time>2019-04-05T12:51:18Z</time>
      </trkpt>
      <trkpt lat="60.36839" lon="7.63703">
        <ele>1199.86</ele>
        <time>2019-04-05T12:51:19Z</time>
      </trkpt>
      <trkpt lat="60.36842" lon="7.63699">
        <ele>1199.86</ele>
        <time>2019-04-05T12:51:20Z</time>
      </trkpt>
      <trkpt lat="60.36846" lon="7.63694">
        <ele>1200.34</ele>
        <time>2019-04-05T12:51:21Z</time>
      </trkpt>
      <trkpt lat="60.3685" lon="7.63691">
        <ele>1200.34</ele>
        <time>2019-04-05T12:51:22Z</time>
      </trkpt>
      <trkpt lat="60.36863" lon="7.63682">
        <ele>1200.82</ele>
        <time>2019-04-05T12:51:25Z</time>
      </trkpt>
      <trkpt lat="60.36866" lon="7.63681">
        <ele>1200.82</ele>
        <time>2019-04-05T12:51:26Z</time>
      </trkpt>
      <trkpt lat="60.36878" lon="7.6368">
        <ele>1201.79</ele>
        <time>2019-04-05T12:51:29Z</time>
      </trkpt>
      <trkpt lat="60.36881" lon="7.63678">
        <ele>1201.79</ele>
        <time>2019-04-05T12:51:30Z</time>
      </trkpt>
      <trkpt lat="60.36883" lon="7.63676">
        <ele>1202.75</ele>
        <time>2019-04-05T12:51:31Z</time>
      </trkpt>
      <trkpt lat="60.36886" lon="7.63672">
        <ele>1202.75</ele>
        <time>2019-04-05T12:51:32Z</time>
      </trkpt>
      <trkpt lat="60.36888" lon="7.63669">
        <ele>1203.23</ele>
        <time>2019-04-05T12:51:33Z</time>
      </trkpt>
      <trkpt lat="60.36915" lon="7.63641">
        <ele>1205.63</ele>
        <time>2019-04-05T12:51:43Z</time>
      </trkpt>
      <trkpt lat="60.36942" lon="7.63645">
        <ele>1207.07</ele>
        <time>2019-04-05T12:51:52Z</time>
      </trkpt>
      <trkpt lat="60.36973" lon="7.63655">
        <ele>1207.07</ele>
        <time>2019-04-05T12:52:04Z</time>
      </trkpt>
      <trkpt lat="60.37002" lon="7.63679">
        <ele>1207.07</ele>
        <time>2019-04-05T12:52:15Z</time>
      </trkpt>
      <trkpt lat="60.37008" lon="7.63685">
        <ele>1205.63</ele>
        <time>2019-04-05T12:52:17Z</time>
      </trkpt>
      <trkpt lat="60.37034" lon="7.63699">
        <ele>1203.71</ele>
        <time>2019-04-05T12:52:27Z</time>
      </trkpt>
      <trkpt lat="60.37072" lon="7.6371">
        <ele>1203.23</ele>
        <time>2019-04-05T12:52:39Z</time>
      </trkpt>
      <trkpt lat="60.37093" lon="7.63721">
        <ele>1203.23</ele>
        <time>2019-04-05T12:52:45Z</time>
      </trkpt>
      <trkpt lat="60.37119" lon="7.63733">
        <ele>1202.75</ele>
        <time>2019-04-05T12:52:51Z</time>
      </trkpt>
      <trkpt lat="60.37134" lon="7.63741">
        <ele>1202.27</ele>
        <time>2019-04-05T12:52:54Z</time>
      </trkpt>
      <trkpt lat="60.3715" lon="7.63747">
        <ele>1199.86</ele>
        <time>2019-04-05T12:52:57Z</time>
      </trkpt>
      <trkpt lat="60.37155" lon="7.63749">
        <ele>1199.86</ele>
        <time>2019-04-05T12:52:58Z</time>
      </trkpt>
      <trkpt lat="60.37164" lon="7.63754">
        <ele>1199.38</ele>
        <time>2019-04-05T12:53:00Z</time>
      </trkpt>
      <trkpt lat="60.3718" lon="7.63758">
        <ele>1198.42</ele>
        <time>2019-04-05T12:53:05Z</time>
      </trkpt>
      <trkpt lat="60.37188" lon="7.63757">
        <ele>1198.42</ele>
        <time>2019-04-05T12:53:17Z</time>
      </trkpt>
      <trkpt lat="60.37195" lon="7.63752">
        <ele>1199.86</ele>
        <time>2019-04-05T12:53:22Z</time>
      </trkpt>
      <trkpt lat="60.37207" lon="7.63739">
        <ele>1199.86</ele>
        <time>2019-04-05T12:53:26Z</time>
      </trkpt>
      <trkpt lat="60.37231" lon="7.63736">
        <ele>1200.82</ele>
        <time>2019-04-05T12:53:33Z</time>
      </trkpt>
      <trkpt lat="60.37254" lon="7.63716">
        <ele>1201.3</ele>
        <time>2019-04-05T12:53:41Z</time>
      </trkpt>
      <trkpt lat="60.37262" lon="7.63715">
        <ele>1201.79</ele>
        <time>2019-04-05T12:53:43Z</time>
      </trkpt>
      <trkpt lat="60.37268" lon="7.63708">
        <ele>1200.34</ele>
        <time>2019-04-05T12:53:45Z</time>
      </trkpt>
      <trkpt lat="60.37273" lon="7.63705">
        <ele>1200.82</ele>
        <time>2019-04-05T12:53:46Z</time>
      </trkpt>
      <trkpt lat="60.37281" lon="7.63701">
        <ele>1200.82</ele>
        <time>2019-04-05T12:53:48Z</time>
      </trkpt>
      <trkpt lat="60.37293" lon="7.63684">
        <ele>1202.75</ele>
        <time>2019-04-05T12:53:53Z</time>
      </trkpt>
      <trkpt lat="60.3732" lon="7.63647">
        <ele>1203.23</ele>
        <time>2019-04-05T12:54:04Z</time>
      </trkpt>
      <trkpt lat="60.37331" lon="7.63629">
        <ele>1204.19</ele>
        <time>2019-04-05T12:54:08Z</time>
      </trkpt>
      <trkpt lat="60.37354" lon="7.63597">
        <ele>1206.59</ele>
        <time>2019-04-05T12:54:16Z</time>
      </trkpt>
      <trkpt lat="60.37366" lon="7.63579">
        <ele>1207.55</ele>
        <time>2019-04-05T12:54:21Z</time>
      </trkpt>
      <trkpt lat="60.3737" lon="7.63573">
        <ele>1207.55</ele>
        <time>2019-04-05T12:54:23Z</time>
      </trkpt>
      <trkpt lat="60.3738" lon="7.63555">
        <ele>1209</ele>
        <time>2019-04-05T12:54:29Z</time>
      </trkpt>
      <trkpt lat="60.37399" lon="7.6351">
        <ele>1211.4</ele>
        <time>2019-04-05T12:54:41Z</time>
      </trkpt>
      <trkpt lat="60.37417" lon="7.63485">
        <ele>1214.76</ele>
        <time>2019-04-05T12:54:50Z</time>
      </trkpt>
      <trkpt lat="60.37435" lon="7.63457">
        <ele>1217.17</ele>
        <time>2019-04-05T12:55:01Z</time>
      </trkpt>
      <trkpt lat="60.37444" lon="7.63441">
        <ele>1219.09</ele>
        <time>2019-04-05T12:55:06Z</time>
      </trkpt>
      <trkpt lat="60.37451" lon="7.63427">
        <ele>1220.05</ele>
        <time>2019-04-05T12:55:12Z</time>
      </trkpt>
      <trkpt lat="60.37455" lon="7.63419">
        <ele>1221.01</ele>
        <time>2019-04-05T12:55:16Z</time>
      </trkpt>
      <trkpt lat="60.37464" lon="7.63404">
        <ele>1222.45</ele>
        <time>2019-04-05T12:55:23Z</time>
      </trkpt>
      <trkpt lat="60.37483" lon="7.63377">
        <ele>1225.34</ele>
        <time>2019-04-05T12:55:33Z</time>
      </trkpt>
      <trkpt lat="60.37485" lon="7.63376">
        <ele>1225.34</ele>
        <time>2019-04-05T12:55:34Z</time>
      </trkpt>
      <trkpt lat="60.37494" lon="7.63366">
        <ele>1226.78</ele>
        <time>2019-04-05T12:55:44Z</time>
      </trkpt>
      <trkpt lat="60.37491" lon="7.63365">
        <ele>1227.26</ele>
        <time>2019-04-05T12:55:55Z</time>
      </trkpt>
      <trkpt lat="60.37481" lon="7.63363">
        <ele>1225.82</ele>
        <time>2019-04-05T12:56:01Z</time>
      </trkpt>
      <trkpt lat="60.37478" lon="7.63351">
        <ele>1226.3</ele>
        <time>2019-04-05T12:56:11Z</time>
      </trkpt>
      <trkpt lat="60.3748" lon="7.63352">
        <ele>1226.3</ele>
        <time>2019-04-05T12:56:44Z</time>
      </trkpt>
      <trkpt lat="60.3748" lon="7.63352">
        <ele>1226.3</ele>
        <time>2019-04-05T12:57:11Z</time>
      </trkpt>
      <trkpt lat="60.37479" lon="7.63345">
        <ele>1226.78</ele>
        <time>2019-04-05T12:57:27Z</time>
      </trkpt>
      <trkpt lat="60.37473" lon="7.63351">
        <ele>1226.78</ele>
        <time>2019-04-05T12:57:31Z</time>
      </trkpt>
      <trkpt lat="60.37466" lon="7.63394">
        <ele>1222.93</ele>
        <time>2019-04-05T12:57:38Z</time>
      </trkpt>
      <trkpt lat="60.37465" lon="7.63408">
        <ele>1221.97</ele>
        <time>2019-04-05T12:57:41Z</time>
      </trkpt>
      <trkpt lat="60.37464" lon="7.63396">
        <ele>1222.45</ele>
        <time>2019-04-05T12:57:48Z</time>
      </trkpt>
      <trkpt lat="60.37465" lon="7.63392">
        <ele>1222.45</ele>
        <time>2019-04-05T12:57:49Z</time>
      </trkpt>
      <trkpt lat="60.37473" lon="7.6338">
        <ele>1224.38</ele>
        <time>2019-04-05T12:57:59Z</time>
      </trkpt>
      <trkpt lat="60.37472" lon="7.6338">
        <ele>1224.38</ele>
        <time>2019-04-05T12:58:00Z</time>
      </trkpt>
      <trkpt lat="60.37476" lon="7.63363">
        <ele>1225.34</ele>
        <time>2019-04-05T12:58:06Z</time>
      </trkpt>
      <trkpt lat="60.37488" lon="7.63314">
        <ele>1228.22</ele>
        <time>2019-04-05T12:58:18Z</time>
      </trkpt>
      <trkpt lat="60.37498" lon="7.63253">
        <ele>1230.14</ele>
        <time>2019-04-05T12:58:28Z</time>
      </trkpt>
      <trkpt lat="60.37503" lon="7.6323">
        <ele>1232.07</ele>
        <time>2019-04-05T12:58:32Z</time>
      </trkpt>
      <trkpt lat="60.3751" lon="7.63209">
        <ele>1233.03</ele>
        <time>2019-04-05T12:58:35Z</time>
      </trkpt>
      <trkpt lat="60.37514" lon="7.632">
        <ele>1234.47</ele>
        <time>2019-04-05T12:58:37Z</time>
      </trkpt>
      <trkpt lat="60.37521" lon="7.63181">
        <ele>1235.43</ele>
        <time>2019-04-05T12:58:41Z</time>
      </trkpt>
      <trkpt lat="60.37527" lon="7.63174">
        <ele>1236.39</ele>
        <time>2019-04-05T12:58:43Z</time>
      </trkpt>
      <trkpt lat="60.37532" lon="7.63162">
        <ele>1237.35</ele>
        <time>2019-04-05T12:58:48Z</time>
      </trkpt>
      <trkpt lat="60.37537" lon="7.63147">
        <ele>1238.8</ele>
        <time>2019-04-05T12:58:58Z</time>
      </trkpt>
      <trkpt lat="60.37535" lon="7.63148">
        <ele>1238.8</ele>
        <time>2019-04-05T12:59:26Z</time>
      </trkpt>
      <trkpt lat="60.37535" lon="7.63146">
        <ele>1238.8</ele>
        <time>2019-04-05T12:59:42Z</time>
      </trkpt>
      <trkpt lat="60.37526" lon="7.63155">
        <ele>1234.47</ele>
        <time>2019-04-05T12:59:46Z</time>
      </trkpt>
      <trkpt lat="60.37524" lon="7.63163">
        <ele>1233.51</ele>
        <time>2019-04-05T12:59:47Z</time>
      </trkpt>
      <trkpt lat="60.37511" lon="7.6322">
        <ele>1231.59</ele>
        <time>2019-04-05T12:59:55Z</time>
      </trkpt>
      <trkpt lat="60.37509" lon="7.63232">
        <ele>1232.55</ele>
        <time>2019-04-05T12:59:57Z</time>
      </trkpt>
      <trkpt lat="60.37504" lon="7.63258">
        <ele>1231.11</ele>
        <time>2019-04-05T13:00:01Z</time>
      </trkpt>
      <trkpt lat="60.37492" lon="7.6332">
        <ele>1227.74</ele>
        <time>2019-04-05T13:00:11Z</time>
      </trkpt>
      <trkpt lat="60.37484" lon="7.63372">
        <ele>1224.86</ele>
        <time>2019-04-05T13:00:19Z</time>
      </trkpt>
      <trkpt lat="60.3747" lon="7.63451">
        <ele>1221.49</ele>
        <time>2019-04-05T13:00:31Z</time>
      </trkpt>
      <trkpt lat="60.37459" lon="7.63514">
        <ele>1219.09</ele>
        <time>2019-04-05T13:00:41Z</time>
      </trkpt>
      <trkpt lat="60.3744" lon="7.63598">
        <ele>1216.21</ele>
        <time>2019-04-05T13:00:54Z</time>
      </trkpt>
      <trkpt lat="60.37438" lon="7.63605">
        <ele>1215.24</ele>
        <time>2019-04-05T13:00:55Z</time>
      </trkpt>
      <trkpt lat="60.37417" lon="7.63686">
        <ele>1212.36</ele>
        <time>2019-04-05T13:01:05Z</time>
      </trkpt>
      <trkpt lat="60.37412" lon="7.63703">
        <ele>1212.36</ele>
        <time>2019-04-05T13:01:07Z</time>
      </trkpt>
      <trkpt lat="60.37407" lon="7.63719">
        <ele>1211.4</ele>
        <time>2019-04-05T13:01:09Z</time>
      </trkpt>
      <trkpt lat="60.37396" lon="7.63748">
        <ele>1208.51</ele>
        <time>2019-04-05T13:01:13Z</time>
      </trkpt>
      <trkpt lat="60.3739" lon="7.63764">
        <ele>1206.59</ele>
        <time>2019-04-05T13:01:15Z</time>
      </trkpt>
      <trkpt lat="60.37385" lon="7.63779">
        <ele>1208.51</ele>
        <time>2019-04-05T13:01:17Z</time>
      </trkpt>
      <trkpt lat="60.37375" lon="7.63808">
        <ele>1207.07</ele>
        <time>2019-04-05T13:01:21Z</time>
      </trkpt>
      <trkpt lat="60.37373" lon="7.63816">
        <ele>1207.07</ele>
        <time>2019-04-05T13:01:22Z</time>
      </trkpt>
      <trkpt lat="60.37364" lon="7.63843">
        <ele>1208.51</ele>
        <time>2019-04-05T13:01:26Z</time>
      </trkpt>
      <trkpt lat="60.37357" lon="7.63864">
        <ele>1206.11</ele>
        <time>2019-04-05T13:01:29Z</time>
      </trkpt>
      <trkpt lat="60.37352" lon="7.63877">
        <ele>1206.11</ele>
        <time>2019-04-05T13:01:31Z</time>
      </trkpt>
      <trkpt lat="60.37343" lon="7.63897">
        <ele>1205.15</ele>
        <time>2019-04-05T13:01:34Z</time>
      </trkpt>
      <trkpt lat="60.37314" lon="7.63979">
        <ele>1203.23</ele>
        <time>2019-04-05T13:01:47Z</time>
      </trkpt>
      <trkpt lat="60.37296" lon="7.64034">
        <ele>1201.3</ele>
        <time>2019-04-05T13:01:57Z</time>
      </trkpt>
      <trkpt lat="60.37271" lon="7.64089">
        <ele>1200.34</ele>
        <time>2019-04-05T13:02:06Z</time>
      </trkpt>
      <trkpt lat="60.37242" lon="7.64138">
        <ele>1199.86</ele>
        <time>2019-04-05T13:02:16Z</time>
      </trkpt>
      <trkpt lat="60.37234" lon="7.64152">
        <ele>1199.86</ele>
        <time>2019-04-05T13:02:19Z</time>
      </trkpt>
      <trkpt lat="60.37204" lon="7.64214">
        <ele>1197.94</ele>
        <time>2019-04-05T13:02:31Z</time>
      </trkpt>
      <trkpt lat="60.37201" lon="7.64219">
        <ele>1197.94</ele>
        <time>2019-04-05T13:02:32Z</time>
      </trkpt>
      <trkpt lat="60.37169" lon="7.64294">
        <ele>1195.06</ele>
        <time>2019-04-05T13:02:44Z</time>
      </trkpt>
      <trkpt lat="60.37148" lon="7.64333">
        <ele>1194.09</ele>
        <time>2019-04-05T13:02:53Z</time>
      </trkpt>
      <trkpt lat="60.37118" lon="7.64383">
        <ele>1193.13</ele>
        <time>2019-04-05T13:03:04Z</time>
      </trkpt>
      <trkpt lat="60.37099" lon="7.64411">
        <ele>1192.65</ele>
        <time>2019-04-05T13:03:10Z</time>
      </trkpt>
      <trkpt lat="60.37082" lon="7.64432">
        <ele>1192.17</ele>
        <time>2019-04-05T13:03:15Z</time>
      </trkpt>
      <trkpt lat="60.37068" lon="7.64449">
        <ele>1192.17</ele>
        <time>2019-04-05T13:03:19Z</time>
      </trkpt>
      <trkpt lat="60.37041" lon="7.64474">
        <ele>1189.77</ele>
        <time>2019-04-05T13:03:27Z</time>
      </trkpt>
      <trkpt lat="60.37049" lon="7.64461">
        <ele>1190.25</ele>
        <time>2019-04-05T13:03:31Z</time>
      </trkpt>
      <trkpt lat="60.37064" lon="7.64448">
        <ele>1191.69</ele>
        <time>2019-04-05T13:03:37Z</time>
      </trkpt>
      <trkpt lat="60.37085" lon="7.64432">
        <ele>1192.17</ele>
        <time>2019-04-05T13:03:47Z</time>
      </trkpt>
      <trkpt lat="60.37105" lon="7.64415">
        <ele>1192.65</ele>
        <time>2019-04-05T13:04:00Z</time>
      </trkpt>
      <trkpt lat="60.37126" lon="7.64401">
        <ele>1192.65</ele>
        <time>2019-04-05T13:04:11Z</time>
      </trkpt>
      <trkpt lat="60.37147" lon="7.64386">
        <ele>1193.61</ele>
        <time>2019-04-05T13:04:24Z</time>
      </trkpt>
      <trkpt lat="60.37164" lon="7.64367">
        <ele>1194.58</ele>
        <time>2019-04-05T13:04:35Z</time>
      </trkpt>
      <trkpt lat="60.37179" lon="7.64357">
        <ele>1195.06</ele>
        <time>2019-04-05T13:04:48Z</time>
      </trkpt>
      <trkpt lat="60.37189" lon="7.64342">
        <ele>1195.54</ele>
        <time>2019-04-05T13:04:58Z</time>
      </trkpt>
      <trkpt lat="60.37195" lon="7.64334">
        <ele>1196.02</ele>
        <time>2019-04-05T13:05:03Z</time>
      </trkpt>
      <trkpt lat="60.37198" lon="7.64331">
        <ele>1196.02</ele>
        <time>2019-04-05T13:05:05Z</time>
      </trkpt>
      <trkpt lat="60.37206" lon="7.64319">
        <ele>1196.98</ele>
        <time>2019-04-05T13:05:12Z</time>
      </trkpt>
      <trkpt lat="60.37214" lon="7.64309">
        <ele>1197.94</ele>
        <time>2019-04-05T13:05:19Z</time>
      </trkpt>
      <trkpt lat="60.37222" lon="7.64295">
        <ele>1198.42</ele>
        <time>2019-04-05T13:05:28Z</time>
      </trkpt>
      <trkpt lat="60.37227" lon="7.64285">
        <ele>1198.9</ele>
        <time>2019-04-05T13:05:32Z</time>
      </trkpt>
      <trkpt lat="60.37248" lon="7.64261">
        <ele>1200.34</ele>
        <time>2019-04-05T13:05:45Z</time>
      </trkpt>
      <trkpt lat="60.37269" lon="7.6423">
        <ele>1201.3</ele>
        <time>2019-04-05T13:05:56Z</time>
      </trkpt>
      <trkpt lat="60.37277" lon="7.64224">
        <ele>1201.79</ele>
        <time>2019-04-05T13:06:00Z</time>
      </trkpt>
      <trkpt lat="60.37291" lon="7.64207">
        <ele>1202.27</ele>
        <time>2019-04-05T13:06:07Z</time>
      </trkpt>
      <trkpt lat="60.37306" lon="7.64192">
        <ele>1202.75</ele>
        <time>2019-04-05T13:06:14Z</time>
      </trkpt>
      <trkpt lat="60.37314" lon="7.6418">
        <ele>1203.71</ele>
        <time>2019-04-05T13:06:23Z</time>
      </trkpt>
      <trkpt lat="60.37328" lon="7.64154">
        <ele>1204.67</ele>
        <time>2019-04-05T13:06:35Z</time>
      </trkpt>
      <trkpt lat="60.37346" lon="7.64125">
        <ele>1206.11</ele>
        <time>2019-04-05T13:06:47Z</time>
      </trkpt>
      <trkpt lat="60.37348" lon="7.64123">
        <ele>1206.59</ele>
        <time>2019-04-05T13:06:49Z</time>
      </trkpt>
      <trkpt lat="60.37358" lon="7.64108">
        <ele>1207.07</ele>
        <time>2019-04-05T13:07:00Z</time>
      </trkpt>
      <trkpt lat="60.37366" lon="7.64098">
        <ele>1208.03</ele>
        <time>2019-04-05T13:07:05Z</time>
      </trkpt>
      <trkpt lat="60.37379" lon="7.64077">
        <ele>1209</ele>
        <time>2019-04-05T13:07:14Z</time>
      </trkpt>
      <trkpt lat="60.37406" lon="7.64037">
        <ele>1210.44</ele>
        <time>2019-04-05T13:07:27Z</time>
      </trkpt>
      <trkpt lat="60.37426" lon="7.63994">
        <ele>1211.4</ele>
        <time>2019-04-05T13:07:39Z</time>
      </trkpt>
      <trkpt lat="60.37426" lon="7.63989">
        <ele>1211.4</ele>
        <time>2019-04-05T13:07:40Z</time>
      </trkpt>
      <trkpt lat="60.3743" lon="7.63977">
        <ele>1212.36</ele>
        <time>2019-04-05T13:07:49Z</time>
      </trkpt>
      <trkpt lat="60.37432" lon="7.6397">
        <ele>1212.84</ele>
        <time>2019-04-05T13:07:54Z</time>
      </trkpt>
      <trkpt lat="60.3744" lon="7.63937">
        <ele>1214.76</ele>
        <time>2019-04-05T13:08:07Z</time>
      </trkpt>
      <trkpt lat="60.37457" lon="7.63901">
        <ele>1216.21</ele>
        <time>2019-04-05T13:08:17Z</time>
      </trkpt>
      <trkpt lat="60.37466" lon="7.63883">
        <ele>1217.65</ele>
        <time>2019-04-05T13:08:25Z</time>
      </trkpt>
      <trkpt lat="60.37472" lon="7.63866">
        <ele>1219.09</ele>
        <time>2019-04-05T13:08:30Z</time>
      </trkpt>
      <trkpt lat="60.37483" lon="7.63836">
        <ele>1221.01</ele>
        <time>2019-04-05T13:08:42Z</time>
      </trkpt>
      <trkpt lat="60.37492" lon="7.63803">
        <ele>1223.42</ele>
        <time>2019-04-05T13:08:52Z</time>
      </trkpt>
      <trkpt lat="60.37495" lon="7.63797">
        <ele>1224.38</ele>
        <time>2019-04-05T13:08:54Z</time>
      </trkpt>
      <trkpt lat="60.37505" lon="7.63773">
        <ele>1226.3</ele>
        <time>2019-04-05T13:09:04Z</time>
      </trkpt>
      <trkpt lat="60.37516" lon="7.63745">
        <ele>1228.7</ele>
        <time>2019-04-05T13:09:14Z</time>
      </trkpt>
      <trkpt lat="60.37528" lon="7.6371">
        <ele>1230.62</ele>
        <time>2019-04-05T13:09:26Z</time>
      </trkpt>
      <trkpt lat="60.37538" lon="7.63691">
        <ele>1232.55</ele>
        <time>2019-04-05T13:09:34Z</time>
      </trkpt>
      <trkpt lat="60.37541" lon="7.6368">
        <ele>1233.03</ele>
        <time>2019-04-05T13:09:38Z</time>
      </trkpt>
      <trkpt lat="60.37551" lon="7.63651">
        <ele>1234.47</ele>
        <time>2019-04-05T13:09:48Z</time>
      </trkpt>
      <trkpt lat="60.37564" lon="7.63618">
        <ele>1237.35</ele>
        <time>2019-04-05T13:09:59Z</time>
      </trkpt>
      <trkpt lat="60.37572" lon="7.63594">
        <ele>1238.32</ele>
        <time>2019-04-05T13:10:06Z</time>
      </trkpt>
      <trkpt lat="60.37579" lon="7.63574">
        <ele>1239.76</ele>
        <time>2019-04-05T13:10:17Z</time>
      </trkpt>
      <trkpt lat="60.37579" lon="7.63574">
        <ele>1239.76</ele>
        <time>2019-04-05T13:10:18Z</time>
      </trkpt>
      <trkpt lat="60.37574" lon="7.63586">
        <ele>1237.35</ele>
        <time>2019-04-05T13:10:22Z</time>
      </trkpt>
      <trkpt lat="60.37573" lon="7.63591">
        <ele>1236.39</ele>
        <time>2019-04-05T13:10:23Z</time>
      </trkpt>
      <trkpt lat="60.37568" lon="7.63632">
        <ele>1236.39</ele>
        <time>2019-04-05T13:10:35Z</time>
      </trkpt>
      <trkpt lat="60.37563" lon="7.63656">
        <ele>1233.99</ele>
        <time>2019-04-05T13:10:43Z</time>
      </trkpt>
      <trkpt lat="60.3756" lon="7.63675">
        <ele>1234.47</ele>
        <time>2019-04-05T13:10:50Z</time>
      </trkpt>
      <trkpt lat="60.3756" lon="7.63678">
        <ele>1236.39</ele>
        <time>2019-04-05T13:10:52Z</time>
      </trkpt>
      <trkpt lat="60.3756" lon="7.63684">
        <ele>1234.95</ele>
        <time>2019-04-05T13:10:56Z</time>
      </trkpt>
      <trkpt lat="60.37558" lon="7.63699">
        <ele>1234.95</ele>
        <time>2019-04-05T13:11:02Z</time>
      </trkpt>
      <trkpt lat="60.37558" lon="7.6371">
        <ele>1234.47</ele>
        <time>2019-04-05T13:11:07Z</time>
      </trkpt>
      <trkpt lat="60.3756" lon="7.63689">
        <ele>1235.91</ele>
        <time>2019-04-05T13:11:15Z</time>
      </trkpt>
      <trkpt lat="60.37565" lon="7.63667">
        <ele>1237.35</ele>
        <time>2019-04-05T13:11:23Z</time>
      </trkpt>
      <trkpt lat="60.37572" lon="7.63649">
        <ele>1238.8</ele>
        <time>2019-04-05T13:11:34Z</time>
      </trkpt>
      <trkpt lat="60.37575" lon="7.63643">
        <ele>1239.28</ele>
        <time>2019-04-05T13:11:43Z</time>
      </trkpt>
      <trkpt lat="60.37576" lon="7.6364">
        <ele>1239.28</ele>
        <time>2019-04-05T13:11:45Z</time>
      </trkpt>
      <trkpt lat="60.3759" lon="7.63613">
        <ele>1240.72</ele>
        <time>2019-04-05T13:11:59Z</time>
      </trkpt>
      <trkpt lat="60.37604" lon="7.63592">
        <ele>1243.12</ele>
        <time>2019-04-05T13:12:12Z</time>
      </trkpt>
      <trkpt lat="60.37613" lon="7.63572">
        <ele>1244.56</ele>
        <time>2019-04-05T13:12:23Z</time>
      </trkpt>
      <trkpt lat="60.37622" lon="7.63547">
        <ele>1246.49</ele>
        <time>2019-04-05T13:12:34Z</time>
      </trkpt>
      <trkpt lat="60.37626" lon="7.63534">
        <ele>1247.45</ele>
        <time>2019-04-05T13:12:44Z</time>
      </trkpt>
      <trkpt lat="60.37631" lon="7.63511">
        <ele>1248.89</ele>
        <time>2019-04-05T13:12:53Z</time>
      </trkpt>
      <trkpt lat="60.37641" lon="7.63482">
        <ele>1252.25</ele>
        <time>2019-04-05T13:13:01Z</time>
      </trkpt>
      <trkpt lat="60.37644" lon="7.63475">
        <ele>1253.22</ele>
        <time>2019-04-05T13:13:07Z</time>
      </trkpt>
      <trkpt lat="60.37646" lon="7.63466">
        <ele>1253.7</ele>
        <time>2019-04-05T13:13:10Z</time>
      </trkpt>
      <trkpt lat="60.37647" lon="7.63463">
        <ele>1254.66</ele>
        <time>2019-04-05T13:13:14Z</time>
      </trkpt>
      <trkpt lat="60.37648" lon="7.63459">
        <ele>1255.14</ele>
        <time>2019-04-05T13:13:19Z</time>
      </trkpt>
      <trkpt lat="60.37649" lon="7.63444">
        <ele>1256.58</ele>
        <time>2019-04-05T13:13:28Z</time>
      </trkpt>
      <trkpt lat="60.37649" lon="7.63434">
        <ele>1258.02</ele>
        <time>2019-04-05T13:13:34Z</time>
      </trkpt>
      <trkpt lat="60.37649" lon="7.6343">
        <ele>1258.02</ele>
        <time>2019-04-05T13:13:36Z</time>
      </trkpt>
      <trkpt lat="60.3765" lon="7.63425">
        <ele>1258.5</ele>
        <time>2019-04-05T13:13:41Z</time>
      </trkpt>
      <trkpt lat="60.3765" lon="7.63418">
        <ele>1259.46</ele>
        <time>2019-04-05T13:13:46Z</time>
      </trkpt>
      <trkpt lat="60.37652" lon="7.63404">
        <ele>1260.91</ele>
        <time>2019-04-05T13:13:56Z</time>
      </trkpt>
      <trkpt lat="60.37653" lon="7.63398">
        <ele>1261.39</ele>
        <time>2019-04-05T13:14:05Z</time>
      </trkpt>
      <trkpt lat="60.37653" lon="7.63389">
        <ele>1261.39</ele>
        <time>2019-04-05T13:14:13Z</time>
      </trkpt>
      <trkpt lat="60.37653" lon="7.63385">
        <ele>1261.87</ele>
        <time>2019-04-05T13:14:15Z</time>
      </trkpt>
      <trkpt lat="60.37654" lon="7.63371">
        <ele>1263.31</ele>
        <time>2019-04-05T13:14:26Z</time>
      </trkpt>
      <trkpt lat="60.37654" lon="7.6337">
        <ele>1263.31</ele>
        <time>2019-04-05T13:14:31Z</time>
      </trkpt>
      <trkpt lat="60.37648" lon="7.63377">
        <ele>1259.46</ele>
        <time>2019-04-05T13:14:34Z</time>
      </trkpt>
      <trkpt lat="60.37645" lon="7.63393">
        <ele>1255.62</ele>
        <time>2019-04-05T13:14:36Z</time>
      </trkpt>
      <trkpt lat="60.37642" lon="7.63428">
        <ele>1253.22</ele>
        <time>2019-04-05T13:14:42Z</time>
      </trkpt>
      <trkpt lat="60.37642" lon="7.63425">
        <ele>1255.14</ele>
        <time>2019-04-05T13:14:49Z</time>
      </trkpt>
      <trkpt lat="60.37642" lon="7.63425">
        <ele>1253.22</ele>
        <time>2019-04-05T13:14:59Z</time>
      </trkpt>
      <trkpt lat="60.3764" lon="7.63425">
        <ele>1254.66</ele>
        <time>2019-04-05T13:15:06Z</time>
      </trkpt>
      <trkpt lat="60.37638" lon="7.63423">
        <ele>1249.37</ele>
        <time>2019-04-05T13:15:08Z</time>
      </trkpt>
      <trkpt lat="60.37637" lon="7.63423">
        <ele>1251.77</ele>
        <time>2019-04-05T13:15:09Z</time>
      </trkpt>
      <trkpt lat="60.37635" lon="7.63422">
        <ele>1254.66</ele>
        <time>2019-04-05T13:15:11Z</time>
      </trkpt>
      <trkpt lat="60.37632" lon="7.63429">
        <ele>1249.85</ele>
        <time>2019-04-05T13:15:17Z</time>
      </trkpt>
      <trkpt lat="60.37632" lon="7.63428">
        <ele>1258.02</ele>
        <time>2019-04-05T13:15:18Z</time>
      </trkpt>
      <trkpt lat="60.37632" lon="7.63428">
        <ele>1255.62</ele>
        <time>2019-04-05T13:15:19Z</time>
      </trkpt>
      <trkpt lat="60.37632" lon="7.63426">
        <ele>1252.25</ele>
        <time>2019-04-05T13:15:20Z</time>
      </trkpt>
      <trkpt lat="60.37633" lon="7.63426">
        <ele>1253.7</ele>
        <time>2019-04-05T13:15:21Z</time>
      </trkpt>
      <trkpt lat="60.37636" lon="7.63425">
        <ele>1257.06</ele>
        <time>2019-04-05T13:15:28Z</time>
      </trkpt>
      <trkpt lat="60.37637" lon="7.63425">
        <ele>1253.7</ele>
        <time>2019-04-05T13:15:29Z</time>
      </trkpt>
      <trkpt lat="60.37639" lon="7.63425">
        <ele>1258.98</ele>
        <time>2019-04-05T13:15:31Z</time>
      </trkpt>
      <trkpt lat="60.37641" lon="7.63425">
        <ele>1253.22</ele>
        <time>2019-04-05T13:15:32Z</time>
      </trkpt>
      <trkpt lat="60.37642" lon="7.63426">
        <ele>1248.89</ele>
        <time>2019-04-05T13:15:46Z</time>
      </trkpt>
      <trkpt lat="60.37643" lon="7.63427">
        <ele>1259.46</ele>
        <time>2019-04-05T13:15:48Z</time>
      </trkpt>
      <trkpt lat="60.37643" lon="7.63426">
        <ele>1253.22</ele>
        <time>2019-04-05T13:15:49Z</time>
      </trkpt>
      <trkpt lat="60.37643" lon="7.63426">
        <ele>1253.7</ele>
        <time>2019-04-05T13:15:54Z</time>
      </trkpt>
      <trkpt lat="60.37642" lon="7.63427">
        <ele>1258.02</ele>
        <time>2019-04-05T13:16:03Z</time>
      </trkpt>
      <trkpt lat="60.37641" lon="7.63427">
        <ele>1253.7</ele>
        <time>2019-04-05T13:16:04Z</time>
      </trkpt>
      <trkpt lat="60.37642" lon="7.63428">
        <ele>1252.74</ele>
        <time>2019-04-05T13:16:20Z</time>
      </trkpt>
      <trkpt lat="60.37643" lon="7.63427">
        <ele>1255.14</ele>
        <time>2019-04-05T13:16:25Z</time>
      </trkpt>
      <trkpt lat="60.37644" lon="7.63428">
        <ele>1254.18</ele>
        <time>2019-04-05T13:17:02Z</time>
      </trkpt>
      <trkpt lat="60.37643" lon="7.63428">
        <ele>1254.18</ele>
        <time>2019-04-05T13:17:39Z</time>
      </trkpt>
      <trkpt lat="60.37643" lon="7.63427">
        <ele>1254.18</ele>
        <time>2019-04-05T13:18:24Z</time>
      </trkpt>
      <trkpt lat="60.37642" lon="7.63424">
        <ele>1254.18</ele>
        <time>2019-04-05T13:19:09Z</time>
      </trkpt>
      <trkpt lat="60.37642" lon="7.63425">
        <ele>1254.18</ele>
        <time>2019-04-05T13:19:55Z</time>
      </trkpt>
      <trkpt lat="60.37643" lon="7.63424">
        <ele>1254.18</ele>
        <time>2019-04-05T13:20:39Z</time>
      </trkpt>
      <trkpt lat="60.37644" lon="7.63426">
        <ele>1254.18</ele>
        <time>2019-04-05T13:21:14Z</time>
      </trkpt>
      <trkpt lat="60.37644" lon="7.63426">
        <ele>1254.18</ele>
        <time>2019-04-05T13:21:47Z</time>
      </trkpt>
      <trkpt lat="60.37645" lon="7.63426">
        <ele>1254.18</ele>
        <time>2019-04-05T13:22:30Z</time>
      </trkpt>
      <trkpt lat="60.37645" lon="7.63424">
        <ele>1255.62</ele>
        <time>2019-04-05T13:22:58Z</time>
      </trkpt>
      <trkpt lat="60.37644" lon="7.63424">
        <ele>1255.62</ele>
        <time>2019-04-05T13:23:32Z</time>
      </trkpt>
      <trkpt lat="60.37642" lon="7.63426">
        <ele>1255.62</ele>
        <time>2019-04-05T13:24:07Z</time>
      </trkpt>
      <trkpt lat="60.37642" lon="7.63426">
        <ele>1255.62</ele>
        <time>2019-04-05T13:24:43Z</time>
      </trkpt>
      <trkpt lat="60.37641" lon="7.63429">
        <ele>1255.62</ele>
        <time>2019-04-05T13:25:25Z</time>
      </trkpt>
      <trkpt lat="60.37641" lon="7.63429">
        <ele>1256.1</ele>
        <time>2019-04-05T13:25:59Z</time>
      </trkpt>
      <trkpt lat="60.37639" lon="7.63428">
        <ele>1256.1</ele>
        <time>2019-04-05T13:26:33Z</time>
      </trkpt>
      <trkpt lat="60.3764" lon="7.6343">
        <ele>1256.1</ele>
        <time>2019-04-05T13:27:07Z</time>
      </trkpt>
      <trkpt lat="60.37641" lon="7.6343">
        <ele>1256.1</ele>
        <time>2019-04-05T13:27:42Z</time>
      </trkpt>
      <trkpt lat="60.37641" lon="7.63428">
        <ele>1256.58</ele>
        <time>2019-04-05T13:28:21Z</time>
      </trkpt>
      <trkpt lat="60.37641" lon="7.63428">
        <ele>1257.54</ele>
        <time>2019-04-05T13:28:45Z</time>
      </trkpt>
      <trkpt lat="60.37641" lon="7.63428">
        <ele>1257.54</ele>
        <time>2019-04-05T13:28:46Z</time>
      </trkpt>
      <trkpt lat="60.37637" lon="7.63431">
        <ele>1257.54</ele>
        <time>2019-04-05T13:28:59Z</time>
      </trkpt>
      <trkpt lat="60.37638" lon="7.63431">
        <ele>1257.54</ele>
        <time>2019-04-05T13:29:12Z</time>
      </trkpt>
      <trkpt lat="60.37642" lon="7.63427">
        <ele>1258.5</ele>
        <time>2019-04-05T13:29:24Z</time>
      </trkpt>
      <trkpt lat="60.37643" lon="7.63428">
        <ele>1258.5</ele>
        <time>2019-04-05T13:29:35Z</time>
      </trkpt>
      <trkpt lat="60.37642" lon="7.63426">
        <ele>1258.5</ele>
        <time>2019-04-05T13:29:49Z</time>
      </trkpt>
      <trkpt lat="60.37642" lon="7.63427">
        <ele>1256.58</ele>
        <time>2019-04-05T13:29:51Z</time>
      </trkpt>
      <trkpt lat="60.37642" lon="7.63428">
        <ele>1257.54</ele>
        <time>2019-04-05T13:30:00Z</time>
      </trkpt>
      <trkpt lat="60.37642" lon="7.63427">
        <ele>1257.54</ele>
        <time>2019-04-05T13:30:15Z</time>
      </trkpt>
      <trkpt lat="60.37639" lon="7.63428">
        <ele>1257.54</ele>
        <time>2019-04-05T13:30:29Z</time>
      </trkpt>
      <trkpt lat="60.37638" lon="7.63429">
        <ele>1257.54</ele>
        <time>2019-04-05T13:30:46Z</time>
      </trkpt>
      <trkpt lat="60.3764" lon="7.63428">
        <ele>1258.02</ele>
        <time>2019-04-05T13:31:03Z</time>
      </trkpt>
      <trkpt lat="60.3764" lon="7.63427">
        <ele>1258.5</ele>
        <time>2019-04-05T13:31:12Z</time>
      </trkpt>
      <trkpt lat="60.37639" lon="7.63429">
        <ele>1258.5</ele>
        <time>2019-04-05T13:31:14Z</time>
      </trkpt>
      <trkpt lat="60.37639" lon="7.63446">
        <ele>1257.06</ele>
        <time>2019-04-05T13:31:23Z</time>
      </trkpt>
      <trkpt lat="60.37637" lon="7.63446">
        <ele>1256.58</ele>
        <time>2019-04-05T13:31:42Z</time>
      </trkpt>
      <trkpt lat="60.37637" lon="7.63443">
        <ele>1255.62</ele>
        <time>2019-04-05T13:31:55Z</time>
      </trkpt>
      <trkpt lat="60.37638" lon="7.63437">
        <ele>1257.06</ele>
        <time>2019-04-05T13:32:14Z</time>
      </trkpt>
      <trkpt lat="60.37638" lon="7.63437">
        <ele>1257.06</ele>
        <time>2019-04-05T13:32:15Z</time>
      </trkpt>
      <trkpt lat="60.37638" lon="7.63436">
        <ele>1257.06</ele>
        <time>2019-04-05T13:32:16Z</time>
      </trkpt>
      <trkpt lat="60.37634" lon="7.63447">
        <ele>1253.22</ele>
        <time>2019-04-05T13:32:20Z</time>
      </trkpt>
      <trkpt lat="60.37633" lon="7.63459">
        <ele>1251.77</ele>
        <time>2019-04-05T13:32:22Z</time>
      </trkpt>
      <trkpt lat="60.37631" lon="7.63465">
        <ele>1251.77</ele>
        <time>2019-04-05T13:32:23Z</time>
      </trkpt>
      <trkpt lat="60.37621" lon="7.6351">
        <ele>1246.49</ele>
        <time>2019-04-05T13:32:29Z</time>
      </trkpt>
      <trkpt lat="60.37607" lon="7.63549">
        <ele>1242.64</ele>
        <time>2019-04-05T13:32:33Z</time>
      </trkpt>
      <trkpt lat="60.376" lon="7.63569">
        <ele>1240.72</ele>
        <time>2019-04-05T13:32:35Z</time>
      </trkpt>
      <trkpt lat="60.37576" lon="7.63641">
        <ele>1238.32</ele>
        <time>2019-04-05T13:32:43Z</time>
      </trkpt>
      <trkpt lat="60.37557" lon="7.63717">
        <ele>1234.47</ele>
        <time>2019-04-05T13:32:52Z</time>
      </trkpt>
      <trkpt lat="60.37555" lon="7.63726">
        <ele>1234.47</ele>
        <time>2019-04-05T13:32:53Z</time>
      </trkpt>
      <trkpt lat="60.37542" lon="7.6379">
        <ele>1230.62</ele>
        <time>2019-04-05T13:33:01Z</time>
      </trkpt>
      <trkpt lat="60.37528" lon="7.63867">
        <ele>1227.74</ele>
        <time>2019-04-05T13:33:11Z</time>
      </trkpt>
      <trkpt lat="60.37515" lon="7.6395">
        <ele>1227.74</ele>
        <time>2019-04-05T13:33:25Z</time>
      </trkpt>
      <trkpt lat="60.37511" lon="7.63958">
        <ele>1228.22</ele>
        <time>2019-04-05T13:33:36Z</time>
      </trkpt>
      <trkpt lat="60.3751" lon="7.63959">
        <ele>1226.3</ele>
        <time>2019-04-05T13:33:39Z</time>
      </trkpt>
      <trkpt lat="60.37511" lon="7.63957">
        <ele>1225.34</ele>
        <time>2019-04-05T13:33:52Z</time>
      </trkpt>
      <trkpt lat="60.37512" lon="7.63956">
        <ele>1226.78</ele>
        <time>2019-04-05T13:34:02Z</time>
      </trkpt>
      <trkpt lat="60.37513" lon="7.63954">
        <ele>1224.86</ele>
        <time>2019-04-05T13:34:05Z</time>
      </trkpt>
      <trkpt lat="60.37514" lon="7.63951">
        <ele>1226.3</ele>
        <time>2019-04-05T13:34:43Z</time>
      </trkpt>
      <trkpt lat="60.37513" lon="7.63951">
        <ele>1225.82</ele>
        <time>2019-04-05T13:35:22Z</time>
      </trkpt>
      <trkpt lat="60.37515" lon="7.63952">
        <ele>1226.3</ele>
        <time>2019-04-05T13:36:04Z</time>
      </trkpt>
      <trkpt lat="60.37512" lon="7.63953">
        <ele>1226.3</ele>
        <time>2019-04-05T13:36:44Z</time>
      </trkpt>
      <trkpt lat="60.37512" lon="7.63955">
        <ele>1226.3</ele>
        <time>2019-04-05T13:37:23Z</time>
      </trkpt>
      <trkpt lat="60.37512" lon="7.63955">
        <ele>1226.78</ele>
        <time>2019-04-05T13:37:34Z</time>
      </trkpt>
      <trkpt lat="60.37511" lon="7.63954">
        <ele>1228.22</ele>
        <time>2019-04-05T13:37:37Z</time>
      </trkpt>
      <trkpt lat="60.37509" lon="7.63954">
        <ele>1228.7</ele>
        <time>2019-04-05T13:37:49Z</time>
      </trkpt>
      <trkpt lat="60.37509" lon="7.63953">
        <ele>1228.7</ele>
        <time>2019-04-05T13:38:12Z</time>
      </trkpt>
      <trkpt lat="60.37509" lon="7.63952">
        <ele>1228.7</ele>
        <time>2019-04-05T13:38:25Z</time>
      </trkpt>
      <trkpt lat="60.37509" lon="7.63954">
        <ele>1227.26</ele>
        <time>2019-04-05T13:38:49Z</time>
      </trkpt>
      <trkpt lat="60.3751" lon="7.63954">
        <ele>1227.26</ele>
        <time>2019-04-05T13:38:51Z</time>
      </trkpt>
      <trkpt lat="60.37511" lon="7.63948">
        <ele>1227.26</ele>
        <time>2019-04-05T13:38:55Z</time>
      </trkpt>
      <trkpt lat="60.37516" lon="7.63935">
        <ele>1228.7</ele>
        <time>2019-04-05T13:39:00Z</time>
      </trkpt>
      <trkpt lat="60.3753" lon="7.63899">
        <ele>1230.14</ele>
        <time>2019-04-05T13:39:10Z</time>
      </trkpt>
      <trkpt lat="60.37537" lon="7.63887">
        <ele>1232.07</ele>
        <time>2019-04-05T13:39:16Z</time>
      </trkpt>
      <trkpt lat="60.37547" lon="7.63868">
        <ele>1233.51</ele>
        <time>2019-04-05T13:39:23Z</time>
      </trkpt>
      <trkpt lat="60.37552" lon="7.6385">
        <ele>1234.47</ele>
        <time>2019-04-05T13:39:28Z</time>
      </trkpt>
      <trkpt lat="60.37567" lon="7.6382">
        <ele>1236.87</ele>
        <time>2019-04-05T13:39:37Z</time>
      </trkpt>
      <trkpt lat="60.37577" lon="7.63802">
        <ele>1238.8</ele>
        <time>2019-04-05T13:39:47Z</time>
      </trkpt>
      <trkpt lat="60.37583" lon="7.63785">
        <ele>1240.24</ele>
        <time>2019-04-05T13:39:55Z</time>
      </trkpt>
      <trkpt lat="60.37589" lon="7.63775">
        <ele>1242.16</ele>
        <time>2019-04-05T13:40:02Z</time>
      </trkpt>
      <trkpt lat="60.37582" lon="7.63787">
        <ele>1242.16</ele>
        <time>2019-04-05T13:40:06Z</time>
      </trkpt>
      <trkpt lat="60.37578" lon="7.63809">
        <ele>1240.24</ele>
        <time>2019-04-05T13:40:09Z</time>
      </trkpt>
      <trkpt lat="60.37571" lon="7.63854">
        <ele>1237.83</ele>
        <time>2019-04-05T13:40:15Z</time>
      </trkpt>
      <trkpt lat="60.37553" lon="7.63931">
        <ele>1234.47</ele>
        <time>2019-04-05T13:40:27Z</time>
      </trkpt>
      <trkpt lat="60.37542" lon="7.63991">
        <ele>1231.11</ele>
        <time>2019-04-05T13:40:37Z</time>
      </trkpt>
      <trkpt lat="60.3753" lon="7.64058">
        <ele>1228.7</ele>
        <time>2019-04-05T13:40:51Z</time>
      </trkpt>
      <trkpt lat="60.37522" lon="7.64116">
        <ele>1224.86</ele>
        <time>2019-04-05T13:41:02Z</time>
      </trkpt>
      <trkpt lat="60.37521" lon="7.64119">
        <ele>1224.86</ele>
        <time>2019-04-05T13:41:03Z</time>
      </trkpt>
      <trkpt lat="60.37521" lon="7.64123">
        <ele>1224.86</ele>
        <time>2019-04-05T13:41:04Z</time>
      </trkpt>
      <trkpt lat="60.37516" lon="7.6412">
        <ele>1224.38</ele>
        <time>2019-04-05T13:41:08Z</time>
      </trkpt>
      <trkpt lat="60.3752" lon="7.64099">
        <ele>1225.82</ele>
        <time>2019-04-05T13:41:15Z</time>
      </trkpt>
      <trkpt lat="60.3752" lon="7.64096">
        <ele>1226.3</ele>
        <time>2019-04-05T13:41:17Z</time>
      </trkpt>
      <trkpt lat="60.37523" lon="7.64083">
        <ele>1227.26</ele>
        <time>2019-04-05T13:41:23Z</time>
      </trkpt>
      <trkpt lat="60.37528" lon="7.64069">
        <ele>1228.22</ele>
        <time>2019-04-05T13:41:28Z</time>
      </trkpt>
      <trkpt lat="60.37531" lon="7.64059">
        <ele>1229.18</ele>
        <time>2019-04-05T13:41:33Z</time>
      </trkpt>
      <trkpt lat="60.37541" lon="7.64037">
        <ele>1230.62</ele>
        <time>2019-04-05T13:41:45Z</time>
      </trkpt>
      <trkpt lat="60.37549" lon="7.64023">
        <ele>1231.59</ele>
        <time>2019-04-05T13:41:55Z</time>
      </trkpt>
      <trkpt lat="60.3756" lon="7.64008">
        <ele>1233.51</ele>
        <time>2019-04-05T13:42:07Z</time>
      </trkpt>
      <trkpt lat="60.37565" lon="7.63999">
        <ele>1233.99</ele>
        <time>2019-04-05T13:42:11Z</time>
      </trkpt>
      <trkpt lat="60.37578" lon="7.63977">
        <ele>1234.95</ele>
        <time>2019-04-05T13:42:19Z</time>
      </trkpt>
      <trkpt lat="60.37595" lon="7.63946">
        <ele>1237.83</ele>
        <time>2019-04-05T13:42:32Z</time>
      </trkpt>
      <trkpt lat="60.37601" lon="7.63935">
        <ele>1238.32</ele>
        <time>2019-04-05T13:42:36Z</time>
      </trkpt>
      <trkpt lat="60.37606" lon="7.63926">
        <ele>1238.8</ele>
        <time>2019-04-05T13:42:39Z</time>
      </trkpt>
      <trkpt lat="60.37608" lon="7.63923">
        <ele>1239.28</ele>
        <time>2019-04-05T13:42:40Z</time>
      </trkpt>
      <trkpt lat="60.37609" lon="7.63922">
        <ele>1239.28</ele>
        <time>2019-04-05T13:42:41Z</time>
      </trkpt>
      <trkpt lat="60.3761" lon="7.63919">
        <ele>1239.76</ele>
        <time>2019-04-05T13:42:42Z</time>
      </trkpt>
      <trkpt lat="60.37611" lon="7.63917">
        <ele>1239.76</ele>
        <time>2019-04-05T13:42:43Z</time>
      </trkpt>
      <trkpt lat="60.37619" lon="7.63905">
        <ele>1240.72</ele>
        <time>2019-04-05T13:42:50Z</time>
      </trkpt>
      <trkpt lat="60.37623" lon="7.63897">
        <ele>1241.68</ele>
        <time>2019-04-05T13:42:55Z</time>
      </trkpt>
      <trkpt lat="60.37625" lon="7.63893">
        <ele>1242.16</ele>
        <time>2019-04-05T13:42:59Z</time>
      </trkpt>
      <trkpt lat="60.3763" lon="7.6388">
        <ele>1243.6</ele>
        <time>2019-04-05T13:43:06Z</time>
      </trkpt>
      <trkpt lat="60.37639" lon="7.63859">
        <ele>1245.53</ele>
        <time>2019-04-05T13:43:15Z</time>
      </trkpt>
      <trkpt lat="60.37645" lon="7.63846">
        <ele>1246.97</ele>
        <time>2019-04-05T13:43:20Z</time>
      </trkpt>
      <trkpt lat="60.37648" lon="7.63842">
        <ele>1247.93</ele>
        <time>2019-04-05T13:43:22Z</time>
      </trkpt>
      <trkpt lat="60.37659" lon="7.63822">
        <ele>1249.37</ele>
        <time>2019-04-05T13:43:32Z</time>
      </trkpt>
      <trkpt lat="60.37662" lon="7.63815">
        <ele>1249.37</ele>
        <time>2019-04-05T13:43:34Z</time>
      </trkpt>
      <trkpt lat="60.37663" lon="7.63811">
        <ele>1249.85</ele>
        <time>2019-04-05T13:43:38Z</time>
      </trkpt>
      <trkpt lat="60.37658" lon="7.63864">
        <ele>1246.01</ele>
        <time>2019-04-05T13:43:49Z</time>
      </trkpt>
      <trkpt lat="60.37659" lon="7.63869">
        <ele>1246.01</ele>
        <time>2019-04-05T13:43:50Z</time>
      </trkpt>
      <trkpt lat="60.3766" lon="7.63884">
        <ele>1244.56</ele>
        <time>2019-04-05T13:43:53Z</time>
      </trkpt>
      <trkpt lat="60.37665" lon="7.63925">
        <ele>1241.68</ele>
        <time>2019-04-05T13:44:01Z</time>
      </trkpt>
      <trkpt lat="60.37672" lon="7.63982">
        <ele>1238.32</ele>
        <time>2019-04-05T13:44:13Z</time>
      </trkpt>
      <trkpt lat="60.37673" lon="7.63985">
        <ele>1238.32</ele>
        <time>2019-04-05T13:44:14Z</time>
      </trkpt>
      <trkpt lat="60.37681" lon="7.64026">
        <ele>1235.91</ele>
        <time>2019-04-05T13:44:30Z</time>
      </trkpt>
      <trkpt lat="60.37679" lon="7.64029">
        <ele>1234.95</ele>
        <time>2019-04-05T13:44:32Z</time>
      </trkpt>
      <trkpt lat="60.37676" lon="7.64014">
        <ele>1237.35</ele>
        <time>2019-04-05T13:44:37Z</time>
      </trkpt>
      <trkpt lat="60.37675" lon="7.64">
        <ele>1237.83</ele>
        <time>2019-04-05T13:44:41Z</time>
      </trkpt>
      <trkpt lat="60.3768" lon="7.63965">
        <ele>1241.2</ele>
        <time>2019-04-05T13:44:50Z</time>
      </trkpt>
      <trkpt lat="60.37684" lon="7.63954">
        <ele>1241.68</ele>
        <time>2019-04-05T13:44:53Z</time>
      </trkpt>
      <trkpt lat="60.37685" lon="7.63951">
        <ele>1242.64</ele>
        <time>2019-04-05T13:44:54Z</time>
      </trkpt>
      <trkpt lat="60.37686" lon="7.63949">
        <ele>1242.64</ele>
        <time>2019-04-05T13:44:55Z</time>
      </trkpt>
      <trkpt lat="60.37686" lon="7.63947">
        <ele>1243.12</ele>
        <time>2019-04-05T13:44:56Z</time>
      </trkpt>
      <trkpt lat="60.37688" lon="7.63944">
        <ele>1243.6</ele>
        <time>2019-04-05T13:44:57Z</time>
      </trkpt>
      <trkpt lat="60.37689" lon="7.63942">
        <ele>1243.6</ele>
        <time>2019-04-05T13:44:58Z</time>
      </trkpt>
      <trkpt lat="60.37693" lon="7.63936">
        <ele>1244.08</ele>
        <time>2019-04-05T13:45:02Z</time>
      </trkpt>
      <trkpt lat="60.37702" lon="7.63912">
        <ele>1246.49</ele>
        <time>2019-04-05T13:45:13Z</time>
      </trkpt>
      <trkpt lat="60.37711" lon="7.63891">
        <ele>1248.41</ele>
        <time>2019-04-05T13:45:22Z</time>
      </trkpt>
      <trkpt lat="60.37712" lon="7.6389">
        <ele>1248.41</ele>
        <time>2019-04-05T13:45:28Z</time>
      </trkpt>
      <trkpt lat="60.37713" lon="7.63885">
        <ele>1249.37</ele>
        <time>2019-04-05T13:45:33Z</time>
      </trkpt>
      <trkpt lat="60.37713" lon="7.63884">
        <ele>1249.85</ele>
        <time>2019-04-05T13:45:34Z</time>
      </trkpt>
      <trkpt lat="60.37714" lon="7.63879">
        <ele>1250.81</ele>
        <time>2019-04-05T13:45:36Z</time>
      </trkpt>
      <trkpt lat="60.37715" lon="7.63876">
        <ele>1250.81</ele>
        <time>2019-04-05T13:45:38Z</time>
      </trkpt>
      <trkpt lat="60.37718" lon="7.63872">
        <ele>1251.29</ele>
        <time>2019-04-05T13:45:40Z</time>
      </trkpt>
      <trkpt lat="60.37719" lon="7.63865">
        <ele>1252.25</ele>
        <time>2019-04-05T13:45:47Z</time>
      </trkpt>
      <trkpt lat="60.37718" lon="7.6387">
        <ele>1251.29</ele>
        <time>2019-04-05T13:45:49Z</time>
      </trkpt>
      <trkpt lat="60.3772" lon="7.6388">
        <ele>1252.25</ele>
        <time>2019-04-05T13:45:51Z</time>
      </trkpt>
      <trkpt lat="60.37721" lon="7.63887">
        <ele>1248.89</ele>
        <time>2019-04-05T13:45:52Z</time>
      </trkpt>
      <trkpt lat="60.37723" lon="7.63901">
        <ele>1247.93</ele>
        <time>2019-04-05T13:45:54Z</time>
      </trkpt>
      <trkpt lat="60.37738" lon="7.63947">
        <ele>1245.04</ele>
        <time>2019-04-05T13:46:07Z</time>
      </trkpt>
      <trkpt lat="60.37747" lon="7.63976">
        <ele>1242.64</ele>
        <time>2019-04-05T13:46:23Z</time>
      </trkpt>
      <trkpt lat="60.37751" lon="7.63989">
        <ele>1242.16</ele>
        <time>2019-04-05T13:46:36Z</time>
      </trkpt>
      <trkpt lat="60.37758" lon="7.64003">
        <ele>1241.68</ele>
        <time>2019-04-05T13:46:50Z</time>
      </trkpt>
      <trkpt lat="60.37758" lon="7.64003">
        <ele>1241.68</ele>
        <time>2019-04-05T13:46:51Z</time>
      </trkpt>
      <trkpt lat="60.37764" lon="7.64013">
        <ele>1241.68</ele>
        <time>2019-04-05T13:47:03Z</time>
      </trkpt>
      <trkpt lat="60.3777" lon="7.64024">
        <ele>1240.72</ele>
        <time>2019-04-05T13:47:15Z</time>
      </trkpt>
      <trkpt lat="60.37773" lon="7.64033">
        <ele>1241.2</ele>
        <time>2019-04-05T13:47:24Z</time>
      </trkpt>
      <trkpt lat="60.37774" lon="7.64034">
        <ele>1239.76</ele>
        <time>2019-04-05T13:47:26Z</time>
      </trkpt>
      <trkpt lat="60.37772" lon="7.64035">
        <ele>1238.8</ele>
        <time>2019-04-05T13:47:30Z</time>
      </trkpt>
      <trkpt lat="60.3777" lon="7.64029">
        <ele>1238.8</ele>
        <time>2019-04-05T13:47:32Z</time>
      </trkpt>
      <trkpt lat="60.3777" lon="7.64025">
        <ele>1240.24</ele>
        <time>2019-04-05T13:47:33Z</time>
      </trkpt>
      <trkpt lat="60.3777" lon="7.64024">
        <ele>1240.24</ele>
        <time>2019-04-05T13:47:34Z</time>
      </trkpt>
      <trkpt lat="60.37773" lon="7.6401">
        <ele>1242.16</ele>
        <time>2019-04-05T13:47:41Z</time>
      </trkpt>
      <trkpt lat="60.37776" lon="7.64">
        <ele>1243.6</ele>
        <time>2019-04-05T13:47:48Z</time>
      </trkpt>
      <trkpt lat="60.37778" lon="7.6399">
        <ele>1244.08</ele>
        <time>2019-04-05T13:47:53Z</time>
      </trkpt>
      <trkpt lat="60.37781" lon="7.63971">
        <ele>1245.53</ele>
        <time>2019-04-05T13:48:02Z</time>
      </trkpt>
      <trkpt lat="60.37782" lon="7.63963">
        <ele>1246.49</ele>
        <time>2019-04-05T13:48:07Z</time>
      </trkpt>
      <trkpt lat="60.37784" lon="7.63951">
        <ele>1247.45</ele>
        <time>2019-04-05T13:48:10Z</time>
      </trkpt>
      <trkpt lat="60.37789" lon="7.63934">
        <ele>1250.33</ele>
        <time>2019-04-05T13:48:17Z</time>
      </trkpt>
      <trkpt lat="60.37793" lon="7.63913">
        <ele>1251.77</ele>
        <time>2019-04-05T13:48:27Z</time>
      </trkpt>
      <trkpt lat="60.37795" lon="7.63897">
        <ele>1253.7</ele>
        <time>2019-04-05T13:48:33Z</time>
      </trkpt>
      <trkpt lat="60.37796" lon="7.63889">
        <ele>1255.14</ele>
        <time>2019-04-05T13:48:37Z</time>
      </trkpt>
      <trkpt lat="60.37796" lon="7.63884">
        <ele>1255.14</ele>
        <time>2019-04-05T13:48:40Z</time>
      </trkpt>
      <trkpt lat="60.37797" lon="7.63871">
        <ele>1257.06</ele>
        <time>2019-04-05T13:48:46Z</time>
      </trkpt>
      <trkpt lat="60.37799" lon="7.63853">
        <ele>1258.98</ele>
        <time>2019-04-05T13:48:53Z</time>
      </trkpt>
      <trkpt lat="60.378" lon="7.63837">
        <ele>1260.91</ele>
        <time>2019-04-05T13:48:58Z</time>
      </trkpt>
      <trkpt lat="60.37799" lon="7.63827">
        <ele>1262.83</ele>
        <time>2019-04-05T13:49:03Z</time>
      </trkpt>
      <trkpt lat="60.37798" lon="7.63818">
        <ele>1264.27</ele>
        <time>2019-04-05T13:49:07Z</time>
      </trkpt>
      <trkpt lat="60.37797" lon="7.63811">
        <ele>1265.23</ele>
        <time>2019-04-05T13:49:11Z</time>
      </trkpt>
      <trkpt lat="60.37796" lon="7.638">
        <ele>1266.67</ele>
        <time>2019-04-05T13:49:16Z</time>
      </trkpt>
      <trkpt lat="60.37797" lon="7.63781">
        <ele>1269.08</ele>
        <time>2019-04-05T13:49:22Z</time>
      </trkpt>
      <trkpt lat="60.37802" lon="7.63771">
        <ele>1271</ele>
        <time>2019-04-05T13:49:28Z</time>
      </trkpt>
      <trkpt lat="60.37805" lon="7.63762">
        <ele>1272.44</ele>
        <time>2019-04-05T13:49:32Z</time>
      </trkpt>
      <trkpt lat="60.37808" lon="7.63754">
        <ele>1273.88</ele>
        <time>2019-04-05T13:49:36Z</time>
      </trkpt>
      <trkpt lat="60.37816" lon="7.63734">
        <ele>1275.81</ele>
        <time>2019-04-05T13:49:44Z</time>
      </trkpt>
      <trkpt lat="60.37816" lon="7.63731">
        <ele>1276.29</ele>
        <time>2019-04-05T13:49:46Z</time>
      </trkpt>
      <trkpt lat="60.37822" lon="7.63724">
        <ele>1277.73</ele>
        <time>2019-04-05T13:49:51Z</time>
      </trkpt>
      <trkpt lat="60.37838" lon="7.63706">
        <ele>1280.13</ele>
        <time>2019-04-05T13:50:03Z</time>
      </trkpt>
      <trkpt lat="60.37838" lon="7.63706">
        <ele>1280.13</ele>
        <time>2019-04-05T13:50:04Z</time>
      </trkpt>
      <trkpt lat="60.37828" lon="7.63748">
        <ele>1280.61</ele>
        <time>2019-04-05T13:50:11Z</time>
      </trkpt>
      <trkpt lat="60.37831" lon="7.63766">
        <ele>1276.77</ele>
        <time>2019-04-05T13:50:13Z</time>
      </trkpt>
      <trkpt lat="60.37836" lon="7.63789">
        <ele>1272.44</ele>
        <time>2019-04-05T13:50:16Z</time>
      </trkpt>
      <trkpt lat="60.3784" lon="7.63821">
        <ele>1269.08</ele>
        <time>2019-04-05T13:50:20Z</time>
      </trkpt>
      <trkpt lat="60.37846" lon="7.6385">
        <ele>1265.71</ele>
        <time>2019-04-05T13:50:24Z</time>
      </trkpt>
      <trkpt lat="60.37849" lon="7.63862">
        <ele>1264.75</ele>
        <time>2019-04-05T13:50:26Z</time>
      </trkpt>
      <trkpt lat="60.37854" lon="7.63887">
        <ele>1262.83</ele>
        <time>2019-04-05T13:50:31Z</time>
      </trkpt>
      <trkpt lat="60.37857" lon="7.63895">
        <ele>1261.87</ele>
        <time>2019-04-05T13:50:37Z</time>
      </trkpt>
      <trkpt lat="60.37862" lon="7.63912">
        <ele>1261.87</ele>
        <time>2019-04-05T13:50:51Z</time>
      </trkpt>
      <trkpt lat="60.37856" lon="7.63917">
        <ele>1259.46</ele>
        <time>2019-04-05T13:50:55Z</time>
      </trkpt>
      <trkpt lat="60.37855" lon="7.63913">
        <ele>1259.46</ele>
        <time>2019-04-05T13:50:57Z</time>
      </trkpt>
      <trkpt lat="60.37854" lon="7.63906">
        <ele>1260.91</ele>
        <time>2019-04-05T13:50:59Z</time>
      </trkpt>
      <trkpt lat="60.37856" lon="7.63881">
        <ele>1263.31</ele>
        <time>2019-04-05T13:51:07Z</time>
      </trkpt>
      <trkpt lat="60.37858" lon="7.63868">
        <ele>1265.23</ele>
        <time>2019-04-05T13:51:11Z</time>
      </trkpt>
      <trkpt lat="60.37865" lon="7.63843">
        <ele>1268.6</ele>
        <time>2019-04-05T13:51:20Z</time>
      </trkpt>
      <trkpt lat="60.37867" lon="7.63833">
        <ele>1270.52</ele>
        <time>2019-04-05T13:51:23Z</time>
      </trkpt>
      <trkpt lat="60.37873" lon="7.63813">
        <ele>1273.4</ele>
        <time>2019-04-05T13:51:30Z</time>
      </trkpt>
      <trkpt lat="60.37875" lon="7.63805">
        <ele>1273.88</ele>
        <time>2019-04-05T13:51:34Z</time>
      </trkpt>
      <trkpt lat="60.37878" lon="7.63793">
        <ele>1274.85</ele>
        <time>2019-04-05T13:51:39Z</time>
      </trkpt>
      <trkpt lat="60.3788" lon="7.6378">
        <ele>1276.77</ele>
        <time>2019-04-05T13:51:42Z</time>
      </trkpt>
      <trkpt lat="60.37891" lon="7.63762">
        <ele>1279.65</ele>
        <time>2019-04-05T13:51:49Z</time>
      </trkpt>
      <trkpt lat="60.37897" lon="7.63757">
        <ele>1280.13</ele>
        <time>2019-04-05T13:51:52Z</time>
      </trkpt>
      <trkpt lat="60.37939" lon="7.63755">
        <ele>1282.54</ele>
        <time>2019-04-05T13:52:06Z</time>
      </trkpt>
      <trkpt lat="60.37971" lon="7.63792">
        <ele>1280.61</ele>
        <time>2019-04-05T13:52:17Z</time>
      </trkpt>
      <trkpt lat="60.37984" lon="7.63828">
        <ele>1276.77</ele>
        <time>2019-04-05T13:52:25Z</time>
      </trkpt>
      <trkpt lat="60.37987" lon="7.63839">
        <ele>1275.81</ele>
        <time>2019-04-05T13:52:28Z</time>
      </trkpt>
      <trkpt lat="60.37984" lon="7.63846">
        <ele>1274.36</ele>
        <time>2019-04-05T13:52:35Z</time>
      </trkpt>
      <trkpt lat="60.37983" lon="7.63851">
        <ele>1274.36</ele>
        <time>2019-04-05T13:52:37Z</time>
      </trkpt>
      <trkpt lat="60.37981" lon="7.63913">
        <ele>1271.48</ele>
        <time>2019-04-05T13:52:54Z</time>
      </trkpt>
      <trkpt lat="60.37983" lon="7.63964">
        <ele>1268.12</ele>
        <time>2019-04-05T13:53:04Z</time>
      </trkpt>
      <trkpt lat="60.37984" lon="7.64006">
        <ele>1264.27</ele>
        <time>2019-04-05T13:53:10Z</time>
      </trkpt>
      <trkpt lat="60.37984" lon="7.64014">
        <ele>1264.27</ele>
        <time>2019-04-05T13:53:11Z</time>
      </trkpt>
      <trkpt lat="60.37985" lon="7.6407">
        <ele>1260.91</ele>
        <time>2019-04-05T13:53:19Z</time>
      </trkpt>
      <trkpt lat="60.3799" lon="7.64118">
        <ele>1257.54</ele>
        <time>2019-04-05T13:53:31Z</time>
      </trkpt>
      <trkpt lat="60.3799" lon="7.64125">
        <ele>1257.06</ele>
        <time>2019-04-05T13:53:36Z</time>
      </trkpt>
      <trkpt lat="60.3799" lon="7.64182">
        <ele>1254.66</ele>
        <time>2019-04-05T13:53:51Z</time>
      </trkpt>
      <trkpt lat="60.37985" lon="7.64222">
        <ele>1253.22</ele>
        <time>2019-04-05T13:54:05Z</time>
      </trkpt>
      <trkpt lat="60.37984" lon="7.64229">
        <ele>1252.25</ele>
        <time>2019-04-05T13:54:06Z</time>
      </trkpt>
      <trkpt lat="60.37978" lon="7.64253">
        <ele>1252.25</ele>
        <time>2019-04-05T13:54:09Z</time>
      </trkpt>
      <trkpt lat="60.37972" lon="7.6429">
        <ele>1250.33</ele>
        <time>2019-04-05T13:54:13Z</time>
      </trkpt>
      <trkpt lat="60.3797" lon="7.64309">
        <ele>1249.37</ele>
        <time>2019-04-05T13:54:15Z</time>
      </trkpt>
      <trkpt lat="60.37965" lon="7.6431">
        <ele>1246.49</ele>
        <time>2019-04-05T13:54:18Z</time>
      </trkpt>
      <trkpt lat="60.37965" lon="7.64308">
        <ele>1247.45</ele>
        <time>2019-04-05T13:54:20Z</time>
      </trkpt>
      <trkpt lat="60.37967" lon="7.64307">
        <ele>1247.93</ele>
        <time>2019-04-05T13:54:30Z</time>
      </trkpt>
      <trkpt lat="60.37968" lon="7.64306">
        <ele>1247.93</ele>
        <time>2019-04-05T13:54:31Z</time>
      </trkpt>
      <trkpt lat="60.37974" lon="7.643">
        <ele>1249.37</ele>
        <time>2019-04-05T13:54:41Z</time>
      </trkpt>
      <trkpt lat="60.37975" lon="7.643">
        <ele>1249.37</ele>
        <time>2019-04-05T13:54:44Z</time>
      </trkpt>
      <trkpt lat="60.3799" lon="7.64282">
        <ele>1251.29</ele>
        <time>2019-04-05T13:54:56Z</time>
      </trkpt>
      <trkpt lat="60.37999" lon="7.64281">
        <ele>1251.77</ele>
        <time>2019-04-05T13:55:02Z</time>
      </trkpt>
      <trkpt lat="60.38006" lon="7.64275">
        <ele>1252.25</ele>
        <time>2019-04-05T13:55:06Z</time>
      </trkpt>
      <trkpt lat="60.38008" lon="7.64273">
        <ele>1252.25</ele>
        <time>2019-04-05T13:55:07Z</time>
      </trkpt>
      <trkpt lat="60.38011" lon="7.64272">
        <ele>1252.74</ele>
        <time>2019-04-05T13:55:08Z</time>
      </trkpt>
      <trkpt lat="60.38014" lon="7.64271">
        <ele>1252.74</ele>
        <time>2019-04-05T13:55:09Z</time>
      </trkpt>
      <trkpt lat="60.38054" lon="7.64275">
        <ele>1253.7</ele>
        <time>2019-04-05T13:55:23Z</time>
      </trkpt>
      <trkpt lat="60.38063" lon="7.64276">
        <ele>1253.7</ele>
        <time>2019-04-05T13:55:27Z</time>
      </trkpt>
      <trkpt lat="60.38062" lon="7.64275">
        <ele>1253.7</ele>
        <time>2019-04-05T13:55:31Z</time>
      </trkpt>
      <trkpt lat="60.38061" lon="7.6428">
        <ele>1253.7</ele>
        <time>2019-04-05T13:55:32Z</time>
      </trkpt>
      <trkpt lat="60.3806" lon="7.64286">
        <ele>1253.7</ele>
        <time>2019-04-05T13:55:33Z</time>
      </trkpt>
      <trkpt lat="60.38058" lon="7.64301">
        <ele>1253.7</ele>
        <time>2019-04-05T13:55:35Z</time>
      </trkpt>
      <trkpt lat="60.38055" lon="7.64344">
        <ele>1249.85</ele>
        <time>2019-04-05T13:55:40Z</time>
      </trkpt>
      <trkpt lat="60.38055" lon="7.64367">
        <ele>1248.41</ele>
        <time>2019-04-05T13:55:43Z</time>
      </trkpt>
      <trkpt lat="60.38052" lon="7.64373">
        <ele>1246.97</ele>
        <time>2019-04-05T13:55:45Z</time>
      </trkpt>
      <trkpt lat="60.38061" lon="7.64361">
        <ele>1248.89</ele>
        <time>2019-04-05T13:55:50Z</time>
      </trkpt>
      <trkpt lat="60.38073" lon="7.64359">
        <ele>1249.37</ele>
        <time>2019-04-05T13:55:54Z</time>
      </trkpt>
      <trkpt lat="60.38116" lon="7.64359">
        <ele>1250.33</ele>
        <time>2019-04-05T13:56:09Z</time>
      </trkpt>
      <trkpt lat="60.38155" lon="7.64354">
        <ele>1250.33</ele>
        <time>2019-04-05T13:56:19Z</time>
      </trkpt>
      <trkpt lat="60.3817" lon="7.64375">
        <ele>1249.85</ele>
        <time>2019-04-05T13:56:26Z</time>
      </trkpt>
      <trkpt lat="60.38183" lon="7.64401">
        <ele>1247.93</ele>
        <time>2019-04-05T13:56:41Z</time>
      </trkpt>
      <trkpt lat="60.38187" lon="7.64402">
        <ele>1247.93</ele>
        <time>2019-04-05T13:56:45Z</time>
      </trkpt>
      <trkpt lat="60.38189" lon="7.64403">
        <ele>1247.93</ele>
        <time>2019-04-05T13:56:46Z</time>
      </trkpt>
      <trkpt lat="60.38191" lon="7.64404">
        <ele>1247.93</ele>
        <time>2019-04-05T13:56:47Z</time>
      </trkpt>
      <trkpt lat="60.38188" lon="7.64426">
        <ele>1246.01</ele>
        <time>2019-04-05T13:56:55Z</time>
      </trkpt>
      <trkpt lat="60.38188" lon="7.64433">
        <ele>1245.53</ele>
        <time>2019-04-05T13:56:56Z</time>
      </trkpt>
      <trkpt lat="60.38189" lon="7.64448">
        <ele>1244.08</ele>
        <time>2019-04-05T13:56:58Z</time>
      </trkpt>
      <trkpt lat="60.38193" lon="7.64491">
        <ele>1240.24</ele>
        <time>2019-04-05T13:57:05Z</time>
      </trkpt>
      <trkpt lat="60.38193" lon="7.64496">
        <ele>1240.24</ele>
        <time>2019-04-05T13:57:06Z</time>
      </trkpt>
      <trkpt lat="60.38193" lon="7.64507">
        <ele>1238.8</ele>
        <time>2019-04-05T13:57:08Z</time>
      </trkpt>
      <trkpt lat="60.38191" lon="7.64513">
        <ele>1237.35</ele>
        <time>2019-04-05T13:57:10Z</time>
      </trkpt>
      <trkpt lat="60.3819" lon="7.64508">
        <ele>1239.28</ele>
        <time>2019-04-05T13:57:13Z</time>
      </trkpt>
      <trkpt lat="60.38193" lon="7.64505">
        <ele>1240.24</ele>
        <time>2019-04-05T13:57:14Z</time>
      </trkpt>
      <trkpt lat="60.38197" lon="7.64503">
        <ele>1240.72</ele>
        <time>2019-04-05T13:57:16Z</time>
      </trkpt>
      <trkpt lat="60.38219" lon="7.64503">
        <ele>1242.16</ele>
        <time>2019-04-05T13:57:27Z</time>
      </trkpt>
      <trkpt lat="60.38222" lon="7.64503">
        <ele>1242.16</ele>
        <time>2019-04-05T13:57:29Z</time>
      </trkpt>
      <trkpt lat="60.38223" lon="7.64501">
        <ele>1242.16</ele>
        <time>2019-04-05T13:57:30Z</time>
      </trkpt>
      <trkpt lat="60.38224" lon="7.645">
        <ele>1242.16</ele>
        <time>2019-04-05T13:57:31Z</time>
      </trkpt>
      <trkpt lat="60.38226" lon="7.64499">
        <ele>1242.16</ele>
        <time>2019-04-05T13:57:32Z</time>
      </trkpt>
      <trkpt lat="60.38228" lon="7.64497">
        <ele>1243.12</ele>
        <time>2019-04-05T13:57:33Z</time>
      </trkpt>
      <trkpt lat="60.38239" lon="7.64495">
        <ele>1244.56</ele>
        <time>2019-04-05T13:57:39Z</time>
      </trkpt>
      <trkpt lat="60.38256" lon="7.64473">
        <ele>1247.93</ele>
        <time>2019-04-05T13:57:49Z</time>
      </trkpt>
      <trkpt lat="60.38258" lon="7.64472">
        <ele>1247.93</ele>
        <time>2019-04-05T13:57:50Z</time>
      </trkpt>
      <trkpt lat="60.38273" lon="7.64457">
        <ele>1251.29</ele>
        <time>2019-04-05T13:57:59Z</time>
      </trkpt>
      <trkpt lat="60.38278" lon="7.6445">
        <ele>1252.74</ele>
        <time>2019-04-05T13:58:03Z</time>
      </trkpt>
      <trkpt lat="60.38282" lon="7.64445">
        <ele>1254.18</ele>
        <time>2019-04-05T13:58:08Z</time>
      </trkpt>
      <trkpt lat="60.38281" lon="7.64453">
        <ele>1253.7</ele>
        <time>2019-04-05T13:58:16Z</time>
      </trkpt>
      <trkpt lat="60.38281" lon="7.64469">
        <ele>1253.22</ele>
        <time>2019-04-05T13:58:18Z</time>
      </trkpt>
      <trkpt lat="60.38281" lon="7.64488">
        <ele>1251.77</ele>
        <time>2019-04-05T13:58:20Z</time>
      </trkpt>
      <trkpt lat="60.38283" lon="7.64515">
        <ele>1249.37</ele>
        <time>2019-04-05T13:58:23Z</time>
      </trkpt>
      <trkpt lat="60.38287" lon="7.64538">
        <ele>1246.01</ele>
        <time>2019-04-05T13:58:26Z</time>
      </trkpt>
      <trkpt lat="60.38289" lon="7.6455">
        <ele>1245.04</ele>
        <time>2019-04-05T13:58:28Z</time>
      </trkpt>
      <trkpt lat="60.38291" lon="7.64566">
        <ele>1243.12</ele>
        <time>2019-04-05T13:58:31Z</time>
      </trkpt>
      <trkpt lat="60.38294" lon="7.64588">
        <ele>1242.16</ele>
        <time>2019-04-05T13:58:35Z</time>
      </trkpt>
      <trkpt lat="60.38291" lon="7.64591">
        <ele>1238.32</ele>
        <time>2019-04-05T13:58:37Z</time>
      </trkpt>
      <trkpt lat="60.3829" lon="7.64587">
        <ele>1240.24</ele>
        <time>2019-04-05T13:58:38Z</time>
      </trkpt>
      <trkpt lat="60.38292" lon="7.64584">
        <ele>1240.72</ele>
        <time>2019-04-05T13:58:39Z</time>
      </trkpt>
      <trkpt lat="60.38293" lon="7.64579">
        <ele>1241.68</ele>
        <time>2019-04-05T13:58:41Z</time>
      </trkpt>
      <trkpt lat="60.38293" lon="7.64575">
        <ele>1241.68</ele>
        <time>2019-04-05T13:58:42Z</time>
      </trkpt>
      <trkpt lat="60.38293" lon="7.64572">
        <ele>1243.6</ele>
        <time>2019-04-05T13:58:49Z</time>
      </trkpt>
      <trkpt lat="60.38295" lon="7.64569">
        <ele>1243.6</ele>
        <time>2019-04-05T13:58:58Z</time>
      </trkpt>
      <trkpt lat="60.38296" lon="7.64566">
        <ele>1243.6</ele>
        <time>2019-04-05T13:59:00Z</time>
      </trkpt>
      <trkpt lat="60.38297" lon="7.64564">
        <ele>1244.08</ele>
        <time>2019-04-05T13:59:02Z</time>
      </trkpt>
      <trkpt lat="60.383" lon="7.64555">
        <ele>1245.04</ele>
        <time>2019-04-05T13:59:10Z</time>
      </trkpt>
      <trkpt lat="60.38303" lon="7.64544">
        <ele>1246.49</ele>
        <time>2019-04-05T13:59:15Z</time>
      </trkpt>
      <trkpt lat="60.38304" lon="7.64538">
        <ele>1246.49</ele>
        <time>2019-04-05T13:59:19Z</time>
      </trkpt>
      <trkpt lat="60.38306" lon="7.64519">
        <ele>1248.89</ele>
        <time>2019-04-05T13:59:25Z</time>
      </trkpt>
      <trkpt lat="60.38308" lon="7.64506">
        <ele>1250.33</ele>
        <time>2019-04-05T13:59:29Z</time>
      </trkpt>
      <trkpt lat="60.38311" lon="7.64489">
        <ele>1252.74</ele>
        <time>2019-04-05T13:59:34Z</time>
      </trkpt>
      <trkpt lat="60.38314" lon="7.64478">
        <ele>1254.18</ele>
        <time>2019-04-05T13:59:38Z</time>
      </trkpt>
      <trkpt lat="60.38318" lon="7.64463">
        <ele>1256.1</ele>
        <time>2019-04-05T13:59:42Z</time>
      </trkpt>
      <trkpt lat="60.3832" lon="7.64442">
        <ele>1258.98</ele>
        <time>2019-04-05T13:59:47Z</time>
      </trkpt>
      <trkpt lat="60.38327" lon="7.64411">
        <ele>1262.83</ele>
        <time>2019-04-05T13:59:56Z</time>
      </trkpt>
      <trkpt lat="60.38328" lon="7.64409">
        <ele>1262.83</ele>
        <time>2019-04-05T13:59:57Z</time>
      </trkpt>
      <trkpt lat="60.38336" lon="7.64378">
        <ele>1266.19</ele>
        <time>2019-04-05T14:00:05Z</time>
      </trkpt>
      <trkpt lat="60.38341" lon="7.64364">
        <ele>1267.64</ele>
        <time>2019-04-05T14:00:09Z</time>
      </trkpt>
      <trkpt lat="60.38348" lon="7.64344">
        <ele>1271</ele>
        <time>2019-04-05T14:00:15Z</time>
      </trkpt>
      <trkpt lat="60.38364" lon="7.64345">
        <ele>1270.52</ele>
        <time>2019-04-05T14:00:23Z</time>
      </trkpt>
      <trkpt lat="60.38397" lon="7.64372">
        <ele>1267.16</ele>
        <time>2019-04-05T14:00:32Z</time>
      </trkpt>
      <trkpt lat="60.38418" lon="7.64378">
        <ele>1266.19</ele>
        <time>2019-04-05T14:00:40Z</time>
      </trkpt>
      <trkpt lat="60.38429" lon="7.64369">
        <ele>1267.16</ele>
        <time>2019-04-05T14:00:49Z</time>
      </trkpt>
      <trkpt lat="60.38434" lon="7.64362">
        <ele>1267.64</ele>
        <time>2019-04-05T14:00:54Z</time>
      </trkpt>
      <trkpt lat="60.38465" lon="7.64365">
        <ele>1268.6</ele>
        <time>2019-04-05T14:01:07Z</time>
      </trkpt>
      <trkpt lat="60.38484" lon="7.64394">
        <ele>1265.71</ele>
        <time>2019-04-05T14:01:16Z</time>
      </trkpt>
      <trkpt lat="60.38486" lon="7.64395">
        <ele>1265.71</ele>
        <time>2019-04-05T14:01:17Z</time>
      </trkpt>
      <trkpt lat="60.3848" lon="7.64402">
        <ele>1264.27</ele>
        <time>2019-04-05T14:01:22Z</time>
      </trkpt>
      <trkpt lat="60.38476" lon="7.64438">
        <ele>1261.87</ele>
        <time>2019-04-05T14:01:27Z</time>
      </trkpt>
      <trkpt lat="60.38483" lon="7.64488">
        <ele>1258.5</ele>
        <time>2019-04-05T14:01:35Z</time>
      </trkpt>
      <trkpt lat="60.38483" lon="7.64494">
        <ele>1258.5</ele>
        <time>2019-04-05T14:01:36Z</time>
      </trkpt>
      <trkpt lat="60.38484" lon="7.64508">
        <ele>1257.06</ele>
        <time>2019-04-05T14:01:38Z</time>
      </trkpt>
      <trkpt lat="60.38487" lon="7.64551">
        <ele>1254.66</ele>
        <time>2019-04-05T14:01:44Z</time>
      </trkpt>
      <trkpt lat="60.38497" lon="7.64598">
        <ele>1251.29</ele>
        <time>2019-04-05T14:01:55Z</time>
      </trkpt>
      <trkpt lat="60.385" lon="7.64631">
        <ele>1248.89</ele>
        <time>2019-04-05T14:02:02Z</time>
      </trkpt>
      <trkpt lat="60.38503" lon="7.64665">
        <ele>1246.97</ele>
        <time>2019-04-05T14:02:08Z</time>
      </trkpt>
      <trkpt lat="60.38512" lon="7.64708">
        <ele>1245.53</ele>
        <time>2019-04-05T14:02:22Z</time>
      </trkpt>
      <trkpt lat="60.38515" lon="7.64742">
        <ele>1243.12</ele>
        <time>2019-04-05T14:02:29Z</time>
      </trkpt>
      <trkpt lat="60.3852" lon="7.64778">
        <ele>1239.76</ele>
        <time>2019-04-05T14:02:39Z</time>
      </trkpt>
      <trkpt lat="60.3852" lon="7.64784">
        <ele>1239.76</ele>
        <time>2019-04-05T14:02:40Z</time>
      </trkpt>
      <trkpt lat="60.38523" lon="7.64854">
        <ele>1236.87</ele>
        <time>2019-04-05T14:02:51Z</time>
      </trkpt>
      <trkpt lat="60.38528" lon="7.64896">
        <ele>1234.47</ele>
        <time>2019-04-05T14:03:00Z</time>
      </trkpt>
      <trkpt lat="60.3853" lon="7.64935">
        <ele>1232.07</ele>
        <time>2019-04-05T14:03:07Z</time>
      </trkpt>
      <trkpt lat="60.38535" lon="7.64978">
        <ele>1231.11</ele>
        <time>2019-04-05T14:03:17Z</time>
      </trkpt>
      <trkpt lat="60.3853" lon="7.64981">
        <ele>1228.22</ele>
        <time>2019-04-05T14:03:20Z</time>
      </trkpt>
      <trkpt lat="60.38528" lon="7.64973">
        <ele>1229.66</ele>
        <time>2019-04-05T14:03:23Z</time>
      </trkpt>
      <trkpt lat="60.38532" lon="7.64958">
        <ele>1232.07</ele>
        <time>2019-04-05T14:03:32Z</time>
      </trkpt>
      <trkpt lat="60.38532" lon="7.64944">
        <ele>1232.07</ele>
        <time>2019-04-05T14:03:36Z</time>
      </trkpt>
      <trkpt lat="60.38551" lon="7.6491">
        <ele>1235.91</ele>
        <time>2019-04-05T14:03:48Z</time>
      </trkpt>
      <trkpt lat="60.38555" lon="7.64906">
        <ele>1235.91</ele>
        <time>2019-04-05T14:03:51Z</time>
      </trkpt>
      <trkpt lat="60.38573" lon="7.64893">
        <ele>1236.87</ele>
        <time>2019-04-05T14:04:03Z</time>
      </trkpt>
      <trkpt lat="60.3858" lon="7.64887">
        <ele>1237.35</ele>
        <time>2019-04-05T14:04:08Z</time>
      </trkpt>
      <trkpt lat="60.38582" lon="7.64879">
        <ele>1237.35</ele>
        <time>2019-04-05T14:04:11Z</time>
      </trkpt>
      <trkpt lat="60.38583" lon="7.64875">
        <ele>1237.35</ele>
        <time>2019-04-05T14:04:12Z</time>
      </trkpt>
      <trkpt lat="60.38585" lon="7.64872">
        <ele>1237.83</ele>
        <time>2019-04-05T14:04:13Z</time>
      </trkpt>
      <trkpt lat="60.38591" lon="7.6485">
        <ele>1238.8</ele>
        <time>2019-04-05T14:04:17Z</time>
      </trkpt>
      <trkpt lat="60.38594" lon="7.64846">
        <ele>1239.28</ele>
        <time>2019-04-05T14:04:18Z</time>
      </trkpt>
      <trkpt lat="60.38596" lon="7.64843">
        <ele>1239.28</ele>
        <time>2019-04-05T14:04:19Z</time>
      </trkpt>
      <trkpt lat="60.38617" lon="7.64822">
        <ele>1240.24</ele>
        <time>2019-04-05T14:04:29Z</time>
      </trkpt>
      <trkpt lat="60.38662" lon="7.64832">
        <ele>1238.8</ele>
        <time>2019-04-05T14:04:42Z</time>
      </trkpt>
      <trkpt lat="60.38695" lon="7.64865">
        <ele>1235.43</ele>
        <time>2019-04-05T14:04:54Z</time>
      </trkpt>
      <trkpt lat="60.38714" lon="7.64909">
        <ele>1232.55</ele>
        <time>2019-04-05T14:05:04Z</time>
      </trkpt>
      <trkpt lat="60.38725" lon="7.64945">
        <ele>1229.66</ele>
        <time>2019-04-05T14:05:10Z</time>
      </trkpt>
      <trkpt lat="60.38739" lon="7.64982">
        <ele>1226.78</ele>
        <time>2019-04-05T14:05:17Z</time>
      </trkpt>
      <trkpt lat="60.38743" lon="7.64994">
        <ele>1225.82</ele>
        <time>2019-04-05T14:05:19Z</time>
      </trkpt>
      <trkpt lat="60.38751" lon="7.65011">
        <ele>1223.9</ele>
        <time>2019-04-05T14:05:22Z</time>
      </trkpt>
      <trkpt lat="60.38773" lon="7.65035">
        <ele>1219.57</ele>
        <time>2019-04-05T14:05:27Z</time>
      </trkpt>
      <trkpt lat="60.38795" lon="7.65056">
        <ele>1215.24</ele>
        <time>2019-04-05T14:05:31Z</time>
      </trkpt>
      <trkpt lat="60.38812" lon="7.65075">
        <ele>1211.88</ele>
        <time>2019-04-05T14:05:34Z</time>
      </trkpt>
      <trkpt lat="60.38828" lon="7.6509">
        <ele>1210.44</ele>
        <time>2019-04-05T14:05:37Z</time>
      </trkpt>
      <trkpt lat="60.38843" lon="7.65102">
        <ele>1208.51</ele>
        <time>2019-04-05T14:05:40Z</time>
      </trkpt>
      <trkpt lat="60.38872" lon="7.65125">
        <ele>1204.67</ele>
        <time>2019-04-05T14:05:46Z</time>
      </trkpt>
      <trkpt lat="60.38906" lon="7.65145">
        <ele>1202.75</ele>
        <time>2019-04-05T14:05:57Z</time>
      </trkpt>
      <trkpt lat="60.38907" lon="7.65144">
        <ele>1202.75</ele>
        <time>2019-04-05T14:05:59Z</time>
      </trkpt>
      <trkpt lat="60.38922" lon="7.65127">
        <ele>1202.75</ele>
        <time>2019-04-05T14:06:06Z</time>
      </trkpt>
      <trkpt lat="60.38933" lon="7.65131">
        <ele>1202.27</ele>
        <time>2019-04-05T14:06:14Z</time>
      </trkpt>
      <trkpt lat="60.38933" lon="7.65129">
        <ele>1202.75</ele>
        <time>2019-04-05T14:06:21Z</time>
      </trkpt>
      <trkpt lat="60.38927" lon="7.65139">
        <ele>1202.75</ele>
        <time>2019-04-05T14:06:29Z</time>
      </trkpt>
      <trkpt lat="60.38926" lon="7.6515">
        <ele>1201.79</ele>
        <time>2019-04-05T14:06:34Z</time>
      </trkpt>
      <trkpt lat="60.3892" lon="7.65162">
        <ele>1203.23</ele>
        <time>2019-04-05T14:06:39Z</time>
      </trkpt>
      <trkpt lat="60.38913" lon="7.65169">
        <ele>1203.71</ele>
        <time>2019-04-05T14:06:48Z</time>
      </trkpt>
      <trkpt lat="60.38898" lon="7.6518">
        <ele>1202.75</ele>
        <time>2019-04-05T14:06:59Z</time>
      </trkpt>
      <trkpt lat="60.38886" lon="7.65201">
        <ele>1203.71</ele>
        <time>2019-04-05T14:07:09Z</time>
      </trkpt>
      <trkpt lat="60.38883" lon="7.65188">
        <ele>1203.71</ele>
        <time>2019-04-05T14:07:16Z</time>
      </trkpt>
      <trkpt lat="60.38906" lon="7.65174">
        <ele>1204.19</ele>
        <time>2019-04-05T14:07:27Z</time>
      </trkpt>
      <trkpt lat="60.38942" lon="7.65172">
        <ele>1204.67</ele>
        <time>2019-04-05T14:07:39Z</time>
      </trkpt>
      <trkpt lat="60.38949" lon="7.65173">
        <ele>1203.71</ele>
        <time>2019-04-05T14:07:41Z</time>
      </trkpt>
      <trkpt lat="60.3898" lon="7.65173">
        <ele>1203.71</ele>
        <time>2019-04-05T14:07:53Z</time>
      </trkpt>
      <trkpt lat="60.3901" lon="7.65164">
        <ele>1203.71</ele>
        <time>2019-04-05T14:08:06Z</time>
      </trkpt>
      <trkpt lat="60.39028" lon="7.65163">
        <ele>1203.71</ele>
        <time>2019-04-05T14:08:13Z</time>
      </trkpt>
      <trkpt lat="60.39036" lon="7.65162">
        <ele>1203.71</ele>
        <time>2019-04-05T14:08:19Z</time>
      </trkpt>
      <trkpt lat="60.3904" lon="7.6516">
        <ele>1204.67</ele>
        <time>2019-04-05T14:08:27Z</time>
      </trkpt>
      <trkpt lat="60.39054" lon="7.65151">
        <ele>1205.63</ele>
        <time>2019-04-05T14:08:39Z</time>
      </trkpt>
      <trkpt lat="60.39054" lon="7.6515">
        <ele>1205.63</ele>
        <time>2019-04-05T14:08:40Z</time>
      </trkpt>
      <trkpt lat="60.39047" lon="7.65152">
        <ele>1205.63</ele>
        <time>2019-04-05T14:08:45Z</time>
      </trkpt>
      <trkpt lat="60.3903" lon="7.65202">
        <ele>1204.19</ele>
        <time>2019-04-05T14:08:53Z</time>
      </trkpt>
      <trkpt lat="60.3901" lon="7.65275">
        <ele>1202.27</ele>
        <time>2019-04-05T14:09:05Z</time>
      </trkpt>
      <trkpt lat="60.39005" lon="7.65296">
        <ele>1200.82</ele>
        <time>2019-04-05T14:09:10Z</time>
      </trkpt>
      <trkpt lat="60.38987" lon="7.65348">
        <ele>1199.86</ele>
        <time>2019-04-05T14:09:24Z</time>
      </trkpt>
      <trkpt lat="60.38985" lon="7.65356">
        <ele>1201.3</ele>
        <time>2019-04-05T14:09:26Z</time>
      </trkpt>
      <trkpt lat="60.38984" lon="7.65359">
        <ele>1201.3</ele>
        <time>2019-04-05T14:09:27Z</time>
      </trkpt>
      <trkpt lat="60.38981" lon="7.65358">
        <ele>1199.86</ele>
        <time>2019-04-05T14:09:29Z</time>
      </trkpt>
      <trkpt lat="60.38987" lon="7.65346">
        <ele>1201.79</ele>
        <time>2019-04-05T14:09:32Z</time>
      </trkpt>
      <trkpt lat="60.39029" lon="7.65332">
        <ele>1202.75</ele>
        <time>2019-04-05T14:09:44Z</time>
      </trkpt>
      <trkpt lat="60.39064" lon="7.65319">
        <ele>1202.75</ele>
        <time>2019-04-05T14:09:57Z</time>
      </trkpt>
      <trkpt lat="60.39067" lon="7.65317">
        <ele>1203.23</ele>
        <time>2019-04-05T14:09:59Z</time>
      </trkpt>
      <trkpt lat="60.39082" lon="7.65308">
        <ele>1203.71</ele>
        <time>2019-04-05T14:10:06Z</time>
      </trkpt>
      <trkpt lat="60.39114" lon="7.65305">
        <ele>1205.15</ele>
        <time>2019-04-05T14:10:22Z</time>
      </trkpt>
      <trkpt lat="60.39133" lon="7.65306">
        <ele>1205.15</ele>
        <time>2019-04-05T14:10:34Z</time>
      </trkpt>
      <trkpt lat="60.39154" lon="7.6532">
        <ele>1203.71</ele>
        <time>2019-04-05T14:10:43Z</time>
      </trkpt>
      <trkpt lat="60.39165" lon="7.65327">
        <ele>1203.71</ele>
        <time>2019-04-05T14:10:48Z</time>
      </trkpt>
      <trkpt lat="60.39163" lon="7.65322">
        <ele>1201.3</ele>
        <time>2019-04-05T14:10:53Z</time>
      </trkpt>
      <trkpt lat="60.39159" lon="7.65324">
        <ele>1202.27</ele>
        <time>2019-04-05T14:10:57Z</time>
      </trkpt>
      <trkpt lat="60.39136" lon="7.65359">
        <ele>1202.75</ele>
        <time>2019-04-05T14:11:08Z</time>
      </trkpt>
      <trkpt lat="60.39122" lon="7.65418">
        <ele>1201.79</ele>
        <time>2019-04-05T14:11:20Z</time>
      </trkpt>
      <trkpt lat="60.39105" lon="7.65489">
        <ele>1201.79</ele>
        <time>2019-04-05T14:11:33Z</time>
      </trkpt>
      <trkpt lat="60.39097" lon="7.65545">
        <ele>1198.9</ele>
        <time>2019-04-05T14:11:42Z</time>
      </trkpt>
      <trkpt lat="60.3909" lon="7.65606">
        <ele>1196.02</ele>
        <time>2019-04-05T14:11:52Z</time>
      </trkpt>
      <trkpt lat="60.39088" lon="7.65599">
        <ele>1197.46</ele>
        <time>2019-04-05T14:11:59Z</time>
      </trkpt>
      <trkpt lat="60.39108" lon="7.65594">
        <ele>1198.42</ele>
        <time>2019-04-05T14:12:10Z</time>
      </trkpt>
      <trkpt lat="60.39123" lon="7.65587">
        <ele>1198.42</ele>
        <time>2019-04-05T14:12:16Z</time>
      </trkpt>
      <trkpt lat="60.39151" lon="7.65577">
        <ele>1197.94</ele>
        <time>2019-04-05T14:12:27Z</time>
      </trkpt>
      <trkpt lat="60.39174" lon="7.65564">
        <ele>1198.9</ele>
        <time>2019-04-05T14:12:38Z</time>
      </trkpt>
      <trkpt lat="60.39181" lon="7.65552">
        <ele>1199.38</ele>
        <time>2019-04-05T14:12:49Z</time>
      </trkpt>
      <trkpt lat="60.39182" lon="7.65554">
        <ele>1199.38</ele>
        <time>2019-04-05T14:13:23Z</time>
      </trkpt>
      <trkpt lat="60.3918" lon="7.6555">
        <ele>1199.38</ele>
        <time>2019-04-05T14:13:35Z</time>
      </trkpt>
      <trkpt lat="60.39181" lon="7.65551">
        <ele>1199.38</ele>
        <time>2019-04-05T14:13:51Z</time>
      </trkpt>
      <trkpt lat="60.39182" lon="7.6555">
        <ele>1199.38</ele>
        <time>2019-04-05T14:14:13Z</time>
      </trkpt>
      <trkpt lat="60.39183" lon="7.65549">
        <ele>1197.94</ele>
        <time>2019-04-05T14:14:23Z</time>
      </trkpt>
      <trkpt lat="60.39182" lon="7.6555">
        <ele>1197.94</ele>
        <time>2019-04-05T14:14:37Z</time>
      </trkpt>
      <trkpt lat="60.39182" lon="7.65551">
        <ele>1199.38</ele>
        <time>2019-04-05T14:15:07Z</time>
      </trkpt>
      <trkpt lat="60.39182" lon="7.6555">
        <ele>1197.94</ele>
        <time>2019-04-05T14:15:09Z</time>
      </trkpt>
      <trkpt lat="60.39182" lon="7.65545">
        <ele>1199.38</ele>
        <time>2019-04-05T14:15:27Z</time>
      </trkpt>
      <trkpt lat="60.3918" lon="7.65538">
        <ele>1197.94</ele>
        <time>2019-04-05T14:15:34Z</time>
      </trkpt>
      <trkpt lat="60.39175" lon="7.65531">
        <ele>1197.94</ele>
        <time>2019-04-05T14:15:44Z</time>
      </trkpt>
      <trkpt lat="60.39171" lon="7.65522">
        <ele>1197.94</ele>
        <time>2019-04-05T14:15:55Z</time>
      </trkpt>
      <trkpt lat="60.3917" lon="7.65519">
        <ele>1198.9</ele>
        <time>2019-04-05T14:16:05Z</time>
      </trkpt>
      <trkpt lat="60.3917" lon="7.65518">
        <ele>1199.38</ele>
        <time>2019-04-05T14:16:18Z</time>
      </trkpt>
      <trkpt lat="60.39169" lon="7.65518">
        <ele>1199.38</ele>
        <time>2019-04-05T14:16:35Z</time>
      </trkpt>
      <trkpt lat="60.39166" lon="7.65522">
        <ele>1198.42</ele>
        <time>2019-04-05T14:17:17Z</time>
      </trkpt>
      <trkpt lat="60.39167" lon="7.65522">
        <ele>1198.42</ele>
        <time>2019-04-05T14:17:59Z</time>
      </trkpt>
      <trkpt lat="60.39168" lon="7.6552">
        <ele>1198.42</ele>
        <time>2019-04-05T14:18:35Z</time>
      </trkpt>
      <trkpt lat="60.3917" lon="7.65517">
        <ele>1199.86</ele>
        <time>2019-04-05T14:19:01Z</time>
      </trkpt>
      <trkpt lat="60.3917" lon="7.65518">
        <ele>1200.82</ele>
        <time>2019-04-05T14:19:28Z</time>
      </trkpt>
      <trkpt lat="60.39171" lon="7.65518">
        <ele>1198.42</ele>
        <time>2019-04-05T14:19:49Z</time>
      </trkpt>
      <trkpt lat="60.39171" lon="7.65517">
        <ele>1199.86</ele>
        <time>2019-04-05T14:20:09Z</time>
      </trkpt>
      <trkpt lat="60.3917" lon="7.65516">
        <ele>1201.3</ele>
        <time>2019-04-05T14:20:16Z</time>
      </trkpt>
      <trkpt lat="60.39169" lon="7.65518">
        <ele>1201.79</ele>
        <time>2019-04-05T14:20:28Z</time>
      </trkpt>
      <trkpt lat="60.3917" lon="7.65518">
        <ele>1199.86</ele>
        <time>2019-04-05T14:20:39Z</time>
      </trkpt>
      <trkpt lat="60.39169" lon="7.6552">
        <ele>1201.3</ele>
        <time>2019-04-05T14:20:45Z</time>
      </trkpt>
      <trkpt lat="60.39168" lon="7.65523">
        <ele>1201.79</ele>
        <time>2019-04-05T14:20:59Z</time>
      </trkpt>
      <trkpt lat="60.39168" lon="7.6552">
        <ele>1201.79</ele>
        <time>2019-04-05T14:21:09Z</time>
      </trkpt>
      <trkpt lat="60.39167" lon="7.65517">
        <ele>1201.79</ele>
        <time>2019-04-05T14:21:22Z</time>
      </trkpt>
      <trkpt lat="60.39169" lon="7.65519">
        <ele>1199.86</ele>
        <time>2019-04-05T14:21:47Z</time>
      </trkpt>
      <trkpt lat="60.39166" lon="7.65518">
        <ele>1200.34</ele>
        <time>2019-04-05T14:21:58Z</time>
      </trkpt>
      <trkpt lat="60.39168" lon="7.65525">
        <ele>1199.38</ele>
        <time>2019-04-05T14:22:07Z</time>
      </trkpt>
      <trkpt lat="60.39171" lon="7.6553">
        <ele>1200.34</ele>
        <time>2019-04-05T14:22:15Z</time>
      </trkpt>
      <trkpt lat="60.39171" lon="7.65532">
        <ele>1200.34</ele>
        <time>2019-04-05T14:22:16Z</time>
      </trkpt>
      <trkpt lat="60.39172" lon="7.65535">
        <ele>1200.34</ele>
        <time>2019-04-05T14:22:19Z</time>
      </trkpt>
      <trkpt lat="60.39172" lon="7.65551">
        <ele>1199.38</ele>
        <time>2019-04-05T14:22:30Z</time>
      </trkpt>
      <trkpt lat="60.39173" lon="7.65556">
        <ele>1200.34</ele>
        <time>2019-04-05T14:22:38Z</time>
      </trkpt>
      <trkpt lat="60.39181" lon="7.65551">
        <ele>1200.34</ele>
        <time>2019-04-05T14:22:46Z</time>
      </trkpt>
      <trkpt lat="60.39182" lon="7.65547">
        <ele>1198.9</ele>
        <time>2019-04-05T14:22:51Z</time>
      </trkpt>
      <trkpt lat="60.3918" lon="7.65547">
        <ele>1198.42</ele>
        <time>2019-04-05T14:23:30Z</time>
      </trkpt>
      <trkpt lat="60.3918" lon="7.65545">
        <ele>1198.9</ele>
        <time>2019-04-05T14:24:16Z</time>
      </trkpt>
      <trkpt lat="60.3918" lon="7.65546">
        <ele>1198.9</ele>
        <time>2019-04-05T14:24:38Z</time>
      </trkpt>
      <trkpt lat="60.39179" lon="7.65549">
        <ele>1198.9</ele>
        <time>2019-04-05T14:25:27Z</time>
      </trkpt>
      <trkpt lat="60.39181" lon="7.65551">
        <ele>1201.3</ele>
        <time>2019-04-05T14:25:30Z</time>
      </trkpt>
      <trkpt lat="60.39182" lon="7.65552">
        <ele>1199.38</ele>
        <time>2019-04-05T14:25:36Z</time>
      </trkpt>
      <trkpt lat="60.39179" lon="7.65555">
        <ele>1200.82</ele>
        <time>2019-04-05T14:25:46Z</time>
      </trkpt>
      <trkpt lat="60.39171" lon="7.6556">
        <ele>1200.82</ele>
        <time>2019-04-05T14:25:59Z</time>
      </trkpt>
      <trkpt lat="60.3917" lon="7.65558">
        <ele>1200.82</ele>
        <time>2019-04-05T14:26:15Z</time>
      </trkpt>
      <trkpt lat="60.39168" lon="7.65568">
        <ele>1200.82</ele>
        <time>2019-04-05T14:26:31Z</time>
      </trkpt>
      <trkpt lat="60.39167" lon="7.65572">
        <ele>1200.82</ele>
        <time>2019-04-05T14:26:46Z</time>
      </trkpt>
      <trkpt lat="60.39164" lon="7.65568">
        <ele>1199.86</ele>
        <time>2019-04-05T14:26:58Z</time>
      </trkpt>
      <trkpt lat="60.39161" lon="7.65552">
        <ele>1199.38</ele>
        <time>2019-04-05T14:27:11Z</time>
      </trkpt>
      <trkpt lat="60.39161" lon="7.65554">
        <ele>1199.38</ele>
        <time>2019-04-05T14:27:42Z</time>
      </trkpt>
      <trkpt lat="60.39163" lon="7.6555">
        <ele>1199.38</ele>
        <time>2019-04-05T14:27:56Z</time>
      </trkpt>
      <trkpt lat="60.39164" lon="7.65548">
        <ele>1199.38</ele>
        <time>2019-04-05T14:28:26Z</time>
      </trkpt>
      <trkpt lat="60.39166" lon="7.65545">
        <ele>1199.38</ele>
        <time>2019-04-05T14:28:40Z</time>
      </trkpt>
      <trkpt lat="60.39166" lon="7.65544">
        <ele>1199.38</ele>
        <time>2019-04-05T14:28:45Z</time>
      </trkpt>
      <trkpt lat="60.39156" lon="7.6552">
        <ele>1200.34</ele>
        <time>2019-04-05T14:28:51Z</time>
      </trkpt>
      <trkpt lat="60.39141" lon="7.65479">
        <ele>1201.79</ele>
        <time>2019-04-05T14:29:00Z</time>
      </trkpt>
      <trkpt lat="60.39116" lon="7.65441">
        <ele>1203.23</ele>
        <time>2019-04-05T14:29:07Z</time>
      </trkpt>
      <trkpt lat="60.39081" lon="7.65405">
        <ele>1201.79</ele>
        <time>2019-04-05T14:29:16Z</time>
      </trkpt>
      <trkpt lat="60.39061" lon="7.65385">
        <ele>1201.79</ele>
        <time>2019-04-05T14:29:20Z</time>
      </trkpt>
      <trkpt lat="60.3903" lon="7.65367">
        <ele>1200.82</ele>
        <time>2019-04-05T14:29:27Z</time>
      </trkpt>
      <trkpt lat="60.39018" lon="7.65337">
        <ele>1200.82</ele>
        <time>2019-04-05T14:29:32Z</time>
      </trkpt>
      <trkpt lat="60.39015" lon="7.65289">
        <ele>1200.82</ele>
        <time>2019-04-05T14:29:39Z</time>
      </trkpt>
      <trkpt lat="60.39014" lon="7.65278">
        <ele>1202.27</ele>
        <time>2019-04-05T14:29:41Z</time>
      </trkpt>
      <trkpt lat="60.39009" lon="7.65221">
        <ele>1202.75</ele>
        <time>2019-04-05T14:29:51Z</time>
      </trkpt>
      <trkpt lat="60.39006" lon="7.65203">
        <ele>1202.75</ele>
        <time>2019-04-05T14:29:55Z</time>
      </trkpt>
      <trkpt lat="60.38988" lon="7.65186">
        <ele>1202.75</ele>
        <time>2019-04-05T14:30:05Z</time>
      </trkpt>
      <trkpt lat="60.38983" lon="7.65177">
        <ele>1203.23</ele>
        <time>2019-04-05T14:30:17Z</time>
      </trkpt>
      <trkpt lat="60.38982" lon="7.65176">
        <ele>1203.71</ele>
        <time>2019-04-05T14:30:37Z</time>
      </trkpt>
      <trkpt lat="60.38994" lon="7.6517">
        <ele>1204.19</ele>
        <time>2019-04-05T14:30:45Z</time>
      </trkpt>
      <trkpt lat="60.38995" lon="7.6517">
        <ele>1204.19</ele>
        <time>2019-04-05T14:31:05Z</time>
      </trkpt>
      <trkpt lat="60.39018" lon="7.65173">
        <ele>1205.15</ele>
        <time>2019-04-05T14:31:15Z</time>
      </trkpt>
      <trkpt lat="60.39031" lon="7.65173">
        <ele>1205.15</ele>
        <time>2019-04-05T14:31:19Z</time>
      </trkpt>
      <trkpt lat="60.39058" lon="7.65172">
        <ele>1206.11</ele>
        <time>2019-04-05T14:31:27Z</time>
      </trkpt>
      <trkpt lat="60.39066" lon="7.65174">
        <ele>1206.59</ele>
        <time>2019-04-05T14:31:29Z</time>
      </trkpt>
      <trkpt lat="60.39087" lon="7.65173">
        <ele>1207.55</ele>
        <time>2019-04-05T14:31:34Z</time>
      </trkpt>
      <trkpt lat="60.39139" lon="7.65179">
        <ele>1206.59</ele>
        <time>2019-04-05T14:31:46Z</time>
      </trkpt>
      <trkpt lat="60.39152" lon="7.65169">
        <ele>1203.71</ele>
        <time>2019-04-05T14:31:49Z</time>
      </trkpt>
      <trkpt lat="60.39152" lon="7.65162">
        <ele>1202.75</ele>
        <time>2019-04-05T14:31:51Z</time>
      </trkpt>
      <trkpt lat="60.39145" lon="7.65174">
        <ele>1204.19</ele>
        <time>2019-04-05T14:31:55Z</time>
      </trkpt>
      <trkpt lat="60.39137" lon="7.65191">
        <ele>1205.15</ele>
        <time>2019-04-05T14:32:00Z</time>
      </trkpt>
      <trkpt lat="60.39132" lon="7.65204">
        <ele>1205.15</ele>
        <time>2019-04-05T14:32:03Z</time>
      </trkpt>
      <trkpt lat="60.3913" lon="7.65206">
        <ele>1205.15</ele>
        <time>2019-04-05T14:32:04Z</time>
      </trkpt>
      <trkpt lat="60.39129" lon="7.65207">
        <ele>1205.15</ele>
        <time>2019-04-05T14:32:05Z</time>
      </trkpt>
      <trkpt lat="60.39115" lon="7.65254">
        <ele>1206.59</ele>
        <time>2019-04-05T14:32:14Z</time>
      </trkpt>
      <trkpt lat="60.39091" lon="7.65377">
        <ele>1204.19</ele>
        <time>2019-04-05T14:32:29Z</time>
      </trkpt>
      <trkpt lat="60.39079" lon="7.65435">
        <ele>1202.27</ele>
        <time>2019-04-05T14:32:36Z</time>
      </trkpt>
      <trkpt lat="60.39072" lon="7.65462">
        <ele>1202.27</ele>
        <time>2019-04-05T14:32:39Z</time>
      </trkpt>
      <trkpt lat="60.39065" lon="7.65506">
        <ele>1201.79</ele>
        <time>2019-04-05T14:32:44Z</time>
      </trkpt>
      <trkpt lat="60.39046" lon="7.656">
        <ele>1199.38</ele>
        <time>2019-04-05T14:32:55Z</time>
      </trkpt>
      <trkpt lat="60.39041" lon="7.65625">
        <ele>1198.42</ele>
        <time>2019-04-05T14:32:58Z</time>
      </trkpt>
      <trkpt lat="60.39036" lon="7.6564">
        <ele>1197.94</ele>
        <time>2019-04-05T14:33:00Z</time>
      </trkpt>
      <trkpt lat="60.39025" lon="7.65669">
        <ele>1194.58</ele>
        <time>2019-04-05T14:33:08Z</time>
      </trkpt>
      <trkpt lat="60.39034" lon="7.65655">
        <ele>1196.02</ele>
        <time>2019-04-05T14:33:12Z</time>
      </trkpt>
      <trkpt lat="60.3904" lon="7.65651">
        <ele>1196.02</ele>
        <time>2019-04-05T14:33:14Z</time>
      </trkpt>
      <trkpt lat="60.39059" lon="7.65649">
        <ele>1196.02</ele>
        <time>2019-04-05T14:33:24Z</time>
      </trkpt>
      <trkpt lat="60.39059" lon="7.65644">
        <ele>1196.02</ele>
        <time>2019-04-05T14:33:27Z</time>
      </trkpt>
      <trkpt lat="60.39071" lon="7.65618">
        <ele>1197.46</ele>
        <time>2019-04-05T14:33:33Z</time>
      </trkpt>
      <trkpt lat="60.39079" lon="7.65616">
        <ele>1197.46</ele>
        <time>2019-04-05T14:33:35Z</time>
      </trkpt>
      <trkpt lat="60.39113" lon="7.65616">
        <ele>1198.42</ele>
        <time>2019-04-05T14:33:46Z</time>
      </trkpt>
      <trkpt lat="60.39144" lon="7.65617">
        <ele>1196.98</ele>
        <time>2019-04-05T14:33:54Z</time>
      </trkpt>
      <trkpt lat="60.39166" lon="7.65613">
        <ele>1196.98</ele>
        <time>2019-04-05T14:34:03Z</time>
      </trkpt>
      <trkpt lat="60.39171" lon="7.65609">
        <ele>1198.42</ele>
        <time>2019-04-05T14:34:09Z</time>
      </trkpt>
      <trkpt lat="60.39175" lon="7.65602">
        <ele>1198.42</ele>
        <time>2019-04-05T14:34:20Z</time>
      </trkpt>
      <trkpt lat="60.39181" lon="7.65588">
        <ele>1198.9</ele>
        <time>2019-04-05T14:34:25Z</time>
      </trkpt>
      <trkpt lat="60.39189" lon="7.65575">
        <ele>1199.38</ele>
        <time>2019-04-05T14:34:29Z</time>
      </trkpt>
      <trkpt lat="60.392" lon="7.6557">
        <ele>1200.34</ele>
        <time>2019-04-05T14:34:32Z</time>
      </trkpt>
      <trkpt lat="60.3924" lon="7.65582">
        <ele>1200.82</ele>
        <time>2019-04-05T14:34:40Z</time>
      </trkpt>
      <trkpt lat="60.39249" lon="7.65588">
        <ele>1198.9</ele>
        <time>2019-04-05T14:34:42Z</time>
      </trkpt>
      <trkpt lat="60.3927" lon="7.65598">
        <ele>1196.5</ele>
        <time>2019-04-05T14:34:48Z</time>
      </trkpt>
      <trkpt lat="60.39295" lon="7.65611">
        <ele>1193.13</ele>
        <time>2019-04-05T14:34:53Z</time>
      </trkpt>
      <trkpt lat="60.39301" lon="7.65614">
        <ele>1192.17</ele>
        <time>2019-04-05T14:34:54Z</time>
      </trkpt>
      <trkpt lat="60.39322" lon="7.6563">
        <ele>1186.88</ele>
        <time>2019-04-05T14:34:58Z</time>
      </trkpt>
      <trkpt lat="60.39334" lon="7.65639">
        <ele>1183.52</ele>
        <time>2019-04-05T14:35:00Z</time>
      </trkpt>
      <trkpt lat="60.39344" lon="7.6565">
        <ele>1179.19</ele>
        <time>2019-04-05T14:35:02Z</time>
      </trkpt>
      <trkpt lat="60.39369" lon="7.65657">
        <ele>1175.83</ele>
        <time>2019-04-05T14:35:07Z</time>
      </trkpt>
      <trkpt lat="60.39394" lon="7.65675">
        <ele>1171.98</ele>
        <time>2019-04-05T14:35:11Z</time>
      </trkpt>
      <trkpt lat="60.39412" lon="7.65688">
        <ele>1168.62</ele>
        <time>2019-04-05T14:35:14Z</time>
      </trkpt>
      <trkpt lat="60.39435" lon="7.65699">
        <ele>1165.74</ele>
        <time>2019-04-05T14:35:18Z</time>
      </trkpt>
      <trkpt lat="60.39446" lon="7.65702">
        <ele>1164.29</ele>
        <time>2019-04-05T14:35:20Z</time>
      </trkpt>
      <trkpt lat="60.39466" lon="7.65703">
        <ele>1163.81</ele>
        <time>2019-04-05T14:35:23Z</time>
      </trkpt>
      <trkpt lat="60.39485" lon="7.65705">
        <ele>1162.37</ele>
        <time>2019-04-05T14:35:26Z</time>
      </trkpt>
      <trkpt lat="60.39491" lon="7.65705">
        <ele>1162.37</ele>
        <time>2019-04-05T14:35:27Z</time>
      </trkpt>
      <trkpt lat="60.39506" lon="7.65706">
        <ele>1160.93</ele>
        <time>2019-04-05T14:35:30Z</time>
      </trkpt>
      <trkpt lat="60.39563" lon="7.657">
        <ele>1157.56</ele>
        <time>2019-04-05T14:35:39Z</time>
      </trkpt>
      <trkpt lat="60.39612" lon="7.65689">
        <ele>1154.2</ele>
        <time>2019-04-05T14:35:47Z</time>
      </trkpt>
      <trkpt lat="60.39624" lon="7.6569">
        <ele>1153.72</ele>
        <time>2019-04-05T14:35:49Z</time>
      </trkpt>
      <trkpt lat="60.39639" lon="7.65697">
        <ele>1153.24</ele>
        <time>2019-04-05T14:35:52Z</time>
      </trkpt>
      <trkpt lat="60.39632" lon="7.65697">
        <ele>1151.8</ele>
        <time>2019-04-05T14:35:59Z</time>
      </trkpt>
      <trkpt lat="60.39621" lon="7.65715">
        <ele>1153.24</ele>
        <time>2019-04-05T14:36:02Z</time>
      </trkpt>
      <trkpt lat="60.39614" lon="7.65727">
        <ele>1153.24</ele>
        <time>2019-04-05T14:36:04Z</time>
      </trkpt>
      <trkpt lat="60.39607" lon="7.65743">
        <ele>1153.72</ele>
        <time>2019-04-05T14:36:06Z</time>
      </trkpt>
      <trkpt lat="60.39591" lon="7.65768">
        <ele>1154.2</ele>
        <time>2019-04-05T14:36:10Z</time>
      </trkpt>
      <trkpt lat="60.39585" lon="7.65783">
        <ele>1155.64</ele>
        <time>2019-04-05T14:36:12Z</time>
      </trkpt>
      <trkpt lat="60.39578" lon="7.65794">
        <ele>1156.12</ele>
        <time>2019-04-05T14:36:14Z</time>
      </trkpt>
      <trkpt lat="60.39564" lon="7.65824">
        <ele>1157.08</ele>
        <time>2019-04-05T14:36:18Z</time>
      </trkpt>
      <trkpt lat="60.3955" lon="7.65866">
        <ele>1157.56</ele>
        <time>2019-04-05T14:36:23Z</time>
      </trkpt>
      <trkpt lat="60.39536" lon="7.65922">
        <ele>1157.56</ele>
        <time>2019-04-05T14:36:29Z</time>
      </trkpt>
      <trkpt lat="60.39523" lon="7.65994">
        <ele>1155.64</ele>
        <time>2019-04-05T14:36:37Z</time>
      </trkpt>
      <trkpt lat="60.39506" lon="7.66078">
        <ele>1152.28</ele>
        <time>2019-04-05T14:36:45Z</time>
      </trkpt>
      <trkpt lat="60.39503" lon="7.66091">
        <ele>1152.28</ele>
        <time>2019-04-05T14:36:46Z</time>
      </trkpt>
      <trkpt lat="60.39494" lon="7.66131">
        <ele>1150.35</ele>
        <time>2019-04-05T14:36:49Z</time>
      </trkpt>
      <trkpt lat="60.39486" lon="7.66172">
        <ele>1147.47</ele>
        <time>2019-04-05T14:36:52Z</time>
      </trkpt>
      <trkpt lat="60.39474" lon="7.66239">
        <ele>1145.07</ele>
        <time>2019-04-05T14:36:57Z</time>
      </trkpt>
      <trkpt lat="60.3947" lon="7.66264">
        <ele>1144.59</ele>
        <time>2019-04-05T14:36:59Z</time>
      </trkpt>
      <trkpt lat="60.39456" lon="7.66324">
        <ele>1143.14</ele>
        <time>2019-04-05T14:37:05Z</time>
      </trkpt>
      <trkpt lat="60.39442" lon="7.66382">
        <ele>1143.63</ele>
        <time>2019-04-05T14:37:11Z</time>
      </trkpt>
      <trkpt lat="60.39432" lon="7.66416">
        <ele>1143.14</ele>
        <time>2019-04-05T14:37:15Z</time>
      </trkpt>
      <trkpt lat="60.39408" lon="7.66482">
        <ele>1144.59</ele>
        <time>2019-04-05T14:37:26Z</time>
      </trkpt>
      <trkpt lat="60.39403" lon="7.66496">
        <ele>1145.55</ele>
        <time>2019-04-05T14:37:29Z</time>
      </trkpt>
      <trkpt lat="60.39391" lon="7.66522">
        <ele>1146.51</ele>
        <time>2019-04-05T14:37:39Z</time>
      </trkpt>
      <trkpt lat="60.39372" lon="7.66533">
        <ele>1147.95</ele>
        <time>2019-04-05T14:37:44Z</time>
      </trkpt>
      <trkpt lat="60.39356" lon="7.66554">
        <ele>1149.39</ele>
        <time>2019-04-05T14:37:49Z</time>
      </trkpt>
      <trkpt lat="60.3934" lon="7.6658">
        <ele>1151.32</ele>
        <time>2019-04-05T14:37:54Z</time>
      </trkpt>
      <trkpt lat="60.39336" lon="7.66585">
        <ele>1151.32</ele>
        <time>2019-04-05T14:37:55Z</time>
      </trkpt>
      <trkpt lat="60.39324" lon="7.66618">
        <ele>1153.24</ele>
        <time>2019-04-05T14:37:59Z</time>
      </trkpt>
      <trkpt lat="60.39319" lon="7.66635">
        <ele>1153.24</ele>
        <time>2019-04-05T14:38:01Z</time>
      </trkpt>
      <trkpt lat="60.39308" lon="7.66677">
        <ele>1153.72</ele>
        <time>2019-04-05T14:38:06Z</time>
      </trkpt>
      <trkpt lat="60.39301" lon="7.66702">
        <ele>1153.72</ele>
        <time>2019-04-05T14:38:09Z</time>
      </trkpt>
      <trkpt lat="60.39279" lon="7.66796">
        <ele>1152.76</ele>
        <time>2019-04-05T14:38:18Z</time>
      </trkpt>
      <trkpt lat="60.39272" lon="7.6681">
        <ele>1150.84</ele>
        <time>2019-04-05T14:38:20Z</time>
      </trkpt>
      <trkpt lat="60.39269" lon="7.66802">
        <ele>1151.32</ele>
        <time>2019-04-05T14:38:26Z</time>
      </trkpt>
      <trkpt lat="60.39272" lon="7.66797">
        <ele>1151.32</ele>
        <time>2019-04-05T14:38:35Z</time>
      </trkpt>
      <trkpt lat="60.39287" lon="7.66798">
        <ele>1151.32</ele>
        <time>2019-04-05T14:38:42Z</time>
      </trkpt>
      <trkpt lat="60.39293" lon="7.66813">
        <ele>1149.39</ele>
        <time>2019-04-05T14:38:53Z</time>
      </trkpt>
      <trkpt lat="60.39294" lon="7.66811">
        <ele>1149.39</ele>
        <time>2019-04-05T14:39:17Z</time>
      </trkpt>
      <trkpt lat="60.39292" lon="7.66816">
        <ele>1148.91</ele>
        <time>2019-04-05T14:39:39Z</time>
      </trkpt>
      <trkpt lat="60.39292" lon="7.66816">
        <ele>1150.35</ele>
        <time>2019-04-05T14:39:51Z</time>
      </trkpt>
      <trkpt lat="60.39293" lon="7.66814">
        <ele>1150.35</ele>
        <time>2019-04-05T14:39:58Z</time>
      </trkpt>
      <trkpt lat="60.39303" lon="7.66797">
        <ele>1150.35</ele>
        <time>2019-04-05T14:40:03Z</time>
      </trkpt>
      <trkpt lat="60.39379" lon="7.66769">
        <ele>1148.91</ele>
        <time>2019-04-05T14:40:15Z</time>
      </trkpt>
      <trkpt lat="60.39416" lon="7.66744">
        <ele>1146.03</ele>
        <time>2019-04-05T14:40:20Z</time>
      </trkpt>
      <trkpt lat="60.39457" lon="7.66715">
        <ele>1144.59</ele>
        <time>2019-04-05T14:40:26Z</time>
      </trkpt>
      <trkpt lat="60.39491" lon="7.66695">
        <ele>1141.7</ele>
        <time>2019-04-05T14:40:30Z</time>
      </trkpt>
      <trkpt lat="60.39507" lon="7.66685">
        <ele>1140.26</ele>
        <time>2019-04-05T14:40:32Z</time>
      </trkpt>
      <trkpt lat="60.3954" lon="7.6666">
        <ele>1140.26</ele>
        <time>2019-04-05T14:40:37Z</time>
      </trkpt>
      <trkpt lat="60.39559" lon="7.66639">
        <ele>1141.22</ele>
        <time>2019-04-05T14:40:41Z</time>
      </trkpt>
      <trkpt lat="60.39607" lon="7.66603">
        <ele>1143.63</ele>
        <time>2019-04-05T14:40:51Z</time>
      </trkpt>
      <trkpt lat="60.39657" lon="7.66567">
        <ele>1145.07</ele>
        <time>2019-04-05T14:41:01Z</time>
      </trkpt>
      <trkpt lat="60.39691" lon="7.66548">
        <ele>1145.55</ele>
        <time>2019-04-05T14:41:08Z</time>
      </trkpt>
      <trkpt lat="60.39716" lon="7.66535">
        <ele>1146.03</ele>
        <time>2019-04-05T14:41:14Z</time>
      </trkpt>
      <trkpt lat="60.39741" lon="7.6652">
        <ele>1148.43</ele>
        <time>2019-04-05T14:41:25Z</time>
      </trkpt>
      <trkpt lat="60.39753" lon="7.66503">
        <ele>1148.91</ele>
        <time>2019-04-05T14:41:32Z</time>
      </trkpt>
      <trkpt lat="60.39802" lon="7.66441">
        <ele>1148.91</ele>
        <time>2019-04-05T14:41:43Z</time>
      </trkpt>
      <trkpt lat="60.39818" lon="7.66424">
        <ele>1148.91</ele>
        <time>2019-04-05T14:41:46Z</time>
      </trkpt>
      <trkpt lat="60.39833" lon="7.66399">
        <ele>1150.35</ele>
        <time>2019-04-05T14:41:50Z</time>
      </trkpt>
      <trkpt lat="60.39849" lon="7.66378">
        <ele>1151.8</ele>
        <time>2019-04-05T14:41:54Z</time>
      </trkpt>
      <trkpt lat="60.39857" lon="7.66366">
        <ele>1151.8</ele>
        <time>2019-04-05T14:41:56Z</time>
      </trkpt>
      <trkpt lat="60.39862" lon="7.66351">
        <ele>1151.8</ele>
        <time>2019-04-05T14:41:58Z</time>
      </trkpt>
      <trkpt lat="60.39873" lon="7.6633">
        <ele>1152.28</ele>
        <time>2019-04-05T14:42:01Z</time>
      </trkpt>
      <trkpt lat="60.3988" lon="7.66318">
        <ele>1153.24</ele>
        <time>2019-04-05T14:42:03Z</time>
      </trkpt>
      <trkpt lat="60.39883" lon="7.66312">
        <ele>1153.72</ele>
        <time>2019-04-05T14:42:04Z</time>
      </trkpt>
      <trkpt lat="60.39894" lon="7.66297">
        <ele>1155.64</ele>
        <time>2019-04-05T14:42:08Z</time>
      </trkpt>
      <trkpt lat="60.39899" lon="7.66283">
        <ele>1156.6</ele>
        <time>2019-04-05T14:42:11Z</time>
      </trkpt>
      <trkpt lat="60.39916" lon="7.66259">
        <ele>1158.53</ele>
        <time>2019-04-05T14:42:18Z</time>
      </trkpt>
      <trkpt lat="60.39917" lon="7.66249">
        <ele>1158.53</ele>
        <time>2019-04-05T14:42:20Z</time>
      </trkpt>
      <trkpt lat="60.39934" lon="7.66205">
        <ele>1161.89</ele>
        <time>2019-04-05T14:42:28Z</time>
      </trkpt>
      <trkpt lat="60.39937" lon="7.66181">
        <ele>1164.77</ele>
        <time>2019-04-05T14:42:37Z</time>
      </trkpt>
      <trkpt lat="60.39937" lon="7.66182">
        <ele>1164.77</ele>
        <time>2019-04-05T14:42:38Z</time>
      </trkpt>
      <trkpt lat="60.39934" lon="7.66192">
        <ele>1161.89</ele>
        <time>2019-04-05T14:42:42Z</time>
      </trkpt>
      <trkpt lat="60.39933" lon="7.66196">
        <ele>1161.89</ele>
        <time>2019-04-05T14:42:43Z</time>
      </trkpt>
      <trkpt lat="60.39929" lon="7.66259">
        <ele>1160.93</ele>
        <time>2019-04-05T14:42:53Z</time>
      </trkpt>
      <trkpt lat="60.39921" lon="7.66308">
        <ele>1159.49</ele>
        <time>2019-04-05T14:42:59Z</time>
      </trkpt>
      <trkpt lat="60.39906" lon="7.66385">
        <ele>1157.08</ele>
        <time>2019-04-05T14:43:07Z</time>
      </trkpt>
      <trkpt lat="60.39901" lon="7.66407">
        <ele>1156.6</ele>
        <time>2019-04-05T14:43:09Z</time>
      </trkpt>
      <trkpt lat="60.39889" lon="7.66445">
        <ele>1153.72</ele>
        <time>2019-04-05T14:43:12Z</time>
      </trkpt>
      <trkpt lat="60.39857" lon="7.66515">
        <ele>1157.08</ele>
        <time>2019-04-05T14:43:22Z</time>
      </trkpt>
      <trkpt lat="60.39845" lon="7.66534">
        <ele>1157.56</ele>
        <time>2019-04-05T14:43:27Z</time>
      </trkpt>
      <trkpt lat="60.39835" lon="7.66565">
        <ele>1158.05</ele>
        <time>2019-04-05T14:43:32Z</time>
      </trkpt>
      <trkpt lat="60.39821" lon="7.6662">
        <ele>1158.05</ele>
        <time>2019-04-05T14:43:41Z</time>
      </trkpt>
      <trkpt lat="60.39818" lon="7.66622">
        <ele>1156.6</ele>
        <time>2019-04-05T14:43:44Z</time>
      </trkpt>
      <trkpt lat="60.39817" lon="7.66619">
        <ele>1156.12</ele>
        <time>2019-04-05T14:43:47Z</time>
      </trkpt>
      <trkpt lat="60.3983" lon="7.66604">
        <ele>1157.08</ele>
        <time>2019-04-05T14:43:54Z</time>
      </trkpt>
      <trkpt lat="60.3986" lon="7.66589">
        <ele>1158.53</ele>
        <time>2019-04-05T14:44:10Z</time>
      </trkpt>
      <trkpt lat="60.39872" lon="7.66587">
        <ele>1158.53</ele>
        <time>2019-04-05T14:44:23Z</time>
      </trkpt>
      <trkpt lat="60.39889" lon="7.66591">
        <ele>1158.53</ele>
        <time>2019-04-05T14:44:37Z</time>
      </trkpt>
      <trkpt lat="60.39889" lon="7.66592">
        <ele>1158.53</ele>
        <time>2019-04-05T14:44:38Z</time>
      </trkpt>
      <trkpt lat="60.39887" lon="7.66594">
        <ele>1158.05</ele>
        <time>2019-04-05T14:45:05Z</time>
      </trkpt>
      <trkpt lat="60.39896" lon="7.66591">
        <ele>1159.49</ele>
        <time>2019-04-05T14:45:10Z</time>
      </trkpt>
      <trkpt lat="60.39942" lon="7.66603">
        <ele>1158.05</ele>
        <time>2019-04-05T14:45:22Z</time>
      </trkpt>
      <trkpt lat="60.39948" lon="7.66605">
        <ele>1158.05</ele>
        <time>2019-04-05T14:45:23Z</time>
      </trkpt>
      <trkpt lat="60.39953" lon="7.66606">
        <ele>1158.05</ele>
        <time>2019-04-05T14:45:24Z</time>
      </trkpt>
      <trkpt lat="60.39971" lon="7.66594">
        <ele>1156.12</ele>
        <time>2019-04-05T14:45:32Z</time>
      </trkpt>
      <trkpt lat="60.39971" lon="7.66589">
        <ele>1156.12</ele>
        <time>2019-04-05T14:45:58Z</time>
      </trkpt>
      <trkpt lat="60.39984" lon="7.66588">
        <ele>1157.56</ele>
        <time>2019-04-05T14:46:04Z</time>
      </trkpt>
      <trkpt lat="60.40008" lon="7.6659">
        <ele>1158.05</ele>
        <time>2019-04-05T14:46:15Z</time>
      </trkpt>
      <trkpt lat="60.40012" lon="7.66582">
        <ele>1158.05</ele>
        <time>2019-04-05T14:46:17Z</time>
      </trkpt>
      <trkpt lat="60.4004" lon="7.66568">
        <ele>1158.05</ele>
        <time>2019-04-05T14:46:23Z</time>
      </trkpt>
      <trkpt lat="60.4005" lon="7.66571">
        <ele>1158.53</ele>
        <time>2019-04-05T14:46:25Z</time>
      </trkpt>
      <trkpt lat="60.40064" lon="7.66572">
        <ele>1158.53</ele>
        <time>2019-04-05T14:46:28Z</time>
      </trkpt>
      <trkpt lat="60.40084" lon="7.66575">
        <ele>1159.01</ele>
        <time>2019-04-05T14:46:33Z</time>
      </trkpt>
      <trkpt lat="60.40108" lon="7.66572">
        <ele>1159.49</ele>
        <time>2019-04-05T14:46:39Z</time>
      </trkpt>
      <trkpt lat="60.40128" lon="7.66561">
        <ele>1159.01</ele>
        <time>2019-04-05T14:46:44Z</time>
      </trkpt>
      <trkpt lat="60.4018" lon="7.66567">
        <ele>1159.01</ele>
        <time>2019-04-05T14:46:58Z</time>
      </trkpt>
      <trkpt lat="60.40194" lon="7.66569">
        <ele>1159.49</ele>
        <time>2019-04-05T14:47:02Z</time>
      </trkpt>
      <trkpt lat="60.40202" lon="7.66571">
        <ele>1159.49</ele>
        <time>2019-04-05T14:47:04Z</time>
      </trkpt>
      <trkpt lat="60.40237" lon="7.66574">
        <ele>1158.05</ele>
        <time>2019-04-05T14:47:12Z</time>
      </trkpt>
      <trkpt lat="60.40261" lon="7.66581">
        <ele>1157.56</ele>
        <time>2019-04-05T14:47:17Z</time>
      </trkpt>
      <trkpt lat="60.4028" lon="7.66586">
        <ele>1157.56</ele>
        <time>2019-04-05T14:47:21Z</time>
      </trkpt>
      <trkpt lat="60.40288" lon="7.66587">
        <ele>1157.08</ele>
        <time>2019-04-05T14:47:23Z</time>
      </trkpt>
      <trkpt lat="60.40307" lon="7.66592">
        <ele>1157.08</ele>
        <time>2019-04-05T14:47:32Z</time>
      </trkpt>
      <trkpt lat="60.40317" lon="7.66579">
        <ele>1158.53</ele>
        <time>2019-04-05T14:47:39Z</time>
      </trkpt>
      <trkpt lat="60.40326" lon="7.66579">
        <ele>1159.49</ele>
        <time>2019-04-05T14:47:52Z</time>
      </trkpt>
      <trkpt lat="60.40323" lon="7.66576">
        <ele>1159.49</ele>
        <time>2019-04-05T14:48:03Z</time>
      </trkpt>
      <trkpt lat="60.40307" lon="7.666">
        <ele>1157.56</ele>
        <time>2019-04-05T14:48:09Z</time>
      </trkpt>
      <trkpt lat="60.40296" lon="7.66627">
        <ele>1157.56</ele>
        <time>2019-04-05T14:48:12Z</time>
      </trkpt>
      <trkpt lat="60.40285" lon="7.6665">
        <ele>1157.56</ele>
        <time>2019-04-05T14:48:15Z</time>
      </trkpt>
      <trkpt lat="60.40278" lon="7.66664">
        <ele>1157.56</ele>
        <time>2019-04-05T14:48:17Z</time>
      </trkpt>
      <trkpt lat="60.40262" lon="7.66692">
        <ele>1159.01</ele>
        <time>2019-04-05T14:48:22Z</time>
      </trkpt>
      <trkpt lat="60.40256" lon="7.66703">
        <ele>1159.49</ele>
        <time>2019-04-05T14:48:24Z</time>
      </trkpt>
      <trkpt lat="60.40247" lon="7.66717">
        <ele>1159.49</ele>
        <time>2019-04-05T14:48:27Z</time>
      </trkpt>
      <trkpt lat="60.40232" lon="7.66749">
        <ele>1159.97</ele>
        <time>2019-04-05T14:48:33Z</time>
      </trkpt>
      <trkpt lat="60.40225" lon="7.66769">
        <ele>1160.45</ele>
        <time>2019-04-05T14:48:36Z</time>
      </trkpt>
      <trkpt lat="60.40214" lon="7.66793">
        <ele>1159.97</ele>
        <time>2019-04-05T14:48:40Z</time>
      </trkpt>
      <trkpt lat="60.40203" lon="7.66826">
        <ele>1159.97</ele>
        <time>2019-04-05T14:48:45Z</time>
      </trkpt>
      <trkpt lat="60.40176" lon="7.6688">
        <ele>1160.45</ele>
        <time>2019-04-05T14:48:56Z</time>
      </trkpt>
      <trkpt lat="60.40166" lon="7.66901">
        <ele>1160.45</ele>
        <time>2019-04-05T14:49:00Z</time>
      </trkpt>
      <trkpt lat="60.40153" lon="7.66913">
        <ele>1160.45</ele>
        <time>2019-04-05T14:49:04Z</time>
      </trkpt>
      <trkpt lat="60.40132" lon="7.66957">
        <ele>1161.41</ele>
        <time>2019-04-05T14:49:12Z</time>
      </trkpt>
      <trkpt lat="60.40137" lon="7.66939">
        <ele>1161.41</ele>
        <time>2019-04-05T14:49:19Z</time>
      </trkpt>
      <trkpt lat="60.40153" lon="7.66938">
        <ele>1161.41</ele>
        <time>2019-04-05T14:49:22Z</time>
      </trkpt>
      <trkpt lat="60.40188" lon="7.66943">
        <ele>1159.97</ele>
        <time>2019-04-05T14:49:29Z</time>
      </trkpt>
      <trkpt lat="60.40201" lon="7.66939">
        <ele>1159.49</ele>
        <time>2019-04-05T14:49:32Z</time>
      </trkpt>
      <trkpt lat="60.4021" lon="7.66937">
        <ele>1158.53</ele>
        <time>2019-04-05T14:49:34Z</time>
      </trkpt>
      <trkpt lat="60.40225" lon="7.66932">
        <ele>1158.05</ele>
        <time>2019-04-05T14:49:37Z</time>
      </trkpt>
      <trkpt lat="60.40251" lon="7.66929">
        <ele>1158.05</ele>
        <time>2019-04-05T14:49:44Z</time>
      </trkpt>
      <trkpt lat="60.40284" lon="7.66922">
        <ele>1158.05</ele>
        <time>2019-04-05T14:49:52Z</time>
      </trkpt>
      <trkpt lat="60.40293" lon="7.6692">
        <ele>1158.05</ele>
        <time>2019-04-05T14:49:54Z</time>
      </trkpt>
      <trkpt lat="60.40317" lon="7.66921">
        <ele>1158.53</ele>
        <time>2019-04-05T14:50:00Z</time>
      </trkpt>
      <trkpt lat="60.40357" lon="7.66922">
        <ele>1158.53</ele>
        <time>2019-04-05T14:50:10Z</time>
      </trkpt>
      <trkpt lat="60.40371" lon="7.66917">
        <ele>1158.05</ele>
        <time>2019-04-05T14:50:14Z</time>
      </trkpt>
      <trkpt lat="60.40407" lon="7.66903">
        <ele>1158.05</ele>
        <time>2019-04-05T14:50:23Z</time>
      </trkpt>
      <trkpt lat="60.40462" lon="7.66922">
        <ele>1158.05</ele>
        <time>2019-04-05T14:50:36Z</time>
      </trkpt>
      <trkpt lat="60.40476" lon="7.66924">
        <ele>1158.05</ele>
        <time>2019-04-05T14:50:39Z</time>
      </trkpt>
      <trkpt lat="60.40488" lon="7.66919">
        <ele>1158.05</ele>
        <time>2019-04-05T14:50:42Z</time>
      </trkpt>
      <trkpt lat="60.40507" lon="7.66906">
        <ele>1158.05</ele>
        <time>2019-04-05T14:50:46Z</time>
      </trkpt>
      <trkpt lat="60.40525" lon="7.66896">
        <ele>1158.05</ele>
        <time>2019-04-05T14:50:50Z</time>
      </trkpt>
      <trkpt lat="60.40539" lon="7.66893">
        <ele>1158.05</ele>
        <time>2019-04-05T14:50:53Z</time>
      </trkpt>
      <trkpt lat="60.40556" lon="7.66885">
        <ele>1158.05</ele>
        <time>2019-04-05T14:50:57Z</time>
      </trkpt>
      <trkpt lat="60.40571" lon="7.66881">
        <ele>1158.05</ele>
        <time>2019-04-05T14:51:00Z</time>
      </trkpt>
      <trkpt lat="60.4058" lon="7.66874">
        <ele>1158.05</ele>
        <time>2019-04-05T14:51:02Z</time>
      </trkpt>
      <trkpt lat="60.40617" lon="7.66848">
        <ele>1158.05</ele>
        <time>2019-04-05T14:51:09Z</time>
      </trkpt>
      <trkpt lat="60.40641" lon="7.6683">
        <ele>1159.01</ele>
        <time>2019-04-05T14:51:13Z</time>
      </trkpt>
      <trkpt lat="60.40658" lon="7.66809">
        <ele>1159.01</ele>
        <time>2019-04-05T14:51:16Z</time>
      </trkpt>
      <trkpt lat="60.40698" lon="7.6677">
        <ele>1161.89</ele>
        <time>2019-04-05T14:51:25Z</time>
      </trkpt>
      <trkpt lat="60.40703" lon="7.66763">
        <ele>1163.81</ele>
        <time>2019-04-05T14:51:28Z</time>
      </trkpt>
      <trkpt lat="60.40705" lon="7.66757">
        <ele>1163.81</ele>
        <time>2019-04-05T14:51:31Z</time>
      </trkpt>
      <trkpt lat="60.40711" lon="7.66748">
        <ele>1164.77</ele>
        <time>2019-04-05T14:51:38Z</time>
      </trkpt>
      <trkpt lat="60.40714" lon="7.66743">
        <ele>1166.22</ele>
        <time>2019-04-05T14:51:47Z</time>
      </trkpt>
      <trkpt lat="60.40724" lon="7.66713">
        <ele>1169.58</ele>
        <time>2019-04-05T14:51:55Z</time>
      </trkpt>
      <trkpt lat="60.40747" lon="7.66701">
        <ele>1171.5</ele>
        <time>2019-04-05T14:52:05Z</time>
      </trkpt>
      <trkpt lat="60.40755" lon="7.66697">
        <ele>1172.95</ele>
        <time>2019-04-05T14:52:11Z</time>
      </trkpt>
      <trkpt lat="60.40757" lon="7.66694">
        <ele>1172.95</ele>
        <time>2019-04-05T14:52:14Z</time>
      </trkpt>
      <trkpt lat="60.40765" lon="7.66685">
        <ele>1174.39</ele>
        <time>2019-04-05T14:52:21Z</time>
      </trkpt>
      <trkpt lat="60.40796" lon="7.66662">
        <ele>1176.79</ele>
        <time>2019-04-05T14:52:31Z</time>
      </trkpt>
      <trkpt lat="60.40859" lon="7.66673">
        <ele>1178.23</ele>
        <time>2019-04-05T14:52:48Z</time>
      </trkpt>
      <trkpt lat="60.4087" lon="7.66678">
        <ele>1178.23</ele>
        <time>2019-04-05T14:52:51Z</time>
      </trkpt>
      <trkpt lat="60.40911" lon="7.66709">
        <ele>1178.71</ele>
        <time>2019-04-05T14:53:05Z</time>
      </trkpt>
      <trkpt lat="60.40955" lon="7.66749">
        <ele>1180.16</ele>
        <time>2019-04-05T14:53:19Z</time>
      </trkpt>
      <trkpt lat="60.40973" lon="7.66761">
        <ele>1180.16</ele>
        <time>2019-04-05T14:53:27Z</time>
      </trkpt>
      <trkpt lat="60.40972" lon="7.66755">
        <ele>1180.16</ele>
        <time>2019-04-05T14:53:30Z</time>
      </trkpt>
      <trkpt lat="60.4097" lon="7.66753">
        <ele>1180.16</ele>
        <time>2019-04-05T14:53:31Z</time>
      </trkpt>
      <trkpt lat="60.40967" lon="7.66754">
        <ele>1180.16</ele>
        <time>2019-04-05T14:53:32Z</time>
      </trkpt>
      <trkpt lat="60.40964" lon="7.66758">
        <ele>1180.16</ele>
        <time>2019-04-05T14:53:33Z</time>
      </trkpt>
      <trkpt lat="60.40961" lon="7.66763">
        <ele>1180.16</ele>
        <time>2019-04-05T14:53:34Z</time>
      </trkpt>
      <trkpt lat="60.40957" lon="7.66768">
        <ele>1180.16</ele>
        <time>2019-04-05T14:53:35Z</time>
      </trkpt>
      <trkpt lat="60.40951" lon="7.66776">
        <ele>1180.16</ele>
        <time>2019-04-05T14:53:37Z</time>
      </trkpt>
      <trkpt lat="60.40913" lon="7.6682">
        <ele>1181.12</ele>
        <time>2019-04-05T14:53:48Z</time>
      </trkpt>
      <trkpt lat="60.40893" lon="7.66841">
        <ele>1182.08</ele>
        <time>2019-04-05T14:53:54Z</time>
      </trkpt>
      <trkpt lat="60.40884" lon="7.66857">
        <ele>1182.56</ele>
        <time>2019-04-05T14:53:57Z</time>
      </trkpt>
      <trkpt lat="60.40878" lon="7.6687">
        <ele>1181.6</ele>
        <time>2019-04-05T14:53:59Z</time>
      </trkpt>
      <trkpt lat="60.40874" lon="7.66923">
        <ele>1178.23</ele>
        <time>2019-04-05T14:54:06Z</time>
      </trkpt>
      <trkpt lat="60.40871" lon="7.66964">
        <ele>1176.31</ele>
        <time>2019-04-05T14:54:12Z</time>
      </trkpt>
      <trkpt lat="60.40864" lon="7.67033">
        <ele>1171.98</ele>
        <time>2019-04-05T14:54:18Z</time>
      </trkpt>
      <trkpt lat="60.40859" lon="7.67065">
        <ele>1166.22</ele>
        <time>2019-04-05T14:54:20Z</time>
      </trkpt>
      <trkpt lat="60.40856" lon="7.6708">
        <ele>1162.37</ele>
        <time>2019-04-05T14:54:21Z</time>
      </trkpt>
      <trkpt lat="60.40842" lon="7.67146">
        <ele>1161.41</ele>
        <time>2019-04-05T14:54:26Z</time>
      </trkpt>
      <trkpt lat="60.40822" lon="7.67191">
        <ele>1160.93</ele>
        <time>2019-04-05T14:54:31Z</time>
      </trkpt>
      <trkpt lat="60.40813" lon="7.67206">
        <ele>1160.93</ele>
        <time>2019-04-05T14:54:33Z</time>
      </trkpt>
      <trkpt lat="60.40795" lon="7.67234">
        <ele>1161.41</ele>
        <time>2019-04-05T14:54:37Z</time>
      </trkpt>
      <trkpt lat="60.40737" lon="7.67318">
        <ele>1163.33</ele>
        <time>2019-04-05T14:54:49Z</time>
      </trkpt>
      <trkpt lat="60.40686" lon="7.67409">
        <ele>1164.77</ele>
        <time>2019-04-05T14:55:02Z</time>
      </trkpt>
      <trkpt lat="60.40673" lon="7.67439">
        <ele>1164.77</ele>
        <time>2019-04-05T14:55:06Z</time>
      </trkpt>
      <trkpt lat="60.40622" lon="7.67551">
        <ele>1163.33</ele>
        <time>2019-04-05T14:55:19Z</time>
      </trkpt>
      <trkpt lat="60.40605" lon="7.67593">
        <ele>1163.33</ele>
        <time>2019-04-05T14:55:24Z</time>
      </trkpt>
      <trkpt lat="60.40594" lon="7.67591">
        <ele>1161.89</ele>
        <time>2019-04-05T14:55:30Z</time>
      </trkpt>
      <trkpt lat="60.40609" lon="7.67579">
        <ele>1162.85</ele>
        <time>2019-04-05T14:55:34Z</time>
      </trkpt>
      <trkpt lat="60.40633" lon="7.67573">
        <ele>1163.33</ele>
        <time>2019-04-05T14:55:40Z</time>
      </trkpt>
      <trkpt lat="60.40689" lon="7.6756">
        <ele>1165.26</ele>
        <time>2019-04-05T14:55:52Z</time>
      </trkpt>
      <trkpt lat="60.40715" lon="7.67556">
        <ele>1165.74</ele>
        <time>2019-04-05T14:55:57Z</time>
      </trkpt>
      <trkpt lat="60.40753" lon="7.67557">
        <ele>1168.14</ele>
        <time>2019-04-05T14:56:09Z</time>
      </trkpt>
      <trkpt lat="60.40779" lon="7.67562">
        <ele>1169.1</ele>
        <time>2019-04-05T14:56:17Z</time>
      </trkpt>
      <trkpt lat="60.40834" lon="7.6756">
        <ele>1169.1</ele>
        <time>2019-04-05T14:56:28Z</time>
      </trkpt>
      <trkpt lat="60.40853" lon="7.67558">
        <ele>1169.1</ele>
        <time>2019-04-05T14:56:32Z</time>
      </trkpt>
      <trkpt lat="60.40863" lon="7.67557">
        <ele>1169.1</ele>
        <time>2019-04-05T14:56:34Z</time>
      </trkpt>
      <trkpt lat="60.40886" lon="7.67555">
        <ele>1169.58</ele>
        <time>2019-04-05T14:56:39Z</time>
      </trkpt>
      <trkpt lat="60.40953" lon="7.67563">
        <ele>1169.58</ele>
        <time>2019-04-05T14:56:54Z</time>
      </trkpt>
      <trkpt lat="60.40986" lon="7.67563">
        <ele>1171.98</ele>
        <time>2019-04-05T14:57:04Z</time>
      </trkpt>
      <trkpt lat="60.41" lon="7.67558">
        <ele>1171.98</ele>
        <time>2019-04-05T14:57:08Z</time>
      </trkpt>
      <trkpt lat="60.4103" lon="7.67559">
        <ele>1172.95</ele>
        <time>2019-04-05T14:57:15Z</time>
      </trkpt>
      <trkpt lat="60.41072" lon="7.67585">
        <ele>1173.43</ele>
        <time>2019-04-05T14:57:28Z</time>
      </trkpt>
      <trkpt lat="60.41091" lon="7.67609">
        <ele>1173.43</ele>
        <time>2019-04-05T14:57:34Z</time>
      </trkpt>
      <trkpt lat="60.41095" lon="7.67605">
        <ele>1170.54</ele>
        <time>2019-04-05T14:57:38Z</time>
      </trkpt>
      <trkpt lat="60.41082" lon="7.67607">
        <ele>1172.47</ele>
        <time>2019-04-05T14:57:43Z</time>
      </trkpt>
      <trkpt lat="60.4107" lon="7.67609">
        <ele>1172.95</ele>
        <time>2019-04-05T14:57:47Z</time>
      </trkpt>
      <trkpt lat="60.4105" lon="7.67622">
        <ele>1174.39</ele>
        <time>2019-04-05T14:57:54Z</time>
      </trkpt>
      <trkpt lat="60.41043" lon="7.67634">
        <ele>1175.35</ele>
        <time>2019-04-05T14:57:56Z</time>
      </trkpt>
      <trkpt lat="60.41003" lon="7.67724">
        <ele>1174.87</ele>
        <time>2019-04-05T14:58:06Z</time>
      </trkpt>
      <trkpt lat="60.40974" lon="7.67786">
        <ele>1171.98</ele>
        <time>2019-04-05T14:58:12Z</time>
      </trkpt>
      <trkpt lat="60.40952" lon="7.67823">
        <ele>1170.06</ele>
        <time>2019-04-05T14:58:16Z</time>
      </trkpt>
      <trkpt lat="60.40935" lon="7.67849">
        <ele>1168.62</ele>
        <time>2019-04-05T14:58:19Z</time>
      </trkpt>
      <trkpt lat="60.40911" lon="7.67884">
        <ele>1168.62</ele>
        <time>2019-04-05T14:58:24Z</time>
      </trkpt>
      <trkpt lat="60.40883" lon="7.67925">
        <ele>1168.62</ele>
        <time>2019-04-05T14:58:30Z</time>
      </trkpt>
      <trkpt lat="60.40871" lon="7.67944">
        <ele>1168.62</ele>
        <time>2019-04-05T14:58:33Z</time>
      </trkpt>
      <trkpt lat="60.40858" lon="7.6796">
        <ele>1170.06</ele>
        <time>2019-04-05T14:58:36Z</time>
      </trkpt>
      <trkpt lat="60.40849" lon="7.67969">
        <ele>1170.06</ele>
        <time>2019-04-05T14:58:38Z</time>
      </trkpt>
      <trkpt lat="60.40831" lon="7.68001">
        <ele>1172.47</ele>
        <time>2019-04-05T14:58:43Z</time>
      </trkpt>
      <trkpt lat="60.40825" lon="7.68013">
        <ele>1172.95</ele>
        <time>2019-04-05T14:58:45Z</time>
      </trkpt>
      <trkpt lat="60.40807" lon="7.68042">
        <ele>1173.43</ele>
        <time>2019-04-05T14:58:50Z</time>
      </trkpt>
      <trkpt lat="60.40799" lon="7.68055">
        <ele>1173.91</ele>
        <time>2019-04-05T14:58:52Z</time>
      </trkpt>
      <trkpt lat="60.40784" lon="7.68075">
        <ele>1174.39</ele>
        <time>2019-04-05T14:58:56Z</time>
      </trkpt>
      <trkpt lat="60.4076" lon="7.68104">
        <ele>1176.31</ele>
        <time>2019-04-05T14:59:03Z</time>
      </trkpt>
      <trkpt lat="60.40768" lon="7.68086">
        <ele>1175.83</ele>
        <time>2019-04-05T14:59:10Z</time>
      </trkpt>
      <trkpt lat="60.40771" lon="7.6809">
        <ele>1175.83</ele>
        <time>2019-04-05T14:59:11Z</time>
      </trkpt>
      <trkpt lat="60.40819" lon="7.6813">
        <ele>1173.43</ele>
        <time>2019-04-05T14:59:25Z</time>
      </trkpt>
      <trkpt lat="60.40859" lon="7.68158">
        <ele>1171.02</ele>
        <time>2019-04-05T14:59:34Z</time>
      </trkpt>
      <trkpt lat="60.40898" lon="7.68193">
        <ele>1167.18</ele>
        <time>2019-04-05T14:59:42Z</time>
      </trkpt>
      <trkpt lat="60.40928" lon="7.68216">
        <ele>1164.29</ele>
        <time>2019-04-05T14:59:47Z</time>
      </trkpt>
      <trkpt lat="60.40939" lon="7.68224">
        <ele>1163.33</ele>
        <time>2019-04-05T14:59:49Z</time>
      </trkpt>
      <trkpt lat="60.40949" lon="7.6823">
        <ele>1162.37</ele>
        <time>2019-04-05T14:59:51Z</time>
      </trkpt>
      <trkpt lat="60.40969" lon="7.68242">
        <ele>1161.89</ele>
        <time>2019-04-05T14:59:56Z</time>
      </trkpt>
      <trkpt lat="60.40978" lon="7.68246">
        <ele>1161.89</ele>
        <time>2019-04-05T14:59:58Z</time>
      </trkpt>
      <trkpt lat="60.41023" lon="7.68263">
        <ele>1160.45</ele>
        <time>2019-04-05T15:00:08Z</time>
      </trkpt>
      <trkpt lat="60.41036" lon="7.68271">
        <ele>1160.45</ele>
        <time>2019-04-05T15:00:11Z</time>
      </trkpt>
      <trkpt lat="60.41055" lon="7.68281">
        <ele>1159.97</ele>
        <time>2019-04-05T15:00:16Z</time>
      </trkpt>
      <trkpt lat="60.411" lon="7.68328">
        <ele>1157.08</ele>
        <time>2019-04-05T15:00:29Z</time>
      </trkpt>
      <trkpt lat="60.41125" lon="7.6835">
        <ele>1154.68</ele>
        <time>2019-04-05T15:00:34Z</time>
      </trkpt>
      <trkpt lat="60.41144" lon="7.68366">
        <ele>1151.32</ele>
        <time>2019-04-05T15:00:37Z</time>
      </trkpt>
      <trkpt lat="60.41169" lon="7.68386">
        <ele>1147.95</ele>
        <time>2019-04-05T15:00:41Z</time>
      </trkpt>
      <trkpt lat="60.41175" lon="7.6839">
        <ele>1147.95</ele>
        <time>2019-04-05T15:00:42Z</time>
      </trkpt>
      <trkpt lat="60.41186" lon="7.68398">
        <ele>1147.47</ele>
        <time>2019-04-05T15:00:44Z</time>
      </trkpt>
      <trkpt lat="60.412" lon="7.68407">
        <ele>1146.03</ele>
        <time>2019-04-05T15:00:47Z</time>
      </trkpt>
      <trkpt lat="60.41209" lon="7.68415">
        <ele>1145.55</ele>
        <time>2019-04-05T15:00:49Z</time>
      </trkpt>
      <trkpt lat="60.41228" lon="7.68425">
        <ele>1145.07</ele>
        <time>2019-04-05T15:00:53Z</time>
      </trkpt>
      <trkpt lat="60.41242" lon="7.68435">
        <ele>1143.63</ele>
        <time>2019-04-05T15:00:56Z</time>
      </trkpt>
      <trkpt lat="60.4126" lon="7.68443">
        <ele>1142.66</ele>
        <time>2019-04-05T15:01:00Z</time>
      </trkpt>
      <trkpt lat="60.41287" lon="7.68462">
        <ele>1140.74</ele>
        <time>2019-04-05T15:01:06Z</time>
      </trkpt>
      <trkpt lat="60.41301" lon="7.68469">
        <ele>1139.78</ele>
        <time>2019-04-05T15:01:09Z</time>
      </trkpt>
      <trkpt lat="60.41324" lon="7.68488">
        <ele>1138.34</ele>
        <time>2019-04-05T15:01:14Z</time>
      </trkpt>
      <trkpt lat="60.41338" lon="7.68501">
        <ele>1137.38</ele>
        <time>2019-04-05T15:01:17Z</time>
      </trkpt>
      <trkpt lat="60.41343" lon="7.68506">
        <ele>1136.9</ele>
        <time>2019-04-05T15:01:18Z</time>
      </trkpt>
      <trkpt lat="60.4136" lon="7.68514">
        <ele>1134.97</ele>
        <time>2019-04-05T15:01:21Z</time>
      </trkpt>
      <trkpt lat="60.41393" lon="7.68532">
        <ele>1133.53</ele>
        <time>2019-04-05T15:01:26Z</time>
      </trkpt>
      <trkpt lat="60.4143" lon="7.68544">
        <ele>1129.69</ele>
        <time>2019-04-05T15:01:31Z</time>
      </trkpt>
      <trkpt lat="60.41453" lon="7.68551">
        <ele>1126.8</ele>
        <time>2019-04-05T15:01:34Z</time>
      </trkpt>
      <trkpt lat="60.41474" lon="7.68558">
        <ele>1125.36</ele>
        <time>2019-04-05T15:01:37Z</time>
      </trkpt>
      <trkpt lat="60.41492" lon="7.68566">
        <ele>1124.88</ele>
        <time>2019-04-05T15:01:40Z</time>
      </trkpt>
      <trkpt lat="60.41507" lon="7.68567">
        <ele>1123.92</ele>
        <time>2019-04-05T15:01:43Z</time>
      </trkpt>
      <trkpt lat="60.41523" lon="7.6857">
        <ele>1123.92</ele>
        <time>2019-04-05T15:01:46Z</time>
      </trkpt>
      <trkpt lat="60.41537" lon="7.68568">
        <ele>1123.92</ele>
        <time>2019-04-05T15:01:49Z</time>
      </trkpt>
      <trkpt lat="60.41558" lon="7.68564">
        <ele>1123.92</ele>
        <time>2019-04-05T15:01:53Z</time>
      </trkpt>
      <trkpt lat="60.41584" lon="7.68564">
        <ele>1123.92</ele>
        <time>2019-04-05T15:01:58Z</time>
      </trkpt>
      <trkpt lat="60.41615" lon="7.68549">
        <ele>1125.36</ele>
        <time>2019-04-05T15:02:07Z</time>
      </trkpt>
      <trkpt lat="60.41621" lon="7.6854">
        <ele>1126.32</ele>
        <time>2019-04-05T15:02:09Z</time>
      </trkpt>
      <trkpt lat="60.41629" lon="7.68531">
        <ele>1127.76</ele>
        <time>2019-04-05T15:02:12Z</time>
      </trkpt>
      <trkpt lat="60.41657" lon="7.68507">
        <ele>1128.73</ele>
        <time>2019-04-05T15:02:23Z</time>
      </trkpt>
      <trkpt lat="60.41665" lon="7.68501">
        <ele>1128.73</ele>
        <time>2019-04-05T15:02:26Z</time>
      </trkpt>
      <trkpt lat="60.4168" lon="7.68502">
        <ele>1128.73</ele>
        <time>2019-04-05T15:02:29Z</time>
      </trkpt>
      <trkpt lat="60.41707" lon="7.68495">
        <ele>1128.73</ele>
        <time>2019-04-05T15:02:35Z</time>
      </trkpt>
      <trkpt lat="60.41721" lon="7.68481">
        <ele>1127.28</ele>
        <time>2019-04-05T15:02:39Z</time>
      </trkpt>
      <trkpt lat="60.41728" lon="7.68467">
        <ele>1127.28</ele>
        <time>2019-04-05T15:02:49Z</time>
      </trkpt>
      <trkpt lat="60.41728" lon="7.68466">
        <ele>1128.73</ele>
        <time>2019-04-05T15:02:51Z</time>
      </trkpt>
      <trkpt lat="60.41732" lon="7.68453">
        <ele>1129.21</ele>
        <time>2019-04-05T15:02:59Z</time>
      </trkpt>
      <trkpt lat="60.41732" lon="7.68452">
        <ele>1129.21</ele>
        <time>2019-04-05T15:03:00Z</time>
      </trkpt>
      <trkpt lat="60.41724" lon="7.68431">
        <ele>1130.65</ele>
        <time>2019-04-05T15:03:08Z</time>
      </trkpt>
      <trkpt lat="60.4172" lon="7.68416">
        <ele>1132.09</ele>
        <time>2019-04-05T15:03:14Z</time>
      </trkpt>
      <trkpt lat="60.41713" lon="7.68394">
        <ele>1132.09</ele>
        <time>2019-04-05T15:03:23Z</time>
      </trkpt>
      <trkpt lat="60.41702" lon="7.68388">
        <ele>1131.13</ele>
        <time>2019-04-05T15:03:32Z</time>
      </trkpt>
      <trkpt lat="60.41698" lon="7.68376">
        <ele>1130.17</ele>
        <time>2019-04-05T15:03:36Z</time>
      </trkpt>
      <trkpt lat="60.41699" lon="7.68365">
        <ele>1130.65</ele>
        <time>2019-04-05T15:03:45Z</time>
      </trkpt>
      <trkpt lat="60.41706" lon="7.68341">
        <ele>1130.65</ele>
        <time>2019-04-05T15:03:51Z</time>
      </trkpt>
      <trkpt lat="60.41724" lon="7.68313">
        <ele>1131.61</ele>
        <time>2019-04-05T15:04:03Z</time>
      </trkpt>
      <trkpt lat="60.41727" lon="7.68313">
        <ele>1131.61</ele>
        <time>2019-04-05T15:04:04Z</time>
      </trkpt>
      <trkpt lat="60.41735" lon="7.68326">
        <ele>1131.61</ele>
        <time>2019-04-05T15:04:11Z</time>
      </trkpt>
      <trkpt lat="60.41736" lon="7.68321">
        <ele>1131.61</ele>
        <time>2019-04-05T15:04:33Z</time>
      </trkpt>
      <trkpt lat="60.41737" lon="7.68319">
        <ele>1130.65</ele>
        <time>2019-04-05T15:04:49Z</time>
      </trkpt>
      <trkpt lat="60.41737" lon="7.68311">
        <ele>1130.65</ele>
        <time>2019-04-05T15:05:23Z</time>
      </trkpt>
      <trkpt lat="60.41736" lon="7.68315">
        <ele>1130.65</ele>
        <time>2019-04-05T15:05:59Z</time>
      </trkpt>
      <trkpt lat="60.41737" lon="7.68315">
        <ele>1130.65</ele>
        <time>2019-04-05T15:06:28Z</time>
      </trkpt>
      <trkpt lat="60.41737" lon="7.68315">
        <ele>1130.65</ele>
        <time>2019-04-05T15:06:45Z</time>
      </trkpt>
      <trkpt lat="60.41735" lon="7.68315">
        <ele>1130.65</ele>
        <time>2019-04-05T15:07:14Z</time>
      </trkpt>
      <trkpt lat="60.41737" lon="7.68318">
        <ele>1130.65</ele>
        <time>2019-04-05T15:07:45Z</time>
      </trkpt>
      <trkpt lat="60.41735" lon="7.68326">
        <ele>1130.65</ele>
        <time>2019-04-05T15:08:19Z</time>
      </trkpt>
      <trkpt lat="60.41737" lon="7.68317">
        <ele>1131.13</ele>
        <time>2019-04-05T15:08:49Z</time>
      </trkpt>
      <trkpt lat="60.41737" lon="7.68316">
        <ele>1131.13</ele>
        <time>2019-04-05T15:08:52Z</time>
      </trkpt>
      <trkpt lat="60.41731" lon="7.68289">
        <ele>1129.21</ele>
        <time>2019-04-05T15:09:02Z</time>
      </trkpt>
      <trkpt lat="60.41721" lon="7.68291">
        <ele>1128.73</ele>
        <time>2019-04-05T15:09:04Z</time>
      </trkpt>
      <trkpt lat="60.41709" lon="7.68298">
        <ele>1128.24</ele>
        <time>2019-04-05T15:09:07Z</time>
      </trkpt>
      <trkpt lat="60.41682" lon="7.68336">
        <ele>1127.28</ele>
        <time>2019-04-05T15:09:15Z</time>
      </trkpt>
      <trkpt lat="60.41672" lon="7.68331">
        <ele>1127.28</ele>
        <time>2019-04-05T15:09:23Z</time>
      </trkpt>
      <trkpt lat="60.41667" lon="7.68315">
        <ele>1126.32</ele>
        <time>2019-04-05T15:09:35Z</time>
      </trkpt>
      <trkpt lat="60.41666" lon="7.68309">
        <ele>1126.32</ele>
        <time>2019-04-05T15:09:58Z</time>
      </trkpt>
      <trkpt lat="60.41664" lon="7.68307">
        <ele>1125.84</ele>
        <time>2019-04-05T15:10:19Z</time>
      </trkpt>
      <trkpt lat="60.41666" lon="7.68303">
        <ele>1125.84</ele>
        <time>2019-04-05T15:10:38Z</time>
      </trkpt>
      <trkpt lat="60.41667" lon="7.68304">
        <ele>1125.84</ele>
        <time>2019-04-05T15:10:58Z</time>
      </trkpt>
      <trkpt lat="60.41667" lon="7.68305">
        <ele>1125.84</ele>
        <time>2019-04-05T15:11:16Z</time>
      </trkpt>
      <trkpt lat="60.41666" lon="7.68303">
        <ele>1126.32</ele>
        <time>2019-04-05T15:11:51Z</time>
      </trkpt>
      <trkpt lat="60.41666" lon="7.68302">
        <ele>1126.32</ele>
        <time>2019-04-05T15:12:31Z</time>
      </trkpt>
      <trkpt lat="60.41667" lon="7.68303">
        <ele>1125.36</ele>
        <time>2019-04-05T15:12:53Z</time>
      </trkpt>
      <trkpt lat="60.41668" lon="7.68306">
        <ele>1125.36</ele>
        <time>2019-04-05T15:13:23Z</time>
      </trkpt>
      <trkpt lat="60.41668" lon="7.68306">
        <ele>1125.36</ele>
        <time>2019-04-05T15:13:50Z</time>
      </trkpt>
      <trkpt lat="60.41668" lon="7.68305">
        <ele>1125.36</ele>
        <time>2019-04-05T15:14:20Z</time>
      </trkpt>
      <trkpt lat="60.41668" lon="7.68303">
        <ele>1125.84</ele>
        <time>2019-04-05T15:14:41Z</time>
      </trkpt>
      <trkpt lat="60.41668" lon="7.68302">
        <ele>1125.84</ele>
        <time>2019-04-05T15:15:09Z</time>
      </trkpt>
      <trkpt lat="60.41667" lon="7.68303">
        <ele>1125.84</ele>
        <time>2019-04-05T15:15:36Z</time>
      </trkpt>
      <trkpt lat="60.41668" lon="7.68303">
        <ele>1125.84</ele>
        <time>2019-04-05T15:15:59Z</time>
      </trkpt>
      <trkpt lat="60.41669" lon="7.68304">
        <ele>1125.84</ele>
        <time>2019-04-05T15:16:29Z</time>
      </trkpt>
      <trkpt lat="60.41669" lon="7.68304">
        <ele>1125.84</ele>
        <time>2019-04-05T15:16:58Z</time>
      </trkpt>
      <trkpt lat="60.41669" lon="7.68305">
        <ele>1126.32</ele>
        <time>2019-04-05T15:17:40Z</time>
      </trkpt>
      <trkpt lat="60.41669" lon="7.68304">
        <ele>1126.32</ele>
        <time>2019-04-05T15:18:10Z</time>
      </trkpt>
      <trkpt lat="60.41669" lon="7.68303">
        <ele>1127.28</ele>
        <time>2019-04-05T15:18:44Z</time>
      </trkpt>
      <trkpt lat="60.41668" lon="7.68304">
        <ele>1127.76</ele>
        <time>2019-04-05T15:19:15Z</time>
      </trkpt>
      <trkpt lat="60.41668" lon="7.68304">
        <ele>1127.76</ele>
        <time>2019-04-05T15:19:54Z</time>
      </trkpt>
      <trkpt lat="60.41668" lon="7.68304">
        <ele>1128.24</ele>
        <time>2019-04-05T15:20:24Z</time>
      </trkpt>
      <trkpt lat="60.41668" lon="7.68305">
        <ele>1128.24</ele>
        <time>2019-04-05T15:20:58Z</time>
      </trkpt>
      <trkpt lat="60.41668" lon="7.68305">
        <ele>1128.24</ele>
        <time>2019-04-05T15:21:36Z</time>
      </trkpt>
      <trkpt lat="60.41666" lon="7.68307">
        <ele>1127.76</ele>
        <time>2019-04-05T15:21:49Z</time>
      </trkpt>
      <trkpt lat="60.41666" lon="7.68303">
        <ele>1127.76</ele>
        <time>2019-04-05T15:22:31Z</time>
      </trkpt>
      <trkpt lat="60.41666" lon="7.68304">
        <ele>1127.28</ele>
        <time>2019-04-05T15:23:11Z</time>
      </trkpt>
      <trkpt lat="60.41667" lon="7.68304">
        <ele>1127.28</ele>
        <time>2019-04-05T15:23:46Z</time>
      </trkpt>
      <trkpt lat="60.41667" lon="7.68307">
        <ele>1128.24</ele>
        <time>2019-04-05T15:24:05Z</time>
      </trkpt>
    </trkseg>
  </trk>
  <trk>
    <name><![CDATA[2019-04-06]]></name>
    <trkseg>
      <trkpt lat="60.41824" lon="7.68598">
        <ele>1151.8</ele>
        <time>2019-04-06T08:02:56Z</time>
      </trkpt>
      <trkpt lat="60.41824" lon="7.68597">
        <ele>1151.8</ele>
        <time>2019-04-06T08:02:57Z</time>
      </trkpt>
      <trkpt lat="60.41824" lon="7.68588">
        <ele>1151.8</ele>
        <time>2019-04-06T08:03:08Z</time>
      </trkpt>
      <trkpt lat="60.41823" lon="7.68577">
        <ele>1151.32</ele>
        <time>2019-04-06T08:03:14Z</time>
      </trkpt>
      <trkpt lat="60.41824" lon="7.68562">
        <ele>1154.2</ele>
        <time>2019-04-06T08:03:22Z</time>
      </trkpt>
      <trkpt lat="60.41823" lon="7.68561">
        <ele>1151.32</ele>
        <time>2019-04-06T08:03:34Z</time>
      </trkpt>
      <trkpt lat="60.41825" lon="7.68553">
        <ele>1151.32</ele>
        <time>2019-04-06T08:03:50Z</time>
      </trkpt>
      <trkpt lat="60.41825" lon="7.68552">
        <ele>1151.32</ele>
        <time>2019-04-06T08:04:07Z</time>
      </trkpt>
      <trkpt lat="60.41826" lon="7.68541">
        <ele>1151.32</ele>
        <time>2019-04-06T08:04:25Z</time>
      </trkpt>
      <trkpt lat="60.41823" lon="7.68531">
        <ele>1151.32</ele>
        <time>2019-04-06T08:04:42Z</time>
      </trkpt>
      <trkpt lat="60.41824" lon="7.68526">
        <ele>1150.84</ele>
        <time>2019-04-06T08:05:01Z</time>
      </trkpt>
      <trkpt lat="60.41826" lon="7.68522">
        <ele>1150.84</ele>
        <time>2019-04-06T08:05:30Z</time>
      </trkpt>
      <trkpt lat="60.41826" lon="7.68523">
        <ele>1150.84</ele>
        <time>2019-04-06T08:06:02Z</time>
      </trkpt>
      <trkpt lat="60.41824" lon="7.68521">
        <ele>1150.84</ele>
        <time>2019-04-06T08:06:36Z</time>
      </trkpt>
      <trkpt lat="60.41827" lon="7.68516">
        <ele>1150.84</ele>
        <time>2019-04-06T08:06:47Z</time>
      </trkpt>
      <trkpt lat="60.4183" lon="7.68511">
        <ele>1151.8</ele>
        <time>2019-04-06T08:06:56Z</time>
      </trkpt>
      <trkpt lat="60.41831" lon="7.68504">
        <ele>1151.8</ele>
        <time>2019-04-06T08:07:07Z</time>
      </trkpt>
      <trkpt lat="60.41832" lon="7.68504">
        <ele>1151.32</ele>
        <time>2019-04-06T08:07:18Z</time>
      </trkpt>
      <trkpt lat="60.41829" lon="7.68501">
        <ele>1151.32</ele>
        <time>2019-04-06T08:07:49Z</time>
      </trkpt>
      <trkpt lat="60.41828" lon="7.68503">
        <ele>1151.32</ele>
        <time>2019-04-06T08:08:18Z</time>
      </trkpt>
      <trkpt lat="60.41828" lon="7.68505">
        <ele>1150.84</ele>
        <time>2019-04-06T08:08:46Z</time>
      </trkpt>
      <trkpt lat="60.41829" lon="7.68502">
        <ele>1150.84</ele>
        <time>2019-04-06T08:09:20Z</time>
      </trkpt>
      <trkpt lat="60.4183" lon="7.68502">
        <ele>1150.84</ele>
        <time>2019-04-06T08:09:43Z</time>
      </trkpt>
      <trkpt lat="60.41828" lon="7.68496">
        <ele>1150.84</ele>
        <time>2019-04-06T08:10:12Z</time>
      </trkpt>
      <trkpt lat="60.41829" lon="7.68498">
        <ele>1152.28</ele>
        <time>2019-04-06T08:10:33Z</time>
      </trkpt>
      <trkpt lat="60.41827" lon="7.68505">
        <ele>1152.28</ele>
        <time>2019-04-06T08:10:54Z</time>
      </trkpt>
      <trkpt lat="60.41828" lon="7.68505">
        <ele>1152.28</ele>
        <time>2019-04-06T08:11:16Z</time>
      </trkpt>
      <trkpt lat="60.41827" lon="7.68504">
        <ele>1152.28</ele>
        <time>2019-04-06T08:11:38Z</time>
      </trkpt>
      <trkpt lat="60.41826" lon="7.68507">
        <ele>1152.28</ele>
        <time>2019-04-06T08:12:07Z</time>
      </trkpt>
      <trkpt lat="60.4183" lon="7.68505">
        <ele>1150.84</ele>
        <time>2019-04-06T08:12:41Z</time>
      </trkpt>
      <trkpt lat="60.4183" lon="7.68504">
        <ele>1150.84</ele>
        <time>2019-04-06T08:12:42Z</time>
      </trkpt>
      <trkpt lat="60.41831" lon="7.68502">
        <ele>1150.84</ele>
        <time>2019-04-06T08:13:14Z</time>
      </trkpt>
      <trkpt lat="60.41831" lon="7.68502">
        <ele>1150.84</ele>
        <time>2019-04-06T08:13:43Z</time>
      </trkpt>
      <trkpt lat="60.4183" lon="7.68502">
        <ele>1151.8</ele>
        <time>2019-04-06T08:14:09Z</time>
      </trkpt>
      <trkpt lat="60.41831" lon="7.68502">
        <ele>1150.84</ele>
        <time>2019-04-06T08:14:33Z</time>
      </trkpt>
      <trkpt lat="60.41831" lon="7.68501">
        <ele>1151.8</ele>
        <time>2019-04-06T08:14:38Z</time>
      </trkpt>
      <trkpt lat="60.41829" lon="7.68502">
        <ele>1150.84</ele>
        <time>2019-04-06T08:15:15Z</time>
      </trkpt>
      <trkpt lat="60.4183" lon="7.685">
        <ele>1152.28</ele>
        <time>2019-04-06T08:15:41Z</time>
      </trkpt>
      <trkpt lat="60.4183" lon="7.685">
        <ele>1150.84</ele>
        <time>2019-04-06T08:15:48Z</time>
      </trkpt>
      <trkpt lat="60.41834" lon="7.6849">
        <ele>1150.35</ele>
        <time>2019-04-06T08:16:06Z</time>
      </trkpt>
      <trkpt lat="60.4184" lon="7.68473">
        <ele>1152.28</ele>
        <time>2019-04-06T08:16:23Z</time>
      </trkpt>
      <trkpt lat="60.41847" lon="7.68453">
        <ele>1153.72</ele>
        <time>2019-04-06T08:16:38Z</time>
      </trkpt>
      <trkpt lat="60.41856" lon="7.6843">
        <ele>1155.16</ele>
        <time>2019-04-06T08:16:57Z</time>
      </trkpt>
      <trkpt lat="60.41862" lon="7.68412">
        <ele>1157.08</ele>
        <time>2019-04-06T08:17:13Z</time>
      </trkpt>
      <trkpt lat="60.41867" lon="7.68402">
        <ele>1158.53</ele>
        <time>2019-04-06T08:17:26Z</time>
      </trkpt>
      <trkpt lat="60.41875" lon="7.68387">
        <ele>1159.97</ele>
        <time>2019-04-06T08:17:43Z</time>
      </trkpt>
      <trkpt lat="60.41888" lon="7.68371">
        <ele>1161.41</ele>
        <time>2019-04-06T08:18:00Z</time>
      </trkpt>
      <trkpt lat="60.41896" lon="7.68353">
        <ele>1162.85</ele>
        <time>2019-04-06T08:18:15Z</time>
      </trkpt>
      <trkpt lat="60.41901" lon="7.68333">
        <ele>1165.26</ele>
        <time>2019-04-06T08:18:31Z</time>
      </trkpt>
      <trkpt lat="60.41903" lon="7.68325">
        <ele>1165.74</ele>
        <time>2019-04-06T08:18:46Z</time>
      </trkpt>
      <trkpt lat="60.41905" lon="7.68324">
        <ele>1166.22</ele>
        <time>2019-04-06T08:19:18Z</time>
      </trkpt>
      <trkpt lat="60.41905" lon="7.68323">
        <ele>1165.26</ele>
        <time>2019-04-06T08:19:38Z</time>
      </trkpt>
      <trkpt lat="60.41904" lon="7.68318">
        <ele>1166.22</ele>
        <time>2019-04-06T08:19:56Z</time>
      </trkpt>
      <trkpt lat="60.41909" lon="7.68301">
        <ele>1167.66</ele>
        <time>2019-04-06T08:20:11Z</time>
      </trkpt>
      <trkpt lat="60.41905" lon="7.68303">
        <ele>1167.18</ele>
        <time>2019-04-06T08:20:23Z</time>
      </trkpt>
      <trkpt lat="60.41904" lon="7.68295">
        <ele>1168.62</ele>
        <time>2019-04-06T08:20:37Z</time>
      </trkpt>
      <trkpt lat="60.41904" lon="7.68297">
        <ele>1167.18</ele>
        <time>2019-04-06T08:20:43Z</time>
      </trkpt>
      <trkpt lat="60.41905" lon="7.68297">
        <ele>1169.1</ele>
        <time>2019-04-06T08:20:45Z</time>
      </trkpt>
      <trkpt lat="60.4191" lon="7.68286">
        <ele>1169.1</ele>
        <time>2019-04-06T08:20:57Z</time>
      </trkpt>
      <trkpt lat="60.41913" lon="7.68272">
        <ele>1170.54</ele>
        <time>2019-04-06T08:21:10Z</time>
      </trkpt>
      <trkpt lat="60.4192" lon="7.68255">
        <ele>1172.95</ele>
        <time>2019-04-06T08:21:27Z</time>
      </trkpt>
      <trkpt lat="60.41924" lon="7.68244">
        <ele>1175.83</ele>
        <time>2019-04-06T08:21:41Z</time>
      </trkpt>
      <trkpt lat="60.41927" lon="7.68239">
        <ele>1175.83</ele>
        <time>2019-04-06T08:21:48Z</time>
      </trkpt>
      <trkpt lat="60.41931" lon="7.68233">
        <ele>1175.83</ele>
        <time>2019-04-06T08:21:58Z</time>
      </trkpt>
      <trkpt lat="60.41933" lon="7.68232">
        <ele>1177.27</ele>
        <time>2019-04-06T08:22:01Z</time>
      </trkpt>
      <trkpt lat="60.41934" lon="7.6823">
        <ele>1176.79</ele>
        <time>2019-04-06T08:22:08Z</time>
      </trkpt>
      <trkpt lat="60.41934" lon="7.68228">
        <ele>1177.75</ele>
        <time>2019-04-06T08:22:25Z</time>
      </trkpt>
      <trkpt lat="60.41936" lon="7.68226">
        <ele>1177.75</ele>
        <time>2019-04-06T08:22:48Z</time>
      </trkpt>
      <trkpt lat="60.41938" lon="7.68225">
        <ele>1177.75</ele>
        <time>2019-04-06T08:23:09Z</time>
      </trkpt>
      <trkpt lat="60.41937" lon="7.68227">
        <ele>1178.23</ele>
        <time>2019-04-06T08:23:34Z</time>
      </trkpt>
      <trkpt lat="60.41939" lon="7.68222">
        <ele>1177.27</ele>
        <time>2019-04-06T08:23:50Z</time>
      </trkpt>
      <trkpt lat="60.41941" lon="7.68218">
        <ele>1178.71</ele>
        <time>2019-04-06T08:23:54Z</time>
      </trkpt>
      <trkpt lat="60.41952" lon="7.68201">
        <ele>1178.71</ele>
        <time>2019-04-06T08:24:08Z</time>
      </trkpt>
      <trkpt lat="60.4196" lon="7.68186">
        <ele>1179.67</ele>
        <time>2019-04-06T08:24:24Z</time>
      </trkpt>
      <trkpt lat="60.41965" lon="7.68176">
        <ele>1181.12</ele>
        <time>2019-04-06T08:24:39Z</time>
      </trkpt>
      <trkpt lat="60.41972" lon="7.68161">
        <ele>1183.04</ele>
        <time>2019-04-06T08:24:55Z</time>
      </trkpt>
      <trkpt lat="60.41977" lon="7.68152">
        <ele>1184</ele>
        <time>2019-04-06T08:25:08Z</time>
      </trkpt>
      <trkpt lat="60.41986" lon="7.68144">
        <ele>1186.4</ele>
        <time>2019-04-06T08:25:22Z</time>
      </trkpt>
      <trkpt lat="60.41984" lon="7.68146">
        <ele>1185.44</ele>
        <time>2019-04-06T08:25:44Z</time>
      </trkpt>
      <trkpt lat="60.41993" lon="7.68134">
        <ele>1187.37</ele>
        <time>2019-04-06T08:26:02Z</time>
      </trkpt>
      <trkpt lat="60.42003" lon="7.68119">
        <ele>1188.33</ele>
        <time>2019-04-06T08:26:18Z</time>
      </trkpt>
      <trkpt lat="60.42013" lon="7.68108">
        <ele>1189.29</ele>
        <time>2019-04-06T08:26:34Z</time>
      </trkpt>
      <trkpt lat="60.42021" lon="7.681">
        <ele>1189.77</ele>
        <time>2019-04-06T08:26:50Z</time>
      </trkpt>
      <trkpt lat="60.42033" lon="7.68086">
        <ele>1190.25</ele>
        <time>2019-04-06T08:27:06Z</time>
      </trkpt>
      <trkpt lat="60.4204" lon="7.68081">
        <ele>1191.69</ele>
        <time>2019-04-06T08:27:22Z</time>
      </trkpt>
      <trkpt lat="60.42037" lon="7.68082">
        <ele>1190.73</ele>
        <time>2019-04-06T08:27:42Z</time>
      </trkpt>
      <trkpt lat="60.42038" lon="7.68085">
        <ele>1192.65</ele>
        <time>2019-04-06T08:27:57Z</time>
      </trkpt>
      <trkpt lat="60.42037" lon="7.68086">
        <ele>1191.21</ele>
        <time>2019-04-06T08:28:09Z</time>
      </trkpt>
      <trkpt lat="60.42036" lon="7.68085">
        <ele>1192.17</ele>
        <time>2019-04-06T08:28:23Z</time>
      </trkpt>
      <trkpt lat="60.42035" lon="7.68083">
        <ele>1190.73</ele>
        <time>2019-04-06T08:28:32Z</time>
      </trkpt>
      <trkpt lat="60.42039" lon="7.6808">
        <ele>1191.69</ele>
        <time>2019-04-06T08:28:50Z</time>
      </trkpt>
      <trkpt lat="60.42046" lon="7.68072">
        <ele>1191.69</ele>
        <time>2019-04-06T08:28:58Z</time>
      </trkpt>
      <trkpt lat="60.42049" lon="7.68068">
        <ele>1190.25</ele>
        <time>2019-04-06T08:29:01Z</time>
      </trkpt>
      <trkpt lat="60.42067" lon="7.68052">
        <ele>1188.81</ele>
        <time>2019-04-06T08:29:15Z</time>
      </trkpt>
      <trkpt lat="60.42085" lon="7.68033">
        <ele>1189.29</ele>
        <time>2019-04-06T08:29:32Z</time>
      </trkpt>
      <trkpt lat="60.42094" lon="7.68018">
        <ele>1190.25</ele>
        <time>2019-04-06T08:29:44Z</time>
      </trkpt>
      <trkpt lat="60.42103" lon="7.67995">
        <ele>1192.17</ele>
        <time>2019-04-06T08:30:00Z</time>
      </trkpt>
      <trkpt lat="60.42113" lon="7.67977">
        <ele>1193.61</ele>
        <time>2019-04-06T08:30:16Z</time>
      </trkpt>
      <trkpt lat="60.42123" lon="7.67961">
        <ele>1194.58</ele>
        <time>2019-04-06T08:30:32Z</time>
      </trkpt>
      <trkpt lat="60.42132" lon="7.67941">
        <ele>1195.06</ele>
        <time>2019-04-06T08:30:48Z</time>
      </trkpt>
      <trkpt lat="60.42141" lon="7.67923">
        <ele>1195.06</ele>
        <time>2019-04-06T08:31:04Z</time>
      </trkpt>
      <trkpt lat="60.42139" lon="7.67922">
        <ele>1195.06</ele>
        <time>2019-04-06T08:31:21Z</time>
      </trkpt>
      <trkpt lat="60.42139" lon="7.67919">
        <ele>1195.06</ele>
        <time>2019-04-06T08:31:43Z</time>
      </trkpt>
      <trkpt lat="60.42145" lon="7.67911">
        <ele>1195.54</ele>
        <time>2019-04-06T08:31:57Z</time>
      </trkpt>
      <trkpt lat="60.42156" lon="7.67886">
        <ele>1195.06</ele>
        <time>2019-04-06T08:32:13Z</time>
      </trkpt>
      <trkpt lat="60.42168" lon="7.6786">
        <ele>1196.5</ele>
        <time>2019-04-06T08:32:30Z</time>
      </trkpt>
      <trkpt lat="60.42174" lon="7.67847">
        <ele>1197.94</ele>
        <time>2019-04-06T08:32:41Z</time>
      </trkpt>
      <trkpt lat="60.42176" lon="7.67842">
        <ele>1197.94</ele>
        <time>2019-04-06T08:32:44Z</time>
      </trkpt>
      <trkpt lat="60.42177" lon="7.67834">
        <ele>1197.46</ele>
        <time>2019-04-06T08:33:02Z</time>
      </trkpt>
      <trkpt lat="60.42177" lon="7.67835">
        <ele>1196.98</ele>
        <time>2019-04-06T08:33:12Z</time>
      </trkpt>
      <trkpt lat="60.42177" lon="7.67834">
        <ele>1198.42</ele>
        <time>2019-04-06T08:33:15Z</time>
      </trkpt>
      <trkpt lat="60.42175" lon="7.67831">
        <ele>1196.98</ele>
        <time>2019-04-06T08:33:43Z</time>
      </trkpt>
      <trkpt lat="60.42175" lon="7.67831">
        <ele>1196.98</ele>
        <time>2019-04-06T08:34:18Z</time>
      </trkpt>
      <trkpt lat="60.42179" lon="7.6783">
        <ele>1196.5</ele>
        <time>2019-04-06T08:34:41Z</time>
      </trkpt>
      <trkpt lat="60.4218" lon="7.67829">
        <ele>1196.98</ele>
        <time>2019-04-06T08:35:12Z</time>
      </trkpt>
      <trkpt lat="60.42179" lon="7.67827">
        <ele>1196.5</ele>
        <time>2019-04-06T08:35:36Z</time>
      </trkpt>
      <trkpt lat="60.42179" lon="7.67828">
        <ele>1196.02</ele>
        <time>2019-04-06T08:36:08Z</time>
      </trkpt>
      <trkpt lat="60.4218" lon="7.67826">
        <ele>1195.54</ele>
        <time>2019-04-06T08:36:51Z</time>
      </trkpt>
      <trkpt lat="60.42182" lon="7.6783">
        <ele>1195.54</ele>
        <time>2019-04-06T08:37:27Z</time>
      </trkpt>
      <trkpt lat="60.42181" lon="7.67828">
        <ele>1195.54</ele>
        <time>2019-04-06T08:37:52Z</time>
      </trkpt>
      <trkpt lat="60.42182" lon="7.67832">
        <ele>1195.54</ele>
        <time>2019-04-06T08:38:21Z</time>
      </trkpt>
      <trkpt lat="60.42183" lon="7.67833">
        <ele>1195.06</ele>
        <time>2019-04-06T08:38:48Z</time>
      </trkpt>
      <trkpt lat="60.42183" lon="7.67832">
        <ele>1195.06</ele>
        <time>2019-04-06T08:39:08Z</time>
      </trkpt>
      <trkpt lat="60.42182" lon="7.67832">
        <ele>1196.5</ele>
        <time>2019-04-06T08:39:17Z</time>
      </trkpt>
      <trkpt lat="60.42184" lon="7.67826">
        <ele>1196.5</ele>
        <time>2019-04-06T08:39:42Z</time>
      </trkpt>
      <trkpt lat="60.42186" lon="7.67828">
        <ele>1196.5</ele>
        <time>2019-04-06T08:40:24Z</time>
      </trkpt>
      <trkpt lat="60.42182" lon="7.67833">
        <ele>1196.02</ele>
        <time>2019-04-06T08:40:50Z</time>
      </trkpt>
      <trkpt lat="60.42182" lon="7.67833">
        <ele>1196.98</ele>
        <time>2019-04-06T08:40:53Z</time>
      </trkpt>
      <trkpt lat="60.42184" lon="7.67834">
        <ele>1196.02</ele>
        <time>2019-04-06T08:41:14Z</time>
      </trkpt>
      <trkpt lat="60.42185" lon="7.67831">
        <ele>1195.54</ele>
        <time>2019-04-06T08:41:33Z</time>
      </trkpt>
      <trkpt lat="60.42186" lon="7.6783">
        <ele>1196.98</ele>
        <time>2019-04-06T08:41:52Z</time>
      </trkpt>
      <trkpt lat="60.42186" lon="7.67826">
        <ele>1196.98</ele>
        <time>2019-04-06T08:42:18Z</time>
      </trkpt>
      <trkpt lat="60.42185" lon="7.67826">
        <ele>1196.98</ele>
        <time>2019-04-06T08:42:53Z</time>
      </trkpt>
      <trkpt lat="60.42184" lon="7.6783">
        <ele>1196.5</ele>
        <time>2019-04-06T08:43:24Z</time>
      </trkpt>
      <trkpt lat="60.42184" lon="7.67831">
        <ele>1196.5</ele>
        <time>2019-04-06T08:44:02Z</time>
      </trkpt>
      <trkpt lat="60.42183" lon="7.67831">
        <ele>1196.02</ele>
        <time>2019-04-06T08:44:27Z</time>
      </trkpt>
      <trkpt lat="60.42183" lon="7.67831">
        <ele>1195.06</ele>
        <time>2019-04-06T08:44:29Z</time>
      </trkpt>
      <trkpt lat="60.42183" lon="7.67831">
        <ele>1197.46</ele>
        <time>2019-04-06T08:44:31Z</time>
      </trkpt>
      <trkpt lat="60.42182" lon="7.67831">
        <ele>1195.54</ele>
        <time>2019-04-06T08:44:43Z</time>
      </trkpt>
      <trkpt lat="60.42183" lon="7.6783">
        <ele>1195.54</ele>
        <time>2019-04-06T08:45:09Z</time>
      </trkpt>
      <trkpt lat="60.42184" lon="7.6783">
        <ele>1195.54</ele>
        <time>2019-04-06T08:45:10Z</time>
      </trkpt>
      <trkpt lat="60.42198" lon="7.6783">
        <ele>1196.02</ele>
        <time>2019-04-06T08:45:23Z</time>
      </trkpt>
      <trkpt lat="60.42215" lon="7.67832">
        <ele>1196.02</ele>
        <time>2019-04-06T08:45:38Z</time>
      </trkpt>
      <trkpt lat="60.4223" lon="7.67839">
        <ele>1195.54</ele>
        <time>2019-04-06T08:45:53Z</time>
      </trkpt>
      <trkpt lat="60.42246" lon="7.67851">
        <ele>1196.98</ele>
        <time>2019-04-06T08:46:08Z</time>
      </trkpt>
      <trkpt lat="60.42264" lon="7.67861">
        <ele>1197.94</ele>
        <time>2019-04-06T08:46:25Z</time>
      </trkpt>
      <trkpt lat="60.4228" lon="7.67868">
        <ele>1198.9</ele>
        <time>2019-04-06T08:46:41Z</time>
      </trkpt>
      <trkpt lat="60.42296" lon="7.67876">
        <ele>1199.86</ele>
        <time>2019-04-06T08:46:56Z</time>
      </trkpt>
      <trkpt lat="60.42312" lon="7.67888">
        <ele>1200.82</ele>
        <time>2019-04-06T08:47:12Z</time>
      </trkpt>
      <trkpt lat="60.42327" lon="7.67902">
        <ele>1201.3</ele>
        <time>2019-04-06T08:47:28Z</time>
      </trkpt>
      <trkpt lat="60.42343" lon="7.67914">
        <ele>1202.27</ele>
        <time>2019-04-06T08:47:43Z</time>
      </trkpt>
      <trkpt lat="60.42361" lon="7.67917">
        <ele>1200.82</ele>
        <time>2019-04-06T08:47:57Z</time>
      </trkpt>
      <trkpt lat="60.42363" lon="7.67915">
        <ele>1200.34</ele>
        <time>2019-04-06T08:47:59Z</time>
      </trkpt>
      <trkpt lat="60.42383" lon="7.67905">
        <ele>1200.34</ele>
        <time>2019-04-06T08:48:17Z</time>
      </trkpt>
      <trkpt lat="60.42396" lon="7.67898">
        <ele>1203.23</ele>
        <time>2019-04-06T08:48:32Z</time>
      </trkpt>
      <trkpt lat="60.42407" lon="7.67888">
        <ele>1205.15</ele>
        <time>2019-04-06T08:48:46Z</time>
      </trkpt>
      <trkpt lat="60.42424" lon="7.67866">
        <ele>1206.11</ele>
        <time>2019-04-06T08:49:04Z</time>
      </trkpt>
      <trkpt lat="60.42435" lon="7.67852">
        <ele>1208.03</ele>
        <time>2019-04-06T08:49:20Z</time>
      </trkpt>
      <trkpt lat="60.42447" lon="7.67839">
        <ele>1209</ele>
        <time>2019-04-06T08:49:35Z</time>
      </trkpt>
      <trkpt lat="60.42463" lon="7.67822">
        <ele>1209.96</ele>
        <time>2019-04-06T08:49:51Z</time>
      </trkpt>
      <trkpt lat="60.42476" lon="7.67804">
        <ele>1210.92</ele>
        <time>2019-04-06T08:50:06Z</time>
      </trkpt>
      <trkpt lat="60.4249" lon="7.67792">
        <ele>1213.8</ele>
        <time>2019-04-06T08:50:24Z</time>
      </trkpt>
      <trkpt lat="60.42502" lon="7.67781">
        <ele>1215.72</ele>
        <time>2019-04-06T08:50:40Z</time>
      </trkpt>
      <trkpt lat="60.42516" lon="7.67773">
        <ele>1217.65</ele>
        <time>2019-04-06T08:51:00Z</time>
      </trkpt>
      <trkpt lat="60.42533" lon="7.67766">
        <ele>1219.57</ele>
        <time>2019-04-06T08:51:19Z</time>
      </trkpt>
      <trkpt lat="60.42547" lon="7.67762">
        <ele>1220.53</ele>
        <time>2019-04-06T08:51:36Z</time>
      </trkpt>
      <trkpt lat="60.42565" lon="7.67759">
        <ele>1221.01</ele>
        <time>2019-04-06T08:51:53Z</time>
      </trkpt>
      <trkpt lat="60.42584" lon="7.67757">
        <ele>1221.01</ele>
        <time>2019-04-06T08:52:11Z</time>
      </trkpt>
      <trkpt lat="60.42602" lon="7.67759">
        <ele>1221.01</ele>
        <time>2019-04-06T08:52:26Z</time>
      </trkpt>
      <trkpt lat="60.42619" lon="7.67759">
        <ele>1221.97</ele>
        <time>2019-04-06T08:52:42Z</time>
      </trkpt>
      <trkpt lat="60.42637" lon="7.67761">
        <ele>1222.93</ele>
        <time>2019-04-06T08:52:59Z</time>
      </trkpt>
      <trkpt lat="60.42655" lon="7.67763">
        <ele>1224.38</ele>
        <time>2019-04-06T08:53:17Z</time>
      </trkpt>
      <trkpt lat="60.4267" lon="7.67767">
        <ele>1225.34</ele>
        <time>2019-04-06T08:53:32Z</time>
      </trkpt>
      <trkpt lat="60.42685" lon="7.67774">
        <ele>1226.3</ele>
        <time>2019-04-06T08:53:48Z</time>
      </trkpt>
      <trkpt lat="60.427" lon="7.67782">
        <ele>1227.74</ele>
        <time>2019-04-06T08:54:04Z</time>
      </trkpt>
      <trkpt lat="60.42716" lon="7.67798">
        <ele>1229.18</ele>
        <time>2019-04-06T08:54:22Z</time>
      </trkpt>
      <trkpt lat="60.42731" lon="7.67823">
        <ele>1230.62</ele>
        <time>2019-04-06T08:54:41Z</time>
      </trkpt>
      <trkpt lat="60.42748" lon="7.67845">
        <ele>1231.59</ele>
        <time>2019-04-06T08:55:00Z</time>
      </trkpt>
      <trkpt lat="60.42761" lon="7.67865">
        <ele>1233.03</ele>
        <time>2019-04-06T08:55:17Z</time>
      </trkpt>
      <trkpt lat="60.42775" lon="7.6789">
        <ele>1234.47</ele>
        <time>2019-04-06T08:55:36Z</time>
      </trkpt>
      <trkpt lat="60.42786" lon="7.67908">
        <ele>1235.43</ele>
        <time>2019-04-06T08:55:50Z</time>
      </trkpt>
      <trkpt lat="60.42799" lon="7.67929">
        <ele>1236.87</ele>
        <time>2019-04-06T08:56:06Z</time>
      </trkpt>
      <trkpt lat="60.4281" lon="7.67949">
        <ele>1237.83</ele>
        <time>2019-04-06T08:56:22Z</time>
      </trkpt>
      <trkpt lat="60.42821" lon="7.67971">
        <ele>1239.28</ele>
        <time>2019-04-06T08:56:38Z</time>
      </trkpt>
      <trkpt lat="60.42832" lon="7.67995">
        <ele>1241.2</ele>
        <time>2019-04-06T08:56:55Z</time>
      </trkpt>
      <trkpt lat="60.42845" lon="7.68023">
        <ele>1243.12</ele>
        <time>2019-04-06T08:57:14Z</time>
      </trkpt>
      <trkpt lat="60.42858" lon="7.68045">
        <ele>1244.08</ele>
        <time>2019-04-06T08:57:30Z</time>
      </trkpt>
      <trkpt lat="60.42868" lon="7.68072">
        <ele>1244.56</ele>
        <time>2019-04-06T08:57:47Z</time>
      </trkpt>
      <trkpt lat="60.42879" lon="7.68098">
        <ele>1246.01</ele>
        <time>2019-04-06T08:58:03Z</time>
      </trkpt>
      <trkpt lat="60.42888" lon="7.68125">
        <ele>1246.49</ele>
        <time>2019-04-06T08:58:18Z</time>
      </trkpt>
      <trkpt lat="60.42896" lon="7.68147">
        <ele>1246.49</ele>
        <time>2019-04-06T08:58:31Z</time>
      </trkpt>
      <trkpt lat="60.42905" lon="7.68169">
        <ele>1247.45</ele>
        <time>2019-04-06T08:58:45Z</time>
      </trkpt>
      <trkpt lat="60.42914" lon="7.68195">
        <ele>1247.93</ele>
        <time>2019-04-06T08:59:00Z</time>
      </trkpt>
      <trkpt lat="60.42922" lon="7.6822">
        <ele>1248.41</ele>
        <time>2019-04-06T08:59:14Z</time>
      </trkpt>
      <trkpt lat="60.42933" lon="7.68251">
        <ele>1249.37</ele>
        <time>2019-04-06T08:59:31Z</time>
      </trkpt>
      <trkpt lat="60.4294" lon="7.68277">
        <ele>1249.37</ele>
        <time>2019-04-06T08:59:45Z</time>
      </trkpt>
      <trkpt lat="60.4295" lon="7.6831">
        <ele>1249.85</ele>
        <time>2019-04-06T09:00:01Z</time>
      </trkpt>
      <trkpt lat="60.42959" lon="7.68343">
        <ele>1249.85</ele>
        <time>2019-04-06T09:00:16Z</time>
      </trkpt>
      <trkpt lat="60.4297" lon="7.68372">
        <ele>1249.85</ele>
        <time>2019-04-06T09:00:31Z</time>
      </trkpt>
      <trkpt lat="60.42978" lon="7.68398">
        <ele>1248.89</ele>
        <time>2019-04-06T09:00:44Z</time>
      </trkpt>
      <trkpt lat="60.4298" lon="7.68403">
        <ele>1248.89</ele>
        <time>2019-04-06T09:00:56Z</time>
      </trkpt>
      <trkpt lat="60.42985" lon="7.68424">
        <ele>1248.41</ele>
        <time>2019-04-06T09:01:11Z</time>
      </trkpt>
      <trkpt lat="60.42995" lon="7.68455">
        <ele>1248.41</ele>
        <time>2019-04-06T09:01:28Z</time>
      </trkpt>
      <trkpt lat="60.43009" lon="7.68485">
        <ele>1248.41</ele>
        <time>2019-04-06T09:01:45Z</time>
      </trkpt>
      <trkpt lat="60.43021" lon="7.68512">
        <ele>1248.41</ele>
        <time>2019-04-06T09:02:01Z</time>
      </trkpt>
      <trkpt lat="60.43031" lon="7.68538">
        <ele>1249.37</ele>
        <time>2019-04-06T09:02:16Z</time>
      </trkpt>
      <trkpt lat="60.43044" lon="7.68566">
        <ele>1249.85</ele>
        <time>2019-04-06T09:02:31Z</time>
      </trkpt>
      <trkpt lat="60.43057" lon="7.68593">
        <ele>1250.33</ele>
        <time>2019-04-06T09:02:49Z</time>
      </trkpt>
      <trkpt lat="60.43068" lon="7.68617">
        <ele>1251.77</ele>
        <time>2019-04-06T09:03:07Z</time>
      </trkpt>
      <trkpt lat="60.4308" lon="7.68644">
        <ele>1253.22</ele>
        <time>2019-04-06T09:03:25Z</time>
      </trkpt>
      <trkpt lat="60.43092" lon="7.68667">
        <ele>1254.18</ele>
        <time>2019-04-06T09:03:42Z</time>
      </trkpt>
      <trkpt lat="60.43105" lon="7.68691">
        <ele>1255.62</ele>
        <time>2019-04-06T09:04:00Z</time>
      </trkpt>
      <trkpt lat="60.43117" lon="7.68714">
        <ele>1258.02</ele>
        <time>2019-04-06T09:04:18Z</time>
      </trkpt>
      <trkpt lat="60.43129" lon="7.6874">
        <ele>1258.5</ele>
        <time>2019-04-06T09:04:35Z</time>
      </trkpt>
      <trkpt lat="60.43143" lon="7.68767">
        <ele>1259.94</ele>
        <time>2019-04-06T09:04:54Z</time>
      </trkpt>
      <trkpt lat="60.43155" lon="7.68791">
        <ele>1261.39</ele>
        <time>2019-04-06T09:05:11Z</time>
      </trkpt>
      <trkpt lat="60.43167" lon="7.68816">
        <ele>1262.35</ele>
        <time>2019-04-06T09:05:28Z</time>
      </trkpt>
      <trkpt lat="60.4318" lon="7.68842">
        <ele>1262.83</ele>
        <time>2019-04-06T09:05:46Z</time>
      </trkpt>
      <trkpt lat="60.43194" lon="7.68872">
        <ele>1263.79</ele>
        <time>2019-04-06T09:06:05Z</time>
      </trkpt>
      <trkpt lat="60.43203" lon="7.6889">
        <ele>1264.27</ele>
        <time>2019-04-06T09:06:20Z</time>
      </trkpt>
      <trkpt lat="60.43219" lon="7.68923">
        <ele>1265.23</ele>
        <time>2019-04-06T09:06:40Z</time>
      </trkpt>
      <trkpt lat="60.43233" lon="7.68951">
        <ele>1265.23</ele>
        <time>2019-04-06T09:06:57Z</time>
      </trkpt>
      <trkpt lat="60.43245" lon="7.68974">
        <ele>1265.23</ele>
        <time>2019-04-06T09:07:13Z</time>
      </trkpt>
      <trkpt lat="60.43262" lon="7.69013">
        <ele>1264.27</ele>
        <time>2019-04-06T09:07:32Z</time>
      </trkpt>
      <trkpt lat="60.43276" lon="7.69067">
        <ele>1261.39</ele>
        <time>2019-04-06T09:07:49Z</time>
      </trkpt>
      <trkpt lat="60.4329" lon="7.69117">
        <ele>1259.46</ele>
        <time>2019-04-06T09:08:06Z</time>
      </trkpt>
      <trkpt lat="60.43296" lon="7.69151">
        <ele>1258.98</ele>
        <time>2019-04-06T09:08:21Z</time>
      </trkpt>
      <trkpt lat="60.43305" lon="7.69178">
        <ele>1259.94</ele>
        <time>2019-04-06T09:08:37Z</time>
      </trkpt>
      <trkpt lat="60.43316" lon="7.69212">
        <ele>1261.39</ele>
        <time>2019-04-06T09:08:58Z</time>
      </trkpt>
      <trkpt lat="60.43324" lon="7.69233">
        <ele>1262.35</ele>
        <time>2019-04-06T09:09:14Z</time>
      </trkpt>
      <trkpt lat="60.43332" lon="7.69253">
        <ele>1264.27</ele>
        <time>2019-04-06T09:09:30Z</time>
      </trkpt>
      <trkpt lat="60.4334" lon="7.69274">
        <ele>1266.19</ele>
        <time>2019-04-06T09:09:47Z</time>
      </trkpt>
      <trkpt lat="60.43348" lon="7.69289">
        <ele>1267.64</ele>
        <time>2019-04-06T09:10:01Z</time>
      </trkpt>
      <trkpt lat="60.43358" lon="7.693">
        <ele>1269.56</ele>
        <time>2019-04-06T09:10:16Z</time>
      </trkpt>
      <trkpt lat="60.4336" lon="7.69303">
        <ele>1269.56</ele>
        <time>2019-04-06T09:10:19Z</time>
      </trkpt>
      <trkpt lat="60.43369" lon="7.69327">
        <ele>1271.48</ele>
        <time>2019-04-06T09:10:35Z</time>
      </trkpt>
      <trkpt lat="60.4338" lon="7.69354">
        <ele>1271.48</ele>
        <time>2019-04-06T09:10:52Z</time>
      </trkpt>
      <trkpt lat="60.43389" lon="7.69387">
        <ele>1272.44</ele>
        <time>2019-04-06T09:11:09Z</time>
      </trkpt>
      <trkpt lat="60.43404" lon="7.69422">
        <ele>1272.44</ele>
        <time>2019-04-06T09:11:27Z</time>
      </trkpt>
      <trkpt lat="60.4342" lon="7.69449">
        <ele>1271.96</ele>
        <time>2019-04-06T09:11:46Z</time>
      </trkpt>
      <trkpt lat="60.43437" lon="7.69482">
        <ele>1271.96</ele>
        <time>2019-04-06T09:12:08Z</time>
      </trkpt>
      <trkpt lat="60.43448" lon="7.69502">
        <ele>1272.44</ele>
        <time>2019-04-06T09:12:23Z</time>
      </trkpt>
      <trkpt lat="60.43461" lon="7.69527">
        <ele>1273.4</ele>
        <time>2019-04-06T09:12:40Z</time>
      </trkpt>
      <trkpt lat="60.43477" lon="7.69551">
        <ele>1273.4</ele>
        <time>2019-04-06T09:12:57Z</time>
      </trkpt>
      <trkpt lat="60.43495" lon="7.69575">
        <ele>1271.96</ele>
        <time>2019-04-06T09:13:14Z</time>
      </trkpt>
      <trkpt lat="60.43517" lon="7.69605">
        <ele>1269.56</ele>
        <time>2019-04-06T09:13:30Z</time>
      </trkpt>
      <trkpt lat="60.43531" lon="7.69618">
        <ele>1269.56</ele>
        <time>2019-04-06T09:13:43Z</time>
      </trkpt>
      <trkpt lat="60.4355" lon="7.69631">
        <ele>1269.56</ele>
        <time>2019-04-06T09:13:59Z</time>
      </trkpt>
      <trkpt lat="60.43566" lon="7.69639">
        <ele>1269.56</ele>
        <time>2019-04-06T09:14:13Z</time>
      </trkpt>
      <trkpt lat="60.43584" lon="7.6965">
        <ele>1269.56</ele>
        <time>2019-04-06T09:14:29Z</time>
      </trkpt>
      <trkpt lat="60.43587" lon="7.6965">
        <ele>1271</ele>
        <time>2019-04-06T09:14:32Z</time>
      </trkpt>
      <trkpt lat="60.43604" lon="7.69664">
        <ele>1271.48</ele>
        <time>2019-04-06T09:14:50Z</time>
      </trkpt>
      <trkpt lat="60.43622" lon="7.69674">
        <ele>1272.44</ele>
        <time>2019-04-06T09:15:07Z</time>
      </trkpt>
      <trkpt lat="60.43636" lon="7.69682">
        <ele>1273.4</ele>
        <time>2019-04-06T09:15:21Z</time>
      </trkpt>
      <trkpt lat="60.43653" lon="7.69689">
        <ele>1274.36</ele>
        <time>2019-04-06T09:15:36Z</time>
      </trkpt>
      <trkpt lat="60.43669" lon="7.69697">
        <ele>1275.81</ele>
        <time>2019-04-06T09:15:51Z</time>
      </trkpt>
      <trkpt lat="60.43683" lon="7.6971">
        <ele>1277.25</ele>
        <time>2019-04-06T09:16:06Z</time>
      </trkpt>
      <trkpt lat="60.43695" lon="7.69726">
        <ele>1278.69</ele>
        <time>2019-04-06T09:16:21Z</time>
      </trkpt>
      <trkpt lat="60.4371" lon="7.69734">
        <ele>1280.61</ele>
        <time>2019-04-06T09:16:35Z</time>
      </trkpt>
      <trkpt lat="60.43724" lon="7.69748">
        <ele>1282.06</ele>
        <time>2019-04-06T09:16:51Z</time>
      </trkpt>
      <trkpt lat="60.43737" lon="7.69764">
        <ele>1281.09</ele>
        <time>2019-04-06T09:17:03Z</time>
      </trkpt>
      <trkpt lat="60.43761" lon="7.69799">
        <ele>1278.21</ele>
        <time>2019-04-06T09:17:14Z</time>
      </trkpt>
      <trkpt lat="60.43784" lon="7.69835">
        <ele>1275.33</ele>
        <time>2019-04-06T09:17:28Z</time>
      </trkpt>
      <trkpt lat="60.43805" lon="7.69866">
        <ele>1274.36</ele>
        <time>2019-04-06T09:17:44Z</time>
      </trkpt>
      <trkpt lat="60.43825" lon="7.69893">
        <ele>1272.92</ele>
        <time>2019-04-06T09:17:59Z</time>
      </trkpt>
      <trkpt lat="60.43846" lon="7.69924">
        <ele>1272.44</ele>
        <time>2019-04-06T09:18:17Z</time>
      </trkpt>
      <trkpt lat="60.43866" lon="7.69947">
        <ele>1271.96</ele>
        <time>2019-04-06T09:18:34Z</time>
      </trkpt>
      <trkpt lat="60.43875" lon="7.69955">
        <ele>1271.96</ele>
        <time>2019-04-06T09:18:42Z</time>
      </trkpt>
      <trkpt lat="60.43877" lon="7.69955">
        <ele>1271</ele>
        <time>2019-04-06T09:18:58Z</time>
      </trkpt>
      <trkpt lat="60.4388" lon="7.69952">
        <ele>1271</ele>
        <time>2019-04-06T09:19:25Z</time>
      </trkpt>
      <trkpt lat="60.43879" lon="7.69951">
        <ele>1270.52</ele>
        <time>2019-04-06T09:19:57Z</time>
      </trkpt>
      <trkpt lat="60.43879" lon="7.69957">
        <ele>1270.52</ele>
        <time>2019-04-06T09:20:23Z</time>
      </trkpt>
      <trkpt lat="60.43881" lon="7.69956">
        <ele>1271.96</ele>
        <time>2019-04-06T09:20:47Z</time>
      </trkpt>
      <trkpt lat="60.43881" lon="7.69956">
        <ele>1270.52</ele>
        <time>2019-04-06T09:20:50Z</time>
      </trkpt>
      <trkpt lat="60.43882" lon="7.69953">
        <ele>1271.48</ele>
        <time>2019-04-06T09:21:14Z</time>
      </trkpt>
      <trkpt lat="60.43881" lon="7.69952">
        <ele>1271.48</ele>
        <time>2019-04-06T09:21:48Z</time>
      </trkpt>
      <trkpt lat="60.4388" lon="7.69957">
        <ele>1271.96</ele>
        <time>2019-04-06T09:22:17Z</time>
      </trkpt>
      <trkpt lat="60.4388" lon="7.69957">
        <ele>1272.44</ele>
        <time>2019-04-06T09:22:35Z</time>
      </trkpt>
      <trkpt lat="60.4388" lon="7.69952">
        <ele>1270.52</ele>
        <time>2019-04-06T09:22:56Z</time>
      </trkpt>
      <trkpt lat="60.4388" lon="7.69952">
        <ele>1271</ele>
        <time>2019-04-06T09:23:19Z</time>
      </trkpt>
      <trkpt lat="60.43879" lon="7.69953">
        <ele>1271</ele>
        <time>2019-04-06T09:23:52Z</time>
      </trkpt>
      <trkpt lat="60.4388" lon="7.69952">
        <ele>1271</ele>
        <time>2019-04-06T09:24:21Z</time>
      </trkpt>
      <trkpt lat="60.43881" lon="7.69953">
        <ele>1271.48</ele>
        <time>2019-04-06T09:24:42Z</time>
      </trkpt>
      <trkpt lat="60.43881" lon="7.69953">
        <ele>1271.48</ele>
        <time>2019-04-06T09:25:07Z</time>
      </trkpt>
      <trkpt lat="60.43881" lon="7.69955">
        <ele>1272.44</ele>
        <time>2019-04-06T09:25:30Z</time>
      </trkpt>
      <trkpt lat="60.43881" lon="7.69955">
        <ele>1267.64</ele>
        <time>2019-04-06T09:25:35Z</time>
      </trkpt>
      <trkpt lat="60.43881" lon="7.69956">
        <ele>1271</ele>
        <time>2019-04-06T09:25:50Z</time>
      </trkpt>
      <trkpt lat="60.43881" lon="7.69953">
        <ele>1271.48</ele>
        <time>2019-04-06T09:26:16Z</time>
      </trkpt>
      <trkpt lat="60.43881" lon="7.69954">
        <ele>1272.92</ele>
        <time>2019-04-06T09:26:35Z</time>
      </trkpt>
      <trkpt lat="60.43881" lon="7.69954">
        <ele>1272.92</ele>
        <time>2019-04-06T09:27:05Z</time>
      </trkpt>
      <trkpt lat="60.43881" lon="7.69955">
        <ele>1272.44</ele>
        <time>2019-04-06T09:27:33Z</time>
      </trkpt>
      <trkpt lat="60.43881" lon="7.69954">
        <ele>1271</ele>
        <time>2019-04-06T09:27:43Z</time>
      </trkpt>
      <trkpt lat="60.43879" lon="7.69958">
        <ele>1271</ele>
        <time>2019-04-06T09:28:16Z</time>
      </trkpt>
      <trkpt lat="60.43879" lon="7.69958">
        <ele>1272.44</ele>
        <time>2019-04-06T09:28:20Z</time>
      </trkpt>
      <trkpt lat="60.43881" lon="7.69955">
        <ele>1271</ele>
        <time>2019-04-06T09:28:35Z</time>
      </trkpt>
      <trkpt lat="60.43879" lon="7.69955">
        <ele>1271.48</ele>
        <time>2019-04-06T09:29:10Z</time>
      </trkpt>
      <trkpt lat="60.43881" lon="7.69955">
        <ele>1271.48</ele>
        <time>2019-04-06T09:29:18Z</time>
      </trkpt>
      <trkpt lat="60.43881" lon="7.69954">
        <ele>1272.44</ele>
        <time>2019-04-06T09:29:46Z</time>
      </trkpt>
      <trkpt lat="60.43883" lon="7.69957">
        <ele>1272.44</ele>
        <time>2019-04-06T09:30:20Z</time>
      </trkpt>
      <trkpt lat="60.43885" lon="7.69954">
        <ele>1272.44</ele>
        <time>2019-04-06T09:30:39Z</time>
      </trkpt>
      <trkpt lat="60.43891" lon="7.69951">
        <ele>1271</ele>
        <time>2019-04-06T09:30:44Z</time>
      </trkpt>
      <trkpt lat="60.43905" lon="7.69938">
        <ele>1271</ele>
        <time>2019-04-06T09:30:58Z</time>
      </trkpt>
      <trkpt lat="60.43924" lon="7.69918">
        <ele>1270.04</ele>
        <time>2019-04-06T09:31:12Z</time>
      </trkpt>
      <trkpt lat="60.43944" lon="7.69903">
        <ele>1266.67</ele>
        <time>2019-04-06T09:31:23Z</time>
      </trkpt>
      <trkpt lat="60.43957" lon="7.69892">
        <ele>1267.16</ele>
        <time>2019-04-06T09:31:36Z</time>
      </trkpt>
      <trkpt lat="60.43969" lon="7.69882">
        <ele>1268.12</ele>
        <time>2019-04-06T09:31:51Z</time>
      </trkpt>
      <trkpt lat="60.43969" lon="7.69882">
        <ele>1268.12</ele>
        <time>2019-04-06T09:31:52Z</time>
      </trkpt>
      <trkpt lat="60.43979" lon="7.69873">
        <ele>1267.16</ele>
        <time>2019-04-06T09:31:59Z</time>
      </trkpt>
      <trkpt lat="60.44004" lon="7.69865">
        <ele>1264.75</ele>
        <time>2019-04-06T09:32:12Z</time>
      </trkpt>
      <trkpt lat="60.44024" lon="7.69848">
        <ele>1260.91</ele>
        <time>2019-04-06T09:32:21Z</time>
      </trkpt>
      <trkpt lat="60.44033" lon="7.69832">
        <ele>1260.43</ele>
        <time>2019-04-06T09:32:30Z</time>
      </trkpt>
      <trkpt lat="60.44036" lon="7.69807">
        <ele>1257.54</ele>
        <time>2019-04-06T09:32:36Z</time>
      </trkpt>
      <trkpt lat="60.4404" lon="7.69785">
        <ele>1255.14</ele>
        <time>2019-04-06T09:32:39Z</time>
      </trkpt>
      <trkpt lat="60.44053" lon="7.69766">
        <ele>1250.33</ele>
        <time>2019-04-06T09:32:43Z</time>
      </trkpt>
      <trkpt lat="60.44056" lon="7.69764">
        <ele>1250.33</ele>
        <time>2019-04-06T09:32:44Z</time>
      </trkpt>
      <trkpt lat="60.44061" lon="7.69761">
        <ele>1250.33</ele>
        <time>2019-04-06T09:32:46Z</time>
      </trkpt>
      <trkpt lat="60.44085" lon="7.69748">
        <ele>1249.37</ele>
        <time>2019-04-06T09:33:04Z</time>
      </trkpt>
      <trkpt lat="60.44098" lon="7.69739">
        <ele>1248.89</ele>
        <time>2019-04-06T09:33:20Z</time>
      </trkpt>
      <trkpt lat="60.44111" lon="7.69735">
        <ele>1248.89</ele>
        <time>2019-04-06T09:33:40Z</time>
      </trkpt>
      <trkpt lat="60.44133" lon="7.69714">
        <ele>1247.45</ele>
        <time>2019-04-06T09:33:56Z</time>
      </trkpt>
      <trkpt lat="60.44146" lon="7.69696">
        <ele>1247.45</ele>
        <time>2019-04-06T09:34:10Z</time>
      </trkpt>
      <trkpt lat="60.44153" lon="7.69688">
        <ele>1248.89</ele>
        <time>2019-04-06T09:34:17Z</time>
      </trkpt>
      <trkpt lat="60.44169" lon="7.69675">
        <ele>1250.33</ele>
        <time>2019-04-06T09:34:33Z</time>
      </trkpt>
      <trkpt lat="60.44185" lon="7.69662">
        <ele>1250.81</ele>
        <time>2019-04-06T09:34:48Z</time>
      </trkpt>
      <trkpt lat="60.44206" lon="7.69649">
        <ele>1249.37</ele>
        <time>2019-04-06T09:35:04Z</time>
      </trkpt>
      <trkpt lat="60.44222" lon="7.6964">
        <ele>1249.37</ele>
        <time>2019-04-06T09:35:19Z</time>
      </trkpt>
      <trkpt lat="60.44237" lon="7.69629">
        <ele>1249.37</ele>
        <time>2019-04-06T09:35:34Z</time>
      </trkpt>
      <trkpt lat="60.44252" lon="7.6962">
        <ele>1250.81</ele>
        <time>2019-04-06T09:35:49Z</time>
      </trkpt>
      <trkpt lat="60.44265" lon="7.69612">
        <ele>1251.29</ele>
        <time>2019-04-06T09:36:04Z</time>
      </trkpt>
      <trkpt lat="60.4427" lon="7.69607">
        <ele>1250.81</ele>
        <time>2019-04-06T09:36:17Z</time>
      </trkpt>
      <trkpt lat="60.44286" lon="7.69592">
        <ele>1250.81</ele>
        <time>2019-04-06T09:36:33Z</time>
      </trkpt>
      <trkpt lat="60.44297" lon="7.69583">
        <ele>1249.37</ele>
        <time>2019-04-06T09:36:43Z</time>
      </trkpt>
      <trkpt lat="60.44302" lon="7.69582">
        <ele>1248.89</ele>
        <time>2019-04-06T09:36:46Z</time>
      </trkpt>
      <trkpt lat="60.44319" lon="7.69577">
        <ele>1245.53</ele>
        <time>2019-04-06T09:36:51Z</time>
      </trkpt>
      <trkpt lat="60.44323" lon="7.69576">
        <ele>1245.53</ele>
        <time>2019-04-06T09:36:52Z</time>
      </trkpt>
      <trkpt lat="60.44341" lon="7.6957">
        <ele>1244.08</ele>
        <time>2019-04-06T09:37:03Z</time>
      </trkpt>
      <trkpt lat="60.4436" lon="7.69559">
        <ele>1244.08</ele>
        <time>2019-04-06T09:37:20Z</time>
      </trkpt>
      <trkpt lat="60.44369" lon="7.69554">
        <ele>1244.56</ele>
        <time>2019-04-06T09:37:30Z</time>
      </trkpt>
      <trkpt lat="60.44381" lon="7.69542">
        <ele>1245.53</ele>
        <time>2019-04-06T09:37:45Z</time>
      </trkpt>
      <trkpt lat="60.44395" lon="7.69533">
        <ele>1246.01</ele>
        <time>2019-04-06T09:38:01Z</time>
      </trkpt>
      <trkpt lat="60.44404" lon="7.69529">
        <ele>1244.56</ele>
        <time>2019-04-06T09:38:10Z</time>
      </trkpt>
      <trkpt lat="60.4442" lon="7.69523">
        <ele>1243.6</ele>
        <time>2019-04-06T09:38:25Z</time>
      </trkpt>
      <trkpt lat="60.44434" lon="7.69513">
        <ele>1242.64</ele>
        <time>2019-04-06T09:38:39Z</time>
      </trkpt>
      <trkpt lat="60.44452" lon="7.69503">
        <ele>1241.68</ele>
        <time>2019-04-06T09:38:53Z</time>
      </trkpt>
      <trkpt lat="60.44471" lon="7.69493">
        <ele>1240.72</ele>
        <time>2019-04-06T09:39:07Z</time>
      </trkpt>
      <trkpt lat="60.44492" lon="7.69483">
        <ele>1238.8</ele>
        <time>2019-04-06T09:39:23Z</time>
      </trkpt>
      <trkpt lat="60.44514" lon="7.69473">
        <ele>1236.87</ele>
        <time>2019-04-06T09:39:37Z</time>
      </trkpt>
      <trkpt lat="60.44529" lon="7.69469">
        <ele>1236.39</ele>
        <time>2019-04-06T09:39:51Z</time>
      </trkpt>
      <trkpt lat="60.44549" lon="7.69463">
        <ele>1234.95</ele>
        <time>2019-04-06T09:40:07Z</time>
      </trkpt>
      <trkpt lat="60.44573" lon="7.69454">
        <ele>1232.07</ele>
        <time>2019-04-06T09:40:23Z</time>
      </trkpt>
      <trkpt lat="60.44599" lon="7.69444">
        <ele>1229.18</ele>
        <time>2019-04-06T09:40:36Z</time>
      </trkpt>
      <trkpt lat="60.44604" lon="7.69441">
        <ele>1228.7</ele>
        <time>2019-04-06T09:40:40Z</time>
      </trkpt>
      <trkpt lat="60.44625" lon="7.69434">
        <ele>1225.82</ele>
        <time>2019-04-06T09:40:50Z</time>
      </trkpt>
      <trkpt lat="60.44628" lon="7.69433">
        <ele>1225.82</ele>
        <time>2019-04-06T09:40:51Z</time>
      </trkpt>
      <trkpt lat="60.44653" lon="7.69434">
        <ele>1222.45</ele>
        <time>2019-04-06T09:40:59Z</time>
      </trkpt>
      <trkpt lat="60.4467" lon="7.69434">
        <ele>1218.61</ele>
        <time>2019-04-06T09:41:02Z</time>
      </trkpt>
      <trkpt lat="60.44682" lon="7.69435">
        <ele>1215.24</ele>
        <time>2019-04-06T09:41:04Z</time>
      </trkpt>
      <trkpt lat="60.44711" lon="7.69434">
        <ele>1211.88</ele>
        <time>2019-04-06T09:41:10Z</time>
      </trkpt>
      <trkpt lat="60.44717" lon="7.69433">
        <ele>1210.92</ele>
        <time>2019-04-06T09:41:12Z</time>
      </trkpt>
      <trkpt lat="60.44733" lon="7.69428">
        <ele>1208.03</ele>
        <time>2019-04-06T09:41:18Z</time>
      </trkpt>
      <trkpt lat="60.44742" lon="7.69422">
        <ele>1207.55</ele>
        <time>2019-04-06T09:41:22Z</time>
      </trkpt>
      <trkpt lat="60.44766" lon="7.69404">
        <ele>1204.19</ele>
        <time>2019-04-06T09:41:30Z</time>
      </trkpt>
      <trkpt lat="60.44773" lon="7.694">
        <ele>1203.71</ele>
        <time>2019-04-06T09:41:32Z</time>
      </trkpt>
      <trkpt lat="60.44785" lon="7.69394">
        <ele>1202.27</ele>
        <time>2019-04-06T09:41:36Z</time>
      </trkpt>
      <trkpt lat="60.4481" lon="7.69375">
        <ele>1198.9</ele>
        <time>2019-04-06T09:41:46Z</time>
      </trkpt>
      <trkpt lat="60.44817" lon="7.69376">
        <ele>1197.94</ele>
        <time>2019-04-06T09:41:48Z</time>
      </trkpt>
      <trkpt lat="60.4482" lon="7.69378">
        <ele>1197.46</ele>
        <time>2019-04-06T09:41:49Z</time>
      </trkpt>
      <trkpt lat="60.44847" lon="7.69376">
        <ele>1192.65</ele>
        <time>2019-04-06T09:41:55Z</time>
      </trkpt>
      <trkpt lat="60.44852" lon="7.69375">
        <ele>1192.65</ele>
        <time>2019-04-06T09:41:56Z</time>
      </trkpt>
      <trkpt lat="60.44872" lon="7.69369">
        <ele>1188.81</ele>
        <time>2019-04-06T09:42:00Z</time>
      </trkpt>
      <trkpt lat="60.4489" lon="7.69363">
        <ele>1185.92</ele>
        <time>2019-04-06T09:42:03Z</time>
      </trkpt>
      <trkpt lat="60.44899" lon="7.69357">
        <ele>1184</ele>
        <time>2019-04-06T09:42:05Z</time>
      </trkpt>
      <trkpt lat="60.44909" lon="7.6935">
        <ele>1183.04</ele>
        <time>2019-04-06T09:42:08Z</time>
      </trkpt>
      <trkpt lat="60.44925" lon="7.69339">
        <ele>1182.56</ele>
        <time>2019-04-06T09:42:20Z</time>
      </trkpt>
      <trkpt lat="60.44948" lon="7.69347">
        <ele>1178.71</ele>
        <time>2019-04-06T09:42:30Z</time>
      </trkpt>
      <trkpt lat="60.44969" lon="7.69346">
        <ele>1175.83</ele>
        <time>2019-04-06T09:42:36Z</time>
      </trkpt>
      <trkpt lat="60.44985" lon="7.69347">
        <ele>1176.79</ele>
        <time>2019-04-06T09:42:48Z</time>
      </trkpt>
      <trkpt lat="60.45007" lon="7.69344">
        <ele>1176.79</ele>
        <time>2019-04-06T09:43:05Z</time>
      </trkpt>
      <trkpt lat="60.45026" lon="7.69346">
        <ele>1176.79</ele>
        <time>2019-04-06T09:43:20Z</time>
      </trkpt>
      <trkpt lat="60.45031" lon="7.69347">
        <ele>1175.83</ele>
        <time>2019-04-06T09:43:23Z</time>
      </trkpt>
      <trkpt lat="60.45051" lon="7.69351">
        <ele>1174.39</ele>
        <time>2019-04-06T09:43:38Z</time>
      </trkpt>
      <trkpt lat="60.4506" lon="7.69352">
        <ele>1175.83</ele>
        <time>2019-04-06T09:43:46Z</time>
      </trkpt>
      <trkpt lat="60.4508" lon="7.69355">
        <ele>1175.83</ele>
        <time>2019-04-06T09:44:03Z</time>
      </trkpt>
      <trkpt lat="60.45096" lon="7.69356">
        <ele>1175.83</ele>
        <time>2019-04-06T09:44:17Z</time>
      </trkpt>
      <trkpt lat="60.45107" lon="7.69357">
        <ele>1175.83</ele>
        <time>2019-04-06T09:44:26Z</time>
      </trkpt>
      <trkpt lat="60.45123" lon="7.69357">
        <ele>1175.83</ele>
        <time>2019-04-06T09:44:40Z</time>
      </trkpt>
      <trkpt lat="60.45142" lon="7.6936">
        <ele>1175.83</ele>
        <time>2019-04-06T09:44:57Z</time>
      </trkpt>
      <trkpt lat="60.45149" lon="7.69358">
        <ele>1173.91</ele>
        <time>2019-04-06T09:45:03Z</time>
      </trkpt>
      <trkpt lat="60.45153" lon="7.69356">
        <ele>1175.35</ele>
        <time>2019-04-06T09:45:07Z</time>
      </trkpt>
      <trkpt lat="60.45172" lon="7.69357">
        <ele>1175.83</ele>
        <time>2019-04-06T09:45:24Z</time>
      </trkpt>
      <trkpt lat="60.45188" lon="7.69356">
        <ele>1175.83</ele>
        <time>2019-04-06T09:45:38Z</time>
      </trkpt>
      <trkpt lat="60.45207" lon="7.69352">
        <ele>1175.83</ele>
        <time>2019-04-06T09:45:55Z</time>
      </trkpt>
      <trkpt lat="60.45228" lon="7.69346">
        <ele>1174.87</ele>
        <time>2019-04-06T09:46:13Z</time>
      </trkpt>
      <trkpt lat="60.45244" lon="7.69344">
        <ele>1174.87</ele>
        <time>2019-04-06T09:46:28Z</time>
      </trkpt>
      <trkpt lat="60.45258" lon="7.6934">
        <ele>1174.87</ele>
        <time>2019-04-06T09:46:42Z</time>
      </trkpt>
      <trkpt lat="60.45273" lon="7.6934">
        <ele>1174.87</ele>
        <time>2019-04-06T09:46:56Z</time>
      </trkpt>
      <trkpt lat="60.45278" lon="7.6934">
        <ele>1174.87</ele>
        <time>2019-04-06T09:47:00Z</time>
      </trkpt>
      <trkpt lat="60.45294" lon="7.69337">
        <ele>1174.39</ele>
        <time>2019-04-06T09:47:15Z</time>
      </trkpt>
      <trkpt lat="60.45308" lon="7.69336">
        <ele>1174.39</ele>
        <time>2019-04-06T09:47:29Z</time>
      </trkpt>
      <trkpt lat="60.45322" lon="7.69335">
        <ele>1174.39</ele>
        <time>2019-04-06T09:47:44Z</time>
      </trkpt>
      <trkpt lat="60.45337" lon="7.69329">
        <ele>1174.39</ele>
        <time>2019-04-06T09:47:59Z</time>
      </trkpt>
      <trkpt lat="60.45352" lon="7.69326">
        <ele>1175.83</ele>
        <time>2019-04-06T09:48:13Z</time>
      </trkpt>
      <trkpt lat="60.45362" lon="7.69323">
        <ele>1173.91</ele>
        <time>2019-04-06T09:48:22Z</time>
      </trkpt>
      <trkpt lat="60.45372" lon="7.69319">
        <ele>1175.35</ele>
        <time>2019-04-06T09:48:31Z</time>
      </trkpt>
      <trkpt lat="60.45386" lon="7.69315">
        <ele>1175.35</ele>
        <time>2019-04-06T09:48:47Z</time>
      </trkpt>
      <trkpt lat="60.45389" lon="7.69315">
        <ele>1176.79</ele>
        <time>2019-04-06T09:49:03Z</time>
      </trkpt>
      <trkpt lat="60.45391" lon="7.69314">
        <ele>1175.35</ele>
        <time>2019-04-06T09:49:08Z</time>
      </trkpt>
      <trkpt lat="60.45407" lon="7.69309">
        <ele>1174.87</ele>
        <time>2019-04-06T09:49:23Z</time>
      </trkpt>
      <trkpt lat="60.45416" lon="7.69304">
        <ele>1176.31</ele>
        <time>2019-04-06T09:49:31Z</time>
      </trkpt>
      <trkpt lat="60.45428" lon="7.693">
        <ele>1175.83</ele>
        <time>2019-04-06T09:49:42Z</time>
      </trkpt>
      <trkpt lat="60.45444" lon="7.69295">
        <ele>1175.83</ele>
        <time>2019-04-06T09:49:57Z</time>
      </trkpt>
      <trkpt lat="60.45448" lon="7.69295">
        <ele>1177.27</ele>
        <time>2019-04-06T09:50:00Z</time>
      </trkpt>
      <trkpt lat="60.45468" lon="7.69287">
        <ele>1175.35</ele>
        <time>2019-04-06T09:50:17Z</time>
      </trkpt>
      <trkpt lat="60.4548" lon="7.6928">
        <ele>1176.31</ele>
        <time>2019-04-06T09:50:28Z</time>
      </trkpt>
      <trkpt lat="60.45495" lon="7.69277">
        <ele>1176.79</ele>
        <time>2019-04-06T09:50:43Z</time>
      </trkpt>
      <trkpt lat="60.45514" lon="7.69272">
        <ele>1176.79</ele>
        <time>2019-04-06T09:51:00Z</time>
      </trkpt>
      <trkpt lat="60.45531" lon="7.69265">
        <ele>1175.35</ele>
        <time>2019-04-06T09:51:16Z</time>
      </trkpt>
      <trkpt lat="60.45537" lon="7.6926">
        <ele>1175.83</ele>
        <time>2019-04-06T09:51:23Z</time>
      </trkpt>
      <trkpt lat="60.45553" lon="7.69252">
        <ele>1174.87</ele>
        <time>2019-04-06T09:51:38Z</time>
      </trkpt>
      <trkpt lat="60.45569" lon="7.69245">
        <ele>1175.83</ele>
        <time>2019-04-06T09:51:53Z</time>
      </trkpt>
      <trkpt lat="60.45582" lon="7.69238">
        <ele>1176.31</ele>
        <time>2019-04-06T09:52:08Z</time>
      </trkpt>
      <trkpt lat="60.45588" lon="7.69233">
        <ele>1175.35</ele>
        <time>2019-04-06T09:52:14Z</time>
      </trkpt>
      <trkpt lat="60.45603" lon="7.69216">
        <ele>1174.39</ele>
        <time>2019-04-06T09:52:30Z</time>
      </trkpt>
      <trkpt lat="60.4561" lon="7.69211">
        <ele>1175.83</ele>
        <time>2019-04-06T09:52:37Z</time>
      </trkpt>
      <trkpt lat="60.45625" lon="7.69203">
        <ele>1174.39</ele>
        <time>2019-04-06T09:52:54Z</time>
      </trkpt>
      <trkpt lat="60.45626" lon="7.69201">
        <ele>1174.39</ele>
        <time>2019-04-06T09:52:55Z</time>
      </trkpt>
      <trkpt lat="60.45639" lon="7.69188">
        <ele>1174.39</ele>
        <time>2019-04-06T09:53:08Z</time>
      </trkpt>
      <trkpt lat="60.45651" lon="7.69176">
        <ele>1175.83</ele>
        <time>2019-04-06T09:53:21Z</time>
      </trkpt>
      <trkpt lat="60.45657" lon="7.69167">
        <ele>1175.83</ele>
        <time>2019-04-06T09:53:36Z</time>
      </trkpt>
      <trkpt lat="60.45659" lon="7.69165">
        <ele>1176.31</ele>
        <time>2019-04-06T09:54:07Z</time>
      </trkpt>
      <trkpt lat="60.45667" lon="7.69159">
        <ele>1176.31</ele>
        <time>2019-04-06T09:54:25Z</time>
      </trkpt>
      <trkpt lat="60.45683" lon="7.69147">
        <ele>1176.31</ele>
        <time>2019-04-06T09:54:40Z</time>
      </trkpt>
      <trkpt lat="60.45697" lon="7.69133">
        <ele>1174.87</ele>
        <time>2019-04-06T09:54:53Z</time>
      </trkpt>
      <trkpt lat="60.45711" lon="7.69116">
        <ele>1174.87</ele>
        <time>2019-04-06T09:55:07Z</time>
      </trkpt>
      <trkpt lat="60.45725" lon="7.69101">
        <ele>1174.87</ele>
        <time>2019-04-06T09:55:22Z</time>
      </trkpt>
      <trkpt lat="60.45742" lon="7.69084">
        <ele>1174.87</ele>
        <time>2019-04-06T09:55:39Z</time>
      </trkpt>
      <trkpt lat="60.45756" lon="7.69063">
        <ele>1174.87</ele>
        <time>2019-04-06T09:55:56Z</time>
      </trkpt>
      <trkpt lat="60.45774" lon="7.69041">
        <ele>1174.39</ele>
        <time>2019-04-06T09:56:14Z</time>
      </trkpt>
      <trkpt lat="60.45788" lon="7.69021">
        <ele>1174.39</ele>
        <time>2019-04-06T09:56:29Z</time>
      </trkpt>
      <trkpt lat="60.45791" lon="7.69016">
        <ele>1175.35</ele>
        <time>2019-04-06T09:56:34Z</time>
      </trkpt>
      <trkpt lat="60.45803" lon="7.69004">
        <ele>1176.31</ele>
        <time>2019-04-06T09:56:50Z</time>
      </trkpt>
      <trkpt lat="60.45815" lon="7.68995">
        <ele>1176.79</ele>
        <time>2019-04-06T09:57:05Z</time>
      </trkpt>
      <trkpt lat="60.45831" lon="7.68982">
        <ele>1176.79</ele>
        <time>2019-04-06T09:57:21Z</time>
      </trkpt>
      <trkpt lat="60.45846" lon="7.68961">
        <ele>1176.79</ele>
        <time>2019-04-06T09:57:38Z</time>
      </trkpt>
      <trkpt lat="60.45857" lon="7.68941">
        <ele>1175.83</ele>
        <time>2019-04-06T09:57:52Z</time>
      </trkpt>
      <trkpt lat="60.45868" lon="7.68919">
        <ele>1175.35</ele>
        <time>2019-04-06T09:58:06Z</time>
      </trkpt>
      <trkpt lat="60.4588" lon="7.68898">
        <ele>1175.35</ele>
        <time>2019-04-06T09:58:22Z</time>
      </trkpt>
      <trkpt lat="60.45893" lon="7.68877">
        <ele>1174.87</ele>
        <time>2019-04-06T09:58:37Z</time>
      </trkpt>
      <trkpt lat="60.45909" lon="7.68858">
        <ele>1174.39</ele>
        <time>2019-04-06T09:58:53Z</time>
      </trkpt>
      <trkpt lat="60.45922" lon="7.68835">
        <ele>1173.43</ele>
        <time>2019-04-06T09:59:08Z</time>
      </trkpt>
      <trkpt lat="60.45935" lon="7.68815">
        <ele>1175.35</ele>
        <time>2019-04-06T09:59:22Z</time>
      </trkpt>
      <trkpt lat="60.45948" lon="7.68794">
        <ele>1174.87</ele>
        <time>2019-04-06T09:59:38Z</time>
      </trkpt>
      <trkpt lat="60.45962" lon="7.68776">
        <ele>1174.87</ele>
        <time>2019-04-06T09:59:53Z</time>
      </trkpt>
      <trkpt lat="60.45975" lon="7.6876">
        <ele>1174.87</ele>
        <time>2019-04-06T10:00:08Z</time>
      </trkpt>
      <trkpt lat="60.45987" lon="7.68741">
        <ele>1174.87</ele>
        <time>2019-04-06T10:00:23Z</time>
      </trkpt>
      <trkpt lat="60.45988" lon="7.68739">
        <ele>1173.91</ele>
        <time>2019-04-06T10:00:25Z</time>
      </trkpt>
      <trkpt lat="60.46001" lon="7.6872">
        <ele>1173.43</ele>
        <time>2019-04-06T10:00:40Z</time>
      </trkpt>
      <trkpt lat="60.46017" lon="7.68697">
        <ele>1175.35</ele>
        <time>2019-04-06T10:00:57Z</time>
      </trkpt>
      <trkpt lat="60.46032" lon="7.68677">
        <ele>1175.83</ele>
        <time>2019-04-06T10:01:13Z</time>
      </trkpt>
      <trkpt lat="60.46046" lon="7.6866">
        <ele>1173.91</ele>
        <time>2019-04-06T10:01:28Z</time>
      </trkpt>
      <trkpt lat="60.46052" lon="7.68652">
        <ele>1175.35</ele>
        <time>2019-04-06T10:01:35Z</time>
      </trkpt>
      <trkpt lat="60.46067" lon="7.68634">
        <ele>1173.91</ele>
        <time>2019-04-06T10:01:51Z</time>
      </trkpt>
      <trkpt lat="60.46079" lon="7.68615">
        <ele>1175.35</ele>
        <time>2019-04-06T10:02:06Z</time>
      </trkpt>
      <trkpt lat="60.46091" lon="7.686">
        <ele>1173.43</ele>
        <time>2019-04-06T10:02:19Z</time>
      </trkpt>
      <trkpt lat="60.46095" lon="7.68595">
        <ele>1176.31</ele>
        <time>2019-04-06T10:02:24Z</time>
      </trkpt>
      <trkpt lat="60.46097" lon="7.68592">
        <ele>1174.87</ele>
        <time>2019-04-06T10:02:26Z</time>
      </trkpt>
      <trkpt lat="60.461" lon="7.68588">
        <ele>1173.43</ele>
        <time>2019-04-06T10:02:29Z</time>
      </trkpt>
      <trkpt lat="60.46106" lon="7.68576">
        <ele>1174.87</ele>
        <time>2019-04-06T10:02:38Z</time>
      </trkpt>
      <trkpt lat="60.4611" lon="7.6857">
        <ele>1174.87</ele>
        <time>2019-04-06T10:02:42Z</time>
      </trkpt>
      <trkpt lat="60.46127" lon="7.6855">
        <ele>1173.43</ele>
        <time>2019-04-06T10:03:00Z</time>
      </trkpt>
      <trkpt lat="60.46128" lon="7.68549">
        <ele>1173.43</ele>
        <time>2019-04-06T10:03:01Z</time>
      </trkpt>
      <trkpt lat="60.46141" lon="7.68532">
        <ele>1174.87</ele>
        <time>2019-04-06T10:03:16Z</time>
      </trkpt>
      <trkpt lat="60.46153" lon="7.68511">
        <ele>1174.39</ele>
        <time>2019-04-06T10:03:31Z</time>
      </trkpt>
      <trkpt lat="60.46168" lon="7.6849">
        <ele>1174.39</ele>
        <time>2019-04-06T10:03:47Z</time>
      </trkpt>
      <trkpt lat="60.46178" lon="7.68475">
        <ele>1173.91</ele>
        <time>2019-04-06T10:03:58Z</time>
      </trkpt>
      <trkpt lat="60.46194" lon="7.68451">
        <ele>1175.35</ele>
        <time>2019-04-06T10:04:15Z</time>
      </trkpt>
      <trkpt lat="60.46206" lon="7.68432">
        <ele>1174.87</ele>
        <time>2019-04-06T10:04:30Z</time>
      </trkpt>
      <trkpt lat="60.46213" lon="7.68424">
        <ele>1173.43</ele>
        <time>2019-04-06T10:04:37Z</time>
      </trkpt>
      <trkpt lat="60.46228" lon="7.68405">
        <ele>1174.87</ele>
        <time>2019-04-06T10:04:54Z</time>
      </trkpt>
      <trkpt lat="60.46229" lon="7.68404">
        <ele>1174.87</ele>
        <time>2019-04-06T10:04:55Z</time>
      </trkpt>
      <trkpt lat="60.46243" lon="7.68388">
        <ele>1174.39</ele>
        <time>2019-04-06T10:05:10Z</time>
      </trkpt>
      <trkpt lat="60.46245" lon="7.68387">
        <ele>1175.83</ele>
        <time>2019-04-06T10:05:14Z</time>
      </trkpt>
      <trkpt lat="60.46245" lon="7.68386">
        <ele>1173.43</ele>
        <time>2019-04-06T10:05:30Z</time>
      </trkpt>
      <trkpt lat="60.46247" lon="7.68382">
        <ele>1173.43</ele>
        <time>2019-04-06T10:05:46Z</time>
      </trkpt>
      <trkpt lat="60.46247" lon="7.68382">
        <ele>1174.39</ele>
        <time>2019-04-06T10:06:05Z</time>
      </trkpt>
      <trkpt lat="60.46247" lon="7.68382">
        <ele>1172.47</ele>
        <time>2019-04-06T10:06:09Z</time>
      </trkpt>
      <trkpt lat="60.46247" lon="7.68382">
        <ele>1174.39</ele>
        <time>2019-04-06T10:06:46Z</time>
      </trkpt>
      <trkpt lat="60.46245" lon="7.68381">
        <ele>1172.95</ele>
        <time>2019-04-06T10:07:16Z</time>
      </trkpt>
      <trkpt lat="60.46246" lon="7.68381">
        <ele>1174.39</ele>
        <time>2019-04-06T10:07:20Z</time>
      </trkpt>
      <trkpt lat="60.46245" lon="7.68382">
        <ele>1172.95</ele>
        <time>2019-04-06T10:07:34Z</time>
      </trkpt>
      <trkpt lat="60.46245" lon="7.6838">
        <ele>1174.87</ele>
        <time>2019-04-06T10:07:58Z</time>
      </trkpt>
      <trkpt lat="60.46246" lon="7.6838">
        <ele>1173.43</ele>
        <time>2019-04-06T10:08:00Z</time>
      </trkpt>
      <trkpt lat="60.46247" lon="7.68382">
        <ele>1175.35</ele>
        <time>2019-04-06T10:08:17Z</time>
      </trkpt>
      <trkpt lat="60.46248" lon="7.6838">
        <ele>1172.95</ele>
        <time>2019-04-06T10:08:29Z</time>
      </trkpt>
      <trkpt lat="60.46254" lon="7.68375">
        <ele>1174.87</ele>
        <time>2019-04-06T10:08:43Z</time>
      </trkpt>
      <trkpt lat="60.46256" lon="7.68372">
        <ele>1173.43</ele>
        <time>2019-04-06T10:08:45Z</time>
      </trkpt>
      <trkpt lat="60.46271" lon="7.68355">
        <ele>1173.43</ele>
        <time>2019-04-06T10:09:00Z</time>
      </trkpt>
      <trkpt lat="60.46277" lon="7.6835">
        <ele>1174.87</ele>
        <time>2019-04-06T10:09:06Z</time>
      </trkpt>
      <trkpt lat="60.46289" lon="7.68333">
        <ele>1174.87</ele>
        <time>2019-04-06T10:09:22Z</time>
      </trkpt>
      <trkpt lat="60.46292" lon="7.68329">
        <ele>1173.43</ele>
        <time>2019-04-06T10:09:25Z</time>
      </trkpt>
      <trkpt lat="60.46295" lon="7.68325">
        <ele>1174.87</ele>
        <time>2019-04-06T10:09:29Z</time>
      </trkpt>
      <trkpt lat="60.46301" lon="7.68318">
        <ele>1173.43</ele>
        <time>2019-04-06T10:09:46Z</time>
      </trkpt>
      <trkpt lat="60.46302" lon="7.68317">
        <ele>1172.47</ele>
        <time>2019-04-06T10:10:06Z</time>
      </trkpt>
      <trkpt lat="60.46302" lon="7.68318">
        <ele>1173.91</ele>
        <time>2019-04-06T10:10:15Z</time>
      </trkpt>
      <trkpt lat="60.46302" lon="7.68318">
        <ele>1172.47</ele>
        <time>2019-04-06T10:10:17Z</time>
      </trkpt>
      <trkpt lat="60.46304" lon="7.68312">
        <ele>1173.91</ele>
        <time>2019-04-06T10:10:22Z</time>
      </trkpt>
      <trkpt lat="60.46318" lon="7.68283">
        <ele>1174.39</ele>
        <time>2019-04-06T10:10:38Z</time>
      </trkpt>
      <trkpt lat="60.46321" lon="7.68277">
        <ele>1172.95</ele>
        <time>2019-04-06T10:10:41Z</time>
      </trkpt>
      <trkpt lat="60.46322" lon="7.68274">
        <ele>1172.95</ele>
        <time>2019-04-06T10:10:54Z</time>
      </trkpt>
      <trkpt lat="60.46322" lon="7.68274">
        <ele>1172.95</ele>
        <time>2019-04-06T10:11:04Z</time>
      </trkpt>
      <trkpt lat="60.46322" lon="7.68271">
        <ele>1172.95</ele>
        <time>2019-04-06T10:11:08Z</time>
      </trkpt>
      <trkpt lat="60.46321" lon="7.68273">
        <ele>1174.39</ele>
        <time>2019-04-06T10:11:39Z</time>
      </trkpt>
      <trkpt lat="60.46321" lon="7.68272">
        <ele>1173.43</ele>
        <time>2019-04-06T10:12:12Z</time>
      </trkpt>
      <trkpt lat="60.46321" lon="7.68272">
        <ele>1174.39</ele>
        <time>2019-04-06T10:12:37Z</time>
      </trkpt>
      <trkpt lat="60.46322" lon="7.68272">
        <ele>1172.95</ele>
        <time>2019-04-06T10:12:44Z</time>
      </trkpt>
      <trkpt lat="60.46322" lon="7.68273">
        <ele>1172.95</ele>
        <time>2019-04-06T10:13:16Z</time>
      </trkpt>
      <trkpt lat="60.46322" lon="7.68272">
        <ele>1172.95</ele>
        <time>2019-04-06T10:13:50Z</time>
      </trkpt>
      <trkpt lat="60.46322" lon="7.68272">
        <ele>1172.95</ele>
        <time>2019-04-06T10:14:24Z</time>
      </trkpt>
      <trkpt lat="60.46321" lon="7.68274">
        <ele>1173.91</ele>
        <time>2019-04-06T10:14:57Z</time>
      </trkpt>
      <trkpt lat="60.46321" lon="7.68274">
        <ele>1173.91</ele>
        <time>2019-04-06T10:15:31Z</time>
      </trkpt>
      <trkpt lat="60.46321" lon="7.68275">
        <ele>1173.91</ele>
        <time>2019-04-06T10:16:06Z</time>
      </trkpt>
      <trkpt lat="60.46321" lon="7.68273">
        <ele>1173.91</ele>
        <time>2019-04-06T10:16:45Z</time>
      </trkpt>
      <trkpt lat="60.46321" lon="7.68275">
        <ele>1173.91</ele>
        <time>2019-04-06T10:17:15Z</time>
      </trkpt>
      <trkpt lat="60.46322" lon="7.6827">
        <ele>1173.91</ele>
        <time>2019-04-06T10:17:52Z</time>
      </trkpt>
      <trkpt lat="60.46321" lon="7.68269">
        <ele>1173.91</ele>
        <time>2019-04-06T10:18:31Z</time>
      </trkpt>
      <trkpt lat="60.46322" lon="7.68272">
        <ele>1172.95</ele>
        <time>2019-04-06T10:19:09Z</time>
      </trkpt>
      <trkpt lat="60.46322" lon="7.68271">
        <ele>1173.91</ele>
        <time>2019-04-06T10:19:31Z</time>
      </trkpt>
      <trkpt lat="60.46322" lon="7.6827">
        <ele>1173.91</ele>
        <time>2019-04-06T10:20:04Z</time>
      </trkpt>
      <trkpt lat="60.46322" lon="7.6827">
        <ele>1172.95</ele>
        <time>2019-04-06T10:20:45Z</time>
      </trkpt>
      <trkpt lat="60.46322" lon="7.6827">
        <ele>1172.95</ele>
        <time>2019-04-06T10:21:25Z</time>
      </trkpt>
      <trkpt lat="60.46322" lon="7.68269">
        <ele>1173.43</ele>
        <time>2019-04-06T10:22:04Z</time>
      </trkpt>
      <trkpt lat="60.46322" lon="7.68269">
        <ele>1174.39</ele>
        <time>2019-04-06T10:22:07Z</time>
      </trkpt>
      <trkpt lat="60.46322" lon="7.68269">
        <ele>1172.95</ele>
        <time>2019-04-06T10:22:53Z</time>
      </trkpt>
      <trkpt lat="60.46321" lon="7.68269">
        <ele>1172.95</ele>
        <time>2019-04-06T10:23:34Z</time>
      </trkpt>
      <trkpt lat="60.46321" lon="7.68268">
        <ele>1172.95</ele>
        <time>2019-04-06T10:24:13Z</time>
      </trkpt>
      <trkpt lat="60.46322" lon="7.68269">
        <ele>1172.95</ele>
        <time>2019-04-06T10:24:45Z</time>
      </trkpt>
      <trkpt lat="60.46321" lon="7.68268">
        <ele>1172.95</ele>
        <time>2019-04-06T10:25:24Z</time>
      </trkpt>
      <trkpt lat="60.46322" lon="7.68268">
        <ele>1173.43</ele>
        <time>2019-04-06T10:26:03Z</time>
      </trkpt>
      <trkpt lat="60.46322" lon="7.68268">
        <ele>1173.43</ele>
        <time>2019-04-06T10:26:39Z</time>
      </trkpt>
      <trkpt lat="60.46321" lon="7.68269">
        <ele>1173.43</ele>
        <time>2019-04-06T10:27:14Z</time>
      </trkpt>
      <trkpt lat="60.46321" lon="7.6827">
        <ele>1173.43</ele>
        <time>2019-04-06T10:27:50Z</time>
      </trkpt>
      <trkpt lat="60.46321" lon="7.6827">
        <ele>1173.43</ele>
        <time>2019-04-06T10:28:00Z</time>
      </trkpt>
      <trkpt lat="60.46321" lon="7.68269">
        <ele>1175.35</ele>
        <time>2019-04-06T10:28:03Z</time>
      </trkpt>
      <trkpt lat="60.46321" lon="7.68269">
        <ele>1173.91</ele>
        <time>2019-04-06T10:28:06Z</time>
      </trkpt>
      <trkpt lat="60.46323" lon="7.68272">
        <ele>1173.91</ele>
        <time>2019-04-06T10:28:31Z</time>
      </trkpt>
      <trkpt lat="60.46323" lon="7.68271">
        <ele>1173.91</ele>
        <time>2019-04-06T10:28:55Z</time>
      </trkpt>
      <trkpt lat="60.46322" lon="7.68271">
        <ele>1173.91</ele>
        <time>2019-04-06T10:29:22Z</time>
      </trkpt>
      <trkpt lat="60.46321" lon="7.68274">
        <ele>1175.35</ele>
        <time>2019-04-06T10:29:27Z</time>
      </trkpt>
      <trkpt lat="60.46321" lon="7.68275">
        <ele>1171.5</ele>
        <time>2019-04-06T10:29:28Z</time>
      </trkpt>
      <trkpt lat="60.46321" lon="7.68276">
        <ele>1176.31</ele>
        <time>2019-04-06T10:29:29Z</time>
      </trkpt>
      <trkpt lat="60.46321" lon="7.68276">
        <ele>1174.87</ele>
        <time>2019-04-06T10:29:32Z</time>
      </trkpt>
      <trkpt lat="60.46321" lon="7.68276">
        <ele>1173.43</ele>
        <time>2019-04-06T10:29:47Z</time>
      </trkpt>
      <trkpt lat="60.46322" lon="7.68277">
        <ele>1172.95</ele>
        <time>2019-04-06T10:30:09Z</time>
      </trkpt>
      <trkpt lat="60.46322" lon="7.68277">
        <ele>1174.39</ele>
        <time>2019-04-06T10:30:11Z</time>
      </trkpt>
      <trkpt lat="60.46326" lon="7.68277">
        <ele>1175.35</ele>
        <time>2019-04-06T10:30:16Z</time>
      </trkpt>
      <trkpt lat="60.46336" lon="7.68281">
        <ele>1174.39</ele>
        <time>2019-04-06T10:30:28Z</time>
      </trkpt>
      <trkpt lat="60.46337" lon="7.68281">
        <ele>1175.83</ele>
        <time>2019-04-06T10:30:32Z</time>
      </trkpt>
      <trkpt lat="60.46336" lon="7.6828">
        <ele>1175.35</ele>
        <time>2019-04-06T10:30:57Z</time>
      </trkpt>
      <trkpt lat="60.46336" lon="7.68273">
        <ele>1173.91</ele>
        <time>2019-04-06T10:31:13Z</time>
      </trkpt>
      <trkpt lat="60.46338" lon="7.68264">
        <ele>1175.35</ele>
        <time>2019-04-06T10:31:25Z</time>
      </trkpt>
      <trkpt lat="60.46342" lon="7.68263">
        <ele>1175.35</ele>
        <time>2019-04-06T10:31:33Z</time>
      </trkpt>
      <trkpt lat="60.4635" lon="7.68262">
        <ele>1175.35</ele>
        <time>2019-04-06T10:31:37Z</time>
      </trkpt>
      <trkpt lat="60.46375" lon="7.6825">
        <ele>1175.35</ele>
        <time>2019-04-06T10:31:45Z</time>
      </trkpt>
      <trkpt lat="60.46389" lon="7.6823">
        <ele>1173.43</ele>
        <time>2019-04-06T10:31:49Z</time>
      </trkpt>
      <trkpt lat="60.46398" lon="7.68216">
        <ele>1173.43</ele>
        <time>2019-04-06T10:31:51Z</time>
      </trkpt>
      <trkpt lat="60.46416" lon="7.68174">
        <ele>1171.02</ele>
        <time>2019-04-06T10:31:55Z</time>
      </trkpt>
      <trkpt lat="60.46454" lon="7.68097">
        <ele>1170.06</ele>
        <time>2019-04-06T10:32:02Z</time>
      </trkpt>
      <trkpt lat="60.46468" lon="7.68064">
        <ele>1171.98</ele>
        <time>2019-04-06T10:32:05Z</time>
      </trkpt>
      <trkpt lat="60.46483" lon="7.68036">
        <ele>1173.91</ele>
        <time>2019-04-06T10:32:08Z</time>
      </trkpt>
      <trkpt lat="60.46492" lon="7.68021">
        <ele>1174.87</ele>
        <time>2019-04-06T10:32:10Z</time>
      </trkpt>
      <trkpt lat="60.465" lon="7.68005">
        <ele>1175.83</ele>
        <time>2019-04-06T10:32:12Z</time>
      </trkpt>
      <trkpt lat="60.46532" lon="7.67941">
        <ele>1174.87</ele>
        <time>2019-04-06T10:32:19Z</time>
      </trkpt>
      <trkpt lat="60.4656" lon="7.67889">
        <ele>1172.95</ele>
        <time>2019-04-06T10:32:24Z</time>
      </trkpt>
      <trkpt lat="60.46596" lon="7.67816">
        <ele>1174.39</ele>
        <time>2019-04-06T10:32:31Z</time>
      </trkpt>
      <trkpt lat="60.46615" lon="7.67789">
        <ele>1176.79</ele>
        <time>2019-04-06T10:32:35Z</time>
      </trkpt>
      <trkpt lat="60.46634" lon="7.67761">
        <ele>1177.27</ele>
        <time>2019-04-06T10:32:39Z</time>
      </trkpt>
      <trkpt lat="60.46647" lon="7.67742">
        <ele>1179.19</ele>
        <time>2019-04-06T10:32:42Z</time>
      </trkpt>
      <trkpt lat="60.46651" lon="7.67734">
        <ele>1179.19</ele>
        <time>2019-04-06T10:32:43Z</time>
      </trkpt>
      <trkpt lat="60.46667" lon="7.67693">
        <ele>1180.16</ele>
        <time>2019-04-06T10:32:48Z</time>
      </trkpt>
      <trkpt lat="60.46689" lon="7.67635">
        <ele>1176.79</ele>
        <time>2019-04-06T10:32:54Z</time>
      </trkpt>
      <trkpt lat="60.46694" lon="7.67625">
        <ele>1176.79</ele>
        <time>2019-04-06T10:32:55Z</time>
      </trkpt>
      <trkpt lat="60.46732" lon="7.67531">
        <ele>1174.87</ele>
        <time>2019-04-06T10:33:04Z</time>
      </trkpt>
      <trkpt lat="60.46775" lon="7.6745">
        <ele>1177.75</ele>
        <time>2019-04-06T10:33:14Z</time>
      </trkpt>
      <trkpt lat="60.46779" lon="7.67443">
        <ele>1177.75</ele>
        <time>2019-04-06T10:33:15Z</time>
      </trkpt>
      <trkpt lat="60.46789" lon="7.67422">
        <ele>1179.19</ele>
        <time>2019-04-06T10:33:18Z</time>
      </trkpt>
      <trkpt lat="60.46797" lon="7.67412">
        <ele>1180.64</ele>
        <time>2019-04-06T10:33:20Z</time>
      </trkpt>
      <trkpt lat="60.46851" lon="7.67335">
        <ele>1176.79</ele>
        <time>2019-04-06T10:33:30Z</time>
      </trkpt>
      <trkpt lat="60.46857" lon="7.67327">
        <ele>1176.79</ele>
        <time>2019-04-06T10:33:31Z</time>
      </trkpt>
      <trkpt lat="60.46905" lon="7.67262">
        <ele>1176.31</ele>
        <time>2019-04-06T10:33:41Z</time>
      </trkpt>
      <trkpt lat="60.46934" lon="7.67229">
        <ele>1174.39</ele>
        <time>2019-04-06T10:33:46Z</time>
      </trkpt>
      <trkpt lat="60.46957" lon="7.672">
        <ele>1175.35</ele>
        <time>2019-04-06T10:33:50Z</time>
      </trkpt>
      <trkpt lat="60.46962" lon="7.67193">
        <ele>1175.35</ele>
        <time>2019-04-06T10:33:51Z</time>
      </trkpt>
      <trkpt lat="60.46984" lon="7.6717">
        <ele>1177.75</ele>
        <time>2019-04-06T10:33:55Z</time>
      </trkpt>
      <trkpt lat="60.46992" lon="7.67157">
        <ele>1178.23</ele>
        <time>2019-04-06T10:33:57Z</time>
      </trkpt>
      <trkpt lat="60.47014" lon="7.67121">
        <ele>1178.71</ele>
        <time>2019-04-06T10:34:02Z</time>
      </trkpt>
      <trkpt lat="60.47037" lon="7.67085">
        <ele>1177.75</ele>
        <time>2019-04-06T10:34:07Z</time>
      </trkpt>
      <trkpt lat="60.47061" lon="7.67048">
        <ele>1177.75</ele>
        <time>2019-04-06T10:34:12Z</time>
      </trkpt>
      <trkpt lat="60.47074" lon="7.67023">
        <ele>1177.75</ele>
        <time>2019-04-06T10:34:15Z</time>
      </trkpt>
      <trkpt lat="60.47084" lon="7.67008">
        <ele>1179.67</ele>
        <time>2019-04-06T10:34:17Z</time>
      </trkpt>
      <trkpt lat="60.47088" lon="7.67001">
        <ele>1179.67</ele>
        <time>2019-04-06T10:34:18Z</time>
      </trkpt>
      <trkpt lat="60.47099" lon="7.66988">
        <ele>1180.16</ele>
        <time>2019-04-06T10:34:20Z</time>
      </trkpt>
      <trkpt lat="60.47118" lon="7.66968">
        <ele>1178.23</ele>
        <time>2019-04-06T10:34:23Z</time>
      </trkpt>
      <trkpt lat="60.4713" lon="7.66953">
        <ele>1177.75</ele>
        <time>2019-04-06T10:34:25Z</time>
      </trkpt>
      <trkpt lat="60.47143" lon="7.66934">
        <ele>1172.47</ele>
        <time>2019-04-06T10:34:27Z</time>
      </trkpt>
      <trkpt lat="60.47163" lon="7.66906">
        <ele>1171.02</ele>
        <time>2019-04-06T10:34:30Z</time>
      </trkpt>
      <trkpt lat="60.47181" lon="7.66883">
        <ele>1172.47</ele>
        <time>2019-04-06T10:34:33Z</time>
      </trkpt>
      <trkpt lat="60.47192" lon="7.66869">
        <ele>1173.43</ele>
        <time>2019-04-06T10:34:35Z</time>
      </trkpt>
      <trkpt lat="60.47237" lon="7.66818">
        <ele>1171.02</ele>
        <time>2019-04-06T10:34:42Z</time>
      </trkpt>
      <trkpt lat="60.47292" lon="7.66756">
        <ele>1171.98</ele>
        <time>2019-04-06T10:34:51Z</time>
      </trkpt>
      <trkpt lat="60.47317" lon="7.66712">
        <ele>1171.98</ele>
        <time>2019-04-06T10:34:56Z</time>
      </trkpt>
      <trkpt lat="60.47331" lon="7.66682">
        <ele>1173.91</ele>
        <time>2019-04-06T10:35:00Z</time>
      </trkpt>
      <trkpt lat="60.47338" lon="7.66669">
        <ele>1172.47</ele>
        <time>2019-04-06T10:35:02Z</time>
      </trkpt>
      <trkpt lat="60.47347" lon="7.6666">
        <ele>1174.87</ele>
        <time>2019-04-06T10:35:05Z</time>
      </trkpt>
      <trkpt lat="60.4737" lon="7.6664">
        <ele>1174.87</ele>
        <time>2019-04-06T10:35:11Z</time>
      </trkpt>
      <trkpt lat="60.47398" lon="7.66631">
        <ele>1174.87</ele>
        <time>2019-04-06T10:35:19Z</time>
      </trkpt>
      <trkpt lat="60.4741" lon="7.66625">
        <ele>1173.43</ele>
        <time>2019-04-06T10:35:22Z</time>
      </trkpt>
      <trkpt lat="60.47415" lon="7.66622">
        <ele>1172.95</ele>
        <time>2019-04-06T10:35:23Z</time>
      </trkpt>
      <trkpt lat="60.47443" lon="7.66595">
        <ele>1172.95</ele>
        <time>2019-04-06T10:35:30Z</time>
      </trkpt>
      <trkpt lat="60.47451" lon="7.6659">
        <ele>1174.39</ele>
        <time>2019-04-06T10:35:32Z</time>
      </trkpt>
      <trkpt lat="60.47465" lon="7.66579">
        <ele>1172.47</ele>
        <time>2019-04-06T10:35:35Z</time>
      </trkpt>
      <trkpt lat="60.47477" lon="7.66575">
        <ele>1175.35</ele>
        <time>2019-04-06T10:35:38Z</time>
      </trkpt>
      <trkpt lat="60.47481" lon="7.66574">
        <ele>1175.35</ele>
        <time>2019-04-06T10:35:39Z</time>
      </trkpt>
      <trkpt lat="60.475" lon="7.66568">
        <ele>1176.79</ele>
        <time>2019-04-06T10:35:44Z</time>
      </trkpt>
      <trkpt lat="60.47514" lon="7.66562">
        <ele>1173.91</ele>
        <time>2019-04-06T10:35:47Z</time>
      </trkpt>
      <trkpt lat="60.47533" lon="7.66547">
        <ele>1175.35</ele>
        <time>2019-04-06T10:35:51Z</time>
      </trkpt>
      <trkpt lat="60.47554" lon="7.66532">
        <ele>1174.39</ele>
        <time>2019-04-06T10:35:55Z</time>
      </trkpt>
      <trkpt lat="60.47564" lon="7.66522">
        <ele>1173.43</ele>
        <time>2019-04-06T10:35:57Z</time>
      </trkpt>
      <trkpt lat="60.47581" lon="7.66514">
        <ele>1175.83</ele>
        <time>2019-04-06T10:36:01Z</time>
      </trkpt>
      <trkpt lat="60.47591" lon="7.66511">
        <ele>1177.27</ele>
        <time>2019-04-06T10:36:04Z</time>
      </trkpt>
      <trkpt lat="60.47607" lon="7.665">
        <ele>1176.79</ele>
        <time>2019-04-06T10:36:09Z</time>
      </trkpt>
      <trkpt lat="60.4761" lon="7.66497">
        <ele>1176.79</ele>
        <time>2019-04-06T10:36:10Z</time>
      </trkpt>
      <trkpt lat="60.47635" lon="7.66489">
        <ele>1178.71</ele>
        <time>2019-04-06T10:36:16Z</time>
      </trkpt>
      <trkpt lat="60.47641" lon="7.66488">
        <ele>1179.19</ele>
        <time>2019-04-06T10:36:18Z</time>
      </trkpt>
      <trkpt lat="60.47677" lon="7.66474">
        <ele>1176.79</ele>
        <time>2019-04-06T10:36:26Z</time>
      </trkpt>
      <trkpt lat="60.47685" lon="7.6647">
        <ele>1179.19</ele>
        <time>2019-04-06T10:36:28Z</time>
      </trkpt>
      <trkpt lat="60.4769" lon="7.66469">
        <ele>1178.71</ele>
        <time>2019-04-06T10:36:29Z</time>
      </trkpt>
      <trkpt lat="60.47722" lon="7.6645">
        <ele>1171.5</ele>
        <time>2019-04-06T10:36:34Z</time>
      </trkpt>
      <trkpt lat="60.4773" lon="7.66446">
        <ele>1171.5</ele>
        <time>2019-04-06T10:36:35Z</time>
      </trkpt>
      <trkpt lat="60.4775" lon="7.66435">
        <ele>1174.87</ele>
        <time>2019-04-06T10:36:38Z</time>
      </trkpt>
      <trkpt lat="60.47768" lon="7.66428">
        <ele>1177.75</ele>
        <time>2019-04-06T10:36:41Z</time>
      </trkpt>
      <trkpt lat="60.4778" lon="7.66424">
        <ele>1178.71</ele>
        <time>2019-04-06T10:36:43Z</time>
      </trkpt>
      <trkpt lat="60.47791" lon="7.66419">
        <ele>1179.67</ele>
        <time>2019-04-06T10:36:45Z</time>
      </trkpt>
      <trkpt lat="60.4781" lon="7.66414">
        <ele>1184.96</ele>
        <time>2019-04-06T10:36:50Z</time>
      </trkpt>
      <trkpt lat="60.47819" lon="7.66415">
        <ele>1186.88</ele>
        <time>2019-04-06T10:36:53Z</time>
      </trkpt>
      <trkpt lat="60.47827" lon="7.66414">
        <ele>1188.33</ele>
        <time>2019-04-06T10:36:56Z</time>
      </trkpt>
      <trkpt lat="60.47844" lon="7.66418">
        <ele>1191.21</ele>
        <time>2019-04-06T10:37:04Z</time>
      </trkpt>
      <trkpt lat="60.47854" lon="7.66417">
        <ele>1192.65</ele>
        <time>2019-04-06T10:37:09Z</time>
      </trkpt>
      <trkpt lat="60.47862" lon="7.66416">
        <ele>1194.09</ele>
        <time>2019-04-06T10:37:13Z</time>
      </trkpt>
      <trkpt lat="60.47865" lon="7.66416">
        <ele>1195.06</ele>
        <time>2019-04-06T10:37:15Z</time>
      </trkpt>
      <trkpt lat="60.47876" lon="7.66413">
        <ele>1196.98</ele>
        <time>2019-04-06T10:37:21Z</time>
      </trkpt>
      <trkpt lat="60.47892" lon="7.66404">
        <ele>1199.38</ele>
        <time>2019-04-06T10:37:32Z</time>
      </trkpt>
      <trkpt lat="60.47917" lon="7.66381">
        <ele>1200.34</ele>
        <time>2019-04-06T10:37:43Z</time>
      </trkpt>
      <trkpt lat="60.47945" lon="7.66349">
        <ele>1202.27</ele>
        <time>2019-04-06T10:37:54Z</time>
      </trkpt>
      <trkpt lat="60.47952" lon="7.66342">
        <ele>1202.75</ele>
        <time>2019-04-06T10:37:57Z</time>
      </trkpt>
      <trkpt lat="60.47984" lon="7.66327">
        <ele>1205.63</ele>
        <time>2019-04-06T10:38:08Z</time>
      </trkpt>
      <trkpt lat="60.48001" lon="7.66321">
        <ele>1207.55</ele>
        <time>2019-04-06T10:38:13Z</time>
      </trkpt>
      <trkpt lat="60.48015" lon="7.66311">
        <ele>1209</ele>
        <time>2019-04-06T10:38:17Z</time>
      </trkpt>
      <trkpt lat="60.48024" lon="7.66303">
        <ele>1210.44</ele>
        <time>2019-04-06T10:38:20Z</time>
      </trkpt>
      <trkpt lat="60.48038" lon="7.66294">
        <ele>1213.8</ele>
        <time>2019-04-06T10:38:25Z</time>
      </trkpt>
      <trkpt lat="60.48042" lon="7.66292">
        <ele>1213.8</ele>
        <time>2019-04-06T10:38:26Z</time>
      </trkpt>
      <trkpt lat="60.48051" lon="7.66287">
        <ele>1215.24</ele>
        <time>2019-04-06T10:38:30Z</time>
      </trkpt>
      <trkpt lat="60.48056" lon="7.66282">
        <ele>1216.69</ele>
        <time>2019-04-06T10:38:41Z</time>
      </trkpt>
      <trkpt lat="60.48063" lon="7.66273">
        <ele>1214.76</ele>
        <time>2019-04-06T10:38:50Z</time>
      </trkpt>
      <trkpt lat="60.48074" lon="7.66251">
        <ele>1215.24</ele>
        <time>2019-04-06T10:38:56Z</time>
      </trkpt>
      <trkpt lat="60.48084" lon="7.66242">
        <ele>1216.21</ele>
        <time>2019-04-06T10:39:00Z</time>
      </trkpt>
      <trkpt lat="60.4812" lon="7.662">
        <ele>1219.09</ele>
        <time>2019-04-06T10:39:13Z</time>
      </trkpt>
      <trkpt lat="60.4814" lon="7.66184">
        <ele>1220.05</ele>
        <time>2019-04-06T10:39:19Z</time>
      </trkpt>
      <trkpt lat="60.48161" lon="7.66161">
        <ele>1220.05</ele>
        <time>2019-04-06T10:39:24Z</time>
      </trkpt>
      <trkpt lat="60.48182" lon="7.66133">
        <ele>1223.42</ele>
        <time>2019-04-06T10:39:30Z</time>
      </trkpt>
      <trkpt lat="60.48193" lon="7.66121">
        <ele>1223.42</ele>
        <time>2019-04-06T10:39:34Z</time>
      </trkpt>
      <trkpt lat="60.48201" lon="7.66127">
        <ele>1225.82</ele>
        <time>2019-04-06T10:39:46Z</time>
      </trkpt>
      <trkpt lat="60.48202" lon="7.6613">
        <ele>1226.3</ele>
        <time>2019-04-06T10:40:14Z</time>
      </trkpt>
      <trkpt lat="60.48203" lon="7.66132">
        <ele>1226.3</ele>
        <time>2019-04-06T10:40:19Z</time>
      </trkpt>
      <trkpt lat="60.48194" lon="7.66133">
        <ele>1226.3</ele>
        <time>2019-04-06T10:40:22Z</time>
      </trkpt>
      <trkpt lat="60.48177" lon="7.66118">
        <ele>1227.26</ele>
        <time>2019-04-06T10:40:26Z</time>
      </trkpt>
      <trkpt lat="60.4816" lon="7.66094">
        <ele>1227.26</ele>
        <time>2019-04-06T10:40:30Z</time>
      </trkpt>
      <trkpt lat="60.48105" lon="7.6599">
        <ele>1223.9</ele>
        <time>2019-04-06T10:40:44Z</time>
      </trkpt>
      <trkpt lat="60.48101" lon="7.65981">
        <ele>1223.9</ele>
        <time>2019-04-06T10:40:45Z</time>
      </trkpt>
      <trkpt lat="60.48088" lon="7.65968">
        <ele>1220.05</ele>
        <time>2019-04-06T10:40:50Z</time>
      </trkpt>
      <trkpt lat="60.4809" lon="7.65971">
        <ele>1220.05</ele>
        <time>2019-04-06T10:40:51Z</time>
      </trkpt>
      <trkpt lat="60.48099" lon="7.65965">
        <ele>1218.61</ele>
        <time>2019-04-06T10:40:54Z</time>
      </trkpt>
      <trkpt lat="60.48112" lon="7.65946">
        <ele>1218.61</ele>
        <time>2019-04-06T10:40:58Z</time>
      </trkpt>
      <trkpt lat="60.48119" lon="7.65933">
        <ele>1218.61</ele>
        <time>2019-04-06T10:41:00Z</time>
      </trkpt>
      <trkpt lat="60.48129" lon="7.65917">
        <ele>1221.01</ele>
        <time>2019-04-06T10:41:03Z</time>
      </trkpt>
      <trkpt lat="60.48162" lon="7.65881">
        <ele>1224.38</ele>
        <time>2019-04-06T10:41:13Z</time>
      </trkpt>
      <trkpt lat="60.48166" lon="7.65878">
        <ele>1224.38</ele>
        <time>2019-04-06T10:41:14Z</time>
      </trkpt>
      <trkpt lat="60.48178" lon="7.65865">
        <ele>1224.38</ele>
        <time>2019-04-06T10:41:17Z</time>
      </trkpt>
      <trkpt lat="60.48237" lon="7.65804">
        <ele>1223.9</ele>
        <time>2019-04-06T10:41:28Z</time>
      </trkpt>
      <trkpt lat="60.48253" lon="7.65784">
        <ele>1226.78</ele>
        <time>2019-04-06T10:41:31Z</time>
      </trkpt>
      <trkpt lat="60.48271" lon="7.65766">
        <ele>1230.14</ele>
        <time>2019-04-06T10:41:36Z</time>
      </trkpt>
      <trkpt lat="60.48296" lon="7.65744">
        <ele>1232.55</ele>
        <time>2019-04-06T10:41:46Z</time>
      </trkpt>
      <trkpt lat="60.48316" lon="7.65729">
        <ele>1233.99</ele>
        <time>2019-04-06T10:41:53Z</time>
      </trkpt>
      <trkpt lat="60.48352" lon="7.65703">
        <ele>1235.43</ele>
        <time>2019-04-06T10:42:02Z</time>
      </trkpt>
      <trkpt lat="60.48394" lon="7.65668">
        <ele>1237.83</ele>
        <time>2019-04-06T10:42:14Z</time>
      </trkpt>
      <trkpt lat="60.48424" lon="7.65632">
        <ele>1239.76</ele>
        <time>2019-04-06T10:42:23Z</time>
      </trkpt>
      <trkpt lat="60.48442" lon="7.65611">
        <ele>1241.2</ele>
        <time>2019-04-06T10:42:29Z</time>
      </trkpt>
      <trkpt lat="60.48446" lon="7.65627">
        <ele>1242.16</ele>
        <time>2019-04-06T10:42:35Z</time>
      </trkpt>
      <trkpt lat="60.48438" lon="7.65623">
        <ele>1242.64</ele>
        <time>2019-04-06T10:42:37Z</time>
      </trkpt>
      <trkpt lat="60.48425" lon="7.65613">
        <ele>1244.08</ele>
        <time>2019-04-06T10:42:40Z</time>
      </trkpt>
      <trkpt lat="60.4839" lon="7.65582">
        <ele>1245.04</ele>
        <time>2019-04-06T10:42:49Z</time>
      </trkpt>
      <trkpt lat="60.48381" lon="7.65576">
        <ele>1246.01</ele>
        <time>2019-04-06T10:42:51Z</time>
      </trkpt>
      <trkpt lat="60.4834" lon="7.65529">
        <ele>1249.37</ele>
        <time>2019-04-06T10:43:02Z</time>
      </trkpt>
      <trkpt lat="60.48302" lon="7.65487">
        <ele>1250.81</ele>
        <time>2019-04-06T10:43:15Z</time>
      </trkpt>
      <trkpt lat="60.48287" lon="7.65469">
        <ele>1251.77</ele>
        <time>2019-04-06T10:43:20Z</time>
      </trkpt>
      <trkpt lat="60.4828" lon="7.6546">
        <ele>1251.77</ele>
        <time>2019-04-06T10:43:22Z</time>
      </trkpt>
      <trkpt lat="60.48243" lon="7.65431">
        <ele>1254.66</ele>
        <time>2019-04-06T10:43:33Z</time>
      </trkpt>
      <trkpt lat="60.48241" lon="7.65429">
        <ele>1254.66</ele>
        <time>2019-04-06T10:43:34Z</time>
      </trkpt>
      <trkpt lat="60.48222" lon="7.65418">
        <ele>1257.54</ele>
        <time>2019-04-06T10:43:42Z</time>
      </trkpt>
      <trkpt lat="60.48211" lon="7.65419">
        <ele>1259.46</ele>
        <time>2019-04-06T10:43:47Z</time>
      </trkpt>
      <trkpt lat="60.48219" lon="7.6542">
        <ele>1256.1</ele>
        <time>2019-04-06T10:43:53Z</time>
      </trkpt>
      <trkpt lat="60.48231" lon="7.65401">
        <ele>1255.14</ele>
        <time>2019-04-06T10:43:57Z</time>
      </trkpt>
      <trkpt lat="60.48243" lon="7.6538">
        <ele>1255.14</ele>
        <time>2019-04-06T10:44:01Z</time>
      </trkpt>
      <trkpt lat="60.48267" lon="7.6534">
        <ele>1256.1</ele>
        <time>2019-04-06T10:44:08Z</time>
      </trkpt>
      <trkpt lat="60.48315" lon="7.65265">
        <ele>1257.06</ele>
        <time>2019-04-06T10:44:20Z</time>
      </trkpt>
      <trkpt lat="60.48338" lon="7.65222">
        <ele>1257.06</ele>
        <time>2019-04-06T10:44:27Z</time>
      </trkpt>
      <trkpt lat="60.48367" lon="7.65168">
        <ele>1258.02</ele>
        <time>2019-04-06T10:44:36Z</time>
      </trkpt>
      <trkpt lat="60.48375" lon="7.65144">
        <ele>1255.14</ele>
        <time>2019-04-06T10:44:39Z</time>
      </trkpt>
      <trkpt lat="60.48383" lon="7.65114">
        <ele>1251.77</ele>
        <time>2019-04-06T10:44:42Z</time>
      </trkpt>
      <trkpt lat="60.48395" lon="7.65076">
        <ele>1253.22</ele>
        <time>2019-04-06T10:44:51Z</time>
      </trkpt>
      <trkpt lat="60.484" lon="7.65066">
        <ele>1251.77</ele>
        <time>2019-04-06T10:44:54Z</time>
      </trkpt>
      <trkpt lat="60.48402" lon="7.65063">
        <ele>1253.22</ele>
        <time>2019-04-06T10:45:04Z</time>
      </trkpt>
      <trkpt lat="60.48427" lon="7.6506">
        <ele>1250.33</ele>
        <time>2019-04-06T10:45:10Z</time>
      </trkpt>
      <trkpt lat="60.48443" lon="7.6505">
        <ele>1249.85</ele>
        <time>2019-04-06T10:45:13Z</time>
      </trkpt>
      <trkpt lat="60.48463" lon="7.65034">
        <ele>1249.85</ele>
        <time>2019-04-06T10:45:17Z</time>
      </trkpt>
      <trkpt lat="60.4849" lon="7.65008">
        <ele>1249.85</ele>
        <time>2019-04-06T10:45:22Z</time>
      </trkpt>
      <trkpt lat="60.48502" lon="7.64998">
        <ele>1251.29</ele>
        <time>2019-04-06T10:45:24Z</time>
      </trkpt>
      <trkpt lat="60.48513" lon="7.64986">
        <ele>1249.85</ele>
        <time>2019-04-06T10:45:26Z</time>
      </trkpt>
      <trkpt lat="60.4855" lon="7.6493">
        <ele>1252.74</ele>
        <time>2019-04-06T10:45:34Z</time>
      </trkpt>
      <trkpt lat="60.48569" lon="7.649">
        <ele>1253.22</ele>
        <time>2019-04-06T10:45:39Z</time>
      </trkpt>
      <trkpt lat="60.48581" lon="7.64884">
        <ele>1253.22</ele>
        <time>2019-04-06T10:45:42Z</time>
      </trkpt>
      <trkpt lat="60.48603" lon="7.64853">
        <ele>1255.14</ele>
        <time>2019-04-06T10:45:48Z</time>
      </trkpt>
      <trkpt lat="60.48622" lon="7.64829">
        <ele>1256.58</ele>
        <time>2019-04-06T10:45:54Z</time>
      </trkpt>
      <trkpt lat="60.48639" lon="7.64814">
        <ele>1257.54</ele>
        <time>2019-04-06T10:45:59Z</time>
      </trkpt>
      <trkpt lat="60.4867" lon="7.64784">
        <ele>1259.46</ele>
        <time>2019-04-06T10:46:09Z</time>
      </trkpt>
      <trkpt lat="60.48702" lon="7.64756">
        <ele>1260.43</ele>
        <time>2019-04-06T10:46:19Z</time>
      </trkpt>
      <trkpt lat="60.48703" lon="7.64756">
        <ele>1262.35</ele>
        <time>2019-04-06T10:46:21Z</time>
      </trkpt>
      <trkpt lat="60.48712" lon="7.64757">
        <ele>1260.43</ele>
        <time>2019-04-06T10:46:26Z</time>
      </trkpt>
      <trkpt lat="60.48726" lon="7.64751">
        <ele>1256.58</ele>
        <time>2019-04-06T10:46:31Z</time>
      </trkpt>
      <trkpt lat="60.48729" lon="7.64773">
        <ele>1257.06</ele>
        <time>2019-04-06T10:46:38Z</time>
      </trkpt>
      <trkpt lat="60.48727" lon="7.6478">
        <ele>1257.06</ele>
        <time>2019-04-06T10:46:40Z</time>
      </trkpt>
      <trkpt lat="60.48728" lon="7.64792">
        <ele>1257.06</ele>
        <time>2019-04-06T10:46:43Z</time>
      </trkpt>
      <trkpt lat="60.48739" lon="7.64806">
        <ele>1254.18</ele>
        <time>2019-04-06T10:46:47Z</time>
      </trkpt>
      <trkpt lat="60.48767" lon="7.64811">
        <ele>1250.33</ele>
        <time>2019-04-06T10:46:57Z</time>
      </trkpt>
      <trkpt lat="60.4877" lon="7.64812">
        <ele>1250.33</ele>
        <time>2019-04-06T10:46:58Z</time>
      </trkpt>
      <trkpt lat="60.48779" lon="7.64814">
        <ele>1249.37</ele>
        <time>2019-04-06T10:47:00Z</time>
      </trkpt>
      <trkpt lat="60.48792" lon="7.6481">
        <ele>1246.49</ele>
        <time>2019-04-06T10:47:03Z</time>
      </trkpt>
      <trkpt lat="60.488" lon="7.64795">
        <ele>1245.04</ele>
        <time>2019-04-06T10:47:06Z</time>
      </trkpt>
      <trkpt lat="60.48803" lon="7.64783">
        <ele>1244.08</ele>
        <time>2019-04-06T10:47:08Z</time>
      </trkpt>
      <trkpt lat="60.48808" lon="7.64768">
        <ele>1242.16</ele>
        <time>2019-04-06T10:47:11Z</time>
      </trkpt>
      <trkpt lat="60.48816" lon="7.64736">
        <ele>1238.8</ele>
        <time>2019-04-06T10:47:18Z</time>
      </trkpt>
      <trkpt lat="60.48819" lon="7.64721">
        <ele>1235.43</ele>
        <time>2019-04-06T10:47:21Z</time>
      </trkpt>
      <trkpt lat="60.4882" lon="7.64716">
        <ele>1235.43</ele>
        <time>2019-04-06T10:47:22Z</time>
      </trkpt>
      <trkpt lat="60.48824" lon="7.64695">
        <ele>1231.11</ele>
        <time>2019-04-06T10:47:26Z</time>
      </trkpt>
      <trkpt lat="60.48825" lon="7.6469">
        <ele>1231.11</ele>
        <time>2019-04-06T10:47:27Z</time>
      </trkpt>
      <trkpt lat="60.48831" lon="7.64673">
        <ele>1228.22</ele>
        <time>2019-04-06T10:47:31Z</time>
      </trkpt>
      <trkpt lat="60.48837" lon="7.6466">
        <ele>1224.86</ele>
        <time>2019-04-06T10:47:34Z</time>
      </trkpt>
      <trkpt lat="60.48842" lon="7.64648">
        <ele>1221.49</ele>
        <time>2019-04-06T10:47:36Z</time>
      </trkpt>
      <trkpt lat="60.48849" lon="7.64627">
        <ele>1217.65</ele>
        <time>2019-04-06T10:47:39Z</time>
      </trkpt>
      <trkpt lat="60.48853" lon="7.64612">
        <ele>1214.28</ele>
        <time>2019-04-06T10:47:41Z</time>
      </trkpt>
      <trkpt lat="60.48859" lon="7.64587">
        <ele>1209</ele>
        <time>2019-04-06T10:47:44Z</time>
      </trkpt>
      <trkpt lat="60.48865" lon="7.64563">
        <ele>1204.67</ele>
        <time>2019-04-06T10:47:46Z</time>
      </trkpt>
      <trkpt lat="60.4887" lon="7.64538">
        <ele>1203.71</ele>
        <time>2019-04-06T10:47:48Z</time>
      </trkpt>
      <trkpt lat="60.48874" lon="7.64518">
        <ele>1202.75</ele>
        <time>2019-04-06T10:47:50Z</time>
      </trkpt>
      <trkpt lat="60.4888" lon="7.64489">
        <ele>1202.75</ele>
        <time>2019-04-06T10:47:55Z</time>
      </trkpt>
      <trkpt lat="60.48882" lon="7.64477">
        <ele>1202.75</ele>
        <time>2019-04-06T10:47:58Z</time>
      </trkpt>
      <trkpt lat="60.48886" lon="7.6446">
        <ele>1202.27</ele>
        <time>2019-04-06T10:48:10Z</time>
      </trkpt>
      <trkpt lat="60.48887" lon="7.64459">
        <ele>1201.79</ele>
        <time>2019-04-06T10:48:12Z</time>
      </trkpt>
      <trkpt lat="60.48892" lon="7.64451">
        <ele>1201.3</ele>
        <time>2019-04-06T10:48:26Z</time>
      </trkpt>
      <trkpt lat="60.48894" lon="7.6445">
        <ele>1201.3</ele>
        <time>2019-04-06T10:48:42Z</time>
      </trkpt>
      <trkpt lat="60.48894" lon="7.64453">
        <ele>1201.3</ele>
        <time>2019-04-06T10:49:03Z</time>
      </trkpt>
      <trkpt lat="60.48893" lon="7.6445">
        <ele>1200.34</ele>
        <time>2019-04-06T10:49:18Z</time>
      </trkpt>
      <trkpt lat="60.48892" lon="7.64451">
        <ele>1200.34</ele>
        <time>2019-04-06T10:49:58Z</time>
      </trkpt>
      <trkpt lat="60.48891" lon="7.6445">
        <ele>1200.34</ele>
        <time>2019-04-06T10:50:27Z</time>
      </trkpt>
      <trkpt lat="60.48891" lon="7.6445">
        <ele>1200.34</ele>
        <time>2019-04-06T10:50:53Z</time>
      </trkpt>
      <trkpt lat="60.48891" lon="7.6445">
        <ele>1200.34</ele>
        <time>2019-04-06T10:51:18Z</time>
      </trkpt>
      <trkpt lat="60.48891" lon="7.6445">
        <ele>1200.34</ele>
        <time>2019-04-06T10:51:39Z</time>
      </trkpt>
      <trkpt lat="60.48891" lon="7.6445">
        <ele>1200.34</ele>
        <time>2019-04-06T10:52:08Z</time>
      </trkpt>
      <trkpt lat="60.48891" lon="7.6445">
        <ele>1200.34</ele>
        <time>2019-04-06T10:52:36Z</time>
      </trkpt>
      <trkpt lat="60.4889" lon="7.6445">
        <ele>1200.34</ele>
        <time>2019-04-06T10:53:11Z</time>
      </trkpt>
      <trkpt lat="60.4889" lon="7.64449">
        <ele>1200.34</ele>
        <time>2019-04-06T10:53:33Z</time>
      </trkpt>
      <trkpt lat="60.4889" lon="7.64449">
        <ele>1200.34</ele>
        <time>2019-04-06T10:54:01Z</time>
      </trkpt>
      <trkpt lat="60.4889" lon="7.64449">
        <ele>1200.34</ele>
        <time>2019-04-06T10:54:26Z</time>
      </trkpt>
      <trkpt lat="60.4889" lon="7.64448">
        <ele>1200.34</ele>
        <time>2019-04-06T10:54:48Z</time>
      </trkpt>
      <trkpt lat="60.48891" lon="7.64447">
        <ele>1200.34</ele>
        <time>2019-04-06T10:55:10Z</time>
      </trkpt>
      <trkpt lat="60.4889" lon="7.64448">
        <ele>1200.34</ele>
        <time>2019-04-06T10:55:32Z</time>
      </trkpt>
      <trkpt lat="60.48891" lon="7.64448">
        <ele>1200.34</ele>
        <time>2019-04-06T10:55:55Z</time>
      </trkpt>
      <trkpt lat="60.48891" lon="7.64448">
        <ele>1199.86</ele>
        <time>2019-04-06T10:56:19Z</time>
      </trkpt>
      <trkpt lat="60.48891" lon="7.64448">
        <ele>1199.86</ele>
        <time>2019-04-06T10:56:41Z</time>
      </trkpt>
      <trkpt lat="60.48891" lon="7.64448">
        <ele>1199.86</ele>
        <time>2019-04-06T10:57:08Z</time>
      </trkpt>
      <trkpt lat="60.48892" lon="7.64447">
        <ele>1199.86</ele>
        <time>2019-04-06T10:57:31Z</time>
      </trkpt>
      <trkpt lat="60.48893" lon="7.64448">
        <ele>1199.86</ele>
        <time>2019-04-06T10:57:50Z</time>
      </trkpt>
      <trkpt lat="60.48891" lon="7.64449">
        <ele>1199.86</ele>
        <time>2019-04-06T10:58:21Z</time>
      </trkpt>
      <trkpt lat="60.4889" lon="7.64447">
        <ele>1199.86</ele>
        <time>2019-04-06T10:58:52Z</time>
      </trkpt>
      <trkpt lat="60.4889" lon="7.64447">
        <ele>1199.86</ele>
        <time>2019-04-06T10:59:21Z</time>
      </trkpt>
      <trkpt lat="60.48889" lon="7.64447">
        <ele>1199.86</ele>
        <time>2019-04-06T10:59:49Z</time>
      </trkpt>
      <trkpt lat="60.48888" lon="7.64448">
        <ele>1199.86</ele>
        <time>2019-04-06T11:00:15Z</time>
      </trkpt>
      <trkpt lat="60.48889" lon="7.64448">
        <ele>1199.86</ele>
        <time>2019-04-06T11:00:37Z</time>
      </trkpt>
      <trkpt lat="60.48889" lon="7.64448">
        <ele>1199.86</ele>
        <time>2019-04-06T11:01:05Z</time>
      </trkpt>
      <trkpt lat="60.4889" lon="7.64447">
        <ele>1199.86</ele>
        <time>2019-04-06T11:01:42Z</time>
      </trkpt>
      <trkpt lat="60.4889" lon="7.64449">
        <ele>1199.86</ele>
        <time>2019-04-06T11:02:15Z</time>
      </trkpt>
      <trkpt lat="60.48889" lon="7.64449">
        <ele>1199.86</ele>
        <time>2019-04-06T11:02:36Z</time>
      </trkpt>
      <trkpt lat="60.48891" lon="7.64447">
        <ele>1199.86</ele>
        <time>2019-04-06T11:03:10Z</time>
      </trkpt>
      <trkpt lat="60.48891" lon="7.64446">
        <ele>1199.86</ele>
        <time>2019-04-06T11:03:50Z</time>
      </trkpt>
      <trkpt lat="60.48889" lon="7.64448">
        <ele>1200.82</ele>
        <time>2019-04-06T11:04:26Z</time>
      </trkpt>
      <trkpt lat="60.48889" lon="7.64452">
        <ele>1200.82</ele>
        <time>2019-04-06T11:05:03Z</time>
      </trkpt>
      <trkpt lat="60.48889" lon="7.64451">
        <ele>1200.82</ele>
        <time>2019-04-06T11:05:14Z</time>
      </trkpt>
      <trkpt lat="60.48892" lon="7.64448">
        <ele>1201.3</ele>
        <time>2019-04-06T11:05:24Z</time>
      </trkpt>
      <trkpt lat="60.48893" lon="7.64446">
        <ele>1201.3</ele>
        <time>2019-04-06T11:05:34Z</time>
      </trkpt>
      <trkpt lat="60.48899" lon="7.6444">
        <ele>1201.3</ele>
        <time>2019-04-06T11:05:40Z</time>
      </trkpt>
      <trkpt lat="60.48918" lon="7.6441">
        <ele>1197.94</ele>
        <time>2019-04-06T11:05:51Z</time>
      </trkpt>
      <trkpt lat="60.48941" lon="7.64382">
        <ele>1194.58</ele>
        <time>2019-04-06T11:06:01Z</time>
      </trkpt>
      <trkpt lat="60.48958" lon="7.6436">
        <ele>1192.17</ele>
        <time>2019-04-06T11:06:11Z</time>
      </trkpt>
      <trkpt lat="60.48968" lon="7.64355">
        <ele>1192.17</ele>
        <time>2019-04-06T11:06:19Z</time>
      </trkpt>
      <trkpt lat="60.4897" lon="7.64356">
        <ele>1192.65</ele>
        <time>2019-04-06T11:06:21Z</time>
      </trkpt>
      <trkpt lat="60.48973" lon="7.64355">
        <ele>1192.65</ele>
        <time>2019-04-06T11:06:24Z</time>
      </trkpt>
      <trkpt lat="60.48981" lon="7.64346">
        <ele>1192.65</ele>
        <time>2019-04-06T11:06:37Z</time>
      </trkpt>
      <trkpt lat="60.4898" lon="7.64346">
        <ele>1192.65</ele>
        <time>2019-04-06T11:06:39Z</time>
      </trkpt>
      <trkpt lat="60.4898" lon="7.64352">
        <ele>1191.69</ele>
        <time>2019-04-06T11:06:51Z</time>
      </trkpt>
      <trkpt lat="60.48979" lon="7.64354">
        <ele>1191.69</ele>
        <time>2019-04-06T11:07:19Z</time>
      </trkpt>
      <trkpt lat="60.48979" lon="7.64352">
        <ele>1191.69</ele>
        <time>2019-04-06T11:07:44Z</time>
      </trkpt>
      <trkpt lat="60.48979" lon="7.64354">
        <ele>1191.69</ele>
        <time>2019-04-06T11:08:09Z</time>
      </trkpt>
      <trkpt lat="60.4898" lon="7.64354">
        <ele>1191.69</ele>
        <time>2019-04-06T11:08:33Z</time>
      </trkpt>
      <trkpt lat="60.4898" lon="7.64354">
        <ele>1191.69</ele>
        <time>2019-04-06T11:09:00Z</time>
      </trkpt>
      <trkpt lat="60.4898" lon="7.64353">
        <ele>1191.69</ele>
        <time>2019-04-06T11:09:27Z</time>
      </trkpt>
      <trkpt lat="60.4898" lon="7.64353">
        <ele>1191.69</ele>
        <time>2019-04-06T11:09:57Z</time>
      </trkpt>
      <trkpt lat="60.48981" lon="7.64351">
        <ele>1191.69</ele>
        <time>2019-04-06T11:10:16Z</time>
      </trkpt>
      <trkpt lat="60.48981" lon="7.64351">
        <ele>1191.69</ele>
        <time>2019-04-06T11:10:28Z</time>
      </trkpt>
      <trkpt lat="60.48978" lon="7.6435">
        <ele>1191.69</ele>
        <time>2019-04-06T11:10:55Z</time>
      </trkpt>
      <trkpt lat="60.48978" lon="7.64351">
        <ele>1191.69</ele>
        <time>2019-04-06T11:11:17Z</time>
      </trkpt>
      <trkpt lat="60.48978" lon="7.64352">
        <ele>1191.69</ele>
        <time>2019-04-06T11:11:44Z</time>
      </trkpt>
      <trkpt lat="60.48979" lon="7.64351">
        <ele>1191.69</ele>
        <time>2019-04-06T11:12:08Z</time>
      </trkpt>
      <trkpt lat="60.48979" lon="7.6435">
        <ele>1191.69</ele>
        <time>2019-04-06T11:12:33Z</time>
      </trkpt>
      <trkpt lat="60.48979" lon="7.64351">
        <ele>1191.69</ele>
        <time>2019-04-06T11:12:58Z</time>
      </trkpt>
      <trkpt lat="60.48978" lon="7.64352">
        <ele>1191.21</ele>
        <time>2019-04-06T11:13:27Z</time>
      </trkpt>
      <trkpt lat="60.48978" lon="7.64352">
        <ele>1191.21</ele>
        <time>2019-04-06T11:13:54Z</time>
      </trkpt>
      <trkpt lat="60.48978" lon="7.64353">
        <ele>1191.21</ele>
        <time>2019-04-06T11:14:23Z</time>
      </trkpt>
      <trkpt lat="60.48979" lon="7.64355">
        <ele>1191.21</ele>
        <time>2019-04-06T11:14:53Z</time>
      </trkpt>
      <trkpt lat="60.4898" lon="7.64357">
        <ele>1191.21</ele>
        <time>2019-04-06T11:15:22Z</time>
      </trkpt>
      <trkpt lat="60.48979" lon="7.64356">
        <ele>1191.21</ele>
        <time>2019-04-06T11:15:57Z</time>
      </trkpt>
      <trkpt lat="60.4898" lon="7.64356">
        <ele>1191.21</ele>
        <time>2019-04-06T11:16:24Z</time>
      </trkpt>
      <trkpt lat="60.48981" lon="7.64353">
        <ele>1191.69</ele>
        <time>2019-04-06T11:16:50Z</time>
      </trkpt>
      <trkpt lat="60.48981" lon="7.64354">
        <ele>1191.69</ele>
        <time>2019-04-06T11:17:26Z</time>
      </trkpt>
      <trkpt lat="60.48981" lon="7.64355">
        <ele>1191.69</ele>
        <time>2019-04-06T11:18:08Z</time>
      </trkpt>
      <trkpt lat="60.4898" lon="7.64352">
        <ele>1191.69</ele>
        <time>2019-04-06T11:18:36Z</time>
      </trkpt>
      <trkpt lat="60.48979" lon="7.64352">
        <ele>1191.69</ele>
        <time>2019-04-06T11:19:15Z</time>
      </trkpt>
      <trkpt lat="60.48978" lon="7.64352">
        <ele>1191.69</ele>
        <time>2019-04-06T11:19:30Z</time>
      </trkpt>
      <trkpt lat="60.48979" lon="7.64351">
        <ele>1191.21</ele>
        <time>2019-04-06T11:19:42Z</time>
      </trkpt>
      <trkpt lat="60.48979" lon="7.6435">
        <ele>1191.21</ele>
        <time>2019-04-06T11:20:17Z</time>
      </trkpt>
      <trkpt lat="60.4898" lon="7.64353">
        <ele>1191.21</ele>
        <time>2019-04-06T11:20:46Z</time>
      </trkpt>
      <trkpt lat="60.4898" lon="7.64354">
        <ele>1191.21</ele>
        <time>2019-04-06T11:21:17Z</time>
      </trkpt>
      <trkpt lat="60.48981" lon="7.64353">
        <ele>1191.21</ele>
        <time>2019-04-06T11:21:51Z</time>
      </trkpt>
      <trkpt lat="60.4898" lon="7.64353">
        <ele>1191.21</ele>
        <time>2019-04-06T11:22:06Z</time>
      </trkpt>
      <trkpt lat="60.48981" lon="7.64353">
        <ele>1191.21</ele>
        <time>2019-04-06T11:22:31Z</time>
      </trkpt>
      <trkpt lat="60.48981" lon="7.64351">
        <ele>1192.17</ele>
        <time>2019-04-06T11:22:54Z</time>
      </trkpt>
      <trkpt lat="60.48982" lon="7.64353">
        <ele>1192.17</ele>
        <time>2019-04-06T11:23:35Z</time>
      </trkpt>
      <trkpt lat="60.48981" lon="7.64354">
        <ele>1192.17</ele>
        <time>2019-04-06T11:23:49Z</time>
      </trkpt>
      <trkpt lat="60.48981" lon="7.64353">
        <ele>1192.17</ele>
        <time>2019-04-06T11:23:51Z</time>
      </trkpt>
      <trkpt lat="60.48983" lon="7.64348">
        <ele>1192.17</ele>
        <time>2019-04-06T11:24:04Z</time>
      </trkpt>
      <trkpt lat="60.48982" lon="7.64346">
        <ele>1192.17</ele>
        <time>2019-04-06T11:24:26Z</time>
      </trkpt>
      <trkpt lat="60.48983" lon="7.64344">
        <ele>1193.13</ele>
        <time>2019-04-06T11:24:45Z</time>
      </trkpt>
      <trkpt lat="60.48985" lon="7.64342">
        <ele>1191.69</ele>
        <time>2019-04-06T11:24:58Z</time>
      </trkpt>
      <trkpt lat="60.4899" lon="7.64326">
        <ele>1192.65</ele>
        <time>2019-04-06T11:25:23Z</time>
      </trkpt>
      <trkpt lat="60.48991" lon="7.64318">
        <ele>1192.65</ele>
        <time>2019-04-06T11:25:36Z</time>
      </trkpt>
      <trkpt lat="60.48991" lon="7.64316">
        <ele>1193.13</ele>
        <time>2019-04-06T11:25:59Z</time>
      </trkpt>
      <trkpt lat="60.49001" lon="7.64294">
        <ele>1191.69</ele>
        <time>2019-04-06T11:26:10Z</time>
      </trkpt>
      <trkpt lat="60.49019" lon="7.64249">
        <ele>1189.77</ele>
        <time>2019-04-06T11:26:23Z</time>
      </trkpt>
      <trkpt lat="60.49033" lon="7.64207">
        <ele>1188.81</ele>
        <time>2019-04-06T11:26:37Z</time>
      </trkpt>
      <trkpt lat="60.49045" lon="7.64175">
        <ele>1188.81</ele>
        <time>2019-04-06T11:26:52Z</time>
      </trkpt>
      <trkpt lat="60.49053" lon="7.64147">
        <ele>1188.81</ele>
        <time>2019-04-06T11:27:06Z</time>
      </trkpt>
      <trkpt lat="60.49064" lon="7.64121">
        <ele>1188.81</ele>
        <time>2019-04-06T11:27:20Z</time>
      </trkpt>
      <trkpt lat="60.49065" lon="7.64118">
        <ele>1188.81</ele>
        <time>2019-04-06T11:27:21Z</time>
      </trkpt>
      <trkpt lat="60.49075" lon="7.64092">
        <ele>1188.81</ele>
        <time>2019-04-06T11:27:35Z</time>
      </trkpt>
      <trkpt lat="60.49083" lon="7.64069">
        <ele>1188.81</ele>
        <time>2019-04-06T11:27:47Z</time>
      </trkpt>
      <trkpt lat="60.4909" lon="7.6405">
        <ele>1188.81</ele>
        <time>2019-04-06T11:28:00Z</time>
      </trkpt>
      <trkpt lat="60.4909" lon="7.64048">
        <ele>1188.81</ele>
        <time>2019-04-06T11:28:08Z</time>
      </trkpt>
      <trkpt lat="60.49093" lon="7.64042">
        <ele>1188.81</ele>
        <time>2019-04-06T11:28:12Z</time>
      </trkpt>
      <trkpt lat="60.49096" lon="7.64025">
        <ele>1188.81</ele>
        <time>2019-04-06T11:28:27Z</time>
      </trkpt>
      <trkpt lat="60.49097" lon="7.64021">
        <ele>1189.77</ele>
        <time>2019-04-06T11:28:48Z</time>
      </trkpt>
      <trkpt lat="60.49099" lon="7.64009">
        <ele>1186.4</ele>
        <time>2019-04-06T11:28:55Z</time>
      </trkpt>
      <trkpt lat="60.49099" lon="7.6401">
        <ele>1190.73</ele>
        <time>2019-04-06T11:28:56Z</time>
      </trkpt>
      <trkpt lat="60.49106" lon="7.63988">
        <ele>1188.81</ele>
        <time>2019-04-06T11:29:10Z</time>
      </trkpt>
      <trkpt lat="60.49121" lon="7.63956">
        <ele>1188.81</ele>
        <time>2019-04-06T11:29:27Z</time>
      </trkpt>
      <trkpt lat="60.49127" lon="7.6394">
        <ele>1188.81</ele>
        <time>2019-04-06T11:29:35Z</time>
      </trkpt>
      <trkpt lat="60.49131" lon="7.63925">
        <ele>1188.81</ele>
        <time>2019-04-06T11:29:40Z</time>
      </trkpt>
      <trkpt lat="60.49143" lon="7.63885">
        <ele>1188.81</ele>
        <time>2019-04-06T11:29:57Z</time>
      </trkpt>
      <trkpt lat="60.49155" lon="7.63851">
        <ele>1188.81</ele>
        <time>2019-04-06T11:30:13Z</time>
      </trkpt>
      <trkpt lat="60.49164" lon="7.63829">
        <ele>1188.81</ele>
        <time>2019-04-06T11:30:26Z</time>
      </trkpt>
      <trkpt lat="60.49174" lon="7.638">
        <ele>1188.81</ele>
        <time>2019-04-06T11:30:40Z</time>
      </trkpt>
      <trkpt lat="60.49185" lon="7.63771">
        <ele>1188.81</ele>
        <time>2019-04-06T11:30:55Z</time>
      </trkpt>
      <trkpt lat="60.49198" lon="7.63737">
        <ele>1189.77</ele>
        <time>2019-04-06T11:31:12Z</time>
      </trkpt>
      <trkpt lat="60.492" lon="7.63734">
        <ele>1189.77</ele>
        <time>2019-04-06T11:31:15Z</time>
      </trkpt>
      <trkpt lat="60.49205" lon="7.63721">
        <ele>1189.77</ele>
        <time>2019-04-06T11:31:22Z</time>
      </trkpt>
      <trkpt lat="60.49216" lon="7.63688">
        <ele>1189.77</ele>
        <time>2019-04-06T11:31:39Z</time>
      </trkpt>
      <trkpt lat="60.49226" lon="7.63663">
        <ele>1189.77</ele>
        <time>2019-04-06T11:31:53Z</time>
      </trkpt>
      <trkpt lat="60.49235" lon="7.63639">
        <ele>1189.77</ele>
        <time>2019-04-06T11:32:07Z</time>
      </trkpt>
      <trkpt lat="60.49245" lon="7.6361">
        <ele>1189.77</ele>
        <time>2019-04-06T11:32:22Z</time>
      </trkpt>
      <trkpt lat="60.49254" lon="7.63586">
        <ele>1189.77</ele>
        <time>2019-04-06T11:32:35Z</time>
      </trkpt>
      <trkpt lat="60.49264" lon="7.63554">
        <ele>1189.77</ele>
        <time>2019-04-06T11:32:51Z</time>
      </trkpt>
      <trkpt lat="60.49274" lon="7.63524">
        <ele>1189.77</ele>
        <time>2019-04-06T11:33:07Z</time>
      </trkpt>
      <trkpt lat="60.49285" lon="7.63495">
        <ele>1189.77</ele>
        <time>2019-04-06T11:33:23Z</time>
      </trkpt>
      <trkpt lat="60.49294" lon="7.6347">
        <ele>1189.77</ele>
        <time>2019-04-06T11:33:36Z</time>
      </trkpt>
      <trkpt lat="60.49305" lon="7.63436">
        <ele>1189.77</ele>
        <time>2019-04-06T11:33:53Z</time>
      </trkpt>
      <trkpt lat="60.49307" lon="7.63432">
        <ele>1189.77</ele>
        <time>2019-04-06T11:33:55Z</time>
      </trkpt>
      <trkpt lat="60.4931" lon="7.63426">
        <ele>1189.77</ele>
        <time>2019-04-06T11:33:59Z</time>
      </trkpt>
      <trkpt lat="60.49321" lon="7.63398">
        <ele>1189.29</ele>
        <time>2019-04-06T11:34:14Z</time>
      </trkpt>
      <trkpt lat="60.49332" lon="7.63371">
        <ele>1189.29</ele>
        <time>2019-04-06T11:34:28Z</time>
      </trkpt>
      <trkpt lat="60.49343" lon="7.63341">
        <ele>1189.29</ele>
        <time>2019-04-06T11:34:44Z</time>
      </trkpt>
      <trkpt lat="60.49353" lon="7.63313">
        <ele>1189.29</ele>
        <time>2019-04-06T11:35:00Z</time>
      </trkpt>
      <trkpt lat="60.49361" lon="7.63288">
        <ele>1189.29</ele>
        <time>2019-04-06T11:35:13Z</time>
      </trkpt>
      <trkpt lat="60.49372" lon="7.63259">
        <ele>1189.29</ele>
        <time>2019-04-06T11:35:28Z</time>
      </trkpt>
      <trkpt lat="60.49375" lon="7.6325">
        <ele>1189.29</ele>
        <time>2019-04-06T11:35:33Z</time>
      </trkpt>
      <trkpt lat="60.49386" lon="7.63223">
        <ele>1189.29</ele>
        <time>2019-04-06T11:35:47Z</time>
      </trkpt>
      <trkpt lat="60.49395" lon="7.63198">
        <ele>1189.29</ele>
        <time>2019-04-06T11:36:01Z</time>
      </trkpt>
      <trkpt lat="60.49404" lon="7.63173">
        <ele>1189.29</ele>
        <time>2019-04-06T11:36:15Z</time>
      </trkpt>
      <trkpt lat="60.49415" lon="7.63144">
        <ele>1189.29</ele>
        <time>2019-04-06T11:36:31Z</time>
      </trkpt>
      <trkpt lat="60.49424" lon="7.63118">
        <ele>1189.77</ele>
        <time>2019-04-06T11:36:45Z</time>
      </trkpt>
      <trkpt lat="60.49432" lon="7.63095">
        <ele>1189.77</ele>
        <time>2019-04-06T11:36:58Z</time>
      </trkpt>
      <trkpt lat="60.49442" lon="7.63067">
        <ele>1189.77</ele>
        <time>2019-04-06T11:37:13Z</time>
      </trkpt>
      <trkpt lat="60.49451" lon="7.63042">
        <ele>1188.33</ele>
        <time>2019-04-06T11:37:27Z</time>
      </trkpt>
      <trkpt lat="60.49456" lon="7.6303">
        <ele>1189.29</ele>
        <time>2019-04-06T11:37:42Z</time>
      </trkpt>
      <trkpt lat="60.49466" lon="7.63004">
        <ele>1189.29</ele>
        <time>2019-04-06T11:37:56Z</time>
      </trkpt>
      <trkpt lat="60.49476" lon="7.62976">
        <ele>1188.81</ele>
        <time>2019-04-06T11:38:12Z</time>
      </trkpt>
      <trkpt lat="60.49485" lon="7.62951">
        <ele>1188.33</ele>
        <time>2019-04-06T11:38:26Z</time>
      </trkpt>
      <trkpt lat="60.49496" lon="7.62926">
        <ele>1188.33</ele>
        <time>2019-04-06T11:38:41Z</time>
      </trkpt>
      <trkpt lat="60.49503" lon="7.62905">
        <ele>1188.33</ele>
        <time>2019-04-06T11:38:54Z</time>
      </trkpt>
      <trkpt lat="60.49512" lon="7.62882">
        <ele>1189.29</ele>
        <time>2019-04-06T11:39:07Z</time>
      </trkpt>
      <trkpt lat="60.4952" lon="7.62856">
        <ele>1189.29</ele>
        <time>2019-04-06T11:39:21Z</time>
      </trkpt>
      <trkpt lat="60.49523" lon="7.62847">
        <ele>1188.33</ele>
        <time>2019-04-06T11:39:25Z</time>
      </trkpt>
      <trkpt lat="60.49531" lon="7.62825">
        <ele>1188.33</ele>
        <time>2019-04-06T11:39:38Z</time>
      </trkpt>
      <trkpt lat="60.49548" lon="7.62809">
        <ele>1187.37</ele>
        <time>2019-04-06T11:39:52Z</time>
      </trkpt>
      <trkpt lat="60.49565" lon="7.62792">
        <ele>1187.37</ele>
        <time>2019-04-06T11:40:07Z</time>
      </trkpt>
      <trkpt lat="60.4958" lon="7.62774">
        <ele>1187.37</ele>
        <time>2019-04-06T11:40:23Z</time>
      </trkpt>
      <trkpt lat="60.49594" lon="7.62756">
        <ele>1187.37</ele>
        <time>2019-04-06T11:40:37Z</time>
      </trkpt>
      <trkpt lat="60.49607" lon="7.62736">
        <ele>1187.37</ele>
        <time>2019-04-06T11:40:53Z</time>
      </trkpt>
      <trkpt lat="60.49621" lon="7.62714">
        <ele>1187.37</ele>
        <time>2019-04-06T11:41:10Z</time>
      </trkpt>
      <trkpt lat="60.49626" lon="7.62706">
        <ele>1188.81</ele>
        <time>2019-04-06T11:41:16Z</time>
      </trkpt>
      <trkpt lat="60.4964" lon="7.62683">
        <ele>1188.81</ele>
        <time>2019-04-06T11:41:31Z</time>
      </trkpt>
      <trkpt lat="60.49655" lon="7.62657">
        <ele>1189.29</ele>
        <time>2019-04-06T11:41:50Z</time>
      </trkpt>
      <trkpt lat="60.49666" lon="7.62634">
        <ele>1189.77</ele>
        <time>2019-04-06T11:42:04Z</time>
      </trkpt>
      <trkpt lat="60.49675" lon="7.6262">
        <ele>1189.77</ele>
        <time>2019-04-06T11:42:15Z</time>
      </trkpt>
      <trkpt lat="60.49684" lon="7.62601">
        <ele>1191.21</ele>
        <time>2019-04-06T11:42:29Z</time>
      </trkpt>
      <trkpt lat="60.49694" lon="7.62577">
        <ele>1192.17</ele>
        <time>2019-04-06T11:42:45Z</time>
      </trkpt>
      <trkpt lat="60.49701" lon="7.62554">
        <ele>1193.61</ele>
        <time>2019-04-06T11:42:59Z</time>
      </trkpt>
      <trkpt lat="60.49706" lon="7.62533">
        <ele>1196.02</ele>
        <time>2019-04-06T11:43:14Z</time>
      </trkpt>
      <trkpt lat="60.49713" lon="7.6251">
        <ele>1196.98</ele>
        <time>2019-04-06T11:43:30Z</time>
      </trkpt>
      <trkpt lat="60.49716" lon="7.62488">
        <ele>1199.38</ele>
        <time>2019-04-06T11:43:45Z</time>
      </trkpt>
      <trkpt lat="60.49716" lon="7.62467">
        <ele>1201.79</ele>
        <time>2019-04-06T11:43:58Z</time>
      </trkpt>
      <trkpt lat="60.49714" lon="7.62444">
        <ele>1202.75</ele>
        <time>2019-04-06T11:44:14Z</time>
      </trkpt>
      <trkpt lat="60.49713" lon="7.62435">
        <ele>1203.71</ele>
        <time>2019-04-06T11:44:19Z</time>
      </trkpt>
      <trkpt lat="60.49712" lon="7.62416">
        <ele>1205.15</ele>
        <time>2019-04-06T11:44:32Z</time>
      </trkpt>
      <trkpt lat="60.49711" lon="7.62401">
        <ele>1204.19</ele>
        <time>2019-04-06T11:44:44Z</time>
      </trkpt>
      <trkpt lat="60.49711" lon="7.62397">
        <ele>1205.15</ele>
        <time>2019-04-06T11:44:50Z</time>
      </trkpt>
      <trkpt lat="60.4971" lon="7.62376">
        <ele>1207.55</ele>
        <time>2019-04-06T11:45:04Z</time>
      </trkpt>
      <trkpt lat="60.4971" lon="7.62366">
        <ele>1208.03</ele>
        <time>2019-04-06T11:45:10Z</time>
      </trkpt>
      <trkpt lat="60.49717" lon="7.62343">
        <ele>1209</ele>
        <time>2019-04-06T11:45:27Z</time>
      </trkpt>
      <trkpt lat="60.49723" lon="7.62321">
        <ele>1210.92</ele>
        <time>2019-04-06T11:45:45Z</time>
      </trkpt>
      <trkpt lat="60.49727" lon="7.62303">
        <ele>1213.8</ele>
        <time>2019-04-06T11:46:02Z</time>
      </trkpt>
      <trkpt lat="60.49723" lon="7.62285">
        <ele>1215.72</ele>
        <time>2019-04-06T11:46:18Z</time>
      </trkpt>
      <trkpt lat="60.49718" lon="7.62262">
        <ele>1217.65</ele>
        <time>2019-04-06T11:46:34Z</time>
      </trkpt>
      <trkpt lat="60.49716" lon="7.62242">
        <ele>1218.61</ele>
        <time>2019-04-06T11:46:48Z</time>
      </trkpt>
      <trkpt lat="60.49716" lon="7.62217">
        <ele>1220.05</ele>
        <time>2019-04-06T11:47:03Z</time>
      </trkpt>
      <trkpt lat="60.49717" lon="7.62212">
        <ele>1219.57</ele>
        <time>2019-04-06T11:47:21Z</time>
      </trkpt>
      <trkpt lat="60.49717" lon="7.62211">
        <ele>1219.57</ele>
        <time>2019-04-06T11:47:22Z</time>
      </trkpt>
      <trkpt lat="60.49724" lon="7.62186">
        <ele>1220.05</ele>
        <time>2019-04-06T11:47:37Z</time>
      </trkpt>
      <trkpt lat="60.49732" lon="7.62159">
        <ele>1220.05</ele>
        <time>2019-04-06T11:47:53Z</time>
      </trkpt>
      <trkpt lat="60.49741" lon="7.62138">
        <ele>1221.01</ele>
        <time>2019-04-06T11:48:11Z</time>
      </trkpt>
      <trkpt lat="60.4975" lon="7.62116">
        <ele>1223.42</ele>
        <time>2019-04-06T11:48:28Z</time>
      </trkpt>
      <trkpt lat="60.49756" lon="7.62098">
        <ele>1225.34</ele>
        <time>2019-04-06T11:48:43Z</time>
      </trkpt>
      <trkpt lat="60.49765" lon="7.62074">
        <ele>1227.26</ele>
        <time>2019-04-06T11:48:59Z</time>
      </trkpt>
      <trkpt lat="60.49773" lon="7.62043">
        <ele>1228.22</ele>
        <time>2019-04-06T11:49:18Z</time>
      </trkpt>
      <trkpt lat="60.49783" lon="7.62018">
        <ele>1228.22</ele>
        <time>2019-04-06T11:49:33Z</time>
      </trkpt>
      <trkpt lat="60.49792" lon="7.61999">
        <ele>1228.22</ele>
        <time>2019-04-06T11:49:46Z</time>
      </trkpt>
      <trkpt lat="60.49805" lon="7.61971">
        <ele>1228.7</ele>
        <time>2019-04-06T11:50:04Z</time>
      </trkpt>
      <trkpt lat="60.49817" lon="7.61948">
        <ele>1229.66</ele>
        <time>2019-04-06T11:50:21Z</time>
      </trkpt>
      <trkpt lat="60.49829" lon="7.61925">
        <ele>1229.66</ele>
        <time>2019-04-06T11:50:37Z</time>
      </trkpt>
      <trkpt lat="60.49837" lon="7.61915">
        <ele>1228.22</ele>
        <time>2019-04-06T11:50:51Z</time>
      </trkpt>
      <trkpt lat="60.49839" lon="7.61912">
        <ele>1228.22</ele>
        <time>2019-04-06T11:51:16Z</time>
      </trkpt>
      <trkpt lat="60.49855" lon="7.61915">
        <ele>1227.74</ele>
        <time>2019-04-06T11:51:30Z</time>
      </trkpt>
      <trkpt lat="60.49856" lon="7.61915">
        <ele>1229.66</ele>
        <time>2019-04-06T11:51:33Z</time>
      </trkpt>
      <trkpt lat="60.49855" lon="7.61915">
        <ele>1228.22</ele>
        <time>2019-04-06T11:51:50Z</time>
      </trkpt>
      <trkpt lat="60.49856" lon="7.61915">
        <ele>1230.62</ele>
        <time>2019-04-06T11:51:59Z</time>
      </trkpt>
      <trkpt lat="60.49857" lon="7.61913">
        <ele>1228.7</ele>
        <time>2019-04-06T11:52:02Z</time>
      </trkpt>
      <trkpt lat="60.49856" lon="7.61913">
        <ele>1228.7</ele>
        <time>2019-04-06T11:52:33Z</time>
      </trkpt>
      <trkpt lat="60.49856" lon="7.61914">
        <ele>1228.7</ele>
        <time>2019-04-06T11:53:11Z</time>
      </trkpt>
      <trkpt lat="60.49856" lon="7.61914">
        <ele>1228.7</ele>
        <time>2019-04-06T11:53:52Z</time>
      </trkpt>
      <trkpt lat="60.49857" lon="7.61913">
        <ele>1228.7</ele>
        <time>2019-04-06T11:54:31Z</time>
      </trkpt>
      <trkpt lat="60.49857" lon="7.61914">
        <ele>1228.22</ele>
        <time>2019-04-06T11:54:49Z</time>
      </trkpt>
      <trkpt lat="60.49856" lon="7.61916">
        <ele>1228.22</ele>
        <time>2019-04-06T11:55:08Z</time>
      </trkpt>
      <trkpt lat="60.49857" lon="7.61916">
        <ele>1228.22</ele>
        <time>2019-04-06T11:55:43Z</time>
      </trkpt>
      <trkpt lat="60.49857" lon="7.61917">
        <ele>1228.22</ele>
        <time>2019-04-06T11:56:24Z</time>
      </trkpt>
      <trkpt lat="60.49856" lon="7.61916">
        <ele>1228.22</ele>
        <time>2019-04-06T11:56:52Z</time>
      </trkpt>
      <trkpt lat="60.49857" lon="7.61916">
        <ele>1228.22</ele>
        <time>2019-04-06T11:57:24Z</time>
      </trkpt>
      <trkpt lat="60.49857" lon="7.61917">
        <ele>1228.22</ele>
        <time>2019-04-06T11:58:00Z</time>
      </trkpt>
      <trkpt lat="60.49858" lon="7.61918">
        <ele>1228.22</ele>
        <time>2019-04-06T11:58:31Z</time>
      </trkpt>
      <trkpt lat="60.49857" lon="7.61919">
        <ele>1228.22</ele>
        <time>2019-04-06T11:59:09Z</time>
      </trkpt>
      <trkpt lat="60.49856" lon="7.61918">
        <ele>1228.22</ele>
        <time>2019-04-06T11:59:34Z</time>
      </trkpt>
      <trkpt lat="60.49856" lon="7.61917">
        <ele>1228.22</ele>
        <time>2019-04-06T12:00:05Z</time>
      </trkpt>
      <trkpt lat="60.49857" lon="7.61917">
        <ele>1228.22</ele>
        <time>2019-04-06T12:00:37Z</time>
      </trkpt>
      <trkpt lat="60.49856" lon="7.61918">
        <ele>1228.22</ele>
        <time>2019-04-06T12:01:08Z</time>
      </trkpt>
      <trkpt lat="60.49856" lon="7.61917">
        <ele>1228.22</ele>
        <time>2019-04-06T12:01:41Z</time>
      </trkpt>
      <trkpt lat="60.49856" lon="7.61917">
        <ele>1228.22</ele>
        <time>2019-04-06T12:02:09Z</time>
      </trkpt>
      <trkpt lat="60.49856" lon="7.61917">
        <ele>1228.22</ele>
        <time>2019-04-06T12:02:44Z</time>
      </trkpt>
      <trkpt lat="60.49857" lon="7.61917">
        <ele>1228.22</ele>
        <time>2019-04-06T12:03:22Z</time>
      </trkpt>
      <trkpt lat="60.49857" lon="7.61918">
        <ele>1228.22</ele>
        <time>2019-04-06T12:03:40Z</time>
      </trkpt>
      <trkpt lat="60.49854" lon="7.61918">
        <ele>1229.66</ele>
        <time>2019-04-06T12:03:42Z</time>
      </trkpt>
      <trkpt lat="60.49855" lon="7.61915">
        <ele>1227.74</ele>
        <time>2019-04-06T12:03:46Z</time>
      </trkpt>
      <trkpt lat="60.49856" lon="7.61916">
        <ele>1228.7</ele>
        <time>2019-04-06T12:04:06Z</time>
      </trkpt>
      <trkpt lat="60.49857" lon="7.61915">
        <ele>1228.7</ele>
        <time>2019-04-06T12:04:25Z</time>
      </trkpt>
      <trkpt lat="60.49859" lon="7.61916">
        <ele>1229.18</ele>
        <time>2019-04-06T12:04:39Z</time>
      </trkpt>
      <trkpt lat="60.49861" lon="7.61913">
        <ele>1229.18</ele>
        <time>2019-04-06T12:04:42Z</time>
      </trkpt>
      <trkpt lat="60.49862" lon="7.61911">
        <ele>1229.18</ele>
        <time>2019-04-06T12:04:45Z</time>
      </trkpt>
      <trkpt lat="60.49863" lon="7.61909">
        <ele>1227.26</ele>
        <time>2019-04-06T12:04:55Z</time>
      </trkpt>
      <trkpt lat="60.49864" lon="7.61911">
        <ele>1230.62</ele>
        <time>2019-04-06T12:05:00Z</time>
      </trkpt>
      <trkpt lat="60.49862" lon="7.61907">
        <ele>1230.62</ele>
        <time>2019-04-06T12:05:28Z</time>
      </trkpt>
      <trkpt lat="60.49865" lon="7.61903">
        <ele>1230.62</ele>
        <time>2019-04-06T12:05:47Z</time>
      </trkpt>
      <trkpt lat="60.49865" lon="7.61901">
        <ele>1231.11</ele>
        <time>2019-04-06T12:06:05Z</time>
      </trkpt>
      <trkpt lat="60.49867" lon="7.61905">
        <ele>1230.62</ele>
        <time>2019-04-06T12:06:22Z</time>
      </trkpt>
      <trkpt lat="60.49872" lon="7.61909">
        <ele>1230.62</ele>
        <time>2019-04-06T12:06:35Z</time>
      </trkpt>
      <trkpt lat="60.49873" lon="7.6191">
        <ele>1230.62</ele>
        <time>2019-04-06T12:06:42Z</time>
      </trkpt>
      <trkpt lat="60.49893" lon="7.61909">
        <ele>1228.7</ele>
        <time>2019-04-06T12:06:52Z</time>
      </trkpt>
      <trkpt lat="60.49917" lon="7.61886">
        <ele>1230.62</ele>
        <time>2019-04-06T12:07:00Z</time>
      </trkpt>
      <trkpt lat="60.49936" lon="7.61861">
        <ele>1233.03</ele>
        <time>2019-04-06T12:07:06Z</time>
      </trkpt>
      <trkpt lat="60.49945" lon="7.61853">
        <ele>1233.03</ele>
        <time>2019-04-06T12:07:09Z</time>
      </trkpt>
      <trkpt lat="60.49972" lon="7.61841">
        <ele>1234.95</ele>
        <time>2019-04-06T12:07:18Z</time>
      </trkpt>
      <trkpt lat="60.49989" lon="7.61829">
        <ele>1232.55</ele>
        <time>2019-04-06T12:07:22Z</time>
      </trkpt>
      <trkpt lat="60.49999" lon="7.61819">
        <ele>1233.99</ele>
        <time>2019-04-06T12:07:25Z</time>
      </trkpt>
      <trkpt lat="60.50002" lon="7.61816">
        <ele>1233.99</ele>
        <time>2019-04-06T12:07:26Z</time>
      </trkpt>
      <trkpt lat="60.50014" lon="7.61805">
        <ele>1232.55</ele>
        <time>2019-04-06T12:07:29Z</time>
      </trkpt>
      <trkpt lat="60.50027" lon="7.61796">
        <ele>1231.11</ele>
        <time>2019-04-06T12:07:32Z</time>
      </trkpt>
      <trkpt lat="60.50052" lon="7.61779">
        <ele>1231.11</ele>
        <time>2019-04-06T12:07:37Z</time>
      </trkpt>
      <trkpt lat="60.50063" lon="7.61772">
        <ele>1229.66</ele>
        <time>2019-04-06T12:07:39Z</time>
      </trkpt>
      <trkpt lat="60.50071" lon="7.61769">
        <ele>1234.47</ele>
        <time>2019-04-06T12:07:41Z</time>
      </trkpt>
      <trkpt lat="60.50076" lon="7.61768">
        <ele>1234.47</ele>
        <time>2019-04-06T12:07:42Z</time>
      </trkpt>
      <trkpt lat="60.50081" lon="7.61765">
        <ele>1234.47</ele>
        <time>2019-04-06T12:07:43Z</time>
      </trkpt>
      <trkpt lat="60.50097" lon="7.61752">
        <ele>1237.83</ele>
        <time>2019-04-06T12:07:47Z</time>
      </trkpt>
      <trkpt lat="60.50117" lon="7.61745">
        <ele>1241.2</ele>
        <time>2019-04-06T12:07:53Z</time>
      </trkpt>
      <trkpt lat="60.50125" lon="7.61742">
        <ele>1243.12</ele>
        <time>2019-04-06T12:07:56Z</time>
      </trkpt>
      <trkpt lat="60.50142" lon="7.61736">
        <ele>1245.53</ele>
        <time>2019-04-06T12:08:01Z</time>
      </trkpt>
      <trkpt lat="60.50158" lon="7.61727">
        <ele>1245.53</ele>
        <time>2019-04-06T12:08:05Z</time>
      </trkpt>
      <trkpt lat="60.50174" lon="7.61707">
        <ele>1246.01</ele>
        <time>2019-04-06T12:08:10Z</time>
      </trkpt>
      <trkpt lat="60.50184" lon="7.61701">
        <ele>1247.45</ele>
        <time>2019-04-06T12:08:13Z</time>
      </trkpt>
      <trkpt lat="60.50214" lon="7.61671">
        <ele>1247.45</ele>
        <time>2019-04-06T12:08:21Z</time>
      </trkpt>
      <trkpt lat="60.50237" lon="7.61648">
        <ele>1246.49</ele>
        <time>2019-04-06T12:08:26Z</time>
      </trkpt>
      <trkpt lat="60.50241" lon="7.61641">
        <ele>1246.49</ele>
        <time>2019-04-06T12:08:27Z</time>
      </trkpt>
      <trkpt lat="60.50254" lon="7.61621">
        <ele>1249.37</ele>
        <time>2019-04-06T12:08:31Z</time>
      </trkpt>
      <trkpt lat="60.50258" lon="7.61617">
        <ele>1249.37</ele>
        <time>2019-04-06T12:08:32Z</time>
      </trkpt>
      <trkpt lat="60.50295" lon="7.61575">
        <ele>1251.29</ele>
        <time>2019-04-06T12:08:43Z</time>
      </trkpt>
      <trkpt lat="60.503" lon="7.61572">
        <ele>1251.29</ele>
        <time>2019-04-06T12:08:44Z</time>
      </trkpt>
      <trkpt lat="60.50315" lon="7.61569">
        <ele>1252.74</ele>
        <time>2019-04-06T12:08:47Z</time>
      </trkpt>
      <trkpt lat="60.50321" lon="7.61566">
        <ele>1251.29</ele>
        <time>2019-04-06T12:08:48Z</time>
      </trkpt>
      <trkpt lat="60.50363" lon="7.61565">
        <ele>1252.74</ele>
        <time>2019-04-06T12:08:55Z</time>
      </trkpt>
      <trkpt lat="60.50387" lon="7.61558">
        <ele>1249.37</ele>
        <time>2019-04-06T12:08:58Z</time>
      </trkpt>
      <trkpt lat="60.50395" lon="7.61555">
        <ele>1249.37</ele>
        <time>2019-04-06T12:08:59Z</time>
      </trkpt>
      <trkpt lat="60.5043" lon="7.61542">
        <ele>1254.18</ele>
        <time>2019-04-06T12:09:04Z</time>
      </trkpt>
      <trkpt lat="60.50448" lon="7.61532">
        <ele>1258.5</ele>
        <time>2019-04-06T12:09:08Z</time>
      </trkpt>
      <trkpt lat="60.50457" lon="7.61523">
        <ele>1260.43</ele>
        <time>2019-04-06T12:09:11Z</time>
      </trkpt>
      <trkpt lat="60.50462" lon="7.61518">
        <ele>1260.43</ele>
        <time>2019-04-06T12:09:13Z</time>
      </trkpt>
      <trkpt lat="60.50469" lon="7.61517">
        <ele>1262.35</ele>
        <time>2019-04-06T12:09:16Z</time>
      </trkpt>
      <trkpt lat="60.50485" lon="7.61503">
        <ele>1263.31</ele>
        <time>2019-04-06T12:09:23Z</time>
      </trkpt>
      <trkpt lat="60.5049" lon="7.61501">
        <ele>1264.75</ele>
        <time>2019-04-06T12:09:26Z</time>
      </trkpt>
      <trkpt lat="60.50499" lon="7.6149">
        <ele>1265.71</ele>
        <time>2019-04-06T12:09:32Z</time>
      </trkpt>
      <trkpt lat="60.50517" lon="7.61487">
        <ele>1269.08</ele>
        <time>2019-04-06T12:09:42Z</time>
      </trkpt>
      <trkpt lat="60.50524" lon="7.61476">
        <ele>1267.16</ele>
        <time>2019-04-06T12:09:45Z</time>
      </trkpt>
      <trkpt lat="60.50557" lon="7.61435">
        <ele>1267.16</ele>
        <time>2019-04-06T12:09:56Z</time>
      </trkpt>
      <trkpt lat="60.50567" lon="7.61423">
        <ele>1265.23</ele>
        <time>2019-04-06T12:09:58Z</time>
      </trkpt>
      <trkpt lat="60.50602" lon="7.61396">
        <ele>1268.6</ele>
        <time>2019-04-06T12:10:05Z</time>
      </trkpt>
      <trkpt lat="60.50607" lon="7.61396">
        <ele>1268.6</ele>
        <time>2019-04-06T12:10:06Z</time>
      </trkpt>
      <trkpt lat="60.50622" lon="7.61387">
        <ele>1270.04</ele>
        <time>2019-04-06T12:10:10Z</time>
      </trkpt>
      <trkpt lat="60.50637" lon="7.6138">
        <ele>1272.44</ele>
        <time>2019-04-06T12:10:16Z</time>
      </trkpt>
      <trkpt lat="60.50655" lon="7.61368">
        <ele>1273.88</ele>
        <time>2019-04-06T12:10:25Z</time>
      </trkpt>
      <trkpt lat="60.50658" lon="7.61368">
        <ele>1274.36</ele>
        <time>2019-04-06T12:10:29Z</time>
      </trkpt>
      <trkpt lat="60.50672" lon="7.61365">
        <ele>1274.36</ele>
        <time>2019-04-06T12:10:35Z</time>
      </trkpt>
      <trkpt lat="60.50692" lon="7.61351">
        <ele>1275.33</ele>
        <time>2019-04-06T12:10:42Z</time>
      </trkpt>
      <trkpt lat="60.50703" lon="7.61337">
        <ele>1275.33</ele>
        <time>2019-04-06T12:10:45Z</time>
      </trkpt>
      <trkpt lat="60.50716" lon="7.61328">
        <ele>1276.29</ele>
        <time>2019-04-06T12:10:48Z</time>
      </trkpt>
      <trkpt lat="60.50735" lon="7.61312">
        <ele>1277.73</ele>
        <time>2019-04-06T12:10:53Z</time>
      </trkpt>
      <trkpt lat="60.50738" lon="7.61308">
        <ele>1277.73</ele>
        <time>2019-04-06T12:10:54Z</time>
      </trkpt>
      <trkpt lat="60.50751" lon="7.61301">
        <ele>1282.06</ele>
        <time>2019-04-06T12:11:00Z</time>
      </trkpt>
      <trkpt lat="60.5076" lon="7.613">
        <ele>1282.54</ele>
        <time>2019-04-06T12:11:04Z</time>
      </trkpt>
      <trkpt lat="60.50767" lon="7.61299">
        <ele>1284.46</ele>
        <time>2019-04-06T12:11:07Z</time>
      </trkpt>
      <trkpt lat="60.50785" lon="7.61294">
        <ele>1288.3</ele>
        <time>2019-04-06T12:11:16Z</time>
      </trkpt>
      <trkpt lat="60.50789" lon="7.61292">
        <ele>1288.78</ele>
        <time>2019-04-06T12:11:18Z</time>
      </trkpt>
      <trkpt lat="60.50815" lon="7.61286">
        <ele>1291.19</ele>
        <time>2019-04-06T12:11:28Z</time>
      </trkpt>
      <trkpt lat="60.50828" lon="7.61279">
        <ele>1293.59</ele>
        <time>2019-04-06T12:11:33Z</time>
      </trkpt>
      <trkpt lat="60.50849" lon="7.6127">
        <ele>1296.96</ele>
        <time>2019-04-06T12:11:42Z</time>
      </trkpt>
      <trkpt lat="60.50866" lon="7.61264">
        <ele>1298.88</ele>
        <time>2019-04-06T12:11:50Z</time>
      </trkpt>
      <trkpt lat="60.50862" lon="7.61274">
        <ele>1299.84</ele>
        <time>2019-04-06T12:11:56Z</time>
      </trkpt>
      <trkpt lat="60.50856" lon="7.61268">
        <ele>1299.84</ele>
        <time>2019-04-06T12:11:58Z</time>
      </trkpt>
      <trkpt lat="60.50809" lon="7.61249">
        <ele>1299.36</ele>
        <time>2019-04-06T12:12:13Z</time>
      </trkpt>
      <trkpt lat="60.50777" lon="7.61211">
        <ele>1296.48</ele>
        <time>2019-04-06T12:12:24Z</time>
      </trkpt>
      <trkpt lat="60.50764" lon="7.61183">
        <ele>1293.11</ele>
        <time>2019-04-06T12:12:33Z</time>
      </trkpt>
      <trkpt lat="60.50763" lon="7.61182">
        <ele>1293.11</ele>
        <time>2019-04-06T12:12:34Z</time>
      </trkpt>
      <trkpt lat="60.50773" lon="7.61192">
        <ele>1293.59</ele>
        <time>2019-04-06T12:12:42Z</time>
      </trkpt>
      <trkpt lat="60.50783" lon="7.61193">
        <ele>1295.99</ele>
        <time>2019-04-06T12:12:47Z</time>
      </trkpt>
      <trkpt lat="60.50794" lon="7.61197">
        <ele>1298.88</ele>
        <time>2019-04-06T12:12:54Z</time>
      </trkpt>
      <trkpt lat="60.50808" lon="7.61196">
        <ele>1301.28</ele>
        <time>2019-04-06T12:13:00Z</time>
      </trkpt>
      <trkpt lat="60.50821" lon="7.61193">
        <ele>1303.69</ele>
        <time>2019-04-06T12:13:05Z</time>
      </trkpt>
      <trkpt lat="60.50849" lon="7.61169">
        <ele>1307.53</ele>
        <time>2019-04-06T12:13:15Z</time>
      </trkpt>
      <trkpt lat="60.50867" lon="7.61157">
        <ele>1309.93</ele>
        <time>2019-04-06T12:13:21Z</time>
      </trkpt>
      <trkpt lat="60.50877" lon="7.61156">
        <ele>1312.34</ele>
        <time>2019-04-06T12:13:33Z</time>
      </trkpt>
      <trkpt lat="60.50887" lon="7.61152">
        <ele>1309.45</ele>
        <time>2019-04-06T12:13:38Z</time>
      </trkpt>
      <trkpt lat="60.50914" lon="7.61109">
        <ele>1309.45</ele>
        <time>2019-04-06T12:13:49Z</time>
      </trkpt>
      <trkpt lat="60.50932" lon="7.61068">
        <ele>1308.97</ele>
        <time>2019-04-06T12:13:55Z</time>
      </trkpt>
      <trkpt lat="60.50982" lon="7.60976">
        <ele>1308.01</ele>
        <time>2019-04-06T12:14:08Z</time>
      </trkpt>
      <trkpt lat="60.51003" lon="7.60944">
        <ele>1309.93</ele>
        <time>2019-04-06T12:14:13Z</time>
      </trkpt>
      <trkpt lat="60.51031" lon="7.6091">
        <ele>1312.82</ele>
        <time>2019-04-06T12:14:20Z</time>
      </trkpt>
      <trkpt lat="60.51035" lon="7.60905">
        <ele>1312.82</ele>
        <time>2019-04-06T12:14:21Z</time>
      </trkpt>
      <trkpt lat="60.51055" lon="7.60883">
        <ele>1313.78</ele>
        <time>2019-04-06T12:14:25Z</time>
      </trkpt>
      <trkpt lat="60.51065" lon="7.60872">
        <ele>1314.74</ele>
        <time>2019-04-06T12:14:27Z</time>
      </trkpt>
      <trkpt lat="60.51103" lon="7.60824">
        <ele>1318.1</ele>
        <time>2019-04-06T12:14:35Z</time>
      </trkpt>
      <trkpt lat="60.51131" lon="7.60781">
        <ele>1322.43</ele>
        <time>2019-04-06T12:14:42Z</time>
      </trkpt>
      <trkpt lat="60.51135" lon="7.60775">
        <ele>1322.43</ele>
        <time>2019-04-06T12:14:43Z</time>
      </trkpt>
      <trkpt lat="60.51138" lon="7.60769">
        <ele>1320.99</ele>
        <time>2019-04-06T12:14:44Z</time>
      </trkpt>
      <trkpt lat="60.51148" lon="7.60749">
        <ele>1320.51</ele>
        <time>2019-04-06T12:14:47Z</time>
      </trkpt>
      <trkpt lat="60.51162" lon="7.60702">
        <ele>1318.59</ele>
        <time>2019-04-06T12:14:52Z</time>
      </trkpt>
      <trkpt lat="60.51171" lon="7.6067">
        <ele>1317.14</ele>
        <time>2019-04-06T12:14:55Z</time>
      </trkpt>
      <trkpt lat="60.51174" lon="7.6066">
        <ele>1317.14</ele>
        <time>2019-04-06T12:14:56Z</time>
      </trkpt>
      <trkpt lat="60.51178" lon="7.60642">
        <ele>1318.59</ele>
        <time>2019-04-06T12:14:58Z</time>
      </trkpt>
      <trkpt lat="60.51183" lon="7.60625">
        <ele>1318.59</ele>
        <time>2019-04-06T12:15:00Z</time>
      </trkpt>
      <trkpt lat="60.5119" lon="7.60595">
        <ele>1318.59</ele>
        <time>2019-04-06T12:15:04Z</time>
      </trkpt>
      <trkpt lat="60.51193" lon="7.60602">
        <ele>1321.47</ele>
        <time>2019-04-06T12:15:07Z</time>
      </trkpt>
      <trkpt lat="60.51181" lon="7.60605">
        <ele>1323.39</ele>
        <time>2019-04-06T12:15:10Z</time>
      </trkpt>
      <trkpt lat="60.51158" lon="7.606">
        <ele>1323.39</ele>
        <time>2019-04-06T12:15:14Z</time>
      </trkpt>
      <trkpt lat="60.51112" lon="7.60589">
        <ele>1324.83</ele>
        <time>2019-04-06T12:15:21Z</time>
      </trkpt>
      <trkpt lat="60.51081" lon="7.60583">
        <ele>1329.16</ele>
        <time>2019-04-06T12:15:26Z</time>
      </trkpt>
      <trkpt lat="60.51076" lon="7.60581">
        <ele>1329.16</ele>
        <time>2019-04-06T12:15:27Z</time>
      </trkpt>
      <trkpt lat="60.5106" lon="7.60579">
        <ele>1330.6</ele>
        <time>2019-04-06T12:15:30Z</time>
      </trkpt>
      <trkpt lat="60.51031" lon="7.60578">
        <ele>1333.97</ele>
        <time>2019-04-06T12:15:35Z</time>
      </trkpt>
      <trkpt lat="60.51005" lon="7.60579">
        <ele>1337.81</ele>
        <time>2019-04-06T12:15:40Z</time>
      </trkpt>
      <trkpt lat="60.51" lon="7.60579">
        <ele>1338.29</ele>
        <time>2019-04-06T12:15:41Z</time>
      </trkpt>
      <trkpt lat="60.50992" lon="7.60576">
        <ele>1338.77</ele>
        <time>2019-04-06T12:15:43Z</time>
      </trkpt>
      <trkpt lat="60.50979" lon="7.60569">
        <ele>1341.66</ele>
        <time>2019-04-06T12:15:47Z</time>
      </trkpt>
      <trkpt lat="60.50981" lon="7.60571">
        <ele>1338.77</ele>
        <time>2019-04-06T12:15:53Z</time>
      </trkpt>
      <trkpt lat="60.50982" lon="7.60569">
        <ele>1338.77</ele>
        <time>2019-04-06T12:15:54Z</time>
      </trkpt>
      <trkpt lat="60.51007" lon="7.60518">
        <ele>1335.89</ele>
        <time>2019-04-06T12:16:08Z</time>
      </trkpt>
      <trkpt lat="60.51036" lon="7.60452">
        <ele>1333.01</ele>
        <time>2019-04-06T12:16:17Z</time>
      </trkpt>
      <trkpt lat="60.51071" lon="7.60373">
        <ele>1329.64</ele>
        <time>2019-04-06T12:16:26Z</time>
      </trkpt>
      <trkpt lat="60.51087" lon="7.60337">
        <ele>1325.8</ele>
        <time>2019-04-06T12:16:29Z</time>
      </trkpt>
      <trkpt lat="60.51092" lon="7.60325">
        <ele>1325.31</ele>
        <time>2019-04-06T12:16:30Z</time>
      </trkpt>
      <trkpt lat="60.51112" lon="7.60285">
        <ele>1326.76</ele>
        <time>2019-04-06T12:16:34Z</time>
      </trkpt>
      <trkpt lat="60.51132" lon="7.60244">
        <ele>1328.68</ele>
        <time>2019-04-06T12:16:39Z</time>
      </trkpt>
      <trkpt lat="60.51167" lon="7.60165">
        <ele>1330.6</ele>
        <time>2019-04-06T12:16:50Z</time>
      </trkpt>
      <trkpt lat="60.5118" lon="7.60141">
        <ele>1329.16</ele>
        <time>2019-04-06T12:16:54Z</time>
      </trkpt>
      <trkpt lat="60.51191" lon="7.60119">
        <ele>1329.16</ele>
        <time>2019-04-06T12:16:57Z</time>
      </trkpt>
      <trkpt lat="60.51207" lon="7.60083">
        <ele>1330.12</ele>
        <time>2019-04-06T12:17:02Z</time>
      </trkpt>
      <trkpt lat="60.51238" lon="7.60015">
        <ele>1330.12</ele>
        <time>2019-04-06T12:17:10Z</time>
      </trkpt>
      <trkpt lat="60.51241" lon="7.60009">
        <ele>1330.6</ele>
        <time>2019-04-06T12:17:11Z</time>
      </trkpt>
      <trkpt lat="60.51252" lon="7.5997">
        <ele>1326.28</ele>
        <time>2019-04-06T12:17:15Z</time>
      </trkpt>
      <trkpt lat="60.51261" lon="7.59932">
        <ele>1324.35</ele>
        <time>2019-04-06T12:17:18Z</time>
      </trkpt>
      <trkpt lat="60.51266" lon="7.5991">
        <ele>1325.8</ele>
        <time>2019-04-06T12:17:20Z</time>
      </trkpt>
      <trkpt lat="60.51273" lon="7.59881">
        <ele>1325.8</ele>
        <time>2019-04-06T12:17:23Z</time>
      </trkpt>
      <trkpt lat="60.51294" lon="7.59819">
        <ele>1324.83</ele>
        <time>2019-04-06T12:17:30Z</time>
      </trkpt>
      <trkpt lat="60.51307" lon="7.59783">
        <ele>1322.91</ele>
        <time>2019-04-06T12:17:34Z</time>
      </trkpt>
      <trkpt lat="60.51333" lon="7.59698">
        <ele>1322.43</ele>
        <time>2019-04-06T12:17:42Z</time>
      </trkpt>
      <trkpt lat="60.51371" lon="7.59576">
        <ele>1321.95</ele>
        <time>2019-04-06T12:17:55Z</time>
      </trkpt>
      <trkpt lat="60.51376" lon="7.59575">
        <ele>1325.8</ele>
        <time>2019-04-06T12:17:58Z</time>
      </trkpt>
      <trkpt lat="60.5138" lon="7.59576">
        <ele>1325.8</ele>
        <time>2019-04-06T12:18:06Z</time>
      </trkpt>
      <trkpt lat="60.51393" lon="7.59549">
        <ele>1322.91</ele>
        <time>2019-04-06T12:18:12Z</time>
      </trkpt>
      <trkpt lat="60.51414" lon="7.59495">
        <ele>1323.87</ele>
        <time>2019-04-06T12:18:23Z</time>
      </trkpt>
      <trkpt lat="60.51431" lon="7.5945">
        <ele>1322.43</ele>
        <time>2019-04-06T12:18:31Z</time>
      </trkpt>
      <trkpt lat="60.51436" lon="7.59435">
        <ele>1321.95</ele>
        <time>2019-04-06T12:18:33Z</time>
      </trkpt>
      <trkpt lat="60.51459" lon="7.59376">
        <ele>1321.47</ele>
        <time>2019-04-06T12:18:40Z</time>
      </trkpt>
      <trkpt lat="60.51466" lon="7.59362">
        <ele>1323.39</ele>
        <time>2019-04-06T12:18:42Z</time>
      </trkpt>
      <trkpt lat="60.51483" lon="7.59332">
        <ele>1325.8</ele>
        <time>2019-04-06T12:18:51Z</time>
      </trkpt>
      <trkpt lat="60.51486" lon="7.59333">
        <ele>1326.76</ele>
        <time>2019-04-06T12:19:07Z</time>
      </trkpt>
      <trkpt lat="60.51486" lon="7.59333">
        <ele>1326.76</ele>
        <time>2019-04-06T12:19:09Z</time>
      </trkpt>
      <trkpt lat="60.51489" lon="7.59327">
        <ele>1325.31</ele>
        <time>2019-04-06T12:19:12Z</time>
      </trkpt>
      <trkpt lat="60.51496" lon="7.59309">
        <ele>1325.31</ele>
        <time>2019-04-06T12:19:17Z</time>
      </trkpt>
      <trkpt lat="60.51505" lon="7.59282">
        <ele>1328.68</ele>
        <time>2019-04-06T12:19:28Z</time>
      </trkpt>
      <trkpt lat="60.51506" lon="7.59282">
        <ele>1329.16</ele>
        <time>2019-04-06T12:19:47Z</time>
      </trkpt>
      <trkpt lat="60.51508" lon="7.59283">
        <ele>1329.16</ele>
        <time>2019-04-06T12:20:02Z</time>
      </trkpt>
      <trkpt lat="60.5151" lon="7.59282">
        <ele>1329.16</ele>
        <time>2019-04-06T12:20:07Z</time>
      </trkpt>
      <trkpt lat="60.51514" lon="7.59275">
        <ele>1329.16</ele>
        <time>2019-04-06T12:20:11Z</time>
      </trkpt>
      <trkpt lat="60.51518" lon="7.59265">
        <ele>1327.72</ele>
        <time>2019-04-06T12:20:16Z</time>
      </trkpt>
      <trkpt lat="60.51519" lon="7.59259">
        <ele>1329.64</ele>
        <time>2019-04-06T12:20:19Z</time>
      </trkpt>
      <trkpt lat="60.51522" lon="7.59259">
        <ele>1330.12</ele>
        <time>2019-04-06T12:20:35Z</time>
      </trkpt>
      <trkpt lat="60.51523" lon="7.59258">
        <ele>1330.12</ele>
        <time>2019-04-06T12:20:53Z</time>
      </trkpt>
      <trkpt lat="60.51516" lon="7.59268">
        <ele>1330.12</ele>
        <time>2019-04-06T12:20:57Z</time>
      </trkpt>
      <trkpt lat="60.51478" lon="7.59264">
        <ele>1330.6</ele>
        <time>2019-04-06T12:21:07Z</time>
      </trkpt>
      <trkpt lat="60.51464" lon="7.59272">
        <ele>1329.16</ele>
        <time>2019-04-06T12:21:13Z</time>
      </trkpt>
      <trkpt lat="60.51466" lon="7.59275">
        <ele>1329.16</ele>
        <time>2019-04-06T12:21:15Z</time>
      </trkpt>
      <trkpt lat="60.51472" lon="7.59266">
        <ele>1327.24</ele>
        <time>2019-04-06T12:21:18Z</time>
      </trkpt>
      <trkpt lat="60.51478" lon="7.59256">
        <ele>1328.68</ele>
        <time>2019-04-06T12:21:21Z</time>
      </trkpt>
      <trkpt lat="60.51484" lon="7.59241">
        <ele>1329.64</ele>
        <time>2019-04-06T12:21:25Z</time>
      </trkpt>
      <trkpt lat="60.51503" lon="7.59204">
        <ele>1330.12</ele>
        <time>2019-04-06T12:21:37Z</time>
      </trkpt>
      <trkpt lat="60.51523" lon="7.59149">
        <ele>1326.76</ele>
        <time>2019-04-06T12:21:45Z</time>
      </trkpt>
      <trkpt lat="60.51555" lon="7.59041">
        <ele>1323.87</ele>
        <time>2019-04-06T12:21:55Z</time>
      </trkpt>
      <trkpt lat="60.51602" lon="7.58932">
        <ele>1326.28</ele>
        <time>2019-04-06T12:22:06Z</time>
      </trkpt>
      <trkpt lat="60.51605" lon="7.58924">
        <ele>1326.28</ele>
        <time>2019-04-06T12:22:07Z</time>
      </trkpt>
      <trkpt lat="60.51611" lon="7.58905">
        <ele>1322.91</ele>
        <time>2019-04-06T12:22:09Z</time>
      </trkpt>
      <trkpt lat="60.51621" lon="7.58868">
        <ele>1320.03</ele>
        <time>2019-04-06T12:22:12Z</time>
      </trkpt>
      <trkpt lat="60.51632" lon="7.58821">
        <ele>1320.03</ele>
        <time>2019-04-06T12:22:16Z</time>
      </trkpt>
      <trkpt lat="60.51654" lon="7.58742">
        <ele>1319.55</ele>
        <time>2019-04-06T12:22:23Z</time>
      </trkpt>
      <trkpt lat="60.51665" lon="7.587">
        <ele>1321.95</ele>
        <time>2019-04-06T12:22:27Z</time>
      </trkpt>
      <trkpt lat="60.51678" lon="7.58645">
        <ele>1320.99</ele>
        <time>2019-04-06T12:22:32Z</time>
      </trkpt>
      <trkpt lat="60.51683" lon="7.58621">
        <ele>1320.51</ele>
        <time>2019-04-06T12:22:34Z</time>
      </trkpt>
      <trkpt lat="60.51692" lon="7.58591">
        <ele>1321.95</ele>
        <time>2019-04-06T12:22:37Z</time>
      </trkpt>
      <trkpt lat="60.51696" lon="7.5858">
        <ele>1321.95</ele>
        <time>2019-04-06T12:22:38Z</time>
      </trkpt>
      <trkpt lat="60.51712" lon="7.58521">
        <ele>1320.51</ele>
        <time>2019-04-06T12:22:43Z</time>
      </trkpt>
      <trkpt lat="60.51742" lon="7.5841">
        <ele>1320.51</ele>
        <time>2019-04-06T12:22:52Z</time>
      </trkpt>
      <trkpt lat="60.51757" lon="7.58359">
        <ele>1319.55</ele>
        <time>2019-04-06T12:22:56Z</time>
      </trkpt>
      <trkpt lat="60.51813" lon="7.58216">
        <ele>1319.07</ele>
        <time>2019-04-06T12:23:08Z</time>
      </trkpt>
      <trkpt lat="60.5183" lon="7.58167">
        <ele>1323.39</ele>
        <time>2019-04-06T12:23:12Z</time>
      </trkpt>
      <trkpt lat="60.51833" lon="7.58155">
        <ele>1323.87</ele>
        <time>2019-04-06T12:23:13Z</time>
      </trkpt>
      <trkpt lat="60.51838" lon="7.58134">
        <ele>1324.35</ele>
        <time>2019-04-06T12:23:15Z</time>
      </trkpt>
      <trkpt lat="60.51848" lon="7.58066">
        <ele>1325.31</ele>
        <time>2019-04-06T12:23:21Z</time>
      </trkpt>
      <trkpt lat="60.51858" lon="7.58018">
        <ele>1323.39</ele>
        <time>2019-04-06T12:23:25Z</time>
      </trkpt>
      <trkpt lat="60.51874" lon="7.57948">
        <ele>1321.95</ele>
        <time>2019-04-06T12:23:30Z</time>
      </trkpt>
      <trkpt lat="60.51882" lon="7.57904">
        <ele>1320.51</ele>
        <time>2019-04-06T12:23:33Z</time>
      </trkpt>
      <trkpt lat="60.51901" lon="7.57777">
        <ele>1319.07</ele>
        <time>2019-04-06T12:23:42Z</time>
      </trkpt>
      <trkpt lat="60.5191" lon="7.57721">
        <ele>1320.51</ele>
        <time>2019-04-06T12:23:47Z</time>
      </trkpt>
      <trkpt lat="60.51915" lon="7.577">
        <ele>1321.47</ele>
        <time>2019-04-06T12:23:49Z</time>
      </trkpt>
      <trkpt lat="60.51925" lon="7.57661">
        <ele>1321.95</ele>
        <time>2019-04-06T12:23:53Z</time>
      </trkpt>
      <trkpt lat="60.51935" lon="7.57628">
        <ele>1321.95</ele>
        <time>2019-04-06T12:23:56Z</time>
      </trkpt>
      <trkpt lat="60.51971" lon="7.5749">
        <ele>1320.51</ele>
        <time>2019-04-06T12:24:07Z</time>
      </trkpt>
      <trkpt lat="60.5201" lon="7.57331">
        <ele>1319.55</ele>
        <time>2019-04-06T12:24:18Z</time>
      </trkpt>
      <trkpt lat="60.52023" lon="7.57278">
        <ele>1323.87</ele>
        <time>2019-04-06T12:24:22Z</time>
      </trkpt>
      <trkpt lat="60.52035" lon="7.57244">
        <ele>1326.76</ele>
        <time>2019-04-06T12:24:27Z</time>
      </trkpt>
      <trkpt lat="60.52042" lon="7.57231">
        <ele>1328.68</ele>
        <time>2019-04-06T12:24:31Z</time>
      </trkpt>
      <trkpt lat="60.52061" lon="7.5718">
        <ele>1328.68</ele>
        <time>2019-04-06T12:24:41Z</time>
      </trkpt>
      <trkpt lat="60.52069" lon="7.57157">
        <ele>1329.16</ele>
        <time>2019-04-06T12:24:45Z</time>
      </trkpt>
      <trkpt lat="60.52079" lon="7.5712">
        <ele>1327.72</ele>
        <time>2019-04-06T12:24:49Z</time>
      </trkpt>
      <trkpt lat="60.52095" lon="7.57051">
        <ele>1323.87</ele>
        <time>2019-04-06T12:24:54Z</time>
      </trkpt>
      <trkpt lat="60.52102" lon="7.57013">
        <ele>1320.03</ele>
        <time>2019-04-06T12:24:56Z</time>
      </trkpt>
      <trkpt lat="60.52106" lon="7.56994">
        <ele>1320.03</ele>
        <time>2019-04-06T12:24:57Z</time>
      </trkpt>
      <trkpt lat="60.52147" lon="7.56804">
        <ele>1318.59</ele>
        <time>2019-04-06T12:25:08Z</time>
      </trkpt>
      <trkpt lat="60.52153" lon="7.56771">
        <ele>1319.07</ele>
        <time>2019-04-06T12:25:10Z</time>
      </trkpt>
      <trkpt lat="60.52163" lon="7.56725">
        <ele>1320.51</ele>
        <time>2019-04-06T12:25:13Z</time>
      </trkpt>
      <trkpt lat="60.52201" lon="7.56558">
        <ele>1321.47</ele>
        <time>2019-04-06T12:25:25Z</time>
      </trkpt>
      <trkpt lat="60.5221" lon="7.56528">
        <ele>1320.51</ele>
        <time>2019-04-06T12:25:27Z</time>
      </trkpt>
      <trkpt lat="60.52229" lon="7.56468">
        <ele>1321.47</ele>
        <time>2019-04-06T12:25:31Z</time>
      </trkpt>
      <trkpt lat="60.52248" lon="7.56397">
        <ele>1321.95</ele>
        <time>2019-04-06T12:25:36Z</time>
      </trkpt>
      <trkpt lat="60.52267" lon="7.5636">
        <ele>1323.87</ele>
        <time>2019-04-06T12:25:40Z</time>
      </trkpt>
      <trkpt lat="60.52281" lon="7.56331">
        <ele>1321.95</ele>
        <time>2019-04-06T12:25:43Z</time>
      </trkpt>
      <trkpt lat="60.523" lon="7.56303">
        <ele>1321.47</ele>
        <time>2019-04-06T12:25:46Z</time>
      </trkpt>
      <trkpt lat="60.52328" lon="7.56229">
        <ele>1322.91</ele>
        <time>2019-04-06T12:25:52Z</time>
      </trkpt>
      <trkpt lat="60.52344" lon="7.562">
        <ele>1323.87</ele>
        <time>2019-04-06T12:25:55Z</time>
      </trkpt>
      <trkpt lat="60.52363" lon="7.5617">
        <ele>1326.76</ele>
        <time>2019-04-06T12:25:59Z</time>
      </trkpt>
      <trkpt lat="60.52383" lon="7.56146">
        <ele>1330.12</ele>
        <time>2019-04-06T12:26:04Z</time>
      </trkpt>
      <trkpt lat="60.52386" lon="7.56144">
        <ele>1330.12</ele>
        <time>2019-04-06T12:26:05Z</time>
      </trkpt>
      <trkpt lat="60.52405" lon="7.56124">
        <ele>1332.04</ele>
        <time>2019-04-06T12:26:11Z</time>
      </trkpt>
      <trkpt lat="60.52419" lon="7.56106">
        <ele>1333.97</ele>
        <time>2019-04-06T12:26:15Z</time>
      </trkpt>
      <trkpt lat="60.52429" lon="7.56092">
        <ele>1333.97</ele>
        <time>2019-04-06T12:26:18Z</time>
      </trkpt>
      <trkpt lat="60.52444" lon="7.56071">
        <ele>1334.45</ele>
        <time>2019-04-06T12:26:22Z</time>
      </trkpt>
      <trkpt lat="60.52453" lon="7.56054">
        <ele>1332.52</ele>
        <time>2019-04-06T12:26:24Z</time>
      </trkpt>
      <trkpt lat="60.52467" lon="7.56029">
        <ele>1335.41</ele>
        <time>2019-04-06T12:26:28Z</time>
      </trkpt>
      <trkpt lat="60.52476" lon="7.55995">
        <ele>1335.89</ele>
        <time>2019-04-06T12:26:34Z</time>
      </trkpt>
      <trkpt lat="60.52484" lon="7.5598">
        <ele>1336.85</ele>
        <time>2019-04-06T12:26:39Z</time>
      </trkpt>
      <trkpt lat="60.52503" lon="7.55936">
        <ele>1338.29</ele>
        <time>2019-04-06T12:26:48Z</time>
      </trkpt>
      <trkpt lat="60.52508" lon="7.55927">
        <ele>1339.25</ele>
        <time>2019-04-06T12:26:50Z</time>
      </trkpt>
      <trkpt lat="60.52516" lon="7.55895">
        <ele>1337.81</ele>
        <time>2019-04-06T12:26:54Z</time>
      </trkpt>
      <trkpt lat="60.5252" lon="7.55885">
        <ele>1340.7</ele>
        <time>2019-04-06T12:26:56Z</time>
      </trkpt>
      <trkpt lat="60.52536" lon="7.55858">
        <ele>1341.18</ele>
        <time>2019-04-06T12:27:03Z</time>
      </trkpt>
      <trkpt lat="60.52556" lon="7.55811">
        <ele>1343.1</ele>
        <time>2019-04-06T12:27:09Z</time>
      </trkpt>
      <trkpt lat="60.52565" lon="7.55781">
        <ele>1341.66</ele>
        <time>2019-04-06T12:27:12Z</time>
      </trkpt>
      <trkpt lat="60.52569" lon="7.55774">
        <ele>1343.1</ele>
        <time>2019-04-06T12:27:13Z</time>
      </trkpt>
      <trkpt lat="60.52577" lon="7.55759">
        <ele>1343.1</ele>
        <time>2019-04-06T12:27:15Z</time>
      </trkpt>
      <trkpt lat="60.52593" lon="7.55725">
        <ele>1343.58</ele>
        <time>2019-04-06T12:27:19Z</time>
      </trkpt>
      <trkpt lat="60.526" lon="7.55708">
        <ele>1344.54</ele>
        <time>2019-04-06T12:27:21Z</time>
      </trkpt>
      <trkpt lat="60.52614" lon="7.55684">
        <ele>1347.43</ele>
        <time>2019-04-06T12:27:26Z</time>
      </trkpt>
      <trkpt lat="60.52623" lon="7.55671">
        <ele>1348.87</ele>
        <time>2019-04-06T12:27:29Z</time>
      </trkpt>
      <trkpt lat="60.5263" lon="7.55661">
        <ele>1349.35</ele>
        <time>2019-04-06T12:27:31Z</time>
      </trkpt>
      <trkpt lat="60.52644" lon="7.55634">
        <ele>1351.27</ele>
        <time>2019-04-06T12:27:35Z</time>
      </trkpt>
      <trkpt lat="60.52654" lon="7.55615">
        <ele>1353.19</ele>
        <time>2019-04-06T12:27:39Z</time>
      </trkpt>
      <trkpt lat="60.52672" lon="7.55605">
        <ele>1356.08</ele>
        <time>2019-04-06T12:27:47Z</time>
      </trkpt>
      <trkpt lat="60.52697" lon="7.55585">
        <ele>1359.92</ele>
        <time>2019-04-06T12:27:56Z</time>
      </trkpt>
      <trkpt lat="60.52708" lon="7.55579">
        <ele>1361.84</ele>
        <time>2019-04-06T12:28:03Z</time>
      </trkpt>
      <trkpt lat="60.52723" lon="7.55575">
        <ele>1362.33</ele>
        <time>2019-04-06T12:28:10Z</time>
      </trkpt>
      <trkpt lat="60.52736" lon="7.55562">
        <ele>1363.29</ele>
        <time>2019-04-06T12:28:16Z</time>
      </trkpt>
      <trkpt lat="60.52763" lon="7.55544">
        <ele>1366.65</ele>
        <time>2019-04-06T12:28:26Z</time>
      </trkpt>
      <trkpt lat="60.52766" lon="7.55541">
        <ele>1367.13</ele>
        <time>2019-04-06T12:28:27Z</time>
      </trkpt>
      <trkpt lat="60.5277" lon="7.55538">
        <ele>1367.13</ele>
        <time>2019-04-06T12:28:28Z</time>
      </trkpt>
      <trkpt lat="60.52779" lon="7.5552">
        <ele>1367.13</ele>
        <time>2019-04-06T12:28:31Z</time>
      </trkpt>
      <trkpt lat="60.52786" lon="7.55511">
        <ele>1368.57</ele>
        <time>2019-04-06T12:28:33Z</time>
      </trkpt>
      <trkpt lat="60.52806" lon="7.55481">
        <ele>1370.5</ele>
        <time>2019-04-06T12:28:40Z</time>
      </trkpt>
      <trkpt lat="60.52814" lon="7.55468">
        <ele>1370.98</ele>
        <time>2019-04-06T12:28:43Z</time>
      </trkpt>
      <trkpt lat="60.5282" lon="7.55465">
        <ele>1371.94</ele>
        <time>2019-04-06T12:28:45Z</time>
      </trkpt>
      <trkpt lat="60.52838" lon="7.55457">
        <ele>1372.9</ele>
        <time>2019-04-06T12:28:50Z</time>
      </trkpt>
      <trkpt lat="60.52844" lon="7.55458">
        <ele>1374.34</ele>
        <time>2019-04-06T12:28:52Z</time>
      </trkpt>
      <trkpt lat="60.52873" lon="7.55446">
        <ele>1376.26</ele>
        <time>2019-04-06T12:29:02Z</time>
      </trkpt>
      <trkpt lat="60.52895" lon="7.55437">
        <ele>1377.71</ele>
        <time>2019-04-06T12:29:12Z</time>
      </trkpt>
      <trkpt lat="60.52904" lon="7.55432">
        <ele>1377.71</ele>
        <time>2019-04-06T12:29:15Z</time>
      </trkpt>
      <trkpt lat="60.52914" lon="7.55419">
        <ele>1376.26</ele>
        <time>2019-04-06T12:29:18Z</time>
      </trkpt>
      <trkpt lat="60.52924" lon="7.55404">
        <ele>1377.71</ele>
        <time>2019-04-06T12:29:21Z</time>
      </trkpt>
      <trkpt lat="60.52941" lon="7.55388">
        <ele>1379.63</ele>
        <time>2019-04-06T12:29:27Z</time>
      </trkpt>
      <trkpt lat="60.5296" lon="7.55353">
        <ele>1381.07</ele>
        <time>2019-04-06T12:29:39Z</time>
      </trkpt>
      <trkpt lat="60.52969" lon="7.55331">
        <ele>1378.67</ele>
        <time>2019-04-06T12:29:44Z</time>
      </trkpt>
      <trkpt lat="60.52979" lon="7.55307">
        <ele>1378.67</ele>
        <time>2019-04-06T12:29:49Z</time>
      </trkpt>
      <trkpt lat="60.52987" lon="7.55307">
        <ele>1380.11</ele>
        <time>2019-04-06T12:29:51Z</time>
      </trkpt>
      <trkpt lat="60.52992" lon="7.55308">
        <ele>1380.11</ele>
        <time>2019-04-06T12:29:52Z</time>
      </trkpt>
      <trkpt lat="60.53005" lon="7.55308">
        <ele>1378.67</ele>
        <time>2019-04-06T12:29:54Z</time>
      </trkpt>
      <trkpt lat="60.53026" lon="7.55303">
        <ele>1378.19</ele>
        <time>2019-04-06T12:29:57Z</time>
      </trkpt>
      <trkpt lat="60.53047" lon="7.5529">
        <ele>1378.19</ele>
        <time>2019-04-06T12:30:00Z</time>
      </trkpt>
      <trkpt lat="60.5306" lon="7.55285">
        <ele>1379.63</ele>
        <time>2019-04-06T12:30:02Z</time>
      </trkpt>
      <trkpt lat="60.53072" lon="7.55279">
        <ele>1379.63</ele>
        <time>2019-04-06T12:30:04Z</time>
      </trkpt>
      <trkpt lat="60.53087" lon="7.55281">
        <ele>1383.96</ele>
        <time>2019-04-06T12:30:08Z</time>
      </trkpt>
      <trkpt lat="60.53093" lon="7.55285">
        <ele>1384.92</ele>
        <time>2019-04-06T12:30:12Z</time>
      </trkpt>
      <trkpt lat="60.53104" lon="7.55291">
        <ele>1386.84</ele>
        <time>2019-04-06T12:30:21Z</time>
      </trkpt>
      <trkpt lat="60.53104" lon="7.55291">
        <ele>1386.84</ele>
        <time>2019-04-06T12:30:22Z</time>
      </trkpt>
      <trkpt lat="60.53116" lon="7.55298">
        <ele>1386.84</ele>
        <time>2019-04-06T12:30:32Z</time>
      </trkpt>
      <trkpt lat="60.53101" lon="7.55301">
        <ele>1386.84</ele>
        <time>2019-04-06T12:30:38Z</time>
      </trkpt>
      <trkpt lat="60.53079" lon="7.5528">
        <ele>1385.4</ele>
        <time>2019-04-06T12:30:43Z</time>
      </trkpt>
      <trkpt lat="60.53074" lon="7.55275">
        <ele>1385.4</ele>
        <time>2019-04-06T12:30:44Z</time>
      </trkpt>
      <trkpt lat="60.53062" lon="7.55265">
        <ele>1382.99</ele>
        <time>2019-04-06T12:30:46Z</time>
      </trkpt>
      <trkpt lat="60.53005" lon="7.55252">
        <ele>1382.03</ele>
        <time>2019-04-06T12:30:55Z</time>
      </trkpt>
      <trkpt lat="60.5298" lon="7.5525">
        <ele>1383.47</ele>
        <time>2019-04-06T12:30:59Z</time>
      </trkpt>
      <trkpt lat="60.52974" lon="7.55249">
        <ele>1383.47</ele>
        <time>2019-04-06T12:31:00Z</time>
      </trkpt>
      <trkpt lat="60.52955" lon="7.55244">
        <ele>1384.44</ele>
        <time>2019-04-06T12:31:04Z</time>
      </trkpt>
      <trkpt lat="60.52948" lon="7.55246">
        <ele>1382.99</ele>
        <time>2019-04-06T12:31:06Z</time>
      </trkpt>
      <trkpt lat="60.52923" lon="7.55244">
        <ele>1382.99</ele>
        <time>2019-04-06T12:31:15Z</time>
      </trkpt>
      <trkpt lat="60.52903" lon="7.5524">
        <ele>1381.55</ele>
        <time>2019-04-06T12:31:21Z</time>
      </trkpt>
      <trkpt lat="60.52885" lon="7.55233">
        <ele>1380.59</ele>
        <time>2019-04-06T12:31:25Z</time>
      </trkpt>
      <trkpt lat="60.52871" lon="7.55225">
        <ele>1378.67</ele>
        <time>2019-04-06T12:31:28Z</time>
      </trkpt>
      <trkpt lat="60.5284" lon="7.55219">
        <ele>1377.71</ele>
        <time>2019-04-06T12:31:36Z</time>
      </trkpt>
      <trkpt lat="60.52831" lon="7.55217">
        <ele>1377.23</ele>
        <time>2019-04-06T12:31:38Z</time>
      </trkpt>
      <trkpt lat="60.52814" lon="7.55217">
        <ele>1375.78</ele>
        <time>2019-04-06T12:31:42Z</time>
      </trkpt>
      <trkpt lat="60.52795" lon="7.55218">
        <ele>1375.78</ele>
        <time>2019-04-06T12:31:47Z</time>
      </trkpt>
      <trkpt lat="60.52794" lon="7.5522">
        <ele>1375.3</ele>
        <time>2019-04-06T12:31:49Z</time>
      </trkpt>
      <trkpt lat="60.528" lon="7.55217">
        <ele>1373.86</ele>
        <time>2019-04-06T12:31:53Z</time>
      </trkpt>
      <trkpt lat="60.52823" lon="7.55171">
        <ele>1376.26</ele>
        <time>2019-04-06T12:32:02Z</time>
      </trkpt>
      <trkpt lat="60.52831" lon="7.55157">
        <ele>1376.26</ele>
        <time>2019-04-06T12:32:05Z</time>
      </trkpt>
      <trkpt lat="60.52838" lon="7.55146">
        <ele>1379.15</ele>
        <time>2019-04-06T12:32:09Z</time>
      </trkpt>
      <trkpt lat="60.52846" lon="7.55132">
        <ele>1380.59</ele>
        <time>2019-04-06T12:32:14Z</time>
      </trkpt>
      <trkpt lat="60.52857" lon="7.55118">
        <ele>1381.07</ele>
        <time>2019-04-06T12:32:21Z</time>
      </trkpt>
      <trkpt lat="60.52861" lon="7.55116">
        <ele>1381.55</ele>
        <time>2019-04-06T12:32:24Z</time>
      </trkpt>
      <trkpt lat="60.52865" lon="7.55115">
        <ele>1381.55</ele>
        <time>2019-04-06T12:32:33Z</time>
      </trkpt>
      <trkpt lat="60.52845" lon="7.55128">
        <ele>1382.03</ele>
        <time>2019-04-06T12:32:42Z</time>
      </trkpt>
      <trkpt lat="60.52806" lon="7.55139">
        <ele>1382.03</ele>
        <time>2019-04-06T12:32:55Z</time>
      </trkpt>
      <trkpt lat="60.52772" lon="7.55152">
        <ele>1382.03</ele>
        <time>2019-04-06T12:33:04Z</time>
      </trkpt>
      <trkpt lat="60.52742" lon="7.55158">
        <ele>1382.03</ele>
        <time>2019-04-06T12:33:11Z</time>
      </trkpt>
      <trkpt lat="60.52713" lon="7.55167">
        <ele>1380.59</ele>
        <time>2019-04-06T12:33:17Z</time>
      </trkpt>
      <trkpt lat="60.52698" lon="7.55171">
        <ele>1380.59</ele>
        <time>2019-04-06T12:33:21Z</time>
      </trkpt>
      <trkpt lat="60.52707" lon="7.55162">
        <ele>1378.19</ele>
        <time>2019-04-06T12:33:27Z</time>
      </trkpt>
      <trkpt lat="60.52716" lon="7.55142">
        <ele>1379.63</ele>
        <time>2019-04-06T12:33:30Z</time>
      </trkpt>
      <trkpt lat="60.52741" lon="7.55064">
        <ele>1382.03</ele>
        <time>2019-04-06T12:33:40Z</time>
      </trkpt>
      <trkpt lat="60.5275" lon="7.55032">
        <ele>1384.44</ele>
        <time>2019-04-06T12:33:44Z</time>
      </trkpt>
      <trkpt lat="60.5276" lon="7.55009">
        <ele>1386.36</ele>
        <time>2019-04-06T12:33:48Z</time>
      </trkpt>
      <trkpt lat="60.52767" lon="7.54994">
        <ele>1387.32</ele>
        <time>2019-04-06T12:33:51Z</time>
      </trkpt>
      <trkpt lat="60.52787" lon="7.5497">
        <ele>1390.68</ele>
        <time>2019-04-06T12:34:00Z</time>
      </trkpt>
      <trkpt lat="60.52796" lon="7.54956">
        <ele>1391.65</ele>
        <time>2019-04-06T12:34:04Z</time>
      </trkpt>
      <trkpt lat="60.52818" lon="7.54941">
        <ele>1393.57</ele>
        <time>2019-04-06T12:34:16Z</time>
      </trkpt>
      <trkpt lat="60.52825" lon="7.54937">
        <ele>1394.53</ele>
        <time>2019-04-06T12:34:21Z</time>
      </trkpt>
      <trkpt lat="60.5284" lon="7.54928">
        <ele>1395.01</ele>
        <time>2019-04-06T12:34:28Z</time>
      </trkpt>
      <trkpt lat="60.52852" lon="7.54911">
        <ele>1396.93</ele>
        <time>2019-04-06T12:34:40Z</time>
      </trkpt>
      <trkpt lat="60.52869" lon="7.54888">
        <ele>1396.93</ele>
        <time>2019-04-06T12:34:52Z</time>
      </trkpt>
      <trkpt lat="60.52874" lon="7.5488">
        <ele>1396.93</ele>
        <time>2019-04-06T12:34:54Z</time>
      </trkpt>
      <trkpt lat="60.52882" lon="7.54859">
        <ele>1395.01</ele>
        <time>2019-04-06T12:34:57Z</time>
      </trkpt>
      <trkpt lat="60.52894" lon="7.54831">
        <ele>1394.05</ele>
        <time>2019-04-06T12:35:01Z</time>
      </trkpt>
      <trkpt lat="60.52913" lon="7.54788">
        <ele>1393.57</ele>
        <time>2019-04-06T12:35:07Z</time>
      </trkpt>
      <trkpt lat="60.52919" lon="7.54777">
        <ele>1393.57</ele>
        <time>2019-04-06T12:35:09Z</time>
      </trkpt>
      <trkpt lat="60.52933" lon="7.54743">
        <ele>1395.01</ele>
        <time>2019-04-06T12:35:15Z</time>
      </trkpt>
      <trkpt lat="60.52937" lon="7.54741">
        <ele>1395.49</ele>
        <time>2019-04-06T12:35:17Z</time>
      </trkpt>
      <trkpt lat="60.52924" lon="7.54755">
        <ele>1397.89</ele>
        <time>2019-04-06T12:35:23Z</time>
      </trkpt>
      <trkpt lat="60.52921" lon="7.54757">
        <ele>1397.89</ele>
        <time>2019-04-06T12:35:24Z</time>
      </trkpt>
      <trkpt lat="60.52902" lon="7.54771">
        <ele>1398.86</ele>
        <time>2019-04-06T12:35:34Z</time>
      </trkpt>
      <trkpt lat="60.52895" lon="7.54774">
        <ele>1399.82</ele>
        <time>2019-04-06T12:35:37Z</time>
      </trkpt>
      <trkpt lat="60.5289" lon="7.54781">
        <ele>1399.82</ele>
        <time>2019-04-06T12:35:41Z</time>
      </trkpt>
      <trkpt lat="60.52878" lon="7.54785">
        <ele>1400.78</ele>
        <time>2019-04-06T12:35:45Z</time>
      </trkpt>
      <trkpt lat="60.52854" lon="7.5479">
        <ele>1402.7</ele>
        <time>2019-04-06T12:35:54Z</time>
      </trkpt>
      <trkpt lat="60.5285" lon="7.54793">
        <ele>1402.22</ele>
        <time>2019-04-06T12:35:56Z</time>
      </trkpt>
      <trkpt lat="60.52863" lon="7.54802">
        <ele>1399.34</ele>
        <time>2019-04-06T12:36:02Z</time>
      </trkpt>
      <trkpt lat="60.52866" lon="7.54797">
        <ele>1399.34</ele>
        <time>2019-04-06T12:36:03Z</time>
      </trkpt>
      <trkpt lat="60.52874" lon="7.54785">
        <ele>1399.34</ele>
        <time>2019-04-06T12:36:05Z</time>
      </trkpt>
      <trkpt lat="60.52901" lon="7.54747">
        <ele>1397.89</ele>
        <time>2019-04-06T12:36:11Z</time>
      </trkpt>
      <trkpt lat="60.52928" lon="7.5472">
        <ele>1393.09</ele>
        <time>2019-04-06T12:36:15Z</time>
      </trkpt>
      <trkpt lat="60.52958" lon="7.54691">
        <ele>1391.17</ele>
        <time>2019-04-06T12:36:19Z</time>
      </trkpt>
      <trkpt lat="60.52965" lon="7.54683">
        <ele>1390.2</ele>
        <time>2019-04-06T12:36:20Z</time>
      </trkpt>
      <trkpt lat="60.53011" lon="7.54656">
        <ele>1392.61</ele>
        <time>2019-04-06T12:36:26Z</time>
      </trkpt>
      <trkpt lat="60.53022" lon="7.54647">
        <ele>1394.53</ele>
        <time>2019-04-06T12:36:28Z</time>
      </trkpt>
      <trkpt lat="60.53032" lon="7.54642">
        <ele>1395.49</ele>
        <time>2019-04-06T12:36:30Z</time>
      </trkpt>
      <trkpt lat="60.53041" lon="7.54638">
        <ele>1396.45</ele>
        <time>2019-04-06T12:36:32Z</time>
      </trkpt>
      <trkpt lat="60.53054" lon="7.54635">
        <ele>1398.37</ele>
        <time>2019-04-06T12:36:35Z</time>
      </trkpt>
      <trkpt lat="60.53062" lon="7.54632">
        <ele>1398.86</ele>
        <time>2019-04-06T12:36:37Z</time>
      </trkpt>
      <trkpt lat="60.53074" lon="7.54629">
        <ele>1400.3</ele>
        <time>2019-04-06T12:36:40Z</time>
      </trkpt>
      <trkpt lat="60.5309" lon="7.54619">
        <ele>1401.74</ele>
        <time>2019-04-06T12:36:44Z</time>
      </trkpt>
      <trkpt lat="60.531" lon="7.54614">
        <ele>1403.66</ele>
        <time>2019-04-06T12:36:47Z</time>
      </trkpt>
      <trkpt lat="60.53114" lon="7.54606">
        <ele>1403.66</ele>
        <time>2019-04-06T12:36:51Z</time>
      </trkpt>
      <trkpt lat="60.53121" lon="7.54598">
        <ele>1403.66</ele>
        <time>2019-04-06T12:36:53Z</time>
      </trkpt>
      <trkpt lat="60.53131" lon="7.54584">
        <ele>1403.66</ele>
        <time>2019-04-06T12:36:56Z</time>
      </trkpt>
      <trkpt lat="60.53151" lon="7.54552">
        <ele>1402.22</ele>
        <time>2019-04-06T12:37:02Z</time>
      </trkpt>
      <trkpt lat="60.53165" lon="7.54531">
        <ele>1399.34</ele>
        <time>2019-04-06T12:37:05Z</time>
      </trkpt>
      <trkpt lat="60.53219" lon="7.54455">
        <ele>1397.89</ele>
        <time>2019-04-06T12:37:16Z</time>
      </trkpt>
      <trkpt lat="60.53228" lon="7.54444">
        <ele>1397.89</ele>
        <time>2019-04-06T12:37:18Z</time>
      </trkpt>
      <trkpt lat="60.5325" lon="7.54411">
        <ele>1396.45</ele>
        <time>2019-04-06T12:37:24Z</time>
      </trkpt>
      <trkpt lat="60.53265" lon="7.54383">
        <ele>1394.05</ele>
        <time>2019-04-06T12:37:28Z</time>
      </trkpt>
      <trkpt lat="60.53278" lon="7.54372">
        <ele>1393.09</ele>
        <time>2019-04-06T12:37:30Z</time>
      </trkpt>
      <trkpt lat="60.53301" lon="7.54351">
        <ele>1385.88</ele>
        <time>2019-04-06T12:37:33Z</time>
      </trkpt>
      <trkpt lat="60.53318" lon="7.54332">
        <ele>1382.03</ele>
        <time>2019-04-06T12:37:35Z</time>
      </trkpt>
      <trkpt lat="60.5337" lon="7.54278">
        <ele>1378.67</ele>
        <time>2019-04-06T12:37:42Z</time>
      </trkpt>
      <trkpt lat="60.53406" lon="7.54248">
        <ele>1376.26</ele>
        <time>2019-04-06T12:37:47Z</time>
      </trkpt>
      <trkpt lat="60.5342" lon="7.54236">
        <ele>1376.26</ele>
        <time>2019-04-06T12:37:49Z</time>
      </trkpt>
      <trkpt lat="60.53444" lon="7.54219">
        <ele>1378.19</ele>
        <time>2019-04-06T12:37:53Z</time>
      </trkpt>
      <trkpt lat="60.53482" lon="7.54194">
        <ele>1378.19</ele>
        <time>2019-04-06T12:37:59Z</time>
      </trkpt>
      <trkpt lat="60.53504" lon="7.54173">
        <ele>1379.15</ele>
        <time>2019-04-06T12:38:03Z</time>
      </trkpt>
      <trkpt lat="60.53521" lon="7.54163">
        <ele>1379.63</ele>
        <time>2019-04-06T12:38:06Z</time>
      </trkpt>
      <trkpt lat="60.53545" lon="7.54148">
        <ele>1379.63</ele>
        <time>2019-04-06T12:38:10Z</time>
      </trkpt>
      <trkpt lat="60.53559" lon="7.54135">
        <ele>1379.63</ele>
        <time>2019-04-06T12:38:13Z</time>
      </trkpt>
      <trkpt lat="60.53586" lon="7.54116">
        <ele>1379.63</ele>
        <time>2019-04-06T12:38:18Z</time>
      </trkpt>
      <trkpt lat="60.536" lon="7.54103">
        <ele>1379.63</ele>
        <time>2019-04-06T12:38:21Z</time>
      </trkpt>
      <trkpt lat="60.53626" lon="7.54079">
        <ele>1380.59</ele>
        <time>2019-04-06T12:38:27Z</time>
      </trkpt>
      <trkpt lat="60.53624" lon="7.54084">
        <ele>1382.99</ele>
        <time>2019-04-06T12:38:34Z</time>
      </trkpt>
      <trkpt lat="60.53615" lon="7.54077">
        <ele>1383.47</ele>
        <time>2019-04-06T12:38:36Z</time>
      </trkpt>
      <trkpt lat="60.53594" lon="7.54056">
        <ele>1384.92</ele>
        <time>2019-04-06T12:38:40Z</time>
      </trkpt>
      <trkpt lat="60.53541" lon="7.53987">
        <ele>1384.92</ele>
        <time>2019-04-06T12:38:51Z</time>
      </trkpt>
      <trkpt lat="60.53527" lon="7.53971">
        <ele>1384.44</ele>
        <time>2019-04-06T12:38:54Z</time>
      </trkpt>
      <trkpt lat="60.53516" lon="7.53958">
        <ele>1384.44</ele>
        <time>2019-04-06T12:38:56Z</time>
      </trkpt>
      <trkpt lat="60.53493" lon="7.53938">
        <ele>1384.44</ele>
        <time>2019-04-06T12:39:00Z</time>
      </trkpt>
      <trkpt lat="60.53448" lon="7.5389">
        <ele>1384.92</ele>
        <time>2019-04-06T12:39:08Z</time>
      </trkpt>
      <trkpt lat="60.53437" lon="7.53907">
        <ele>1382.03</ele>
        <time>2019-04-06T12:39:12Z</time>
      </trkpt>
      <trkpt lat="60.53454" lon="7.53911">
        <ele>1379.15</ele>
        <time>2019-04-06T12:39:16Z</time>
      </trkpt>
      <trkpt lat="60.53465" lon="7.53902">
        <ele>1377.71</ele>
        <time>2019-04-06T12:39:18Z</time>
      </trkpt>
      <trkpt lat="60.5347" lon="7.53896">
        <ele>1377.23</ele>
        <time>2019-04-06T12:39:19Z</time>
      </trkpt>
      <trkpt lat="60.53487" lon="7.53876">
        <ele>1378.67</ele>
        <time>2019-04-06T12:39:23Z</time>
      </trkpt>
      <trkpt lat="60.53501" lon="7.53862">
        <ele>1378.67</ele>
        <time>2019-04-06T12:39:26Z</time>
      </trkpt>
      <trkpt lat="60.53543" lon="7.53815">
        <ele>1378.67</ele>
        <time>2019-04-06T12:39:35Z</time>
      </trkpt>
      <trkpt lat="60.53551" lon="7.53807">
        <ele>1379.15</ele>
        <time>2019-04-06T12:39:37Z</time>
      </trkpt>
      <trkpt lat="60.5356" lon="7.53798">
        <ele>1379.15</ele>
        <time>2019-04-06T12:39:39Z</time>
      </trkpt>
      <trkpt lat="60.53613" lon="7.53751">
        <ele>1377.71</ele>
        <time>2019-04-06T12:39:49Z</time>
      </trkpt>
      <trkpt lat="60.53628" lon="7.53738">
        <ele>1379.15</ele>
        <time>2019-04-06T12:39:52Z</time>
      </trkpt>
      <trkpt lat="60.53646" lon="7.53719">
        <ele>1380.11</ele>
        <time>2019-04-06T12:39:56Z</time>
      </trkpt>
      <trkpt lat="60.53673" lon="7.53694">
        <ele>1380.11</ele>
        <time>2019-04-06T12:40:02Z</time>
      </trkpt>
      <trkpt lat="60.53708" lon="7.53665">
        <ele>1378.67</ele>
        <time>2019-04-06T12:40:09Z</time>
      </trkpt>
      <trkpt lat="60.53739" lon="7.53642">
        <ele>1379.63</ele>
        <time>2019-04-06T12:40:15Z</time>
      </trkpt>
      <trkpt lat="60.53753" lon="7.53632">
        <ele>1379.63</ele>
        <time>2019-04-06T12:40:18Z</time>
      </trkpt>
      <trkpt lat="60.53784" lon="7.53612">
        <ele>1378.67</ele>
        <time>2019-04-06T12:40:24Z</time>
      </trkpt>
      <trkpt lat="60.5379" lon="7.53609">
        <ele>1378.67</ele>
        <time>2019-04-06T12:40:25Z</time>
      </trkpt>
      <trkpt lat="60.53826" lon="7.53582">
        <ele>1380.11</ele>
        <time>2019-04-06T12:40:32Z</time>
      </trkpt>
      <trkpt lat="60.5385" lon="7.53556">
        <ele>1380.11</ele>
        <time>2019-04-06T12:40:38Z</time>
      </trkpt>
      <trkpt lat="60.53866" lon="7.53539">
        <ele>1380.11</ele>
        <time>2019-04-06T12:40:42Z</time>
      </trkpt>
      <trkpt lat="60.53889" lon="7.53525">
        <ele>1382.03</ele>
        <time>2019-04-06T12:40:50Z</time>
      </trkpt>
      <trkpt lat="60.53868" lon="7.53515">
        <ele>1383.47</ele>
        <time>2019-04-06T12:40:55Z</time>
      </trkpt>
      <trkpt lat="60.53853" lon="7.535">
        <ele>1385.4</ele>
        <time>2019-04-06T12:40:58Z</time>
      </trkpt>
      <trkpt lat="60.53833" lon="7.53477">
        <ele>1385.4</ele>
        <time>2019-04-06T12:41:02Z</time>
      </trkpt>
      <trkpt lat="60.53817" lon="7.53452">
        <ele>1386.84</ele>
        <time>2019-04-06T12:41:06Z</time>
      </trkpt>
      <trkpt lat="60.53803" lon="7.53425">
        <ele>1386.84</ele>
        <time>2019-04-06T12:41:11Z</time>
      </trkpt>
      <trkpt lat="60.53779" lon="7.53365">
        <ele>1385.88</ele>
        <time>2019-04-06T12:41:23Z</time>
      </trkpt>
      <trkpt lat="60.53776" lon="7.53362">
        <ele>1385.88</ele>
        <time>2019-04-06T12:41:24Z</time>
      </trkpt>
      <trkpt lat="60.53773" lon="7.53359">
        <ele>1385.88</ele>
        <time>2019-04-06T12:41:25Z</time>
      </trkpt>
      <trkpt lat="60.5376" lon="7.53335">
        <ele>1385.88</ele>
        <time>2019-04-06T12:41:30Z</time>
      </trkpt>
      <trkpt lat="60.53742" lon="7.53299">
        <ele>1386.84</ele>
        <time>2019-04-06T12:41:38Z</time>
      </trkpt>
      <trkpt lat="60.53748" lon="7.53306">
        <ele>1383.47</ele>
        <time>2019-04-06T12:41:44Z</time>
      </trkpt>
      <trkpt lat="60.53776" lon="7.53295">
        <ele>1381.07</ele>
        <time>2019-04-06T12:41:50Z</time>
      </trkpt>
      <trkpt lat="60.53831" lon="7.53276">
        <ele>1377.23</ele>
        <time>2019-04-06T12:41:59Z</time>
      </trkpt>
      <trkpt lat="60.53856" lon="7.53268">
        <ele>1375.78</ele>
        <time>2019-04-06T12:42:02Z</time>
      </trkpt>
      <trkpt lat="60.53878" lon="7.53257">
        <ele>1377.71</ele>
        <time>2019-04-06T12:42:05Z</time>
      </trkpt>
      <trkpt lat="60.53892" lon="7.53255">
        <ele>1378.67</ele>
        <time>2019-04-06T12:42:07Z</time>
      </trkpt>
      <trkpt lat="60.53939" lon="7.5326">
        <ele>1377.23</ele>
        <time>2019-04-06T12:42:13Z</time>
      </trkpt>
      <trkpt lat="60.53971" lon="7.53267">
        <ele>1379.15</ele>
        <time>2019-04-06T12:42:17Z</time>
      </trkpt>
      <trkpt lat="60.54015" lon="7.53271">
        <ele>1382.51</ele>
        <time>2019-04-06T12:42:23Z</time>
      </trkpt>
      <trkpt lat="60.54031" lon="7.53272">
        <ele>1385.88</ele>
        <time>2019-04-06T12:42:26Z</time>
      </trkpt>
      <trkpt lat="60.54042" lon="7.53276">
        <ele>1386.36</ele>
        <time>2019-04-06T12:42:28Z</time>
      </trkpt>
      <trkpt lat="60.54058" lon="7.53279">
        <ele>1387.8</ele>
        <time>2019-04-06T12:42:31Z</time>
      </trkpt>
      <trkpt lat="60.54065" lon="7.53279">
        <ele>1387.8</ele>
        <time>2019-04-06T12:42:32Z</time>
      </trkpt>
      <trkpt lat="60.54086" lon="7.53282">
        <ele>1387.8</ele>
        <time>2019-04-06T12:42:35Z</time>
      </trkpt>
      <trkpt lat="60.54111" lon="7.53286">
        <ele>1385.4</ele>
        <time>2019-04-06T12:42:38Z</time>
      </trkpt>
      <trkpt lat="60.54127" lon="7.53287">
        <ele>1385.4</ele>
        <time>2019-04-06T12:42:40Z</time>
      </trkpt>
      <trkpt lat="60.54151" lon="7.5329">
        <ele>1384.92</ele>
        <time>2019-04-06T12:42:43Z</time>
      </trkpt>
      <trkpt lat="60.54189" lon="7.5329">
        <ele>1386.36</ele>
        <time>2019-04-06T12:42:48Z</time>
      </trkpt>
      <trkpt lat="60.54197" lon="7.53291">
        <ele>1388.28</ele>
        <time>2019-04-06T12:42:50Z</time>
      </trkpt>
      <trkpt lat="60.54202" lon="7.53295">
        <ele>1389.72</ele>
        <time>2019-04-06T12:42:53Z</time>
      </trkpt>
      <trkpt lat="60.54211" lon="7.53314">
        <ele>1390.2</ele>
        <time>2019-04-06T12:42:59Z</time>
      </trkpt>
      <trkpt lat="60.54215" lon="7.53316">
        <ele>1391.65</ele>
        <time>2019-04-06T12:43:03Z</time>
      </trkpt>
      <trkpt lat="60.54233" lon="7.53344">
        <ele>1392.61</ele>
        <time>2019-04-06T12:43:12Z</time>
      </trkpt>
      <trkpt lat="60.54241" lon="7.53358">
        <ele>1393.09</ele>
        <time>2019-04-06T12:43:15Z</time>
      </trkpt>
      <trkpt lat="60.54263" lon="7.53391">
        <ele>1395.01</ele>
        <time>2019-04-06T12:43:24Z</time>
      </trkpt>
      <trkpt lat="60.54282" lon="7.53413">
        <ele>1396.45</ele>
        <time>2019-04-06T12:43:32Z</time>
      </trkpt>
      <trkpt lat="60.54294" lon="7.53424">
        <ele>1396.45</ele>
        <time>2019-04-06T12:43:38Z</time>
      </trkpt>
      <trkpt lat="60.54302" lon="7.53432">
        <ele>1397.41</ele>
        <time>2019-04-06T12:43:43Z</time>
      </trkpt>
      <trkpt lat="60.54329" lon="7.53435">
        <ele>1396.45</ele>
        <time>2019-04-06T12:43:52Z</time>
      </trkpt>
      <trkpt lat="60.54347" lon="7.53426">
        <ele>1395.49</ele>
        <time>2019-04-06T12:43:56Z</time>
      </trkpt>
      <trkpt lat="60.54357" lon="7.53417">
        <ele>1395.01</ele>
        <time>2019-04-06T12:43:58Z</time>
      </trkpt>
      <trkpt lat="60.54378" lon="7.53403">
        <ele>1394.05</ele>
        <time>2019-04-06T12:44:02Z</time>
      </trkpt>
      <trkpt lat="60.54394" lon="7.53396">
        <ele>1393.09</ele>
        <time>2019-04-06T12:44:05Z</time>
      </trkpt>
      <trkpt lat="60.54412" lon="7.53386">
        <ele>1391.17</ele>
        <time>2019-04-06T12:44:08Z</time>
      </trkpt>
      <trkpt lat="60.54424" lon="7.53376">
        <ele>1391.17</ele>
        <time>2019-04-06T12:44:10Z</time>
      </trkpt>
      <trkpt lat="60.54446" lon="7.53369">
        <ele>1391.17</ele>
        <time>2019-04-06T12:44:14Z</time>
      </trkpt>
      <trkpt lat="60.54456" lon="7.53367">
        <ele>1390.2</ele>
        <time>2019-04-06T12:44:16Z</time>
      </trkpt>
      <trkpt lat="60.54467" lon="7.53371">
        <ele>1389.72</ele>
        <time>2019-04-06T12:44:18Z</time>
      </trkpt>
      <trkpt lat="60.5449" lon="7.53372">
        <ele>1386.84</ele>
        <time>2019-04-06T12:44:22Z</time>
      </trkpt>
      <trkpt lat="60.54497" lon="7.53372">
        <ele>1386.36</ele>
        <time>2019-04-06T12:44:23Z</time>
      </trkpt>
      <trkpt lat="60.54531" lon="7.53363">
        <ele>1382.03</ele>
        <time>2019-04-06T12:44:28Z</time>
      </trkpt>
      <trkpt lat="60.5455" lon="7.53355">
        <ele>1381.55</ele>
        <time>2019-04-06T12:44:31Z</time>
      </trkpt>
      <trkpt lat="60.54563" lon="7.53353">
        <ele>1385.4</ele>
        <time>2019-04-06T12:44:35Z</time>
      </trkpt>
      <trkpt lat="60.54568" lon="7.53354">
        <ele>1385.4</ele>
        <time>2019-04-06T12:44:37Z</time>
      </trkpt>
      <trkpt lat="60.5457" lon="7.53357">
        <ele>1386.84</ele>
        <time>2019-04-06T12:44:40Z</time>
      </trkpt>
      <trkpt lat="60.54573" lon="7.53363">
        <ele>1386.84</ele>
        <time>2019-04-06T12:44:43Z</time>
      </trkpt>
      <trkpt lat="60.54578" lon="7.53369">
        <ele>1386.84</ele>
        <time>2019-04-06T12:44:45Z</time>
      </trkpt>
      <trkpt lat="60.54637" lon="7.53358">
        <ele>1381.55</ele>
        <time>2019-04-06T12:44:56Z</time>
      </trkpt>
      <trkpt lat="60.54663" lon="7.53353">
        <ele>1380.59</ele>
        <time>2019-04-06T12:45:00Z</time>
      </trkpt>
      <trkpt lat="60.54688" lon="7.53348">
        <ele>1380.59</ele>
        <time>2019-04-06T12:45:05Z</time>
      </trkpt>
      <trkpt lat="60.54714" lon="7.53348">
        <ele>1377.23</ele>
        <time>2019-04-06T12:45:11Z</time>
      </trkpt>
      <trkpt lat="60.54717" lon="7.53346">
        <ele>1377.23</ele>
        <time>2019-04-06T12:45:12Z</time>
      </trkpt>
      <trkpt lat="60.54737" lon="7.53342">
        <ele>1374.34</ele>
        <time>2019-04-06T12:45:16Z</time>
      </trkpt>
      <trkpt lat="60.54748" lon="7.53342">
        <ele>1371.94</ele>
        <time>2019-04-06T12:45:18Z</time>
      </trkpt>
      <trkpt lat="60.54758" lon="7.53341">
        <ele>1372.42</ele>
        <time>2019-04-06T12:45:20Z</time>
      </trkpt>
      <trkpt lat="60.5478" lon="7.53336">
        <ele>1370.98</ele>
        <time>2019-04-06T12:45:24Z</time>
      </trkpt>
      <trkpt lat="60.54798" lon="7.53322">
        <ele>1365.21</ele>
        <time>2019-04-06T12:45:27Z</time>
      </trkpt>
      <trkpt lat="60.54804" lon="7.53316">
        <ele>1364.73</ele>
        <time>2019-04-06T12:45:28Z</time>
      </trkpt>
      <trkpt lat="60.54825" lon="7.53299">
        <ele>1366.65</ele>
        <time>2019-04-06T12:45:32Z</time>
      </trkpt>
      <trkpt lat="60.54834" lon="7.53289">
        <ele>1365.21</ele>
        <time>2019-04-06T12:45:34Z</time>
      </trkpt>
      <trkpt lat="60.54855" lon="7.5327">
        <ele>1362.33</ele>
        <time>2019-04-06T12:45:38Z</time>
      </trkpt>
      <trkpt lat="60.5486" lon="7.53264">
        <ele>1362.33</ele>
        <time>2019-04-06T12:45:39Z</time>
      </trkpt>
      <trkpt lat="60.54874" lon="7.53249">
        <ele>1362.81</ele>
        <time>2019-04-06T12:45:42Z</time>
      </trkpt>
      <trkpt lat="60.54889" lon="7.5324">
        <ele>1360.88</ele>
        <time>2019-04-06T12:45:45Z</time>
      </trkpt>
      <trkpt lat="60.54911" lon="7.53221">
        <ele>1359.44</ele>
        <time>2019-04-06T12:45:49Z</time>
      </trkpt>
      <trkpt lat="60.54931" lon="7.53202">
        <ele>1358.96</ele>
        <time>2019-04-06T12:45:53Z</time>
      </trkpt>
      <trkpt lat="60.54949" lon="7.53192">
        <ele>1355.6</ele>
        <time>2019-04-06T12:45:56Z</time>
      </trkpt>
      <trkpt lat="60.54955" lon="7.53189">
        <ele>1355.6</ele>
        <time>2019-04-06T12:45:57Z</time>
      </trkpt>
      <trkpt lat="60.54983" lon="7.53179">
        <ele>1352.23</ele>
        <time>2019-04-06T12:46:02Z</time>
      </trkpt>
      <trkpt lat="60.54989" lon="7.53179">
        <ele>1352.23</ele>
        <time>2019-04-06T12:46:03Z</time>
      </trkpt>
      <trkpt lat="60.54995" lon="7.53178">
        <ele>1352.23</ele>
        <time>2019-04-06T12:46:04Z</time>
      </trkpt>
      <trkpt lat="60.55041" lon="7.53164">
        <ele>1348.87</ele>
        <time>2019-04-06T12:46:10Z</time>
      </trkpt>
      <trkpt lat="60.55067" lon="7.53155">
        <ele>1345.98</ele>
        <time>2019-04-06T12:46:13Z</time>
      </trkpt>
      <trkpt lat="60.55082" lon="7.53155">
        <ele>1345.5</ele>
        <time>2019-04-06T12:46:15Z</time>
      </trkpt>
      <trkpt lat="60.55115" lon="7.53155">
        <ele>1343.1</ele>
        <time>2019-04-06T12:46:19Z</time>
      </trkpt>
      <trkpt lat="60.55143" lon="7.53154">
        <ele>1343.1</ele>
        <time>2019-04-06T12:46:23Z</time>
      </trkpt>
      <trkpt lat="60.55172" lon="7.53157">
        <ele>1343.1</ele>
        <time>2019-04-06T12:46:27Z</time>
      </trkpt>
      <trkpt lat="60.55201" lon="7.53158">
        <ele>1341.18</ele>
        <time>2019-04-06T12:46:31Z</time>
      </trkpt>
      <trkpt lat="60.55222" lon="7.53153">
        <ele>1343.1</ele>
        <time>2019-04-06T12:46:34Z</time>
      </trkpt>
      <trkpt lat="60.55234" lon="7.53149">
        <ele>1341.18</ele>
        <time>2019-04-06T12:46:36Z</time>
      </trkpt>
      <trkpt lat="60.55249" lon="7.53151">
        <ele>1344.06</ele>
        <time>2019-04-06T12:46:39Z</time>
      </trkpt>
      <trkpt lat="60.55272" lon="7.53153">
        <ele>1342.14</ele>
        <time>2019-04-06T12:46:43Z</time>
      </trkpt>
      <trkpt lat="60.55278" lon="7.53153">
        <ele>1342.14</ele>
        <time>2019-04-06T12:46:44Z</time>
      </trkpt>
      <trkpt lat="60.55303" lon="7.53152">
        <ele>1341.18</ele>
        <time>2019-04-06T12:46:48Z</time>
      </trkpt>
      <trkpt lat="60.55328" lon="7.53144">
        <ele>1343.1</ele>
        <time>2019-04-06T12:46:53Z</time>
      </trkpt>
      <trkpt lat="60.55343" lon="7.53138">
        <ele>1343.1</ele>
        <time>2019-04-06T12:46:56Z</time>
      </trkpt>
      <trkpt lat="60.55371" lon="7.53129">
        <ele>1340.7</ele>
        <time>2019-04-06T12:47:02Z</time>
      </trkpt>
      <trkpt lat="60.55414" lon="7.53096">
        <ele>1338.77</ele>
        <time>2019-04-06T12:47:09Z</time>
      </trkpt>
      <trkpt lat="60.55425" lon="7.53086">
        <ele>1334.93</ele>
        <time>2019-04-06T12:47:11Z</time>
      </trkpt>
      <trkpt lat="60.55442" lon="7.5307">
        <ele>1331.08</ele>
        <time>2019-04-06T12:47:14Z</time>
      </trkpt>
      <trkpt lat="60.55449" lon="7.53065">
        <ele>1331.08</ele>
        <time>2019-04-06T12:47:15Z</time>
      </trkpt>
      <trkpt lat="60.55462" lon="7.53054">
        <ele>1329.16</ele>
        <time>2019-04-06T12:47:17Z</time>
      </trkpt>
      <trkpt lat="60.55481" lon="7.53038">
        <ele>1328.2</ele>
        <time>2019-04-06T12:47:20Z</time>
      </trkpt>
      <trkpt lat="60.55514" lon="7.53012">
        <ele>1327.24</ele>
        <time>2019-04-06T12:47:27Z</time>
      </trkpt>
      <trkpt lat="60.55528" lon="7.53006">
        <ele>1328.68</ele>
        <time>2019-04-06T12:47:30Z</time>
      </trkpt>
      <trkpt lat="60.5555" lon="7.52997">
        <ele>1326.76</ele>
        <time>2019-04-06T12:47:34Z</time>
      </trkpt>
      <trkpt lat="60.55592" lon="7.52989">
        <ele>1326.28</ele>
        <time>2019-04-06T12:47:41Z</time>
      </trkpt>
      <trkpt lat="60.55613" lon="7.52989">
        <ele>1324.35</ele>
        <time>2019-04-06T12:47:45Z</time>
      </trkpt>
      <trkpt lat="60.55617" lon="7.52993">
        <ele>1327.72</ele>
        <time>2019-04-06T12:47:46Z</time>
      </trkpt>
      <trkpt lat="60.55617" lon="7.52997">
        <ele>1329.16</ele>
        <time>2019-04-06T12:47:49Z</time>
      </trkpt>
      <trkpt lat="60.55616" lon="7.53002">
        <ele>1329.16</ele>
        <time>2019-04-06T12:47:53Z</time>
      </trkpt>
      <trkpt lat="60.55607" lon="7.53007">
        <ele>1329.16</ele>
        <time>2019-04-06T12:47:59Z</time>
      </trkpt>
      <trkpt lat="60.55611" lon="7.53026">
        <ele>1326.76</ele>
        <time>2019-04-06T12:48:04Z</time>
      </trkpt>
      <trkpt lat="60.55617" lon="7.53029">
        <ele>1326.28</ele>
        <time>2019-04-06T12:48:06Z</time>
      </trkpt>
      <trkpt lat="60.55626" lon="7.53032">
        <ele>1324.83</ele>
        <time>2019-04-06T12:48:08Z</time>
      </trkpt>
      <trkpt lat="60.55636" lon="7.53035">
        <ele>1326.28</ele>
        <time>2019-04-06T12:48:10Z</time>
      </trkpt>
      <trkpt lat="60.55667" lon="7.53045">
        <ele>1326.28</ele>
        <time>2019-04-06T12:48:16Z</time>
      </trkpt>
      <trkpt lat="60.55683" lon="7.53055">
        <ele>1325.31</ele>
        <time>2019-04-06T12:48:19Z</time>
      </trkpt>
      <trkpt lat="60.55696" lon="7.53063">
        <ele>1325.31</ele>
        <time>2019-04-06T12:48:21Z</time>
      </trkpt>
      <trkpt lat="60.55734" lon="7.53085">
        <ele>1325.8</ele>
        <time>2019-04-06T12:48:27Z</time>
      </trkpt>
      <trkpt lat="60.55748" lon="7.53095">
        <ele>1324.35</ele>
        <time>2019-04-06T12:48:29Z</time>
      </trkpt>
      <trkpt lat="60.55769" lon="7.53107">
        <ele>1324.35</ele>
        <time>2019-04-06T12:48:32Z</time>
      </trkpt>
      <trkpt lat="60.55797" lon="7.53115">
        <ele>1324.35</ele>
        <time>2019-04-06T12:48:36Z</time>
      </trkpt>
      <trkpt lat="60.55811" lon="7.53119">
        <ele>1325.8</ele>
        <time>2019-04-06T12:48:38Z</time>
      </trkpt>
      <trkpt lat="60.55846" lon="7.53134">
        <ele>1322.43</ele>
        <time>2019-04-06T12:48:43Z</time>
      </trkpt>
      <trkpt lat="60.55873" lon="7.53147">
        <ele>1324.83</ele>
        <time>2019-04-06T12:48:47Z</time>
      </trkpt>
      <trkpt lat="60.55891" lon="7.53161">
        <ele>1324.35</ele>
        <time>2019-04-06T12:48:50Z</time>
      </trkpt>
      <trkpt lat="60.55914" lon="7.53174">
        <ele>1322.91</ele>
        <time>2019-04-06T12:48:53Z</time>
      </trkpt>
      <trkpt lat="60.55922" lon="7.53178">
        <ele>1322.91</ele>
        <time>2019-04-06T12:48:54Z</time>
      </trkpt>
      <trkpt lat="60.55958" lon="7.53196">
        <ele>1323.87</ele>
        <time>2019-04-06T12:48:59Z</time>
      </trkpt>
      <trkpt lat="60.55976" lon="7.53203">
        <ele>1325.31</ele>
        <time>2019-04-06T12:49:02Z</time>
      </trkpt>
      <trkpt lat="60.55989" lon="7.53205">
        <ele>1325.31</ele>
        <time>2019-04-06T12:49:04Z</time>
      </trkpt>
      <trkpt lat="60.56023" lon="7.532">
        <ele>1329.16</ele>
        <time>2019-04-06T12:49:11Z</time>
      </trkpt>
      <trkpt lat="60.56027" lon="7.532">
        <ele>1329.16</ele>
        <time>2019-04-06T12:49:12Z</time>
      </trkpt>
      <trkpt lat="60.56038" lon="7.53201">
        <ele>1329.64</ele>
        <time>2019-04-06T12:49:15Z</time>
      </trkpt>
      <trkpt lat="60.5605" lon="7.53196">
        <ele>1328.2</ele>
        <time>2019-04-06T12:49:18Z</time>
      </trkpt>
      <trkpt lat="60.56091" lon="7.53163">
        <ele>1324.83</ele>
        <time>2019-04-06T12:49:27Z</time>
      </trkpt>
      <trkpt lat="60.56117" lon="7.53138">
        <ele>1325.31</ele>
        <time>2019-04-06T12:49:32Z</time>
      </trkpt>
      <trkpt lat="60.56146" lon="7.53114">
        <ele>1326.76</ele>
        <time>2019-04-06T12:49:40Z</time>
      </trkpt>
      <trkpt lat="60.5616" lon="7.53091">
        <ele>1325.31</ele>
        <time>2019-04-06T12:49:46Z</time>
      </trkpt>
      <trkpt lat="60.56166" lon="7.53081">
        <ele>1324.83</ele>
        <time>2019-04-06T12:49:48Z</time>
      </trkpt>
      <trkpt lat="60.56189" lon="7.53038">
        <ele>1323.39</ele>
        <time>2019-04-06T12:49:57Z</time>
      </trkpt>
      <trkpt lat="60.56195" lon="7.53029">
        <ele>1322.91</ele>
        <time>2019-04-06T12:49:59Z</time>
      </trkpt>
      <trkpt lat="60.56226" lon="7.52982">
        <ele>1320.51</ele>
        <time>2019-04-06T12:50:08Z</time>
      </trkpt>
      <trkpt lat="60.56248" lon="7.52962">
        <ele>1318.59</ele>
        <time>2019-04-06T12:50:12Z</time>
      </trkpt>
      <trkpt lat="60.56265" lon="7.52956">
        <ele>1318.1</ele>
        <time>2019-04-06T12:50:15Z</time>
      </trkpt>
      <trkpt lat="60.56334" lon="7.52927">
        <ele>1317.62</ele>
        <time>2019-04-06T12:50:26Z</time>
      </trkpt>
      <trkpt lat="60.5636" lon="7.52902">
        <ele>1318.1</ele>
        <time>2019-04-06T12:50:31Z</time>
      </trkpt>
      <trkpt lat="60.56379" lon="7.52879">
        <ele>1319.55</ele>
        <time>2019-04-06T12:50:35Z</time>
      </trkpt>
      <trkpt lat="60.56387" lon="7.52869">
        <ele>1320.51</ele>
        <time>2019-04-06T12:50:37Z</time>
      </trkpt>
      <trkpt lat="60.56408" lon="7.52842">
        <ele>1316.18</ele>
        <time>2019-04-06T12:50:42Z</time>
      </trkpt>
      <trkpt lat="60.56419" lon="7.5283">
        <ele>1315.22</ele>
        <time>2019-04-06T12:50:44Z</time>
      </trkpt>
      <trkpt lat="60.56444" lon="7.52804">
        <ele>1312.82</ele>
        <time>2019-04-06T12:50:49Z</time>
      </trkpt>
      <trkpt lat="60.56453" lon="7.52791">
        <ele>1312.34</ele>
        <time>2019-04-06T12:50:51Z</time>
      </trkpt>
      <trkpt lat="60.56471" lon="7.52777">
        <ele>1312.34</ele>
        <time>2019-04-06T12:50:54Z</time>
      </trkpt>
      <trkpt lat="60.56499" lon="7.52759">
        <ele>1307.05</ele>
        <time>2019-04-06T12:50:58Z</time>
      </trkpt>
      <trkpt lat="60.56532" lon="7.52742">
        <ele>1307.05</ele>
        <time>2019-04-06T12:51:03Z</time>
      </trkpt>
      <trkpt lat="60.56568" lon="7.52726">
        <ele>1309.93</ele>
        <time>2019-04-06T12:51:10Z</time>
      </trkpt>
      <trkpt lat="60.56604" lon="7.52699">
        <ele>1310.9</ele>
        <time>2019-04-06T12:51:18Z</time>
      </trkpt>
      <trkpt lat="60.56628" lon="7.52687">
        <ele>1310.9</ele>
        <time>2019-04-06T12:51:24Z</time>
      </trkpt>
      <trkpt lat="60.56646" lon="7.52677">
        <ele>1308.97</ele>
        <time>2019-04-06T12:51:28Z</time>
      </trkpt>
      <trkpt lat="60.5667" lon="7.52645">
        <ele>1308.01</ele>
        <time>2019-04-06T12:51:36Z</time>
      </trkpt>
      <trkpt lat="60.56672" lon="7.52645">
        <ele>1308.01</ele>
        <time>2019-04-06T12:51:38Z</time>
      </trkpt>
      <trkpt lat="60.56675" lon="7.52657">
        <ele>1309.45</ele>
        <time>2019-04-06T12:51:41Z</time>
      </trkpt>
      <trkpt lat="60.56671" lon="7.52681">
        <ele>1308.01</ele>
        <time>2019-04-06T12:51:45Z</time>
      </trkpt>
      <trkpt lat="60.56666" lon="7.52722">
        <ele>1306.09</ele>
        <time>2019-04-06T12:51:57Z</time>
      </trkpt>
      <trkpt lat="60.5668" lon="7.52759">
        <ele>1301.76</ele>
        <time>2019-04-06T12:52:06Z</time>
      </trkpt>
      <trkpt lat="60.56696" lon="7.52761">
        <ele>1297.44</ele>
        <time>2019-04-06T12:52:10Z</time>
      </trkpt>
      <trkpt lat="60.56703" lon="7.52759">
        <ele>1296.48</ele>
        <time>2019-04-06T12:52:12Z</time>
      </trkpt>
      <trkpt lat="60.56716" lon="7.52753">
        <ele>1293.11</ele>
        <time>2019-04-06T12:52:15Z</time>
      </trkpt>
      <trkpt lat="60.56726" lon="7.52747">
        <ele>1290.23</ele>
        <time>2019-04-06T12:52:17Z</time>
      </trkpt>
      <trkpt lat="60.56731" lon="7.52743">
        <ele>1288.3</ele>
        <time>2019-04-06T12:52:18Z</time>
      </trkpt>
      <trkpt lat="60.5675" lon="7.52729">
        <ele>1283.02</ele>
        <time>2019-04-06T12:52:21Z</time>
      </trkpt>
      <trkpt lat="60.56764" lon="7.52715">
        <ele>1279.17</ele>
        <time>2019-04-06T12:52:23Z</time>
      </trkpt>
      <trkpt lat="60.56792" lon="7.52688">
        <ele>1275.81</ele>
        <time>2019-04-06T12:52:27Z</time>
      </trkpt>
      <trkpt lat="60.56805" lon="7.52679">
        <ele>1275.81</ele>
        <time>2019-04-06T12:52:29Z</time>
      </trkpt>
      <trkpt lat="60.56814" lon="7.52675">
        <ele>1277.73</ele>
        <time>2019-04-06T12:52:31Z</time>
      </trkpt>
      <trkpt lat="60.5682" lon="7.52674">
        <ele>1281.09</ele>
        <time>2019-04-06T12:52:34Z</time>
      </trkpt>
      <trkpt lat="60.56823" lon="7.52677">
        <ele>1281.57</ele>
        <time>2019-04-06T12:52:36Z</time>
      </trkpt>
      <trkpt lat="60.56837" lon="7.52678">
        <ele>1282.06</ele>
        <time>2019-04-06T12:52:45Z</time>
      </trkpt>
      <trkpt lat="60.56838" lon="7.52679">
        <ele>1282.06</ele>
        <time>2019-04-06T12:52:52Z</time>
      </trkpt>
      <trkpt lat="60.56849" lon="7.52689">
        <ele>1280.61</ele>
        <time>2019-04-06T12:52:57Z</time>
      </trkpt>
      <trkpt lat="60.56861" lon="7.52696">
        <ele>1278.69</ele>
        <time>2019-04-06T12:53:01Z</time>
      </trkpt>
      <trkpt lat="60.56865" lon="7.52694">
        <ele>1278.21</ele>
        <time>2019-04-06T12:53:02Z</time>
      </trkpt>
      <trkpt lat="60.56893" lon="7.52678">
        <ele>1274.85</ele>
        <time>2019-04-06T12:53:09Z</time>
      </trkpt>
      <trkpt lat="60.56917" lon="7.52661">
        <ele>1271</ele>
        <time>2019-04-06T12:53:14Z</time>
      </trkpt>
      <trkpt lat="60.56922" lon="7.52658">
        <ele>1270.04</ele>
        <time>2019-04-06T12:53:15Z</time>
      </trkpt>
      <trkpt lat="60.56942" lon="7.52655">
        <ele>1270.04</ele>
        <time>2019-04-06T12:53:19Z</time>
      </trkpt>
      <trkpt lat="60.56967" lon="7.52681">
        <ele>1268.12</ele>
        <time>2019-04-06T12:53:27Z</time>
      </trkpt>
      <trkpt lat="60.56977" lon="7.52691">
        <ele>1266.19</ele>
        <time>2019-04-06T12:53:29Z</time>
      </trkpt>
      <trkpt lat="60.57008" lon="7.52705">
        <ele>1266.19</ele>
        <time>2019-04-06T12:53:35Z</time>
      </trkpt>
      <trkpt lat="60.57029" lon="7.52713">
        <ele>1265.71</ele>
        <time>2019-04-06T12:53:39Z</time>
      </trkpt>
      <trkpt lat="60.57044" lon="7.52722">
        <ele>1265.23</ele>
        <time>2019-04-06T12:53:42Z</time>
      </trkpt>
      <trkpt lat="60.57057" lon="7.52736">
        <ele>1265.23</ele>
        <time>2019-04-06T12:53:45Z</time>
      </trkpt>
      <trkpt lat="60.57075" lon="7.52758">
        <ele>1264.27</ele>
        <time>2019-04-06T12:53:49Z</time>
      </trkpt>
      <trkpt lat="60.57088" lon="7.52777">
        <ele>1263.79</ele>
        <time>2019-04-06T12:53:52Z</time>
      </trkpt>
      <trkpt lat="60.57103" lon="7.52801">
        <ele>1263.79</ele>
        <time>2019-04-06T12:53:56Z</time>
      </trkpt>
      <trkpt lat="60.5711" lon="7.52812">
        <ele>1265.23</ele>
        <time>2019-04-06T12:53:58Z</time>
      </trkpt>
      <trkpt lat="60.57113" lon="7.52817">
        <ele>1265.23</ele>
        <time>2019-04-06T12:53:59Z</time>
      </trkpt>
      <trkpt lat="60.57115" lon="7.52837">
        <ele>1268.6</ele>
        <time>2019-04-06T12:54:06Z</time>
      </trkpt>
      <trkpt lat="60.5711" lon="7.52796">
        <ele>1268.6</ele>
        <time>2019-04-06T12:54:10Z</time>
      </trkpt>
      <trkpt lat="60.57106" lon="7.52661">
        <ele>1268.6</ele>
        <time>2019-04-06T12:54:22Z</time>
      </trkpt>
      <trkpt lat="60.57105" lon="7.52642">
        <ele>1267.16</ele>
        <time>2019-04-06T12:54:24Z</time>
      </trkpt>
      <trkpt lat="60.57106" lon="7.52623">
        <ele>1267.16</ele>
        <time>2019-04-06T12:54:26Z</time>
      </trkpt>
      <trkpt lat="60.57106" lon="7.52604">
        <ele>1266.67</ele>
        <time>2019-04-06T12:54:28Z</time>
      </trkpt>
      <trkpt lat="60.57113" lon="7.52525">
        <ele>1265.71</ele>
        <time>2019-04-06T12:54:37Z</time>
      </trkpt>
      <trkpt lat="60.57117" lon="7.5253">
        <ele>1262.83</ele>
        <time>2019-04-06T12:54:44Z</time>
      </trkpt>
      <trkpt lat="60.57146" lon="7.52563">
        <ele>1263.31</ele>
        <time>2019-04-06T12:54:52Z</time>
      </trkpt>
      <trkpt lat="60.57153" lon="7.52573">
        <ele>1263.31</ele>
        <time>2019-04-06T12:54:54Z</time>
      </trkpt>
      <trkpt lat="60.57185" lon="7.52623">
        <ele>1264.75</ele>
        <time>2019-04-06T12:55:03Z</time>
      </trkpt>
      <trkpt lat="60.57194" lon="7.52642">
        <ele>1265.71</ele>
        <time>2019-04-06T12:55:06Z</time>
      </trkpt>
      <trkpt lat="60.57225" lon="7.52695">
        <ele>1265.71</ele>
        <time>2019-04-06T12:55:14Z</time>
      </trkpt>
      <trkpt lat="60.57243" lon="7.52727">
        <ele>1267.64</ele>
        <time>2019-04-06T12:55:19Z</time>
      </trkpt>
      <trkpt lat="60.57247" lon="7.52734">
        <ele>1267.64</ele>
        <time>2019-04-06T12:55:20Z</time>
      </trkpt>
      <trkpt lat="60.57248" lon="7.52747">
        <ele>1269.56</ele>
        <time>2019-04-06T12:55:24Z</time>
      </trkpt>
      <trkpt lat="60.57243" lon="7.52718">
        <ele>1270.52</ele>
        <time>2019-04-06T12:55:28Z</time>
      </trkpt>
      <trkpt lat="60.57242" lon="7.52684">
        <ele>1270.52</ele>
        <time>2019-04-06T12:55:31Z</time>
      </trkpt>
      <trkpt lat="60.57244" lon="7.52638">
        <ele>1268.6</ele>
        <time>2019-04-06T12:55:35Z</time>
      </trkpt>
      <trkpt lat="60.57245" lon="7.5252">
        <ele>1266.19</ele>
        <time>2019-04-06T12:55:46Z</time>
      </trkpt>
      <trkpt lat="60.57248" lon="7.5244">
        <ele>1265.71</ele>
        <time>2019-04-06T12:55:55Z</time>
      </trkpt>
      <trkpt lat="60.57256" lon="7.5238">
        <ele>1262.35</ele>
        <time>2019-04-06T12:56:01Z</time>
      </trkpt>
      <trkpt lat="60.57257" lon="7.52368">
        <ele>1262.35</ele>
        <time>2019-04-06T12:56:02Z</time>
      </trkpt>
      <trkpt lat="60.57265" lon="7.52286">
        <ele>1258.98</ele>
        <time>2019-04-06T12:56:09Z</time>
      </trkpt>
      <trkpt lat="60.57269" lon="7.52237">
        <ele>1257.54</ele>
        <time>2019-04-06T12:56:13Z</time>
      </trkpt>
      <trkpt lat="60.5727" lon="7.52177">
        <ele>1256.58</ele>
        <time>2019-04-06T12:56:19Z</time>
      </trkpt>
      <trkpt lat="60.57267" lon="7.52123">
        <ele>1256.1</ele>
        <time>2019-04-06T12:56:26Z</time>
      </trkpt>
      <trkpt lat="60.57272" lon="7.52141">
        <ele>1253.22</ele>
        <time>2019-04-06T12:56:33Z</time>
      </trkpt>
      <trkpt lat="60.57294" lon="7.5217">
        <ele>1254.66</ele>
        <time>2019-04-06T12:56:43Z</time>
      </trkpt>
      <trkpt lat="60.57311" lon="7.52181">
        <ele>1253.7</ele>
        <time>2019-04-06T12:56:49Z</time>
      </trkpt>
      <trkpt lat="60.57338" lon="7.52211">
        <ele>1254.66</ele>
        <time>2019-04-06T12:57:00Z</time>
      </trkpt>
      <trkpt lat="60.5734" lon="7.52215">
        <ele>1255.14</ele>
        <time>2019-04-06T12:57:01Z</time>
      </trkpt>
      <trkpt lat="60.57342" lon="7.52219">
        <ele>1255.14</ele>
        <time>2019-04-06T12:57:02Z</time>
      </trkpt>
      <trkpt lat="60.57357" lon="7.52235">
        <ele>1255.14</ele>
        <time>2019-04-06T12:57:08Z</time>
      </trkpt>
      <trkpt lat="60.57367" lon="7.52242">
        <ele>1255.14</ele>
        <time>2019-04-06T12:57:12Z</time>
      </trkpt>
      <trkpt lat="60.5736" lon="7.52233">
        <ele>1256.58</ele>
        <time>2019-04-06T12:57:19Z</time>
      </trkpt>
      <trkpt lat="60.57359" lon="7.52226">
        <ele>1256.58</ele>
        <time>2019-04-06T12:57:20Z</time>
      </trkpt>
      <trkpt lat="60.57346" lon="7.52147">
        <ele>1256.58</ele>
        <time>2019-04-06T12:57:33Z</time>
      </trkpt>
      <trkpt lat="60.57344" lon="7.52134">
        <ele>1255.14</ele>
        <time>2019-04-06T12:57:35Z</time>
      </trkpt>
      <trkpt lat="60.57338" lon="7.52087">
        <ele>1253.7</ele>
        <time>2019-04-06T12:57:43Z</time>
      </trkpt>
      <trkpt lat="60.57335" lon="7.52086">
        <ele>1253.22</ele>
        <time>2019-04-06T12:57:46Z</time>
      </trkpt>
      <trkpt lat="60.57343" lon="7.521">
        <ele>1252.74</ele>
        <time>2019-04-06T12:57:50Z</time>
      </trkpt>
      <trkpt lat="60.57388" lon="7.5212">
        <ele>1251.29</ele>
        <time>2019-04-06T12:58:04Z</time>
      </trkpt>
      <trkpt lat="60.57412" lon="7.52128">
        <ele>1249.85</ele>
        <time>2019-04-06T12:58:11Z</time>
      </trkpt>
      <trkpt lat="60.57418" lon="7.52141">
        <ele>1251.29</ele>
        <time>2019-04-06T12:58:14Z</time>
      </trkpt>
      <trkpt lat="60.57421" lon="7.52165">
        <ele>1252.74</ele>
        <time>2019-04-06T12:58:21Z</time>
      </trkpt>
      <trkpt lat="60.57407" lon="7.5213">
        <ele>1252.74</ele>
        <time>2019-04-06T12:58:26Z</time>
      </trkpt>
      <trkpt lat="60.57403" lon="7.52111">
        <ele>1252.74</ele>
        <time>2019-04-06T12:58:28Z</time>
      </trkpt>
      <trkpt lat="60.57401" lon="7.52046">
        <ele>1251.29</ele>
        <time>2019-04-06T12:58:34Z</time>
      </trkpt>
      <trkpt lat="60.57418" lon="7.51915">
        <ele>1247.93</ele>
        <time>2019-04-06T12:58:48Z</time>
      </trkpt>
      <trkpt lat="60.57426" lon="7.51848">
        <ele>1245.04</ele>
        <time>2019-04-06T12:58:56Z</time>
      </trkpt>
      <trkpt lat="60.57429" lon="7.51812">
        <ele>1244.08</ele>
        <time>2019-04-06T12:59:01Z</time>
      </trkpt>
      <trkpt lat="60.57428" lon="7.51809">
        <ele>1242.64</ele>
        <time>2019-04-06T12:59:04Z</time>
      </trkpt>
      <trkpt lat="60.57428" lon="7.51812">
        <ele>1242.64</ele>
        <time>2019-04-06T12:59:06Z</time>
      </trkpt>
      <trkpt lat="60.57434" lon="7.5183">
        <ele>1243.12</ele>
        <time>2019-04-06T12:59:14Z</time>
      </trkpt>
      <trkpt lat="60.57436" lon="7.51845">
        <ele>1243.6</ele>
        <time>2019-04-06T12:59:19Z</time>
      </trkpt>
      <trkpt lat="60.57436" lon="7.51862">
        <ele>1244.08</ele>
        <time>2019-04-06T12:59:23Z</time>
      </trkpt>
      <trkpt lat="60.57438" lon="7.5187">
        <ele>1244.08</ele>
        <time>2019-04-06T12:59:25Z</time>
      </trkpt>
      <trkpt lat="60.57447" lon="7.51908">
        <ele>1246.49</ele>
        <time>2019-04-06T12:59:34Z</time>
      </trkpt>
      <trkpt lat="60.57449" lon="7.51918">
        <ele>1246.97</ele>
        <time>2019-04-06T12:59:36Z</time>
      </trkpt>
      <trkpt lat="60.5745" lon="7.51933">
        <ele>1246.97</ele>
        <time>2019-04-06T12:59:38Z</time>
      </trkpt>
      <trkpt lat="60.57452" lon="7.51949">
        <ele>1248.41</ele>
        <time>2019-04-06T12:59:41Z</time>
      </trkpt>
      <trkpt lat="60.57453" lon="7.51952">
        <ele>1249.37</ele>
        <time>2019-04-06T12:59:42Z</time>
      </trkpt>
      <trkpt lat="60.57461" lon="7.51966">
        <ele>1249.85</ele>
        <time>2019-04-06T12:59:50Z</time>
      </trkpt>
      <trkpt lat="60.57465" lon="7.51993">
        <ele>1250.33</ele>
        <time>2019-04-06T12:59:57Z</time>
      </trkpt>
      <trkpt lat="60.57466" lon="7.51996">
        <ele>1250.81</ele>
        <time>2019-04-06T12:59:58Z</time>
      </trkpt>
      <trkpt lat="60.57468" lon="7.52015">
        <ele>1251.77</ele>
        <time>2019-04-06T13:00:03Z</time>
      </trkpt>
      <trkpt lat="60.57476" lon="7.5203">
        <ele>1253.22</ele>
        <time>2019-04-06T13:00:08Z</time>
      </trkpt>
      <trkpt lat="60.57497" lon="7.52049">
        <ele>1251.29</ele>
        <time>2019-04-06T13:00:16Z</time>
      </trkpt>
      <trkpt lat="60.5753" lon="7.52064">
        <ele>1251.29</ele>
        <time>2019-04-06T13:00:25Z</time>
      </trkpt>
      <trkpt lat="60.57545" lon="7.52083">
        <ele>1250.81</ele>
        <time>2019-04-06T13:00:30Z</time>
      </trkpt>
      <trkpt lat="60.57559" lon="7.52111">
        <ele>1253.22</ele>
        <time>2019-04-06T13:00:39Z</time>
      </trkpt>
      <trkpt lat="60.57559" lon="7.52077">
        <ele>1254.18</ele>
        <time>2019-04-06T13:00:45Z</time>
      </trkpt>
      <trkpt lat="60.57562" lon="7.5206">
        <ele>1254.18</ele>
        <time>2019-04-06T13:00:47Z</time>
      </trkpt>
      <trkpt lat="60.57576" lon="7.52004">
        <ele>1251.77</ele>
        <time>2019-04-06T13:00:53Z</time>
      </trkpt>
      <trkpt lat="60.57582" lon="7.51968">
        <ele>1249.37</ele>
        <time>2019-04-06T13:00:57Z</time>
      </trkpt>
      <trkpt lat="60.57587" lon="7.51917">
        <ele>1247.93</ele>
        <time>2019-04-06T13:01:02Z</time>
      </trkpt>
      <trkpt lat="60.57594" lon="7.51791">
        <ele>1246.97</ele>
        <time>2019-04-06T13:01:15Z</time>
      </trkpt>
      <trkpt lat="60.57594" lon="7.51758">
        <ele>1246.49</ele>
        <time>2019-04-06T13:01:18Z</time>
      </trkpt>
      <trkpt lat="60.57596" lon="7.51727">
        <ele>1246.01</ele>
        <time>2019-04-06T13:01:21Z</time>
      </trkpt>
      <trkpt lat="60.57597" lon="7.51694">
        <ele>1245.53</ele>
        <time>2019-04-06T13:01:24Z</time>
      </trkpt>
      <trkpt lat="60.57602" lon="7.51633">
        <ele>1243.12</ele>
        <time>2019-04-06T13:01:30Z</time>
      </trkpt>
      <trkpt lat="60.57597" lon="7.5162">
        <ele>1241.2</ele>
        <time>2019-04-06T13:01:34Z</time>
      </trkpt>
      <trkpt lat="60.57603" lon="7.51629">
        <ele>1239.76</ele>
        <time>2019-04-06T13:01:37Z</time>
      </trkpt>
      <trkpt lat="60.5761" lon="7.51636">
        <ele>1239.28</ele>
        <time>2019-04-06T13:01:40Z</time>
      </trkpt>
      <trkpt lat="60.57616" lon="7.51648">
        <ele>1240.24</ele>
        <time>2019-04-06T13:01:43Z</time>
      </trkpt>
      <trkpt lat="60.57647" lon="7.51666">
        <ele>1240.72</ele>
        <time>2019-04-06T13:01:53Z</time>
      </trkpt>
      <trkpt lat="60.57655" lon="7.51668">
        <ele>1239.28</ele>
        <time>2019-04-06T13:01:55Z</time>
      </trkpt>
      <trkpt lat="60.57682" lon="7.51671">
        <ele>1237.35</ele>
        <time>2019-04-06T13:02:01Z</time>
      </trkpt>
      <trkpt lat="60.57699" lon="7.51674">
        <ele>1236.39</ele>
        <time>2019-04-06T13:02:05Z</time>
      </trkpt>
      <trkpt lat="60.57722" lon="7.51682">
        <ele>1234.95</ele>
        <time>2019-04-06T13:02:10Z</time>
      </trkpt>
      <trkpt lat="60.5774" lon="7.51695">
        <ele>1234.95</ele>
        <time>2019-04-06T13:02:14Z</time>
      </trkpt>
      <trkpt lat="60.57756" lon="7.51713">
        <ele>1236.87</ele>
        <time>2019-04-06T13:02:18Z</time>
      </trkpt>
      <trkpt lat="60.57777" lon="7.51736">
        <ele>1237.35</ele>
        <time>2019-04-06T13:02:23Z</time>
      </trkpt>
      <trkpt lat="60.57786" lon="7.51744">
        <ele>1237.35</ele>
        <time>2019-04-06T13:02:25Z</time>
      </trkpt>
      <trkpt lat="60.578" lon="7.51749">
        <ele>1237.35</ele>
        <time>2019-04-06T13:02:28Z</time>
      </trkpt>
      <trkpt lat="60.57821" lon="7.51761">
        <ele>1237.35</ele>
        <time>2019-04-06T13:02:33Z</time>
      </trkpt>
      <trkpt lat="60.5783" lon="7.51768">
        <ele>1237.83</ele>
        <time>2019-04-06T13:02:35Z</time>
      </trkpt>
      <trkpt lat="60.57842" lon="7.51778">
        <ele>1237.83</ele>
        <time>2019-04-06T13:02:38Z</time>
      </trkpt>
      <trkpt lat="60.5785" lon="7.51782">
        <ele>1237.83</ele>
        <time>2019-04-06T13:02:40Z</time>
      </trkpt>
      <trkpt lat="60.57859" lon="7.51785">
        <ele>1236.39</ele>
        <time>2019-04-06T13:02:42Z</time>
      </trkpt>
      <trkpt lat="60.57911" lon="7.51817">
        <ele>1234.95</ele>
        <time>2019-04-06T13:02:53Z</time>
      </trkpt>
      <trkpt lat="60.57932" lon="7.5182">
        <ele>1234.47</ele>
        <time>2019-04-06T13:02:57Z</time>
      </trkpt>
      <trkpt lat="60.57956" lon="7.51811">
        <ele>1229.66</ele>
        <time>2019-04-06T13:03:01Z</time>
      </trkpt>
      <trkpt lat="60.57998" lon="7.51801">
        <ele>1226.78</ele>
        <time>2019-04-06T13:03:08Z</time>
      </trkpt>
      <trkpt lat="60.58003" lon="7.518">
        <ele>1226.3</ele>
        <time>2019-04-06T13:03:09Z</time>
      </trkpt>
      <trkpt lat="60.58015" lon="7.51797">
        <ele>1225.34</ele>
        <time>2019-04-06T13:03:11Z</time>
      </trkpt>
      <trkpt lat="60.58035" lon="7.51796">
        <ele>1225.82</ele>
        <time>2019-04-06T13:03:15Z</time>
      </trkpt>
      <trkpt lat="60.58033" lon="7.51798">
        <ele>1227.26</ele>
        <time>2019-04-06T13:03:22Z</time>
      </trkpt>
      <trkpt lat="60.5803" lon="7.51792">
        <ele>1227.26</ele>
        <time>2019-04-06T13:03:23Z</time>
      </trkpt>
      <trkpt lat="60.58022" lon="7.51776">
        <ele>1227.74</ele>
        <time>2019-04-06T13:03:26Z</time>
      </trkpt>
      <trkpt lat="60.58002" lon="7.51715">
        <ele>1230.14</ele>
        <time>2019-04-06T13:03:35Z</time>
      </trkpt>
      <trkpt lat="60.57998" lon="7.51697">
        <ele>1230.14</ele>
        <time>2019-04-06T13:03:37Z</time>
      </trkpt>
      <trkpt lat="60.57988" lon="7.51641">
        <ele>1230.62</ele>
        <time>2019-04-06T13:03:43Z</time>
      </trkpt>
      <trkpt lat="60.57983" lon="7.51615">
        <ele>1230.62</ele>
        <time>2019-04-06T13:03:46Z</time>
      </trkpt>
      <trkpt lat="60.57975" lon="7.51581">
        <ele>1231.11</ele>
        <time>2019-04-06T13:03:50Z</time>
      </trkpt>
      <trkpt lat="60.57972" lon="7.51562">
        <ele>1232.07</ele>
        <time>2019-04-06T13:03:52Z</time>
      </trkpt>
      <trkpt lat="60.5796" lon="7.51492">
        <ele>1233.99</ele>
        <time>2019-04-06T13:03:59Z</time>
      </trkpt>
      <trkpt lat="60.57957" lon="7.5147">
        <ele>1234.47</ele>
        <time>2019-04-06T13:04:01Z</time>
      </trkpt>
      <trkpt lat="60.57953" lon="7.51409">
        <ele>1234.47</ele>
        <time>2019-04-06T13:04:06Z</time>
      </trkpt>
      <trkpt lat="60.57948" lon="7.51347">
        <ele>1233.51</ele>
        <time>2019-04-06T13:04:11Z</time>
      </trkpt>
      <trkpt lat="60.57946" lon="7.51322">
        <ele>1232.07</ele>
        <time>2019-04-06T13:04:13Z</time>
      </trkpt>
      <trkpt lat="60.5794" lon="7.51273">
        <ele>1230.62</ele>
        <time>2019-04-06T13:04:17Z</time>
      </trkpt>
      <trkpt lat="60.57939" lon="7.51249">
        <ele>1230.62</ele>
        <time>2019-04-06T13:04:19Z</time>
      </trkpt>
      <trkpt lat="60.57933" lon="7.51202">
        <ele>1230.62</ele>
        <time>2019-04-06T13:04:24Z</time>
      </trkpt>
      <trkpt lat="60.57936" lon="7.51218">
        <ele>1228.22</ele>
        <time>2019-04-06T13:04:30Z</time>
      </trkpt>
      <trkpt lat="60.57941" lon="7.51221">
        <ele>1227.74</ele>
        <time>2019-04-06T13:04:31Z</time>
      </trkpt>
      <trkpt lat="60.57956" lon="7.51228">
        <ele>1227.74</ele>
        <time>2019-04-06T13:04:34Z</time>
      </trkpt>
      <trkpt lat="60.57971" lon="7.51234">
        <ele>1228.22</ele>
        <time>2019-04-06T13:04:38Z</time>
      </trkpt>
      <trkpt lat="60.57977" lon="7.51237">
        <ele>1229.18</ele>
        <time>2019-04-06T13:04:40Z</time>
      </trkpt>
      <trkpt lat="60.57996" lon="7.51251">
        <ele>1227.26</ele>
        <time>2019-04-06T13:04:46Z</time>
      </trkpt>
      <trkpt lat="60.58009" lon="7.51257">
        <ele>1227.26</ele>
        <time>2019-04-06T13:04:49Z</time>
      </trkpt>
      <trkpt lat="60.5802" lon="7.51272">
        <ele>1227.26</ele>
        <time>2019-04-06T13:04:52Z</time>
      </trkpt>
      <trkpt lat="60.58049" lon="7.51295">
        <ele>1225.82</ele>
        <time>2019-04-06T13:04:58Z</time>
      </trkpt>
      <trkpt lat="60.58098" lon="7.51311">
        <ele>1226.3</ele>
        <time>2019-04-06T13:05:07Z</time>
      </trkpt>
      <trkpt lat="60.58113" lon="7.51314">
        <ele>1226.3</ele>
        <time>2019-04-06T13:05:10Z</time>
      </trkpt>
      <trkpt lat="60.5813" lon="7.51319">
        <ele>1224.38</ele>
        <time>2019-04-06T13:05:13Z</time>
      </trkpt>
      <trkpt lat="60.58159" lon="7.51319">
        <ele>1225.82</ele>
        <time>2019-04-06T13:05:18Z</time>
      </trkpt>
      <trkpt lat="60.58171" lon="7.51321">
        <ele>1225.82</ele>
        <time>2019-04-06T13:05:20Z</time>
      </trkpt>
      <trkpt lat="60.58191" lon="7.51329">
        <ele>1225.82</ele>
        <time>2019-04-06T13:05:24Z</time>
      </trkpt>
      <trkpt lat="60.58215" lon="7.51344">
        <ele>1226.3</ele>
        <time>2019-04-06T13:05:29Z</time>
      </trkpt>
      <trkpt lat="60.58238" lon="7.51365">
        <ele>1226.3</ele>
        <time>2019-04-06T13:05:35Z</time>
      </trkpt>
      <trkpt lat="60.58257" lon="7.51392">
        <ele>1226.78</ele>
        <time>2019-04-06T13:05:40Z</time>
      </trkpt>
      <trkpt lat="60.58276" lon="7.51417">
        <ele>1227.26</ele>
        <time>2019-04-06T13:05:47Z</time>
      </trkpt>
      <trkpt lat="60.58307" lon="7.51468">
        <ele>1228.22</ele>
        <time>2019-04-06T13:05:59Z</time>
      </trkpt>
      <trkpt lat="60.5831" lon="7.51471">
        <ele>1228.22</ele>
        <time>2019-04-06T13:06:00Z</time>
      </trkpt>
      <trkpt lat="60.58323" lon="7.51492">
        <ele>1229.66</ele>
        <time>2019-04-06T13:06:05Z</time>
      </trkpt>
      <trkpt lat="60.58355" lon="7.51535">
        <ele>1232.55</ele>
        <time>2019-04-06T13:06:17Z</time>
      </trkpt>
      <trkpt lat="60.58382" lon="7.51562">
        <ele>1233.51</ele>
        <time>2019-04-06T13:06:27Z</time>
      </trkpt>
      <trkpt lat="60.58401" lon="7.51568">
        <ele>1232.07</ele>
        <time>2019-04-06T13:06:32Z</time>
      </trkpt>
      <trkpt lat="60.58405" lon="7.51569">
        <ele>1232.07</ele>
        <time>2019-04-06T13:06:33Z</time>
      </trkpt>
      <trkpt lat="60.58423" lon="7.5158">
        <ele>1230.62</ele>
        <time>2019-04-06T13:06:37Z</time>
      </trkpt>
      <trkpt lat="60.58435" lon="7.51584">
        <ele>1228.7</ele>
        <time>2019-04-06T13:06:39Z</time>
      </trkpt>
      <trkpt lat="60.58447" lon="7.51588">
        <ele>1230.14</ele>
        <time>2019-04-06T13:06:41Z</time>
      </trkpt>
      <trkpt lat="60.58462" lon="7.5159">
        <ele>1225.34</ele>
        <time>2019-04-06T13:06:44Z</time>
      </trkpt>
      <trkpt lat="60.58467" lon="7.5159">
        <ele>1225.34</ele>
        <time>2019-04-06T13:06:45Z</time>
      </trkpt>
      <trkpt lat="60.58488" lon="7.51595">
        <ele>1221.01</ele>
        <time>2019-04-06T13:06:49Z</time>
      </trkpt>
      <trkpt lat="60.58503" lon="7.516">
        <ele>1217.65</ele>
        <time>2019-04-06T13:06:51Z</time>
      </trkpt>
      <trkpt lat="60.58517" lon="7.51602">
        <ele>1216.21</ele>
        <time>2019-04-06T13:06:53Z</time>
      </trkpt>
      <trkpt lat="60.58533" lon="7.51609">
        <ele>1220.05</ele>
        <time>2019-04-06T13:06:57Z</time>
      </trkpt>
      <trkpt lat="60.58553" lon="7.51616">
        <ele>1220.05</ele>
        <time>2019-04-06T13:07:02Z</time>
      </trkpt>
      <trkpt lat="60.58557" lon="7.51616">
        <ele>1220.05</ele>
        <time>2019-04-06T13:07:03Z</time>
      </trkpt>
      <trkpt lat="60.58566" lon="7.51618">
        <ele>1218.61</ele>
        <time>2019-04-06T13:07:05Z</time>
      </trkpt>
      <trkpt lat="60.58572" lon="7.5162">
        <ele>1217.65</ele>
        <time>2019-04-06T13:07:06Z</time>
      </trkpt>
      <trkpt lat="60.58592" lon="7.51622">
        <ele>1216.21</ele>
        <time>2019-04-06T13:07:10Z</time>
      </trkpt>
      <trkpt lat="60.58597" lon="7.51636">
        <ele>1217.65</ele>
        <time>2019-04-06T13:07:13Z</time>
      </trkpt>
      <trkpt lat="60.5859" lon="7.51623">
        <ele>1220.05</ele>
        <time>2019-04-06T13:07:17Z</time>
      </trkpt>
      <trkpt lat="60.5858" lon="7.51595">
        <ele>1221.49</ele>
        <time>2019-04-06T13:07:23Z</time>
      </trkpt>
      <trkpt lat="60.58562" lon="7.51559">
        <ele>1224.86</ele>
        <time>2019-04-06T13:07:28Z</time>
      </trkpt>
      <trkpt lat="60.58555" lon="7.51539">
        <ele>1226.3</ele>
        <time>2019-04-06T13:07:30Z</time>
      </trkpt>
      <trkpt lat="60.58543" lon="7.51507">
        <ele>1229.18</ele>
        <time>2019-04-06T13:07:34Z</time>
      </trkpt>
      <trkpt lat="60.58537" lon="7.51492">
        <ele>1231.11</ele>
        <time>2019-04-06T13:07:36Z</time>
      </trkpt>
      <trkpt lat="60.58528" lon="7.51473">
        <ele>1233.03</ele>
        <time>2019-04-06T13:07:39Z</time>
      </trkpt>
      <trkpt lat="60.58521" lon="7.51457">
        <ele>1234.95</ele>
        <time>2019-04-06T13:07:41Z</time>
      </trkpt>
      <trkpt lat="60.58504" lon="7.51418">
        <ele>1239.28</ele>
        <time>2019-04-06T13:07:46Z</time>
      </trkpt>
      <trkpt lat="60.58497" lon="7.51373">
        <ele>1244.08</ele>
        <time>2019-04-06T13:07:51Z</time>
      </trkpt>
      <trkpt lat="60.58495" lon="7.51366">
        <ele>1245.53</ele>
        <time>2019-04-06T13:07:52Z</time>
      </trkpt>
      <trkpt lat="60.58492" lon="7.51365">
        <ele>1246.01</ele>
        <time>2019-04-06T13:07:54Z</time>
      </trkpt>
      <trkpt lat="60.58494" lon="7.5137">
        <ele>1242.16</ele>
        <time>2019-04-06T13:07:56Z</time>
      </trkpt>
      <trkpt lat="60.58506" lon="7.51374">
        <ele>1237.83</ele>
        <time>2019-04-06T13:07:59Z</time>
      </trkpt>
      <trkpt lat="60.5851" lon="7.51376">
        <ele>1236.87</ele>
        <time>2019-04-06T13:08:00Z</time>
      </trkpt>
      <trkpt lat="60.5852" lon="7.51383">
        <ele>1236.87</ele>
        <time>2019-04-06T13:08:02Z</time>
      </trkpt>
      <trkpt lat="60.58555" lon="7.51394">
        <ele>1235.91</ele>
        <time>2019-04-06T13:08:10Z</time>
      </trkpt>
      <trkpt lat="60.58573" lon="7.51397">
        <ele>1234.47</ele>
        <time>2019-04-06T13:08:14Z</time>
      </trkpt>
      <trkpt lat="60.586" lon="7.51405">
        <ele>1236.87</ele>
        <time>2019-04-06T13:08:21Z</time>
      </trkpt>
      <trkpt lat="60.58612" lon="7.51407">
        <ele>1235.43</ele>
        <time>2019-04-06T13:08:24Z</time>
      </trkpt>
      <trkpt lat="60.58635" lon="7.51412">
        <ele>1239.28</ele>
        <time>2019-04-06T13:08:33Z</time>
      </trkpt>
      <trkpt lat="60.58634" lon="7.51413">
        <ele>1237.35</ele>
        <time>2019-04-06T13:08:34Z</time>
      </trkpt>
      <trkpt lat="60.58633" lon="7.51417">
        <ele>1236.39</ele>
        <time>2019-04-06T13:08:37Z</time>
      </trkpt>
      <trkpt lat="60.58631" lon="7.51424">
        <ele>1234.95</ele>
        <time>2019-04-06T13:08:41Z</time>
      </trkpt>
      <trkpt lat="60.58632" lon="7.51445">
        <ele>1233.51</ele>
        <time>2019-04-06T13:08:54Z</time>
      </trkpt>
      <trkpt lat="60.58631" lon="7.51455">
        <ele>1232.07</ele>
        <time>2019-04-06T13:08:59Z</time>
      </trkpt>
      <trkpt lat="60.58633" lon="7.51479">
        <ele>1228.7</ele>
        <time>2019-04-06T13:09:04Z</time>
      </trkpt>
      <trkpt lat="60.58639" lon="7.51498">
        <ele>1224.86</ele>
        <time>2019-04-06T13:09:06Z</time>
      </trkpt>
      <trkpt lat="60.58647" lon="7.51512">
        <ele>1224.38</ele>
        <time>2019-04-06T13:09:08Z</time>
      </trkpt>
      <trkpt lat="60.58651" lon="7.51517">
        <ele>1224.38</ele>
        <time>2019-04-06T13:09:09Z</time>
      </trkpt>
      <trkpt lat="60.58656" lon="7.51521">
        <ele>1222.93</ele>
        <time>2019-04-06T13:09:10Z</time>
      </trkpt>
      <trkpt lat="60.58661" lon="7.51524">
        <ele>1222.45</ele>
        <time>2019-04-06T13:09:11Z</time>
      </trkpt>
      <trkpt lat="60.58666" lon="7.51525">
        <ele>1221.01</ele>
        <time>2019-04-06T13:09:12Z</time>
      </trkpt>
      <trkpt lat="60.58671" lon="7.51526">
        <ele>1221.49</ele>
        <time>2019-04-06T13:09:13Z</time>
      </trkpt>
      <trkpt lat="60.58676" lon="7.51528">
        <ele>1221.49</ele>
        <time>2019-04-06T13:09:14Z</time>
      </trkpt>
      <trkpt lat="60.58693" lon="7.51535">
        <ele>1218.13</ele>
        <time>2019-04-06T13:09:17Z</time>
      </trkpt>
      <trkpt lat="60.58718" lon="7.51543">
        <ele>1216.69</ele>
        <time>2019-04-06T13:09:21Z</time>
      </trkpt>
      <trkpt lat="60.58736" lon="7.51545">
        <ele>1214.76</ele>
        <time>2019-04-06T13:09:24Z</time>
      </trkpt>
      <trkpt lat="60.58742" lon="7.51547">
        <ele>1214.76</ele>
        <time>2019-04-06T13:09:25Z</time>
      </trkpt>
      <trkpt lat="60.58767" lon="7.51562">
        <ele>1216.69</ele>
        <time>2019-04-06T13:09:29Z</time>
      </trkpt>
      <trkpt lat="60.58795" lon="7.51568">
        <ele>1211.88</ele>
        <time>2019-04-06T13:09:34Z</time>
      </trkpt>
      <trkpt lat="60.58814" lon="7.51571">
        <ele>1212.36</ele>
        <time>2019-04-06T13:09:37Z</time>
      </trkpt>
      <trkpt lat="60.58822" lon="7.51573">
        <ele>1215.72</ele>
        <time>2019-04-06T13:09:39Z</time>
      </trkpt>
      <trkpt lat="60.58825" lon="7.51574">
        <ele>1215.72</ele>
        <time>2019-04-06T13:09:40Z</time>
      </trkpt>
      <trkpt lat="60.58837" lon="7.51574">
        <ele>1215.72</ele>
        <time>2019-04-06T13:09:44Z</time>
      </trkpt>
      <trkpt lat="60.58858" lon="7.51574">
        <ele>1214.76</ele>
        <time>2019-04-06T13:09:51Z</time>
      </trkpt>
      <trkpt lat="60.589" lon="7.51563">
        <ele>1215.24</ele>
        <time>2019-04-06T13:10:03Z</time>
      </trkpt>
      <trkpt lat="60.58903" lon="7.51561">
        <ele>1215.72</ele>
        <time>2019-04-06T13:10:04Z</time>
      </trkpt>
      <trkpt lat="60.58899" lon="7.5157">
        <ele>1218.13</ele>
        <time>2019-04-06T13:10:10Z</time>
      </trkpt>
      <trkpt lat="60.58877" lon="7.51544">
        <ele>1220.53</ele>
        <time>2019-04-06T13:10:16Z</time>
      </trkpt>
      <trkpt lat="60.58869" lon="7.51529">
        <ele>1221.49</ele>
        <time>2019-04-06T13:10:19Z</time>
      </trkpt>
      <trkpt lat="60.58857" lon="7.51505">
        <ele>1221.49</ele>
        <time>2019-04-06T13:10:23Z</time>
      </trkpt>
      <trkpt lat="60.58832" lon="7.51456">
        <ele>1221.97</ele>
        <time>2019-04-06T13:10:31Z</time>
      </trkpt>
      <trkpt lat="60.58825" lon="7.5144">
        <ele>1220.53</ele>
        <time>2019-04-06T13:10:33Z</time>
      </trkpt>
      <trkpt lat="60.58814" lon="7.51416">
        <ele>1220.53</ele>
        <time>2019-04-06T13:10:36Z</time>
      </trkpt>
      <trkpt lat="60.58783" lon="7.51351">
        <ele>1220.53</ele>
        <time>2019-04-06T13:10:44Z</time>
      </trkpt>
      <trkpt lat="60.58776" lon="7.51338">
        <ele>1221.97</ele>
        <time>2019-04-06T13:10:46Z</time>
      </trkpt>
      <trkpt lat="60.5877" lon="7.51324">
        <ele>1222.45</ele>
        <time>2019-04-06T13:10:48Z</time>
      </trkpt>
      <trkpt lat="60.58764" lon="7.51312">
        <ele>1222.93</ele>
        <time>2019-04-06T13:10:50Z</time>
      </trkpt>
      <trkpt lat="60.58739" lon="7.51277">
        <ele>1226.78</ele>
        <time>2019-04-06T13:10:59Z</time>
      </trkpt>
      <trkpt lat="60.58732" lon="7.51264">
        <ele>1228.7</ele>
        <time>2019-04-06T13:11:02Z</time>
      </trkpt>
      <trkpt lat="60.58716" lon="7.51236">
        <ele>1231.11</ele>
        <time>2019-04-06T13:11:09Z</time>
      </trkpt>
      <trkpt lat="60.587" lon="7.51195">
        <ele>1233.99</ele>
        <time>2019-04-06T13:11:16Z</time>
      </trkpt>
      <trkpt lat="60.58691" lon="7.51156">
        <ele>1236.39</ele>
        <time>2019-04-06T13:11:22Z</time>
      </trkpt>
      <trkpt lat="60.58686" lon="7.51129">
        <ele>1236.87</ele>
        <time>2019-04-06T13:11:25Z</time>
      </trkpt>
      <trkpt lat="60.58667" lon="7.51042">
        <ele>1239.28</ele>
        <time>2019-04-06T13:11:34Z</time>
      </trkpt>
      <trkpt lat="60.5865" lon="7.5098">
        <ele>1240.72</ele>
        <time>2019-04-06T13:11:40Z</time>
      </trkpt>
      <trkpt lat="60.58644" lon="7.50971">
        <ele>1239.76</ele>
        <time>2019-04-06T13:11:46Z</time>
      </trkpt>
      <trkpt lat="60.58651" lon="7.50971">
        <ele>1239.28</ele>
        <time>2019-04-06T13:11:48Z</time>
      </trkpt>
      <trkpt lat="60.58665" lon="7.50972">
        <ele>1236.39</ele>
        <time>2019-04-06T13:11:51Z</time>
      </trkpt>
      <trkpt lat="60.58682" lon="7.50977">
        <ele>1238.32</ele>
        <time>2019-04-06T13:11:55Z</time>
      </trkpt>
      <trkpt lat="60.58687" lon="7.50979">
        <ele>1238.32</ele>
        <time>2019-04-06T13:11:56Z</time>
      </trkpt>
      <trkpt lat="60.58709" lon="7.50982">
        <ele>1237.35</ele>
        <time>2019-04-06T13:12:02Z</time>
      </trkpt>
      <trkpt lat="60.58725" lon="7.50985">
        <ele>1236.87</ele>
        <time>2019-04-06T13:12:06Z</time>
      </trkpt>
      <trkpt lat="60.58738" lon="7.50992">
        <ele>1233.99</ele>
        <time>2019-04-06T13:12:09Z</time>
      </trkpt>
      <trkpt lat="60.58745" lon="7.50997">
        <ele>1235.91</ele>
        <time>2019-04-06T13:12:11Z</time>
      </trkpt>
      <trkpt lat="60.58748" lon="7.50999">
        <ele>1234.95</ele>
        <time>2019-04-06T13:12:12Z</time>
      </trkpt>
      <trkpt lat="60.58787" lon="7.5099">
        <ele>1235.43</ele>
        <time>2019-04-06T13:12:23Z</time>
      </trkpt>
      <trkpt lat="60.58796" lon="7.50992">
        <ele>1230.14</ele>
        <time>2019-04-06T13:12:25Z</time>
      </trkpt>
      <trkpt lat="60.5881" lon="7.50997">
        <ele>1226.3</ele>
        <time>2019-04-06T13:12:27Z</time>
      </trkpt>
      <trkpt lat="60.58817" lon="7.51001">
        <ele>1226.3</ele>
        <time>2019-04-06T13:12:28Z</time>
      </trkpt>
      <trkpt lat="60.58842" lon="7.51006">
        <ele>1221.01</ele>
        <time>2019-04-06T13:12:31Z</time>
      </trkpt>
      <trkpt lat="60.58849" lon="7.51007">
        <ele>1221.01</ele>
        <time>2019-04-06T13:12:32Z</time>
      </trkpt>
      <trkpt lat="60.58855" lon="7.51008">
        <ele>1222.93</ele>
        <time>2019-04-06T13:12:33Z</time>
      </trkpt>
      <trkpt lat="60.5886" lon="7.51019">
        <ele>1229.66</ele>
        <time>2019-04-06T13:12:36Z</time>
      </trkpt>
      <trkpt lat="60.58852" lon="7.51012">
        <ele>1230.62</ele>
        <time>2019-04-06T13:12:39Z</time>
      </trkpt>
      <trkpt lat="60.5883" lon="7.50909">
        <ele>1225.82</ele>
        <time>2019-04-06T13:12:47Z</time>
      </trkpt>
      <trkpt lat="60.58827" lon="7.50895">
        <ele>1225.82</ele>
        <time>2019-04-06T13:12:48Z</time>
      </trkpt>
      <trkpt lat="60.58803" lon="7.50803">
        <ele>1225.82</ele>
        <time>2019-04-06T13:12:58Z</time>
      </trkpt>
      <trkpt lat="60.58795" lon="7.50781">
        <ele>1225.82</ele>
        <time>2019-04-06T13:13:01Z</time>
      </trkpt>
      <trkpt lat="60.58779" lon="7.50727">
        <ele>1227.26</ele>
        <time>2019-04-06T13:13:07Z</time>
      </trkpt>
      <trkpt lat="60.58769" lon="7.50701">
        <ele>1229.66</ele>
        <time>2019-04-06T13:13:11Z</time>
      </trkpt>
      <trkpt lat="60.58756" lon="7.50664">
        <ele>1233.51</ele>
        <time>2019-04-06T13:13:19Z</time>
      </trkpt>
      <trkpt lat="60.58748" lon="7.50659">
        <ele>1234.47</ele>
        <time>2019-04-06T13:13:23Z</time>
      </trkpt>
      <trkpt lat="60.5873" lon="7.50616">
        <ele>1235.91</ele>
        <time>2019-04-06T13:13:28Z</time>
      </trkpt>
      <trkpt lat="60.58725" lon="7.50598">
        <ele>1237.35</ele>
        <time>2019-04-06T13:13:30Z</time>
      </trkpt>
      <trkpt lat="60.58709" lon="7.50565">
        <ele>1241.2</ele>
        <time>2019-04-06T13:13:35Z</time>
      </trkpt>
      <trkpt lat="60.58697" lon="7.5054">
        <ele>1245.53</ele>
        <time>2019-04-06T13:13:40Z</time>
      </trkpt>
      <trkpt lat="60.58687" lon="7.50515">
        <ele>1249.37</ele>
        <time>2019-04-06T13:13:45Z</time>
      </trkpt>
      <trkpt lat="60.58685" lon="7.50513">
        <ele>1249.37</ele>
        <time>2019-04-06T13:13:46Z</time>
      </trkpt>
      <trkpt lat="60.58678" lon="7.50501">
        <ele>1251.77</ele>
        <time>2019-04-06T13:13:50Z</time>
      </trkpt>
      <trkpt lat="60.58687" lon="7.50514">
        <ele>1246.97</ele>
        <time>2019-04-06T13:13:56Z</time>
      </trkpt>
      <trkpt lat="60.58705" lon="7.50516">
        <ele>1243.12</ele>
        <time>2019-04-06T13:13:59Z</time>
      </trkpt>
      <trkpt lat="60.58744" lon="7.50527">
        <ele>1240.24</ele>
        <time>2019-04-06T13:14:06Z</time>
      </trkpt>
      <trkpt lat="60.58768" lon="7.50543">
        <ele>1238.32</ele>
        <time>2019-04-06T13:14:11Z</time>
      </trkpt>
      <trkpt lat="60.58813" lon="7.50579">
        <ele>1236.39</ele>
        <time>2019-04-06T13:14:21Z</time>
      </trkpt>
      <trkpt lat="60.58827" lon="7.50593">
        <ele>1235.43</ele>
        <time>2019-04-06T13:14:24Z</time>
      </trkpt>
      <trkpt lat="60.58852" lon="7.50608">
        <ele>1231.59</ele>
        <time>2019-04-06T13:14:28Z</time>
      </trkpt>
      <trkpt lat="60.58866" lon="7.50618">
        <ele>1230.14</ele>
        <time>2019-04-06T13:14:30Z</time>
      </trkpt>
      <trkpt lat="60.58881" lon="7.50628">
        <ele>1227.74</ele>
        <time>2019-04-06T13:14:32Z</time>
      </trkpt>
      <trkpt lat="60.58913" lon="7.50647">
        <ele>1228.22</ele>
        <time>2019-04-06T13:14:37Z</time>
      </trkpt>
      <trkpt lat="60.58935" lon="7.50665">
        <ele>1226.78</ele>
        <time>2019-04-06T13:14:41Z</time>
      </trkpt>
      <trkpt lat="60.5897" lon="7.50686">
        <ele>1226.78</ele>
        <time>2019-04-06T13:14:47Z</time>
      </trkpt>
      <trkpt lat="60.58989" lon="7.5069">
        <ele>1225.34</ele>
        <time>2019-04-06T13:14:50Z</time>
      </trkpt>
      <trkpt lat="60.59036" lon="7.507">
        <ele>1221.97</ele>
        <time>2019-04-06T13:14:57Z</time>
      </trkpt>
      <trkpt lat="60.59062" lon="7.50697">
        <ele>1221.01</ele>
        <time>2019-04-06T13:15:01Z</time>
      </trkpt>
      <trkpt lat="60.59113" lon="7.50687">
        <ele>1217.17</ele>
        <time>2019-04-06T13:15:09Z</time>
      </trkpt>
      <trkpt lat="60.59119" lon="7.50685">
        <ele>1217.17</ele>
        <time>2019-04-06T13:15:10Z</time>
      </trkpt>
      <trkpt lat="60.59177" lon="7.50668">
        <ele>1215.72</ele>
        <time>2019-04-06T13:15:18Z</time>
      </trkpt>
      <trkpt lat="60.59184" lon="7.50662">
        <ele>1215.72</ele>
        <time>2019-04-06T13:15:19Z</time>
      </trkpt>
      <trkpt lat="60.59216" lon="7.50622">
        <ele>1217.65</ele>
        <time>2019-04-06T13:15:26Z</time>
      </trkpt>
      <trkpt lat="60.59231" lon="7.50612">
        <ele>1218.13</ele>
        <time>2019-04-06T13:15:29Z</time>
      </trkpt>
      <trkpt lat="60.59247" lon="7.50601">
        <ele>1219.57</ele>
        <time>2019-04-06T13:15:33Z</time>
      </trkpt>
      <trkpt lat="60.59268" lon="7.50595">
        <ele>1218.13</ele>
        <time>2019-04-06T13:15:39Z</time>
      </trkpt>
      <trkpt lat="60.59278" lon="7.50602">
        <ele>1220.05</ele>
        <time>2019-04-06T13:15:47Z</time>
      </trkpt>
      <trkpt lat="60.5928" lon="7.50607">
        <ele>1219.09</ele>
        <time>2019-04-06T13:16:09Z</time>
      </trkpt>
      <trkpt lat="60.59288" lon="7.50612">
        <ele>1218.13</ele>
        <time>2019-04-06T13:16:11Z</time>
      </trkpt>
      <trkpt lat="60.59293" lon="7.50614">
        <ele>1218.13</ele>
        <time>2019-04-06T13:16:12Z</time>
      </trkpt>
      <trkpt lat="60.59315" lon="7.50615">
        <ele>1212.84</ele>
        <time>2019-04-06T13:16:15Z</time>
      </trkpt>
      <trkpt lat="60.59328" lon="7.50616">
        <ele>1214.76</ele>
        <time>2019-04-06T13:16:17Z</time>
      </trkpt>
      <trkpt lat="60.59349" lon="7.50614">
        <ele>1209</ele>
        <time>2019-04-06T13:16:20Z</time>
      </trkpt>
      <trkpt lat="60.59356" lon="7.50614">
        <ele>1209</ele>
        <time>2019-04-06T13:16:21Z</time>
      </trkpt>
      <trkpt lat="60.59373" lon="7.50611">
        <ele>1210.92</ele>
        <time>2019-04-06T13:16:24Z</time>
      </trkpt>
      <trkpt lat="60.59401" lon="7.50633">
        <ele>1212.84</ele>
        <time>2019-04-06T13:16:32Z</time>
      </trkpt>
      <trkpt lat="60.59409" lon="7.5071">
        <ele>1212.84</ele>
        <time>2019-04-06T13:16:42Z</time>
      </trkpt>
      <trkpt lat="60.59408" lon="7.50785">
        <ele>1213.8</ele>
        <time>2019-04-06T13:16:53Z</time>
      </trkpt>
      <trkpt lat="60.59403" lon="7.50806">
        <ele>1213.8</ele>
        <time>2019-04-06T13:16:58Z</time>
      </trkpt>
      <trkpt lat="60.59402" lon="7.50858">
        <ele>1214.76</ele>
        <time>2019-04-06T13:17:08Z</time>
      </trkpt>
      <trkpt lat="60.59402" lon="7.50866">
        <ele>1214.76</ele>
        <time>2019-04-06T13:17:09Z</time>
      </trkpt>
      <trkpt lat="60.59403" lon="7.50878">
        <ele>1216.69</ele>
        <time>2019-04-06T13:17:18Z</time>
      </trkpt>
      <trkpt lat="60.59405" lon="7.50883">
        <ele>1214.76</ele>
        <time>2019-04-06T13:17:20Z</time>
      </trkpt>
      <trkpt lat="60.59409" lon="7.50901">
        <ele>1216.69</ele>
        <time>2019-04-06T13:17:27Z</time>
      </trkpt>
      <trkpt lat="60.5941" lon="7.50907">
        <ele>1216.69</ele>
        <time>2019-04-06T13:17:36Z</time>
      </trkpt>
      <trkpt lat="60.59418" lon="7.5092">
        <ele>1216.69</ele>
        <time>2019-04-06T13:17:52Z</time>
      </trkpt>
      <trkpt lat="60.59419" lon="7.50926">
        <ele>1216.69</ele>
        <time>2019-04-06T13:18:10Z</time>
      </trkpt>
      <trkpt lat="60.5942" lon="7.50931">
        <ele>1216.69</ele>
        <time>2019-04-06T13:18:16Z</time>
      </trkpt>
      <trkpt lat="60.59408" lon="7.50923">
        <ele>1217.65</ele>
        <time>2019-04-06T13:18:22Z</time>
      </trkpt>
      <trkpt lat="60.59394" lon="7.50893">
        <ele>1216.69</ele>
        <time>2019-04-06T13:18:27Z</time>
      </trkpt>
      <trkpt lat="60.59386" lon="7.50892">
        <ele>1215.72</ele>
        <time>2019-04-06T13:18:35Z</time>
      </trkpt>
      <trkpt lat="60.59386" lon="7.50897">
        <ele>1215.72</ele>
        <time>2019-04-06T13:18:58Z</time>
      </trkpt>
      <trkpt lat="60.59386" lon="7.50897">
        <ele>1217.17</ele>
        <time>2019-04-06T13:19:03Z</time>
      </trkpt>
      <trkpt lat="60.59387" lon="7.50893">
        <ele>1214.76</ele>
        <time>2019-04-06T13:19:11Z</time>
      </trkpt>
      <trkpt lat="60.59387" lon="7.50892">
        <ele>1214.76</ele>
        <time>2019-04-06T13:19:30Z</time>
      </trkpt>
      <trkpt lat="60.59385" lon="7.50894">
        <ele>1214.76</ele>
        <time>2019-04-06T13:19:44Z</time>
      </trkpt>
      <trkpt lat="60.59385" lon="7.50895">
        <ele>1215.72</ele>
        <time>2019-04-06T13:19:54Z</time>
      </trkpt>
      <trkpt lat="60.59386" lon="7.50895">
        <ele>1213.8</ele>
        <time>2019-04-06T13:20:04Z</time>
      </trkpt>
      <trkpt lat="60.59386" lon="7.50893">
        <ele>1215.24</ele>
        <time>2019-04-06T13:20:09Z</time>
      </trkpt>
      <trkpt lat="60.59386" lon="7.50894">
        <ele>1215.24</ele>
        <time>2019-04-06T13:20:27Z</time>
      </trkpt>
      <trkpt lat="60.59387" lon="7.50894">
        <ele>1215.72</ele>
        <time>2019-04-06T13:20:59Z</time>
      </trkpt>
      <trkpt lat="60.59387" lon="7.50893">
        <ele>1214.76</ele>
        <time>2019-04-06T13:21:45Z</time>
      </trkpt>
      <trkpt lat="60.59386" lon="7.50895">
        <ele>1215.72</ele>
        <time>2019-04-06T13:22:12Z</time>
      </trkpt>
      <trkpt lat="60.59387" lon="7.50896">
        <ele>1215.72</ele>
        <time>2019-04-06T13:22:31Z</time>
      </trkpt>
      <trkpt lat="60.59386" lon="7.50894">
        <ele>1214.76</ele>
        <time>2019-04-06T13:22:35Z</time>
      </trkpt>
      <trkpt lat="60.59386" lon="7.50894">
        <ele>1214.28</ele>
        <time>2019-04-06T13:22:39Z</time>
      </trkpt>
      <trkpt lat="60.59371" lon="7.50911">
        <ele>1214.28</ele>
        <time>2019-04-06T13:22:48Z</time>
      </trkpt>
      <trkpt lat="60.59366" lon="7.5092">
        <ele>1214.28</ele>
        <time>2019-04-06T13:22:59Z</time>
      </trkpt>
      <trkpt lat="60.59366" lon="7.50919">
        <ele>1213.8</ele>
        <time>2019-04-06T13:23:37Z</time>
      </trkpt>
      <trkpt lat="60.59366" lon="7.5092">
        <ele>1213.8</ele>
        <time>2019-04-06T13:24:12Z</time>
      </trkpt>
      <trkpt lat="60.59366" lon="7.5092">
        <ele>1213.8</ele>
        <time>2019-04-06T13:24:47Z</time>
      </trkpt>
      <trkpt lat="60.59366" lon="7.5092">
        <ele>1213.8</ele>
        <time>2019-04-06T13:25:32Z</time>
      </trkpt>
      <trkpt lat="60.59365" lon="7.50919">
        <ele>1213.32</ele>
        <time>2019-04-06T13:26:12Z</time>
      </trkpt>
      <trkpt lat="60.59365" lon="7.50918">
        <ele>1214.76</ele>
        <time>2019-04-06T13:26:44Z</time>
      </trkpt>
      <trkpt lat="60.59365" lon="7.50919">
        <ele>1214.28</ele>
        <time>2019-04-06T13:27:20Z</time>
      </trkpt>
      <trkpt lat="60.59366" lon="7.50919">
        <ele>1214.28</ele>
        <time>2019-04-06T13:28:02Z</time>
      </trkpt>
      <trkpt lat="60.59366" lon="7.50918">
        <ele>1214.28</ele>
        <time>2019-04-06T13:28:41Z</time>
      </trkpt>
      <trkpt lat="60.59366" lon="7.50919">
        <ele>1213.8</ele>
        <time>2019-04-06T13:29:25Z</time>
      </trkpt>
      <trkpt lat="60.59366" lon="7.50919">
        <ele>1213.8</ele>
        <time>2019-04-06T13:30:03Z</time>
      </trkpt>
      <trkpt lat="60.59365" lon="7.50919">
        <ele>1213.8</ele>
        <time>2019-04-06T13:30:25Z</time>
      </trkpt>
      <trkpt lat="60.59366" lon="7.50922">
        <ele>1212.36</ele>
        <time>2019-04-06T13:30:38Z</time>
      </trkpt>
      <trkpt lat="60.59367" lon="7.50923">
        <ele>1212.36</ele>
        <time>2019-04-06T13:31:11Z</time>
      </trkpt>
      <trkpt lat="60.59366" lon="7.50922">
        <ele>1212.36</ele>
        <time>2019-04-06T13:31:44Z</time>
      </trkpt>
      <trkpt lat="60.59365" lon="7.50921">
        <ele>1212.36</ele>
        <time>2019-04-06T13:32:15Z</time>
      </trkpt>
      <trkpt lat="60.59366" lon="7.50922">
        <ele>1211.88</ele>
        <time>2019-04-06T13:32:43Z</time>
      </trkpt>
      <trkpt lat="60.59366" lon="7.50921">
        <ele>1211.88</ele>
        <time>2019-04-06T13:33:04Z</time>
      </trkpt>
      <trkpt lat="60.59366" lon="7.50916">
        <ele>1205.63</ele>
        <time>2019-04-06T13:33:06Z</time>
      </trkpt>
      <trkpt lat="60.59366" lon="7.50918">
        <ele>1213.8</ele>
        <time>2019-04-06T13:33:07Z</time>
      </trkpt>
      <trkpt lat="60.59365" lon="7.50917">
        <ele>1212.36</ele>
        <time>2019-04-06T13:33:44Z</time>
      </trkpt>
      <trkpt lat="60.59365" lon="7.50918">
        <ele>1212.36</ele>
        <time>2019-04-06T13:34:18Z</time>
      </trkpt>
      <trkpt lat="60.59365" lon="7.50919">
        <ele>1213.8</ele>
        <time>2019-04-06T13:34:46Z</time>
      </trkpt>
      <trkpt lat="60.59367" lon="7.50916">
        <ele>1215.24</ele>
        <time>2019-04-06T13:34:49Z</time>
      </trkpt>
      <trkpt lat="60.59379" lon="7.50908">
        <ele>1215.24</ele>
        <time>2019-04-06T13:35:01Z</time>
      </trkpt>
      <trkpt lat="60.59382" lon="7.50905">
        <ele>1215.24</ele>
        <time>2019-04-06T13:35:13Z</time>
      </trkpt>
      <trkpt lat="60.59383" lon="7.50904">
        <ele>1215.72</ele>
        <time>2019-04-06T13:35:14Z</time>
      </trkpt>
      <trkpt lat="60.59397" lon="7.50906">
        <ele>1215.72</ele>
        <time>2019-04-06T13:35:26Z</time>
      </trkpt>
      <trkpt lat="60.59411" lon="7.5091">
        <ele>1216.21</ele>
        <time>2019-04-06T13:35:38Z</time>
      </trkpt>
      <trkpt lat="60.59414" lon="7.50913">
        <ele>1213.8</ele>
        <time>2019-04-06T13:35:42Z</time>
      </trkpt>
      <trkpt lat="60.59414" lon="7.50914">
        <ele>1212.84</ele>
        <time>2019-04-06T13:36:13Z</time>
      </trkpt>
      <trkpt lat="60.59416" lon="7.50914">
        <ele>1212.84</ele>
        <time>2019-04-06T13:36:46Z</time>
      </trkpt>
      <trkpt lat="60.59416" lon="7.50914">
        <ele>1212.84</ele>
        <time>2019-04-06T13:37:25Z</time>
      </trkpt>
      <trkpt lat="60.59415" lon="7.50914">
        <ele>1213.32</ele>
        <time>2019-04-06T13:37:56Z</time>
      </trkpt>
      <trkpt lat="60.59415" lon="7.50916">
        <ele>1213.32</ele>
        <time>2019-04-06T13:38:30Z</time>
      </trkpt>
      <trkpt lat="60.59414" lon="7.50914">
        <ele>1217.17</ele>
        <time>2019-04-06T13:38:40Z</time>
      </trkpt>
      <trkpt lat="60.59414" lon="7.50914">
        <ele>1213.32</ele>
        <time>2019-04-06T13:38:41Z</time>
      </trkpt>
      <trkpt lat="60.59416" lon="7.50915">
        <ele>1213.32</ele>
        <time>2019-04-06T13:39:13Z</time>
      </trkpt>
      <trkpt lat="60.59415" lon="7.50911">
        <ele>1213.32</ele>
        <time>2019-04-06T13:39:51Z</time>
      </trkpt>
      <trkpt lat="60.59414" lon="7.50909">
        <ele>1212.84</ele>
        <time>2019-04-06T13:40:29Z</time>
      </trkpt>
      <trkpt lat="60.59416" lon="7.50912">
        <ele>1212.84</ele>
        <time>2019-04-06T13:41:11Z</time>
      </trkpt>
      <trkpt lat="60.59416" lon="7.50914">
        <ele>1212.84</ele>
        <time>2019-04-06T13:41:43Z</time>
      </trkpt>
      <trkpt lat="60.59415" lon="7.50915">
        <ele>1212.84</ele>
        <time>2019-04-06T13:42:18Z</time>
      </trkpt>
      <trkpt lat="60.59414" lon="7.50912">
        <ele>1212.84</ele>
        <time>2019-04-06T13:42:54Z</time>
      </trkpt>
      <trkpt lat="60.59415" lon="7.50915">
        <ele>1212.84</ele>
        <time>2019-04-06T13:43:34Z</time>
      </trkpt>
      <trkpt lat="60.59416" lon="7.50916">
        <ele>1212.84</ele>
        <time>2019-04-06T13:44:13Z</time>
      </trkpt>
      <trkpt lat="60.59416" lon="7.50913">
        <ele>1212.84</ele>
        <time>2019-04-06T13:44:48Z</time>
      </trkpt>
      <trkpt lat="60.59417" lon="7.50912">
        <ele>1212.84</ele>
        <time>2019-04-06T13:45:19Z</time>
      </trkpt>
      <trkpt lat="60.59418" lon="7.5091">
        <ele>1212.84</ele>
        <time>2019-04-06T13:45:54Z</time>
      </trkpt>
      <trkpt lat="60.59417" lon="7.50915">
        <ele>1213.32</ele>
        <time>2019-04-06T13:46:31Z</time>
      </trkpt>
      <trkpt lat="60.59414" lon="7.50918">
        <ele>1213.32</ele>
        <time>2019-04-06T13:47:03Z</time>
      </trkpt>
      <trkpt lat="60.59412" lon="7.50919">
        <ele>1214.28</ele>
        <time>2019-04-06T13:47:29Z</time>
      </trkpt>
      <trkpt lat="60.59413" lon="7.50917">
        <ele>1214.28</ele>
        <time>2019-04-06T13:48:03Z</time>
      </trkpt>
      <trkpt lat="60.59414" lon="7.50912">
        <ele>1213.32</ele>
        <time>2019-04-06T13:48:39Z</time>
      </trkpt>
      <trkpt lat="60.59415" lon="7.50914">
        <ele>1213.32</ele>
        <time>2019-04-06T13:49:12Z</time>
      </trkpt>
      <trkpt lat="60.59415" lon="7.50916">
        <ele>1213.32</ele>
        <time>2019-04-06T13:49:47Z</time>
      </trkpt>
      <trkpt lat="60.59415" lon="7.50914">
        <ele>1213.32</ele>
        <time>2019-04-06T13:50:18Z</time>
      </trkpt>
      <trkpt lat="60.59414" lon="7.50913">
        <ele>1216.21</ele>
        <time>2019-04-06T13:50:51Z</time>
      </trkpt>
      <trkpt lat="60.59404" lon="7.50898">
        <ele>1216.21</ele>
        <time>2019-04-06T13:51:02Z</time>
      </trkpt>
      <trkpt lat="60.59394" lon="7.50887">
        <ele>1214.28</ele>
        <time>2019-04-06T13:51:14Z</time>
      </trkpt>
      <trkpt lat="60.59393" lon="7.5089">
        <ele>1214.28</ele>
        <time>2019-04-06T13:51:47Z</time>
      </trkpt>
      <trkpt lat="60.59396" lon="7.50891">
        <ele>1214.28</ele>
        <time>2019-04-06T13:52:26Z</time>
      </trkpt>
      <trkpt lat="60.59397" lon="7.5089">
        <ele>1214.28</ele>
        <time>2019-04-06T13:53:01Z</time>
      </trkpt>
      <trkpt lat="60.59396" lon="7.5089">
        <ele>1213.8</ele>
        <time>2019-04-06T13:53:46Z</time>
      </trkpt>
      <trkpt lat="60.59395" lon="7.5089">
        <ele>1213.8</ele>
        <time>2019-04-06T13:54:28Z</time>
      </trkpt>
      <trkpt lat="60.59394" lon="7.50889">
        <ele>1213.8</ele>
        <time>2019-04-06T13:54:53Z</time>
      </trkpt>
      <trkpt lat="60.59394" lon="7.50889">
        <ele>1215.72</ele>
        <time>2019-04-06T13:55:02Z</time>
      </trkpt>
      <trkpt lat="60.59391" lon="7.50891">
        <ele>1215.72</ele>
        <time>2019-04-06T13:55:20Z</time>
      </trkpt>
      <trkpt lat="60.5939" lon="7.50888">
        <ele>1213.8</ele>
        <time>2019-04-06T13:55:35Z</time>
      </trkpt>
      <trkpt lat="60.5939" lon="7.50887">
        <ele>1215.24</ele>
        <time>2019-04-06T13:55:40Z</time>
      </trkpt>
      <trkpt lat="60.59389" lon="7.50889">
        <ele>1215.72</ele>
        <time>2019-04-06T13:55:43Z</time>
      </trkpt>
      <trkpt lat="60.59376" lon="7.50882">
        <ele>1215.72</ele>
        <time>2019-04-06T13:55:57Z</time>
      </trkpt>
      <trkpt lat="60.59374" lon="7.50881">
        <ele>1215.72</ele>
        <time>2019-04-06T13:56:13Z</time>
      </trkpt>
      <trkpt lat="60.59374" lon="7.50882">
        <ele>1215.72</ele>
        <time>2019-04-06T13:56:38Z</time>
      </trkpt>
      <trkpt lat="60.5937" lon="7.50876">
        <ele>1215.72</ele>
        <time>2019-04-06T13:56:49Z</time>
      </trkpt>
      <trkpt lat="60.59371" lon="7.5087">
        <ele>1215.72</ele>
        <time>2019-04-06T13:56:59Z</time>
      </trkpt>
      <trkpt lat="60.59365" lon="7.5087">
        <ele>1214.28</ele>
        <time>2019-04-06T13:57:02Z</time>
      </trkpt>
      <trkpt lat="60.59354" lon="7.50857">
        <ele>1214.28</ele>
        <time>2019-04-06T13:57:05Z</time>
      </trkpt>
      <trkpt lat="60.59346" lon="7.50844">
        <ele>1216.21</ele>
        <time>2019-04-06T13:57:07Z</time>
      </trkpt>
      <trkpt lat="60.59332" lon="7.50826">
        <ele>1216.21</ele>
        <time>2019-04-06T13:57:10Z</time>
      </trkpt>
      <trkpt lat="60.59299" lon="7.50789">
        <ele>1219.09</ele>
        <time>2019-04-06T13:57:17Z</time>
      </trkpt>
      <trkpt lat="60.5928" lon="7.50774">
        <ele>1220.05</ele>
        <time>2019-04-06T13:57:21Z</time>
      </trkpt>
      <trkpt lat="60.5927" lon="7.50763">
        <ele>1220.53</ele>
        <time>2019-04-06T13:57:23Z</time>
      </trkpt>
      <trkpt lat="60.59258" lon="7.5074">
        <ele>1221.49</ele>
        <time>2019-04-06T13:57:26Z</time>
      </trkpt>
      <trkpt lat="60.59234" lon="7.50708">
        <ele>1221.97</ele>
        <time>2019-04-06T13:57:31Z</time>
      </trkpt>
      <trkpt lat="60.59229" lon="7.50704">
        <ele>1221.97</ele>
        <time>2019-04-06T13:57:32Z</time>
      </trkpt>
      <trkpt lat="60.59213" lon="7.50695">
        <ele>1221.97</ele>
        <time>2019-04-06T13:57:36Z</time>
      </trkpt>
      <trkpt lat="60.59211" lon="7.50696">
        <ele>1220.53</ele>
        <time>2019-04-06T13:57:37Z</time>
      </trkpt>
      <trkpt lat="60.5921" lon="7.50696">
        <ele>1220.53</ele>
        <time>2019-04-06T13:57:38Z</time>
      </trkpt>
      <trkpt lat="60.59208" lon="7.50695">
        <ele>1220.53</ele>
        <time>2019-04-06T13:57:39Z</time>
      </trkpt>
      <trkpt lat="60.59201" lon="7.50689">
        <ele>1220.53</ele>
        <time>2019-04-06T13:57:57Z</time>
      </trkpt>
      <trkpt lat="60.592" lon="7.50687">
        <ele>1220.53</ele>
        <time>2019-04-06T13:57:58Z</time>
      </trkpt>
      <trkpt lat="60.59196" lon="7.50682">
        <ele>1220.53</ele>
        <time>2019-04-06T13:58:01Z</time>
      </trkpt>
      <trkpt lat="60.59194" lon="7.50683">
        <ele>1220.53</ele>
        <time>2019-04-06T13:58:15Z</time>
      </trkpt>
      <trkpt lat="60.59192" lon="7.50682">
        <ele>1220.53</ele>
        <time>2019-04-06T13:58:30Z</time>
      </trkpt>
      <trkpt lat="60.59189" lon="7.50678">
        <ele>1221.01</ele>
        <time>2019-04-06T13:58:31Z</time>
      </trkpt>
      <trkpt lat="60.59186" lon="7.50672">
        <ele>1221.01</ele>
        <time>2019-04-06T13:58:32Z</time>
      </trkpt>
      <trkpt lat="60.59177" lon="7.50658">
        <ele>1220.53</ele>
        <time>2019-04-06T13:58:40Z</time>
      </trkpt>
      <trkpt lat="60.59178" lon="7.50659">
        <ele>1220.05</ele>
        <time>2019-04-06T13:58:59Z</time>
      </trkpt>
      <trkpt lat="60.59174" lon="7.50659">
        <ele>1220.05</ele>
        <time>2019-04-06T13:59:15Z</time>
      </trkpt>
      <trkpt lat="60.59172" lon="7.50657">
        <ele>1219.09</ele>
        <time>2019-04-06T13:59:26Z</time>
      </trkpt>
      <trkpt lat="60.59174" lon="7.50656">
        <ele>1218.13</ele>
        <time>2019-04-06T13:59:41Z</time>
      </trkpt>
      <trkpt lat="60.59174" lon="7.50655">
        <ele>1219.57</ele>
        <time>2019-04-06T14:00:08Z</time>
      </trkpt>
      <trkpt lat="60.59168" lon="7.50654">
        <ele>1220.05</ele>
        <time>2019-04-06T14:00:18Z</time>
      </trkpt>
      <trkpt lat="60.59166" lon="7.50656">
        <ele>1221.01</ele>
        <time>2019-04-06T14:00:25Z</time>
      </trkpt>
      <trkpt lat="60.59163" lon="7.50658">
        <ele>1221.01</ele>
        <time>2019-04-06T14:00:38Z</time>
      </trkpt>
      <trkpt lat="60.59158" lon="7.50659">
        <ele>1221.01</ele>
        <time>2019-04-06T14:00:53Z</time>
      </trkpt>
      <trkpt lat="60.59154" lon="7.50659">
        <ele>1221.01</ele>
        <time>2019-04-06T14:01:03Z</time>
      </trkpt>
      <trkpt lat="60.59153" lon="7.50657">
        <ele>1221.01</ele>
        <time>2019-04-06T14:01:04Z</time>
      </trkpt>
      <trkpt lat="60.59142" lon="7.5064">
        <ele>1221.97</ele>
        <time>2019-04-06T14:01:09Z</time>
      </trkpt>
      <trkpt lat="60.59138" lon="7.50633">
        <ele>1222.45</ele>
        <time>2019-04-06T14:01:10Z</time>
      </trkpt>
      <trkpt lat="60.59135" lon="7.50624">
        <ele>1222.93</ele>
        <time>2019-04-06T14:01:11Z</time>
      </trkpt>
      <trkpt lat="60.59131" lon="7.50616">
        <ele>1222.93</ele>
        <time>2019-04-06T14:01:12Z</time>
      </trkpt>
      <trkpt lat="60.59092" lon="7.50547">
        <ele>1226.3</ele>
        <time>2019-04-06T14:01:19Z</time>
      </trkpt>
      <trkpt lat="60.59061" lon="7.50497">
        <ele>1229.66</ele>
        <time>2019-04-06T14:01:24Z</time>
      </trkpt>
      <trkpt lat="60.59055" lon="7.50489">
        <ele>1230.14</ele>
        <time>2019-04-06T14:01:25Z</time>
      </trkpt>
      <trkpt lat="60.5905" lon="7.50482">
        <ele>1230.62</ele>
        <time>2019-04-06T14:01:26Z</time>
      </trkpt>
      <trkpt lat="60.59044" lon="7.50476">
        <ele>1232.07</ele>
        <time>2019-04-06T14:01:27Z</time>
      </trkpt>
      <trkpt lat="60.59037" lon="7.5047">
        <ele>1232.07</ele>
        <time>2019-04-06T14:01:28Z</time>
      </trkpt>
      <trkpt lat="60.59031" lon="7.50463">
        <ele>1232.55</ele>
        <time>2019-04-06T14:01:29Z</time>
      </trkpt>
      <trkpt lat="60.59027" lon="7.50458">
        <ele>1233.99</ele>
        <time>2019-04-06T14:01:30Z</time>
      </trkpt>
      <trkpt lat="60.59022" lon="7.50452">
        <ele>1233.99</ele>
        <time>2019-04-06T14:01:31Z</time>
      </trkpt>
      <trkpt lat="60.59003" lon="7.50435">
        <ele>1234.95</ele>
        <time>2019-04-06T14:01:34Z</time>
      </trkpt>
      <trkpt lat="60.58981" lon="7.50414">
        <ele>1235.91</ele>
        <time>2019-04-06T14:01:37Z</time>
      </trkpt>
      <trkpt lat="60.58954" lon="7.50375">
        <ele>1239.76</ele>
        <time>2019-04-06T14:01:41Z</time>
      </trkpt>
      <trkpt lat="60.58936" lon="7.50347">
        <ele>1243.12</ele>
        <time>2019-04-06T14:01:44Z</time>
      </trkpt>
      <trkpt lat="60.5893" lon="7.50338">
        <ele>1243.12</ele>
        <time>2019-04-06T14:01:45Z</time>
      </trkpt>
      <trkpt lat="60.58924" lon="7.5033">
        <ele>1244.56</ele>
        <time>2019-04-06T14:01:46Z</time>
      </trkpt>
      <trkpt lat="60.58913" lon="7.50311">
        <ele>1245.04</ele>
        <time>2019-04-06T14:01:48Z</time>
      </trkpt>
      <trkpt lat="60.58902" lon="7.50291">
        <ele>1246.01</ele>
        <time>2019-04-06T14:01:50Z</time>
      </trkpt>
      <trkpt lat="60.58895" lon="7.50282">
        <ele>1246.49</ele>
        <time>2019-04-06T14:01:51Z</time>
      </trkpt>
      <trkpt lat="60.5889" lon="7.50273">
        <ele>1247.45</ele>
        <time>2019-04-06T14:01:52Z</time>
      </trkpt>
      <trkpt lat="60.58883" lon="7.50265">
        <ele>1247.45</ele>
        <time>2019-04-06T14:01:53Z</time>
      </trkpt>
      <trkpt lat="60.58878" lon="7.50257">
        <ele>1248.89</ele>
        <time>2019-04-06T14:01:54Z</time>
      </trkpt>
      <trkpt lat="60.58873" lon="7.50248">
        <ele>1249.85</ele>
        <time>2019-04-06T14:01:55Z</time>
      </trkpt>
      <trkpt lat="60.58865" lon="7.50233">
        <ele>1251.29</ele>
        <time>2019-04-06T14:01:57Z</time>
      </trkpt>
      <trkpt lat="60.58861" lon="7.50228">
        <ele>1251.29</ele>
        <time>2019-04-06T14:01:58Z</time>
      </trkpt>
      <trkpt lat="60.58856" lon="7.50225">
        <ele>1251.77</ele>
        <time>2019-04-06T14:01:59Z</time>
      </trkpt>
      <trkpt lat="60.58851" lon="7.50224">
        <ele>1251.77</ele>
        <time>2019-04-06T14:02:00Z</time>
      </trkpt>
      <trkpt lat="60.58847" lon="7.50224">
        <ele>1251.77</ele>
        <time>2019-04-06T14:02:01Z</time>
      </trkpt>
      <trkpt lat="60.58843" lon="7.50222">
        <ele>1252.74</ele>
        <time>2019-04-06T14:02:02Z</time>
      </trkpt>
      <trkpt lat="60.58819" lon="7.5021">
        <ele>1254.66</ele>
        <time>2019-04-06T14:02:07Z</time>
      </trkpt>
      <trkpt lat="60.588" lon="7.502">
        <ele>1257.06</ele>
        <time>2019-04-06T14:02:11Z</time>
      </trkpt>
      <trkpt lat="60.58783" lon="7.50198">
        <ele>1258.5</ele>
        <time>2019-04-06T14:02:19Z</time>
      </trkpt>
      <trkpt lat="60.58759" lon="7.50177">
        <ele>1261.39</ele>
        <time>2019-04-06T14:02:29Z</time>
      </trkpt>
      <trkpt lat="60.58726" lon="7.50151">
        <ele>1259.94</ele>
        <time>2019-04-06T14:02:37Z</time>
      </trkpt>
      <trkpt lat="60.5871" lon="7.50135">
        <ele>1258.02</ele>
        <time>2019-04-06T14:02:40Z</time>
      </trkpt>
      <trkpt lat="60.58698" lon="7.50121">
        <ele>1257.54</ele>
        <time>2019-04-06T14:02:42Z</time>
      </trkpt>
      <trkpt lat="60.58679" lon="7.50091">
        <ele>1256.1</ele>
        <time>2019-04-06T14:02:45Z</time>
      </trkpt>
      <trkpt lat="60.58596" lon="7.49992">
        <ele>1253.22</ele>
        <time>2019-04-06T14:02:55Z</time>
      </trkpt>
      <trkpt lat="60.58578" lon="7.49973">
        <ele>1251.77</ele>
        <time>2019-04-06T14:02:57Z</time>
      </trkpt>
      <trkpt lat="60.58541" lon="7.49963">
        <ele>1254.18</ele>
        <time>2019-04-06T14:03:04Z</time>
      </trkpt>
      <trkpt lat="60.58538" lon="7.49963">
        <ele>1255.14</ele>
        <time>2019-04-06T14:03:06Z</time>
      </trkpt>
      <trkpt lat="60.5853" lon="7.49968">
        <ele>1257.54</ele>
        <time>2019-04-06T14:03:10Z</time>
      </trkpt>
      <trkpt lat="60.58517" lon="7.49976">
        <ele>1260.43</ele>
        <time>2019-04-06T14:03:16Z</time>
      </trkpt>
      <trkpt lat="60.58507" lon="7.49973">
        <ele>1261.39</ele>
        <time>2019-04-06T14:03:22Z</time>
      </trkpt>
      <trkpt lat="60.58496" lon="7.49972">
        <ele>1262.35</ele>
        <time>2019-04-06T14:03:28Z</time>
      </trkpt>
      <trkpt lat="60.58483" lon="7.4997">
        <ele>1262.35</ele>
        <time>2019-04-06T14:03:32Z</time>
      </trkpt>
      <trkpt lat="60.58454" lon="7.49949">
        <ele>1260.91</ele>
        <time>2019-04-06T14:03:37Z</time>
      </trkpt>
      <trkpt lat="60.58436" lon="7.49938">
        <ele>1259.46</ele>
        <time>2019-04-06T14:03:39Z</time>
      </trkpt>
      <trkpt lat="60.58427" lon="7.49933">
        <ele>1259.46</ele>
        <time>2019-04-06T14:03:40Z</time>
      </trkpt>
      <trkpt lat="60.58385" lon="7.49923">
        <ele>1262.83</ele>
        <time>2019-04-06T14:03:46Z</time>
      </trkpt>
      <trkpt lat="60.58354" lon="7.49903">
        <ele>1266.67</ele>
        <time>2019-04-06T14:03:52Z</time>
      </trkpt>
      <trkpt lat="60.5834" lon="7.49899">
        <ele>1265.23</ele>
        <time>2019-04-06T14:03:55Z</time>
      </trkpt>
      <trkpt lat="60.58316" lon="7.49893">
        <ele>1266.19</ele>
        <time>2019-04-06T14:04:00Z</time>
      </trkpt>
      <trkpt lat="60.583" lon="7.49895">
        <ele>1267.16</ele>
        <time>2019-04-06T14:04:04Z</time>
      </trkpt>
      <trkpt lat="60.58288" lon="7.49893">
        <ele>1266.67</ele>
        <time>2019-04-06T14:04:07Z</time>
      </trkpt>
      <trkpt lat="60.58275" lon="7.49896">
        <ele>1266.67</ele>
        <time>2019-04-06T14:04:10Z</time>
      </trkpt>
      <trkpt lat="60.58262" lon="7.49905">
        <ele>1267.16</ele>
        <time>2019-04-06T14:04:13Z</time>
      </trkpt>
      <trkpt lat="60.58244" lon="7.49913">
        <ele>1269.56</ele>
        <time>2019-04-06T14:04:17Z</time>
      </trkpt>
      <trkpt lat="60.5824" lon="7.49914">
        <ele>1270.04</ele>
        <time>2019-04-06T14:04:18Z</time>
      </trkpt>
      <trkpt lat="60.58217" lon="7.49931">
        <ele>1272.44</ele>
        <time>2019-04-06T14:04:30Z</time>
      </trkpt>
      <trkpt lat="60.58196" lon="7.49949">
        <ele>1272.92</ele>
        <time>2019-04-06T14:04:40Z</time>
      </trkpt>
      <trkpt lat="60.58175" lon="7.49964">
        <ele>1273.88</ele>
        <time>2019-04-06T14:04:47Z</time>
      </trkpt>
      <trkpt lat="60.58152" lon="7.49975">
        <ele>1275.81</ele>
        <time>2019-04-06T14:04:53Z</time>
      </trkpt>
      <trkpt lat="60.58144" lon="7.49978">
        <ele>1275.81</ele>
        <time>2019-04-06T14:04:55Z</time>
      </trkpt>
      <trkpt lat="60.58131" lon="7.49988">
        <ele>1276.77</ele>
        <time>2019-04-06T14:04:59Z</time>
      </trkpt>
      <trkpt lat="60.58112" lon="7.49991">
        <ele>1277.73</ele>
        <time>2019-04-06T14:05:03Z</time>
      </trkpt>
      <trkpt lat="60.58083" lon="7.50012">
        <ele>1280.61</ele>
        <time>2019-04-06T14:05:13Z</time>
      </trkpt>
      <trkpt lat="60.58066" lon="7.50014">
        <ele>1282.54</ele>
        <time>2019-04-06T14:05:18Z</time>
      </trkpt>
      <trkpt lat="60.58057" lon="7.50018">
        <ele>1282.54</ele>
        <time>2019-04-06T14:05:21Z</time>
      </trkpt>
      <trkpt lat="60.58035" lon="7.50033">
        <ele>1283.02</ele>
        <time>2019-04-06T14:05:30Z</time>
      </trkpt>
      <trkpt lat="60.58021" lon="7.50046">
        <ele>1283.5</ele>
        <time>2019-04-06T14:05:36Z</time>
      </trkpt>
      <trkpt lat="60.57998" lon="7.50053">
        <ele>1284.94</ele>
        <time>2019-04-06T14:05:42Z</time>
      </trkpt>
      <trkpt lat="60.57984" lon="7.50053">
        <ele>1286.38</ele>
        <time>2019-04-06T14:05:46Z</time>
      </trkpt>
      <trkpt lat="60.57969" lon="7.50048">
        <ele>1288.3</ele>
        <time>2019-04-06T14:05:50Z</time>
      </trkpt>
      <trkpt lat="60.57931" lon="7.5003">
        <ele>1289.75</ele>
        <time>2019-04-06T14:06:00Z</time>
      </trkpt>
      <trkpt lat="60.57899" lon="7.50015">
        <ele>1290.71</ele>
        <time>2019-04-06T14:06:09Z</time>
      </trkpt>
      <trkpt lat="60.57892" lon="7.50012">
        <ele>1291.19</ele>
        <time>2019-04-06T14:06:11Z</time>
      </trkpt>
      <trkpt lat="60.57867" lon="7.49996">
        <ele>1291.19</ele>
        <time>2019-04-06T14:06:17Z</time>
      </trkpt>
      <trkpt lat="60.57833" lon="7.49977">
        <ele>1292.63</ele>
        <time>2019-04-06T14:06:24Z</time>
      </trkpt>
      <trkpt lat="60.57823" lon="7.49972">
        <ele>1293.11</ele>
        <time>2019-04-06T14:06:26Z</time>
      </trkpt>
      <trkpt lat="60.57774" lon="7.49945">
        <ele>1294.55</ele>
        <time>2019-04-06T14:06:38Z</time>
      </trkpt>
      <trkpt lat="60.57765" lon="7.4994">
        <ele>1294.55</ele>
        <time>2019-04-06T14:06:40Z</time>
      </trkpt>
      <trkpt lat="60.57717" lon="7.49913">
        <ele>1293.11</ele>
        <time>2019-04-06T14:06:50Z</time>
      </trkpt>
      <trkpt lat="60.57677" lon="7.49894">
        <ele>1292.15</ele>
        <time>2019-04-06T14:06:57Z</time>
      </trkpt>
      <trkpt lat="60.5766" lon="7.49885">
        <ele>1289.27</ele>
        <time>2019-04-06T14:07:00Z</time>
      </trkpt>
      <trkpt lat="60.57649" lon="7.49879">
        <ele>1287.82</ele>
        <time>2019-04-06T14:07:02Z</time>
      </trkpt>
      <trkpt lat="60.57602" lon="7.49863">
        <ele>1285.9</ele>
        <time>2019-04-06T14:07:09Z</time>
      </trkpt>
      <trkpt lat="60.5757" lon="7.49849">
        <ele>1285.42</ele>
        <time>2019-04-06T14:07:14Z</time>
      </trkpt>
      <trkpt lat="60.5754" lon="7.49842">
        <ele>1285.42</ele>
        <time>2019-04-06T14:07:19Z</time>
      </trkpt>
      <trkpt lat="60.57517" lon="7.49841">
        <ele>1287.82</ele>
        <time>2019-04-06T14:07:23Z</time>
      </trkpt>
      <trkpt lat="60.57495" lon="7.49836">
        <ele>1288.78</ele>
        <time>2019-04-06T14:07:27Z</time>
      </trkpt>
      <trkpt lat="60.57485" lon="7.49831">
        <ele>1288.78</ele>
        <time>2019-04-06T14:07:29Z</time>
      </trkpt>
      <trkpt lat="60.57468" lon="7.49829">
        <ele>1286.86</ele>
        <time>2019-04-06T14:07:33Z</time>
      </trkpt>
      <trkpt lat="60.57453" lon="7.49831">
        <ele>1288.78</ele>
        <time>2019-04-06T14:07:36Z</time>
      </trkpt>
      <trkpt lat="60.57431" lon="7.49839">
        <ele>1288.78</ele>
        <time>2019-04-06T14:07:40Z</time>
      </trkpt>
      <trkpt lat="60.57411" lon="7.49845">
        <ele>1289.75</ele>
        <time>2019-04-06T14:07:43Z</time>
      </trkpt>
      <trkpt lat="60.57376" lon="7.49847">
        <ele>1289.75</ele>
        <time>2019-04-06T14:07:48Z</time>
      </trkpt>
      <trkpt lat="60.57346" lon="7.49859">
        <ele>1292.15</ele>
        <time>2019-04-06T14:07:53Z</time>
      </trkpt>
      <trkpt lat="60.57333" lon="7.49864">
        <ele>1294.55</ele>
        <time>2019-04-06T14:07:56Z</time>
      </trkpt>
      <trkpt lat="60.57341" lon="7.49866">
        <ele>1291.19</ele>
        <time>2019-04-06T14:07:58Z</time>
      </trkpt>
      <trkpt lat="60.57349" lon="7.49857">
        <ele>1288.3</ele>
        <time>2019-04-06T14:07:59Z</time>
      </trkpt>
      <trkpt lat="60.57353" lon="7.49851">
        <ele>1287.34</ele>
        <time>2019-04-06T14:08:00Z</time>
      </trkpt>
      <trkpt lat="60.57389" lon="7.49796">
        <ele>1286.38</ele>
        <time>2019-04-06T14:08:06Z</time>
      </trkpt>
      <trkpt lat="60.57411" lon="7.49771">
        <ele>1287.82</ele>
        <time>2019-04-06T14:08:10Z</time>
      </trkpt>
      <trkpt lat="60.57435" lon="7.49744">
        <ele>1286.86</ele>
        <time>2019-04-06T14:08:14Z</time>
      </trkpt>
      <trkpt lat="60.57441" lon="7.49737">
        <ele>1286.86</ele>
        <time>2019-04-06T14:08:15Z</time>
      </trkpt>
      <trkpt lat="60.57469" lon="7.49704">
        <ele>1290.23</ele>
        <time>2019-04-06T14:08:20Z</time>
      </trkpt>
      <trkpt lat="60.57474" lon="7.49696">
        <ele>1286.86</ele>
        <time>2019-04-06T14:08:21Z</time>
      </trkpt>
      <trkpt lat="60.57487" lon="7.49677">
        <ele>1284.94</ele>
        <time>2019-04-06T14:08:23Z</time>
      </trkpt>
      <trkpt lat="60.57499" lon="7.4966">
        <ele>1286.38</ele>
        <time>2019-04-06T14:08:25Z</time>
      </trkpt>
      <trkpt lat="60.57504" lon="7.49653">
        <ele>1286.38</ele>
        <time>2019-04-06T14:08:26Z</time>
      </trkpt>
      <trkpt lat="60.57541" lon="7.49619">
        <ele>1284.94</ele>
        <time>2019-04-06T14:08:32Z</time>
      </trkpt>
      <trkpt lat="60.57553" lon="7.49606">
        <ele>1284.94</ele>
        <time>2019-04-06T14:08:34Z</time>
      </trkpt>
      <trkpt lat="60.5758" lon="7.49573">
        <ele>1288.3</ele>
        <time>2019-04-06T14:08:39Z</time>
      </trkpt>
      <trkpt lat="60.57617" lon="7.49543">
        <ele>1289.75</ele>
        <time>2019-04-06T14:08:45Z</time>
      </trkpt>
      <trkpt lat="60.5763" lon="7.49532">
        <ele>1290.71</ele>
        <time>2019-04-06T14:08:47Z</time>
      </trkpt>
      <trkpt lat="60.57648" lon="7.49521">
        <ele>1293.59</ele>
        <time>2019-04-06T14:08:50Z</time>
      </trkpt>
      <trkpt lat="60.57672" lon="7.49509">
        <ele>1296.96</ele>
        <time>2019-04-06T14:08:55Z</time>
      </trkpt>
      <trkpt lat="60.57689" lon="7.49507">
        <ele>1299.84</ele>
        <time>2019-04-06T14:08:59Z</time>
      </trkpt>
      <trkpt lat="60.57706" lon="7.49508">
        <ele>1303.2</ele>
        <time>2019-04-06T14:09:03Z</time>
      </trkpt>
      <trkpt lat="60.57716" lon="7.49507">
        <ele>1304.17</ele>
        <time>2019-04-06T14:09:05Z</time>
      </trkpt>
      <trkpt lat="60.57733" lon="7.49498">
        <ele>1308.97</ele>
        <time>2019-04-06T14:09:09Z</time>
      </trkpt>
      <trkpt lat="60.57736" lon="7.49494">
        <ele>1308.97</ele>
        <time>2019-04-06T14:09:10Z</time>
      </trkpt>
      <trkpt lat="60.57739" lon="7.49492">
        <ele>1310.41</ele>
        <time>2019-04-06T14:09:11Z</time>
      </trkpt>
      <trkpt lat="60.57722" lon="7.49491">
        <ele>1313.78</ele>
        <time>2019-04-06T14:09:17Z</time>
      </trkpt>
      <trkpt lat="60.57704" lon="7.49471">
        <ele>1310.41</ele>
        <time>2019-04-06T14:09:20Z</time>
      </trkpt>
      <trkpt lat="60.57685" lon="7.49454">
        <ele>1308.01</ele>
        <time>2019-04-06T14:09:23Z</time>
      </trkpt>
      <trkpt lat="60.57673" lon="7.49444">
        <ele>1304.65</ele>
        <time>2019-04-06T14:09:25Z</time>
      </trkpt>
      <trkpt lat="60.57651" lon="7.49428">
        <ele>1301.28</ele>
        <time>2019-04-06T14:09:28Z</time>
      </trkpt>
      <trkpt lat="60.57628" lon="7.49418">
        <ele>1297.92</ele>
        <time>2019-04-06T14:09:31Z</time>
      </trkpt>
      <trkpt lat="60.57612" lon="7.49411">
        <ele>1297.44</ele>
        <time>2019-04-06T14:09:33Z</time>
      </trkpt>
      <trkpt lat="60.57597" lon="7.49405">
        <ele>1295.99</ele>
        <time>2019-04-06T14:09:35Z</time>
      </trkpt>
      <trkpt lat="60.57546" lon="7.49383">
        <ele>1295.51</ele>
        <time>2019-04-06T14:09:42Z</time>
      </trkpt>
      <trkpt lat="60.57522" lon="7.49376">
        <ele>1293.59</ele>
        <time>2019-04-06T14:09:45Z</time>
      </trkpt>
      <trkpt lat="60.57478" lon="7.49357">
        <ele>1292.15</ele>
        <time>2019-04-06T14:09:51Z</time>
      </trkpt>
      <trkpt lat="60.57439" lon="7.49351">
        <ele>1295.99</ele>
        <time>2019-04-06T14:09:59Z</time>
      </trkpt>
      <trkpt lat="60.57435" lon="7.49351">
        <ele>1295.99</ele>
        <time>2019-04-06T14:10:00Z</time>
      </trkpt>
      <trkpt lat="60.57413" lon="7.49355">
        <ele>1297.92</ele>
        <time>2019-04-06T14:10:05Z</time>
      </trkpt>
      <trkpt lat="60.57401" lon="7.49359">
        <ele>1299.36</ele>
        <time>2019-04-06T14:10:08Z</time>
      </trkpt>
      <trkpt lat="60.57375" lon="7.49363">
        <ele>1300.32</ele>
        <time>2019-04-06T14:10:13Z</time>
      </trkpt>
      <trkpt lat="60.57363" lon="7.49367">
        <ele>1301.76</ele>
        <time>2019-04-06T14:10:15Z</time>
      </trkpt>
      <trkpt lat="60.57337" lon="7.4937">
        <ele>1304.17</ele>
        <time>2019-04-06T14:10:19Z</time>
      </trkpt>
      <trkpt lat="60.57331" lon="7.49372">
        <ele>1304.17</ele>
        <time>2019-04-06T14:10:20Z</time>
      </trkpt>
      <trkpt lat="60.57304" lon="7.49378">
        <ele>1307.05</ele>
        <time>2019-04-06T14:10:24Z</time>
      </trkpt>
      <trkpt lat="60.57276" lon="7.49377">
        <ele>1307.05</ele>
        <time>2019-04-06T14:10:28Z</time>
      </trkpt>
      <trkpt lat="60.57249" lon="7.49375">
        <ele>1308.49</ele>
        <time>2019-04-06T14:10:32Z</time>
      </trkpt>
      <trkpt lat="60.57225" lon="7.49373">
        <ele>1309.93</ele>
        <time>2019-04-06T14:10:36Z</time>
      </trkpt>
      <trkpt lat="60.57204" lon="7.49374">
        <ele>1310.9</ele>
        <time>2019-04-06T14:10:41Z</time>
      </trkpt>
      <trkpt lat="60.57208" lon="7.49373">
        <ele>1308.97</ele>
        <time>2019-04-06T14:10:45Z</time>
      </trkpt>
      <trkpt lat="60.57221" lon="7.49352">
        <ele>1307.05</ele>
        <time>2019-04-06T14:10:48Z</time>
      </trkpt>
      <trkpt lat="60.57229" lon="7.49335">
        <ele>1307.05</ele>
        <time>2019-04-06T14:10:50Z</time>
      </trkpt>
      <trkpt lat="60.57236" lon="7.49317">
        <ele>1306.09</ele>
        <time>2019-04-06T14:10:52Z</time>
      </trkpt>
      <trkpt lat="60.57244" lon="7.49302">
        <ele>1307.53</ele>
        <time>2019-04-06T14:10:54Z</time>
      </trkpt>
      <trkpt lat="60.57259" lon="7.49275">
        <ele>1307.53</ele>
        <time>2019-04-06T14:10:59Z</time>
      </trkpt>
      <trkpt lat="60.57253" lon="7.49286">
        <ele>1309.45</ele>
        <time>2019-04-06T14:11:05Z</time>
      </trkpt>
      <trkpt lat="60.57249" lon="7.49288">
        <ele>1309.45</ele>
        <time>2019-04-06T14:11:06Z</time>
      </trkpt>
      <trkpt lat="60.57234" lon="7.49292">
        <ele>1310.41</ele>
        <time>2019-04-06T14:11:09Z</time>
      </trkpt>
      <trkpt lat="60.57208" lon="7.49295">
        <ele>1312.34</ele>
        <time>2019-04-06T14:11:14Z</time>
      </trkpt>
      <trkpt lat="60.57194" lon="7.49296">
        <ele>1313.78</ele>
        <time>2019-04-06T14:11:17Z</time>
      </trkpt>
      <trkpt lat="60.57182" lon="7.49296">
        <ele>1315.7</ele>
        <time>2019-04-06T14:11:20Z</time>
      </trkpt>
      <trkpt lat="60.57176" lon="7.49299">
        <ele>1315.7</ele>
        <time>2019-04-06T14:11:25Z</time>
      </trkpt>
      <trkpt lat="60.57171" lon="7.49317">
        <ele>1317.14</ele>
        <time>2019-04-06T14:11:29Z</time>
      </trkpt>
      <trkpt lat="60.57168" lon="7.49326">
        <ele>1318.1</ele>
        <time>2019-04-06T14:11:31Z</time>
      </trkpt>
      <trkpt lat="60.57161" lon="7.49353">
        <ele>1321.47</ele>
        <time>2019-04-06T14:11:37Z</time>
      </trkpt>
      <trkpt lat="60.57151" lon="7.4937">
        <ele>1322.91</ele>
        <time>2019-04-06T14:11:41Z</time>
      </trkpt>
      <trkpt lat="60.57134" lon="7.49387">
        <ele>1324.83</ele>
        <time>2019-04-06T14:11:46Z</time>
      </trkpt>
      <trkpt lat="60.57129" lon="7.49396">
        <ele>1325.31</ele>
        <time>2019-04-06T14:11:48Z</time>
      </trkpt>
      <trkpt lat="60.57122" lon="7.49406">
        <ele>1327.24</ele>
        <time>2019-04-06T14:11:51Z</time>
      </trkpt>
      <trkpt lat="60.57116" lon="7.49416">
        <ele>1327.72</ele>
        <time>2019-04-06T14:11:54Z</time>
      </trkpt>
      <trkpt lat="60.57111" lon="7.49427">
        <ele>1328.68</ele>
        <time>2019-04-06T14:11:56Z</time>
      </trkpt>
      <trkpt lat="60.57101" lon="7.49447">
        <ele>1331.56</ele>
        <time>2019-04-06T14:12:00Z</time>
      </trkpt>
      <trkpt lat="60.57096" lon="7.49456">
        <ele>1334.93</ele>
        <time>2019-04-06T14:12:02Z</time>
      </trkpt>
      <trkpt lat="60.57092" lon="7.49462">
        <ele>1336.37</ele>
        <time>2019-04-06T14:12:04Z</time>
      </trkpt>
      <trkpt lat="60.5708" lon="7.49477">
        <ele>1337.33</ele>
        <time>2019-04-06T14:12:10Z</time>
      </trkpt>
      <trkpt lat="60.57069" lon="7.49508">
        <ele>1339.25</ele>
        <time>2019-04-06T14:12:16Z</time>
      </trkpt>
      <trkpt lat="60.57057" lon="7.49525">
        <ele>1342.62</ele>
        <time>2019-04-06T14:12:19Z</time>
      </trkpt>
      <trkpt lat="60.57043" lon="7.49538">
        <ele>1345.02</ele>
        <time>2019-04-06T14:12:23Z</time>
      </trkpt>
      <trkpt lat="60.57039" lon="7.49543">
        <ele>1345.98</ele>
        <time>2019-04-06T14:12:24Z</time>
      </trkpt>
      <trkpt lat="60.57032" lon="7.4956">
        <ele>1347.43</ele>
        <time>2019-04-06T14:12:26Z</time>
      </trkpt>
      <trkpt lat="60.57022" lon="7.49576">
        <ele>1349.83</ele>
        <time>2019-04-06T14:12:28Z</time>
      </trkpt>
      <trkpt lat="60.56996" lon="7.49609">
        <ele>1353.67</ele>
        <time>2019-04-06T14:12:33Z</time>
      </trkpt>
      <trkpt lat="60.56986" lon="7.49622">
        <ele>1355.12</ele>
        <time>2019-04-06T14:12:35Z</time>
      </trkpt>
      <trkpt lat="60.56967" lon="7.49641">
        <ele>1359.44</ele>
        <time>2019-04-06T14:12:39Z</time>
      </trkpt>
      <trkpt lat="60.56956" lon="7.49658">
        <ele>1364.25</ele>
        <time>2019-04-06T14:12:42Z</time>
      </trkpt>
      <trkpt lat="60.56946" lon="7.4967">
        <ele>1367.61</ele>
        <time>2019-04-06T14:12:45Z</time>
      </trkpt>
      <trkpt lat="60.56941" lon="7.49677">
        <ele>1368.09</ele>
        <time>2019-04-06T14:12:47Z</time>
      </trkpt>
      <trkpt lat="60.56935" lon="7.49684">
        <ele>1370.5</ele>
        <time>2019-04-06T14:12:50Z</time>
      </trkpt>
      <trkpt lat="60.56934" lon="7.49686">
        <ele>1371.94</ele>
        <time>2019-04-06T14:12:51Z</time>
      </trkpt>
      <trkpt lat="60.56938" lon="7.49684">
        <ele>1368.09</ele>
        <time>2019-04-06T14:12:53Z</time>
      </trkpt>
      <trkpt lat="60.56942" lon="7.49672">
        <ele>1365.69</ele>
        <time>2019-04-06T14:12:55Z</time>
      </trkpt>
      <trkpt lat="60.56947" lon="7.49653">
        <ele>1365.69</ele>
        <time>2019-04-06T14:12:58Z</time>
      </trkpt>
      <trkpt lat="60.56955" lon="7.49631">
        <ele>1361.84</ele>
        <time>2019-04-06T14:13:01Z</time>
      </trkpt>
      <trkpt lat="60.56959" lon="7.4962">
        <ele>1357.52</ele>
        <time>2019-04-06T14:13:02Z</time>
      </trkpt>
      <trkpt lat="60.56964" lon="7.4961">
        <ele>1352.23</ele>
        <time>2019-04-06T14:13:03Z</time>
      </trkpt>
      <trkpt lat="60.56968" lon="7.49599">
        <ele>1352.23</ele>
        <time>2019-04-06T14:13:04Z</time>
      </trkpt>
      <trkpt lat="60.56972" lon="7.49588">
        <ele>1352.23</ele>
        <time>2019-04-06T14:13:05Z</time>
      </trkpt>
      <trkpt lat="60.56979" lon="7.49567">
        <ele>1354.63</ele>
        <time>2019-04-06T14:13:07Z</time>
      </trkpt>
      <trkpt lat="60.5699" lon="7.49537">
        <ele>1349.35</ele>
        <time>2019-04-06T14:13:10Z</time>
      </trkpt>
      <trkpt lat="60.56993" lon="7.49526">
        <ele>1349.35</ele>
        <time>2019-04-06T14:13:11Z</time>
      </trkpt>
      <trkpt lat="60.56998" lon="7.49504">
        <ele>1348.39</ele>
        <time>2019-04-06T14:13:13Z</time>
      </trkpt>
      <trkpt lat="60.57008" lon="7.49466">
        <ele>1346.94</ele>
        <time>2019-04-06T14:13:17Z</time>
      </trkpt>
      <trkpt lat="60.57022" lon="7.49418">
        <ele>1345.5</ele>
        <time>2019-04-06T14:13:22Z</time>
      </trkpt>
      <trkpt lat="60.57029" lon="7.4939">
        <ele>1344.54</ele>
        <time>2019-04-06T14:13:25Z</time>
      </trkpt>
      <trkpt lat="60.57032" lon="7.49393">
        <ele>1347.43</ele>
        <time>2019-04-06T14:13:27Z</time>
      </trkpt>
      <trkpt lat="60.57028" lon="7.49404">
        <ele>1348.39</ele>
        <time>2019-04-06T14:13:31Z</time>
      </trkpt>
      <trkpt lat="60.57004" lon="7.49423">
        <ele>1350.79</ele>
        <time>2019-04-06T14:13:37Z</time>
      </trkpt>
      <trkpt lat="60.56989" lon="7.49435">
        <ele>1351.75</ele>
        <time>2019-04-06T14:13:41Z</time>
      </trkpt>
      <trkpt lat="60.5696" lon="7.49452">
        <ele>1355.12</ele>
        <time>2019-04-06T14:13:50Z</time>
      </trkpt>
      <trkpt lat="60.56957" lon="7.49455">
        <ele>1355.12</ele>
        <time>2019-04-06T14:13:51Z</time>
      </trkpt>
      <trkpt lat="60.56952" lon="7.49461">
        <ele>1355.12</ele>
        <time>2019-04-06T14:13:54Z</time>
      </trkpt>
      <trkpt lat="60.56967" lon="7.49445">
        <ele>1351.75</ele>
        <time>2019-04-06T14:14:00Z</time>
      </trkpt>
      <trkpt lat="60.5697" lon="7.49435">
        <ele>1351.75</ele>
        <time>2019-04-06T14:14:01Z</time>
      </trkpt>
      <trkpt lat="60.56973" lon="7.49424">
        <ele>1350.79</ele>
        <time>2019-04-06T14:14:02Z</time>
      </trkpt>
      <trkpt lat="60.56981" lon="7.49369">
        <ele>1351.27</ele>
        <time>2019-04-06T14:14:09Z</time>
      </trkpt>
      <trkpt lat="60.56982" lon="7.4936">
        <ele>1352.71</ele>
        <time>2019-04-06T14:14:13Z</time>
      </trkpt>
      <trkpt lat="60.5699" lon="7.49333">
        <ele>1349.83</ele>
        <time>2019-04-06T14:14:19Z</time>
      </trkpt>
      <trkpt lat="60.56992" lon="7.49325">
        <ele>1348.87</ele>
        <time>2019-04-06T14:14:20Z</time>
      </trkpt>
      <trkpt lat="60.56995" lon="7.4932">
        <ele>1350.79</ele>
        <time>2019-04-06T14:14:23Z</time>
      </trkpt>
      <trkpt lat="60.56996" lon="7.49325">
        <ele>1351.75</ele>
        <time>2019-04-06T14:14:37Z</time>
      </trkpt>
      <trkpt lat="60.57001" lon="7.49314">
        <ele>1348.87</ele>
        <time>2019-04-06T14:14:40Z</time>
      </trkpt>
      <trkpt lat="60.57007" lon="7.49294">
        <ele>1347.91</ele>
        <time>2019-04-06T14:14:43Z</time>
      </trkpt>
      <trkpt lat="60.57015" lon="7.49272">
        <ele>1347.43</ele>
        <time>2019-04-06T14:14:46Z</time>
      </trkpt>
      <trkpt lat="60.57043" lon="7.49231">
        <ele>1343.1</ele>
        <time>2019-04-06T14:14:52Z</time>
      </trkpt>
      <trkpt lat="60.57053" lon="7.49213">
        <ele>1341.66</ele>
        <time>2019-04-06T14:14:54Z</time>
      </trkpt>
      <trkpt lat="60.57065" lon="7.49193">
        <ele>1337.81</ele>
        <time>2019-04-06T14:14:56Z</time>
      </trkpt>
      <trkpt lat="60.57084" lon="7.4916">
        <ele>1332.04</ele>
        <time>2019-04-06T14:14:59Z</time>
      </trkpt>
      <trkpt lat="60.57098" lon="7.49135">
        <ele>1328.2</ele>
        <time>2019-04-06T14:15:01Z</time>
      </trkpt>
      <trkpt lat="60.57105" lon="7.49123">
        <ele>1327.24</ele>
        <time>2019-04-06T14:15:02Z</time>
      </trkpt>
      <trkpt lat="60.57119" lon="7.49102">
        <ele>1324.83</ele>
        <time>2019-04-06T14:15:04Z</time>
      </trkpt>
      <trkpt lat="60.57145" lon="7.49081">
        <ele>1322.43</ele>
        <time>2019-04-06T14:15:07Z</time>
      </trkpt>
      <trkpt lat="60.57169" lon="7.49056">
        <ele>1320.51</ele>
        <time>2019-04-06T14:15:10Z</time>
      </trkpt>
      <trkpt lat="60.57183" lon="7.49042">
        <ele>1321.95</ele>
        <time>2019-04-06T14:15:12Z</time>
      </trkpt>
      <trkpt lat="60.57196" lon="7.49032">
        <ele>1322.91</ele>
        <time>2019-04-06T14:15:14Z</time>
      </trkpt>
      <trkpt lat="60.57221" lon="7.49033">
        <ele>1321.47</ele>
        <time>2019-04-06T14:15:17Z</time>
      </trkpt>
      <trkpt lat="60.57251" lon="7.4905">
        <ele>1317.14</ele>
        <time>2019-04-06T14:15:20Z</time>
      </trkpt>
      <trkpt lat="60.57264" lon="7.49054">
        <ele>1313.3</ele>
        <time>2019-04-06T14:15:21Z</time>
      </trkpt>
      <trkpt lat="60.57291" lon="7.49065">
        <ele>1307.53</ele>
        <time>2019-04-06T14:15:23Z</time>
      </trkpt>
      <trkpt lat="60.57305" lon="7.49071">
        <ele>1304.17</ele>
        <time>2019-04-06T14:15:24Z</time>
      </trkpt>
      <trkpt lat="60.57332" lon="7.49085">
        <ele>1301.76</ele>
        <time>2019-04-06T14:15:26Z</time>
      </trkpt>
      <trkpt lat="60.57371" lon="7.49105">
        <ele>1296.96</ele>
        <time>2019-04-06T14:15:29Z</time>
      </trkpt>
      <trkpt lat="60.57395" lon="7.49122">
        <ele>1294.55</ele>
        <time>2019-04-06T14:15:31Z</time>
      </trkpt>
      <trkpt lat="60.57417" lon="7.49133">
        <ele>1296.48</ele>
        <time>2019-04-06T14:15:33Z</time>
      </trkpt>
      <trkpt lat="60.57438" lon="7.49142">
        <ele>1295.99</ele>
        <time>2019-04-06T14:15:35Z</time>
      </trkpt>
      <trkpt lat="60.5747" lon="7.49154">
        <ele>1293.11</ele>
        <time>2019-04-06T14:15:38Z</time>
      </trkpt>
      <trkpt lat="60.57503" lon="7.49164">
        <ele>1291.19</ele>
        <time>2019-04-06T14:15:41Z</time>
      </trkpt>
      <trkpt lat="60.57525" lon="7.4917">
        <ele>1292.15</ele>
        <time>2019-04-06T14:15:43Z</time>
      </trkpt>
      <trkpt lat="60.57547" lon="7.49176">
        <ele>1297.44</ele>
        <time>2019-04-06T14:15:46Z</time>
      </trkpt>
      <trkpt lat="60.57575" lon="7.4918">
        <ele>1293.11</ele>
        <time>2019-04-06T14:15:49Z</time>
      </trkpt>
      <trkpt lat="60.57595" lon="7.49177">
        <ele>1292.15</ele>
        <time>2019-04-06T14:15:51Z</time>
      </trkpt>
      <trkpt lat="60.57605" lon="7.49177">
        <ele>1292.15</ele>
        <time>2019-04-06T14:15:52Z</time>
      </trkpt>
      <trkpt lat="60.57632" lon="7.49186">
        <ele>1295.99</ele>
        <time>2019-04-06T14:15:55Z</time>
      </trkpt>
      <trkpt lat="60.57647" lon="7.49192">
        <ele>1298.88</ele>
        <time>2019-04-06T14:15:57Z</time>
      </trkpt>
      <trkpt lat="60.57666" lon="7.49199">
        <ele>1301.76</ele>
        <time>2019-04-06T14:16:00Z</time>
      </trkpt>
      <trkpt lat="60.5769" lon="7.49213">
        <ele>1306.09</ele>
        <time>2019-04-06T14:16:04Z</time>
      </trkpt>
      <trkpt lat="60.57703" lon="7.49225">
        <ele>1307.05</ele>
        <time>2019-04-06T14:16:06Z</time>
      </trkpt>
      <trkpt lat="60.57729" lon="7.49242">
        <ele>1310.41</ele>
        <time>2019-04-06T14:16:10Z</time>
      </trkpt>
      <trkpt lat="60.57735" lon="7.49247">
        <ele>1311.38</ele>
        <time>2019-04-06T14:16:11Z</time>
      </trkpt>
      <trkpt lat="60.57748" lon="7.49258">
        <ele>1311.38</ele>
        <time>2019-04-06T14:16:13Z</time>
      </trkpt>
      <trkpt lat="60.57777" lon="7.49271">
        <ele>1313.3</ele>
        <time>2019-04-06T14:16:17Z</time>
      </trkpt>
      <trkpt lat="60.57812" lon="7.4929">
        <ele>1315.7</ele>
        <time>2019-04-06T14:16:22Z</time>
      </trkpt>
      <trkpt lat="60.57857" lon="7.49318">
        <ele>1317.62</ele>
        <time>2019-04-06T14:16:27Z</time>
      </trkpt>
      <trkpt lat="60.57871" lon="7.49332">
        <ele>1320.51</ele>
        <time>2019-04-06T14:16:29Z</time>
      </trkpt>
      <trkpt lat="60.57934" lon="7.49384">
        <ele>1324.35</ele>
        <time>2019-04-06T14:16:38Z</time>
      </trkpt>
      <trkpt lat="60.57946" lon="7.49396">
        <ele>1325.31</ele>
        <time>2019-04-06T14:16:40Z</time>
      </trkpt>
      <trkpt lat="60.57958" lon="7.4941">
        <ele>1325.8</ele>
        <time>2019-04-06T14:16:42Z</time>
      </trkpt>
      <trkpt lat="60.57971" lon="7.49424">
        <ele>1325.8</ele>
        <time>2019-04-06T14:16:44Z</time>
      </trkpt>
      <trkpt lat="60.58008" lon="7.49455">
        <ele>1327.72</ele>
        <time>2019-04-06T14:16:50Z</time>
      </trkpt>
      <trkpt lat="60.58036" lon="7.49479">
        <ele>1329.64</ele>
        <time>2019-04-06T14:16:55Z</time>
      </trkpt>
      <trkpt lat="60.58053" lon="7.49489">
        <ele>1331.56</ele>
        <time>2019-04-06T14:16:58Z</time>
      </trkpt>
      <trkpt lat="60.58063" lon="7.49496">
        <ele>1332.52</ele>
        <time>2019-04-06T14:17:00Z</time>
      </trkpt>
      <trkpt lat="60.58113" lon="7.49525">
        <ele>1330.12</ele>
        <time>2019-04-06T14:17:12Z</time>
      </trkpt>
      <trkpt lat="60.58114" lon="7.49531">
        <ele>1331.56</ele>
        <time>2019-04-06T14:17:22Z</time>
      </trkpt>
      <trkpt lat="60.58106" lon="7.49535">
        <ele>1332.04</ele>
        <time>2019-04-06T14:17:35Z</time>
      </trkpt>
      <trkpt lat="60.58105" lon="7.49534">
        <ele>1332.04</ele>
        <time>2019-04-06T14:17:48Z</time>
      </trkpt>
      <trkpt lat="60.581" lon="7.49542">
        <ele>1332.04</ele>
        <time>2019-04-06T14:18:00Z</time>
      </trkpt>
      <trkpt lat="60.581" lon="7.49546">
        <ele>1332.04</ele>
        <time>2019-04-06T14:18:19Z</time>
      </trkpt>
      <trkpt lat="60.58098" lon="7.49548">
        <ele>1331.08</ele>
        <time>2019-04-06T14:18:26Z</time>
      </trkpt>
      <trkpt lat="60.58098" lon="7.49548">
        <ele>1332.04</ele>
        <time>2019-04-06T14:18:46Z</time>
      </trkpt>
      <trkpt lat="60.58096" lon="7.49546">
        <ele>1330.6</ele>
        <time>2019-04-06T14:18:57Z</time>
      </trkpt>
      <trkpt lat="60.58095" lon="7.49547">
        <ele>1330.6</ele>
        <time>2019-04-06T14:19:19Z</time>
      </trkpt>
      <trkpt lat="60.58085" lon="7.49547">
        <ele>1330.6</ele>
        <time>2019-04-06T14:19:30Z</time>
      </trkpt>
      <trkpt lat="60.58084" lon="7.49548">
        <ele>1330.12</ele>
        <time>2019-04-06T14:19:51Z</time>
      </trkpt>
      <trkpt lat="60.58084" lon="7.4955">
        <ele>1329.64</ele>
        <time>2019-04-06T14:20:07Z</time>
      </trkpt>
      <trkpt lat="60.58071" lon="7.4954">
        <ele>1329.64</ele>
        <time>2019-04-06T14:20:17Z</time>
      </trkpt>
      <trkpt lat="60.58034" lon="7.49508">
        <ele>1329.64</ele>
        <time>2019-04-06T14:20:25Z</time>
      </trkpt>
      <trkpt lat="60.58016" lon="7.49493">
        <ele>1326.76</ele>
        <time>2019-04-06T14:20:29Z</time>
      </trkpt>
      <trkpt lat="60.58006" lon="7.49483">
        <ele>1326.28</ele>
        <time>2019-04-06T14:20:31Z</time>
      </trkpt>
      <trkpt lat="60.57978" lon="7.49459">
        <ele>1324.35</ele>
        <time>2019-04-06T14:20:36Z</time>
      </trkpt>
      <trkpt lat="60.57908" lon="7.49418">
        <ele>1322.91</ele>
        <time>2019-04-06T14:20:48Z</time>
      </trkpt>
      <trkpt lat="60.57868" lon="7.49378">
        <ele>1320.99</ele>
        <time>2019-04-06T14:20:57Z</time>
      </trkpt>
      <trkpt lat="60.57838" lon="7.49348">
        <ele>1319.07</ele>
        <time>2019-04-06T14:21:03Z</time>
      </trkpt>
      <trkpt lat="60.57816" lon="7.4932">
        <ele>1317.62</ele>
        <time>2019-04-06T14:21:08Z</time>
      </trkpt>
      <trkpt lat="60.57773" lon="7.49265">
        <ele>1318.1</ele>
        <time>2019-04-06T14:21:19Z</time>
      </trkpt>
      <trkpt lat="60.57766" lon="7.49258">
        <ele>1315.7</ele>
        <time>2019-04-06T14:21:21Z</time>
      </trkpt>
      <trkpt lat="60.57757" lon="7.4926">
        <ele>1313.3</ele>
        <time>2019-04-06T14:21:24Z</time>
      </trkpt>
      <trkpt lat="60.57757" lon="7.49256">
        <ele>1311.86</ele>
        <time>2019-04-06T14:21:28Z</time>
      </trkpt>
      <trkpt lat="60.57755" lon="7.49253">
        <ele>1311.38</ele>
        <time>2019-04-06T14:22:00Z</time>
      </trkpt>
      <trkpt lat="60.57755" lon="7.49252">
        <ele>1310.9</ele>
        <time>2019-04-06T14:22:31Z</time>
      </trkpt>
      <trkpt lat="60.57754" lon="7.49253">
        <ele>1310.9</ele>
        <time>2019-04-06T14:22:38Z</time>
      </trkpt>
      <trkpt lat="60.57749" lon="7.4925">
        <ele>1313.3</ele>
        <time>2019-04-06T14:22:41Z</time>
      </trkpt>
      <trkpt lat="60.57739" lon="7.49239">
        <ele>1311.86</ele>
        <time>2019-04-06T14:22:44Z</time>
      </trkpt>
      <trkpt lat="60.57732" lon="7.49228">
        <ele>1311.38</ele>
        <time>2019-04-06T14:22:46Z</time>
      </trkpt>
      <trkpt lat="60.57703" lon="7.49186">
        <ele>1309.93</ele>
        <time>2019-04-06T14:22:53Z</time>
      </trkpt>
      <trkpt lat="60.57698" lon="7.4918">
        <ele>1309.45</ele>
        <time>2019-04-06T14:22:54Z</time>
      </trkpt>
      <trkpt lat="60.5768" lon="7.49165">
        <ele>1308.97</ele>
        <time>2019-04-06T14:22:57Z</time>
      </trkpt>
      <trkpt lat="60.57664" lon="7.49148">
        <ele>1306.09</ele>
        <time>2019-04-06T14:23:00Z</time>
      </trkpt>
      <trkpt lat="60.57639" lon="7.49123">
        <ele>1303.2</ele>
        <time>2019-04-06T14:23:04Z</time>
      </trkpt>
      <trkpt lat="60.57609" lon="7.49099">
        <ele>1300.32</ele>
        <time>2019-04-06T14:23:08Z</time>
      </trkpt>
      <trkpt lat="60.57578" lon="7.49079">
        <ele>1299.36</ele>
        <time>2019-04-06T14:23:13Z</time>
      </trkpt>
      <trkpt lat="60.57568" lon="7.49072">
        <ele>1301.28</ele>
        <time>2019-04-06T14:23:15Z</time>
      </trkpt>
      <trkpt lat="60.57556" lon="7.49064">
        <ele>1302.72</ele>
        <time>2019-04-06T14:23:18Z</time>
      </trkpt>
      <trkpt lat="60.5754" lon="7.49052">
        <ele>1303.2</ele>
        <time>2019-04-06T14:23:22Z</time>
      </trkpt>
      <trkpt lat="60.57531" lon="7.49044">
        <ele>1303.2</ele>
        <time>2019-04-06T14:23:24Z</time>
      </trkpt>
      <trkpt lat="60.5748" lon="7.49016">
        <ele>1303.69</ele>
        <time>2019-04-06T14:23:33Z</time>
      </trkpt>
      <trkpt lat="60.57474" lon="7.49013">
        <ele>1303.69</ele>
        <time>2019-04-06T14:23:35Z</time>
      </trkpt>
      <trkpt lat="60.57487" lon="7.49015">
        <ele>1298.88</ele>
        <time>2019-04-06T14:23:41Z</time>
      </trkpt>
      <trkpt lat="60.575" lon="7.49003">
        <ele>1298.4</ele>
        <time>2019-04-06T14:23:43Z</time>
      </trkpt>
      <trkpt lat="60.57507" lon="7.48999">
        <ele>1298.4</ele>
        <time>2019-04-06T14:23:44Z</time>
      </trkpt>
      <trkpt lat="60.57533" lon="7.48985">
        <ele>1300.32</ele>
        <time>2019-04-06T14:23:48Z</time>
      </trkpt>
      <trkpt lat="60.57549" lon="7.48971">
        <ele>1301.76</ele>
        <time>2019-04-06T14:23:51Z</time>
      </trkpt>
      <trkpt lat="60.5756" lon="7.4896">
        <ele>1301.76</ele>
        <time>2019-04-06T14:23:53Z</time>
      </trkpt>
      <trkpt lat="60.57634" lon="7.48904">
        <ele>1302.72</ele>
        <time>2019-04-06T14:24:04Z</time>
      </trkpt>
      <trkpt lat="60.57653" lon="7.48895">
        <ele>1304.17</ele>
        <time>2019-04-06T14:24:07Z</time>
      </trkpt>
      <trkpt lat="60.57735" lon="7.48878">
        <ele>1306.09</ele>
        <time>2019-04-06T14:24:18Z</time>
      </trkpt>
      <trkpt lat="60.57765" lon="7.48879">
        <ele>1309.45</ele>
        <time>2019-04-06T14:24:22Z</time>
      </trkpt>
      <trkpt lat="60.57772" lon="7.4888">
        <ele>1310.41</ele>
        <time>2019-04-06T14:24:23Z</time>
      </trkpt>
      <trkpt lat="60.57797" lon="7.4888">
        <ele>1315.22</ele>
        <time>2019-04-06T14:24:27Z</time>
      </trkpt>
      <trkpt lat="60.5781" lon="7.48879">
        <ele>1316.18</ele>
        <time>2019-04-06T14:24:29Z</time>
      </trkpt>
      <trkpt lat="60.57829" lon="7.48872">
        <ele>1319.07</ele>
        <time>2019-04-06T14:24:32Z</time>
      </trkpt>
      <trkpt lat="60.57841" lon="7.48871">
        <ele>1324.35</ele>
        <time>2019-04-06T14:24:35Z</time>
      </trkpt>
      <trkpt lat="60.5784" lon="7.48875">
        <ele>1324.35</ele>
        <time>2019-04-06T14:24:36Z</time>
      </trkpt>
      <trkpt lat="60.57815" lon="7.48843">
        <ele>1323.87</ele>
        <time>2019-04-06T14:24:42Z</time>
      </trkpt>
      <trkpt lat="60.57811" lon="7.48835">
        <ele>1322.43</ele>
        <time>2019-04-06T14:24:43Z</time>
      </trkpt>
      <trkpt lat="60.578" lon="7.48816">
        <ele>1319.55</ele>
        <time>2019-04-06T14:24:46Z</time>
      </trkpt>
      <trkpt lat="60.57785" lon="7.48794">
        <ele>1316.66</ele>
        <time>2019-04-06T14:24:49Z</time>
      </trkpt>
      <trkpt lat="60.57779" lon="7.48787">
        <ele>1316.18</ele>
        <time>2019-04-06T14:24:50Z</time>
      </trkpt>
      <trkpt lat="60.5776" lon="7.48764">
        <ele>1313.78</ele>
        <time>2019-04-06T14:24:53Z</time>
      </trkpt>
      <trkpt lat="60.57733" lon="7.48739">
        <ele>1311.38</ele>
        <time>2019-04-06T14:24:57Z</time>
      </trkpt>
      <trkpt lat="60.57722" lon="7.4873">
        <ele>1309.45</ele>
        <time>2019-04-06T14:24:59Z</time>
      </trkpt>
      <trkpt lat="60.57709" lon="7.48722">
        <ele>1307.05</ele>
        <time>2019-04-06T14:25:06Z</time>
      </trkpt>
      <trkpt lat="60.57706" lon="7.48723">
        <ele>1308.01</ele>
        <time>2019-04-06T14:25:10Z</time>
      </trkpt>
      <trkpt lat="60.57702" lon="7.48722">
        <ele>1308.01</ele>
        <time>2019-04-06T14:25:23Z</time>
      </trkpt>
      <trkpt lat="60.577" lon="7.48723">
        <ele>1307.05</ele>
        <time>2019-04-06T14:25:57Z</time>
      </trkpt>
      <trkpt lat="60.577" lon="7.48723">
        <ele>1307.05</ele>
        <time>2019-04-06T14:26:04Z</time>
      </trkpt>
      <trkpt lat="60.57698" lon="7.48722">
        <ele>1308.01</ele>
        <time>2019-04-06T14:26:06Z</time>
      </trkpt>
      <trkpt lat="60.57693" lon="7.48722">
        <ele>1308.01</ele>
        <time>2019-04-06T14:26:15Z</time>
      </trkpt>
      <trkpt lat="60.57673" lon="7.48706">
        <ele>1307.53</ele>
        <time>2019-04-06T14:26:25Z</time>
      </trkpt>
      <trkpt lat="60.57667" lon="7.48705">
        <ele>1307.53</ele>
        <time>2019-04-06T14:26:27Z</time>
      </trkpt>
      <trkpt lat="60.57595" lon="7.48671">
        <ele>1308.97</ele>
        <time>2019-04-06T14:26:39Z</time>
      </trkpt>
      <trkpt lat="60.57574" lon="7.4866">
        <ele>1308.01</ele>
        <time>2019-04-06T14:26:42Z</time>
      </trkpt>
      <trkpt lat="60.57556" lon="7.4865">
        <ele>1308.97</ele>
        <time>2019-04-06T14:26:45Z</time>
      </trkpt>
      <trkpt lat="60.5755" lon="7.48648">
        <ele>1308.97</ele>
        <time>2019-04-06T14:26:46Z</time>
      </trkpt>
      <trkpt lat="60.57534" lon="7.48639">
        <ele>1311.38</ele>
        <time>2019-04-06T14:26:49Z</time>
      </trkpt>
      <trkpt lat="60.57502" lon="7.48634">
        <ele>1312.82</ele>
        <time>2019-04-06T14:26:54Z</time>
      </trkpt>
      <trkpt lat="60.57483" lon="7.48632">
        <ele>1314.74</ele>
        <time>2019-04-06T14:26:57Z</time>
      </trkpt>
      <trkpt lat="60.57465" lon="7.48633">
        <ele>1318.1</ele>
        <time>2019-04-06T14:27:00Z</time>
      </trkpt>
      <trkpt lat="60.57448" lon="7.48634">
        <ele>1321.47</ele>
        <time>2019-04-06T14:27:03Z</time>
      </trkpt>
      <trkpt lat="60.57444" lon="7.48634">
        <ele>1323.39</ele>
        <time>2019-04-06T14:27:04Z</time>
      </trkpt>
      <trkpt lat="60.57451" lon="7.48636">
        <ele>1318.1</ele>
        <time>2019-04-06T14:27:08Z</time>
      </trkpt>
      <trkpt lat="60.57463" lon="7.48621">
        <ele>1315.7</ele>
        <time>2019-04-06T14:27:10Z</time>
      </trkpt>
      <trkpt lat="60.5749" lon="7.4858">
        <ele>1308.97</ele>
        <time>2019-04-06T14:27:15Z</time>
      </trkpt>
      <trkpt lat="60.57496" lon="7.48572">
        <ele>1308.97</ele>
        <time>2019-04-06T14:27:16Z</time>
      </trkpt>
      <trkpt lat="60.57503" lon="7.48563">
        <ele>1305.13</ele>
        <time>2019-04-06T14:27:17Z</time>
      </trkpt>
      <trkpt lat="60.57527" lon="7.48539">
        <ele>1305.13</ele>
        <time>2019-04-06T14:27:21Z</time>
      </trkpt>
      <trkpt lat="60.57544" lon="7.48518">
        <ele>1304.65</ele>
        <time>2019-04-06T14:27:24Z</time>
      </trkpt>
      <trkpt lat="60.57574" lon="7.48486">
        <ele>1303.69</ele>
        <time>2019-04-06T14:27:29Z</time>
      </trkpt>
      <trkpt lat="60.57591" lon="7.48466">
        <ele>1305.13</ele>
        <time>2019-04-06T14:27:32Z</time>
      </trkpt>
      <trkpt lat="60.57639" lon="7.48421">
        <ele>1305.13</ele>
        <time>2019-04-06T14:27:40Z</time>
      </trkpt>
      <trkpt lat="60.57683" lon="7.48367">
        <ele>1305.61</ele>
        <time>2019-04-06T14:27:48Z</time>
      </trkpt>
      <trkpt lat="60.57693" lon="7.48357">
        <ele>1306.09</ele>
        <time>2019-04-06T14:27:50Z</time>
      </trkpt>
      <trkpt lat="60.57703" lon="7.48346">
        <ele>1304.65</ele>
        <time>2019-04-06T14:27:52Z</time>
      </trkpt>
      <trkpt lat="60.57741" lon="7.48299">
        <ele>1305.61</ele>
        <time>2019-04-06T14:28:00Z</time>
      </trkpt>
      <trkpt lat="60.5777" lon="7.48264">
        <ele>1305.61</ele>
        <time>2019-04-06T14:28:06Z</time>
      </trkpt>
      <trkpt lat="60.57793" lon="7.48236">
        <ele>1306.09</ele>
        <time>2019-04-06T14:28:11Z</time>
      </trkpt>
      <trkpt lat="60.57807" lon="7.48226">
        <ele>1308.01</ele>
        <time>2019-04-06T14:28:15Z</time>
      </trkpt>
      <trkpt lat="60.57792" lon="7.48231">
        <ele>1309.45</ele>
        <time>2019-04-06T14:28:20Z</time>
      </trkpt>
      <trkpt lat="60.57781" lon="7.4823">
        <ele>1309.45</ele>
        <time>2019-04-06T14:28:22Z</time>
      </trkpt>
      <trkpt lat="60.57768" lon="7.48226">
        <ele>1309.45</ele>
        <time>2019-04-06T14:28:24Z</time>
      </trkpt>
      <trkpt lat="60.57698" lon="7.48188">
        <ele>1310.41</ele>
        <time>2019-04-06T14:28:35Z</time>
      </trkpt>
      <trkpt lat="60.57674" lon="7.48171">
        <ele>1308.97</ele>
        <time>2019-04-06T14:28:39Z</time>
      </trkpt>
      <trkpt lat="60.5764" lon="7.48157">
        <ele>1310.9</ele>
        <time>2019-04-06T14:28:44Z</time>
      </trkpt>
      <trkpt lat="60.5762" lon="7.4815">
        <ele>1310.41</ele>
        <time>2019-04-06T14:28:47Z</time>
      </trkpt>
      <trkpt lat="60.57595" lon="7.48138">
        <ele>1309.93</ele>
        <time>2019-04-06T14:28:51Z</time>
      </trkpt>
      <trkpt lat="60.57557" lon="7.48124">
        <ele>1308.97</ele>
        <time>2019-04-06T14:28:57Z</time>
      </trkpt>
      <trkpt lat="60.57534" lon="7.48121">
        <ele>1310.41</ele>
        <time>2019-04-06T14:29:00Z</time>
      </trkpt>
      <trkpt lat="60.57517" lon="7.48117">
        <ele>1311.86</ele>
        <time>2019-04-06T14:29:02Z</time>
      </trkpt>
      <trkpt lat="60.57492" lon="7.48113">
        <ele>1310.9</ele>
        <time>2019-04-06T14:29:06Z</time>
      </trkpt>
      <trkpt lat="60.57455" lon="7.48112">
        <ele>1314.26</ele>
        <time>2019-04-06T14:29:11Z</time>
      </trkpt>
      <trkpt lat="60.5743" lon="7.4811">
        <ele>1317.14</ele>
        <time>2019-04-06T14:29:15Z</time>
      </trkpt>
      <trkpt lat="60.57425" lon="7.48109">
        <ele>1318.1</ele>
        <time>2019-04-06T14:29:16Z</time>
      </trkpt>
      <trkpt lat="60.57408" lon="7.48121">
        <ele>1322.91</ele>
        <time>2019-04-06T14:29:21Z</time>
      </trkpt>
      <trkpt lat="60.57394" lon="7.48126">
        <ele>1322.91</ele>
        <time>2019-04-06T14:29:25Z</time>
      </trkpt>
      <trkpt lat="60.57387" lon="7.48135">
        <ele>1325.31</ele>
        <time>2019-04-06T14:29:28Z</time>
      </trkpt>
      <trkpt lat="60.57384" lon="7.48139">
        <ele>1326.28</ele>
        <time>2019-04-06T14:29:30Z</time>
      </trkpt>
      <trkpt lat="60.57384" lon="7.4815">
        <ele>1325.8</ele>
        <time>2019-04-06T14:29:38Z</time>
      </trkpt>
      <trkpt lat="60.5739" lon="7.48132">
        <ele>1322.91</ele>
        <time>2019-04-06T14:29:40Z</time>
      </trkpt>
      <trkpt lat="60.57402" lon="7.48083">
        <ele>1316.66</ele>
        <time>2019-04-06T14:29:44Z</time>
      </trkpt>
      <trkpt lat="60.57419" lon="7.48039">
        <ele>1311.38</ele>
        <time>2019-04-06T14:29:48Z</time>
      </trkpt>
      <trkpt lat="60.57423" lon="7.48029">
        <ele>1309.93</ele>
        <time>2019-04-06T14:29:49Z</time>
      </trkpt>
      <trkpt lat="60.57439" lon="7.47992">
        <ele>1308.97</ele>
        <time>2019-04-06T14:29:53Z</time>
      </trkpt>
      <trkpt lat="60.57447" lon="7.47975">
        <ele>1307.53</ele>
        <time>2019-04-06T14:29:55Z</time>
      </trkpt>
      <trkpt lat="60.57454" lon="7.47969">
        <ele>1310.41</ele>
        <time>2019-04-06T14:30:00Z</time>
      </trkpt>
      <trkpt lat="60.57437" lon="7.47989">
        <ele>1311.38</ele>
        <time>2019-04-06T14:30:04Z</time>
      </trkpt>
      <trkpt lat="60.57415" lon="7.48013">
        <ele>1314.26</ele>
        <time>2019-04-06T14:30:09Z</time>
      </trkpt>
      <trkpt lat="60.57406" lon="7.48026">
        <ele>1315.7</ele>
        <time>2019-04-06T14:30:11Z</time>
      </trkpt>
      <trkpt lat="60.57387" lon="7.48046">
        <ele>1320.99</ele>
        <time>2019-04-06T14:30:15Z</time>
      </trkpt>
      <trkpt lat="60.57379" lon="7.48061">
        <ele>1323.87</ele>
        <time>2019-04-06T14:30:18Z</time>
      </trkpt>
      <trkpt lat="60.57369" lon="7.48087">
        <ele>1325.31</ele>
        <time>2019-04-06T14:30:24Z</time>
      </trkpt>
      <trkpt lat="60.57356" lon="7.48119">
        <ele>1331.08</ele>
        <time>2019-04-06T14:30:28Z</time>
      </trkpt>
      <trkpt lat="60.57344" lon="7.48139">
        <ele>1335.41</ele>
        <time>2019-04-06T14:30:31Z</time>
      </trkpt>
      <trkpt lat="60.57338" lon="7.48151">
        <ele>1337.81</ele>
        <time>2019-04-06T14:30:33Z</time>
      </trkpt>
      <trkpt lat="60.57328" lon="7.48168">
        <ele>1342.62</ele>
        <time>2019-04-06T14:30:36Z</time>
      </trkpt>
      <trkpt lat="60.5732" lon="7.4818">
        <ele>1345.98</ele>
        <time>2019-04-06T14:30:39Z</time>
      </trkpt>
      <trkpt lat="60.5731" lon="7.48195">
        <ele>1349.83</ele>
        <time>2019-04-06T14:30:43Z</time>
      </trkpt>
      <trkpt lat="60.57305" lon="7.48206">
        <ele>1352.71</ele>
        <time>2019-04-06T14:30:46Z</time>
      </trkpt>
      <trkpt lat="60.57304" lon="7.48209">
        <ele>1352.71</ele>
        <time>2019-04-06T14:30:47Z</time>
      </trkpt>
      <trkpt lat="60.57299" lon="7.4823">
        <ele>1354.15</ele>
        <time>2019-04-06T14:30:51Z</time>
      </trkpt>
      <trkpt lat="60.57294" lon="7.48249">
        <ele>1356.08</ele>
        <time>2019-04-06T14:30:55Z</time>
      </trkpt>
      <trkpt lat="60.57283" lon="7.48269">
        <ele>1358.96</ele>
        <time>2019-04-06T14:31:00Z</time>
      </trkpt>
      <trkpt lat="60.57274" lon="7.48279">
        <ele>1362.33</ele>
        <time>2019-04-06T14:31:04Z</time>
      </trkpt>
      <trkpt lat="60.57273" lon="7.4828">
        <ele>1362.33</ele>
        <time>2019-04-06T14:31:05Z</time>
      </trkpt>
      <trkpt lat="60.57272" lon="7.48282">
        <ele>1362.81</ele>
        <time>2019-04-06T14:31:06Z</time>
      </trkpt>
      <trkpt lat="60.57259" lon="7.48291">
        <ele>1366.17</ele>
        <time>2019-04-06T14:31:13Z</time>
      </trkpt>
      <trkpt lat="60.57257" lon="7.48291">
        <ele>1366.17</ele>
        <time>2019-04-06T14:31:14Z</time>
      </trkpt>
      <trkpt lat="60.57245" lon="7.48294">
        <ele>1369.54</ele>
        <time>2019-04-06T14:31:19Z</time>
      </trkpt>
      <trkpt lat="60.57237" lon="7.48291">
        <ele>1370.98</ele>
        <time>2019-04-06T14:31:22Z</time>
      </trkpt>
      <trkpt lat="60.57229" lon="7.48286">
        <ele>1374.34</ele>
        <time>2019-04-06T14:31:26Z</time>
      </trkpt>
      <trkpt lat="60.57225" lon="7.48282">
        <ele>1375.78</ele>
        <time>2019-04-06T14:31:28Z</time>
      </trkpt>
      <trkpt lat="60.57213" lon="7.48259">
        <ele>1372.42</ele>
        <time>2019-04-06T14:31:34Z</time>
      </trkpt>
      <trkpt lat="60.5721" lon="7.48253">
        <ele>1374.34</ele>
        <time>2019-04-06T14:31:38Z</time>
      </trkpt>
      <trkpt lat="60.5721" lon="7.48252">
        <ele>1371.94</ele>
        <time>2019-04-06T14:31:41Z</time>
      </trkpt>
      <trkpt lat="60.57209" lon="7.48251">
        <ele>1370.98</ele>
        <time>2019-04-06T14:31:48Z</time>
      </trkpt>
      <trkpt lat="60.572" lon="7.4825">
        <ele>1371.94</ele>
        <time>2019-04-06T14:31:55Z</time>
      </trkpt>
      <trkpt lat="60.57183" lon="7.48246">
        <ele>1370.98</ele>
        <time>2019-04-06T14:32:01Z</time>
      </trkpt>
      <trkpt lat="60.57181" lon="7.48246">
        <ele>1370.98</ele>
        <time>2019-04-06T14:32:02Z</time>
      </trkpt>
      <trkpt lat="60.57175" lon="7.48253">
        <ele>1370.5</ele>
        <time>2019-04-06T14:32:06Z</time>
      </trkpt>
      <trkpt lat="60.57159" lon="7.48284">
        <ele>1370.02</ele>
        <time>2019-04-06T14:32:10Z</time>
      </trkpt>
      <trkpt lat="60.57114" lon="7.48311">
        <ele>1367.13</ele>
        <time>2019-04-06T14:32:17Z</time>
      </trkpt>
      <trkpt lat="60.57095" lon="7.4831">
        <ele>1370.5</ele>
        <time>2019-04-06T14:32:23Z</time>
      </trkpt>
      <trkpt lat="60.57095" lon="7.48309">
        <ele>1371.46</ele>
        <time>2019-04-06T14:32:25Z</time>
      </trkpt>
      <trkpt lat="60.57102" lon="7.48328">
        <ele>1367.61</ele>
        <time>2019-04-06T14:32:29Z</time>
      </trkpt>
      <trkpt lat="60.57112" lon="7.48367">
        <ele>1365.69</ele>
        <time>2019-04-06T14:32:33Z</time>
      </trkpt>
      <trkpt lat="60.5712" lon="7.48391">
        <ele>1364.73</ele>
        <time>2019-04-06T14:32:36Z</time>
      </trkpt>
      <trkpt lat="60.57125" lon="7.48424">
        <ele>1364.25</ele>
        <time>2019-04-06T14:32:40Z</time>
      </trkpt>
      <trkpt lat="60.57133" lon="7.48466">
        <ele>1363.29</ele>
        <time>2019-04-06T14:32:46Z</time>
      </trkpt>
      <trkpt lat="60.57151" lon="7.48483">
        <ele>1363.29</ele>
        <time>2019-04-06T14:32:49Z</time>
      </trkpt>
      <trkpt lat="60.57168" lon="7.48524">
        <ele>1364.25</ele>
        <time>2019-04-06T14:32:54Z</time>
      </trkpt>
      <trkpt lat="60.57147" lon="7.48555">
        <ele>1362.81</ele>
        <time>2019-04-06T14:32:58Z</time>
      </trkpt>
      <trkpt lat="60.57128" lon="7.48574">
        <ele>1360.4</ele>
        <time>2019-04-06T14:33:01Z</time>
      </trkpt>
      <trkpt lat="60.57123" lon="7.48579">
        <ele>1360.4</ele>
        <time>2019-04-06T14:33:02Z</time>
      </trkpt>
      <trkpt lat="60.5709" lon="7.48604">
        <ele>1361.84</ele>
        <time>2019-04-06T14:33:11Z</time>
      </trkpt>
      <trkpt lat="60.57087" lon="7.48604">
        <ele>1362.81</ele>
        <time>2019-04-06T14:33:12Z</time>
      </trkpt>
      <trkpt lat="60.57081" lon="7.48603">
        <ele>1360.88</ele>
        <time>2019-04-06T14:33:14Z</time>
      </trkpt>
      <trkpt lat="60.57064" lon="7.4861">
        <ele>1357.52</ele>
        <time>2019-04-06T14:33:18Z</time>
      </trkpt>
      <trkpt lat="60.57056" lon="7.48613">
        <ele>1356.56</ele>
        <time>2019-04-06T14:33:20Z</time>
      </trkpt>
      <trkpt lat="60.57036" lon="7.48627">
        <ele>1354.15</ele>
        <time>2019-04-06T14:33:23Z</time>
      </trkpt>
      <trkpt lat="60.57019" lon="7.48641">
        <ele>1353.67</ele>
        <time>2019-04-06T14:33:25Z</time>
      </trkpt>
      <trkpt lat="60.57004" lon="7.48659">
        <ele>1356.08</ele>
        <time>2019-04-06T14:33:27Z</time>
      </trkpt>
      <trkpt lat="60.56987" lon="7.48686">
        <ele>1357.04</ele>
        <time>2019-04-06T14:33:32Z</time>
      </trkpt>
      <trkpt lat="60.5699" lon="7.48692">
        <ele>1357.04</ele>
        <time>2019-04-06T14:33:41Z</time>
      </trkpt>
      <trkpt lat="60.56989" lon="7.4869">
        <ele>1354.63</ele>
        <time>2019-04-06T14:33:59Z</time>
      </trkpt>
      <trkpt lat="60.56989" lon="7.48687">
        <ele>1355.6</ele>
        <time>2019-04-06T14:34:18Z</time>
      </trkpt>
      <trkpt lat="60.56993" lon="7.48702">
        <ele>1355.12</ele>
        <time>2019-04-06T14:34:32Z</time>
      </trkpt>
      <trkpt lat="60.56991" lon="7.48707">
        <ele>1355.12</ele>
        <time>2019-04-06T14:34:46Z</time>
      </trkpt>
      <trkpt lat="60.56991" lon="7.48708">
        <ele>1356.56</ele>
        <time>2019-04-06T14:34:51Z</time>
      </trkpt>
      <trkpt lat="60.56993" lon="7.48721">
        <ele>1354.15</ele>
        <time>2019-04-06T14:35:02Z</time>
      </trkpt>
      <trkpt lat="60.56995" lon="7.48724">
        <ele>1353.67</ele>
        <time>2019-04-06T14:35:04Z</time>
      </trkpt>
      <trkpt lat="60.57012" lon="7.48733">
        <ele>1349.35</ele>
        <time>2019-04-06T14:35:07Z</time>
      </trkpt>
      <trkpt lat="60.57027" lon="7.48735">
        <ele>1346.94</ele>
        <time>2019-04-06T14:35:09Z</time>
      </trkpt>
      <trkpt lat="60.57043" lon="7.4874">
        <ele>1347.91</ele>
        <time>2019-04-06T14:35:11Z</time>
      </trkpt>
      <trkpt lat="60.5708" lon="7.48751">
        <ele>1341.66</ele>
        <time>2019-04-06T14:35:15Z</time>
      </trkpt>
      <trkpt lat="60.57099" lon="7.48759">
        <ele>1339.25</ele>
        <time>2019-04-06T14:35:17Z</time>
      </trkpt>
      <trkpt lat="60.57124" lon="7.48765">
        <ele>1341.18</ele>
        <time>2019-04-06T14:35:20Z</time>
      </trkpt>
      <trkpt lat="60.57139" lon="7.4877">
        <ele>1342.14</ele>
        <time>2019-04-06T14:35:22Z</time>
      </trkpt>
      <trkpt lat="60.57159" lon="7.48788">
        <ele>1342.62</ele>
        <time>2019-04-06T14:35:25Z</time>
      </trkpt>
      <trkpt lat="60.57177" lon="7.48803">
        <ele>1340.22</ele>
        <time>2019-04-06T14:35:28Z</time>
      </trkpt>
      <trkpt lat="60.5718" lon="7.4881">
        <ele>1339.73</ele>
        <time>2019-04-06T14:35:29Z</time>
      </trkpt>
      <trkpt lat="60.572" lon="7.48861">
        <ele>1332.52</ele>
        <time>2019-04-06T14:35:34Z</time>
      </trkpt>
      <trkpt lat="60.57203" lon="7.48894">
        <ele>1329.16</ele>
        <time>2019-04-06T14:35:37Z</time>
      </trkpt>
      <trkpt lat="60.57209" lon="7.48945">
        <ele>1325.8</ele>
        <time>2019-04-06T14:35:41Z</time>
      </trkpt>
      <trkpt lat="60.57222" lon="7.48963">
        <ele>1323.87</ele>
        <time>2019-04-06T14:35:43Z</time>
      </trkpt>
      <trkpt lat="60.57248" lon="7.48986">
        <ele>1317.14</ele>
        <time>2019-04-06T14:35:46Z</time>
      </trkpt>
      <trkpt lat="60.57259" lon="7.48996">
        <ele>1313.3</ele>
        <time>2019-04-06T14:35:47Z</time>
      </trkpt>
      <trkpt lat="60.57271" lon="7.49008">
        <ele>1309.45</ele>
        <time>2019-04-06T14:35:48Z</time>
      </trkpt>
      <trkpt lat="60.57285" lon="7.49022">
        <ele>1304.17</ele>
        <time>2019-04-06T14:35:49Z</time>
      </trkpt>
      <trkpt lat="60.57313" lon="7.49047">
        <ele>1300.32</ele>
        <time>2019-04-06T14:35:51Z</time>
      </trkpt>
      <trkpt lat="60.57341" lon="7.4907">
        <ele>1295.99</ele>
        <time>2019-04-06T14:35:53Z</time>
      </trkpt>
      <trkpt lat="60.57391" lon="7.49102">
        <ele>1291.19</ele>
        <time>2019-04-06T14:35:57Z</time>
      </trkpt>
      <trkpt lat="60.57415" lon="7.49112">
        <ele>1289.75</ele>
        <time>2019-04-06T14:35:59Z</time>
      </trkpt>
      <trkpt lat="60.57438" lon="7.49122">
        <ele>1288.78</ele>
        <time>2019-04-06T14:36:01Z</time>
      </trkpt>
      <trkpt lat="60.57459" lon="7.49131">
        <ele>1288.3</ele>
        <time>2019-04-06T14:36:03Z</time>
      </trkpt>
      <trkpt lat="60.57538" lon="7.49165">
        <ele>1291.19</ele>
        <time>2019-04-06T14:36:11Z</time>
      </trkpt>
      <trkpt lat="60.57551" lon="7.49173">
        <ele>1293.11</ele>
        <time>2019-04-06T14:36:13Z</time>
      </trkpt>
      <trkpt lat="60.57587" lon="7.49178">
        <ele>1289.27</ele>
        <time>2019-04-06T14:36:17Z</time>
      </trkpt>
      <trkpt lat="60.57627" lon="7.4919">
        <ele>1289.75</ele>
        <time>2019-04-06T14:36:21Z</time>
      </trkpt>
      <trkpt lat="60.57651" lon="7.49198">
        <ele>1295.03</ele>
        <time>2019-04-06T14:36:24Z</time>
      </trkpt>
      <trkpt lat="60.57677" lon="7.49211">
        <ele>1299.84</ele>
        <time>2019-04-06T14:36:28Z</time>
      </trkpt>
      <trkpt lat="60.57686" lon="7.49217">
        <ele>1300.8</ele>
        <time>2019-04-06T14:36:30Z</time>
      </trkpt>
      <trkpt lat="60.57695" lon="7.49224">
        <ele>1302.24</ele>
        <time>2019-04-06T14:36:32Z</time>
      </trkpt>
      <trkpt lat="60.57716" lon="7.49235">
        <ele>1304.65</ele>
        <time>2019-04-06T14:36:36Z</time>
      </trkpt>
      <trkpt lat="60.57736" lon="7.49252">
        <ele>1306.57</ele>
        <time>2019-04-06T14:36:40Z</time>
      </trkpt>
      <trkpt lat="60.57775" lon="7.49278">
        <ele>1309.93</ele>
        <time>2019-04-06T14:36:47Z</time>
      </trkpt>
      <trkpt lat="60.57787" lon="7.49287">
        <ele>1311.38</ele>
        <time>2019-04-06T14:36:49Z</time>
      </trkpt>
      <trkpt lat="60.57792" lon="7.49292">
        <ele>1311.38</ele>
        <time>2019-04-06T14:36:50Z</time>
      </trkpt>
      <trkpt lat="60.57814" lon="7.49349">
        <ele>1312.82</ele>
        <time>2019-04-06T14:36:57Z</time>
      </trkpt>
      <trkpt lat="60.57817" lon="7.49355">
        <ele>1313.3</ele>
        <time>2019-04-06T14:36:58Z</time>
      </trkpt>
      <trkpt lat="60.57859" lon="7.49454">
        <ele>1311.86</ele>
        <time>2019-04-06T14:37:12Z</time>
      </trkpt>
      <trkpt lat="60.57873" lon="7.49492">
        <ele>1311.38</ele>
        <time>2019-04-06T14:37:16Z</time>
      </trkpt>
      <trkpt lat="60.57909" lon="7.49558">
        <ele>1309.45</ele>
        <time>2019-04-06T14:37:23Z</time>
      </trkpt>
      <trkpt lat="60.5793" lon="7.49593">
        <ele>1307.53</ele>
        <time>2019-04-06T14:37:27Z</time>
      </trkpt>
      <trkpt lat="60.57935" lon="7.49603">
        <ele>1307.53</ele>
        <time>2019-04-06T14:37:28Z</time>
      </trkpt>
      <trkpt lat="60.57942" lon="7.49613">
        <ele>1306.09</ele>
        <time>2019-04-06T14:37:29Z</time>
      </trkpt>
      <trkpt lat="60.57949" lon="7.49622">
        <ele>1304.17</ele>
        <time>2019-04-06T14:37:30Z</time>
      </trkpt>
      <trkpt lat="60.57957" lon="7.49632">
        <ele>1304.17</ele>
        <time>2019-04-06T14:37:31Z</time>
      </trkpt>
      <trkpt lat="60.57965" lon="7.49641">
        <ele>1302.72</ele>
        <time>2019-04-06T14:37:32Z</time>
      </trkpt>
      <trkpt lat="60.57974" lon="7.49651">
        <ele>1302.24</ele>
        <time>2019-04-06T14:37:33Z</time>
      </trkpt>
      <trkpt lat="60.58003" lon="7.49681">
        <ele>1306.09</ele>
        <time>2019-04-06T14:37:37Z</time>
      </trkpt>
      <trkpt lat="60.58008" lon="7.49685">
        <ele>1306.09</ele>
        <time>2019-04-06T14:37:38Z</time>
      </trkpt>
      <trkpt lat="60.58014" lon="7.49689">
        <ele>1307.05</ele>
        <time>2019-04-06T14:37:39Z</time>
      </trkpt>
      <trkpt lat="60.58019" lon="7.49694">
        <ele>1308.01</ele>
        <time>2019-04-06T14:37:40Z</time>
      </trkpt>
      <trkpt lat="60.58023" lon="7.49701">
        <ele>1308.49</ele>
        <time>2019-04-06T14:37:41Z</time>
      </trkpt>
      <trkpt lat="60.58031" lon="7.49715">
        <ele>1309.45</ele>
        <time>2019-04-06T14:37:43Z</time>
      </trkpt>
      <trkpt lat="60.58044" lon="7.49742">
        <ele>1309.93</ele>
        <time>2019-04-06T14:37:50Z</time>
      </trkpt>
      <trkpt lat="60.58045" lon="7.49741">
        <ele>1309.93</ele>
        <time>2019-04-06T14:38:05Z</time>
      </trkpt>
      <trkpt lat="60.58045" lon="7.4974">
        <ele>1309.93</ele>
        <time>2019-04-06T14:38:31Z</time>
      </trkpt>
      <trkpt lat="60.58044" lon="7.49742">
        <ele>1309.45</ele>
        <time>2019-04-06T14:38:55Z</time>
      </trkpt>
      <trkpt lat="60.58045" lon="7.49741">
        <ele>1309.45</ele>
        <time>2019-04-06T14:39:11Z</time>
      </trkpt>
      <trkpt lat="60.58046" lon="7.49743">
        <ele>1309.45</ele>
        <time>2019-04-06T14:39:26Z</time>
      </trkpt>
      <trkpt lat="60.58031" lon="7.49736">
        <ele>1309.93</ele>
        <time>2019-04-06T14:39:33Z</time>
      </trkpt>
      <trkpt lat="60.5802" lon="7.49715">
        <ele>1310.41</ele>
        <time>2019-04-06T14:39:38Z</time>
      </trkpt>
      <trkpt lat="60.58014" lon="7.49703">
        <ele>1309.93</ele>
        <time>2019-04-06T14:39:40Z</time>
      </trkpt>
      <trkpt lat="60.58001" lon="7.49689">
        <ele>1308.49</ele>
        <time>2019-04-06T14:39:43Z</time>
      </trkpt>
      <trkpt lat="60.5799" lon="7.49678">
        <ele>1308.01</ele>
        <time>2019-04-06T14:39:45Z</time>
      </trkpt>
      <trkpt lat="60.57969" lon="7.49661">
        <ele>1305.61</ele>
        <time>2019-04-06T14:39:48Z</time>
      </trkpt>
      <trkpt lat="60.57952" lon="7.4965">
        <ele>1304.65</ele>
        <time>2019-04-06T14:39:51Z</time>
      </trkpt>
      <trkpt lat="60.5794" lon="7.49647">
        <ele>1306.57</ele>
        <time>2019-04-06T14:39:53Z</time>
      </trkpt>
      <trkpt lat="60.57934" lon="7.49646">
        <ele>1307.05</ele>
        <time>2019-04-06T14:39:54Z</time>
      </trkpt>
      <trkpt lat="60.57929" lon="7.49645">
        <ele>1307.05</ele>
        <time>2019-04-06T14:39:55Z</time>
      </trkpt>
      <trkpt lat="60.57924" lon="7.49645">
        <ele>1307.53</ele>
        <time>2019-04-06T14:39:56Z</time>
      </trkpt>
      <trkpt lat="60.57919" lon="7.49645">
        <ele>1308.01</ele>
        <time>2019-04-06T14:39:57Z</time>
      </trkpt>
      <trkpt lat="60.57908" lon="7.49648">
        <ele>1309.93</ele>
        <time>2019-04-06T14:40:00Z</time>
      </trkpt>
      <trkpt lat="60.57891" lon="7.49652">
        <ele>1312.34</ele>
        <time>2019-04-06T14:40:10Z</time>
      </trkpt>
      <trkpt lat="60.57892" lon="7.49662">
        <ele>1310.41</ele>
        <time>2019-04-06T14:40:23Z</time>
      </trkpt>
      <trkpt lat="60.57892" lon="7.4966">
        <ele>1310.41</ele>
        <time>2019-04-06T14:40:43Z</time>
      </trkpt>
      <trkpt lat="60.57892" lon="7.49659">
        <ele>1309.93</ele>
        <time>2019-04-06T14:41:07Z</time>
      </trkpt>
      <trkpt lat="60.57893" lon="7.49661">
        <ele>1309.93</ele>
        <time>2019-04-06T14:41:36Z</time>
      </trkpt>
      <trkpt lat="60.57895" lon="7.4966">
        <ele>1309.93</ele>
        <time>2019-04-06T14:41:37Z</time>
      </trkpt>
      <trkpt lat="60.57898" lon="7.49658">
        <ele>1309.93</ele>
        <time>2019-04-06T14:41:38Z</time>
      </trkpt>
      <trkpt lat="60.57901" lon="7.49654">
        <ele>1309.93</ele>
        <time>2019-04-06T14:41:39Z</time>
      </trkpt>
      <trkpt lat="60.57904" lon="7.49648">
        <ele>1308.97</ele>
        <time>2019-04-06T14:41:40Z</time>
      </trkpt>
      <trkpt lat="60.57908" lon="7.49641">
        <ele>1308.49</ele>
        <time>2019-04-06T14:41:41Z</time>
      </trkpt>
      <trkpt lat="60.57911" lon="7.49634">
        <ele>1308.01</ele>
        <time>2019-04-06T14:41:42Z</time>
      </trkpt>
      <trkpt lat="60.57918" lon="7.49619">
        <ele>1308.01</ele>
        <time>2019-04-06T14:41:44Z</time>
      </trkpt>
      <trkpt lat="60.57928" lon="7.49605">
        <ele>1306.09</ele>
        <time>2019-04-06T14:41:46Z</time>
      </trkpt>
      <trkpt lat="60.57933" lon="7.49598">
        <ele>1306.09</ele>
        <time>2019-04-06T14:41:47Z</time>
      </trkpt>
      <trkpt lat="60.57949" lon="7.49582">
        <ele>1307.05</ele>
        <time>2019-04-06T14:41:50Z</time>
      </trkpt>
      <trkpt lat="60.5796" lon="7.49572">
        <ele>1307.05</ele>
        <time>2019-04-06T14:41:52Z</time>
      </trkpt>
      <trkpt lat="60.5797" lon="7.49561">
        <ele>1307.05</ele>
        <time>2019-04-06T14:41:54Z</time>
      </trkpt>
      <trkpt lat="60.5798" lon="7.49555">
        <ele>1309.93</ele>
        <time>2019-04-06T14:41:58Z</time>
      </trkpt>
      <trkpt lat="60.57978" lon="7.49559">
        <ele>1309.93</ele>
        <time>2019-04-06T14:41:59Z</time>
      </trkpt>
      <trkpt lat="60.57958" lon="7.49559">
        <ele>1310.41</ele>
        <time>2019-04-06T14:42:03Z</time>
      </trkpt>
      <trkpt lat="60.57925" lon="7.49547">
        <ele>1311.38</ele>
        <time>2019-04-06T14:42:09Z</time>
      </trkpt>
      <trkpt lat="60.57905" lon="7.49534">
        <ele>1312.82</ele>
        <time>2019-04-06T14:42:13Z</time>
      </trkpt>
      <trkpt lat="60.57888" lon="7.49524">
        <ele>1312.34</ele>
        <time>2019-04-06T14:42:16Z</time>
      </trkpt>
      <trkpt lat="60.57871" lon="7.4951">
        <ele>1312.82</ele>
        <time>2019-04-06T14:42:19Z</time>
      </trkpt>
      <trkpt lat="60.57843" lon="7.49496">
        <ele>1314.74</ele>
        <time>2019-04-06T14:42:29Z</time>
      </trkpt>
      <trkpt lat="60.57846" lon="7.49499">
        <ele>1314.74</ele>
        <time>2019-04-06T14:42:58Z</time>
      </trkpt>
      <trkpt lat="60.57845" lon="7.49499">
        <ele>1314.26</ele>
        <time>2019-04-06T14:43:30Z</time>
      </trkpt>
      <trkpt lat="60.57844" lon="7.49499">
        <ele>1314.26</ele>
        <time>2019-04-06T14:43:45Z</time>
      </trkpt>
      <trkpt lat="60.57826" lon="7.49483">
        <ele>1316.66</ele>
        <time>2019-04-06T14:43:52Z</time>
      </trkpt>
      <trkpt lat="60.57776" lon="7.49419">
        <ele>1313.3</ele>
        <time>2019-04-06T14:44:04Z</time>
      </trkpt>
      <trkpt lat="60.57767" lon="7.49404">
        <ele>1312.34</ele>
        <time>2019-04-06T14:44:06Z</time>
      </trkpt>
      <trkpt lat="60.57755" lon="7.49379">
        <ele>1311.86</ele>
        <time>2019-04-06T14:44:09Z</time>
      </trkpt>
      <trkpt lat="60.57723" lon="7.49328">
        <ele>1308.49</ele>
        <time>2019-04-06T14:44:15Z</time>
      </trkpt>
      <trkpt lat="60.57717" lon="7.4932">
        <ele>1308.49</ele>
        <time>2019-04-06T14:44:16Z</time>
      </trkpt>
      <trkpt lat="60.57689" lon="7.49288">
        <ele>1304.65</ele>
        <time>2019-04-06T14:44:20Z</time>
      </trkpt>
      <trkpt lat="60.57656" lon="7.49262">
        <ele>1300.32</ele>
        <time>2019-04-06T14:44:24Z</time>
      </trkpt>
      <trkpt lat="60.57648" lon="7.49255">
        <ele>1298.88</ele>
        <time>2019-04-06T14:44:25Z</time>
      </trkpt>
      <trkpt lat="60.57606" lon="7.49237">
        <ele>1294.07</ele>
        <time>2019-04-06T14:44:29Z</time>
      </trkpt>
      <trkpt lat="60.57595" lon="7.49233">
        <ele>1293.59</ele>
        <time>2019-04-06T14:44:30Z</time>
      </trkpt>
      <trkpt lat="60.57576" lon="7.49226">
        <ele>1291.67</ele>
        <time>2019-04-06T14:44:32Z</time>
      </trkpt>
      <trkpt lat="60.57522" lon="7.49215">
        <ele>1293.59</ele>
        <time>2019-04-06T14:44:38Z</time>
      </trkpt>
      <trkpt lat="60.57482" lon="7.49209">
        <ele>1290.71</ele>
        <time>2019-04-06T14:44:42Z</time>
      </trkpt>
      <trkpt lat="60.57472" lon="7.49207">
        <ele>1290.71</ele>
        <time>2019-04-06T14:44:43Z</time>
      </trkpt>
      <trkpt lat="60.5742" lon="7.49199">
        <ele>1293.11</ele>
        <time>2019-04-06T14:44:49Z</time>
      </trkpt>
      <trkpt lat="60.5738" lon="7.49193">
        <ele>1294.55</ele>
        <time>2019-04-06T14:44:55Z</time>
      </trkpt>
      <trkpt lat="60.57363" lon="7.49203">
        <ele>1295.99</ele>
        <time>2019-04-06T14:44:59Z</time>
      </trkpt>
      <trkpt lat="60.57347" lon="7.49216">
        <ele>1297.44</ele>
        <time>2019-04-06T14:45:03Z</time>
      </trkpt>
      <trkpt lat="60.57325" lon="7.49228">
        <ele>1299.36</ele>
        <time>2019-04-06T14:45:08Z</time>
      </trkpt>
      <trkpt lat="60.57311" lon="7.49237">
        <ele>1301.28</ele>
        <time>2019-04-06T14:45:11Z</time>
      </trkpt>
      <trkpt lat="60.573" lon="7.49242">
        <ele>1302.72</ele>
        <time>2019-04-06T14:45:13Z</time>
      </trkpt>
      <trkpt lat="60.57289" lon="7.49245">
        <ele>1303.69</ele>
        <time>2019-04-06T14:45:15Z</time>
      </trkpt>
      <trkpt lat="60.57258" lon="7.49258">
        <ele>1306.57</ele>
        <time>2019-04-06T14:45:20Z</time>
      </trkpt>
      <trkpt lat="60.57244" lon="7.49262">
        <ele>1307.53</ele>
        <time>2019-04-06T14:45:22Z</time>
      </trkpt>
      <trkpt lat="60.57236" lon="7.49264">
        <ele>1308.01</ele>
        <time>2019-04-06T14:45:23Z</time>
      </trkpt>
      <trkpt lat="60.57209" lon="7.49267">
        <ele>1308.97</ele>
        <time>2019-04-06T14:45:27Z</time>
      </trkpt>
      <trkpt lat="60.57184" lon="7.49285">
        <ele>1310.41</ele>
        <time>2019-04-06T14:45:32Z</time>
      </trkpt>
      <trkpt lat="60.57164" lon="7.49295">
        <ele>1312.82</ele>
        <time>2019-04-06T14:45:36Z</time>
      </trkpt>
      <trkpt lat="60.57152" lon="7.49302">
        <ele>1315.7</ele>
        <time>2019-04-06T14:45:39Z</time>
      </trkpt>
      <trkpt lat="60.57148" lon="7.49303">
        <ele>1317.14</ele>
        <time>2019-04-06T14:45:40Z</time>
      </trkpt>
      <trkpt lat="60.57122" lon="7.49308">
        <ele>1320.99</ele>
        <time>2019-04-06T14:45:46Z</time>
      </trkpt>
      <trkpt lat="60.57118" lon="7.4931">
        <ele>1321.47</ele>
        <time>2019-04-06T14:45:47Z</time>
      </trkpt>
      <trkpt lat="60.57112" lon="7.49313">
        <ele>1323.39</ele>
        <time>2019-04-06T14:45:49Z</time>
      </trkpt>
      <trkpt lat="60.571" lon="7.49325">
        <ele>1324.83</ele>
        <time>2019-04-06T14:45:56Z</time>
      </trkpt>
      <trkpt lat="60.57089" lon="7.49345">
        <ele>1328.2</ele>
        <time>2019-04-06T14:46:02Z</time>
      </trkpt>
      <trkpt lat="60.57087" lon="7.49355">
        <ele>1328.68</ele>
        <time>2019-04-06T14:46:04Z</time>
      </trkpt>
      <trkpt lat="60.57084" lon="7.4936">
        <ele>1330.12</ele>
        <time>2019-04-06T14:46:06Z</time>
      </trkpt>
      <trkpt lat="60.57076" lon="7.49376">
        <ele>1332.52</ele>
        <time>2019-04-06T14:46:11Z</time>
      </trkpt>
      <trkpt lat="60.57074" lon="7.49379">
        <ele>1333.49</ele>
        <time>2019-04-06T14:46:12Z</time>
      </trkpt>
      <trkpt lat="60.5707" lon="7.49385">
        <ele>1334.45</ele>
        <time>2019-04-06T14:46:15Z</time>
      </trkpt>
      <trkpt lat="60.57065" lon="7.49396">
        <ele>1335.89</ele>
        <time>2019-04-06T14:46:20Z</time>
      </trkpt>
      <trkpt lat="60.57073" lon="7.49386">
        <ele>1333.49</ele>
        <time>2019-04-06T14:46:25Z</time>
      </trkpt>
      <trkpt lat="60.57085" lon="7.49345">
        <ele>1328.68</ele>
        <time>2019-04-06T14:46:29Z</time>
      </trkpt>
      <trkpt lat="60.57091" lon="7.49322">
        <ele>1325.8</ele>
        <time>2019-04-06T14:46:31Z</time>
      </trkpt>
      <trkpt lat="60.57101" lon="7.49289">
        <ele>1324.35</ele>
        <time>2019-04-06T14:46:34Z</time>
      </trkpt>
      <trkpt lat="60.57104" lon="7.49279">
        <ele>1322.91</ele>
        <time>2019-04-06T14:46:35Z</time>
      </trkpt>
      <trkpt lat="60.57122" lon="7.49256">
        <ele>1320.51</ele>
        <time>2019-04-06T14:46:39Z</time>
      </trkpt>
      <trkpt lat="60.57127" lon="7.49247">
        <ele>1318.59</ele>
        <time>2019-04-06T14:46:40Z</time>
      </trkpt>
      <trkpt lat="60.57152" lon="7.49198">
        <ele>1312.34</ele>
        <time>2019-04-06T14:46:45Z</time>
      </trkpt>
      <trkpt lat="60.57156" lon="7.49188">
        <ele>1312.34</ele>
        <time>2019-04-06T14:46:46Z</time>
      </trkpt>
      <trkpt lat="60.57208" lon="7.49095">
        <ele>1314.26</ele>
        <time>2019-04-06T14:46:59Z</time>
      </trkpt>
      <trkpt lat="60.57231" lon="7.49051">
        <ele>1315.7</ele>
        <time>2019-04-06T14:47:06Z</time>
      </trkpt>
      <trkpt lat="60.57244" lon="7.49023">
        <ele>1315.7</ele>
        <time>2019-04-06T14:47:10Z</time>
      </trkpt>
      <trkpt lat="60.57265" lon="7.4898">
        <ele>1313.78</ele>
        <time>2019-04-06T14:47:16Z</time>
      </trkpt>
      <trkpt lat="60.57267" lon="7.4899">
        <ele>1313.3</ele>
        <time>2019-04-06T14:47:21Z</time>
      </trkpt>
      <trkpt lat="60.57261" lon="7.48997">
        <ele>1315.22</ele>
        <time>2019-04-06T14:47:23Z</time>
      </trkpt>
      <trkpt lat="60.57238" lon="7.49014">
        <ele>1318.59</ele>
        <time>2019-04-06T14:47:30Z</time>
      </trkpt>
      <trkpt lat="60.57233" lon="7.49015">
        <ele>1319.07</ele>
        <time>2019-04-06T14:47:31Z</time>
      </trkpt>
      <trkpt lat="60.57219" lon="7.49026">
        <ele>1321.47</ele>
        <time>2019-04-06T14:47:34Z</time>
      </trkpt>
      <trkpt lat="60.57206" lon="7.4903">
        <ele>1322.43</ele>
        <time>2019-04-06T14:47:36Z</time>
      </trkpt>
      <trkpt lat="60.57185" lon="7.49037">
        <ele>1323.39</ele>
        <time>2019-04-06T14:47:39Z</time>
      </trkpt>
      <trkpt lat="60.57114" lon="7.49053">
        <ele>1327.72</ele>
        <time>2019-04-06T14:47:48Z</time>
      </trkpt>
      <trkpt lat="60.57109" lon="7.49054">
        <ele>1328.2</ele>
        <time>2019-04-06T14:47:49Z</time>
      </trkpt>
      <trkpt lat="60.57092" lon="7.49065">
        <ele>1330.12</ele>
        <time>2019-04-06T14:47:53Z</time>
      </trkpt>
      <trkpt lat="60.57073" lon="7.49088">
        <ele>1333.49</ele>
        <time>2019-04-06T14:47:59Z</time>
      </trkpt>
      <trkpt lat="60.5707" lon="7.49093">
        <ele>1333.97</ele>
        <time>2019-04-06T14:48:00Z</time>
      </trkpt>
      <trkpt lat="60.57055" lon="7.49119">
        <ele>1337.33</ele>
        <time>2019-04-06T14:48:06Z</time>
      </trkpt>
      <trkpt lat="60.57043" lon="7.49129">
        <ele>1340.22</ele>
        <time>2019-04-06T14:48:11Z</time>
      </trkpt>
      <trkpt lat="60.57035" lon="7.49143">
        <ele>1341.66</ele>
        <time>2019-04-06T14:48:16Z</time>
      </trkpt>
      <trkpt lat="60.57053" lon="7.49128">
        <ele>1338.29</ele>
        <time>2019-04-06T14:48:22Z</time>
      </trkpt>
      <trkpt lat="60.57068" lon="7.49084">
        <ele>1332.04</ele>
        <time>2019-04-06T14:48:26Z</time>
      </trkpt>
      <trkpt lat="60.57075" lon="7.4906">
        <ele>1332.04</ele>
        <time>2019-04-06T14:48:28Z</time>
      </trkpt>
      <trkpt lat="60.57088" lon="7.49015">
        <ele>1330.12</ele>
        <time>2019-04-06T14:48:33Z</time>
      </trkpt>
      <trkpt lat="60.57096" lon="7.49001">
        <ele>1328.68</ele>
        <time>2019-04-06T14:48:35Z</time>
      </trkpt>
      <trkpt lat="60.57127" lon="7.48946">
        <ele>1327.24</ele>
        <time>2019-04-06T14:48:42Z</time>
      </trkpt>
      <trkpt lat="60.57146" lon="7.48924">
        <ele>1328.2</ele>
        <time>2019-04-06T14:48:46Z</time>
      </trkpt>
      <trkpt lat="60.57155" lon="7.48914">
        <ele>1328.68</ele>
        <time>2019-04-06T14:48:48Z</time>
      </trkpt>
      <trkpt lat="60.5719" lon="7.48879">
        <ele>1332.52</ele>
        <time>2019-04-06T14:48:56Z</time>
      </trkpt>
      <trkpt lat="60.57216" lon="7.48838">
        <ele>1333.49</ele>
        <time>2019-04-06T14:49:06Z</time>
      </trkpt>
      <trkpt lat="60.57219" lon="7.48831">
        <ele>1334.45</ele>
        <time>2019-04-06T14:49:08Z</time>
      </trkpt>
      <trkpt lat="60.57205" lon="7.48849">
        <ele>1334.93</ele>
        <time>2019-04-06T14:49:14Z</time>
      </trkpt>
      <trkpt lat="60.57188" lon="7.48852">
        <ele>1336.85</ele>
        <time>2019-04-06T14:49:17Z</time>
      </trkpt>
      <trkpt lat="60.57179" lon="7.48851">
        <ele>1338.77</ele>
        <time>2019-04-06T14:49:19Z</time>
      </trkpt>
      <trkpt lat="60.57169" lon="7.48852">
        <ele>1338.77</ele>
        <time>2019-04-06T14:49:21Z</time>
      </trkpt>
      <trkpt lat="60.57148" lon="7.48854">
        <ele>1339.25</ele>
        <time>2019-04-06T14:49:25Z</time>
      </trkpt>
      <trkpt lat="60.57134" lon="7.48852">
        <ele>1339.25</ele>
        <time>2019-04-06T14:49:28Z</time>
      </trkpt>
      <trkpt lat="60.57108" lon="7.48849">
        <ele>1339.25</ele>
        <time>2019-04-06T14:49:33Z</time>
      </trkpt>
      <trkpt lat="60.5709" lon="7.48849">
        <ele>1339.25</ele>
        <time>2019-04-06T14:49:36Z</time>
      </trkpt>
      <trkpt lat="60.57059" lon="7.48856">
        <ele>1341.18</ele>
        <time>2019-04-06T14:49:42Z</time>
      </trkpt>
      <trkpt lat="60.57047" lon="7.48871">
        <ele>1343.1</ele>
        <time>2019-04-06T14:49:50Z</time>
      </trkpt>
      <trkpt lat="60.57057" lon="7.48865">
        <ele>1340.7</ele>
        <time>2019-04-06T14:49:54Z</time>
      </trkpt>
      <trkpt lat="60.57072" lon="7.48845">
        <ele>1336.37</ele>
        <time>2019-04-06T14:49:57Z</time>
      </trkpt>
      <trkpt lat="60.57082" lon="7.48829">
        <ele>1338.29</ele>
        <time>2019-04-06T14:49:59Z</time>
      </trkpt>
      <trkpt lat="60.571" lon="7.48805">
        <ele>1338.29</ele>
        <time>2019-04-06T14:50:03Z</time>
      </trkpt>
      <trkpt lat="60.57108" lon="7.48797">
        <ele>1339.25</ele>
        <time>2019-04-06T14:50:05Z</time>
      </trkpt>
      <trkpt lat="60.57122" lon="7.48786">
        <ele>1341.18</ele>
        <time>2019-04-06T14:50:08Z</time>
      </trkpt>
      <trkpt lat="60.57135" lon="7.48773">
        <ele>1342.62</ele>
        <time>2019-04-06T14:50:11Z</time>
      </trkpt>
      <trkpt lat="60.57158" lon="7.48759">
        <ele>1345.5</ele>
        <time>2019-04-06T14:50:17Z</time>
      </trkpt>
      <trkpt lat="60.57161" lon="7.48764">
        <ele>1346.46</ele>
        <time>2019-04-06T14:50:19Z</time>
      </trkpt>
      <trkpt lat="60.57155" lon="7.48767">
        <ele>1346.46</ele>
        <time>2019-04-06T14:50:21Z</time>
      </trkpt>
      <trkpt lat="60.57113" lon="7.48763">
        <ele>1346.46</ele>
        <time>2019-04-06T14:50:29Z</time>
      </trkpt>
      <trkpt lat="60.5708" lon="7.48767">
        <ele>1344.06</ele>
        <time>2019-04-06T14:50:35Z</time>
      </trkpt>
      <trkpt lat="60.57051" lon="7.48775">
        <ele>1345.98</ele>
        <time>2019-04-06T14:50:41Z</time>
      </trkpt>
      <trkpt lat="60.57043" lon="7.48781">
        <ele>1346.94</ele>
        <time>2019-04-06T14:50:43Z</time>
      </trkpt>
      <trkpt lat="60.57031" lon="7.48791">
        <ele>1348.87</ele>
        <time>2019-04-06T14:50:47Z</time>
      </trkpt>
      <trkpt lat="60.57018" lon="7.48799">
        <ele>1350.31</ele>
        <time>2019-04-06T14:50:51Z</time>
      </trkpt>
      <trkpt lat="60.56997" lon="7.488">
        <ele>1352.23</ele>
        <time>2019-04-06T14:50:56Z</time>
      </trkpt>
      <trkpt lat="60.56994" lon="7.488">
        <ele>1353.19</ele>
        <time>2019-04-06T14:50:57Z</time>
      </trkpt>
      <trkpt lat="60.56982" lon="7.48801">
        <ele>1354.63</ele>
        <time>2019-04-06T14:51:00Z</time>
      </trkpt>
      <trkpt lat="60.56973" lon="7.48803">
        <ele>1357.04</ele>
        <time>2019-04-06T14:51:03Z</time>
      </trkpt>
      <trkpt lat="60.56954" lon="7.4882">
        <ele>1355.6</ele>
        <time>2019-04-06T14:51:12Z</time>
      </trkpt>
      <trkpt lat="60.56966" lon="7.48817">
        <ele>1354.15</ele>
        <time>2019-04-06T14:51:20Z</time>
      </trkpt>
      <trkpt lat="60.56971" lon="7.48809">
        <ele>1354.15</ele>
        <time>2019-04-06T14:51:23Z</time>
      </trkpt>
      <trkpt lat="60.56988" lon="7.48775">
        <ele>1352.71</ele>
        <time>2019-04-06T14:51:33Z</time>
      </trkpt>
      <trkpt lat="60.56993" lon="7.4877">
        <ele>1352.23</ele>
        <time>2019-04-06T14:51:35Z</time>
      </trkpt>
      <trkpt lat="60.57006" lon="7.48758">
        <ele>1351.27</ele>
        <time>2019-04-06T14:51:44Z</time>
      </trkpt>
      <trkpt lat="60.57017" lon="7.4874">
        <ele>1348.87</ele>
        <time>2019-04-06T14:51:59Z</time>
      </trkpt>
      <trkpt lat="60.57023" lon="7.48728">
        <ele>1348.87</ele>
        <time>2019-04-06T14:52:01Z</time>
      </trkpt>
      <trkpt lat="60.57038" lon="7.48708">
        <ele>1349.83</ele>
        <time>2019-04-06T14:52:06Z</time>
      </trkpt>
      <trkpt lat="60.57038" lon="7.48717">
        <ele>1352.23</ele>
        <time>2019-04-06T14:52:11Z</time>
      </trkpt>
      <trkpt lat="60.57012" lon="7.48715">
        <ele>1351.75</ele>
        <time>2019-04-06T14:52:18Z</time>
      </trkpt>
      <trkpt lat="60.57005" lon="7.4872">
        <ele>1354.15</ele>
        <time>2019-04-06T14:52:21Z</time>
      </trkpt>
      <trkpt lat="60.56991" lon="7.48725">
        <ele>1356.08</ele>
        <time>2019-04-06T14:52:26Z</time>
      </trkpt>
      <trkpt lat="60.56971" lon="7.48725">
        <ele>1357.52</ele>
        <time>2019-04-06T14:52:31Z</time>
      </trkpt>
      <trkpt lat="60.56959" lon="7.48727">
        <ele>1359.44</ele>
        <time>2019-04-06T14:52:34Z</time>
      </trkpt>
      <trkpt lat="60.56954" lon="7.48728">
        <ele>1359.44</ele>
        <time>2019-04-06T14:52:35Z</time>
      </trkpt>
      <trkpt lat="60.56931" lon="7.48727">
        <ele>1362.81</ele>
        <time>2019-04-06T14:52:40Z</time>
      </trkpt>
      <trkpt lat="60.56916" lon="7.48726">
        <ele>1364.25</ele>
        <time>2019-04-06T14:52:44Z</time>
      </trkpt>
      <trkpt lat="60.56913" lon="7.48729">
        <ele>1363.77</ele>
        <time>2019-04-06T14:52:51Z</time>
      </trkpt>
      <trkpt lat="60.56917" lon="7.48724">
        <ele>1361.36</ele>
        <time>2019-04-06T14:52:52Z</time>
      </trkpt>
      <trkpt lat="60.56932" lon="7.48702">
        <ele>1358.96</ele>
        <time>2019-04-06T14:52:55Z</time>
      </trkpt>
      <trkpt lat="60.56954" lon="7.48667">
        <ele>1358.96</ele>
        <time>2019-04-06T14:53:00Z</time>
      </trkpt>
      <trkpt lat="60.56962" lon="7.48653">
        <ele>1360.4</ele>
        <time>2019-04-06T14:53:02Z</time>
      </trkpt>
      <trkpt lat="60.5697" lon="7.48638">
        <ele>1360.88</ele>
        <time>2019-04-06T14:53:04Z</time>
      </trkpt>
      <trkpt lat="60.56985" lon="7.48604">
        <ele>1360.88</ele>
        <time>2019-04-06T14:53:08Z</time>
      </trkpt>
      <trkpt lat="60.57002" lon="7.48559">
        <ele>1360.4</ele>
        <time>2019-04-06T14:53:15Z</time>
      </trkpt>
      <trkpt lat="60.57005" lon="7.48562">
        <ele>1361.84</ele>
        <time>2019-04-06T14:53:17Z</time>
      </trkpt>
      <trkpt lat="60.56993" lon="7.48571">
        <ele>1363.29</ele>
        <time>2019-04-06T14:53:23Z</time>
      </trkpt>
      <trkpt lat="60.56973" lon="7.48569">
        <ele>1367.13</ele>
        <time>2019-04-06T14:53:28Z</time>
      </trkpt>
      <trkpt lat="60.56966" lon="7.48566">
        <ele>1368.09</ele>
        <time>2019-04-06T14:53:30Z</time>
      </trkpt>
      <trkpt lat="60.56942" lon="7.48564">
        <ele>1370.98</ele>
        <time>2019-04-06T14:53:36Z</time>
      </trkpt>
      <trkpt lat="60.56939" lon="7.48564">
        <ele>1370.98</ele>
        <time>2019-04-06T14:53:37Z</time>
      </trkpt>
      <trkpt lat="60.56932" lon="7.48567">
        <ele>1368.57</ele>
        <time>2019-04-06T14:53:40Z</time>
      </trkpt>
      <trkpt lat="60.56926" lon="7.48574">
        <ele>1368.57</ele>
        <time>2019-04-06T14:53:44Z</time>
      </trkpt>
      <trkpt lat="60.56934" lon="7.48572">
        <ele>1367.61</ele>
        <time>2019-04-06T14:53:48Z</time>
      </trkpt>
      <trkpt lat="60.56948" lon="7.48543">
        <ele>1365.69</ele>
        <time>2019-04-06T14:53:52Z</time>
      </trkpt>
      <trkpt lat="60.56969" lon="7.48498">
        <ele>1367.61</ele>
        <time>2019-04-06T14:53:58Z</time>
      </trkpt>
      <trkpt lat="60.56975" lon="7.48486">
        <ele>1367.61</ele>
        <time>2019-04-06T14:54:00Z</time>
      </trkpt>
      <trkpt lat="60.56982" lon="7.48473">
        <ele>1368.09</ele>
        <time>2019-04-06T14:54:02Z</time>
      </trkpt>
      <trkpt lat="60.56994" lon="7.48455">
        <ele>1368.09</ele>
        <time>2019-04-06T14:54:06Z</time>
      </trkpt>
      <trkpt lat="60.57013" lon="7.48443">
        <ele>1368.09</ele>
        <time>2019-04-06T14:54:14Z</time>
      </trkpt>
      <trkpt lat="60.57013" lon="7.48443">
        <ele>1368.09</ele>
        <time>2019-04-06T14:54:24Z</time>
      </trkpt>
      <trkpt lat="60.57014" lon="7.4844">
        <ele>1368.57</ele>
        <time>2019-04-06T14:54:42Z</time>
      </trkpt>
      <trkpt lat="60.57008" lon="7.4844">
        <ele>1369.05</ele>
        <time>2019-04-06T14:54:45Z</time>
      </trkpt>
      <trkpt lat="60.56978" lon="7.4843">
        <ele>1371.94</ele>
        <time>2019-04-06T14:54:53Z</time>
      </trkpt>
      <trkpt lat="60.56967" lon="7.48427">
        <ele>1373.86</ele>
        <time>2019-04-06T14:54:56Z</time>
      </trkpt>
      <trkpt lat="60.56955" lon="7.48422">
        <ele>1376.26</ele>
        <time>2019-04-06T14:54:59Z</time>
      </trkpt>
      <trkpt lat="60.5694" lon="7.48421">
        <ele>1379.63</ele>
        <time>2019-04-06T14:55:04Z</time>
      </trkpt>
      <trkpt lat="60.56938" lon="7.48421">
        <ele>1379.63</ele>
        <time>2019-04-06T14:55:05Z</time>
      </trkpt>
      <trkpt lat="60.56924" lon="7.48424">
        <ele>1382.99</ele>
        <time>2019-04-06T14:55:11Z</time>
      </trkpt>
      <trkpt lat="60.56922" lon="7.48425">
        <ele>1383.96</ele>
        <time>2019-04-06T14:55:13Z</time>
      </trkpt>
      <trkpt lat="60.56919" lon="7.48427">
        <ele>1384.44</ele>
        <time>2019-04-06T14:55:18Z</time>
      </trkpt>
      <trkpt lat="60.56928" lon="7.48422">
        <ele>1379.15</ele>
        <time>2019-04-06T14:55:22Z</time>
      </trkpt>
      <trkpt lat="60.56953" lon="7.48382">
        <ele>1376.26</ele>
        <time>2019-04-06T14:55:28Z</time>
      </trkpt>
      <trkpt lat="60.56967" lon="7.48361">
        <ele>1379.63</ele>
        <time>2019-04-06T14:55:32Z</time>
      </trkpt>
      <trkpt lat="60.5698" lon="7.48345">
        <ele>1381.55</ele>
        <time>2019-04-06T14:55:36Z</time>
      </trkpt>
      <trkpt lat="60.56993" lon="7.48326">
        <ele>1383.47</ele>
        <time>2019-04-06T14:55:41Z</time>
      </trkpt>
      <trkpt lat="60.56981" lon="7.48331">
        <ele>1385.4</ele>
        <time>2019-04-06T14:55:49Z</time>
      </trkpt>
      <trkpt lat="60.56977" lon="7.48331">
        <ele>1385.4</ele>
        <time>2019-04-06T14:55:50Z</time>
      </trkpt>
      <trkpt lat="60.56973" lon="7.48331">
        <ele>1386.84</ele>
        <time>2019-04-06T14:55:51Z</time>
      </trkpt>
      <trkpt lat="60.56958" lon="7.48329">
        <ele>1387.8</ele>
        <time>2019-04-06T14:55:54Z</time>
      </trkpt>
      <trkpt lat="60.56953" lon="7.48328">
        <ele>1388.76</ele>
        <time>2019-04-06T14:55:55Z</time>
      </trkpt>
      <trkpt lat="60.56937" lon="7.48332">
        <ele>1392.61</ele>
        <time>2019-04-06T14:56:01Z</time>
      </trkpt>
      <trkpt lat="60.56931" lon="7.48333">
        <ele>1393.57</ele>
        <time>2019-04-06T14:56:03Z</time>
      </trkpt>
      <trkpt lat="60.5692" lon="7.48338">
        <ele>1395.97</ele>
        <time>2019-04-06T14:56:07Z</time>
      </trkpt>
      <trkpt lat="60.5691" lon="7.48341">
        <ele>1397.89</ele>
        <time>2019-04-06T14:56:10Z</time>
      </trkpt>
      <trkpt lat="60.56907" lon="7.4834">
        <ele>1397.89</ele>
        <time>2019-04-06T14:56:11Z</time>
      </trkpt>
      <trkpt lat="60.5689" lon="7.48342">
        <ele>1402.22</ele>
        <time>2019-04-06T14:56:16Z</time>
      </trkpt>
      <trkpt lat="60.56883" lon="7.48343">
        <ele>1403.18</ele>
        <time>2019-04-06T14:56:19Z</time>
      </trkpt>
      <trkpt lat="60.56886" lon="7.48346">
        <ele>1401.26</ele>
        <time>2019-04-06T14:56:23Z</time>
      </trkpt>
      <trkpt lat="60.56918" lon="7.48294">
        <ele>1401.26</ele>
        <time>2019-04-06T14:56:33Z</time>
      </trkpt>
      <trkpt lat="60.56925" lon="7.48282">
        <ele>1399.82</ele>
        <time>2019-04-06T14:56:35Z</time>
      </trkpt>
      <trkpt lat="60.56943" lon="7.48254">
        <ele>1399.34</ele>
        <time>2019-04-06T14:56:40Z</time>
      </trkpt>
      <trkpt lat="60.56963" lon="7.48228">
        <ele>1394.53</ele>
        <time>2019-04-06T14:56:44Z</time>
      </trkpt>
      <trkpt lat="60.56972" lon="7.48219">
        <ele>1397.41</ele>
        <time>2019-04-06T14:56:46Z</time>
      </trkpt>
      <trkpt lat="60.56977" lon="7.48212">
        <ele>1399.34</ele>
        <time>2019-04-06T14:56:48Z</time>
      </trkpt>
      <trkpt lat="60.56979" lon="7.48209">
        <ele>1400.78</ele>
        <time>2019-04-06T14:56:49Z</time>
      </trkpt>
      <trkpt lat="60.56981" lon="7.48209">
        <ele>1403.18</ele>
        <time>2019-04-06T14:56:51Z</time>
      </trkpt>
      <trkpt lat="60.56983" lon="7.48211">
        <ele>1403.18</ele>
        <time>2019-04-06T14:56:53Z</time>
      </trkpt>
      <trkpt lat="60.56986" lon="7.48213">
        <ele>1403.18</ele>
        <time>2019-04-06T14:56:55Z</time>
      </trkpt>
      <trkpt lat="60.56978" lon="7.48214">
        <ele>1403.66</ele>
        <time>2019-04-06T14:56:59Z</time>
      </trkpt>
      <trkpt lat="60.56948" lon="7.48208">
        <ele>1407.99</ele>
        <time>2019-04-06T14:57:06Z</time>
      </trkpt>
      <trkpt lat="60.56944" lon="7.48208">
        <ele>1408.47</ele>
        <time>2019-04-06T14:57:08Z</time>
      </trkpt>
      <trkpt lat="60.56927" lon="7.48213">
        <ele>1411.35</ele>
        <time>2019-04-06T14:57:14Z</time>
      </trkpt>
      <trkpt lat="60.56908" lon="7.48216">
        <ele>1411.83</ele>
        <time>2019-04-06T14:57:21Z</time>
      </trkpt>
      <trkpt lat="60.56903" lon="7.48223">
        <ele>1411.83</ele>
        <time>2019-04-06T14:57:26Z</time>
      </trkpt>
      <trkpt lat="60.56914" lon="7.48217">
        <ele>1410.39</ele>
        <time>2019-04-06T14:57:30Z</time>
      </trkpt>
      <trkpt lat="60.56929" lon="7.48197">
        <ele>1406.55</ele>
        <time>2019-04-06T14:57:33Z</time>
      </trkpt>
      <trkpt lat="60.56938" lon="7.48183">
        <ele>1408.47</ele>
        <time>2019-04-06T14:57:35Z</time>
      </trkpt>
      <trkpt lat="60.56957" lon="7.4815">
        <ele>1407.03</ele>
        <time>2019-04-06T14:57:40Z</time>
      </trkpt>
      <trkpt lat="60.56966" lon="7.48136">
        <ele>1405.58</ele>
        <time>2019-04-06T14:57:42Z</time>
      </trkpt>
      <trkpt lat="60.56971" lon="7.48129">
        <ele>1405.1</ele>
        <time>2019-04-06T14:57:43Z</time>
      </trkpt>
      <trkpt lat="60.56987" lon="7.48107">
        <ele>1407.99</ele>
        <time>2019-04-06T14:57:47Z</time>
      </trkpt>
      <trkpt lat="60.56995" lon="7.48096">
        <ele>1409.43</ele>
        <time>2019-04-06T14:57:49Z</time>
      </trkpt>
      <trkpt lat="60.57011" lon="7.48077">
        <ele>1413.76</ele>
        <time>2019-04-06T14:57:53Z</time>
      </trkpt>
      <trkpt lat="60.57014" lon="7.48075">
        <ele>1413.76</ele>
        <time>2019-04-06T14:57:54Z</time>
      </trkpt>
      <trkpt lat="60.57011" lon="7.48079">
        <ele>1416.16</ele>
        <time>2019-04-06T14:57:58Z</time>
      </trkpt>
      <trkpt lat="60.57008" lon="7.48078">
        <ele>1417.12</ele>
        <time>2019-04-06T14:58:00Z</time>
      </trkpt>
      <trkpt lat="60.57007" lon="7.48078">
        <ele>1415.68</ele>
        <time>2019-04-06T14:58:02Z</time>
      </trkpt>
      <trkpt lat="60.57007" lon="7.48076">
        <ele>1414.72</ele>
        <time>2019-04-06T14:58:04Z</time>
      </trkpt>
      <trkpt lat="60.57005" lon="7.48075">
        <ele>1413.76</ele>
        <time>2019-04-06T14:58:06Z</time>
      </trkpt>
      <trkpt lat="60.56999" lon="7.4807">
        <ele>1416.16</ele>
        <time>2019-04-06T14:58:10Z</time>
      </trkpt>
      <trkpt lat="60.56991" lon="7.48061">
        <ele>1417.12</ele>
        <time>2019-04-06T14:58:13Z</time>
      </trkpt>
      <trkpt lat="60.56969" lon="7.48049">
        <ele>1416.16</ele>
        <time>2019-04-06T14:58:23Z</time>
      </trkpt>
      <trkpt lat="60.5695" lon="7.48047">
        <ele>1416.64</ele>
        <time>2019-04-06T14:58:33Z</time>
      </trkpt>
      <trkpt lat="60.5695" lon="7.48046">
        <ele>1416.64</ele>
        <time>2019-04-06T14:58:34Z</time>
      </trkpt>
      <trkpt lat="60.56942" lon="7.48047">
        <ele>1417.12</ele>
        <time>2019-04-06T14:58:38Z</time>
      </trkpt>
      <trkpt lat="60.56925" lon="7.48049">
        <ele>1421.45</ele>
        <time>2019-04-06T14:58:43Z</time>
      </trkpt>
      <trkpt lat="60.56915" lon="7.4805">
        <ele>1424.81</ele>
        <time>2019-04-06T14:58:46Z</time>
      </trkpt>
      <trkpt lat="60.56913" lon="7.48051">
        <ele>1426.25</ele>
        <time>2019-04-06T14:58:47Z</time>
      </trkpt>
      <trkpt lat="60.56913" lon="7.48056">
        <ele>1423.37</ele>
        <time>2019-04-06T14:58:49Z</time>
      </trkpt>
      <trkpt lat="60.56914" lon="7.48054">
        <ele>1422.89</ele>
        <time>2019-04-06T14:58:50Z</time>
      </trkpt>
      <trkpt lat="60.56919" lon="7.48045">
        <ele>1419.52</ele>
        <time>2019-04-06T14:58:52Z</time>
      </trkpt>
      <trkpt lat="60.56924" lon="7.48034">
        <ele>1417.6</ele>
        <time>2019-04-06T14:58:54Z</time>
      </trkpt>
      <trkpt lat="60.56924" lon="7.4803">
        <ele>1418.56</ele>
        <time>2019-04-06T14:58:55Z</time>
      </trkpt>
      <trkpt lat="60.56932" lon="7.48016">
        <ele>1415.68</ele>
        <time>2019-04-06T14:58:59Z</time>
      </trkpt>
      <trkpt lat="60.56934" lon="7.48012">
        <ele>1415.68</ele>
        <time>2019-04-06T14:59:00Z</time>
      </trkpt>
      <trkpt lat="60.56941" lon="7.47995">
        <ele>1415.68</ele>
        <time>2019-04-06T14:59:05Z</time>
      </trkpt>
      <trkpt lat="60.56945" lon="7.47987">
        <ele>1412.31</ele>
        <time>2019-04-06T14:59:09Z</time>
      </trkpt>
      <trkpt lat="60.56948" lon="7.47984">
        <ele>1412.31</ele>
        <time>2019-04-06T14:59:10Z</time>
      </trkpt>
      <trkpt lat="60.56954" lon="7.47971">
        <ele>1409.91</ele>
        <time>2019-04-06T14:59:13Z</time>
      </trkpt>
      <trkpt lat="60.5696" lon="7.47963">
        <ele>1413.28</ele>
        <time>2019-04-06T14:59:15Z</time>
      </trkpt>
      <trkpt lat="60.56963" lon="7.47959">
        <ele>1411.35</ele>
        <time>2019-04-06T14:59:16Z</time>
      </trkpt>
      <trkpt lat="60.56984" lon="7.47924">
        <ele>1410.87</ele>
        <time>2019-04-06T14:59:21Z</time>
      </trkpt>
      <trkpt lat="60.57005" lon="7.47879">
        <ele>1408.95</ele>
        <time>2019-04-06T14:59:27Z</time>
      </trkpt>
      <trkpt lat="60.57015" lon="7.47857">
        <ele>1410.39</ele>
        <time>2019-04-06T14:59:30Z</time>
      </trkpt>
      <trkpt lat="60.57022" lon="7.47842">
        <ele>1408.95</ele>
        <time>2019-04-06T14:59:32Z</time>
      </trkpt>
      <trkpt lat="60.57044" lon="7.47791">
        <ele>1407.03</ele>
        <time>2019-04-06T14:59:38Z</time>
      </trkpt>
      <trkpt lat="60.57052" lon="7.47771">
        <ele>1405.58</ele>
        <time>2019-04-06T14:59:40Z</time>
      </trkpt>
      <trkpt lat="60.57063" lon="7.4775">
        <ele>1410.39</ele>
        <time>2019-04-06T14:59:44Z</time>
      </trkpt>
      <trkpt lat="60.57062" lon="7.47751">
        <ele>1410.39</ele>
        <time>2019-04-06T14:59:45Z</time>
      </trkpt>
      <trkpt lat="60.57061" lon="7.4775">
        <ele>1412.31</ele>
        <time>2019-04-06T14:59:46Z</time>
      </trkpt>
      <trkpt lat="60.57049" lon="7.47745">
        <ele>1413.28</ele>
        <time>2019-04-06T14:59:49Z</time>
      </trkpt>
      <trkpt lat="60.57043" lon="7.47742">
        <ele>1413.28</ele>
        <time>2019-04-06T14:59:50Z</time>
      </trkpt>
      <trkpt lat="60.57022" lon="7.47728">
        <ele>1415.68</ele>
        <time>2019-04-06T14:59:54Z</time>
      </trkpt>
      <trkpt lat="60.57017" lon="7.47725">
        <ele>1415.68</ele>
        <time>2019-04-06T14:59:55Z</time>
      </trkpt>
      <trkpt lat="60.57006" lon="7.47715">
        <ele>1413.28</ele>
        <time>2019-04-06T14:59:57Z</time>
      </trkpt>
      <trkpt lat="60.56983" lon="7.47695">
        <ele>1415.2</ele>
        <time>2019-04-06T15:00:02Z</time>
      </trkpt>
      <trkpt lat="60.56966" lon="7.47684">
        <ele>1415.2</ele>
        <time>2019-04-06T15:00:07Z</time>
      </trkpt>
      <trkpt lat="60.56946" lon="7.47675">
        <ele>1416.64</ele>
        <time>2019-04-06T15:00:14Z</time>
      </trkpt>
      <trkpt lat="60.56943" lon="7.47674">
        <ele>1416.64</ele>
        <time>2019-04-06T15:00:15Z</time>
      </trkpt>
      <trkpt lat="60.56942" lon="7.47678">
        <ele>1411.35</ele>
        <time>2019-04-06T15:00:18Z</time>
      </trkpt>
      <trkpt lat="60.56945" lon="7.47675">
        <ele>1411.35</ele>
        <time>2019-04-06T15:00:19Z</time>
      </trkpt>
      <trkpt lat="60.56948" lon="7.47664">
        <ele>1408.95</ele>
        <time>2019-04-06T15:00:21Z</time>
      </trkpt>
      <trkpt lat="60.56949" lon="7.47654">
        <ele>1407.99</ele>
        <time>2019-04-06T15:00:23Z</time>
      </trkpt>
      <trkpt lat="60.56951" lon="7.4765">
        <ele>1410.87</ele>
        <time>2019-04-06T15:00:25Z</time>
      </trkpt>
      <trkpt lat="60.56949" lon="7.47652">
        <ele>1412.31</ele>
        <time>2019-04-06T15:00:27Z</time>
      </trkpt>
      <trkpt lat="60.56943" lon="7.47649">
        <ele>1413.76</ele>
        <time>2019-04-06T15:00:29Z</time>
      </trkpt>
      <trkpt lat="60.56929" lon="7.47637">
        <ele>1412.79</ele>
        <time>2019-04-06T15:00:35Z</time>
      </trkpt>
      <trkpt lat="60.56893" lon="7.47608">
        <ele>1412.31</ele>
        <time>2019-04-06T15:00:46Z</time>
      </trkpt>
      <trkpt lat="60.56883" lon="7.47582">
        <ele>1410.39</ele>
        <time>2019-04-06T15:00:54Z</time>
      </trkpt>
      <trkpt lat="60.5688" lon="7.47576">
        <ele>1408.95</ele>
        <time>2019-04-06T15:01:01Z</time>
      </trkpt>
      <trkpt lat="60.56866" lon="7.47572">
        <ele>1407.99</ele>
        <time>2019-04-06T15:01:16Z</time>
      </trkpt>
      <trkpt lat="60.56871" lon="7.47555">
        <ele>1405.1</ele>
        <time>2019-04-06T15:01:21Z</time>
      </trkpt>
      <trkpt lat="60.56872" lon="7.47544">
        <ele>1404.14</ele>
        <time>2019-04-06T15:01:23Z</time>
      </trkpt>
      <trkpt lat="60.56875" lon="7.47524">
        <ele>1401.26</ele>
        <time>2019-04-06T15:01:28Z</time>
      </trkpt>
      <trkpt lat="60.56877" lon="7.47504">
        <ele>1399.82</ele>
        <time>2019-04-06T15:01:31Z</time>
      </trkpt>
      <trkpt lat="60.5688" lon="7.4749">
        <ele>1397.89</ele>
        <time>2019-04-06T15:01:33Z</time>
      </trkpt>
      <trkpt lat="60.56889" lon="7.47473">
        <ele>1395.49</ele>
        <time>2019-04-06T15:01:36Z</time>
      </trkpt>
      <trkpt lat="60.56894" lon="7.47478">
        <ele>1397.41</ele>
        <time>2019-04-06T15:01:38Z</time>
      </trkpt>
      <trkpt lat="60.56893" lon="7.47477">
        <ele>1398.86</ele>
        <time>2019-04-06T15:01:44Z</time>
      </trkpt>
      <trkpt lat="60.56884" lon="7.47474">
        <ele>1399.82</ele>
        <time>2019-04-06T15:01:50Z</time>
      </trkpt>
      <trkpt lat="60.56866" lon="7.47482">
        <ele>1401.26</ele>
        <time>2019-04-06T15:01:57Z</time>
      </trkpt>
      <trkpt lat="60.56858" lon="7.47493">
        <ele>1403.66</ele>
        <time>2019-04-06T15:02:01Z</time>
      </trkpt>
      <trkpt lat="60.56846" lon="7.47508">
        <ele>1406.55</ele>
        <time>2019-04-06T15:02:05Z</time>
      </trkpt>
      <trkpt lat="60.56823" lon="7.47513">
        <ele>1410.39</ele>
        <time>2019-04-06T15:02:11Z</time>
      </trkpt>
      <trkpt lat="60.5682" lon="7.47514">
        <ele>1410.39</ele>
        <time>2019-04-06T15:02:12Z</time>
      </trkpt>
      <trkpt lat="60.56793" lon="7.47516">
        <ele>1410.87</ele>
        <time>2019-04-06T15:02:23Z</time>
      </trkpt>
      <trkpt lat="60.56792" lon="7.47515">
        <ele>1411.35</ele>
        <time>2019-04-06T15:02:27Z</time>
      </trkpt>
      <trkpt lat="60.56798" lon="7.47498">
        <ele>1407.99</ele>
        <time>2019-04-06T15:02:31Z</time>
      </trkpt>
      <trkpt lat="60.56802" lon="7.4747">
        <ele>1405.1</ele>
        <time>2019-04-06T15:02:34Z</time>
      </trkpt>
      <trkpt lat="60.56805" lon="7.47453">
        <ele>1404.14</ele>
        <time>2019-04-06T15:02:36Z</time>
      </trkpt>
      <trkpt lat="60.56814" lon="7.47394">
        <ele>1403.18</ele>
        <time>2019-04-06T15:02:47Z</time>
      </trkpt>
      <trkpt lat="60.56828" lon="7.47337">
        <ele>1402.7</ele>
        <time>2019-04-06T15:02:57Z</time>
      </trkpt>
      <trkpt lat="60.5683" lon="7.47329">
        <ele>1402.7</ele>
        <time>2019-04-06T15:03:00Z</time>
      </trkpt>
      <trkpt lat="60.56806" lon="7.47359">
        <ele>1405.58</ele>
        <time>2019-04-06T15:03:09Z</time>
      </trkpt>
      <trkpt lat="60.56784" lon="7.47375">
        <ele>1408.47</ele>
        <time>2019-04-06T15:03:17Z</time>
      </trkpt>
      <trkpt lat="60.56766" lon="7.47397">
        <ele>1410.39</ele>
        <time>2019-04-06T15:03:26Z</time>
      </trkpt>
      <trkpt lat="60.56764" lon="7.47402">
        <ele>1410.87</ele>
        <time>2019-04-06T15:03:27Z</time>
      </trkpt>
      <trkpt lat="60.56758" lon="7.47408">
        <ele>1411.83</ele>
        <time>2019-04-06T15:03:29Z</time>
      </trkpt>
      <trkpt lat="60.56754" lon="7.47411">
        <ele>1411.83</ele>
        <time>2019-04-06T15:03:31Z</time>
      </trkpt>
      <trkpt lat="60.56765" lon="7.47396">
        <ele>1410.39</ele>
        <time>2019-04-06T15:03:36Z</time>
      </trkpt>
      <trkpt lat="60.56776" lon="7.47366">
        <ele>1408.95</ele>
        <time>2019-04-06T15:03:40Z</time>
      </trkpt>
      <trkpt lat="60.56778" lon="7.47361">
        <ele>1410.39</ele>
        <time>2019-04-06T15:03:41Z</time>
      </trkpt>
      <trkpt lat="60.56787" lon="7.47344">
        <ele>1410.39</ele>
        <time>2019-04-06T15:03:44Z</time>
      </trkpt>
      <trkpt lat="60.568" lon="7.47314">
        <ele>1407.03</ele>
        <time>2019-04-06T15:03:48Z</time>
      </trkpt>
      <trkpt lat="60.56816" lon="7.47264">
        <ele>1407.03</ele>
        <time>2019-04-06T15:03:55Z</time>
      </trkpt>
      <trkpt lat="60.56818" lon="7.47259">
        <ele>1407.03</ele>
        <time>2019-04-06T15:03:56Z</time>
      </trkpt>
      <trkpt lat="60.56809" lon="7.47273">
        <ele>1408.95</ele>
        <time>2019-04-06T15:04:02Z</time>
      </trkpt>
      <trkpt lat="60.56797" lon="7.47275">
        <ele>1410.87</ele>
        <time>2019-04-06T15:04:04Z</time>
      </trkpt>
      <trkpt lat="60.56788" lon="7.47274">
        <ele>1412.31</ele>
        <time>2019-04-06T15:04:06Z</time>
      </trkpt>
      <trkpt lat="60.56773" lon="7.47284">
        <ele>1413.76</ele>
        <time>2019-04-06T15:04:12Z</time>
      </trkpt>
      <trkpt lat="60.56763" lon="7.47306">
        <ele>1416.16</ele>
        <time>2019-04-06T15:04:18Z</time>
      </trkpt>
      <trkpt lat="60.56752" lon="7.47326">
        <ele>1418.08</ele>
        <time>2019-04-06T15:04:25Z</time>
      </trkpt>
      <trkpt lat="60.56762" lon="7.47305">
        <ele>1415.2</ele>
        <time>2019-04-06T15:04:29Z</time>
      </trkpt>
      <trkpt lat="60.5677" lon="7.47278">
        <ele>1414.24</ele>
        <time>2019-04-06T15:04:32Z</time>
      </trkpt>
      <trkpt lat="60.56791" lon="7.47227">
        <ele>1411.83</ele>
        <time>2019-04-06T15:04:38Z</time>
      </trkpt>
      <trkpt lat="60.56801" lon="7.47206">
        <ele>1411.35</ele>
        <time>2019-04-06T15:04:41Z</time>
      </trkpt>
      <trkpt lat="60.56816" lon="7.47184">
        <ele>1411.35</ele>
        <time>2019-04-06T15:04:45Z</time>
      </trkpt>
      <trkpt lat="60.56833" lon="7.47152">
        <ele>1411.35</ele>
        <time>2019-04-06T15:04:50Z</time>
      </trkpt>
      <trkpt lat="60.5685" lon="7.47124">
        <ele>1411.35</ele>
        <time>2019-04-06T15:04:54Z</time>
      </trkpt>
      <trkpt lat="60.56858" lon="7.4711">
        <ele>1410.87</ele>
        <time>2019-04-06T15:04:56Z</time>
      </trkpt>
      <trkpt lat="60.56872" lon="7.47089">
        <ele>1413.28</ele>
        <time>2019-04-06T15:04:59Z</time>
      </trkpt>
      <trkpt lat="60.56888" lon="7.47057">
        <ele>1413.28</ele>
        <time>2019-04-06T15:05:03Z</time>
      </trkpt>
      <trkpt lat="60.56934" lon="7.46981">
        <ele>1411.35</ele>
        <time>2019-04-06T15:05:13Z</time>
      </trkpt>
      <trkpt lat="60.56975" lon="7.46915">
        <ele>1413.28</ele>
        <time>2019-04-06T15:05:22Z</time>
      </trkpt>
      <trkpt lat="60.56987" lon="7.46897">
        <ele>1413.28</ele>
        <time>2019-04-06T15:05:25Z</time>
      </trkpt>
      <trkpt lat="60.56996" lon="7.46884">
        <ele>1411.83</ele>
        <time>2019-04-06T15:05:27Z</time>
      </trkpt>
      <trkpt lat="60.5701" lon="7.4687">
        <ele>1414.24</ele>
        <time>2019-04-06T15:05:33Z</time>
      </trkpt>
      <trkpt lat="60.57001" lon="7.4687">
        <ele>1417.6</ele>
        <time>2019-04-06T15:05:35Z</time>
      </trkpt>
      <trkpt lat="60.56973" lon="7.46865">
        <ele>1421.45</ele>
        <time>2019-04-06T15:05:40Z</time>
      </trkpt>
      <trkpt lat="60.56961" lon="7.46861">
        <ele>1422.89</ele>
        <time>2019-04-06T15:05:42Z</time>
      </trkpt>
      <trkpt lat="60.5694" lon="7.46858">
        <ele>1424.81</ele>
        <time>2019-04-06T15:05:46Z</time>
      </trkpt>
      <trkpt lat="60.5691" lon="7.46856">
        <ele>1427.21</ele>
        <time>2019-04-06T15:05:53Z</time>
      </trkpt>
      <trkpt lat="60.56892" lon="7.46862">
        <ele>1429.62</ele>
        <time>2019-04-06T15:05:58Z</time>
      </trkpt>
      <trkpt lat="60.56872" lon="7.46872">
        <ele>1430.58</ele>
        <time>2019-04-06T15:06:04Z</time>
      </trkpt>
      <trkpt lat="60.56868" lon="7.46875">
        <ele>1430.58</ele>
        <time>2019-04-06T15:06:06Z</time>
      </trkpt>
      <trkpt lat="60.5684" lon="7.4689">
        <ele>1432.98</ele>
        <time>2019-04-06T15:06:12Z</time>
      </trkpt>
      <trkpt lat="60.56805" lon="7.46895">
        <ele>1434.91</ele>
        <time>2019-04-06T15:06:20Z</time>
      </trkpt>
      <trkpt lat="60.56788" lon="7.46894">
        <ele>1435.87</ele>
        <time>2019-04-06T15:06:24Z</time>
      </trkpt>
      <trkpt lat="60.56754" lon="7.46906">
        <ele>1437.79</ele>
        <time>2019-04-06T15:06:32Z</time>
      </trkpt>
      <trkpt lat="60.56741" lon="7.46912">
        <ele>1441.15</ele>
        <time>2019-04-06T15:06:35Z</time>
      </trkpt>
      <trkpt lat="60.56737" lon="7.46913">
        <ele>1441.15</ele>
        <time>2019-04-06T15:06:36Z</time>
      </trkpt>
      <trkpt lat="60.56717" lon="7.46929">
        <ele>1441.15</ele>
        <time>2019-04-06T15:06:41Z</time>
      </trkpt>
      <trkpt lat="60.56691" lon="7.4695">
        <ele>1444.52</ele>
        <time>2019-04-06T15:06:47Z</time>
      </trkpt>
      <trkpt lat="60.56687" lon="7.46953">
        <ele>1444.52</ele>
        <time>2019-04-06T15:06:48Z</time>
      </trkpt>
      <trkpt lat="60.56669" lon="7.46959">
        <ele>1446.92</ele>
        <time>2019-04-06T15:06:52Z</time>
      </trkpt>
      <trkpt lat="60.56658" lon="7.46969">
        <ele>1447.88</ele>
        <time>2019-04-06T15:07:00Z</time>
      </trkpt>
      <trkpt lat="60.56666" lon="7.46961">
        <ele>1446.44</ele>
        <time>2019-04-06T15:07:02Z</time>
      </trkpt>
      <trkpt lat="60.56676" lon="7.46942">
        <ele>1445</ele>
        <time>2019-04-06T15:07:05Z</time>
      </trkpt>
      <trkpt lat="60.56689" lon="7.46924">
        <ele>1444.52</ele>
        <time>2019-04-06T15:07:09Z</time>
      </trkpt>
      <trkpt lat="60.56715" lon="7.46874">
        <ele>1443.08</ele>
        <time>2019-04-06T15:07:16Z</time>
      </trkpt>
      <trkpt lat="60.56752" lon="7.46792">
        <ele>1441.63</ele>
        <time>2019-04-06T15:07:26Z</time>
      </trkpt>
      <trkpt lat="60.56768" lon="7.46763">
        <ele>1442.6</ele>
        <time>2019-04-06T15:07:31Z</time>
      </trkpt>
      <trkpt lat="60.56786" lon="7.46748">
        <ele>1443.56</ele>
        <time>2019-04-06T15:07:35Z</time>
      </trkpt>
      <trkpt lat="60.56796" lon="7.46738">
        <ele>1440.19</ele>
        <time>2019-04-06T15:07:37Z</time>
      </trkpt>
      <trkpt lat="60.56801" lon="7.46733">
        <ele>1442.11</ele>
        <time>2019-04-06T15:07:38Z</time>
      </trkpt>
      <trkpt lat="60.5681" lon="7.46724">
        <ele>1442.11</ele>
        <time>2019-04-06T15:07:40Z</time>
      </trkpt>
      <trkpt lat="60.56836" lon="7.46696">
        <ele>1442.11</ele>
        <time>2019-04-06T15:07:46Z</time>
      </trkpt>
      <trkpt lat="60.56855" lon="7.46674">
        <ele>1443.56</ele>
        <time>2019-04-06T15:07:51Z</time>
      </trkpt>
      <trkpt lat="60.56847" lon="7.46688">
        <ele>1444.52</ele>
        <time>2019-04-06T15:07:55Z</time>
      </trkpt>
      <trkpt lat="60.56821" lon="7.46694">
        <ele>1445.96</ele>
        <time>2019-04-06T15:08:00Z</time>
      </trkpt>
      <trkpt lat="60.56801" lon="7.46697">
        <ele>1446.44</ele>
        <time>2019-04-06T15:08:04Z</time>
      </trkpt>
      <trkpt lat="60.56769" lon="7.46699">
        <ele>1448.84</ele>
        <time>2019-04-06T15:08:10Z</time>
      </trkpt>
      <trkpt lat="60.56736" lon="7.46702">
        <ele>1452.69</ele>
        <time>2019-04-06T15:08:15Z</time>
      </trkpt>
      <trkpt lat="60.56711" lon="7.46702">
        <ele>1453.65</ele>
        <time>2019-04-06T15:08:20Z</time>
      </trkpt>
      <trkpt lat="60.56699" lon="7.46707">
        <ele>1455.09</ele>
        <time>2019-04-06T15:08:23Z</time>
      </trkpt>
      <trkpt lat="60.56687" lon="7.46712">
        <ele>1456.53</ele>
        <time>2019-04-06T15:08:26Z</time>
      </trkpt>
      <trkpt lat="60.56681" lon="7.46714">
        <ele>1457.02</ele>
        <time>2019-04-06T15:08:28Z</time>
      </trkpt>
      <trkpt lat="60.56665" lon="7.46728">
        <ele>1460.38</ele>
        <time>2019-04-06T15:08:36Z</time>
      </trkpt>
      <trkpt lat="60.56656" lon="7.46743">
        <ele>1461.34</ele>
        <time>2019-04-06T15:08:40Z</time>
      </trkpt>
      <trkpt lat="60.56638" lon="7.46751">
        <ele>1465.19</ele>
        <time>2019-04-06T15:08:44Z</time>
      </trkpt>
      <trkpt lat="60.56626" lon="7.46755">
        <ele>1466.63</ele>
        <time>2019-04-06T15:08:47Z</time>
      </trkpt>
      <trkpt lat="60.56612" lon="7.46757">
        <ele>1468.07</ele>
        <time>2019-04-06T15:08:51Z</time>
      </trkpt>
      <trkpt lat="60.56595" lon="7.46765">
        <ele>1469.51</ele>
        <time>2019-04-06T15:08:58Z</time>
      </trkpt>
      <trkpt lat="60.56578" lon="7.4677">
        <ele>1470.47</ele>
        <time>2019-04-06T15:09:03Z</time>
      </trkpt>
      <trkpt lat="60.56569" lon="7.46772">
        <ele>1471.44</ele>
        <time>2019-04-06T15:09:06Z</time>
      </trkpt>
      <trkpt lat="60.5655" lon="7.46773">
        <ele>1472.88</ele>
        <time>2019-04-06T15:09:12Z</time>
      </trkpt>
      <trkpt lat="60.56537" lon="7.4677">
        <ele>1474.8</ele>
        <time>2019-04-06T15:09:16Z</time>
      </trkpt>
      <trkpt lat="60.56533" lon="7.46772">
        <ele>1474.32</ele>
        <time>2019-04-06T15:09:19Z</time>
      </trkpt>
      <trkpt lat="60.56531" lon="7.46776">
        <ele>1474.32</ele>
        <time>2019-04-06T15:09:21Z</time>
      </trkpt>
      <trkpt lat="60.56553" lon="7.46755">
        <ele>1472.88</ele>
        <time>2019-04-06T15:09:30Z</time>
      </trkpt>
      <trkpt lat="60.56559" lon="7.46747">
        <ele>1472.88</ele>
        <time>2019-04-06T15:09:32Z</time>
      </trkpt>
      <trkpt lat="60.56572" lon="7.46734">
        <ele>1473.84</ele>
        <time>2019-04-06T15:09:36Z</time>
      </trkpt>
      <trkpt lat="60.56584" lon="7.46721">
        <ele>1472.4</ele>
        <time>2019-04-06T15:09:39Z</time>
      </trkpt>
      <trkpt lat="60.566" lon="7.46696">
        <ele>1469.51</ele>
        <time>2019-04-06T15:09:43Z</time>
      </trkpt>
      <trkpt lat="60.56603" lon="7.46689">
        <ele>1469.51</ele>
        <time>2019-04-06T15:09:44Z</time>
      </trkpt>
      <trkpt lat="60.5662" lon="7.46662">
        <ele>1470.95</ele>
        <time>2019-04-06T15:09:49Z</time>
      </trkpt>
      <trkpt lat="60.56624" lon="7.46656">
        <ele>1469.03</ele>
        <time>2019-04-06T15:09:50Z</time>
      </trkpt>
      <trkpt lat="60.56638" lon="7.4663">
        <ele>1469.51</ele>
        <time>2019-04-06T15:09:54Z</time>
      </trkpt>
      <trkpt lat="60.56652" lon="7.46607">
        <ele>1467.11</ele>
        <time>2019-04-06T15:09:58Z</time>
      </trkpt>
      <trkpt lat="60.56673" lon="7.46574">
        <ele>1465.67</ele>
        <time>2019-04-06T15:10:03Z</time>
      </trkpt>
      <trkpt lat="60.567" lon="7.46529">
        <ele>1462.78</ele>
        <time>2019-04-06T15:10:09Z</time>
      </trkpt>
      <trkpt lat="60.56716" lon="7.46502">
        <ele>1464.23</ele>
        <time>2019-04-06T15:10:13Z</time>
      </trkpt>
      <trkpt lat="60.56734" lon="7.46494">
        <ele>1462.3</ele>
        <time>2019-04-06T15:10:17Z</time>
      </trkpt>
      <trkpt lat="60.56739" lon="7.46491">
        <ele>1461.34</ele>
        <time>2019-04-06T15:10:18Z</time>
      </trkpt>
      <trkpt lat="60.5675" lon="7.46483">
        <ele>1461.34</ele>
        <time>2019-04-06T15:10:20Z</time>
      </trkpt>
      <trkpt lat="60.56764" lon="7.46467">
        <ele>1460.38</ele>
        <time>2019-04-06T15:10:23Z</time>
      </trkpt>
      <trkpt lat="60.56777" lon="7.46463">
        <ele>1460.86</ele>
        <time>2019-04-06T15:10:27Z</time>
      </trkpt>
      <trkpt lat="60.56757" lon="7.4647">
        <ele>1462.3</ele>
        <time>2019-04-06T15:10:36Z</time>
      </trkpt>
      <trkpt lat="60.56747" lon="7.46472">
        <ele>1463.26</ele>
        <time>2019-04-06T15:10:40Z</time>
      </trkpt>
      <trkpt lat="60.5673" lon="7.46484">
        <ele>1464.23</ele>
        <time>2019-04-06T15:10:45Z</time>
      </trkpt>
      <trkpt lat="60.56722" lon="7.46488">
        <ele>1465.19</ele>
        <time>2019-04-06T15:10:47Z</time>
      </trkpt>
      <trkpt lat="60.56708" lon="7.46493">
        <ele>1467.59</ele>
        <time>2019-04-06T15:10:50Z</time>
      </trkpt>
      <trkpt lat="60.56685" lon="7.46498">
        <ele>1470.47</ele>
        <time>2019-04-06T15:10:55Z</time>
      </trkpt>
      <trkpt lat="60.56671" lon="7.46502">
        <ele>1472.4</ele>
        <time>2019-04-06T15:10:59Z</time>
      </trkpt>
      <trkpt lat="60.56661" lon="7.46509">
        <ele>1473.84</ele>
        <time>2019-04-06T15:11:02Z</time>
      </trkpt>
      <trkpt lat="60.5665" lon="7.46516">
        <ele>1475.76</ele>
        <time>2019-04-06T15:11:05Z</time>
      </trkpt>
      <trkpt lat="60.56632" lon="7.46523">
        <ele>1478.65</ele>
        <time>2019-04-06T15:11:09Z</time>
      </trkpt>
      <trkpt lat="60.56618" lon="7.46527">
        <ele>1481.05</ele>
        <time>2019-04-06T15:11:12Z</time>
      </trkpt>
      <trkpt lat="60.56613" lon="7.46526">
        <ele>1482.97</ele>
        <time>2019-04-06T15:11:13Z</time>
      </trkpt>
      <trkpt lat="60.56602" lon="7.46526">
        <ele>1484.89</ele>
        <time>2019-04-06T15:11:15Z</time>
      </trkpt>
      <trkpt lat="60.56591" lon="7.46523">
        <ele>1485.85</ele>
        <time>2019-04-06T15:11:17Z</time>
      </trkpt>
      <trkpt lat="60.56586" lon="7.46522">
        <ele>1486.34</ele>
        <time>2019-04-06T15:11:18Z</time>
      </trkpt>
      <trkpt lat="60.56575" lon="7.46518">
        <ele>1487.78</ele>
        <time>2019-04-06T15:11:20Z</time>
      </trkpt>
      <trkpt lat="60.5656" lon="7.46506">
        <ele>1490.18</ele>
        <time>2019-04-06T15:11:23Z</time>
      </trkpt>
      <trkpt lat="60.56546" lon="7.46496">
        <ele>1491.14</ele>
        <time>2019-04-06T15:11:27Z</time>
      </trkpt>
      <trkpt lat="60.56521" lon="7.46491">
        <ele>1491.62</ele>
        <time>2019-04-06T15:11:35Z</time>
      </trkpt>
      <trkpt lat="60.56493" lon="7.46479">
        <ele>1494.51</ele>
        <time>2019-04-06T15:11:41Z</time>
      </trkpt>
      <trkpt lat="60.56484" lon="7.46474">
        <ele>1494.99</ele>
        <time>2019-04-06T15:11:43Z</time>
      </trkpt>
      <trkpt lat="60.56465" lon="7.4647">
        <ele>1496.43</ele>
        <time>2019-04-06T15:11:48Z</time>
      </trkpt>
      <trkpt lat="60.56451" lon="7.46472">
        <ele>1496.43</ele>
        <time>2019-04-06T15:11:51Z</time>
      </trkpt>
      <trkpt lat="60.56436" lon="7.46468">
        <ele>1498.35</ele>
        <time>2019-04-06T15:11:54Z</time>
      </trkpt>
      <trkpt lat="60.5641" lon="7.46464">
        <ele>1498.83</ele>
        <time>2019-04-06T15:12:00Z</time>
      </trkpt>
      <trkpt lat="60.56381" lon="7.46463">
        <ele>1500.76</ele>
        <time>2019-04-06T15:12:06Z</time>
      </trkpt>
      <trkpt lat="60.56384" lon="7.46487">
        <ele>1497.39</ele>
        <time>2019-04-06T15:12:11Z</time>
      </trkpt>
      <trkpt lat="60.56389" lon="7.46495">
        <ele>1496.91</ele>
        <time>2019-04-06T15:12:12Z</time>
      </trkpt>
      <trkpt lat="60.56401" lon="7.46511">
        <ele>1495.95</ele>
        <time>2019-04-06T15:12:15Z</time>
      </trkpt>
      <trkpt lat="60.56405" lon="7.46539">
        <ele>1494.51</ele>
        <time>2019-04-06T15:12:24Z</time>
      </trkpt>
      <trkpt lat="60.56405" lon="7.46539">
        <ele>1495.95</ele>
        <time>2019-04-06T15:12:27Z</time>
      </trkpt>
      <trkpt lat="60.56405" lon="7.46539">
        <ele>1494.99</ele>
        <time>2019-04-06T15:12:30Z</time>
      </trkpt>
      <trkpt lat="60.56405" lon="7.46544">
        <ele>1494.99</ele>
        <time>2019-04-06T15:12:42Z</time>
      </trkpt>
      <trkpt lat="60.56417" lon="7.46536">
        <ele>1494.03</ele>
        <time>2019-04-06T15:12:47Z</time>
      </trkpt>
      <trkpt lat="60.56444" lon="7.46506">
        <ele>1494.03</ele>
        <time>2019-04-06T15:12:57Z</time>
      </trkpt>
      <trkpt lat="60.56443" lon="7.46506">
        <ele>1494.99</ele>
        <time>2019-04-06T15:13:00Z</time>
      </trkpt>
      <trkpt lat="60.56443" lon="7.46508">
        <ele>1494.99</ele>
        <time>2019-04-06T15:13:09Z</time>
      </trkpt>
      <trkpt lat="60.56437" lon="7.46516">
        <ele>1494.99</ele>
        <time>2019-04-06T15:13:17Z</time>
      </trkpt>
      <trkpt lat="60.56425" lon="7.46525">
        <ele>1494.99</ele>
        <time>2019-04-06T15:13:26Z</time>
      </trkpt>
      <trkpt lat="60.56397" lon="7.46526">
        <ele>1496.43</ele>
        <time>2019-04-06T15:13:32Z</time>
      </trkpt>
      <trkpt lat="60.56377" lon="7.46524">
        <ele>1497.87</ele>
        <time>2019-04-06T15:13:36Z</time>
      </trkpt>
      <trkpt lat="60.56367" lon="7.46523">
        <ele>1498.35</ele>
        <time>2019-04-06T15:13:38Z</time>
      </trkpt>
      <trkpt lat="60.56327" lon="7.46526">
        <ele>1499.79</ele>
        <time>2019-04-06T15:13:46Z</time>
      </trkpt>
      <trkpt lat="60.56302" lon="7.46528">
        <ele>1500.76</ele>
        <time>2019-04-06T15:13:54Z</time>
      </trkpt>
      <trkpt lat="60.56302" lon="7.46544">
        <ele>1499.31</ele>
        <time>2019-04-06T15:13:58Z</time>
      </trkpt>
      <trkpt lat="60.56333" lon="7.46539">
        <ele>1497.87</ele>
        <time>2019-04-06T15:14:06Z</time>
      </trkpt>
      <trkpt lat="60.56348" lon="7.46533">
        <ele>1496.43</ele>
        <time>2019-04-06T15:14:09Z</time>
      </trkpt>
      <trkpt lat="60.56405" lon="7.46458">
        <ele>1495.95</ele>
        <time>2019-04-06T15:14:20Z</time>
      </trkpt>
      <trkpt lat="60.5642" lon="7.4644">
        <ele>1496.91</ele>
        <time>2019-04-06T15:14:23Z</time>
      </trkpt>
      <trkpt lat="60.56471" lon="7.46381">
        <ele>1494.99</ele>
        <time>2019-04-06T15:14:32Z</time>
      </trkpt>
      <trkpt lat="60.5648" lon="7.46362">
        <ele>1495.47</ele>
        <time>2019-04-06T15:14:36Z</time>
      </trkpt>
      <trkpt lat="60.56485" lon="7.46358">
        <ele>1496.91</ele>
        <time>2019-04-06T15:14:38Z</time>
      </trkpt>
      <trkpt lat="60.56493" lon="7.46349">
        <ele>1493.55</ele>
        <time>2019-04-06T15:14:40Z</time>
      </trkpt>
      <trkpt lat="60.56497" lon="7.46344">
        <ele>1493.55</ele>
        <time>2019-04-06T15:14:41Z</time>
      </trkpt>
      <trkpt lat="60.56527" lon="7.46301">
        <ele>1493.55</ele>
        <time>2019-04-06T15:14:49Z</time>
      </trkpt>
      <trkpt lat="60.5653" lon="7.46296">
        <ele>1493.55</ele>
        <time>2019-04-06T15:14:50Z</time>
      </trkpt>
      <trkpt lat="60.56534" lon="7.46292">
        <ele>1493.55</ele>
        <time>2019-04-06T15:14:51Z</time>
      </trkpt>
      <trkpt lat="60.56532" lon="7.46304">
        <ele>1494.03</ele>
        <time>2019-04-06T15:14:57Z</time>
      </trkpt>
      <trkpt lat="60.56527" lon="7.46305">
        <ele>1494.99</ele>
        <time>2019-04-06T15:14:58Z</time>
      </trkpt>
      <trkpt lat="60.56512" lon="7.46305">
        <ele>1496.43</ele>
        <time>2019-04-06T15:15:01Z</time>
      </trkpt>
      <trkpt lat="60.56489" lon="7.463">
        <ele>1498.83</ele>
        <time>2019-04-06T15:15:06Z</time>
      </trkpt>
      <trkpt lat="60.56468" lon="7.46304">
        <ele>1500.76</ele>
        <time>2019-04-06T15:15:11Z</time>
      </trkpt>
      <trkpt lat="60.56464" lon="7.46305">
        <ele>1500.76</ele>
        <time>2019-04-06T15:15:12Z</time>
      </trkpt>
      <trkpt lat="60.56449" lon="7.46308">
        <ele>1502.2</ele>
        <time>2019-04-06T15:15:17Z</time>
      </trkpt>
      <trkpt lat="60.56445" lon="7.46315">
        <ele>1502.2</ele>
        <time>2019-04-06T15:15:32Z</time>
      </trkpt>
      <trkpt lat="60.56445" lon="7.46316">
        <ele>1502.2</ele>
        <time>2019-04-06T15:15:43Z</time>
      </trkpt>
      <trkpt lat="60.56432" lon="7.46319">
        <ele>1502.68</ele>
        <time>2019-04-06T15:15:54Z</time>
      </trkpt>
      <trkpt lat="60.56409" lon="7.46327">
        <ele>1505.56</ele>
        <time>2019-04-06T15:16:05Z</time>
      </trkpt>
      <trkpt lat="60.56391" lon="7.46328">
        <ele>1506.52</ele>
        <time>2019-04-06T15:16:09Z</time>
      </trkpt>
      <trkpt lat="60.56382" lon="7.46328">
        <ele>1507.97</ele>
        <time>2019-04-06T15:16:11Z</time>
      </trkpt>
      <trkpt lat="60.56365" lon="7.46327">
        <ele>1509.41</ele>
        <time>2019-04-06T15:16:15Z</time>
      </trkpt>
      <trkpt lat="60.5632" lon="7.46335">
        <ele>1513.25</ele>
        <time>2019-04-06T15:16:24Z</time>
      </trkpt>
      <trkpt lat="60.56309" lon="7.46335">
        <ele>1513.73</ele>
        <time>2019-04-06T15:16:26Z</time>
      </trkpt>
      <trkpt lat="60.56303" lon="7.46335">
        <ele>1513.73</ele>
        <time>2019-04-06T15:16:27Z</time>
      </trkpt>
      <trkpt lat="60.56285" lon="7.46338">
        <ele>1515.18</ele>
        <time>2019-04-06T15:16:30Z</time>
      </trkpt>
      <trkpt lat="60.56267" lon="7.46338">
        <ele>1516.14</ele>
        <time>2019-04-06T15:16:33Z</time>
      </trkpt>
      <trkpt lat="60.56245" lon="7.46335">
        <ele>1518.06</ele>
        <time>2019-04-06T15:16:37Z</time>
      </trkpt>
      <trkpt lat="60.56216" lon="7.46329">
        <ele>1518.06</ele>
        <time>2019-04-06T15:16:42Z</time>
      </trkpt>
      <trkpt lat="60.56144" lon="7.46295">
        <ele>1518.54</ele>
        <time>2019-04-06T15:16:55Z</time>
      </trkpt>
      <trkpt lat="60.56105" lon="7.46281">
        <ele>1517.1</ele>
        <time>2019-04-06T15:17:02Z</time>
      </trkpt>
      <trkpt lat="60.56099" lon="7.46278">
        <ele>1517.1</ele>
        <time>2019-04-06T15:17:03Z</time>
      </trkpt>
      <trkpt lat="60.56059" lon="7.46254">
        <ele>1516.14</ele>
        <time>2019-04-06T15:17:11Z</time>
      </trkpt>
      <trkpt lat="60.56055" lon="7.46256">
        <ele>1514.21</ele>
        <time>2019-04-06T15:17:15Z</time>
      </trkpt>
      <trkpt lat="60.56068" lon="7.46248">
        <ele>1514.21</ele>
        <time>2019-04-06T15:17:18Z</time>
      </trkpt>
      <trkpt lat="60.56085" lon="7.46233">
        <ele>1514.21</ele>
        <time>2019-04-06T15:17:22Z</time>
      </trkpt>
      <trkpt lat="60.56098" lon="7.46222">
        <ele>1516.62</ele>
        <time>2019-04-06T15:17:25Z</time>
      </trkpt>
      <trkpt lat="60.56128" lon="7.46193">
        <ele>1519.02</ele>
        <time>2019-04-06T15:17:31Z</time>
      </trkpt>
      <trkpt lat="60.56137" lon="7.46182">
        <ele>1519.98</ele>
        <time>2019-04-06T15:17:33Z</time>
      </trkpt>
      <trkpt lat="60.56142" lon="7.46176">
        <ele>1520.94</ele>
        <time>2019-04-06T15:17:34Z</time>
      </trkpt>
      <trkpt lat="60.56151" lon="7.46168">
        <ele>1522.39</ele>
        <time>2019-04-06T15:17:36Z</time>
      </trkpt>
      <trkpt lat="60.56172" lon="7.4615">
        <ele>1523.35</ele>
        <time>2019-04-06T15:17:40Z</time>
      </trkpt>
      <trkpt lat="60.5621" lon="7.46106">
        <ele>1525.75</ele>
        <time>2019-04-06T15:17:47Z</time>
      </trkpt>
      <trkpt lat="60.56214" lon="7.46099">
        <ele>1525.75</ele>
        <time>2019-04-06T15:17:48Z</time>
      </trkpt>
      <trkpt lat="60.56236" lon="7.46073">
        <ele>1527.19</ele>
        <time>2019-04-06T15:17:52Z</time>
      </trkpt>
      <trkpt lat="60.56273" lon="7.46023">
        <ele>1528.15</ele>
        <time>2019-04-06T15:17:59Z</time>
      </trkpt>
      <trkpt lat="60.56342" lon="7.45932">
        <ele>1532.48</ele>
        <time>2019-04-06T15:18:12Z</time>
      </trkpt>
      <trkpt lat="60.56383" lon="7.45872">
        <ele>1535.84</ele>
        <time>2019-04-06T15:18:20Z</time>
      </trkpt>
      <trkpt lat="60.56388" lon="7.45865">
        <ele>1535.84</ele>
        <time>2019-04-06T15:18:21Z</time>
      </trkpt>
      <trkpt lat="60.56427" lon="7.45808">
        <ele>1536.8</ele>
        <time>2019-04-06T15:18:29Z</time>
      </trkpt>
      <trkpt lat="60.56435" lon="7.45798">
        <ele>1539.21</ele>
        <time>2019-04-06T15:18:32Z</time>
      </trkpt>
      <trkpt lat="60.56432" lon="7.45802">
        <ele>1539.21</ele>
        <time>2019-04-06T15:18:34Z</time>
      </trkpt>
      <trkpt lat="60.56412" lon="7.45804">
        <ele>1540.17</ele>
        <time>2019-04-06T15:18:40Z</time>
      </trkpt>
      <trkpt lat="60.56395" lon="7.45803">
        <ele>1542.09</ele>
        <time>2019-04-06T15:18:44Z</time>
      </trkpt>
      <trkpt lat="60.56381" lon="7.45805">
        <ele>1543.53</ele>
        <time>2019-04-06T15:18:47Z</time>
      </trkpt>
      <trkpt lat="60.56315" lon="7.45804">
        <ele>1546.42</ele>
        <time>2019-04-06T15:18:59Z</time>
      </trkpt>
      <trkpt lat="60.56302" lon="7.45802">
        <ele>1546.9</ele>
        <time>2019-04-06T15:19:01Z</time>
      </trkpt>
      <trkpt lat="60.56281" lon="7.45799">
        <ele>1548.82</ele>
        <time>2019-04-06T15:19:04Z</time>
      </trkpt>
      <trkpt lat="60.56262" lon="7.45793">
        <ele>1546.9</ele>
        <time>2019-04-06T15:19:07Z</time>
      </trkpt>
      <trkpt lat="60.56179" lon="7.45784">
        <ele>1548.34</ele>
        <time>2019-04-06T15:19:19Z</time>
      </trkpt>
      <trkpt lat="60.56172" lon="7.45784">
        <ele>1548.34</ele>
        <time>2019-04-06T15:19:20Z</time>
      </trkpt>
      <trkpt lat="60.56127" lon="7.45782">
        <ele>1549.3</ele>
        <time>2019-04-06T15:19:27Z</time>
      </trkpt>
      <trkpt lat="60.56079" lon="7.45785">
        <ele>1553.15</ele>
        <time>2019-04-06T15:19:35Z</time>
      </trkpt>
      <trkpt lat="60.56055" lon="7.45787">
        <ele>1556.03</ele>
        <time>2019-04-06T15:19:39Z</time>
      </trkpt>
      <trkpt lat="60.56028" lon="7.45786">
        <ele>1557.47</ele>
        <time>2019-04-06T15:19:44Z</time>
      </trkpt>
      <trkpt lat="60.56028" lon="7.45792">
        <ele>1555.07</ele>
        <time>2019-04-06T15:19:47Z</time>
      </trkpt>
      <trkpt lat="60.56041" lon="7.45783">
        <ele>1552.67</ele>
        <time>2019-04-06T15:19:50Z</time>
      </trkpt>
      <trkpt lat="60.56063" lon="7.45753">
        <ele>1552.67</ele>
        <time>2019-04-06T15:19:55Z</time>
      </trkpt>
      <trkpt lat="60.56073" lon="7.45741">
        <ele>1555.55</ele>
        <time>2019-04-06T15:19:57Z</time>
      </trkpt>
      <trkpt lat="60.56081" lon="7.45728">
        <ele>1555.55</ele>
        <time>2019-04-06T15:19:59Z</time>
      </trkpt>
      <trkpt lat="60.56144" lon="7.45647">
        <ele>1558.43</ele>
        <time>2019-04-06T15:20:12Z</time>
      </trkpt>
      <trkpt lat="60.56165" lon="7.45624">
        <ele>1559.88</ele>
        <time>2019-04-06T15:20:16Z</time>
      </trkpt>
      <trkpt lat="60.56202" lon="7.45583">
        <ele>1563.24</ele>
        <time>2019-04-06T15:20:23Z</time>
      </trkpt>
      <trkpt lat="60.56211" lon="7.45571">
        <ele>1562.28</ele>
        <time>2019-04-06T15:20:25Z</time>
      </trkpt>
      <trkpt lat="60.56229" lon="7.45549">
        <ele>1564.2</ele>
        <time>2019-04-06T15:20:29Z</time>
      </trkpt>
      <trkpt lat="60.56262" lon="7.45513">
        <ele>1566.12</ele>
        <time>2019-04-06T15:20:36Z</time>
      </trkpt>
      <trkpt lat="60.56271" lon="7.45503">
        <ele>1567.09</ele>
        <time>2019-04-06T15:20:38Z</time>
      </trkpt>
      <trkpt lat="60.56295" lon="7.45477">
        <ele>1567.57</ele>
        <time>2019-04-06T15:20:43Z</time>
      </trkpt>
      <trkpt lat="60.56334" lon="7.45429">
        <ele>1569.97</ele>
        <time>2019-04-06T15:20:51Z</time>
      </trkpt>
      <trkpt lat="60.5636" lon="7.45398">
        <ele>1571.41</ele>
        <time>2019-04-06T15:20:56Z</time>
      </trkpt>
      <trkpt lat="60.56376" lon="7.45377">
        <ele>1573.33</ele>
        <time>2019-04-06T15:21:00Z</time>
      </trkpt>
      <trkpt lat="60.5638" lon="7.45374">
        <ele>1573.33</ele>
        <time>2019-04-06T15:21:01Z</time>
      </trkpt>
      <trkpt lat="60.56391" lon="7.45359">
        <ele>1569.97</ele>
        <time>2019-04-06T15:21:04Z</time>
      </trkpt>
      <trkpt lat="60.56402" lon="7.45341">
        <ele>1571.41</ele>
        <time>2019-04-06T15:21:07Z</time>
      </trkpt>
      <trkpt lat="60.56418" lon="7.45314">
        <ele>1571.41</ele>
        <time>2019-04-06T15:21:11Z</time>
      </trkpt>
      <trkpt lat="60.56458" lon="7.4524">
        <ele>1573.33</ele>
        <time>2019-04-06T15:21:22Z</time>
      </trkpt>
      <trkpt lat="60.56456" lon="7.45242">
        <ele>1576.22</ele>
        <time>2019-04-06T15:21:27Z</time>
      </trkpt>
      <trkpt lat="60.56442" lon="7.45246">
        <ele>1577.18</ele>
        <time>2019-04-06T15:21:30Z</time>
      </trkpt>
      <trkpt lat="60.56417" lon="7.45248">
        <ele>1580.06</ele>
        <time>2019-04-06T15:21:35Z</time>
      </trkpt>
      <trkpt lat="60.56394" lon="7.4526">
        <ele>1580.06</ele>
        <time>2019-04-06T15:21:42Z</time>
      </trkpt>
      <trkpt lat="60.56382" lon="7.45257">
        <ele>1581.03</ele>
        <time>2019-04-06T15:21:52Z</time>
      </trkpt>
      <trkpt lat="60.56382" lon="7.45254">
        <ele>1579.58</ele>
        <time>2019-04-06T15:22:17Z</time>
      </trkpt>
      <trkpt lat="60.56381" lon="7.45254">
        <ele>1581.03</ele>
        <time>2019-04-06T15:22:22Z</time>
      </trkpt>
      <trkpt lat="60.56377" lon="7.45255">
        <ele>1581.99</ele>
        <time>2019-04-06T15:22:26Z</time>
      </trkpt>
      <trkpt lat="60.56366" lon="7.45249">
        <ele>1582.47</ele>
        <time>2019-04-06T15:22:35Z</time>
      </trkpt>
      <trkpt lat="60.56353" lon="7.45248">
        <ele>1583.91</ele>
        <time>2019-04-06T15:22:40Z</time>
      </trkpt>
      <trkpt lat="60.56335" lon="7.45245">
        <ele>1587.75</ele>
        <time>2019-04-06T15:22:44Z</time>
      </trkpt>
      <trkpt lat="60.56314" lon="7.4524">
        <ele>1589.2</ele>
        <time>2019-04-06T15:22:48Z</time>
      </trkpt>
      <trkpt lat="60.56278" lon="7.45235">
        <ele>1591.12</ele>
        <time>2019-04-06T15:22:54Z</time>
      </trkpt>
      <trkpt lat="60.56259" lon="7.45229">
        <ele>1591.12</ele>
        <time>2019-04-06T15:22:57Z</time>
      </trkpt>
      <trkpt lat="60.56247" lon="7.45227">
        <ele>1593.04</ele>
        <time>2019-04-06T15:22:59Z</time>
      </trkpt>
      <trkpt lat="60.56241" lon="7.45225">
        <ele>1594.48</ele>
        <time>2019-04-06T15:23:00Z</time>
      </trkpt>
      <trkpt lat="60.56223" lon="7.4522">
        <ele>1595.45</ele>
        <time>2019-04-06T15:23:03Z</time>
      </trkpt>
      <trkpt lat="60.56211" lon="7.45217">
        <ele>1595.93</ele>
        <time>2019-04-06T15:23:05Z</time>
      </trkpt>
      <trkpt lat="60.56162" lon="7.45208">
        <ele>1599.77</ele>
        <time>2019-04-06T15:23:13Z</time>
      </trkpt>
      <trkpt lat="60.56121" lon="7.452">
        <ele>1602.66</ele>
        <time>2019-04-06T15:23:19Z</time>
      </trkpt>
      <trkpt lat="60.561" lon="7.45195">
        <ele>1603.62</ele>
        <time>2019-04-06T15:23:22Z</time>
      </trkpt>
      <trkpt lat="60.56093" lon="7.45194">
        <ele>1605.06</ele>
        <time>2019-04-06T15:23:23Z</time>
      </trkpt>
      <trkpt lat="60.56009" lon="7.45189">
        <ele>1608.42</ele>
        <time>2019-04-06T15:23:35Z</time>
      </trkpt>
      <trkpt lat="60.55958" lon="7.4519">
        <ele>1611.79</ele>
        <time>2019-04-06T15:23:42Z</time>
      </trkpt>
      <trkpt lat="60.55953" lon="7.45189">
        <ele>1611.79</ele>
        <time>2019-04-06T15:23:43Z</time>
      </trkpt>
      <trkpt lat="60.55945" lon="7.45184">
        <ele>1613.23</ele>
        <time>2019-04-06T15:23:45Z</time>
      </trkpt>
      <trkpt lat="60.55945" lon="7.4519">
        <ele>1611.79</ele>
        <time>2019-04-06T15:23:48Z</time>
      </trkpt>
      <trkpt lat="60.55946" lon="7.45192">
        <ele>1611.31</ele>
        <time>2019-04-06T15:23:50Z</time>
      </trkpt>
      <trkpt lat="60.55958" lon="7.45188">
        <ele>1607.46</ele>
        <time>2019-04-06T15:23:54Z</time>
      </trkpt>
      <trkpt lat="60.55963" lon="7.45181">
        <ele>1607.46</ele>
        <time>2019-04-06T15:23:55Z</time>
      </trkpt>
      <trkpt lat="60.56031" lon="7.45066">
        <ele>1608.42</ele>
        <time>2019-04-06T15:24:08Z</time>
      </trkpt>
      <trkpt lat="60.56066" lon="7.45016">
        <ele>1607.46</ele>
        <time>2019-04-06T15:24:14Z</time>
      </trkpt>
      <trkpt lat="60.56102" lon="7.44961">
        <ele>1606.02</ele>
        <time>2019-04-06T15:24:20Z</time>
      </trkpt>
      <trkpt lat="60.56136" lon="7.44904">
        <ele>1608.42</ele>
        <time>2019-04-06T15:24:26Z</time>
      </trkpt>
      <trkpt lat="60.56148" lon="7.44885">
        <ele>1609.38</ele>
        <time>2019-04-06T15:24:30Z</time>
      </trkpt>
      <trkpt lat="60.5613" lon="7.4489">
        <ele>1611.31</ele>
        <time>2019-04-06T15:24:34Z</time>
      </trkpt>
      <trkpt lat="60.56125" lon="7.4489">
        <ele>1613.23</ele>
        <time>2019-04-06T15:24:35Z</time>
      </trkpt>
      <trkpt lat="60.56094" lon="7.44891">
        <ele>1614.67</ele>
        <time>2019-04-06T15:24:40Z</time>
      </trkpt>
      <trkpt lat="60.56088" lon="7.44891">
        <ele>1615.63</ele>
        <time>2019-04-06T15:24:41Z</time>
      </trkpt>
      <trkpt lat="60.56067" lon="7.44893">
        <ele>1616.11</ele>
        <time>2019-04-06T15:24:44Z</time>
      </trkpt>
      <trkpt lat="60.56052" lon="7.44896">
        <ele>1617.07</ele>
        <time>2019-04-06T15:24:46Z</time>
      </trkpt>
      <trkpt lat="60.56038" lon="7.44899">
        <ele>1617.56</ele>
        <time>2019-04-06T15:24:48Z</time>
      </trkpt>
      <trkpt lat="60.56015" lon="7.4491">
        <ele>1618.52</ele>
        <time>2019-04-06T15:24:52Z</time>
      </trkpt>
      <trkpt lat="60.56005" lon="7.44912">
        <ele>1619</ele>
        <time>2019-04-06T15:24:54Z</time>
      </trkpt>
      <trkpt lat="60.55987" lon="7.44921">
        <ele>1620.92</ele>
        <time>2019-04-06T15:24:58Z</time>
      </trkpt>
      <trkpt lat="60.55974" lon="7.44922">
        <ele>1620.92</ele>
        <time>2019-04-06T15:25:07Z</time>
      </trkpt>
      <trkpt lat="60.55975" lon="7.44923">
        <ele>1621.4</ele>
        <time>2019-04-06T15:25:26Z</time>
      </trkpt>
      <trkpt lat="60.55966" lon="7.44924">
        <ele>1619.96</ele>
        <time>2019-04-06T15:25:38Z</time>
      </trkpt>
      <trkpt lat="60.55966" lon="7.44933">
        <ele>1619.96</ele>
        <time>2019-04-06T15:25:41Z</time>
      </trkpt>
      <trkpt lat="60.55982" lon="7.44932">
        <ele>1618.04</ele>
        <time>2019-04-06T15:25:46Z</time>
      </trkpt>
      <trkpt lat="60.56016" lon="7.4489">
        <ele>1614.19</ele>
        <time>2019-04-06T15:25:51Z</time>
      </trkpt>
      <trkpt lat="60.56095" lon="7.44782">
        <ele>1612.27</ele>
        <time>2019-04-06T15:26:02Z</time>
      </trkpt>
      <trkpt lat="60.56114" lon="7.44767">
        <ele>1612.27</ele>
        <time>2019-04-06T15:26:04Z</time>
      </trkpt>
      <trkpt lat="60.56155" lon="7.44721">
        <ele>1611.79</ele>
        <time>2019-04-06T15:26:09Z</time>
      </trkpt>
      <trkpt lat="60.56175" lon="7.44692">
        <ele>1612.75</ele>
        <time>2019-04-06T15:26:12Z</time>
      </trkpt>
      <trkpt lat="60.56192" lon="7.44666">
        <ele>1615.63</ele>
        <time>2019-04-06T15:26:15Z</time>
      </trkpt>
      <trkpt lat="60.56208" lon="7.44642">
        <ele>1615.63</ele>
        <time>2019-04-06T15:26:18Z</time>
      </trkpt>
      <trkpt lat="60.56221" lon="7.44616">
        <ele>1618.04</ele>
        <time>2019-04-06T15:26:21Z</time>
      </trkpt>
      <trkpt lat="60.56226" lon="7.4462">
        <ele>1619.96</ele>
        <time>2019-04-06T15:26:24Z</time>
      </trkpt>
      <trkpt lat="60.56216" lon="7.44623">
        <ele>1621.4</ele>
        <time>2019-04-06T15:26:26Z</time>
      </trkpt>
      <trkpt lat="60.5618" lon="7.44628">
        <ele>1623.32</ele>
        <time>2019-04-06T15:26:31Z</time>
      </trkpt>
      <trkpt lat="60.56164" lon="7.4463">
        <ele>1621.88</ele>
        <time>2019-04-06T15:26:33Z</time>
      </trkpt>
      <trkpt lat="60.56119" lon="7.44642">
        <ele>1623.8</ele>
        <time>2019-04-06T15:26:38Z</time>
      </trkpt>
      <trkpt lat="60.56083" lon="7.4465">
        <ele>1624.77</ele>
        <time>2019-04-06T15:26:42Z</time>
      </trkpt>
      <trkpt lat="60.56049" lon="7.44659">
        <ele>1624.77</ele>
        <time>2019-04-06T15:26:46Z</time>
      </trkpt>
      <trkpt lat="60.56" lon="7.44674">
        <ele>1628.13</ele>
        <time>2019-04-06T15:26:52Z</time>
      </trkpt>
      <trkpt lat="60.55962" lon="7.44688">
        <ele>1631.49</ele>
        <time>2019-04-06T15:26:57Z</time>
      </trkpt>
      <trkpt lat="60.5594" lon="7.44697">
        <ele>1632.46</ele>
        <time>2019-04-06T15:27:00Z</time>
      </trkpt>
      <trkpt lat="60.55917" lon="7.44707">
        <ele>1635.34</ele>
        <time>2019-04-06T15:27:03Z</time>
      </trkpt>
      <trkpt lat="60.55886" lon="7.4472">
        <ele>1636.78</ele>
        <time>2019-04-06T15:27:07Z</time>
      </trkpt>
      <trkpt lat="60.55863" lon="7.44733">
        <ele>1639.67</ele>
        <time>2019-04-06T15:27:10Z</time>
      </trkpt>
      <trkpt lat="60.55817" lon="7.44765">
        <ele>1642.55</ele>
        <time>2019-04-06T15:27:16Z</time>
      </trkpt>
      <trkpt lat="60.55802" lon="7.44779">
        <ele>1643.99</ele>
        <time>2019-04-06T15:27:18Z</time>
      </trkpt>
      <trkpt lat="60.55764" lon="7.44817">
        <ele>1647.36</ele>
        <time>2019-04-06T15:27:23Z</time>
      </trkpt>
      <trkpt lat="60.55734" lon="7.44852">
        <ele>1649.76</ele>
        <time>2019-04-06T15:27:27Z</time>
      </trkpt>
      <trkpt lat="60.55712" lon="7.44882">
        <ele>1653.12</ele>
        <time>2019-04-06T15:27:30Z</time>
      </trkpt>
      <trkpt lat="60.55705" lon="7.44892">
        <ele>1654.09</ele>
        <time>2019-04-06T15:27:31Z</time>
      </trkpt>
      <trkpt lat="60.55679" lon="7.44931">
        <ele>1659.85</ele>
        <time>2019-04-06T15:27:36Z</time>
      </trkpt>
      <trkpt lat="60.55669" lon="7.44952">
        <ele>1663.7</ele>
        <time>2019-04-06T15:27:39Z</time>
      </trkpt>
      <trkpt lat="60.55657" lon="7.44983">
        <ele>1669.95</ele>
        <time>2019-04-06T15:27:43Z</time>
      </trkpt>
      <trkpt lat="60.5565" lon="7.44998">
        <ele>1673.79</ele>
        <time>2019-04-06T15:27:45Z</time>
      </trkpt>
      <trkpt lat="60.55647" lon="7.45004">
        <ele>1675.72</ele>
        <time>2019-04-06T15:27:46Z</time>
      </trkpt>
      <trkpt lat="60.55639" lon="7.45025">
        <ele>1680.04</ele>
        <time>2019-04-06T15:27:49Z</time>
      </trkpt>
      <trkpt lat="60.55637" lon="7.4503">
        <ele>1682.44</ele>
        <time>2019-04-06T15:27:50Z</time>
      </trkpt>
      <trkpt lat="60.5563" lon="7.45052">
        <ele>1687.25</ele>
        <time>2019-04-06T15:27:53Z</time>
      </trkpt>
      <trkpt lat="60.55625" lon="7.45064">
        <ele>1691.1</ele>
        <time>2019-04-06T15:27:55Z</time>
      </trkpt>
      <trkpt lat="60.55617" lon="7.45082">
        <ele>1694.94</ele>
        <time>2019-04-06T15:27:58Z</time>
      </trkpt>
      <trkpt lat="60.55608" lon="7.45101">
        <ele>1700.71</ele>
        <time>2019-04-06T15:28:01Z</time>
      </trkpt>
      <trkpt lat="60.556" lon="7.45123">
        <ele>1706</ele>
        <time>2019-04-06T15:28:04Z</time>
      </trkpt>
      <trkpt lat="60.55594" lon="7.45145">
        <ele>1710.32</ele>
        <time>2019-04-06T15:28:07Z</time>
      </trkpt>
      <trkpt lat="60.55588" lon="7.45157">
        <ele>1713.21</ele>
        <time>2019-04-06T15:28:09Z</time>
      </trkpt>
      <trkpt lat="60.55579" lon="7.45172">
        <ele>1718.49</ele>
        <time>2019-04-06T15:28:12Z</time>
      </trkpt>
      <trkpt lat="60.55571" lon="7.45181">
        <ele>1722.34</ele>
        <time>2019-04-06T15:28:14Z</time>
      </trkpt>
      <trkpt lat="60.5556" lon="7.45197">
        <ele>1727.63</ele>
        <time>2019-04-06T15:28:17Z</time>
      </trkpt>
      <trkpt lat="60.5555" lon="7.45208">
        <ele>1732.43</ele>
        <time>2019-04-06T15:28:19Z</time>
      </trkpt>
      <trkpt lat="60.55539" lon="7.45215">
        <ele>1735.8</ele>
        <time>2019-04-06T15:28:21Z</time>
      </trkpt>
      <trkpt lat="60.5553" lon="7.45223">
        <ele>1739.64</ele>
        <time>2019-04-06T15:28:23Z</time>
      </trkpt>
      <trkpt lat="60.55524" lon="7.45227">
        <ele>1741.57</ele>
        <time>2019-04-06T15:28:24Z</time>
      </trkpt>
      <trkpt lat="60.55506" lon="7.45244">
        <ele>1747.33</ele>
        <time>2019-04-06T15:28:28Z</time>
      </trkpt>
      <trkpt lat="60.55491" lon="7.45261">
        <ele>1752.14</ele>
        <time>2019-04-06T15:28:31Z</time>
      </trkpt>
      <trkpt lat="60.55474" lon="7.45278">
        <ele>1758.87</ele>
        <time>2019-04-06T15:28:34Z</time>
      </trkpt>
      <trkpt lat="60.55456" lon="7.45287">
        <ele>1766.08</ele>
        <time>2019-04-06T15:28:37Z</time>
      </trkpt>
      <trkpt lat="60.55446" lon="7.4529">
        <ele>1768.96</ele>
        <time>2019-04-06T15:28:39Z</time>
      </trkpt>
      <trkpt lat="60.55424" lon="7.45303">
        <ele>1775.21</ele>
        <time>2019-04-06T15:28:43Z</time>
      </trkpt>
      <trkpt lat="60.55413" lon="7.45311">
        <ele>1779.06</ele>
        <time>2019-04-06T15:28:45Z</time>
      </trkpt>
      <trkpt lat="60.55396" lon="7.45321">
        <ele>1783.86</ele>
        <time>2019-04-06T15:28:48Z</time>
      </trkpt>
      <trkpt lat="60.55391" lon="7.45325">
        <ele>1784.82</ele>
        <time>2019-04-06T15:28:49Z</time>
      </trkpt>
      <trkpt lat="60.55369" lon="7.45342">
        <ele>1791.55</ele>
        <time>2019-04-06T15:28:53Z</time>
      </trkpt>
      <trkpt lat="60.55345" lon="7.45366">
        <ele>1798.28</ele>
        <time>2019-04-06T15:28:57Z</time>
      </trkpt>
      <trkpt lat="60.55331" lon="7.45377">
        <ele>1802.13</ele>
        <time>2019-04-06T15:28:59Z</time>
      </trkpt>
      <trkpt lat="60.55317" lon="7.45389">
        <ele>1805.49</ele>
        <time>2019-04-06T15:29:01Z</time>
      </trkpt>
      <trkpt lat="60.55309" lon="7.45393">
        <ele>1806.94</ele>
        <time>2019-04-06T15:29:02Z</time>
      </trkpt>
      <trkpt lat="60.55294" lon="7.454">
        <ele>1810.78</ele>
        <time>2019-04-06T15:29:04Z</time>
      </trkpt>
      <trkpt lat="60.55264" lon="7.45402">
        <ele>1817.03</ele>
        <time>2019-04-06T15:29:08Z</time>
      </trkpt>
      <trkpt lat="60.55244" lon="7.45393">
        <ele>1820.87</ele>
        <time>2019-04-06T15:29:11Z</time>
      </trkpt>
      <trkpt lat="60.55218" lon="7.45382">
        <ele>1825.68</ele>
        <time>2019-04-06T15:29:15Z</time>
      </trkpt>
      <trkpt lat="60.55206" lon="7.45379">
        <ele>1826.64</ele>
        <time>2019-04-06T15:29:17Z</time>
      </trkpt>
      <trkpt lat="60.55187" lon="7.45374">
        <ele>1830.01</ele>
        <time>2019-04-06T15:29:20Z</time>
      </trkpt>
      <trkpt lat="60.55167" lon="7.45365">
        <ele>1833.85</ele>
        <time>2019-04-06T15:29:23Z</time>
      </trkpt>
      <trkpt lat="60.5516" lon="7.45361">
        <ele>1834.81</ele>
        <time>2019-04-06T15:29:24Z</time>
      </trkpt>
      <trkpt lat="60.55147" lon="7.45356">
        <ele>1835.77</ele>
        <time>2019-04-06T15:29:26Z</time>
      </trkpt>
      <trkpt lat="60.55126" lon="7.45346">
        <ele>1839.62</ele>
        <time>2019-04-06T15:29:29Z</time>
      </trkpt>
      <trkpt lat="60.55101" lon="7.45332">
        <ele>1843.47</ele>
        <time>2019-04-06T15:29:33Z</time>
      </trkpt>
      <trkpt lat="60.55077" lon="7.45317">
        <ele>1845.87</ele>
        <time>2019-04-06T15:29:37Z</time>
      </trkpt>
      <trkpt lat="60.5506" lon="7.45305">
        <ele>1847.79</ele>
        <time>2019-04-06T15:29:40Z</time>
      </trkpt>
      <trkpt lat="60.55042" lon="7.45294">
        <ele>1850.19</ele>
        <time>2019-04-06T15:29:43Z</time>
      </trkpt>
      <trkpt lat="60.55004" lon="7.45275">
        <ele>1854.04</ele>
        <time>2019-04-06T15:29:49Z</time>
      </trkpt>
      <trkpt lat="60.54998" lon="7.45272">
        <ele>1854.52</ele>
        <time>2019-04-06T15:29:50Z</time>
      </trkpt>
      <trkpt lat="60.54966" lon="7.45252">
        <ele>1858.37</ele>
        <time>2019-04-06T15:29:55Z</time>
      </trkpt>
      <trkpt lat="60.5496" lon="7.45248">
        <ele>1858.37</ele>
        <time>2019-04-06T15:29:56Z</time>
      </trkpt>
      <trkpt lat="60.54942" lon="7.45239">
        <ele>1861.73</ele>
        <time>2019-04-06T15:29:59Z</time>
      </trkpt>
      <trkpt lat="60.54922" lon="7.45233">
        <ele>1866.06</ele>
        <time>2019-04-06T15:30:03Z</time>
      </trkpt>
      <trkpt lat="60.54914" lon="7.45231">
        <ele>1869.9</ele>
        <time>2019-04-06T15:30:05Z</time>
      </trkpt>
      <trkpt lat="60.54905" lon="7.45232">
        <ele>1867.02</ele>
        <time>2019-04-06T15:30:07Z</time>
      </trkpt>
      <trkpt lat="60.54892" lon="7.45228">
        <ele>1865.58</ele>
        <time>2019-04-06T15:30:09Z</time>
      </trkpt>
      <trkpt lat="60.54876" lon="7.4523">
        <ele>1861.25</ele>
        <time>2019-04-06T15:30:11Z</time>
      </trkpt>
      <trkpt lat="60.54866" lon="7.45228">
        <ele>1861.25</ele>
        <time>2019-04-06T15:30:12Z</time>
      </trkpt>
      <trkpt lat="60.54848" lon="7.45222">
        <ele>1861.25</ele>
        <time>2019-04-06T15:30:14Z</time>
      </trkpt>
      <trkpt lat="60.54813" lon="7.45206">
        <ele>1859.33</ele>
        <time>2019-04-06T15:30:18Z</time>
      </trkpt>
      <trkpt lat="60.54799" lon="7.45199">
        <ele>1857.89</ele>
        <time>2019-04-06T15:30:20Z</time>
      </trkpt>
      <trkpt lat="60.54778" lon="7.45191">
        <ele>1856.44</ele>
        <time>2019-04-06T15:30:23Z</time>
      </trkpt>
      <trkpt lat="60.54754" lon="7.45174">
        <ele>1855</ele>
        <time>2019-04-06T15:30:27Z</time>
      </trkpt>
      <trkpt lat="60.54749" lon="7.45179">
        <ele>1853.08</ele>
        <time>2019-04-06T15:30:30Z</time>
      </trkpt>
      <trkpt lat="60.54749" lon="7.4518">
        <ele>1853.08</ele>
        <time>2019-04-06T15:30:32Z</time>
      </trkpt>
      <trkpt lat="60.54761" lon="7.45182">
        <ele>1851.16</ele>
        <time>2019-04-06T15:30:36Z</time>
      </trkpt>
      <trkpt lat="60.54772" lon="7.45174">
        <ele>1850.68</ele>
        <time>2019-04-06T15:30:38Z</time>
      </trkpt>
      <trkpt lat="60.54783" lon="7.45163">
        <ele>1851.64</ele>
        <time>2019-04-06T15:30:40Z</time>
      </trkpt>
      <trkpt lat="60.54846" lon="7.45097">
        <ele>1855.48</ele>
        <time>2019-04-06T15:30:51Z</time>
      </trkpt>
      <trkpt lat="60.54871" lon="7.45069">
        <ele>1855.96</ele>
        <time>2019-04-06T15:30:56Z</time>
      </trkpt>
      <trkpt lat="60.54886" lon="7.45051">
        <ele>1854.04</ele>
        <time>2019-04-06T15:30:59Z</time>
      </trkpt>
      <trkpt lat="60.54905" lon="7.45025">
        <ele>1854.52</ele>
        <time>2019-04-06T15:31:03Z</time>
      </trkpt>
      <trkpt lat="60.54906" lon="7.45028">
        <ele>1856.44</ele>
        <time>2019-04-06T15:31:05Z</time>
      </trkpt>
      <trkpt lat="60.54888" lon="7.45022">
        <ele>1857.89</ele>
        <time>2019-04-06T15:31:09Z</time>
      </trkpt>
      <trkpt lat="60.54789" lon="7.44972">
        <ele>1859.33</ele>
        <time>2019-04-06T15:31:23Z</time>
      </trkpt>
      <trkpt lat="60.54774" lon="7.44966">
        <ele>1859.33</ele>
        <time>2019-04-06T15:31:25Z</time>
      </trkpt>
      <trkpt lat="60.54742" lon="7.44945">
        <ele>1857.4</ele>
        <time>2019-04-06T15:31:30Z</time>
      </trkpt>
      <trkpt lat="60.54678" lon="7.44892">
        <ele>1857.89</ele>
        <time>2019-04-06T15:31:40Z</time>
      </trkpt>
      <trkpt lat="60.54653" lon="7.44868">
        <ele>1857.89</ele>
        <time>2019-04-06T15:31:44Z</time>
      </trkpt>
      <trkpt lat="60.54628" lon="7.4485">
        <ele>1855.96</ele>
        <time>2019-04-06T15:31:48Z</time>
      </trkpt>
      <trkpt lat="60.54608" lon="7.44836">
        <ele>1855.96</ele>
        <time>2019-04-06T15:31:51Z</time>
      </trkpt>
      <trkpt lat="60.54593" lon="7.44825">
        <ele>1851.16</ele>
        <time>2019-04-06T15:31:56Z</time>
      </trkpt>
      <trkpt lat="60.54604" lon="7.44823">
        <ele>1849.23</ele>
        <time>2019-04-06T15:31:59Z</time>
      </trkpt>
      <trkpt lat="60.54616" lon="7.44814">
        <ele>1849.71</ele>
        <time>2019-04-06T15:32:01Z</time>
      </trkpt>
      <trkpt lat="60.54652" lon="7.44775">
        <ele>1852.6</ele>
        <time>2019-04-06T15:32:07Z</time>
      </trkpt>
      <trkpt lat="60.54658" lon="7.4477">
        <ele>1852.6</ele>
        <time>2019-04-06T15:32:08Z</time>
      </trkpt>
      <trkpt lat="60.54691" lon="7.44739">
        <ele>1853.08</ele>
        <time>2019-04-06T15:32:13Z</time>
      </trkpt>
      <trkpt lat="60.54717" lon="7.44713">
        <ele>1853.56</ele>
        <time>2019-04-06T15:32:17Z</time>
      </trkpt>
      <trkpt lat="60.54744" lon="7.44686">
        <ele>1855.48</ele>
        <time>2019-04-06T15:32:21Z</time>
      </trkpt>
      <trkpt lat="60.54758" lon="7.44673">
        <ele>1853.08</ele>
        <time>2019-04-06T15:32:23Z</time>
      </trkpt>
      <trkpt lat="60.54766" lon="7.44666">
        <ele>1853.08</ele>
        <time>2019-04-06T15:32:24Z</time>
      </trkpt>
      <trkpt lat="60.54796" lon="7.44632">
        <ele>1853.56</ele>
        <time>2019-04-06T15:32:29Z</time>
      </trkpt>
      <trkpt lat="60.54807" lon="7.44618">
        <ele>1852.12</ele>
        <time>2019-04-06T15:32:31Z</time>
      </trkpt>
      <trkpt lat="60.54812" lon="7.44612">
        <ele>1853.56</ele>
        <time>2019-04-06T15:32:32Z</time>
      </trkpt>
      <trkpt lat="60.54854" lon="7.44555">
        <ele>1850.19</ele>
        <time>2019-04-06T15:32:40Z</time>
      </trkpt>
      <trkpt lat="60.54859" lon="7.44547">
        <ele>1850.19</ele>
        <time>2019-04-06T15:32:41Z</time>
      </trkpt>
      <trkpt lat="60.54893" lon="7.44492">
        <ele>1847.31</ele>
        <time>2019-04-06T15:32:48Z</time>
      </trkpt>
      <trkpt lat="60.54898" lon="7.44484">
        <ele>1847.31</ele>
        <time>2019-04-06T15:32:49Z</time>
      </trkpt>
      <trkpt lat="60.54902" lon="7.44475">
        <ele>1846.35</ele>
        <time>2019-04-06T15:32:50Z</time>
      </trkpt>
      <trkpt lat="60.54916" lon="7.44448">
        <ele>1845.39</ele>
        <time>2019-04-06T15:32:53Z</time>
      </trkpt>
      <trkpt lat="60.54932" lon="7.44409">
        <ele>1842.5</ele>
        <time>2019-04-06T15:32:57Z</time>
      </trkpt>
      <trkpt lat="60.54945" lon="7.44383">
        <ele>1842.02</ele>
        <time>2019-04-06T15:33:00Z</time>
      </trkpt>
      <trkpt lat="60.54951" lon="7.44366">
        <ele>1842.02</ele>
        <time>2019-04-06T15:33:05Z</time>
      </trkpt>
      <trkpt lat="60.54948" lon="7.44365">
        <ele>1842.98</ele>
        <time>2019-04-06T15:33:06Z</time>
      </trkpt>
      <trkpt lat="60.54941" lon="7.4436">
        <ele>1843.47</ele>
        <time>2019-04-06T15:33:08Z</time>
      </trkpt>
      <trkpt lat="60.54928" lon="7.44351">
        <ele>1845.39</ele>
        <time>2019-04-06T15:33:11Z</time>
      </trkpt>
      <trkpt lat="60.54913" lon="7.44335">
        <ele>1846.83</ele>
        <time>2019-04-06T15:33:14Z</time>
      </trkpt>
      <trkpt lat="60.54856" lon="7.44282">
        <ele>1848.27</ele>
        <time>2019-04-06T15:33:25Z</time>
      </trkpt>
      <trkpt lat="60.54813" lon="7.44245">
        <ele>1849.23</ele>
        <time>2019-04-06T15:33:33Z</time>
      </trkpt>
      <trkpt lat="60.54756" lon="7.44194">
        <ele>1849.23</ele>
        <time>2019-04-06T15:33:43Z</time>
      </trkpt>
      <trkpt lat="60.5473" lon="7.44175">
        <ele>1851.16</ele>
        <time>2019-04-06T15:33:47Z</time>
      </trkpt>
      <trkpt lat="60.54711" lon="7.44158">
        <ele>1849.71</ele>
        <time>2019-04-06T15:33:50Z</time>
      </trkpt>
      <trkpt lat="60.54705" lon="7.44151">
        <ele>1849.23</ele>
        <time>2019-04-06T15:33:51Z</time>
      </trkpt>
      <trkpt lat="60.54686" lon="7.44137">
        <ele>1848.75</ele>
        <time>2019-04-06T15:33:54Z</time>
      </trkpt>
      <trkpt lat="60.54598" lon="7.4407">
        <ele>1847.79</ele>
        <time>2019-04-06T15:34:07Z</time>
      </trkpt>
      <trkpt lat="60.54555" lon="7.44037">
        <ele>1845.39</ele>
        <time>2019-04-06T15:34:13Z</time>
      </trkpt>
      <trkpt lat="60.54517" lon="7.44011">
        <ele>1844.91</ele>
        <time>2019-04-06T15:34:18Z</time>
      </trkpt>
      <trkpt lat="60.5448" lon="7.43988">
        <ele>1843.95</ele>
        <time>2019-04-06T15:34:23Z</time>
      </trkpt>
      <trkpt lat="60.54466" lon="7.43976">
        <ele>1838.66</ele>
        <time>2019-04-06T15:34:28Z</time>
      </trkpt>
      <trkpt lat="60.54494" lon="7.43936">
        <ele>1837.22</ele>
        <time>2019-04-06T15:34:36Z</time>
      </trkpt>
      <trkpt lat="60.5453" lon="7.43879">
        <ele>1836.26</ele>
        <time>2019-04-06T15:34:43Z</time>
      </trkpt>
      <trkpt lat="60.54551" lon="7.43845">
        <ele>1836.26</ele>
        <time>2019-04-06T15:34:47Z</time>
      </trkpt>
      <trkpt lat="60.54592" lon="7.43787">
        <ele>1835.29</ele>
        <time>2019-04-06T15:34:54Z</time>
      </trkpt>
      <trkpt lat="60.54615" lon="7.43752">
        <ele>1836.26</ele>
        <time>2019-04-06T15:34:58Z</time>
      </trkpt>
      <trkpt lat="60.54679" lon="7.43636">
        <ele>1833.85</ele>
        <time>2019-04-06T15:35:11Z</time>
      </trkpt>
      <trkpt lat="60.54687" lon="7.43618">
        <ele>1833.85</ele>
        <time>2019-04-06T15:35:13Z</time>
      </trkpt>
      <trkpt lat="60.54752" lon="7.43511">
        <ele>1831.45</ele>
        <time>2019-04-06T15:35:27Z</time>
      </trkpt>
      <trkpt lat="60.54826" lon="7.43379">
        <ele>1828.08</ele>
        <time>2019-04-06T15:35:43Z</time>
      </trkpt>
      <trkpt lat="60.54837" lon="7.43354">
        <ele>1827.6</ele>
        <time>2019-04-06T15:35:46Z</time>
      </trkpt>
      <trkpt lat="60.54854" lon="7.43323">
        <ele>1827.12</ele>
        <time>2019-04-06T15:35:50Z</time>
      </trkpt>
      <trkpt lat="60.54875" lon="7.43279">
        <ele>1826.16</ele>
        <time>2019-04-06T15:35:55Z</time>
      </trkpt>
      <trkpt lat="60.54879" lon="7.4327">
        <ele>1825.2</ele>
        <time>2019-04-06T15:35:56Z</time>
      </trkpt>
      <trkpt lat="60.54899" lon="7.43229">
        <ele>1824.24</ele>
        <time>2019-04-06T15:36:01Z</time>
      </trkpt>
      <trkpt lat="60.54921" lon="7.43184">
        <ele>1822.8</ele>
        <time>2019-04-06T15:36:06Z</time>
      </trkpt>
      <trkpt lat="60.54957" lon="7.43108">
        <ele>1821.35</ele>
        <time>2019-04-06T15:36:15Z</time>
      </trkpt>
      <trkpt lat="60.55001" lon="7.43009">
        <ele>1818.47</ele>
        <time>2019-04-06T15:36:27Z</time>
      </trkpt>
      <trkpt lat="60.55002" lon="7.43013">
        <ele>1817.03</ele>
        <time>2019-04-06T15:36:30Z</time>
      </trkpt>
      <trkpt lat="60.54989" lon="7.43014">
        <ele>1819.91</ele>
        <time>2019-04-06T15:36:36Z</time>
      </trkpt>
      <trkpt lat="60.54965" lon="7.43006">
        <ele>1823.28</ele>
        <time>2019-04-06T15:36:42Z</time>
      </trkpt>
      <trkpt lat="60.54961" lon="7.43004">
        <ele>1823.28</ele>
        <time>2019-04-06T15:36:43Z</time>
      </trkpt>
      <trkpt lat="60.54934" lon="7.42993">
        <ele>1825.68</ele>
        <time>2019-04-06T15:36:50Z</time>
      </trkpt>
      <trkpt lat="60.54915" lon="7.42981">
        <ele>1826.16</ele>
        <time>2019-04-06T15:36:54Z</time>
      </trkpt>
      <trkpt lat="60.54905" lon="7.42978">
        <ele>1827.12</ele>
        <time>2019-04-06T15:36:56Z</time>
      </trkpt>
      <trkpt lat="60.54841" lon="7.42937">
        <ele>1829.53</ele>
        <time>2019-04-06T15:37:07Z</time>
      </trkpt>
      <trkpt lat="60.54789" lon="7.42903">
        <ele>1830.49</ele>
        <time>2019-04-06T15:37:15Z</time>
      </trkpt>
      <trkpt lat="60.54776" lon="7.42896">
        <ele>1830.49</ele>
        <time>2019-04-06T15:37:17Z</time>
      </trkpt>
      <trkpt lat="60.54763" lon="7.42887">
        <ele>1829.05</ele>
        <time>2019-04-06T15:37:19Z</time>
      </trkpt>
      <trkpt lat="60.54736" lon="7.42869">
        <ele>1829.05</ele>
        <time>2019-04-06T15:37:23Z</time>
      </trkpt>
      <trkpt lat="60.54652" lon="7.42813">
        <ele>1828.56</ele>
        <time>2019-04-06T15:37:35Z</time>
      </trkpt>
      <trkpt lat="60.54604" lon="7.42782">
        <ele>1826.64</ele>
        <time>2019-04-06T15:37:42Z</time>
      </trkpt>
      <trkpt lat="60.54519" lon="7.42727">
        <ele>1824.72</ele>
        <time>2019-04-06T15:37:55Z</time>
      </trkpt>
      <trkpt lat="60.54441" lon="7.4267">
        <ele>1822.32</ele>
        <time>2019-04-06T15:38:07Z</time>
      </trkpt>
      <trkpt lat="60.54435" lon="7.42665">
        <ele>1822.32</ele>
        <time>2019-04-06T15:38:08Z</time>
      </trkpt>
      <trkpt lat="60.54378" lon="7.42618">
        <ele>1820.87</ele>
        <time>2019-04-06T15:38:17Z</time>
      </trkpt>
      <trkpt lat="60.54372" lon="7.42612">
        <ele>1820.87</ele>
        <time>2019-04-06T15:38:18Z</time>
      </trkpt>
      <trkpt lat="60.54322" lon="7.4257">
        <ele>1818.95</ele>
        <time>2019-04-06T15:38:26Z</time>
      </trkpt>
      <trkpt lat="60.54315" lon="7.42561">
        <ele>1815.11</ele>
        <time>2019-04-06T15:38:32Z</time>
      </trkpt>
      <trkpt lat="60.54318" lon="7.42558">
        <ele>1814.63</ele>
        <time>2019-04-06T15:38:33Z</time>
      </trkpt>
      <trkpt lat="60.54327" lon="7.42551">
        <ele>1816.07</ele>
        <time>2019-04-06T15:38:35Z</time>
      </trkpt>
      <trkpt lat="60.54362" lon="7.4251">
        <ele>1816.55</ele>
        <time>2019-04-06T15:38:42Z</time>
      </trkpt>
      <trkpt lat="60.54398" lon="7.42457">
        <ele>1817.03</ele>
        <time>2019-04-06T15:38:50Z</time>
      </trkpt>
      <trkpt lat="60.54406" lon="7.42442">
        <ele>1817.03</ele>
        <time>2019-04-06T15:38:52Z</time>
      </trkpt>
      <trkpt lat="60.54414" lon="7.42429">
        <ele>1817.03</ele>
        <time>2019-04-06T15:38:54Z</time>
      </trkpt>
      <trkpt lat="60.54423" lon="7.42415">
        <ele>1817.03</ele>
        <time>2019-04-06T15:38:56Z</time>
      </trkpt>
      <trkpt lat="60.54461" lon="7.42368">
        <ele>1817.99</ele>
        <time>2019-04-06T15:39:04Z</time>
      </trkpt>
      <trkpt lat="60.54476" lon="7.42349">
        <ele>1817.99</ele>
        <time>2019-04-06T15:39:07Z</time>
      </trkpt>
      <trkpt lat="60.54497" lon="7.42323">
        <ele>1817.51</ele>
        <time>2019-04-06T15:39:12Z</time>
      </trkpt>
      <trkpt lat="60.54512" lon="7.42308">
        <ele>1818.47</ele>
        <time>2019-04-06T15:39:19Z</time>
      </trkpt>
      <trkpt lat="60.54513" lon="7.42306">
        <ele>1818.95</ele>
        <time>2019-04-06T15:39:38Z</time>
      </trkpt>
      <trkpt lat="60.54513" lon="7.42309">
        <ele>1819.43</ele>
        <time>2019-04-06T15:40:02Z</time>
      </trkpt>
      <trkpt lat="60.54515" lon="7.42306">
        <ele>1819.43</ele>
        <time>2019-04-06T15:40:39Z</time>
      </trkpt>
      <trkpt lat="60.54516" lon="7.42306">
        <ele>1819.43</ele>
        <time>2019-04-06T15:40:47Z</time>
      </trkpt>
      <trkpt lat="60.54538" lon="7.42306">
        <ele>1819.43</ele>
        <time>2019-04-06T15:40:53Z</time>
      </trkpt>
      <trkpt lat="60.54568" lon="7.4227">
        <ele>1819.43</ele>
        <time>2019-04-06T15:40:59Z</time>
      </trkpt>
      <trkpt lat="60.54586" lon="7.42238">
        <ele>1819.91</ele>
        <time>2019-04-06T15:41:04Z</time>
      </trkpt>
      <trkpt lat="60.54606" lon="7.42215">
        <ele>1820.39</ele>
        <time>2019-04-06T15:41:09Z</time>
      </trkpt>
      <trkpt lat="60.5463" lon="7.42216">
        <ele>1820.87</ele>
        <time>2019-04-06T15:41:16Z</time>
      </trkpt>
      <trkpt lat="60.54631" lon="7.42238">
        <ele>1820.87</ele>
        <time>2019-04-06T15:41:18Z</time>
      </trkpt>
      <trkpt lat="60.54632" lon="7.42347">
        <ele>1820.87</ele>
        <time>2019-04-06T15:41:30Z</time>
      </trkpt>
      <trkpt lat="60.54632" lon="7.42376">
        <ele>1821.35</ele>
        <time>2019-04-06T15:41:35Z</time>
      </trkpt>
      <trkpt lat="60.54631" lon="7.42382">
        <ele>1822.32</ele>
        <time>2019-04-06T15:41:51Z</time>
      </trkpt>
      <trkpt lat="60.54631" lon="7.42383">
        <ele>1822.32</ele>
        <time>2019-04-06T15:41:58Z</time>
      </trkpt>
      <trkpt lat="60.54646" lon="7.42381">
        <ele>1822.32</ele>
        <time>2019-04-06T15:42:03Z</time>
      </trkpt>
      <trkpt lat="60.5466" lon="7.42368">
        <ele>1822.32</ele>
        <time>2019-04-06T15:42:06Z</time>
      </trkpt>
      <trkpt lat="60.54709" lon="7.42318">
        <ele>1822.32</ele>
        <time>2019-04-06T15:42:15Z</time>
      </trkpt>
      <trkpt lat="60.54757" lon="7.42283">
        <ele>1823.28</ele>
        <time>2019-04-06T15:42:22Z</time>
      </trkpt>
      <trkpt lat="60.54811" lon="7.42248">
        <ele>1823.28</ele>
        <time>2019-04-06T15:42:29Z</time>
      </trkpt>
      <trkpt lat="60.54887" lon="7.4217">
        <ele>1820.87</ele>
        <time>2019-04-06T15:42:40Z</time>
      </trkpt>
      <trkpt lat="60.54894" lon="7.42162">
        <ele>1819.91</ele>
        <time>2019-04-06T15:42:41Z</time>
      </trkpt>
      <trkpt lat="60.54923" lon="7.42137">
        <ele>1817.99</ele>
        <time>2019-04-06T15:42:45Z</time>
      </trkpt>
      <trkpt lat="60.5494" lon="7.42124">
        <ele>1817.51</ele>
        <time>2019-04-06T15:42:47Z</time>
      </trkpt>
      <trkpt lat="60.54948" lon="7.42117">
        <ele>1815.59</ele>
        <time>2019-04-06T15:42:48Z</time>
      </trkpt>
      <trkpt lat="60.54984" lon="7.42097">
        <ele>1815.11</ele>
        <time>2019-04-06T15:42:52Z</time>
      </trkpt>
      <trkpt lat="60.55032" lon="7.42074">
        <ele>1812.7</ele>
        <time>2019-04-06T15:42:57Z</time>
      </trkpt>
      <trkpt lat="60.55059" lon="7.4206">
        <ele>1809.82</ele>
        <time>2019-04-06T15:43:00Z</time>
      </trkpt>
      <trkpt lat="60.55087" lon="7.42047">
        <ele>1805.01</ele>
        <time>2019-04-06T15:43:03Z</time>
      </trkpt>
      <trkpt lat="60.55114" lon="7.42033">
        <ele>1802.61</ele>
        <time>2019-04-06T15:43:06Z</time>
      </trkpt>
      <trkpt lat="60.55166" lon="7.42011">
        <ele>1797.8</ele>
        <time>2019-04-06T15:43:12Z</time>
      </trkpt>
      <trkpt lat="60.55184" lon="7.42003">
        <ele>1796.84</ele>
        <time>2019-04-06T15:43:14Z</time>
      </trkpt>
      <trkpt lat="60.55203" lon="7.41993">
        <ele>1795.88</ele>
        <time>2019-04-06T15:43:16Z</time>
      </trkpt>
      <trkpt lat="60.55233" lon="7.41985">
        <ele>1792.03</ele>
        <time>2019-04-06T15:43:19Z</time>
      </trkpt>
      <trkpt lat="60.55281" lon="7.4197">
        <ele>1786.75</ele>
        <time>2019-04-06T15:43:24Z</time>
      </trkpt>
      <trkpt lat="60.55291" lon="7.41968">
        <ele>1788.19</ele>
        <time>2019-04-06T15:43:25Z</time>
      </trkpt>
      <trkpt lat="60.55334" lon="7.41965">
        <ele>1785.31</ele>
        <time>2019-04-06T15:43:29Z</time>
      </trkpt>
      <trkpt lat="60.55366" lon="7.41963">
        <ele>1781.94</ele>
        <time>2019-04-06T15:43:32Z</time>
      </trkpt>
      <trkpt lat="60.55388" lon="7.41965">
        <ele>1777.61</ele>
        <time>2019-04-06T15:43:34Z</time>
      </trkpt>
      <trkpt lat="60.55421" lon="7.41974">
        <ele>1774.25</ele>
        <time>2019-04-06T15:43:37Z</time>
      </trkpt>
      <trkpt lat="60.55432" lon="7.41977">
        <ele>1770.89</ele>
        <time>2019-04-06T15:43:38Z</time>
      </trkpt>
      <trkpt lat="60.5544" lon="7.41979">
        <ele>1768.48</ele>
        <time>2019-04-06T15:43:39Z</time>
      </trkpt>
      <trkpt lat="60.55454" lon="7.42032">
        <ele>1768.48</ele>
        <time>2019-04-06T15:43:44Z</time>
      </trkpt>
      <trkpt lat="60.55464" lon="7.42084">
        <ele>1765.12</ele>
        <time>2019-04-06T15:43:49Z</time>
      </trkpt>
      <trkpt lat="60.55481" lon="7.42103">
        <ele>1761.75</ele>
        <time>2019-04-06T15:43:51Z</time>
      </trkpt>
      <trkpt lat="60.555" lon="7.42121">
        <ele>1756.95</ele>
        <time>2019-04-06T15:43:53Z</time>
      </trkpt>
      <trkpt lat="60.55521" lon="7.42132">
        <ele>1752.62</ele>
        <time>2019-04-06T15:43:55Z</time>
      </trkpt>
      <trkpt lat="60.55551" lon="7.42139">
        <ele>1749.74</ele>
        <time>2019-04-06T15:43:58Z</time>
      </trkpt>
      <trkpt lat="60.55561" lon="7.4214">
        <ele>1749.26</ele>
        <time>2019-04-06T15:43:59Z</time>
      </trkpt>
      <trkpt lat="60.55579" lon="7.42136">
        <ele>1747.33</ele>
        <time>2019-04-06T15:44:01Z</time>
      </trkpt>
      <trkpt lat="60.55587" lon="7.42133">
        <ele>1747.33</ele>
        <time>2019-04-06T15:44:02Z</time>
      </trkpt>
      <trkpt lat="60.55637" lon="7.42148">
        <ele>1744.45</ele>
        <time>2019-04-06T15:44:08Z</time>
      </trkpt>
      <trkpt lat="60.55652" lon="7.42155">
        <ele>1743.01</ele>
        <time>2019-04-06T15:44:10Z</time>
      </trkpt>
      <trkpt lat="60.55695" lon="7.42186">
        <ele>1739.64</ele>
        <time>2019-04-06T15:44:16Z</time>
      </trkpt>
      <trkpt lat="60.55709" lon="7.42197">
        <ele>1737.72</ele>
        <time>2019-04-06T15:44:18Z</time>
      </trkpt>
      <trkpt lat="60.5572" lon="7.42234">
        <ele>1736.28</ele>
        <time>2019-04-06T15:44:22Z</time>
      </trkpt>
      <trkpt lat="60.5572" lon="7.42276">
        <ele>1734.36</ele>
        <time>2019-04-06T15:44:25Z</time>
      </trkpt>
      <trkpt lat="60.55717" lon="7.42305">
        <ele>1732.43</ele>
        <time>2019-04-06T15:44:27Z</time>
      </trkpt>
      <trkpt lat="60.55712" lon="7.42371">
        <ele>1729.55</ele>
        <time>2019-04-06T15:44:31Z</time>
      </trkpt>
      <trkpt lat="60.55712" lon="7.4239">
        <ele>1728.59</ele>
        <time>2019-04-06T15:44:32Z</time>
      </trkpt>
      <trkpt lat="60.55697" lon="7.42475">
        <ele>1724.74</ele>
        <time>2019-04-06T15:44:37Z</time>
      </trkpt>
      <trkpt lat="60.55688" lon="7.4253">
        <ele>1721.86</ele>
        <time>2019-04-06T15:44:40Z</time>
      </trkpt>
      <trkpt lat="60.55661" lon="7.42626">
        <ele>1718.01</ele>
        <time>2019-04-06T15:44:45Z</time>
      </trkpt>
      <trkpt lat="60.55643" lon="7.42685">
        <ele>1715.13</ele>
        <time>2019-04-06T15:44:48Z</time>
      </trkpt>
      <trkpt lat="60.55625" lon="7.42748">
        <ele>1711.76</ele>
        <time>2019-04-06T15:44:51Z</time>
      </trkpt>
      <trkpt lat="60.55608" lon="7.4281">
        <ele>1709.36</ele>
        <time>2019-04-06T15:44:54Z</time>
      </trkpt>
      <trkpt lat="60.55571" lon="7.42931">
        <ele>1706.96</ele>
        <time>2019-04-06T15:45:00Z</time>
      </trkpt>
      <trkpt lat="60.55559" lon="7.4297">
        <ele>1705.52</ele>
        <time>2019-04-06T15:45:02Z</time>
      </trkpt>
      <trkpt lat="60.55521" lon="7.43114">
        <ele>1703.59</ele>
        <time>2019-04-06T15:45:10Z</time>
      </trkpt>
      <trkpt lat="60.55511" lon="7.4316">
        <ele>1704.07</ele>
        <time>2019-04-06T15:45:13Z</time>
      </trkpt>
      <trkpt lat="60.55503" lon="7.43231">
        <ele>1703.59</ele>
        <time>2019-04-06T15:45:17Z</time>
      </trkpt>
      <trkpt lat="60.55494" lon="7.43295">
        <ele>1703.59</ele>
        <time>2019-04-06T15:45:21Z</time>
      </trkpt>
      <trkpt lat="60.55488" lon="7.4341">
        <ele>1701.67</ele>
        <time>2019-04-06T15:45:28Z</time>
      </trkpt>
      <trkpt lat="60.55506" lon="7.43465">
        <ele>1696.86</ele>
        <time>2019-04-06T15:45:32Z</time>
      </trkpt>
      <trkpt lat="60.55515" lon="7.43474">
        <ele>1695.42</ele>
        <time>2019-04-06T15:45:33Z</time>
      </trkpt>
      <trkpt lat="60.55552" lon="7.43504">
        <ele>1692.54</ele>
        <time>2019-04-06T15:45:37Z</time>
      </trkpt>
      <trkpt lat="60.556" lon="7.43535">
        <ele>1689.65</ele>
        <time>2019-04-06T15:45:42Z</time>
      </trkpt>
      <trkpt lat="60.55611" lon="7.4354">
        <ele>1688.69</ele>
        <time>2019-04-06T15:45:43Z</time>
      </trkpt>
      <trkpt lat="60.5563" lon="7.43557">
        <ele>1687.73</ele>
        <time>2019-04-06T15:45:45Z</time>
      </trkpt>
      <trkpt lat="60.55684" lon="7.43595">
        <ele>1684.37</ele>
        <time>2019-04-06T15:45:51Z</time>
      </trkpt>
      <trkpt lat="60.55701" lon="7.43613">
        <ele>1685.33</ele>
        <time>2019-04-06T15:45:54Z</time>
      </trkpt>
      <trkpt lat="60.55703" lon="7.4362">
        <ele>1686.29</ele>
        <time>2019-04-06T15:45:56Z</time>
      </trkpt>
      <trkpt lat="60.55697" lon="7.43635">
        <ele>1684.85</ele>
        <time>2019-04-06T15:46:02Z</time>
      </trkpt>
      <trkpt lat="60.55697" lon="7.43641">
        <ele>1684.85</ele>
        <time>2019-04-06T15:46:03Z</time>
      </trkpt>
      <trkpt lat="60.55704" lon="7.43671">
        <ele>1683.41</ele>
        <time>2019-04-06T15:46:07Z</time>
      </trkpt>
      <trkpt lat="60.55707" lon="7.43703">
        <ele>1681</ele>
        <time>2019-04-06T15:46:10Z</time>
      </trkpt>
      <trkpt lat="60.55714" lon="7.43748">
        <ele>1679.08</ele>
        <time>2019-04-06T15:46:14Z</time>
      </trkpt>
      <trkpt lat="60.55726" lon="7.43769">
        <ele>1678.6</ele>
        <time>2019-04-06T15:46:16Z</time>
      </trkpt>
      <trkpt lat="60.5574" lon="7.43785">
        <ele>1676.68</ele>
        <time>2019-04-06T15:46:18Z</time>
      </trkpt>
      <trkpt lat="60.55753" lon="7.43797">
        <ele>1675.72</ele>
        <time>2019-04-06T15:46:20Z</time>
      </trkpt>
      <trkpt lat="60.55759" lon="7.43814">
        <ele>1675.72</ele>
        <time>2019-04-06T15:46:22Z</time>
      </trkpt>
      <trkpt lat="60.5578" lon="7.43901">
        <ele>1670.91</ele>
        <time>2019-04-06T15:46:29Z</time>
      </trkpt>
      <trkpt lat="60.55794" lon="7.43931">
        <ele>1668.51</ele>
        <time>2019-04-06T15:46:32Z</time>
      </trkpt>
      <trkpt lat="60.5581" lon="7.43973">
        <ele>1666.58</ele>
        <time>2019-04-06T15:46:36Z</time>
      </trkpt>
      <trkpt lat="60.55826" lon="7.44017">
        <ele>1664.66</ele>
        <time>2019-04-06T15:46:41Z</time>
      </trkpt>
      <trkpt lat="60.55821" lon="7.44092">
        <ele>1661.78</ele>
        <time>2019-04-06T15:46:46Z</time>
      </trkpt>
      <trkpt lat="60.55813" lon="7.44123">
        <ele>1660.81</ele>
        <time>2019-04-06T15:46:48Z</time>
      </trkpt>
      <trkpt lat="60.55795" lon="7.44193">
        <ele>1659.37</ele>
        <time>2019-04-06T15:46:52Z</time>
      </trkpt>
      <trkpt lat="60.55776" lon="7.44264">
        <ele>1656.49</ele>
        <time>2019-04-06T15:46:56Z</time>
      </trkpt>
      <trkpt lat="60.55763" lon="7.4432">
        <ele>1655.05</ele>
        <time>2019-04-06T15:46:59Z</time>
      </trkpt>
      <trkpt lat="60.55758" lon="7.44395">
        <ele>1652.16</ele>
        <time>2019-04-06T15:47:03Z</time>
      </trkpt>
      <trkpt lat="60.55756" lon="7.44432">
        <ele>1650.72</ele>
        <time>2019-04-06T15:47:05Z</time>
      </trkpt>
      <trkpt lat="60.55752" lon="7.44472">
        <ele>1650.24</ele>
        <time>2019-04-06T15:47:07Z</time>
      </trkpt>
      <trkpt lat="60.55735" lon="7.44551">
        <ele>1650.24</ele>
        <time>2019-04-06T15:47:12Z</time>
      </trkpt>
      <trkpt lat="60.55714" lon="7.44643">
        <ele>1651.68</ele>
        <time>2019-04-06T15:47:18Z</time>
      </trkpt>
      <trkpt lat="60.55703" lon="7.447">
        <ele>1652.16</ele>
        <time>2019-04-06T15:47:22Z</time>
      </trkpt>
      <trkpt lat="60.55709" lon="7.44738">
        <ele>1650.24</ele>
        <time>2019-04-06T15:47:27Z</time>
      </trkpt>
      <trkpt lat="60.55709" lon="7.44737">
        <ele>1648.32</ele>
        <time>2019-04-06T15:47:29Z</time>
      </trkpt>
      <trkpt lat="60.55709" lon="7.44737">
        <ele>1649.76</ele>
        <time>2019-04-06T15:47:36Z</time>
      </trkpt>
      <trkpt lat="60.5571" lon="7.44737">
        <ele>1650.24</ele>
        <time>2019-04-06T15:47:38Z</time>
      </trkpt>
      <trkpt lat="60.55715" lon="7.44734">
        <ele>1651.2</ele>
        <time>2019-04-06T15:47:42Z</time>
      </trkpt>
      <trkpt lat="60.55718" lon="7.44745">
        <ele>1651.2</ele>
        <time>2019-04-06T15:47:55Z</time>
      </trkpt>
      <trkpt lat="60.55734" lon="7.44762">
        <ele>1648.32</ele>
        <time>2019-04-06T15:48:06Z</time>
      </trkpt>
      <trkpt lat="60.55758" lon="7.4477">
        <ele>1645.91</ele>
        <time>2019-04-06T15:48:10Z</time>
      </trkpt>
      <trkpt lat="60.55777" lon="7.44767">
        <ele>1643.51</ele>
        <time>2019-04-06T15:48:13Z</time>
      </trkpt>
      <trkpt lat="60.55789" lon="7.44769">
        <ele>1643.03</ele>
        <time>2019-04-06T15:48:15Z</time>
      </trkpt>
      <trkpt lat="60.55805" lon="7.44773">
        <ele>1639.67</ele>
        <time>2019-04-06T15:48:17Z</time>
      </trkpt>
      <trkpt lat="60.55843" lon="7.44779">
        <ele>1635.82</ele>
        <time>2019-04-06T15:48:21Z</time>
      </trkpt>
      <trkpt lat="60.55875" lon="7.44788">
        <ele>1631.01</ele>
        <time>2019-04-06T15:48:24Z</time>
      </trkpt>
      <trkpt lat="60.55917" lon="7.44807">
        <ele>1625.73</ele>
        <time>2019-04-06T15:48:28Z</time>
      </trkpt>
      <trkpt lat="60.55961" lon="7.44826">
        <ele>1622.84</ele>
        <time>2019-04-06T15:48:32Z</time>
      </trkpt>
      <trkpt lat="60.55991" lon="7.44836">
        <ele>1619</ele>
        <time>2019-04-06T15:48:35Z</time>
      </trkpt>
      <trkpt lat="60.55998" lon="7.44837">
        <ele>1619</ele>
        <time>2019-04-06T15:48:36Z</time>
      </trkpt>
      <trkpt lat="60.56" lon="7.44837">
        <ele>1618.52</ele>
        <time>2019-04-06T15:48:46Z</time>
      </trkpt>
      <trkpt lat="60.55999" lon="7.44838">
        <ele>1615.63</ele>
        <time>2019-04-06T15:49:04Z</time>
      </trkpt>
      <trkpt lat="60.56014" lon="7.44856">
        <ele>1618.04</ele>
        <time>2019-04-06T15:49:08Z</time>
      </trkpt>
      <trkpt lat="60.56045" lon="7.44908">
        <ele>1613.23</ele>
        <time>2019-04-06T15:49:13Z</time>
      </trkpt>
      <trkpt lat="60.56048" lon="7.44918">
        <ele>1613.23</ele>
        <time>2019-04-06T15:49:14Z</time>
      </trkpt>
      <trkpt lat="60.56061" lon="7.4497">
        <ele>1610.83</ele>
        <time>2019-04-06T15:49:18Z</time>
      </trkpt>
      <trkpt lat="60.56068" lon="7.45039">
        <ele>1607.94</ele>
        <time>2019-04-06T15:49:23Z</time>
      </trkpt>
      <trkpt lat="60.56082" lon="7.45096">
        <ele>1604.58</ele>
        <time>2019-04-06T15:49:27Z</time>
      </trkpt>
      <trkpt lat="60.56096" lon="7.45174">
        <ele>1600.73</ele>
        <time>2019-04-06T15:49:32Z</time>
      </trkpt>
      <trkpt lat="60.56115" lon="7.45234">
        <ele>1596.41</ele>
        <time>2019-04-06T15:49:36Z</time>
      </trkpt>
      <trkpt lat="60.56132" lon="7.45257">
        <ele>1594</ele>
        <time>2019-04-06T15:49:38Z</time>
      </trkpt>
      <trkpt lat="60.56149" lon="7.45274">
        <ele>1592.56</ele>
        <time>2019-04-06T15:49:40Z</time>
      </trkpt>
      <trkpt lat="60.56163" lon="7.45321">
        <ele>1588.72</ele>
        <time>2019-04-06T15:49:44Z</time>
      </trkpt>
      <trkpt lat="60.56171" lon="7.45345">
        <ele>1586.79</ele>
        <time>2019-04-06T15:49:47Z</time>
      </trkpt>
      <trkpt lat="60.56175" lon="7.45348">
        <ele>1586.79</ele>
        <time>2019-04-06T15:49:48Z</time>
      </trkpt>
      <trkpt lat="60.5618" lon="7.45375">
        <ele>1583.91</ele>
        <time>2019-04-06T15:49:53Z</time>
      </trkpt>
      <trkpt lat="60.56181" lon="7.45378">
        <ele>1585.83</ele>
        <time>2019-04-06T15:49:58Z</time>
      </trkpt>
      <trkpt lat="60.56181" lon="7.45379">
        <ele>1584.39</ele>
        <time>2019-04-06T15:50:09Z</time>
      </trkpt>
      <trkpt lat="60.56183" lon="7.45382">
        <ele>1583.43</ele>
        <time>2019-04-06T15:50:26Z</time>
      </trkpt>
      <trkpt lat="60.56182" lon="7.45382">
        <ele>1582.95</ele>
        <time>2019-04-06T15:50:32Z</time>
      </trkpt>
      <trkpt lat="60.56184" lon="7.45385">
        <ele>1584.39</ele>
        <time>2019-04-06T15:50:34Z</time>
      </trkpt>
      <trkpt lat="60.56188" lon="7.4539">
        <ele>1584.39</ele>
        <time>2019-04-06T15:50:37Z</time>
      </trkpt>
      <trkpt lat="60.56186" lon="7.45403">
        <ele>1581.51</ele>
        <time>2019-04-06T15:50:40Z</time>
      </trkpt>
      <trkpt lat="60.56181" lon="7.45444">
        <ele>1578.14</ele>
        <time>2019-04-06T15:50:47Z</time>
      </trkpt>
      <trkpt lat="60.56184" lon="7.45448">
        <ele>1577.66</ele>
        <time>2019-04-06T15:50:48Z</time>
      </trkpt>
      <trkpt lat="60.56189" lon="7.45456">
        <ele>1576.7</ele>
        <time>2019-04-06T15:50:50Z</time>
      </trkpt>
      <trkpt lat="60.56195" lon="7.45493">
        <ele>1572.37</ele>
        <time>2019-04-06T15:50:54Z</time>
      </trkpt>
      <trkpt lat="60.56197" lon="7.45521">
        <ele>1569.49</ele>
        <time>2019-04-06T15:50:56Z</time>
      </trkpt>
      <trkpt lat="60.56207" lon="7.45564">
        <ele>1565.64</ele>
        <time>2019-04-06T15:50:59Z</time>
      </trkpt>
      <trkpt lat="60.56225" lon="7.45601">
        <ele>1559.88</ele>
        <time>2019-04-06T15:51:02Z</time>
      </trkpt>
      <trkpt lat="60.56232" lon="7.45612">
        <ele>1557.95</ele>
        <time>2019-04-06T15:51:03Z</time>
      </trkpt>
      <trkpt lat="60.56239" lon="7.45638">
        <ele>1557.47</ele>
        <time>2019-04-06T15:51:05Z</time>
      </trkpt>
      <trkpt lat="60.56249" lon="7.45666">
        <ele>1554.11</ele>
        <time>2019-04-06T15:51:07Z</time>
      </trkpt>
      <trkpt lat="60.56263" lon="7.45705">
        <ele>1549.78</ele>
        <time>2019-04-06T15:51:10Z</time>
      </trkpt>
      <trkpt lat="60.56265" lon="7.45719">
        <ele>1549.78</ele>
        <time>2019-04-06T15:51:11Z</time>
      </trkpt>
      <trkpt lat="60.56276" lon="7.45758">
        <ele>1545.94</ele>
        <time>2019-04-06T15:51:14Z</time>
      </trkpt>
      <trkpt lat="60.56281" lon="7.45769">
        <ele>1545.46</ele>
        <time>2019-04-06T15:51:15Z</time>
      </trkpt>
      <trkpt lat="60.56286" lon="7.45828">
        <ele>1541.61</ele>
        <time>2019-04-06T15:51:19Z</time>
      </trkpt>
      <trkpt lat="60.56284" lon="7.4586">
        <ele>1538.73</ele>
        <time>2019-04-06T15:51:22Z</time>
      </trkpt>
      <trkpt lat="60.56286" lon="7.4587">
        <ele>1538.73</ele>
        <time>2019-04-06T15:51:23Z</time>
      </trkpt>
      <trkpt lat="60.56285" lon="7.45909">
        <ele>1536.32</ele>
        <time>2019-04-06T15:51:26Z</time>
      </trkpt>
      <trkpt lat="60.56287" lon="7.45971">
        <ele>1532</ele>
        <time>2019-04-06T15:51:31Z</time>
      </trkpt>
      <trkpt lat="60.56295" lon="7.46027">
        <ele>1529.11</ele>
        <time>2019-04-06T15:51:36Z</time>
      </trkpt>
      <trkpt lat="60.56305" lon="7.46042">
        <ele>1528.15</ele>
        <time>2019-04-06T15:51:38Z</time>
      </trkpt>
      <trkpt lat="60.56325" lon="7.46071">
        <ele>1525.27</ele>
        <time>2019-04-06T15:51:42Z</time>
      </trkpt>
      <trkpt lat="60.56332" lon="7.46125">
        <ele>1521.42</ele>
        <time>2019-04-06T15:51:46Z</time>
      </trkpt>
      <trkpt lat="60.56356" lon="7.46148">
        <ele>1517.58</ele>
        <time>2019-04-06T15:51:50Z</time>
      </trkpt>
      <trkpt lat="60.56362" lon="7.46152">
        <ele>1517.58</ele>
        <time>2019-04-06T15:51:51Z</time>
      </trkpt>
      <trkpt lat="60.56383" lon="7.46164">
        <ele>1514.69</ele>
        <time>2019-04-06T15:51:54Z</time>
      </trkpt>
      <trkpt lat="60.56404" lon="7.46176">
        <ele>1510.37</ele>
        <time>2019-04-06T15:51:57Z</time>
      </trkpt>
      <trkpt lat="60.56411" lon="7.4618">
        <ele>1510.85</ele>
        <time>2019-04-06T15:51:58Z</time>
      </trkpt>
      <trkpt lat="60.56432" lon="7.46194">
        <ele>1507.48</ele>
        <time>2019-04-06T15:52:01Z</time>
      </trkpt>
      <trkpt lat="60.56447" lon="7.46207">
        <ele>1503.16</ele>
        <time>2019-04-06T15:52:03Z</time>
      </trkpt>
      <trkpt lat="60.56471" lon="7.46224">
        <ele>1501.24</ele>
        <time>2019-04-06T15:52:06Z</time>
      </trkpt>
      <trkpt lat="60.5649" lon="7.46257">
        <ele>1498.35</ele>
        <time>2019-04-06T15:52:09Z</time>
      </trkpt>
      <trkpt lat="60.56481" lon="7.46329">
        <ele>1498.35</ele>
        <time>2019-04-06T15:52:15Z</time>
      </trkpt>
      <trkpt lat="60.56474" lon="7.46352">
        <ele>1498.35</ele>
        <time>2019-04-06T15:52:17Z</time>
      </trkpt>
      <trkpt lat="60.56483" lon="7.46415">
        <ele>1495.95</ele>
        <time>2019-04-06T15:52:23Z</time>
      </trkpt>
      <trkpt lat="60.56496" lon="7.46417">
        <ele>1494.51</ele>
        <time>2019-04-06T15:52:26Z</time>
      </trkpt>
      <trkpt lat="60.56512" lon="7.46423">
        <ele>1491.14</ele>
        <time>2019-04-06T15:52:29Z</time>
      </trkpt>
      <trkpt lat="60.56527" lon="7.46429">
        <ele>1494.03</ele>
        <time>2019-04-06T15:52:32Z</time>
      </trkpt>
      <trkpt lat="60.56532" lon="7.4643">
        <ele>1492.1</ele>
        <time>2019-04-06T15:52:33Z</time>
      </trkpt>
      <trkpt lat="60.56549" lon="7.46432">
        <ele>1490.66</ele>
        <time>2019-04-06T15:52:37Z</time>
      </trkpt>
      <trkpt lat="60.56553" lon="7.46432">
        <ele>1490.66</ele>
        <time>2019-04-06T15:52:38Z</time>
      </trkpt>
      <trkpt lat="60.5658" lon="7.46432">
        <ele>1488.74</ele>
        <time>2019-04-06T15:52:44Z</time>
      </trkpt>
      <trkpt lat="60.56596" lon="7.46412">
        <ele>1486.82</ele>
        <time>2019-04-06T15:52:49Z</time>
      </trkpt>
      <trkpt lat="60.5663" lon="7.46396">
        <ele>1484.89</ele>
        <time>2019-04-06T15:52:55Z</time>
      </trkpt>
      <trkpt lat="60.56655" lon="7.46392">
        <ele>1482.97</ele>
        <time>2019-04-06T15:52:59Z</time>
      </trkpt>
      <trkpt lat="60.56663" lon="7.46394">
        <ele>1481.53</ele>
        <time>2019-04-06T15:53:01Z</time>
      </trkpt>
      <trkpt lat="60.56672" lon="7.46392">
        <ele>1478.16</ele>
        <time>2019-04-06T15:53:03Z</time>
      </trkpt>
      <trkpt lat="60.56677" lon="7.46391">
        <ele>1476.72</ele>
        <time>2019-04-06T15:53:04Z</time>
      </trkpt>
      <trkpt lat="60.56699" lon="7.46381">
        <ele>1473.84</ele>
        <time>2019-04-06T15:53:08Z</time>
      </trkpt>
      <trkpt lat="60.56712" lon="7.46378">
        <ele>1472.88</ele>
        <time>2019-04-06T15:53:10Z</time>
      </trkpt>
      <trkpt lat="60.5673" lon="7.46367">
        <ele>1470.47</ele>
        <time>2019-04-06T15:53:13Z</time>
      </trkpt>
      <trkpt lat="60.56743" lon="7.46358">
        <ele>1470.95</ele>
        <time>2019-04-06T15:53:15Z</time>
      </trkpt>
      <trkpt lat="60.56767" lon="7.46351">
        <ele>1467.11</ele>
        <time>2019-04-06T15:53:19Z</time>
      </trkpt>
      <trkpt lat="60.56782" lon="7.46344">
        <ele>1467.11</ele>
        <time>2019-04-06T15:53:23Z</time>
      </trkpt>
      <trkpt lat="60.56794" lon="7.46347">
        <ele>1465.67</ele>
        <time>2019-04-06T15:53:26Z</time>
      </trkpt>
      <trkpt lat="60.5681" lon="7.46349">
        <ele>1463.26</ele>
        <time>2019-04-06T15:53:29Z</time>
      </trkpt>
      <trkpt lat="60.56828" lon="7.46355">
        <ele>1460.38</ele>
        <time>2019-04-06T15:53:32Z</time>
      </trkpt>
      <trkpt lat="60.56834" lon="7.46358">
        <ele>1460.38</ele>
        <time>2019-04-06T15:53:33Z</time>
      </trkpt>
      <trkpt lat="60.56846" lon="7.46368">
        <ele>1459.9</ele>
        <time>2019-04-06T15:53:35Z</time>
      </trkpt>
      <trkpt lat="60.56858" lon="7.46375">
        <ele>1456.53</ele>
        <time>2019-04-06T15:53:37Z</time>
      </trkpt>
      <trkpt lat="60.56868" lon="7.46377">
        <ele>1455.57</ele>
        <time>2019-04-06T15:53:39Z</time>
      </trkpt>
      <trkpt lat="60.56889" lon="7.46391">
        <ele>1452.69</ele>
        <time>2019-04-06T15:53:43Z</time>
      </trkpt>
      <trkpt lat="60.56889" lon="7.46397">
        <ele>1452.21</ele>
        <time>2019-04-06T15:53:44Z</time>
      </trkpt>
      <trkpt lat="60.5691" lon="7.46451">
        <ele>1446.92</ele>
        <time>2019-04-06T15:53:51Z</time>
      </trkpt>
      <trkpt lat="60.56937" lon="7.46471">
        <ele>1443.08</ele>
        <time>2019-04-06T15:53:56Z</time>
      </trkpt>
      <trkpt lat="60.56947" lon="7.46477">
        <ele>1441.15</ele>
        <time>2019-04-06T15:53:58Z</time>
      </trkpt>
      <trkpt lat="60.56964" lon="7.46479">
        <ele>1437.31</ele>
        <time>2019-04-06T15:54:01Z</time>
      </trkpt>
      <trkpt lat="60.5697" lon="7.46479">
        <ele>1436.83</ele>
        <time>2019-04-06T15:54:02Z</time>
      </trkpt>
      <trkpt lat="60.56985" lon="7.46483">
        <ele>1432.02</ele>
        <time>2019-04-06T15:54:04Z</time>
      </trkpt>
      <trkpt lat="60.57" lon="7.46487">
        <ele>1429.62</ele>
        <time>2019-04-06T15:54:06Z</time>
      </trkpt>
      <trkpt lat="60.57029" lon="7.46492">
        <ele>1423.85</ele>
        <time>2019-04-06T15:54:10Z</time>
      </trkpt>
      <trkpt lat="60.57036" lon="7.46493">
        <ele>1422.41</ele>
        <time>2019-04-06T15:54:11Z</time>
      </trkpt>
      <trkpt lat="60.5706" lon="7.46486">
        <ele>1417.6</ele>
        <time>2019-04-06T15:54:15Z</time>
      </trkpt>
      <trkpt lat="60.57074" lon="7.46487">
        <ele>1412.79</ele>
        <time>2019-04-06T15:54:17Z</time>
      </trkpt>
      <trkpt lat="60.57081" lon="7.46486">
        <ele>1412.79</ele>
        <time>2019-04-06T15:54:18Z</time>
      </trkpt>
      <trkpt lat="60.57087" lon="7.46489">
        <ele>1412.31</ele>
        <time>2019-04-06T15:54:19Z</time>
      </trkpt>
      <trkpt lat="60.57107" lon="7.46499">
        <ele>1408.95</ele>
        <time>2019-04-06T15:54:22Z</time>
      </trkpt>
      <trkpt lat="60.57122" lon="7.46499">
        <ele>1405.58</ele>
        <time>2019-04-06T15:54:24Z</time>
      </trkpt>
      <trkpt lat="60.57143" lon="7.46513">
        <ele>1401.26</ele>
        <time>2019-04-06T15:54:27Z</time>
      </trkpt>
      <trkpt lat="60.57158" lon="7.46524">
        <ele>1397.89</ele>
        <time>2019-04-06T15:54:29Z</time>
      </trkpt>
      <trkpt lat="60.57165" lon="7.46531">
        <ele>1396.45</ele>
        <time>2019-04-06T15:54:30Z</time>
      </trkpt>
      <trkpt lat="60.5718" lon="7.46542">
        <ele>1394.53</ele>
        <time>2019-04-06T15:54:32Z</time>
      </trkpt>
      <trkpt lat="60.57208" lon="7.46551">
        <ele>1389.24</ele>
        <time>2019-04-06T15:54:35Z</time>
      </trkpt>
      <trkpt lat="60.57218" lon="7.46555">
        <ele>1385.4</ele>
        <time>2019-04-06T15:54:36Z</time>
      </trkpt>
      <trkpt lat="60.5723" lon="7.46559">
        <ele>1381.55</ele>
        <time>2019-04-06T15:54:37Z</time>
      </trkpt>
      <trkpt lat="60.57252" lon="7.46563">
        <ele>1377.71</ele>
        <time>2019-04-06T15:54:39Z</time>
      </trkpt>
      <trkpt lat="60.57262" lon="7.46564">
        <ele>1377.71</ele>
        <time>2019-04-06T15:54:40Z</time>
      </trkpt>
      <trkpt lat="60.57292" lon="7.46577">
        <ele>1380.59</ele>
        <time>2019-04-06T15:54:43Z</time>
      </trkpt>
      <trkpt lat="60.57312" lon="7.46587">
        <ele>1378.67</ele>
        <time>2019-04-06T15:54:45Z</time>
      </trkpt>
      <trkpt lat="60.57339" lon="7.46611">
        <ele>1378.67</ele>
        <time>2019-04-06T15:54:48Z</time>
      </trkpt>
      <trkpt lat="60.57393" lon="7.4666">
        <ele>1376.26</ele>
        <time>2019-04-06T15:54:55Z</time>
      </trkpt>
      <trkpt lat="60.57422" lon="7.46714">
        <ele>1375.78</ele>
        <time>2019-04-06T15:55:00Z</time>
      </trkpt>
      <trkpt lat="60.5744" lon="7.46736">
        <ele>1375.78</ele>
        <time>2019-04-06T15:55:04Z</time>
      </trkpt>
      <trkpt lat="60.57464" lon="7.46763">
        <ele>1377.23</ele>
        <time>2019-04-06T15:55:12Z</time>
      </trkpt>
      <trkpt lat="60.57463" lon="7.46766">
        <ele>1377.23</ele>
        <time>2019-04-06T15:55:14Z</time>
      </trkpt>
      <trkpt lat="60.57454" lon="7.4678">
        <ele>1377.23</ele>
        <time>2019-04-06T15:55:20Z</time>
      </trkpt>
      <trkpt lat="60.57441" lon="7.46791">
        <ele>1378.19</ele>
        <time>2019-04-06T15:55:31Z</time>
      </trkpt>
      <trkpt lat="60.57431" lon="7.46799">
        <ele>1376.75</ele>
        <time>2019-04-06T15:55:33Z</time>
      </trkpt>
      <trkpt lat="60.57398" lon="7.46814">
        <ele>1379.15</ele>
        <time>2019-04-06T15:55:38Z</time>
      </trkpt>
      <trkpt lat="60.5739" lon="7.46818">
        <ele>1379.15</ele>
        <time>2019-04-06T15:55:39Z</time>
      </trkpt>
      <trkpt lat="60.57372" lon="7.46823">
        <ele>1381.55</ele>
        <time>2019-04-06T15:55:41Z</time>
      </trkpt>
      <trkpt lat="60.57337" lon="7.46835">
        <ele>1379.15</ele>
        <time>2019-04-06T15:55:45Z</time>
      </trkpt>
      <trkpt lat="60.57286" lon="7.46865">
        <ele>1381.07</ele>
        <time>2019-04-06T15:55:50Z</time>
      </trkpt>
      <trkpt lat="60.57256" lon="7.46888">
        <ele>1382.03</ele>
        <time>2019-04-06T15:55:53Z</time>
      </trkpt>
      <trkpt lat="60.57209" lon="7.46947">
        <ele>1385.4</ele>
        <time>2019-04-06T15:55:58Z</time>
      </trkpt>
      <trkpt lat="60.57175" lon="7.47033">
        <ele>1383.96</ele>
        <time>2019-04-06T15:56:03Z</time>
      </trkpt>
      <trkpt lat="60.57157" lon="7.47127">
        <ele>1382.51</ele>
        <time>2019-04-06T15:56:07Z</time>
      </trkpt>
      <trkpt lat="60.57094" lon="7.47428">
        <ele>1385.88</ele>
        <time>2019-04-06T15:56:19Z</time>
      </trkpt>
      <trkpt lat="60.57082" lon="7.47485">
        <ele>1390.2</ele>
        <time>2019-04-06T15:56:22Z</time>
      </trkpt>
      <trkpt lat="60.57075" lon="7.4752">
        <ele>1393.57</ele>
        <time>2019-04-06T15:56:24Z</time>
      </trkpt>
      <trkpt lat="60.57071" lon="7.47539">
        <ele>1397.41</ele>
        <time>2019-04-06T15:56:25Z</time>
      </trkpt>
      <trkpt lat="60.57046" lon="7.47631">
        <ele>1400.78</ele>
        <time>2019-04-06T15:56:30Z</time>
      </trkpt>
      <trkpt lat="60.57033" lon="7.47684">
        <ele>1404.62</ele>
        <time>2019-04-06T15:56:33Z</time>
      </trkpt>
      <trkpt lat="60.57024" lon="7.47712">
        <ele>1406.55</ele>
        <time>2019-04-06T15:56:35Z</time>
      </trkpt>
      <trkpt lat="60.57012" lon="7.4777">
        <ele>1412.79</ele>
        <time>2019-04-06T15:56:39Z</time>
      </trkpt>
      <trkpt lat="60.57009" lon="7.47798">
        <ele>1411.35</ele>
        <time>2019-04-06T15:56:41Z</time>
      </trkpt>
      <trkpt lat="60.57004" lon="7.47837">
        <ele>1412.31</ele>
        <time>2019-04-06T15:56:44Z</time>
      </trkpt>
      <trkpt lat="60.56994" lon="7.47928">
        <ele>1414.72</ele>
        <time>2019-04-06T15:56:52Z</time>
      </trkpt>
      <trkpt lat="60.5699" lon="7.47973">
        <ele>1413.28</ele>
        <time>2019-04-06T15:56:56Z</time>
      </trkpt>
      <trkpt lat="60.56992" lon="7.48011">
        <ele>1415.2</ele>
        <time>2019-04-06T15:56:59Z</time>
      </trkpt>
      <trkpt lat="60.56995" lon="7.48037">
        <ele>1414.72</ele>
        <time>2019-04-06T15:57:01Z</time>
      </trkpt>
      <trkpt lat="60.56994" lon="7.48073">
        <ele>1412.79</ele>
        <time>2019-04-06T15:57:04Z</time>
      </trkpt>
      <trkpt lat="60.56991" lon="7.48086">
        <ele>1412.31</ele>
        <time>2019-04-06T15:57:05Z</time>
      </trkpt>
      <trkpt lat="60.56985" lon="7.48135">
        <ele>1408.47</ele>
        <time>2019-04-06T15:57:09Z</time>
      </trkpt>
      <trkpt lat="60.56979" lon="7.48184">
        <ele>1403.66</ele>
        <time>2019-04-06T15:57:13Z</time>
      </trkpt>
      <trkpt lat="60.56973" lon="7.48224">
        <ele>1398.86</ele>
        <time>2019-04-06T15:57:16Z</time>
      </trkpt>
      <trkpt lat="60.56981" lon="7.48269">
        <ele>1394.53</ele>
        <time>2019-04-06T15:57:21Z</time>
      </trkpt>
      <trkpt lat="60.56972" lon="7.48297">
        <ele>1391.17</ele>
        <time>2019-04-06T15:57:24Z</time>
      </trkpt>
      <trkpt lat="60.56973" lon="7.48317">
        <ele>1387.32</ele>
        <time>2019-04-06T15:57:26Z</time>
      </trkpt>
      <trkpt lat="60.56975" lon="7.48338">
        <ele>1383.96</ele>
        <time>2019-04-06T15:57:28Z</time>
      </trkpt>
      <trkpt lat="60.5697" lon="7.48361">
        <ele>1380.11</ele>
        <time>2019-04-06T15:57:30Z</time>
      </trkpt>
      <trkpt lat="60.56973" lon="7.48383">
        <ele>1376.75</ele>
        <time>2019-04-06T15:57:32Z</time>
      </trkpt>
      <trkpt lat="60.56983" lon="7.48401">
        <ele>1371.94</ele>
        <time>2019-04-06T15:57:34Z</time>
      </trkpt>
      <trkpt lat="60.5699" lon="7.48406">
        <ele>1368.57</ele>
        <time>2019-04-06T15:57:35Z</time>
      </trkpt>
      <trkpt lat="60.57001" lon="7.48425">
        <ele>1367.13</ele>
        <time>2019-04-06T15:57:37Z</time>
      </trkpt>
      <trkpt lat="60.57006" lon="7.48454">
        <ele>1364.73</ele>
        <time>2019-04-06T15:57:39Z</time>
      </trkpt>
      <trkpt lat="60.57012" lon="7.48494">
        <ele>1363.29</ele>
        <time>2019-04-06T15:57:44Z</time>
      </trkpt>
      <trkpt lat="60.57008" lon="7.48512">
        <ele>1362.81</ele>
        <time>2019-04-06T15:57:53Z</time>
      </trkpt>
      <trkpt lat="60.57009" lon="7.48514">
        <ele>1364.25</ele>
        <time>2019-04-06T15:57:56Z</time>
      </trkpt>
      <trkpt lat="60.57008" lon="7.48515">
        <ele>1363.29</ele>
        <time>2019-04-06T15:58:00Z</time>
      </trkpt>
      <trkpt lat="60.57008" lon="7.48523">
        <ele>1362.33</ele>
        <time>2019-04-06T15:58:07Z</time>
      </trkpt>
      <trkpt lat="60.57007" lon="7.48531">
        <ele>1363.77</ele>
        <time>2019-04-06T15:58:14Z</time>
      </trkpt>
      <trkpt lat="60.57006" lon="7.48534">
        <ele>1362.33</ele>
        <time>2019-04-06T15:58:17Z</time>
      </trkpt>
      <trkpt lat="60.57008" lon="7.48533">
        <ele>1361.84</ele>
        <time>2019-04-06T15:58:35Z</time>
      </trkpt>
      <trkpt lat="60.57008" lon="7.48534">
        <ele>1364.73</ele>
        <time>2019-04-06T15:58:38Z</time>
      </trkpt>
      <trkpt lat="60.57008" lon="7.48534">
        <ele>1362.33</ele>
        <time>2019-04-06T15:58:42Z</time>
      </trkpt>
      <trkpt lat="60.57008" lon="7.48536">
        <ele>1364.25</ele>
        <time>2019-04-06T15:58:45Z</time>
      </trkpt>
      <trkpt lat="60.5701" lon="7.48535">
        <ele>1362.81</ele>
        <time>2019-04-06T15:58:58Z</time>
      </trkpt>
      <trkpt lat="60.5701" lon="7.48533">
        <ele>1363.29</ele>
        <time>2019-04-06T15:59:06Z</time>
      </trkpt>
      <trkpt lat="60.5701" lon="7.48533">
        <ele>1361.84</ele>
        <time>2019-04-06T15:59:20Z</time>
      </trkpt>
      <trkpt lat="60.5701" lon="7.48532">
        <ele>1362.81</ele>
        <time>2019-04-06T15:59:38Z</time>
      </trkpt>
      <trkpt lat="60.5701" lon="7.48532">
        <ele>1361.36</ele>
        <time>2019-04-06T15:59:42Z</time>
      </trkpt>
      <trkpt lat="60.5701" lon="7.48534">
        <ele>1363.29</ele>
        <time>2019-04-06T15:59:58Z</time>
      </trkpt>
      <trkpt lat="60.5701" lon="7.48533">
        <ele>1363.29</ele>
        <time>2019-04-06T15:59:59Z</time>
      </trkpt>
      <trkpt lat="60.5701" lon="7.48534">
        <ele>1361.84</ele>
        <time>2019-04-06T16:00:01Z</time>
      </trkpt>
      <trkpt lat="60.5701" lon="7.48536">
        <ele>1361.36</ele>
        <time>2019-04-06T16:00:16Z</time>
      </trkpt>
      <trkpt lat="60.57011" lon="7.48538">
        <ele>1361.36</ele>
        <time>2019-04-06T16:00:28Z</time>
      </trkpt>
      <trkpt lat="60.57012" lon="7.48549">
        <ele>1359.44</ele>
        <time>2019-04-06T16:00:32Z</time>
      </trkpt>
      <trkpt lat="60.57012" lon="7.48552">
        <ele>1360.88</ele>
        <time>2019-04-06T16:00:34Z</time>
      </trkpt>
      <trkpt lat="60.57012" lon="7.4856">
        <ele>1359.44</ele>
        <time>2019-04-06T16:00:37Z</time>
      </trkpt>
      <trkpt lat="60.57011" lon="7.48581">
        <ele>1360.4</ele>
        <time>2019-04-06T16:00:49Z</time>
      </trkpt>
      <trkpt lat="60.57012" lon="7.48581">
        <ele>1360.4</ele>
        <time>2019-04-06T16:00:50Z</time>
      </trkpt>
      <trkpt lat="60.57012" lon="7.48581">
        <ele>1359.44</ele>
        <time>2019-04-06T16:00:51Z</time>
      </trkpt>
      <trkpt lat="60.57014" lon="7.48577">
        <ele>1357.52</ele>
        <time>2019-04-06T16:00:57Z</time>
      </trkpt>
      <trkpt lat="60.57014" lon="7.48576">
        <ele>1355.6</ele>
        <time>2019-04-06T16:01:13Z</time>
      </trkpt>
      <trkpt lat="60.57013" lon="7.48576">
        <ele>1361.84</ele>
        <time>2019-04-06T16:01:14Z</time>
      </trkpt>
      <trkpt lat="60.57014" lon="7.48576">
        <ele>1357.04</ele>
        <time>2019-04-06T16:01:15Z</time>
      </trkpt>
      <trkpt lat="60.57013" lon="7.48576">
        <ele>1359.44</ele>
        <time>2019-04-06T16:01:18Z</time>
      </trkpt>
      <trkpt lat="60.57013" lon="7.48575">
        <ele>1356.08</ele>
        <time>2019-04-06T16:01:20Z</time>
      </trkpt>
      <trkpt lat="60.57013" lon="7.48576">
        <ele>1357.52</ele>
        <time>2019-04-06T16:01:21Z</time>
      </trkpt>
      <trkpt lat="60.57013" lon="7.48577">
        <ele>1360.88</ele>
        <time>2019-04-06T16:01:30Z</time>
      </trkpt>
      <trkpt lat="60.57012" lon="7.48576">
        <ele>1357.52</ele>
        <time>2019-04-06T16:01:40Z</time>
      </trkpt>
      <trkpt lat="60.57011" lon="7.48576">
        <ele>1356.08</ele>
        <time>2019-04-06T16:01:54Z</time>
      </trkpt>
      <trkpt lat="60.57012" lon="7.48575">
        <ele>1356.56</ele>
        <time>2019-04-06T16:02:20Z</time>
      </trkpt>
      <trkpt lat="60.57012" lon="7.48571">
        <ele>1356.56</ele>
        <time>2019-04-06T16:03:00Z</time>
      </trkpt>
      <trkpt lat="60.57012" lon="7.48567">
        <ele>1358</ele>
        <time>2019-04-06T16:03:39Z</time>
      </trkpt>
      <trkpt lat="60.57012" lon="7.48568">
        <ele>1357.04</ele>
        <time>2019-04-06T16:04:22Z</time>
      </trkpt>
      <trkpt lat="60.57012" lon="7.48572">
        <ele>1357.04</ele>
        <time>2019-04-06T16:05:08Z</time>
      </trkpt>
      <trkpt lat="60.57012" lon="7.48575">
        <ele>1359.92</ele>
        <time>2019-04-06T16:05:10Z</time>
      </trkpt>
      <trkpt lat="60.57013" lon="7.48577">
        <ele>1358.48</ele>
        <time>2019-04-06T16:05:13Z</time>
      </trkpt>
      <trkpt lat="60.57013" lon="7.48578">
        <ele>1360.4</ele>
        <time>2019-04-06T16:05:17Z</time>
      </trkpt>
      <trkpt lat="60.57013" lon="7.48578">
        <ele>1360.4</ele>
        <time>2019-04-06T16:05:18Z</time>
      </trkpt>
      <trkpt lat="60.5701" lon="7.48592">
        <ele>1358.96</ele>
        <time>2019-04-06T16:05:23Z</time>
      </trkpt>
      <trkpt lat="60.57004" lon="7.48611">
        <ele>1360.4</ele>
        <time>2019-04-06T16:05:30Z</time>
      </trkpt>
      <trkpt lat="60.57003" lon="7.48614">
        <ele>1358.48</ele>
        <time>2019-04-06T16:05:33Z</time>
      </trkpt>
      <trkpt lat="60.57021" lon="7.48585">
        <ele>1360.4</ele>
        <time>2019-04-06T16:05:41Z</time>
      </trkpt>
      <trkpt lat="60.57044" lon="7.48579">
        <ele>1358</ele>
        <time>2019-04-06T16:05:45Z</time>
      </trkpt>
      <trkpt lat="60.57044" lon="7.48588">
        <ele>1356.56</ele>
        <time>2019-04-06T16:05:49Z</time>
      </trkpt>
      <trkpt lat="60.57026" lon="7.48581">
        <ele>1358.48</ele>
        <time>2019-04-06T16:05:52Z</time>
      </trkpt>
      <trkpt lat="60.57018" lon="7.48581">
        <ele>1359.44</ele>
        <time>2019-04-06T16:05:54Z</time>
      </trkpt>
      <trkpt lat="60.57013" lon="7.48582">
        <ele>1359.44</ele>
        <time>2019-04-06T16:05:56Z</time>
      </trkpt>
      <trkpt lat="60.56992" lon="7.48618">
        <ele>1360.88</ele>
        <time>2019-04-06T16:06:08Z</time>
      </trkpt>
      <trkpt lat="60.56981" lon="7.48628">
        <ele>1362.33</ele>
        <time>2019-04-06T16:06:11Z</time>
      </trkpt>
      <trkpt lat="60.56978" lon="7.48639">
        <ele>1360.88</ele>
        <time>2019-04-06T16:06:14Z</time>
      </trkpt>
      <trkpt lat="60.56983" lon="7.48656">
        <ele>1357.52</ele>
        <time>2019-04-06T16:06:20Z</time>
      </trkpt>
      <trkpt lat="60.56984" lon="7.48658">
        <ele>1356.56</ele>
        <time>2019-04-06T16:06:22Z</time>
      </trkpt>
      <trkpt lat="60.56972" lon="7.48702">
        <ele>1358.48</ele>
        <time>2019-04-06T16:06:30Z</time>
      </trkpt>
      <trkpt lat="60.56976" lon="7.48747">
        <ele>1354.63</ele>
        <time>2019-04-06T16:06:35Z</time>
      </trkpt>
      <trkpt lat="60.56981" lon="7.48754">
        <ele>1354.63</ele>
        <time>2019-04-06T16:06:36Z</time>
      </trkpt>
      <trkpt lat="60.57005" lon="7.48775">
        <ele>1352.23</ele>
        <time>2019-04-06T16:06:39Z</time>
      </trkpt>
      <trkpt lat="60.57024" lon="7.48779">
        <ele>1349.83</ele>
        <time>2019-04-06T16:06:41Z</time>
      </trkpt>
      <trkpt lat="60.5706" lon="7.48782">
        <ele>1343.58</ele>
        <time>2019-04-06T16:06:45Z</time>
      </trkpt>
      <trkpt lat="60.5707" lon="7.48784">
        <ele>1340.22</ele>
        <time>2019-04-06T16:06:46Z</time>
      </trkpt>
      <trkpt lat="60.57079" lon="7.48787">
        <ele>1341.18</ele>
        <time>2019-04-06T16:06:47Z</time>
      </trkpt>
      <trkpt lat="60.5709" lon="7.48791">
        <ele>1345.02</ele>
        <time>2019-04-06T16:06:48Z</time>
      </trkpt>
      <trkpt lat="60.571" lon="7.48795">
        <ele>1342.14</ele>
        <time>2019-04-06T16:06:49Z</time>
      </trkpt>
      <trkpt lat="60.57119" lon="7.48803">
        <ele>1339.25</ele>
        <time>2019-04-06T16:06:51Z</time>
      </trkpt>
      <trkpt lat="60.57128" lon="7.48806">
        <ele>1339.25</ele>
        <time>2019-04-06T16:06:52Z</time>
      </trkpt>
      <trkpt lat="60.57161" lon="7.48822">
        <ele>1336.85</ele>
        <time>2019-04-06T16:06:56Z</time>
      </trkpt>
      <trkpt lat="60.57185" lon="7.48835">
        <ele>1336.37</ele>
        <time>2019-04-06T16:06:59Z</time>
      </trkpt>
      <trkpt lat="60.57211" lon="7.48867">
        <ele>1331.56</ele>
        <time>2019-04-06T16:07:03Z</time>
      </trkpt>
      <trkpt lat="60.5723" lon="7.48885">
        <ele>1325.8</ele>
        <time>2019-04-06T16:07:06Z</time>
      </trkpt>
      <trkpt lat="60.57235" lon="7.4889">
        <ele>1325.8</ele>
        <time>2019-04-06T16:07:07Z</time>
      </trkpt>
      <trkpt lat="60.57241" lon="7.48896">
        <ele>1324.83</ele>
        <time>2019-04-06T16:07:08Z</time>
      </trkpt>
      <trkpt lat="60.57249" lon="7.48924">
        <ele>1321.47</ele>
        <time>2019-04-06T16:07:11Z</time>
      </trkpt>
      <trkpt lat="60.57274" lon="7.4896">
        <ele>1317.14</ele>
        <time>2019-04-06T16:07:15Z</time>
      </trkpt>
      <trkpt lat="60.57299" lon="7.48978">
        <ele>1309.45</ele>
        <time>2019-04-06T16:07:17Z</time>
      </trkpt>
      <trkpt lat="60.57312" lon="7.48987">
        <ele>1306.09</ele>
        <time>2019-04-06T16:07:18Z</time>
      </trkpt>
      <trkpt lat="60.57341" lon="7.49009">
        <ele>1302.72</ele>
        <time>2019-04-06T16:07:20Z</time>
      </trkpt>
      <trkpt lat="60.57366" lon="7.49029">
        <ele>1300.32</ele>
        <time>2019-04-06T16:07:22Z</time>
      </trkpt>
      <trkpt lat="60.57403" lon="7.49057">
        <ele>1296.48</ele>
        <time>2019-04-06T16:07:25Z</time>
      </trkpt>
      <trkpt lat="60.57414" lon="7.49066">
        <ele>1295.51</ele>
        <time>2019-04-06T16:07:26Z</time>
      </trkpt>
      <trkpt lat="60.57436" lon="7.49077">
        <ele>1294.07</ele>
        <time>2019-04-06T16:07:28Z</time>
      </trkpt>
      <trkpt lat="60.57455" lon="7.49089">
        <ele>1295.99</ele>
        <time>2019-04-06T16:07:30Z</time>
      </trkpt>
      <trkpt lat="60.57506" lon="7.49119">
        <ele>1292.15</ele>
        <time>2019-04-06T16:07:35Z</time>
      </trkpt>
      <trkpt lat="60.57537" lon="7.49135">
        <ele>1294.07</ele>
        <time>2019-04-06T16:07:38Z</time>
      </trkpt>
      <trkpt lat="60.57552" lon="7.49141">
        <ele>1295.03</ele>
        <time>2019-04-06T16:07:40Z</time>
      </trkpt>
      <trkpt lat="60.57587" lon="7.4915">
        <ele>1293.11</ele>
        <time>2019-04-06T16:07:44Z</time>
      </trkpt>
      <trkpt lat="60.57608" lon="7.49151">
        <ele>1290.71</ele>
        <time>2019-04-06T16:07:46Z</time>
      </trkpt>
      <trkpt lat="60.57653" lon="7.49173">
        <ele>1295.51</ele>
        <time>2019-04-06T16:07:51Z</time>
      </trkpt>
      <trkpt lat="60.57675" lon="7.49184">
        <ele>1297.92</ele>
        <time>2019-04-06T16:07:54Z</time>
      </trkpt>
      <trkpt lat="60.57709" lon="7.49212">
        <ele>1304.17</ele>
        <time>2019-04-06T16:07:59Z</time>
      </trkpt>
      <trkpt lat="60.57724" lon="7.49224">
        <ele>1305.13</ele>
        <time>2019-04-06T16:08:01Z</time>
      </trkpt>
      <trkpt lat="60.57731" lon="7.4923">
        <ele>1306.09</ele>
        <time>2019-04-06T16:08:02Z</time>
      </trkpt>
      <trkpt lat="60.57746" lon="7.49243">
        <ele>1307.05</ele>
        <time>2019-04-06T16:08:04Z</time>
      </trkpt>
      <trkpt lat="60.57762" lon="7.49256">
        <ele>1308.49</ele>
        <time>2019-04-06T16:08:06Z</time>
      </trkpt>
      <trkpt lat="60.57793" lon="7.49272">
        <ele>1312.82</ele>
        <time>2019-04-06T16:08:10Z</time>
      </trkpt>
      <trkpt lat="60.578" lon="7.49276">
        <ele>1313.3</ele>
        <time>2019-04-06T16:08:11Z</time>
      </trkpt>
      <trkpt lat="60.57874" lon="7.49321">
        <ele>1316.18</ele>
        <time>2019-04-06T16:08:19Z</time>
      </trkpt>
      <trkpt lat="60.5791" lon="7.49344">
        <ele>1318.59</ele>
        <time>2019-04-06T16:08:23Z</time>
      </trkpt>
      <trkpt lat="60.57918" lon="7.49349">
        <ele>1320.03</ele>
        <time>2019-04-06T16:08:24Z</time>
      </trkpt>
      <trkpt lat="60.57935" lon="7.49361">
        <ele>1320.51</ele>
        <time>2019-04-06T16:08:26Z</time>
      </trkpt>
      <trkpt lat="60.57957" lon="7.49387">
        <ele>1321.95</ele>
        <time>2019-04-06T16:08:29Z</time>
      </trkpt>
      <trkpt lat="60.57977" lon="7.49406">
        <ele>1322.91</ele>
        <time>2019-04-06T16:08:32Z</time>
      </trkpt>
      <trkpt lat="60.57988" lon="7.4942">
        <ele>1322.91</ele>
        <time>2019-04-06T16:08:34Z</time>
      </trkpt>
      <trkpt lat="60.58005" lon="7.49464">
        <ele>1321.47</ele>
        <time>2019-04-06T16:08:38Z</time>
      </trkpt>
      <trkpt lat="60.58013" lon="7.49494">
        <ele>1320.51</ele>
        <time>2019-04-06T16:08:40Z</time>
      </trkpt>
      <trkpt lat="60.58024" lon="7.4953">
        <ele>1318.1</ele>
        <time>2019-04-06T16:08:43Z</time>
      </trkpt>
      <trkpt lat="60.58032" lon="7.49546">
        <ele>1317.14</ele>
        <time>2019-04-06T16:08:45Z</time>
      </trkpt>
      <trkpt lat="60.5804" lon="7.49562">
        <ele>1317.62</ele>
        <time>2019-04-06T16:08:47Z</time>
      </trkpt>
      <trkpt lat="60.58049" lon="7.49576">
        <ele>1319.07</ele>
        <time>2019-04-06T16:08:49Z</time>
      </trkpt>
      <trkpt lat="60.58065" lon="7.49598">
        <ele>1319.07</ele>
        <time>2019-04-06T16:08:54Z</time>
      </trkpt>
      <trkpt lat="60.58072" lon="7.49634">
        <ele>1317.14</ele>
        <time>2019-04-06T16:09:00Z</time>
      </trkpt>
      <trkpt lat="60.58067" lon="7.49676">
        <ele>1313.3</ele>
        <time>2019-04-06T16:09:05Z</time>
      </trkpt>
      <trkpt lat="60.58064" lon="7.49714">
        <ele>1310.41</ele>
        <time>2019-04-06T16:09:09Z</time>
      </trkpt>
      <trkpt lat="60.58065" lon="7.49722">
        <ele>1309.45</ele>
        <time>2019-04-06T16:09:10Z</time>
      </trkpt>
      <trkpt lat="60.58067" lon="7.49727">
        <ele>1309.93</ele>
        <time>2019-04-06T16:09:11Z</time>
      </trkpt>
      <trkpt lat="60.58069" lon="7.49729">
        <ele>1308.97</ele>
        <time>2019-04-06T16:09:12Z</time>
      </trkpt>
      <trkpt lat="60.58073" lon="7.4973">
        <ele>1308.97</ele>
        <time>2019-04-06T16:09:13Z</time>
      </trkpt>
      <trkpt lat="60.58077" lon="7.49731">
        <ele>1308.97</ele>
        <time>2019-04-06T16:09:14Z</time>
      </trkpt>
      <trkpt lat="60.58081" lon="7.49732">
        <ele>1308.49</ele>
        <time>2019-04-06T16:09:15Z</time>
      </trkpt>
      <trkpt lat="60.58088" lon="7.49735">
        <ele>1307.05</ele>
        <time>2019-04-06T16:09:18Z</time>
      </trkpt>
      <trkpt lat="60.58091" lon="7.49736">
        <ele>1307.53</ele>
        <time>2019-04-06T16:09:30Z</time>
      </trkpt>
      <trkpt lat="60.58093" lon="7.49737">
        <ele>1306.09</ele>
        <time>2019-04-06T16:09:41Z</time>
      </trkpt>
      <trkpt lat="60.58094" lon="7.49736">
        <ele>1305.61</ele>
        <time>2019-04-06T16:09:42Z</time>
      </trkpt>
      <trkpt lat="60.58096" lon="7.49736">
        <ele>1305.61</ele>
        <time>2019-04-06T16:09:43Z</time>
      </trkpt>
      <trkpt lat="60.58097" lon="7.49737">
        <ele>1305.13</ele>
        <time>2019-04-06T16:09:44Z</time>
      </trkpt>
      <trkpt lat="60.58099" lon="7.49738">
        <ele>1304.65</ele>
        <time>2019-04-06T16:09:45Z</time>
      </trkpt>
      <trkpt lat="60.581" lon="7.49739">
        <ele>1304.17</ele>
        <time>2019-04-06T16:09:46Z</time>
      </trkpt>
      <trkpt lat="60.58102" lon="7.49738">
        <ele>1303.2</ele>
        <time>2019-04-06T16:09:47Z</time>
      </trkpt>
      <trkpt lat="60.58104" lon="7.49735">
        <ele>1303.2</ele>
        <time>2019-04-06T16:09:48Z</time>
      </trkpt>
      <trkpt lat="60.58108" lon="7.49732">
        <ele>1301.76</ele>
        <time>2019-04-06T16:09:49Z</time>
      </trkpt>
      <trkpt lat="60.58112" lon="7.49727">
        <ele>1301.76</ele>
        <time>2019-04-06T16:09:50Z</time>
      </trkpt>
      <trkpt lat="60.58117" lon="7.49722">
        <ele>1301.76</ele>
        <time>2019-04-06T16:09:51Z</time>
      </trkpt>
      <trkpt lat="60.58122" lon="7.49715">
        <ele>1300.32</ele>
        <time>2019-04-06T16:09:52Z</time>
      </trkpt>
      <trkpt lat="60.58134" lon="7.49697">
        <ele>1293.59</ele>
        <time>2019-04-06T16:09:55Z</time>
      </trkpt>
      <trkpt lat="60.58149" lon="7.49685">
        <ele>1289.75</ele>
        <time>2019-04-06T16:09:58Z</time>
      </trkpt>
      <trkpt lat="60.58155" lon="7.4968">
        <ele>1288.78</ele>
        <time>2019-04-06T16:09:59Z</time>
      </trkpt>
      <trkpt lat="60.58176" lon="7.49673">
        <ele>1286.86</ele>
        <time>2019-04-06T16:10:02Z</time>
      </trkpt>
      <trkpt lat="60.58202" lon="7.49665">
        <ele>1283.5</ele>
        <time>2019-04-06T16:10:06Z</time>
      </trkpt>
      <trkpt lat="60.58208" lon="7.49663">
        <ele>1282.54</ele>
        <time>2019-04-06T16:10:07Z</time>
      </trkpt>
      <trkpt lat="60.58249" lon="7.49636">
        <ele>1279.17</ele>
        <time>2019-04-06T16:10:13Z</time>
      </trkpt>
      <trkpt lat="60.58261" lon="7.49629">
        <ele>1277.25</ele>
        <time>2019-04-06T16:10:15Z</time>
      </trkpt>
      <trkpt lat="60.58285" lon="7.49609">
        <ele>1272.44</ele>
        <time>2019-04-06T16:10:19Z</time>
      </trkpt>
      <trkpt lat="60.58291" lon="7.49604">
        <ele>1272.44</ele>
        <time>2019-04-06T16:10:20Z</time>
      </trkpt>
      <trkpt lat="60.58298" lon="7.49599">
        <ele>1272.44</ele>
        <time>2019-04-06T16:10:21Z</time>
      </trkpt>
      <trkpt lat="60.58327" lon="7.49572">
        <ele>1271</ele>
        <time>2019-04-06T16:10:26Z</time>
      </trkpt>
      <trkpt lat="60.58345" lon="7.49556">
        <ele>1263.79</ele>
        <time>2019-04-06T16:10:29Z</time>
      </trkpt>
      <trkpt lat="60.58359" lon="7.49543">
        <ele>1260.91</ele>
        <time>2019-04-06T16:10:31Z</time>
      </trkpt>
      <trkpt lat="60.5838" lon="7.49537">
        <ele>1255.62</ele>
        <time>2019-04-06T16:10:34Z</time>
      </trkpt>
      <trkpt lat="60.58417" lon="7.49555">
        <ele>1250.33</ele>
        <time>2019-04-06T16:10:38Z</time>
      </trkpt>
      <trkpt lat="60.58443" lon="7.49577">
        <ele>1250.81</ele>
        <time>2019-04-06T16:10:41Z</time>
      </trkpt>
      <trkpt lat="60.58476" lon="7.49592">
        <ele>1247.93</ele>
        <time>2019-04-06T16:10:48Z</time>
      </trkpt>
      <trkpt lat="60.58505" lon="7.49581">
        <ele>1247.45</ele>
        <time>2019-04-06T16:10:53Z</time>
      </trkpt>
      <trkpt lat="60.58511" lon="7.49579">
        <ele>1246.97</ele>
        <time>2019-04-06T16:10:54Z</time>
      </trkpt>
      <trkpt lat="60.58525" lon="7.49575">
        <ele>1246.49</ele>
        <time>2019-04-06T16:10:56Z</time>
      </trkpt>
      <trkpt lat="60.58544" lon="7.49563">
        <ele>1242.64</ele>
        <time>2019-04-06T16:11:00Z</time>
      </trkpt>
      <trkpt lat="60.58542" lon="7.49564">
        <ele>1242.64</ele>
        <time>2019-04-06T16:11:01Z</time>
      </trkpt>
      <trkpt lat="60.58543" lon="7.49563">
        <ele>1242.64</ele>
        <time>2019-04-06T16:11:07Z</time>
      </trkpt>
      <trkpt lat="60.58544" lon="7.49576">
        <ele>1244.08</ele>
        <time>2019-04-06T16:11:10Z</time>
      </trkpt>
      <trkpt lat="60.58563" lon="7.4959">
        <ele>1245.04</ele>
        <time>2019-04-06T16:11:15Z</time>
      </trkpt>
      <trkpt lat="60.58592" lon="7.49578">
        <ele>1238.8</ele>
        <time>2019-04-06T16:11:19Z</time>
      </trkpt>
      <trkpt lat="60.58618" lon="7.49586">
        <ele>1238.32</ele>
        <time>2019-04-06T16:11:23Z</time>
      </trkpt>
      <trkpt lat="60.58626" lon="7.49595">
        <ele>1237.35</ele>
        <time>2019-04-06T16:11:25Z</time>
      </trkpt>
      <trkpt lat="60.58644" lon="7.49603">
        <ele>1233.99</ele>
        <time>2019-04-06T16:11:28Z</time>
      </trkpt>
      <trkpt lat="60.58655" lon="7.49613">
        <ele>1235.43</ele>
        <time>2019-04-06T16:11:30Z</time>
      </trkpt>
      <trkpt lat="60.58664" lon="7.49624">
        <ele>1239.28</ele>
        <time>2019-04-06T16:11:34Z</time>
      </trkpt>
      <trkpt lat="60.58664" lon="7.49627">
        <ele>1239.28</ele>
        <time>2019-04-06T16:11:35Z</time>
      </trkpt>
      <trkpt lat="60.58674" lon="7.49646">
        <ele>1241.68</ele>
        <time>2019-04-06T16:11:40Z</time>
      </trkpt>
      <trkpt lat="60.58676" lon="7.49649">
        <ele>1241.68</ele>
        <time>2019-04-06T16:11:41Z</time>
      </trkpt>
      <trkpt lat="60.58697" lon="7.49662">
        <ele>1242.16</ele>
        <time>2019-04-06T16:11:46Z</time>
      </trkpt>
      <trkpt lat="60.58714" lon="7.49669">
        <ele>1241.2</ele>
        <time>2019-04-06T16:11:49Z</time>
      </trkpt>
      <trkpt lat="60.58735" lon="7.49679">
        <ele>1241.2</ele>
        <time>2019-04-06T16:11:52Z</time>
      </trkpt>
      <trkpt lat="60.58756" lon="7.49697">
        <ele>1238.32</ele>
        <time>2019-04-06T16:11:55Z</time>
      </trkpt>
      <trkpt lat="60.58781" lon="7.49717">
        <ele>1236.39</ele>
        <time>2019-04-06T16:11:58Z</time>
      </trkpt>
      <trkpt lat="60.58798" lon="7.49731">
        <ele>1233.99</ele>
        <time>2019-04-06T16:12:00Z</time>
      </trkpt>
      <trkpt lat="60.58822" lon="7.4975">
        <ele>1235.43</ele>
        <time>2019-04-06T16:12:03Z</time>
      </trkpt>
      <trkpt lat="60.58829" lon="7.49754">
        <ele>1235.91</ele>
        <time>2019-04-06T16:12:04Z</time>
      </trkpt>
      <trkpt lat="60.58844" lon="7.49771">
        <ele>1238.8</ele>
        <time>2019-04-06T16:12:07Z</time>
      </trkpt>
      <trkpt lat="60.58864" lon="7.49797">
        <ele>1242.64</ele>
        <time>2019-04-06T16:12:13Z</time>
      </trkpt>
      <trkpt lat="60.58868" lon="7.49817">
        <ele>1241.2</ele>
        <time>2019-04-06T16:12:17Z</time>
      </trkpt>
      <trkpt lat="60.58877" lon="7.49843">
        <ele>1241.2</ele>
        <time>2019-04-06T16:12:21Z</time>
      </trkpt>
      <trkpt lat="60.58886" lon="7.49858">
        <ele>1240.72</ele>
        <time>2019-04-06T16:12:23Z</time>
      </trkpt>
      <trkpt lat="60.58902" lon="7.49884">
        <ele>1239.28</ele>
        <time>2019-04-06T16:12:27Z</time>
      </trkpt>
      <trkpt lat="60.5892" lon="7.49909">
        <ele>1238.32</ele>
        <time>2019-04-06T16:12:31Z</time>
      </trkpt>
      <trkpt lat="60.58947" lon="7.49929">
        <ele>1235.91</ele>
        <time>2019-04-06T16:12:35Z</time>
      </trkpt>
      <trkpt lat="60.58954" lon="7.49931">
        <ele>1235.91</ele>
        <time>2019-04-06T16:12:36Z</time>
      </trkpt>
      <trkpt lat="60.58982" lon="7.49955">
        <ele>1232.55</ele>
        <time>2019-04-06T16:12:40Z</time>
      </trkpt>
      <trkpt lat="60.59013" lon="7.49978">
        <ele>1229.18</ele>
        <time>2019-04-06T16:12:44Z</time>
      </trkpt>
      <trkpt lat="60.59036" lon="7.50001">
        <ele>1225.82</ele>
        <time>2019-04-06T16:12:47Z</time>
      </trkpt>
      <trkpt lat="60.59054" lon="7.50015">
        <ele>1223.9</ele>
        <time>2019-04-06T16:12:49Z</time>
      </trkpt>
      <trkpt lat="60.59073" lon="7.50033">
        <ele>1218.61</ele>
        <time>2019-04-06T16:12:51Z</time>
      </trkpt>
      <trkpt lat="60.59092" lon="7.50051">
        <ele>1215.72</ele>
        <time>2019-04-06T16:12:53Z</time>
      </trkpt>
      <trkpt lat="60.5917" lon="7.50149">
        <ele>1211.88</ele>
        <time>2019-04-06T16:13:04Z</time>
      </trkpt>
      <trkpt lat="60.59194" lon="7.50178">
        <ele>1211.4</ele>
        <time>2019-04-06T16:13:07Z</time>
      </trkpt>
      <trkpt lat="60.59235" lon="7.50263">
        <ele>1210.92</ele>
        <time>2019-04-06T16:13:13Z</time>
      </trkpt>
      <trkpt lat="60.59284" lon="7.50367">
        <ele>1209.48</ele>
        <time>2019-04-06T16:13:20Z</time>
      </trkpt>
      <trkpt lat="60.59302" lon="7.50412">
        <ele>1207.07</ele>
        <time>2019-04-06T16:13:23Z</time>
      </trkpt>
      <trkpt lat="60.59316" lon="7.50445">
        <ele>1206.11</ele>
        <time>2019-04-06T16:13:25Z</time>
      </trkpt>
      <trkpt lat="60.59323" lon="7.50462">
        <ele>1205.63</ele>
        <time>2019-04-06T16:13:26Z</time>
      </trkpt>
      <trkpt lat="60.59333" lon="7.50495">
        <ele>1205.63</ele>
        <time>2019-04-06T16:13:28Z</time>
      </trkpt>
      <trkpt lat="60.59369" lon="7.50639">
        <ele>1204.19</ele>
        <time>2019-04-06T16:13:36Z</time>
      </trkpt>
      <trkpt lat="60.59383" lon="7.50708">
        <ele>1204.19</ele>
        <time>2019-04-06T16:13:42Z</time>
      </trkpt>
      <trkpt lat="60.59392" lon="7.5074">
        <ele>1204.67</ele>
        <time>2019-04-06T16:13:45Z</time>
      </trkpt>
      <trkpt lat="60.5941" lon="7.50848">
        <ele>1204.67</ele>
        <time>2019-04-06T16:13:56Z</time>
      </trkpt>
      <trkpt lat="60.59402" lon="7.5086">
        <ele>1206.11</ele>
        <time>2019-04-06T16:14:04Z</time>
      </trkpt>
      <trkpt lat="60.59403" lon="7.50862">
        <ele>1206.59</ele>
        <time>2019-04-06T16:14:20Z</time>
      </trkpt>
      <trkpt lat="60.59401" lon="7.50861">
        <ele>1206.59</ele>
        <time>2019-04-06T16:14:38Z</time>
      </trkpt>
      <trkpt lat="60.59401" lon="7.50863">
        <ele>1206.59</ele>
        <time>2019-04-06T16:14:53Z</time>
      </trkpt>
      <trkpt lat="60.59401" lon="7.50866">
        <ele>1206.59</ele>
        <time>2019-04-06T16:15:06Z</time>
      </trkpt>
      <trkpt lat="60.59402" lon="7.50862">
        <ele>1206.59</ele>
        <time>2019-04-06T16:15:22Z</time>
      </trkpt>
      <trkpt lat="60.59403" lon="7.50863">
        <ele>1206.59</ele>
        <time>2019-04-06T16:15:50Z</time>
      </trkpt>
      <trkpt lat="60.59403" lon="7.50862">
        <ele>1206.11</ele>
        <time>2019-04-06T16:16:18Z</time>
      </trkpt>
      <trkpt lat="60.59404" lon="7.5086">
        <ele>1205.63</ele>
        <time>2019-04-06T16:16:51Z</time>
      </trkpt>
    </trkseg>
  </trk>
  <trk>
    <name><![CDATA[2019-04-07]]></name>
    <trkseg>
      <trkpt lat="60.59243" lon="7.50869">
        <ele>1209</ele>
        <time>2019-04-07T10:23:06Z</time>
      </trkpt>
      <trkpt lat="60.59248" lon="7.50877">
        <ele>1210.44</ele>
        <time>2019-04-07T10:23:14Z</time>
      </trkpt>
      <trkpt lat="60.59252" lon="7.50866">
        <ele>1208.51</ele>
        <time>2019-04-07T10:23:22Z</time>
      </trkpt>
      <trkpt lat="60.59276" lon="7.50882">
        <ele>1211.88</ele>
        <time>2019-04-07T10:23:34Z</time>
      </trkpt>
      <trkpt lat="60.59291" lon="7.50907">
        <ele>1209.48</ele>
        <time>2019-04-07T10:23:44Z</time>
      </trkpt>
      <trkpt lat="60.5929" lon="7.50902">
        <ele>1209.48</ele>
        <time>2019-04-07T10:23:52Z</time>
      </trkpt>
      <trkpt lat="60.59287" lon="7.50899">
        <ele>1209.48</ele>
        <time>2019-04-07T10:23:53Z</time>
      </trkpt>
      <trkpt lat="60.59282" lon="7.50897">
        <ele>1209</ele>
        <time>2019-04-07T10:23:54Z</time>
      </trkpt>
      <trkpt lat="60.59266" lon="7.50892">
        <ele>1208.51</ele>
        <time>2019-04-07T10:23:58Z</time>
      </trkpt>
      <trkpt lat="60.59256" lon="7.50886">
        <ele>1208.03</ele>
        <time>2019-04-07T10:24:00Z</time>
      </trkpt>
      <trkpt lat="60.59224" lon="7.50875">
        <ele>1208.51</ele>
        <time>2019-04-07T10:24:06Z</time>
      </trkpt>
      <trkpt lat="60.59204" lon="7.50868">
        <ele>1209.48</ele>
        <time>2019-04-07T10:24:10Z</time>
      </trkpt>
      <trkpt lat="60.59184" lon="7.50861">
        <ele>1210.92</ele>
        <time>2019-04-07T10:24:14Z</time>
      </trkpt>
      <trkpt lat="60.59163" lon="7.5085">
        <ele>1210.92</ele>
        <time>2019-04-07T10:24:18Z</time>
      </trkpt>
      <trkpt lat="60.59122" lon="7.50821">
        <ele>1211.88</ele>
        <time>2019-04-07T10:24:26Z</time>
      </trkpt>
      <trkpt lat="60.59097" lon="7.50805">
        <ele>1211.88</ele>
        <time>2019-04-07T10:24:30Z</time>
      </trkpt>
      <trkpt lat="60.59058" lon="7.5077">
        <ele>1213.32</ele>
        <time>2019-04-07T10:24:36Z</time>
      </trkpt>
      <trkpt lat="60.59035" lon="7.50744">
        <ele>1215.72</ele>
        <time>2019-04-07T10:24:40Z</time>
      </trkpt>
      <trkpt lat="60.59013" lon="7.5072">
        <ele>1219.09</ele>
        <time>2019-04-07T10:24:44Z</time>
      </trkpt>
      <trkpt lat="60.59003" lon="7.5071">
        <ele>1220.05</ele>
        <time>2019-04-07T10:24:46Z</time>
      </trkpt>
      <trkpt lat="60.58986" lon="7.50698">
        <ele>1221.97</ele>
        <time>2019-04-07T10:24:49Z</time>
      </trkpt>
      <trkpt lat="60.58976" lon="7.50691">
        <ele>1222.93</ele>
        <time>2019-04-07T10:24:51Z</time>
      </trkpt>
      <trkpt lat="60.58971" lon="7.50687">
        <ele>1222.93</ele>
        <time>2019-04-07T10:24:52Z</time>
      </trkpt>
      <trkpt lat="60.58884" lon="7.50628">
        <ele>1225.34</ele>
        <time>2019-04-07T10:25:05Z</time>
      </trkpt>
      <trkpt lat="60.58842" lon="7.50603">
        <ele>1227.74</ele>
        <time>2019-04-07T10:25:11Z</time>
      </trkpt>
      <trkpt lat="60.58825" lon="7.50593">
        <ele>1231.11</ele>
        <time>2019-04-07T10:25:14Z</time>
      </trkpt>
      <trkpt lat="60.58795" lon="7.50577">
        <ele>1232.55</ele>
        <time>2019-04-07T10:25:19Z</time>
      </trkpt>
      <trkpt lat="60.58775" lon="7.50559">
        <ele>1233.03</ele>
        <time>2019-04-07T10:25:23Z</time>
      </trkpt>
      <trkpt lat="60.58763" lon="7.50553">
        <ele>1234.47</ele>
        <time>2019-04-07T10:25:25Z</time>
      </trkpt>
      <trkpt lat="60.58758" lon="7.50551">
        <ele>1234.47</ele>
        <time>2019-04-07T10:25:26Z</time>
      </trkpt>
      <trkpt lat="60.58738" lon="7.50538">
        <ele>1235.91</ele>
        <time>2019-04-07T10:25:30Z</time>
      </trkpt>
      <trkpt lat="60.58711" lon="7.50502">
        <ele>1240.24</ele>
        <time>2019-04-07T10:25:40Z</time>
      </trkpt>
      <trkpt lat="60.58702" lon="7.50488">
        <ele>1243.12</ele>
        <time>2019-04-07T10:25:44Z</time>
      </trkpt>
      <trkpt lat="60.58701" lon="7.50485">
        <ele>1243.12</ele>
        <time>2019-04-07T10:25:45Z</time>
      </trkpt>
      <trkpt lat="60.58694" lon="7.5045">
        <ele>1246.97</ele>
        <time>2019-04-07T10:25:51Z</time>
      </trkpt>
      <trkpt lat="60.58686" lon="7.50435">
        <ele>1249.37</ele>
        <time>2019-04-07T10:25:56Z</time>
      </trkpt>
      <trkpt lat="60.58668" lon="7.50415">
        <ele>1252.74</ele>
        <time>2019-04-07T10:26:05Z</time>
      </trkpt>
      <trkpt lat="60.58652" lon="7.50374">
        <ele>1254.66</ele>
        <time>2019-04-07T10:26:11Z</time>
      </trkpt>
      <trkpt lat="60.58643" lon="7.50357">
        <ele>1257.06</ele>
        <time>2019-04-07T10:26:15Z</time>
      </trkpt>
      <trkpt lat="60.58638" lon="7.50335">
        <ele>1258.02</ele>
        <time>2019-04-07T10:26:25Z</time>
      </trkpt>
      <trkpt lat="60.58634" lon="7.50322">
        <ele>1258.02</ele>
        <time>2019-04-07T10:26:29Z</time>
      </trkpt>
      <trkpt lat="60.58625" lon="7.50297">
        <ele>1258.02</ele>
        <time>2019-04-07T10:26:33Z</time>
      </trkpt>
      <trkpt lat="60.58601" lon="7.5027">
        <ele>1259.46</ele>
        <time>2019-04-07T10:26:42Z</time>
      </trkpt>
      <trkpt lat="60.58597" lon="7.5027">
        <ele>1259.46</ele>
        <time>2019-04-07T10:26:43Z</time>
      </trkpt>
      <trkpt lat="60.58582" lon="7.50269">
        <ele>1254.66</ele>
        <time>2019-04-07T10:26:46Z</time>
      </trkpt>
      <trkpt lat="60.58576" lon="7.5027">
        <ele>1254.66</ele>
        <time>2019-04-07T10:26:47Z</time>
      </trkpt>
      <trkpt lat="60.5855" lon="7.50291">
        <ele>1256.1</ele>
        <time>2019-04-07T10:26:53Z</time>
      </trkpt>
      <trkpt lat="60.58546" lon="7.50293">
        <ele>1256.1</ele>
        <time>2019-04-07T10:26:54Z</time>
      </trkpt>
      <trkpt lat="60.58538" lon="7.503">
        <ele>1256.1</ele>
        <time>2019-04-07T10:26:56Z</time>
      </trkpt>
      <trkpt lat="60.58524" lon="7.50311">
        <ele>1254.18</ele>
        <time>2019-04-07T10:26:59Z</time>
      </trkpt>
      <trkpt lat="60.58489" lon="7.50334">
        <ele>1252.25</ele>
        <time>2019-04-07T10:27:06Z</time>
      </trkpt>
      <trkpt lat="60.58474" lon="7.50341">
        <ele>1252.25</ele>
        <time>2019-04-07T10:27:09Z</time>
      </trkpt>
      <trkpt lat="60.58452" lon="7.50355">
        <ele>1252.25</ele>
        <time>2019-04-07T10:27:14Z</time>
      </trkpt>
      <trkpt lat="60.58441" lon="7.50357">
        <ele>1253.7</ele>
        <time>2019-04-07T10:27:16Z</time>
      </trkpt>
      <trkpt lat="60.58419" lon="7.50356">
        <ele>1253.7</ele>
        <time>2019-04-07T10:27:20Z</time>
      </trkpt>
      <trkpt lat="60.58401" lon="7.50349">
        <ele>1251.29</ele>
        <time>2019-04-07T10:27:24Z</time>
      </trkpt>
      <trkpt lat="60.584" lon="7.5035">
        <ele>1251.29</ele>
        <time>2019-04-07T10:27:26Z</time>
      </trkpt>
      <trkpt lat="60.58391" lon="7.50382">
        <ele>1247.93</ele>
        <time>2019-04-07T10:27:36Z</time>
      </trkpt>
      <trkpt lat="60.58383" lon="7.50414">
        <ele>1244.56</ele>
        <time>2019-04-07T10:27:41Z</time>
      </trkpt>
      <trkpt lat="60.58379" lon="7.50429">
        <ele>1243.6</ele>
        <time>2019-04-07T10:27:43Z</time>
      </trkpt>
      <trkpt lat="60.58368" lon="7.50456">
        <ele>1242.64</ele>
        <time>2019-04-07T10:27:47Z</time>
      </trkpt>
      <trkpt lat="60.58362" lon="7.50457">
        <ele>1242.16</ele>
        <time>2019-04-07T10:27:50Z</time>
      </trkpt>
      <trkpt lat="60.58379" lon="7.50463">
        <ele>1244.56</ele>
        <time>2019-04-07T10:27:58Z</time>
      </trkpt>
      <trkpt lat="60.58387" lon="7.50462">
        <ele>1246.49</ele>
        <time>2019-04-07T10:28:01Z</time>
      </trkpt>
      <trkpt lat="60.58394" lon="7.50465">
        <ele>1246.49</ele>
        <time>2019-04-07T10:28:03Z</time>
      </trkpt>
      <trkpt lat="60.58401" lon="7.50462">
        <ele>1246.97</ele>
        <time>2019-04-07T10:28:05Z</time>
      </trkpt>
      <trkpt lat="60.58416" lon="7.50459">
        <ele>1248.89</ele>
        <time>2019-04-07T10:28:08Z</time>
      </trkpt>
      <trkpt lat="60.58432" lon="7.50468">
        <ele>1250.33</ele>
        <time>2019-04-07T10:28:11Z</time>
      </trkpt>
      <trkpt lat="60.58438" lon="7.50473">
        <ele>1250.33</ele>
        <time>2019-04-07T10:28:12Z</time>
      </trkpt>
      <trkpt lat="60.58474" lon="7.50495">
        <ele>1249.37</ele>
        <time>2019-04-07T10:28:17Z</time>
      </trkpt>
      <trkpt lat="60.58489" lon="7.50499">
        <ele>1248.89</ele>
        <time>2019-04-07T10:28:19Z</time>
      </trkpt>
      <trkpt lat="60.5853" lon="7.50532">
        <ele>1250.33</ele>
        <time>2019-04-07T10:28:25Z</time>
      </trkpt>
      <trkpt lat="60.58542" lon="7.50546">
        <ele>1250.81</ele>
        <time>2019-04-07T10:28:27Z</time>
      </trkpt>
      <trkpt lat="60.58569" lon="7.50575">
        <ele>1254.18</ele>
        <time>2019-04-07T10:28:33Z</time>
      </trkpt>
      <trkpt lat="60.58571" lon="7.50576">
        <ele>1254.18</ele>
        <time>2019-04-07T10:28:34Z</time>
      </trkpt>
      <trkpt lat="60.58573" lon="7.50576">
        <ele>1254.66</ele>
        <time>2019-04-07T10:28:35Z</time>
      </trkpt>
      <trkpt lat="60.58578" lon="7.50573">
        <ele>1254.66</ele>
        <time>2019-04-07T10:28:39Z</time>
      </trkpt>
      <trkpt lat="60.58602" lon="7.50589">
        <ele>1254.18</ele>
        <time>2019-04-07T10:28:50Z</time>
      </trkpt>
      <trkpt lat="60.58603" lon="7.5059">
        <ele>1253.7</ele>
        <time>2019-04-07T10:28:55Z</time>
      </trkpt>
      <trkpt lat="60.58614" lon="7.50574">
        <ele>1251.29</ele>
        <time>2019-04-07T10:29:03Z</time>
      </trkpt>
      <trkpt lat="60.58627" lon="7.50544">
        <ele>1252.74</ele>
        <time>2019-04-07T10:29:11Z</time>
      </trkpt>
      <trkpt lat="60.58628" lon="7.50543">
        <ele>1252.74</ele>
        <time>2019-04-07T10:29:12Z</time>
      </trkpt>
      <trkpt lat="60.5863" lon="7.50539">
        <ele>1254.18</ele>
        <time>2019-04-07T10:29:23Z</time>
      </trkpt>
      <trkpt lat="60.58639" lon="7.50576">
        <ele>1249.37</ele>
        <time>2019-04-07T10:29:29Z</time>
      </trkpt>
      <trkpt lat="60.58639" lon="7.50581">
        <ele>1248.41</ele>
        <time>2019-04-07T10:29:30Z</time>
      </trkpt>
      <trkpt lat="60.58643" lon="7.50584">
        <ele>1245.53</ele>
        <time>2019-04-07T10:29:33Z</time>
      </trkpt>
      <trkpt lat="60.58643" lon="7.50565">
        <ele>1247.93</ele>
        <time>2019-04-07T10:29:39Z</time>
      </trkpt>
      <trkpt lat="60.5866" lon="7.50578">
        <ele>1245.53</ele>
        <time>2019-04-07T10:29:46Z</time>
      </trkpt>
      <trkpt lat="60.58663" lon="7.50582">
        <ele>1245.53</ele>
        <time>2019-04-07T10:29:47Z</time>
      </trkpt>
      <trkpt lat="60.58675" lon="7.50621">
        <ele>1239.28</ele>
        <time>2019-04-07T10:29:52Z</time>
      </trkpt>
      <trkpt lat="60.58676" lon="7.50638">
        <ele>1236.39</ele>
        <time>2019-04-07T10:29:54Z</time>
      </trkpt>
      <trkpt lat="60.58686" lon="7.50642">
        <ele>1232.07</ele>
        <time>2019-04-07T10:29:59Z</time>
      </trkpt>
      <trkpt lat="60.58709" lon="7.5062">
        <ele>1233.99</ele>
        <time>2019-04-07T10:30:06Z</time>
      </trkpt>
      <trkpt lat="60.58716" lon="7.5062">
        <ele>1233.99</ele>
        <time>2019-04-07T10:30:07Z</time>
      </trkpt>
      <trkpt lat="60.58731" lon="7.50621">
        <ele>1232.07</ele>
        <time>2019-04-07T10:30:09Z</time>
      </trkpt>
      <trkpt lat="60.58747" lon="7.50624">
        <ele>1231.59</ele>
        <time>2019-04-07T10:30:11Z</time>
      </trkpt>
      <trkpt lat="60.5876" lon="7.50615">
        <ele>1230.62</ele>
        <time>2019-04-07T10:30:16Z</time>
      </trkpt>
      <trkpt lat="60.58758" lon="7.50612">
        <ele>1230.62</ele>
        <time>2019-04-07T10:30:28Z</time>
      </trkpt>
      <trkpt lat="60.5876" lon="7.50612">
        <ele>1230.62</ele>
        <time>2019-04-07T10:30:43Z</time>
      </trkpt>
      <trkpt lat="60.58755" lon="7.50614">
        <ele>1230.62</ele>
        <time>2019-04-07T10:30:47Z</time>
      </trkpt>
      <trkpt lat="60.58751" lon="7.5061">
        <ele>1230.62</ele>
        <time>2019-04-07T10:31:00Z</time>
      </trkpt>
      <trkpt lat="60.58751" lon="7.50609">
        <ele>1231.11</ele>
        <time>2019-04-07T10:31:21Z</time>
      </trkpt>
      <trkpt lat="60.58751" lon="7.50609">
        <ele>1231.11</ele>
        <time>2019-04-07T10:31:48Z</time>
      </trkpt>
      <trkpt lat="60.58751" lon="7.50609">
        <ele>1231.11</ele>
        <time>2019-04-07T10:32:14Z</time>
      </trkpt>
      <trkpt lat="60.58751" lon="7.5061">
        <ele>1231.11</ele>
        <time>2019-04-07T10:32:24Z</time>
      </trkpt>
      <trkpt lat="60.58745" lon="7.50597">
        <ele>1231.11</ele>
        <time>2019-04-07T10:32:29Z</time>
      </trkpt>
      <trkpt lat="60.5873" lon="7.50585">
        <ele>1233.99</ele>
        <time>2019-04-07T10:32:33Z</time>
      </trkpt>
      <trkpt lat="60.58727" lon="7.50582">
        <ele>1233.99</ele>
        <time>2019-04-07T10:32:34Z</time>
      </trkpt>
      <trkpt lat="60.58711" lon="7.50568">
        <ele>1237.35</ele>
        <time>2019-04-07T10:32:40Z</time>
      </trkpt>
      <trkpt lat="60.58711" lon="7.50567">
        <ele>1237.35</ele>
        <time>2019-04-07T10:32:41Z</time>
      </trkpt>
      <trkpt lat="60.58702" lon="7.50536">
        <ele>1240.24</ele>
        <time>2019-04-07T10:32:47Z</time>
      </trkpt>
      <trkpt lat="60.58691" lon="7.50528">
        <ele>1243.6</ele>
        <time>2019-04-07T10:32:50Z</time>
      </trkpt>
      <trkpt lat="60.58682" lon="7.50516">
        <ele>1246.01</ele>
        <time>2019-04-07T10:32:56Z</time>
      </trkpt>
      <trkpt lat="60.58681" lon="7.50511">
        <ele>1246.97</ele>
        <time>2019-04-07T10:32:59Z</time>
      </trkpt>
      <trkpt lat="60.58678" lon="7.50499">
        <ele>1247.45</ele>
        <time>2019-04-07T10:33:05Z</time>
      </trkpt>
      <trkpt lat="60.58694" lon="7.50525">
        <ele>1244.56</ele>
        <time>2019-04-07T10:33:12Z</time>
      </trkpt>
      <trkpt lat="60.58708" lon="7.50535">
        <ele>1242.16</ele>
        <time>2019-04-07T10:33:16Z</time>
      </trkpt>
      <trkpt lat="60.58722" lon="7.50578">
        <ele>1238.8</ele>
        <time>2019-04-07T10:33:21Z</time>
      </trkpt>
      <trkpt lat="60.58728" lon="7.50607">
        <ele>1233.03</ele>
        <time>2019-04-07T10:33:24Z</time>
      </trkpt>
      <trkpt lat="60.58727" lon="7.50623">
        <ele>1232.07</ele>
        <time>2019-04-07T10:33:26Z</time>
      </trkpt>
      <trkpt lat="60.58727" lon="7.50652">
        <ele>1230.62</ele>
        <time>2019-04-07T10:33:29Z</time>
      </trkpt>
      <trkpt lat="60.58731" lon="7.50717">
        <ele>1226.78</ele>
        <time>2019-04-07T10:33:35Z</time>
      </trkpt>
      <trkpt lat="60.58738" lon="7.50795">
        <ele>1224.86</ele>
        <time>2019-04-07T10:33:45Z</time>
      </trkpt>
      <trkpt lat="60.58739" lon="7.50791">
        <ele>1224.38</ele>
        <time>2019-04-07T10:33:49Z</time>
      </trkpt>
      <trkpt lat="60.58725" lon="7.50763">
        <ele>1225.34</ele>
        <time>2019-04-07T10:33:56Z</time>
      </trkpt>
      <trkpt lat="60.58704" lon="7.5074">
        <ele>1228.22</ele>
        <time>2019-04-07T10:34:02Z</time>
      </trkpt>
      <trkpt lat="60.58694" lon="7.50732">
        <ele>1230.62</ele>
        <time>2019-04-07T10:34:06Z</time>
      </trkpt>
      <trkpt lat="60.58686" lon="7.50724">
        <ele>1231.59</ele>
        <time>2019-04-07T10:34:10Z</time>
      </trkpt>
      <trkpt lat="60.58682" lon="7.50714">
        <ele>1232.55</ele>
        <time>2019-04-07T10:34:16Z</time>
      </trkpt>
      <trkpt lat="60.58667" lon="7.50673">
        <ele>1233.99</ele>
        <time>2019-04-07T10:34:24Z</time>
      </trkpt>
      <trkpt lat="60.58653" lon="7.50639">
        <ele>1238.32</ele>
        <time>2019-04-07T10:34:28Z</time>
      </trkpt>
      <trkpt lat="60.58648" lon="7.50627">
        <ele>1240.24</ele>
        <time>2019-04-07T10:34:30Z</time>
      </trkpt>
      <trkpt lat="60.58643" lon="7.50613">
        <ele>1243.6</ele>
        <time>2019-04-07T10:34:34Z</time>
      </trkpt>
      <trkpt lat="60.58642" lon="7.50605">
        <ele>1244.56</ele>
        <time>2019-04-07T10:34:37Z</time>
      </trkpt>
      <trkpt lat="60.58639" lon="7.50593">
        <ele>1246.01</ele>
        <time>2019-04-07T10:34:41Z</time>
      </trkpt>
      <trkpt lat="60.58638" lon="7.50587">
        <ele>1246.97</ele>
        <time>2019-04-07T10:34:45Z</time>
      </trkpt>
      <trkpt lat="60.58636" lon="7.50574">
        <ele>1248.89</ele>
        <time>2019-04-07T10:34:52Z</time>
      </trkpt>
      <trkpt lat="60.58633" lon="7.50551">
        <ele>1250.81</ele>
        <time>2019-04-07T10:34:57Z</time>
      </trkpt>
      <trkpt lat="60.58631" lon="7.50545">
        <ele>1253.22</ele>
        <time>2019-04-07T10:35:00Z</time>
      </trkpt>
      <trkpt lat="60.58632" lon="7.50548">
        <ele>1253.7</ele>
        <time>2019-04-07T10:35:11Z</time>
      </trkpt>
      <trkpt lat="60.58636" lon="7.50565">
        <ele>1249.85</ele>
        <time>2019-04-07T10:35:15Z</time>
      </trkpt>
      <trkpt lat="60.58636" lon="7.50571">
        <ele>1249.85</ele>
        <time>2019-04-07T10:35:16Z</time>
      </trkpt>
      <trkpt lat="60.58637" lon="7.50588">
        <ele>1249.37</ele>
        <time>2019-04-07T10:35:18Z</time>
      </trkpt>
      <trkpt lat="60.58633" lon="7.50628">
        <ele>1247.93</ele>
        <time>2019-04-07T10:35:22Z</time>
      </trkpt>
      <trkpt lat="60.5863" lon="7.50646">
        <ele>1246.01</ele>
        <time>2019-04-07T10:35:24Z</time>
      </trkpt>
      <trkpt lat="60.58633" lon="7.50652">
        <ele>1242.64</ele>
        <time>2019-04-07T10:35:29Z</time>
      </trkpt>
      <trkpt lat="60.58634" lon="7.5065">
        <ele>1243.12</ele>
        <time>2019-04-07T10:35:31Z</time>
      </trkpt>
      <trkpt lat="60.58632" lon="7.50623">
        <ele>1245.04</ele>
        <time>2019-04-07T10:35:41Z</time>
      </trkpt>
      <trkpt lat="60.58632" lon="7.50621">
        <ele>1245.53</ele>
        <time>2019-04-07T10:35:57Z</time>
      </trkpt>
      <trkpt lat="60.58634" lon="7.50619">
        <ele>1245.53</ele>
        <time>2019-04-07T10:36:10Z</time>
      </trkpt>
      <trkpt lat="60.5864" lon="7.50607">
        <ele>1245.53</ele>
        <time>2019-04-07T10:36:15Z</time>
      </trkpt>
      <trkpt lat="60.58642" lon="7.50602">
        <ele>1245.53</ele>
        <time>2019-04-07T10:36:20Z</time>
      </trkpt>
      <trkpt lat="60.58644" lon="7.506">
        <ele>1245.53</ele>
        <time>2019-04-07T10:36:32Z</time>
      </trkpt>
      <trkpt lat="60.58643" lon="7.506">
        <ele>1245.53</ele>
        <time>2019-04-07T10:36:56Z</time>
      </trkpt>
      <trkpt lat="60.58644" lon="7.50599">
        <ele>1245.53</ele>
        <time>2019-04-07T10:37:04Z</time>
      </trkpt>
      <trkpt lat="60.58648" lon="7.50627">
        <ele>1242.64</ele>
        <time>2019-04-07T10:37:11Z</time>
      </trkpt>
      <trkpt lat="60.58647" lon="7.50638">
        <ele>1241.2</ele>
        <time>2019-04-07T10:37:13Z</time>
      </trkpt>
      <trkpt lat="60.58651" lon="7.50646">
        <ele>1239.76</ele>
        <time>2019-04-07T10:37:24Z</time>
      </trkpt>
      <trkpt lat="60.58651" lon="7.50644">
        <ele>1239.76</ele>
        <time>2019-04-07T10:37:27Z</time>
      </trkpt>
      <trkpt lat="60.5865" lon="7.50625">
        <ele>1241.2</ele>
        <time>2019-04-07T10:37:35Z</time>
      </trkpt>
      <trkpt lat="60.58649" lon="7.50616">
        <ele>1241.68</ele>
        <time>2019-04-07T10:37:39Z</time>
      </trkpt>
      <trkpt lat="60.58648" lon="7.50603">
        <ele>1243.6</ele>
        <time>2019-04-07T10:37:43Z</time>
      </trkpt>
      <trkpt lat="60.58649" lon="7.50602">
        <ele>1244.08</ele>
        <time>2019-04-07T10:38:01Z</time>
      </trkpt>
      <trkpt lat="60.58649" lon="7.50603">
        <ele>1244.56</ele>
        <time>2019-04-07T10:38:13Z</time>
      </trkpt>
      <trkpt lat="60.58653" lon="7.506">
        <ele>1244.56</ele>
        <time>2019-04-07T10:38:30Z</time>
      </trkpt>
      <trkpt lat="60.58653" lon="7.50602">
        <ele>1244.56</ele>
        <time>2019-04-07T10:38:52Z</time>
      </trkpt>
      <trkpt lat="60.58652" lon="7.50592">
        <ele>1245.53</ele>
        <time>2019-04-07T10:38:56Z</time>
      </trkpt>
      <trkpt lat="60.58652" lon="7.50585">
        <ele>1245.53</ele>
        <time>2019-04-07T10:38:59Z</time>
      </trkpt>
      <trkpt lat="60.58648" lon="7.50573">
        <ele>1247.45</ele>
        <time>2019-04-07T10:39:03Z</time>
      </trkpt>
      <trkpt lat="60.58648" lon="7.50572">
        <ele>1247.93</ele>
        <time>2019-04-07T10:39:06Z</time>
      </trkpt>
      <trkpt lat="60.58642" lon="7.50563">
        <ele>1249.37</ele>
        <time>2019-04-07T10:39:16Z</time>
      </trkpt>
      <trkpt lat="60.58642" lon="7.50562">
        <ele>1250.33</ele>
        <time>2019-04-07T10:39:28Z</time>
      </trkpt>
      <trkpt lat="60.58643" lon="7.50561">
        <ele>1250.33</ele>
        <time>2019-04-07T10:39:32Z</time>
      </trkpt>
      <trkpt lat="60.58662" lon="7.50563">
        <ele>1248.41</ele>
        <time>2019-04-07T10:39:43Z</time>
      </trkpt>
      <trkpt lat="60.58674" lon="7.50569">
        <ele>1243.6</ele>
        <time>2019-04-07T10:39:46Z</time>
      </trkpt>
      <trkpt lat="60.58675" lon="7.50569">
        <ele>1243.6</ele>
        <time>2019-04-07T10:39:47Z</time>
      </trkpt>
      <trkpt lat="60.58675" lon="7.5057">
        <ele>1243.12</ele>
        <time>2019-04-07T10:40:14Z</time>
      </trkpt>
      <trkpt lat="60.58675" lon="7.50571">
        <ele>1243.12</ele>
        <time>2019-04-07T10:40:44Z</time>
      </trkpt>
      <trkpt lat="60.58676" lon="7.50572">
        <ele>1243.12</ele>
        <time>2019-04-07T10:41:13Z</time>
      </trkpt>
      <trkpt lat="60.58676" lon="7.50574">
        <ele>1242.64</ele>
        <time>2019-04-07T10:41:39Z</time>
      </trkpt>
      <trkpt lat="60.58677" lon="7.50573">
        <ele>1242.64</ele>
        <time>2019-04-07T10:42:08Z</time>
      </trkpt>
      <trkpt lat="60.58677" lon="7.50573">
        <ele>1242.64</ele>
        <time>2019-04-07T10:42:36Z</time>
      </trkpt>
      <trkpt lat="60.58698" lon="7.50596">
        <ele>1238.32</ele>
        <time>2019-04-07T10:42:43Z</time>
      </trkpt>
      <trkpt lat="60.58711" lon="7.50591">
        <ele>1236.39</ele>
        <time>2019-04-07T10:42:45Z</time>
      </trkpt>
      <trkpt lat="60.58718" lon="7.50591">
        <ele>1236.39</ele>
        <time>2019-04-07T10:42:46Z</time>
      </trkpt>
      <trkpt lat="60.58741" lon="7.50593">
        <ele>1234.95</ele>
        <time>2019-04-07T10:42:49Z</time>
      </trkpt>
      <trkpt lat="60.58818" lon="7.50623">
        <ele>1232.55</ele>
        <time>2019-04-07T10:43:00Z</time>
      </trkpt>
      <trkpt lat="60.58865" lon="7.5065">
        <ele>1228.7</ele>
        <time>2019-04-07T10:43:06Z</time>
      </trkpt>
      <trkpt lat="60.58882" lon="7.50664">
        <ele>1227.74</ele>
        <time>2019-04-07T10:43:08Z</time>
      </trkpt>
      <trkpt lat="60.58919" lon="7.50696">
        <ele>1225.34</ele>
        <time>2019-04-07T10:43:13Z</time>
      </trkpt>
      <trkpt lat="60.58964" lon="7.50724">
        <ele>1224.38</ele>
        <time>2019-04-07T10:43:21Z</time>
      </trkpt>
      <trkpt lat="60.59017" lon="7.50758">
        <ele>1221.49</ele>
        <time>2019-04-07T10:43:29Z</time>
      </trkpt>
      <trkpt lat="60.59058" lon="7.50782">
        <ele>1218.13</ele>
        <time>2019-04-07T10:43:34Z</time>
      </trkpt>
      <trkpt lat="60.59098" lon="7.50804">
        <ele>1216.21</ele>
        <time>2019-04-07T10:43:39Z</time>
      </trkpt>
      <trkpt lat="60.59202" lon="7.50864">
        <ele>1214.76</ele>
        <time>2019-04-07T10:43:54Z</time>
      </trkpt>
      <trkpt lat="60.59298" lon="7.50903">
        <ele>1212.84</ele>
        <time>2019-04-07T10:44:08Z</time>
      </trkpt>
      <trkpt lat="60.59341" lon="7.50913">
        <ele>1211.88</ele>
        <time>2019-04-07T10:44:16Z</time>
      </trkpt>
      <trkpt lat="60.59371" lon="7.50928">
        <ele>1211.4</ele>
        <time>2019-04-07T10:44:27Z</time>
      </trkpt>
      <trkpt lat="60.59371" lon="7.50928">
        <ele>1210.44</ele>
        <time>2019-04-07T10:44:49Z</time>
      </trkpt>
      <trkpt lat="60.59371" lon="7.50927">
        <ele>1210.44</ele>
        <time>2019-04-07T10:45:10Z</time>
      </trkpt>
      <trkpt lat="60.59371" lon="7.50927">
        <ele>1210.44</ele>
        <time>2019-04-07T10:45:11Z</time>
      </trkpt>
      <trkpt lat="60.59358" lon="7.50895">
        <ele>1210.44</ele>
        <time>2019-04-07T10:45:17Z</time>
      </trkpt>
      <trkpt lat="60.59344" lon="7.50872">
        <ele>1210.44</ele>
        <time>2019-04-07T10:45:20Z</time>
      </trkpt>
      <trkpt lat="60.59337" lon="7.50859">
        <ele>1209.96</ele>
        <time>2019-04-07T10:45:22Z</time>
      </trkpt>
      <trkpt lat="60.59338" lon="7.50841">
        <ele>1209.96</ele>
        <time>2019-04-07T10:45:27Z</time>
      </trkpt>
      <trkpt lat="60.59346" lon="7.50833">
        <ele>1209.96</ele>
        <time>2019-04-07T10:45:33Z</time>
      </trkpt>
      <trkpt lat="60.59359" lon="7.50825">
        <ele>1209.96</ele>
        <time>2019-04-07T10:45:37Z</time>
      </trkpt>
      <trkpt lat="60.5938" lon="7.50804">
        <ele>1209.96</ele>
        <time>2019-04-07T10:45:42Z</time>
      </trkpt>
      <trkpt lat="60.59411" lon="7.50786">
        <ele>1209.48</ele>
        <time>2019-04-07T10:45:48Z</time>
      </trkpt>
      <trkpt lat="60.59437" lon="7.50779">
        <ele>1209</ele>
        <time>2019-04-07T10:45:52Z</time>
      </trkpt>
      <trkpt lat="60.5948" lon="7.50786">
        <ele>1210.44</ele>
        <time>2019-04-07T10:45:58Z</time>
      </trkpt>
      <trkpt lat="60.59508" lon="7.50783">
        <ele>1209.48</ele>
        <time>2019-04-07T10:46:02Z</time>
      </trkpt>
      <trkpt lat="60.596" lon="7.50785">
        <ele>1209.48</ele>
        <time>2019-04-07T10:46:14Z</time>
      </trkpt>
      <trkpt lat="60.59684" lon="7.50792">
        <ele>1212.36</ele>
        <time>2019-04-07T10:46:25Z</time>
      </trkpt>
      <trkpt lat="60.59704" lon="7.50799">
        <ele>1213.32</ele>
        <time>2019-04-07T10:46:28Z</time>
      </trkpt>
      <trkpt lat="60.59716" lon="7.50806">
        <ele>1213.32</ele>
        <time>2019-04-07T10:46:30Z</time>
      </trkpt>
      <trkpt lat="60.59708" lon="7.50791">
        <ele>1211.88</ele>
        <time>2019-04-07T10:46:37Z</time>
      </trkpt>
      <trkpt lat="60.5968" lon="7.50793">
        <ele>1211.88</ele>
        <time>2019-04-07T10:46:42Z</time>
      </trkpt>
      <trkpt lat="60.59662" lon="7.50797">
        <ele>1209.96</ele>
        <time>2019-04-07T10:46:45Z</time>
      </trkpt>
      <trkpt lat="60.59642" lon="7.50798">
        <ele>1208.51</ele>
        <time>2019-04-07T10:46:48Z</time>
      </trkpt>
      <trkpt lat="60.59549" lon="7.50798">
        <ele>1209</ele>
        <time>2019-04-07T10:47:03Z</time>
      </trkpt>
      <trkpt lat="60.59466" lon="7.50755">
        <ele>1209</ele>
        <time>2019-04-07T10:47:15Z</time>
      </trkpt>
      <trkpt lat="60.59431" lon="7.50725">
        <ele>1208.03</ele>
        <time>2019-04-07T10:47:20Z</time>
      </trkpt>
      <trkpt lat="60.59371" lon="7.50666">
        <ele>1208.03</ele>
        <time>2019-04-07T10:47:28Z</time>
      </trkpt>
      <trkpt lat="60.59351" lon="7.50654">
        <ele>1207.07</ele>
        <time>2019-04-07T10:47:31Z</time>
      </trkpt>
      <trkpt lat="60.59343" lon="7.50641">
        <ele>1208.51</ele>
        <time>2019-04-07T10:47:34Z</time>
      </trkpt>
      <trkpt lat="60.59357" lon="7.50621">
        <ele>1209</ele>
        <time>2019-04-07T10:47:42Z</time>
      </trkpt>
      <trkpt lat="60.59372" lon="7.50608">
        <ele>1209</ele>
        <time>2019-04-07T10:47:47Z</time>
      </trkpt>
      <trkpt lat="60.59386" lon="7.50606">
        <ele>1209.48</ele>
        <time>2019-04-07T10:47:50Z</time>
      </trkpt>
      <trkpt lat="60.59406" lon="7.50597">
        <ele>1209.48</ele>
        <time>2019-04-07T10:47:54Z</time>
      </trkpt>
      <trkpt lat="60.59437" lon="7.50595">
        <ele>1209.96</ele>
        <time>2019-04-07T10:47:59Z</time>
      </trkpt>
      <trkpt lat="60.59465" lon="7.50563">
        <ele>1209.96</ele>
        <time>2019-04-07T10:48:04Z</time>
      </trkpt>
      <trkpt lat="60.59492" lon="7.50544">
        <ele>1209.96</ele>
        <time>2019-04-07T10:48:08Z</time>
      </trkpt>
      <trkpt lat="60.59584" lon="7.50531">
        <ele>1210.44</ele>
        <time>2019-04-07T10:48:19Z</time>
      </trkpt>
      <trkpt lat="60.59678" lon="7.50524">
        <ele>1210.44</ele>
        <time>2019-04-07T10:48:29Z</time>
      </trkpt>
      <trkpt lat="60.59714" lon="7.5052">
        <ele>1209.48</ele>
        <time>2019-04-07T10:48:36Z</time>
      </trkpt>
      <trkpt lat="60.59713" lon="7.50502">
        <ele>1209.48</ele>
        <time>2019-04-07T10:48:38Z</time>
      </trkpt>
      <trkpt lat="60.59688" lon="7.5045">
        <ele>1208.51</ele>
        <time>2019-04-07T10:48:44Z</time>
      </trkpt>
      <trkpt lat="60.59668" lon="7.50438">
        <ele>1206.59</ele>
        <time>2019-04-07T10:48:47Z</time>
      </trkpt>
      <trkpt lat="60.59621" lon="7.50411">
        <ele>1209</ele>
        <time>2019-04-07T10:48:54Z</time>
      </trkpt>
      <trkpt lat="60.59557" lon="7.50399">
        <ele>1209.48</ele>
        <time>2019-04-07T10:49:03Z</time>
      </trkpt>
      <trkpt lat="60.5948" lon="7.50374">
        <ele>1209</ele>
        <time>2019-04-07T10:49:13Z</time>
      </trkpt>
      <trkpt lat="60.59466" lon="7.50367">
        <ele>1207.55</ele>
        <time>2019-04-07T10:49:15Z</time>
      </trkpt>
      <trkpt lat="60.59405" lon="7.50339">
        <ele>1209</ele>
        <time>2019-04-07T10:49:24Z</time>
      </trkpt>
      <trkpt lat="60.59321" lon="7.50287">
        <ele>1209.96</ele>
        <time>2019-04-07T10:49:36Z</time>
      </trkpt>
      <trkpt lat="60.5928" lon="7.50252">
        <ele>1211.4</ele>
        <time>2019-04-07T10:49:42Z</time>
      </trkpt>
      <trkpt lat="60.59242" lon="7.50219">
        <ele>1212.36</ele>
        <time>2019-04-07T10:49:48Z</time>
      </trkpt>
      <trkpt lat="60.59231" lon="7.50208">
        <ele>1213.32</ele>
        <time>2019-04-07T10:49:50Z</time>
      </trkpt>
      <trkpt lat="60.5921" lon="7.50186">
        <ele>1216.21</ele>
        <time>2019-04-07T10:49:54Z</time>
      </trkpt>
      <trkpt lat="60.59191" lon="7.50174">
        <ele>1216.21</ele>
        <time>2019-04-07T10:49:57Z</time>
      </trkpt>
      <trkpt lat="60.59137" lon="7.50131">
        <ele>1218.13</ele>
        <time>2019-04-07T10:50:05Z</time>
      </trkpt>
      <trkpt lat="60.59086" lon="7.50084">
        <ele>1219.09</ele>
        <time>2019-04-07T10:50:12Z</time>
      </trkpt>
      <trkpt lat="60.59059" lon="7.50061">
        <ele>1222.45</ele>
        <time>2019-04-07T10:50:16Z</time>
      </trkpt>
      <trkpt lat="60.59054" lon="7.50055">
        <ele>1223.9</ele>
        <time>2019-04-07T10:50:17Z</time>
      </trkpt>
      <trkpt lat="60.59034" lon="7.50033">
        <ele>1228.22</ele>
        <time>2019-04-07T10:50:21Z</time>
      </trkpt>
      <trkpt lat="60.5903" lon="7.50028">
        <ele>1228.7</ele>
        <time>2019-04-07T10:50:22Z</time>
      </trkpt>
      <trkpt lat="60.59021" lon="7.50021">
        <ele>1231.11</ele>
        <time>2019-04-07T10:50:24Z</time>
      </trkpt>
      <trkpt lat="60.59005" lon="7.50001">
        <ele>1232.07</ele>
        <time>2019-04-07T10:50:28Z</time>
      </trkpt>
      <trkpt lat="60.58986" lon="7.49975">
        <ele>1235.43</ele>
        <time>2019-04-07T10:50:33Z</time>
      </trkpt>
      <trkpt lat="60.58977" lon="7.49962">
        <ele>1236.39</ele>
        <time>2019-04-07T10:50:35Z</time>
      </trkpt>
      <trkpt lat="60.58965" lon="7.49942">
        <ele>1237.83</ele>
        <time>2019-04-07T10:50:38Z</time>
      </trkpt>
      <trkpt lat="60.58959" lon="7.4993">
        <ele>1238.8</ele>
        <time>2019-04-07T10:50:40Z</time>
      </trkpt>
      <trkpt lat="60.58918" lon="7.4986">
        <ele>1241.68</ele>
        <time>2019-04-07T10:50:53Z</time>
      </trkpt>
      <trkpt lat="60.58905" lon="7.49833">
        <ele>1241.68</ele>
        <time>2019-04-07T10:51:00Z</time>
      </trkpt>
      <trkpt lat="60.58921" lon="7.49817">
        <ele>1239.28</ele>
        <time>2019-04-07T10:51:05Z</time>
      </trkpt>
      <trkpt lat="60.58934" lon="7.49817">
        <ele>1237.35</ele>
        <time>2019-04-07T10:51:07Z</time>
      </trkpt>
      <trkpt lat="60.58976" lon="7.49827">
        <ele>1236.39</ele>
        <time>2019-04-07T10:51:16Z</time>
      </trkpt>
      <trkpt lat="60.59002" lon="7.49836">
        <ele>1235.91</ele>
        <time>2019-04-07T10:51:23Z</time>
      </trkpt>
      <trkpt lat="60.59025" lon="7.4982">
        <ele>1233.99</ele>
        <time>2019-04-07T10:51:28Z</time>
      </trkpt>
      <trkpt lat="60.59041" lon="7.49816">
        <ele>1232.07</ele>
        <time>2019-04-07T10:51:30Z</time>
      </trkpt>
      <trkpt lat="60.59078" lon="7.49818">
        <ele>1228.22</ele>
        <time>2019-04-07T10:51:34Z</time>
      </trkpt>
      <trkpt lat="60.59103" lon="7.4982">
        <ele>1227.26</ele>
        <time>2019-04-07T10:51:37Z</time>
      </trkpt>
      <trkpt lat="60.59135" lon="7.49835">
        <ele>1222.45</ele>
        <time>2019-04-07T10:51:41Z</time>
      </trkpt>
      <trkpt lat="60.59151" lon="7.49854">
        <ele>1219.09</ele>
        <time>2019-04-07T10:51:43Z</time>
      </trkpt>
      <trkpt lat="60.59189" lon="7.49907">
        <ele>1216.21</ele>
        <time>2019-04-07T10:51:49Z</time>
      </trkpt>
      <trkpt lat="60.592" lon="7.49923">
        <ele>1215.24</ele>
        <time>2019-04-07T10:51:51Z</time>
      </trkpt>
      <trkpt lat="60.59258" lon="7.50041">
        <ele>1212.84</ele>
        <time>2019-04-07T10:52:01Z</time>
      </trkpt>
      <trkpt lat="60.5927" lon="7.50067">
        <ele>1212.36</ele>
        <time>2019-04-07T10:52:03Z</time>
      </trkpt>
      <trkpt lat="60.59276" lon="7.50078">
        <ele>1212.36</ele>
        <time>2019-04-07T10:52:04Z</time>
      </trkpt>
      <trkpt lat="60.5934" lon="7.50203">
        <ele>1211.88</ele>
        <time>2019-04-07T10:52:15Z</time>
      </trkpt>
      <trkpt lat="60.5941" lon="7.50346">
        <ele>1211.88</ele>
        <time>2019-04-07T10:52:28Z</time>
      </trkpt>
      <trkpt lat="60.59489" lon="7.50496">
        <ele>1211.88</ele>
        <time>2019-04-07T10:52:42Z</time>
      </trkpt>
      <trkpt lat="60.59569" lon="7.50649">
        <ele>1211.4</ele>
        <time>2019-04-07T10:52:57Z</time>
      </trkpt>
      <trkpt lat="60.59579" lon="7.50669">
        <ele>1211.4</ele>
        <time>2019-04-07T10:52:59Z</time>
      </trkpt>
      <trkpt lat="60.59609" lon="7.50732">
        <ele>1211.4</ele>
        <time>2019-04-07T10:53:05Z</time>
      </trkpt>
      <trkpt lat="60.59622" lon="7.50766">
        <ele>1211.4</ele>
        <time>2019-04-07T10:53:08Z</time>
      </trkpt>
      <trkpt lat="60.59636" lon="7.50813">
        <ele>1211.4</ele>
        <time>2019-04-07T10:53:12Z</time>
      </trkpt>
      <trkpt lat="60.59643" lon="7.50849">
        <ele>1211.4</ele>
        <time>2019-04-07T10:53:15Z</time>
      </trkpt>
      <trkpt lat="60.59661" lon="7.50906">
        <ele>1210.92</ele>
        <time>2019-04-07T10:53:21Z</time>
      </trkpt>
      <trkpt lat="60.59672" lon="7.50927">
        <ele>1210.92</ele>
        <time>2019-04-07T10:53:24Z</time>
      </trkpt>
      <trkpt lat="60.59689" lon="7.50956">
        <ele>1210.44</ele>
        <time>2019-04-07T10:53:28Z</time>
      </trkpt>
      <trkpt lat="60.59714" lon="7.50997">
        <ele>1210.44</ele>
        <time>2019-04-07T10:53:33Z</time>
      </trkpt>
      <trkpt lat="60.59723" lon="7.51016">
        <ele>1211.88</ele>
        <time>2019-04-07T10:53:38Z</time>
      </trkpt>
      <trkpt lat="60.59718" lon="7.50997">
        <ele>1210.92</ele>
        <time>2019-04-07T10:53:43Z</time>
      </trkpt>
      <trkpt lat="60.59709" lon="7.50985">
        <ele>1209</ele>
        <time>2019-04-07T10:53:45Z</time>
      </trkpt>
      <trkpt lat="60.59644" lon="7.50927">
        <ele>1210.44</ele>
        <time>2019-04-07T10:53:57Z</time>
      </trkpt>
      <trkpt lat="60.59612" lon="7.50909">
        <ele>1210.92</ele>
        <time>2019-04-07T10:54:02Z</time>
      </trkpt>
      <trkpt lat="60.59561" lon="7.50891">
        <ele>1210.44</ele>
        <time>2019-04-07T10:54:11Z</time>
      </trkpt>
      <trkpt lat="60.59542" lon="7.50891">
        <ele>1209.96</ele>
        <time>2019-04-07T10:54:15Z</time>
      </trkpt>
      <trkpt lat="60.59511" lon="7.50886">
        <ele>1209.96</ele>
        <time>2019-04-07T10:54:21Z</time>
      </trkpt>
      <trkpt lat="60.5949" lon="7.5088">
        <ele>1209.96</ele>
        <time>2019-04-07T10:54:25Z</time>
      </trkpt>
      <trkpt lat="60.59436" lon="7.50862">
        <ele>1212.84</ele>
        <time>2019-04-07T10:54:36Z</time>
      </trkpt>
      <trkpt lat="60.59427" lon="7.50858">
        <ele>1213.32</ele>
        <time>2019-04-07T10:54:38Z</time>
      </trkpt>
      <trkpt lat="60.59402" lon="7.50853">
        <ele>1211.88</ele>
        <time>2019-04-07T10:54:43Z</time>
      </trkpt>
      <trkpt lat="60.59392" lon="7.50851">
        <ele>1211.4</ele>
        <time>2019-04-07T10:54:46Z</time>
      </trkpt>
      <trkpt lat="60.59388" lon="7.50841">
        <ele>1212.36</ele>
        <time>2019-04-07T10:55:00Z</time>
      </trkpt>
      <trkpt lat="60.59388" lon="7.50839">
        <ele>1212.36</ele>
        <time>2019-04-07T10:55:08Z</time>
      </trkpt>
      <trkpt lat="60.594" lon="7.50819">
        <ele>1212.36</ele>
        <time>2019-04-07T10:55:17Z</time>
      </trkpt>
      <trkpt lat="60.5941" lon="7.50817">
        <ele>1211.4</ele>
        <time>2019-04-07T10:55:29Z</time>
      </trkpt>
      <trkpt lat="60.5941" lon="7.50817">
        <ele>1211.4</ele>
        <time>2019-04-07T10:55:55Z</time>
      </trkpt>
      <trkpt lat="60.5941" lon="7.50816">
        <ele>1211.4</ele>
        <time>2019-04-07T10:56:25Z</time>
      </trkpt>
      <trkpt lat="60.59411" lon="7.50816">
        <ele>1211.4</ele>
        <time>2019-04-07T10:57:00Z</time>
      </trkpt>
      <trkpt lat="60.59411" lon="7.50815">
        <ele>1211.4</ele>
        <time>2019-04-07T10:57:25Z</time>
      </trkpt>
      <trkpt lat="60.59411" lon="7.50815">
        <ele>1211.4</ele>
        <time>2019-04-07T10:57:59Z</time>
      </trkpt>
      <trkpt lat="60.59412" lon="7.50817">
        <ele>1211.4</ele>
        <time>2019-04-07T10:58:26Z</time>
      </trkpt>
      <trkpt lat="60.59412" lon="7.50817">
        <ele>1211.4</ele>
        <time>2019-04-07T10:58:59Z</time>
      </trkpt>
      <trkpt lat="60.59412" lon="7.50816">
        <ele>1211.4</ele>
        <time>2019-04-07T10:59:40Z</time>
      </trkpt>
      <trkpt lat="60.59412" lon="7.50817">
        <ele>1211.4</ele>
        <time>2019-04-07T11:00:09Z</time>
      </trkpt>
      <trkpt lat="60.59411" lon="7.50816">
        <ele>1211.4</ele>
        <time>2019-04-07T11:00:23Z</time>
      </trkpt>
      <trkpt lat="60.59412" lon="7.50816">
        <ele>1211.4</ele>
        <time>2019-04-07T11:00:31Z</time>
      </trkpt>
      <trkpt lat="60.5944" lon="7.50804">
        <ele>1211.4</ele>
        <time>2019-04-07T11:00:39Z</time>
      </trkpt>
      <trkpt lat="60.59452" lon="7.508">
        <ele>1211.4</ele>
        <time>2019-04-07T11:00:41Z</time>
      </trkpt>
      <trkpt lat="60.59549" lon="7.50809">
        <ele>1211.4</ele>
        <time>2019-04-07T11:00:54Z</time>
      </trkpt>
      <trkpt lat="60.59555" lon="7.50809">
        <ele>1211.4</ele>
        <time>2019-04-07T11:00:55Z</time>
      </trkpt>
      <trkpt lat="60.59574" lon="7.50804">
        <ele>1210.44</ele>
        <time>2019-04-07T11:00:59Z</time>
      </trkpt>
      <trkpt lat="60.5958" lon="7.50787">
        <ele>1210.44</ele>
        <time>2019-04-07T11:01:03Z</time>
      </trkpt>
      <trkpt lat="60.59577" lon="7.50777">
        <ele>1210.44</ele>
        <time>2019-04-07T11:01:06Z</time>
      </trkpt>
      <trkpt lat="60.59543" lon="7.50732">
        <ele>1209.96</ele>
        <time>2019-04-07T11:01:13Z</time>
      </trkpt>
      <trkpt lat="60.59497" lon="7.50647">
        <ele>1209.48</ele>
        <time>2019-04-07T11:01:21Z</time>
      </trkpt>
      <trkpt lat="60.59414" lon="7.50424">
        <ele>1208.51</ele>
        <time>2019-04-07T11:01:35Z</time>
      </trkpt>
      <trkpt lat="60.59369" lon="7.50288">
        <ele>1209.96</ele>
        <time>2019-04-07T11:01:44Z</time>
      </trkpt>
      <trkpt lat="60.59352" lon="7.50246">
        <ele>1209.96</ele>
        <time>2019-04-07T11:01:47Z</time>
      </trkpt>
      <trkpt lat="60.5932" lon="7.50193">
        <ele>1209.96</ele>
        <time>2019-04-07T11:01:52Z</time>
      </trkpt>
      <trkpt lat="60.59294" lon="7.50179">
        <ele>1209.96</ele>
        <time>2019-04-07T11:01:56Z</time>
      </trkpt>
      <trkpt lat="60.59284" lon="7.50178">
        <ele>1209.96</ele>
        <time>2019-04-07T11:01:58Z</time>
      </trkpt>
      <trkpt lat="60.5929" lon="7.50171">
        <ele>1211.4</ele>
        <time>2019-04-07T11:02:03Z</time>
      </trkpt>
      <trkpt lat="60.59299" lon="7.50185">
        <ele>1212.84</ele>
        <time>2019-04-07T11:02:05Z</time>
      </trkpt>
      <trkpt lat="60.59368" lon="7.5033">
        <ele>1212.84</ele>
        <time>2019-04-07T11:02:19Z</time>
      </trkpt>
      <trkpt lat="60.59419" lon="7.50474">
        <ele>1212.84</ele>
        <time>2019-04-07T11:02:32Z</time>
      </trkpt>
      <trkpt lat="60.59431" lon="7.50553">
        <ele>1211.88</ele>
        <time>2019-04-07T11:02:39Z</time>
      </trkpt>
      <trkpt lat="60.59442" lon="7.50623">
        <ele>1211.88</ele>
        <time>2019-04-07T11:02:46Z</time>
      </trkpt>
      <trkpt lat="60.59454" lon="7.50677">
        <ele>1211.88</ele>
        <time>2019-04-07T11:02:51Z</time>
      </trkpt>
      <trkpt lat="60.59461" lon="7.50711">
        <ele>1211.88</ele>
        <time>2019-04-07T11:02:54Z</time>
      </trkpt>
      <trkpt lat="60.59467" lon="7.50736">
        <ele>1210.92</ele>
        <time>2019-04-07T11:03:01Z</time>
      </trkpt>
      <trkpt lat="60.59465" lon="7.50736">
        <ele>1210.92</ele>
        <time>2019-04-07T11:03:12Z</time>
      </trkpt>
      <trkpt lat="60.59466" lon="7.50738">
        <ele>1209.96</ele>
        <time>2019-04-07T11:03:28Z</time>
      </trkpt>
      <trkpt lat="60.59465" lon="7.50739">
        <ele>1209.96</ele>
        <time>2019-04-07T11:04:05Z</time>
      </trkpt>
      <trkpt lat="60.59468" lon="7.50736">
        <ele>1209.96</ele>
        <time>2019-04-07T11:04:34Z</time>
      </trkpt>
      <trkpt lat="60.59471" lon="7.50732">
        <ele>1209.96</ele>
        <time>2019-04-07T11:04:38Z</time>
      </trkpt>
      <trkpt lat="60.5947" lon="7.50728">
        <ele>1209.96</ele>
        <time>2019-04-07T11:04:42Z</time>
      </trkpt>
      <trkpt lat="60.5947" lon="7.50727">
        <ele>1211.4</ele>
        <time>2019-04-07T11:04:45Z</time>
      </trkpt>
      <trkpt lat="60.5947" lon="7.50727">
        <ele>1211.4</ele>
        <time>2019-04-07T11:04:56Z</time>
      </trkpt>
      <trkpt lat="60.59459" lon="7.5071">
        <ele>1211.4</ele>
        <time>2019-04-07T11:05:03Z</time>
      </trkpt>
      <trkpt lat="60.59426" lon="7.50691">
        <ele>1210.44</ele>
        <time>2019-04-07T11:05:15Z</time>
      </trkpt>
      <trkpt lat="60.59429" lon="7.50691">
        <ele>1211.4</ele>
        <time>2019-04-07T11:05:22Z</time>
      </trkpt>
      <trkpt lat="60.59445" lon="7.50714">
        <ele>1211.88</ele>
        <time>2019-04-07T11:05:29Z</time>
      </trkpt>
      <trkpt lat="60.59464" lon="7.5073">
        <ele>1211.88</ele>
        <time>2019-04-07T11:05:37Z</time>
      </trkpt>
      <trkpt lat="60.59479" lon="7.50744">
        <ele>1210.92</ele>
        <time>2019-04-07T11:05:47Z</time>
      </trkpt>
      <trkpt lat="60.5948" lon="7.50744">
        <ele>1210.92</ele>
        <time>2019-04-07T11:05:59Z</time>
      </trkpt>
      <trkpt lat="60.59485" lon="7.50741">
        <ele>1210.92</ele>
        <time>2019-04-07T11:06:11Z</time>
      </trkpt>
      <trkpt lat="60.59486" lon="7.50738">
        <ele>1210.92</ele>
        <time>2019-04-07T11:06:15Z</time>
      </trkpt>
      <trkpt lat="60.59504" lon="7.50728">
        <ele>1210.92</ele>
        <time>2019-04-07T11:06:22Z</time>
      </trkpt>
      <trkpt lat="60.59514" lon="7.50733">
        <ele>1210.92</ele>
        <time>2019-04-07T11:06:24Z</time>
      </trkpt>
      <trkpt lat="60.59531" lon="7.50753">
        <ele>1212.84</ele>
        <time>2019-04-07T11:06:28Z</time>
      </trkpt>
      <trkpt lat="60.59536" lon="7.50758">
        <ele>1212.84</ele>
        <time>2019-04-07T11:06:29Z</time>
      </trkpt>
      <trkpt lat="60.5956" lon="7.50778">
        <ele>1212.84</ele>
        <time>2019-04-07T11:06:34Z</time>
      </trkpt>
      <trkpt lat="60.5957" lon="7.50794">
        <ele>1212.84</ele>
        <time>2019-04-07T11:06:36Z</time>
      </trkpt>
      <trkpt lat="60.59606" lon="7.5086">
        <ele>1211.88</ele>
        <time>2019-04-07T11:06:44Z</time>
      </trkpt>
      <trkpt lat="60.5961" lon="7.50857">
        <ele>1210.92</ele>
        <time>2019-04-07T11:06:52Z</time>
      </trkpt>
      <trkpt lat="60.59609" lon="7.50846">
        <ele>1210.92</ele>
        <time>2019-04-07T11:07:00Z</time>
      </trkpt>
      <trkpt lat="60.59609" lon="7.50825">
        <ele>1211.4</ele>
        <time>2019-04-07T11:07:16Z</time>
      </trkpt>
      <trkpt lat="60.59609" lon="7.50825">
        <ele>1211.4</ele>
        <time>2019-04-07T11:07:17Z</time>
      </trkpt>
      <trkpt lat="60.59613" lon="7.50824">
        <ele>1211.4</ele>
        <time>2019-04-07T11:07:26Z</time>
      </trkpt>
      <trkpt lat="60.59613" lon="7.50822">
        <ele>1211.4</ele>
        <time>2019-04-07T11:07:34Z</time>
      </trkpt>
      <trkpt lat="60.59608" lon="7.50799">
        <ele>1210.44</ele>
        <time>2019-04-07T11:07:42Z</time>
      </trkpt>
      <trkpt lat="60.59608" lon="7.508">
        <ele>1210.44</ele>
        <time>2019-04-07T11:07:45Z</time>
      </trkpt>
      <trkpt lat="60.59608" lon="7.50782">
        <ele>1210.44</ele>
        <time>2019-04-07T11:07:49Z</time>
      </trkpt>
      <trkpt lat="60.59605" lon="7.50771">
        <ele>1210.44</ele>
        <time>2019-04-07T11:07:51Z</time>
      </trkpt>
      <trkpt lat="60.59595" lon="7.50754">
        <ele>1210.44</ele>
        <time>2019-04-07T11:07:54Z</time>
      </trkpt>
      <trkpt lat="60.59586" lon="7.50741">
        <ele>1210.44</ele>
        <time>2019-04-07T11:07:56Z</time>
      </trkpt>
      <trkpt lat="60.59529" lon="7.50632">
        <ele>1210.44</ele>
        <time>2019-04-07T11:08:06Z</time>
      </trkpt>
      <trkpt lat="60.5947" lon="7.50493">
        <ele>1209.96</ele>
        <time>2019-04-07T11:08:15Z</time>
      </trkpt>
      <trkpt lat="60.59383" lon="7.50311">
        <ele>1209.96</ele>
        <time>2019-04-07T11:08:29Z</time>
      </trkpt>
      <trkpt lat="60.59303" lon="7.50101">
        <ele>1209.96</ele>
        <time>2019-04-07T11:08:44Z</time>
      </trkpt>
      <trkpt lat="60.59288" lon="7.50061">
        <ele>1209.96</ele>
        <time>2019-04-07T11:08:47Z</time>
      </trkpt>
      <trkpt lat="60.59272" lon="7.50005">
        <ele>1210.92</ele>
        <time>2019-04-07T11:08:51Z</time>
      </trkpt>
      <trkpt lat="60.59246" lon="7.49927">
        <ele>1211.4</ele>
        <time>2019-04-07T11:08:57Z</time>
      </trkpt>
      <trkpt lat="60.59248" lon="7.49904">
        <ele>1212.84</ele>
        <time>2019-04-07T11:09:00Z</time>
      </trkpt>
      <trkpt lat="60.59252" lon="7.49897">
        <ele>1212.84</ele>
        <time>2019-04-07T11:09:01Z</time>
      </trkpt>
      <trkpt lat="60.59278" lon="7.4987">
        <ele>1212.84</ele>
        <time>2019-04-07T11:09:05Z</time>
      </trkpt>
      <trkpt lat="60.5939" lon="7.49811">
        <ele>1213.32</ele>
        <time>2019-04-07T11:09:18Z</time>
      </trkpt>
      <trkpt lat="60.59487" lon="7.49782">
        <ele>1213.8</ele>
        <time>2019-04-07T11:09:28Z</time>
      </trkpt>
      <trkpt lat="60.59606" lon="7.4979">
        <ele>1213.8</ele>
        <time>2019-04-07T11:09:41Z</time>
      </trkpt>
      <trkpt lat="60.5974" lon="7.49791">
        <ele>1213.8</ele>
        <time>2019-04-07T11:09:55Z</time>
      </trkpt>
      <trkpt lat="60.59856" lon="7.49793">
        <ele>1213.8</ele>
        <time>2019-04-07T11:10:07Z</time>
      </trkpt>
      <trkpt lat="60.59929" lon="7.49799">
        <ele>1213.8</ele>
        <time>2019-04-07T11:10:15Z</time>
      </trkpt>
      <trkpt lat="60.59983" lon="7.49794">
        <ele>1213.8</ele>
        <time>2019-04-07T11:10:21Z</time>
      </trkpt>
      <trkpt lat="60.60039" lon="7.49804">
        <ele>1213.8</ele>
        <time>2019-04-07T11:10:28Z</time>
      </trkpt>
      <trkpt lat="60.60068" lon="7.49824">
        <ele>1212.36</ele>
        <time>2019-04-07T11:10:32Z</time>
      </trkpt>
      <trkpt lat="60.6008" lon="7.49839">
        <ele>1212.36</ele>
        <time>2019-04-07T11:10:34Z</time>
      </trkpt>
      <trkpt lat="60.60103" lon="7.49889">
        <ele>1212.36</ele>
        <time>2019-04-07T11:10:40Z</time>
      </trkpt>
      <trkpt lat="60.60123" lon="7.4993">
        <ele>1211.4</ele>
        <time>2019-04-07T11:10:48Z</time>
      </trkpt>
      <trkpt lat="60.60123" lon="7.49928">
        <ele>1211.4</ele>
        <time>2019-04-07T11:10:50Z</time>
      </trkpt>
      <trkpt lat="60.60108" lon="7.49915">
        <ele>1211.4</ele>
        <time>2019-04-07T11:10:55Z</time>
      </trkpt>
      <trkpt lat="60.60083" lon="7.4991">
        <ele>1209.96</ele>
        <time>2019-04-07T11:11:00Z</time>
      </trkpt>
      <trkpt lat="60.60067" lon="7.49904">
        <ele>1209.96</ele>
        <time>2019-04-07T11:11:03Z</time>
      </trkpt>
      <trkpt lat="60.60042" lon="7.49875">
        <ele>1209.96</ele>
        <time>2019-04-07T11:11:08Z</time>
      </trkpt>
      <trkpt lat="60.59967" lon="7.4973">
        <ele>1209.48</ele>
        <time>2019-04-07T11:11:23Z</time>
      </trkpt>
      <trkpt lat="60.59895" lon="7.49599">
        <ele>1209.48</ele>
        <time>2019-04-07T11:11:36Z</time>
      </trkpt>
      <trkpt lat="60.59883" lon="7.49581">
        <ele>1209.48</ele>
        <time>2019-04-07T11:11:38Z</time>
      </trkpt>
      <trkpt lat="60.59798" lon="7.4953">
        <ele>1210.92</ele>
        <time>2019-04-07T11:11:50Z</time>
      </trkpt>
      <trkpt lat="60.59683" lon="7.49483">
        <ele>1209.48</ele>
        <time>2019-04-07T11:12:06Z</time>
      </trkpt>
      <trkpt lat="60.59661" lon="7.49473">
        <ele>1210.92</ele>
        <time>2019-04-07T11:12:09Z</time>
      </trkpt>
      <trkpt lat="60.59591" lon="7.49435">
        <ele>1210.92</ele>
        <time>2019-04-07T11:12:18Z</time>
      </trkpt>
      <trkpt lat="60.59569" lon="7.49411">
        <ele>1211.4</ele>
        <time>2019-04-07T11:12:21Z</time>
      </trkpt>
      <trkpt lat="60.59519" lon="7.49276">
        <ele>1211.4</ele>
        <time>2019-04-07T11:12:31Z</time>
      </trkpt>
      <trkpt lat="60.59511" lon="7.4925">
        <ele>1209.96</ele>
        <time>2019-04-07T11:12:33Z</time>
      </trkpt>
      <trkpt lat="60.59462" lon="7.49115">
        <ele>1210.92</ele>
        <time>2019-04-07T11:12:44Z</time>
      </trkpt>
      <trkpt lat="60.59403" lon="7.48914">
        <ele>1211.88</ele>
        <time>2019-04-07T11:12:59Z</time>
      </trkpt>
      <trkpt lat="60.59345" lon="7.48752">
        <ele>1210.44</ele>
        <time>2019-04-07T11:13:11Z</time>
      </trkpt>
      <trkpt lat="60.59285" lon="7.48632">
        <ele>1210.44</ele>
        <time>2019-04-07T11:13:21Z</time>
      </trkpt>
      <trkpt lat="60.59205" lon="7.48496">
        <ele>1210.44</ele>
        <time>2019-04-07T11:13:33Z</time>
      </trkpt>
      <trkpt lat="60.59123" lon="7.48358">
        <ele>1211.88</ele>
        <time>2019-04-07T11:13:45Z</time>
      </trkpt>
      <trkpt lat="60.59023" lon="7.48227">
        <ele>1211.88</ele>
        <time>2019-04-07T11:13:59Z</time>
      </trkpt>
      <trkpt lat="60.5896" lon="7.48146">
        <ele>1210.92</ele>
        <time>2019-04-07T11:14:10Z</time>
      </trkpt>
      <trkpt lat="60.58958" lon="7.48132">
        <ele>1212.36</ele>
        <time>2019-04-07T11:14:13Z</time>
      </trkpt>
      <trkpt lat="60.58975" lon="7.48139">
        <ele>1213.32</ele>
        <time>2019-04-07T11:14:23Z</time>
      </trkpt>
      <trkpt lat="60.58978" lon="7.48145">
        <ele>1213.32</ele>
        <time>2019-04-07T11:14:34Z</time>
      </trkpt>
      <trkpt lat="60.5901" lon="7.48167">
        <ele>1214.28</ele>
        <time>2019-04-07T11:14:45Z</time>
      </trkpt>
      <trkpt lat="60.59081" lon="7.4825">
        <ele>1215.24</ele>
        <time>2019-04-07T11:14:57Z</time>
      </trkpt>
      <trkpt lat="60.59111" lon="7.48286">
        <ele>1214.76</ele>
        <time>2019-04-07T11:15:02Z</time>
      </trkpt>
      <trkpt lat="60.59137" lon="7.48312">
        <ele>1214.76</ele>
        <time>2019-04-07T11:15:06Z</time>
      </trkpt>
      <trkpt lat="60.59217" lon="7.48416">
        <ele>1214.76</ele>
        <time>2019-04-07T11:15:18Z</time>
      </trkpt>
      <trkpt lat="60.59269" lon="7.48487">
        <ele>1214.76</ele>
        <time>2019-04-07T11:15:26Z</time>
      </trkpt>
      <trkpt lat="60.59296" lon="7.48525">
        <ele>1214.76</ele>
        <time>2019-04-07T11:15:31Z</time>
      </trkpt>
      <trkpt lat="60.59323" lon="7.48549">
        <ele>1214.76</ele>
        <time>2019-04-07T11:15:35Z</time>
      </trkpt>
      <trkpt lat="60.59355" lon="7.48588">
        <ele>1214.76</ele>
        <time>2019-04-07T11:15:40Z</time>
      </trkpt>
      <trkpt lat="60.59387" lon="7.48619">
        <ele>1214.76</ele>
        <time>2019-04-07T11:15:45Z</time>
      </trkpt>
      <trkpt lat="60.59409" lon="7.4863">
        <ele>1214.76</ele>
        <time>2019-04-07T11:15:48Z</time>
      </trkpt>
      <trkpt lat="60.59434" lon="7.48652">
        <ele>1212.36</ele>
        <time>2019-04-07T11:15:53Z</time>
      </trkpt>
      <trkpt lat="60.59439" lon="7.48623">
        <ele>1211.88</ele>
        <time>2019-04-07T11:16:00Z</time>
      </trkpt>
      <trkpt lat="60.59437" lon="7.48616">
        <ele>1211.88</ele>
        <time>2019-04-07T11:16:01Z</time>
      </trkpt>
      <trkpt lat="60.59423" lon="7.48561">
        <ele>1211.88</ele>
        <time>2019-04-07T11:16:07Z</time>
      </trkpt>
      <trkpt lat="60.59412" lon="7.48528">
        <ele>1211.88</ele>
        <time>2019-04-07T11:16:10Z</time>
      </trkpt>
      <trkpt lat="60.59391" lon="7.48444">
        <ele>1211.88</ele>
        <time>2019-04-07T11:16:17Z</time>
      </trkpt>
      <trkpt lat="60.59372" lon="7.48387">
        <ele>1211.88</ele>
        <time>2019-04-07T11:16:22Z</time>
      </trkpt>
      <trkpt lat="60.5933" lon="7.48226">
        <ele>1211.4</ele>
        <time>2019-04-07T11:16:34Z</time>
      </trkpt>
      <trkpt lat="60.59284" lon="7.48027">
        <ele>1211.4</ele>
        <time>2019-04-07T11:16:47Z</time>
      </trkpt>
      <trkpt lat="60.59236" lon="7.47798">
        <ele>1210.44</ele>
        <time>2019-04-07T11:17:00Z</time>
      </trkpt>
      <trkpt lat="60.59225" lon="7.47747">
        <ele>1211.88</ele>
        <time>2019-04-07T11:17:03Z</time>
      </trkpt>
      <trkpt lat="60.59187" lon="7.47561">
        <ele>1212.84</ele>
        <time>2019-04-07T11:17:15Z</time>
      </trkpt>
      <trkpt lat="60.59148" lon="7.47432">
        <ele>1212.84</ele>
        <time>2019-04-07T11:17:25Z</time>
      </trkpt>
      <trkpt lat="60.59101" lon="7.47282">
        <ele>1211.4</ele>
        <time>2019-04-07T11:17:36Z</time>
      </trkpt>
      <trkpt lat="60.59089" lon="7.47234">
        <ele>1212.84</ele>
        <time>2019-04-07T11:17:39Z</time>
      </trkpt>
      <trkpt lat="60.59037" lon="7.47014">
        <ele>1212.84</ele>
        <time>2019-04-07T11:17:52Z</time>
      </trkpt>
      <trkpt lat="60.58989" lon="7.46788">
        <ele>1211.4</ele>
        <time>2019-04-07T11:18:05Z</time>
      </trkpt>
      <trkpt lat="60.58955" lon="7.46592">
        <ele>1211.4</ele>
        <time>2019-04-07T11:18:16Z</time>
      </trkpt>
      <trkpt lat="60.58939" lon="7.46534">
        <ele>1212.84</ele>
        <time>2019-04-07T11:18:20Z</time>
      </trkpt>
      <trkpt lat="60.58933" lon="7.46509">
        <ele>1212.84</ele>
        <time>2019-04-07T11:18:22Z</time>
      </trkpt>
      <trkpt lat="60.58928" lon="7.46488">
        <ele>1211.4</ele>
        <time>2019-04-07T11:18:24Z</time>
      </trkpt>
      <trkpt lat="60.58951" lon="7.46435">
        <ele>1213.32</ele>
        <time>2019-04-07T11:18:30Z</time>
      </trkpt>
      <trkpt lat="60.59" lon="7.46382">
        <ele>1213.32</ele>
        <time>2019-04-07T11:18:37Z</time>
      </trkpt>
      <trkpt lat="60.59087" lon="7.46254">
        <ele>1213.8</ele>
        <time>2019-04-07T11:18:50Z</time>
      </trkpt>
      <trkpt lat="60.59195" lon="7.46084">
        <ele>1213.8</ele>
        <time>2019-04-07T11:19:05Z</time>
      </trkpt>
      <trkpt lat="60.59297" lon="7.45932">
        <ele>1214.76</ele>
        <time>2019-04-07T11:19:18Z</time>
      </trkpt>
      <trkpt lat="60.59393" lon="7.45819">
        <ele>1213.32</ele>
        <time>2019-04-07T11:19:30Z</time>
      </trkpt>
      <trkpt lat="60.59415" lon="7.45794">
        <ele>1215.24</ele>
        <time>2019-04-07T11:19:33Z</time>
      </trkpt>
      <trkpt lat="60.59495" lon="7.45689">
        <ele>1216.21</ele>
        <time>2019-04-07T11:19:44Z</time>
      </trkpt>
      <trkpt lat="60.59515" lon="7.45661">
        <ele>1214.28</ele>
        <time>2019-04-07T11:19:47Z</time>
      </trkpt>
      <trkpt lat="60.59527" lon="7.45641">
        <ele>1213.8</ele>
        <time>2019-04-07T11:19:49Z</time>
      </trkpt>
      <trkpt lat="60.59554" lon="7.45609">
        <ele>1215.24</ele>
        <time>2019-04-07T11:19:53Z</time>
      </trkpt>
      <trkpt lat="60.59582" lon="7.45579">
        <ele>1217.17</ele>
        <time>2019-04-07T11:19:57Z</time>
      </trkpt>
      <trkpt lat="60.59598" lon="7.4556">
        <ele>1217.65</ele>
        <time>2019-04-07T11:20:00Z</time>
      </trkpt>
      <trkpt lat="60.59617" lon="7.45547">
        <ele>1220.53</ele>
        <time>2019-04-07T11:20:04Z</time>
      </trkpt>
      <trkpt lat="60.59628" lon="7.45546">
        <ele>1221.49</ele>
        <time>2019-04-07T11:20:06Z</time>
      </trkpt>
      <trkpt lat="60.5964" lon="7.45543">
        <ele>1222.45</ele>
        <time>2019-04-07T11:20:08Z</time>
      </trkpt>
      <trkpt lat="60.59653" lon="7.45534">
        <ele>1224.38</ele>
        <time>2019-04-07T11:20:11Z</time>
      </trkpt>
      <trkpt lat="60.59668" lon="7.45524">
        <ele>1226.3</ele>
        <time>2019-04-07T11:20:15Z</time>
      </trkpt>
      <trkpt lat="60.59693" lon="7.45482">
        <ele>1226.78</ele>
        <time>2019-04-07T11:20:25Z</time>
      </trkpt>
      <trkpt lat="60.5972" lon="7.45442">
        <ele>1227.26</ele>
        <time>2019-04-07T11:20:32Z</time>
      </trkpt>
      <trkpt lat="60.59774" lon="7.45419">
        <ele>1224.86</ele>
        <time>2019-04-07T11:20:41Z</time>
      </trkpt>
      <trkpt lat="60.59781" lon="7.45417">
        <ele>1224.86</ele>
        <time>2019-04-07T11:20:43Z</time>
      </trkpt>
      <trkpt lat="60.59785" lon="7.454">
        <ele>1224.86</ele>
        <time>2019-04-07T11:20:46Z</time>
      </trkpt>
      <trkpt lat="60.59781" lon="7.45353">
        <ele>1224.86</ele>
        <time>2019-04-07T11:20:51Z</time>
      </trkpt>
      <trkpt lat="60.59776" lon="7.45333">
        <ele>1224.86</ele>
        <time>2019-04-07T11:20:53Z</time>
      </trkpt>
      <trkpt lat="60.59771" lon="7.45316">
        <ele>1224.86</ele>
        <time>2019-04-07T11:20:55Z</time>
      </trkpt>
      <trkpt lat="60.59767" lon="7.45301">
        <ele>1224.86</ele>
        <time>2019-04-07T11:20:57Z</time>
      </trkpt>
      <trkpt lat="60.59759" lon="7.45276">
        <ele>1224.86</ele>
        <time>2019-04-07T11:21:00Z</time>
      </trkpt>
      <trkpt lat="60.59754" lon="7.45259">
        <ele>1224.86</ele>
        <time>2019-04-07T11:21:02Z</time>
      </trkpt>
      <trkpt lat="60.59741" lon="7.45197">
        <ele>1224.38</ele>
        <time>2019-04-07T11:21:09Z</time>
      </trkpt>
      <trkpt lat="60.59727" lon="7.45165">
        <ele>1222.93</ele>
        <time>2019-04-07T11:21:13Z</time>
      </trkpt>
      <trkpt lat="60.59724" lon="7.45159">
        <ele>1222.93</ele>
        <time>2019-04-07T11:21:14Z</time>
      </trkpt>
      <trkpt lat="60.59719" lon="7.45147">
        <ele>1224.38</ele>
        <time>2019-04-07T11:21:16Z</time>
      </trkpt>
      <trkpt lat="60.59702" lon="7.45114">
        <ele>1220.53</ele>
        <time>2019-04-07T11:21:23Z</time>
      </trkpt>
      <trkpt lat="60.597" lon="7.45112">
        <ele>1220.53</ele>
        <time>2019-04-07T11:21:24Z</time>
      </trkpt>
      <trkpt lat="60.59688" lon="7.45103">
        <ele>1220.53</ele>
        <time>2019-04-07T11:21:28Z</time>
      </trkpt>
      <trkpt lat="60.59669" lon="7.45091">
        <ele>1217.65</ele>
        <time>2019-04-07T11:21:32Z</time>
      </trkpt>
      <trkpt lat="60.59653" lon="7.45089">
        <ele>1214.28</ele>
        <time>2019-04-07T11:21:35Z</time>
      </trkpt>
      <trkpt lat="60.59647" lon="7.45085">
        <ele>1214.28</ele>
        <time>2019-04-07T11:21:36Z</time>
      </trkpt>
      <trkpt lat="60.59626" lon="7.45056">
        <ele>1210.92</ele>
        <time>2019-04-07T11:21:39Z</time>
      </trkpt>
      <trkpt lat="60.59602" lon="7.44999">
        <ele>1209.96</ele>
        <time>2019-04-07T11:21:43Z</time>
      </trkpt>
      <trkpt lat="60.59583" lon="7.44964">
        <ele>1211.4</ele>
        <time>2019-04-07T11:21:47Z</time>
      </trkpt>
      <trkpt lat="60.59577" lon="7.44953">
        <ele>1211.88</ele>
        <time>2019-04-07T11:21:50Z</time>
      </trkpt>
      <trkpt lat="60.59587" lon="7.44967">
        <ele>1213.32</ele>
        <time>2019-04-07T11:21:55Z</time>
      </trkpt>
      <trkpt lat="60.59603" lon="7.44997">
        <ele>1211.88</ele>
        <time>2019-04-07T11:22:05Z</time>
      </trkpt>
      <trkpt lat="60.59605" lon="7.44994">
        <ele>1211.88</ele>
        <time>2019-04-07T11:22:31Z</time>
      </trkpt>
      <trkpt lat="60.59605" lon="7.44993">
        <ele>1211.88</ele>
        <time>2019-04-07T11:22:32Z</time>
      </trkpt>
      <trkpt lat="60.59583" lon="7.44973">
        <ele>1211.88</ele>
        <time>2019-04-07T11:22:41Z</time>
      </trkpt>
      <trkpt lat="60.59581" lon="7.44967">
        <ele>1211.88</ele>
        <time>2019-04-07T11:22:42Z</time>
      </trkpt>
      <trkpt lat="60.59577" lon="7.44952">
        <ele>1211.88</ele>
        <time>2019-04-07T11:22:45Z</time>
      </trkpt>
      <trkpt lat="60.59546" lon="7.4489">
        <ele>1212.36</ele>
        <time>2019-04-07T11:22:53Z</time>
      </trkpt>
      <trkpt lat="60.59516" lon="7.448">
        <ele>1212.36</ele>
        <time>2019-04-07T11:23:01Z</time>
      </trkpt>
      <trkpt lat="60.59502" lon="7.44736">
        <ele>1212.36</ele>
        <time>2019-04-07T11:23:06Z</time>
      </trkpt>
      <trkpt lat="60.59457" lon="7.44584">
        <ele>1215.24</ele>
        <time>2019-04-07T11:23:18Z</time>
      </trkpt>
      <trkpt lat="60.59438" lon="7.44508">
        <ele>1218.13</ele>
        <time>2019-04-07T11:23:23Z</time>
      </trkpt>
      <trkpt lat="60.59418" lon="7.44439">
        <ele>1221.97</ele>
        <time>2019-04-07T11:23:28Z</time>
      </trkpt>
      <trkpt lat="60.59412" lon="7.44414">
        <ele>1222.93</ele>
        <time>2019-04-07T11:23:30Z</time>
      </trkpt>
      <trkpt lat="60.5939" lon="7.4433">
        <ele>1225.82</ele>
        <time>2019-04-07T11:23:37Z</time>
      </trkpt>
      <trkpt lat="60.59373" lon="7.4428">
        <ele>1227.26</ele>
        <time>2019-04-07T11:23:41Z</time>
      </trkpt>
      <trkpt lat="60.59367" lon="7.44257">
        <ele>1228.7</ele>
        <time>2019-04-07T11:23:43Z</time>
      </trkpt>
      <trkpt lat="60.59363" lon="7.44236">
        <ele>1230.62</ele>
        <time>2019-04-07T11:23:45Z</time>
      </trkpt>
      <trkpt lat="60.59356" lon="7.44196">
        <ele>1234.95</ele>
        <time>2019-04-07T11:23:50Z</time>
      </trkpt>
      <trkpt lat="60.59357" lon="7.44144">
        <ele>1238.8</ele>
        <time>2019-04-07T11:23:57Z</time>
      </trkpt>
      <trkpt lat="60.59364" lon="7.44131">
        <ele>1239.76</ele>
        <time>2019-04-07T11:24:01Z</time>
      </trkpt>
      <trkpt lat="60.59399" lon="7.44116">
        <ele>1239.76</ele>
        <time>2019-04-07T11:24:06Z</time>
      </trkpt>
      <trkpt lat="60.59414" lon="7.44114">
        <ele>1237.83</ele>
        <time>2019-04-07T11:24:08Z</time>
      </trkpt>
      <trkpt lat="60.59423" lon="7.44114">
        <ele>1237.83</ele>
        <time>2019-04-07T11:24:09Z</time>
      </trkpt>
      <trkpt lat="60.59447" lon="7.44123">
        <ele>1233.03</ele>
        <time>2019-04-07T11:24:12Z</time>
      </trkpt>
      <trkpt lat="60.59469" lon="7.44135">
        <ele>1229.18</ele>
        <time>2019-04-07T11:24:15Z</time>
      </trkpt>
      <trkpt lat="60.59497" lon="7.44148">
        <ele>1226.3</ele>
        <time>2019-04-07T11:24:19Z</time>
      </trkpt>
      <trkpt lat="60.59511" lon="7.44155">
        <ele>1226.3</ele>
        <time>2019-04-07T11:24:21Z</time>
      </trkpt>
      <trkpt lat="60.59545" lon="7.44129">
        <ele>1227.74</ele>
        <time>2019-04-07T11:24:28Z</time>
      </trkpt>
      <trkpt lat="60.5956" lon="7.44115">
        <ele>1228.22</ele>
        <time>2019-04-07T11:24:32Z</time>
      </trkpt>
      <trkpt lat="60.59596" lon="7.4413">
        <ele>1229.66</ele>
        <time>2019-04-07T11:24:41Z</time>
      </trkpt>
      <trkpt lat="60.59602" lon="7.44136">
        <ele>1228.22</ele>
        <time>2019-04-07T11:24:42Z</time>
      </trkpt>
      <trkpt lat="60.59611" lon="7.44165">
        <ele>1224.86</ele>
        <time>2019-04-07T11:24:48Z</time>
      </trkpt>
      <trkpt lat="60.5961" lon="7.44162">
        <ele>1224.86</ele>
        <time>2019-04-07T11:24:57Z</time>
      </trkpt>
      <trkpt lat="60.59608" lon="7.44156">
        <ele>1224.86</ele>
        <time>2019-04-07T11:25:13Z</time>
      </trkpt>
      <trkpt lat="60.59607" lon="7.44148">
        <ele>1224.86</ele>
        <time>2019-04-07T11:25:34Z</time>
      </trkpt>
      <trkpt lat="60.59607" lon="7.44145">
        <ele>1224.86</ele>
        <time>2019-04-07T11:25:54Z</time>
      </trkpt>
      <trkpt lat="60.59617" lon="7.44112">
        <ele>1224.86</ele>
        <time>2019-04-07T11:26:00Z</time>
      </trkpt>
      <trkpt lat="60.5962" lon="7.44106">
        <ele>1224.86</ele>
        <time>2019-04-07T11:26:02Z</time>
      </trkpt>
      <trkpt lat="60.5966" lon="7.44068">
        <ele>1223.42</ele>
        <time>2019-04-07T11:26:11Z</time>
      </trkpt>
      <trkpt lat="60.59668" lon="7.44071">
        <ele>1223.42</ele>
        <time>2019-04-07T11:26:12Z</time>
      </trkpt>
      <trkpt lat="60.59694" lon="7.44077">
        <ele>1224.86</ele>
        <time>2019-04-07T11:26:17Z</time>
      </trkpt>
      <trkpt lat="60.59699" lon="7.44076">
        <ele>1225.82</ele>
        <time>2019-04-07T11:26:18Z</time>
      </trkpt>
      <trkpt lat="60.59718" lon="7.4406">
        <ele>1227.74</ele>
        <time>2019-04-07T11:26:26Z</time>
      </trkpt>
      <trkpt lat="60.59722" lon="7.44059">
        <ele>1228.22</ele>
        <time>2019-04-07T11:26:28Z</time>
      </trkpt>
      <trkpt lat="60.59729" lon="7.44053">
        <ele>1229.66</ele>
        <time>2019-04-07T11:26:32Z</time>
      </trkpt>
      <trkpt lat="60.59737" lon="7.44054">
        <ele>1231.59</ele>
        <time>2019-04-07T11:26:36Z</time>
      </trkpt>
      <trkpt lat="60.59748" lon="7.44046">
        <ele>1232.55</ele>
        <time>2019-04-07T11:26:41Z</time>
      </trkpt>
      <trkpt lat="60.59756" lon="7.44049">
        <ele>1233.03</ele>
        <time>2019-04-07T11:26:43Z</time>
      </trkpt>
      <trkpt lat="60.59765" lon="7.4405">
        <ele>1233.03</ele>
        <time>2019-04-07T11:26:45Z</time>
      </trkpt>
      <trkpt lat="60.59793" lon="7.44055">
        <ele>1229.66</ele>
        <time>2019-04-07T11:26:52Z</time>
      </trkpt>
      <trkpt lat="60.59797" lon="7.44056">
        <ele>1228.7</ele>
        <time>2019-04-07T11:26:53Z</time>
      </trkpt>
      <trkpt lat="60.59808" lon="7.44067">
        <ele>1227.26</ele>
        <time>2019-04-07T11:26:56Z</time>
      </trkpt>
      <trkpt lat="60.59823" lon="7.44062">
        <ele>1223.9</ele>
        <time>2019-04-07T11:26:59Z</time>
      </trkpt>
      <trkpt lat="60.59838" lon="7.44054">
        <ele>1223.42</ele>
        <time>2019-04-07T11:27:01Z</time>
      </trkpt>
      <trkpt lat="60.59869" lon="7.44047">
        <ele>1226.3</ele>
        <time>2019-04-07T11:27:05Z</time>
      </trkpt>
      <trkpt lat="60.59902" lon="7.44042">
        <ele>1228.7</ele>
        <time>2019-04-07T11:27:09Z</time>
      </trkpt>
      <trkpt lat="60.59977" lon="7.44026">
        <ele>1229.66</ele>
        <time>2019-04-07T11:27:18Z</time>
      </trkpt>
      <trkpt lat="60.59987" lon="7.4402">
        <ele>1231.11</ele>
        <time>2019-04-07T11:27:21Z</time>
      </trkpt>
      <trkpt lat="60.60003" lon="7.4402">
        <ele>1233.03</ele>
        <time>2019-04-07T11:27:26Z</time>
      </trkpt>
      <trkpt lat="60.6002" lon="7.44006">
        <ele>1235.91</ele>
        <time>2019-04-07T11:27:32Z</time>
      </trkpt>
      <trkpt lat="60.60024" lon="7.44005">
        <ele>1236.87</ele>
        <time>2019-04-07T11:27:33Z</time>
      </trkpt>
      <trkpt lat="60.6003" lon="7.44003">
        <ele>1237.35</ele>
        <time>2019-04-07T11:27:35Z</time>
      </trkpt>
      <trkpt lat="60.60036" lon="7.43999">
        <ele>1238.32</ele>
        <time>2019-04-07T11:27:37Z</time>
      </trkpt>
      <trkpt lat="60.60043" lon="7.43926">
        <ele>1239.76</ele>
        <time>2019-04-07T11:27:48Z</time>
      </trkpt>
      <trkpt lat="60.60042" lon="7.43909">
        <ele>1240.24</ele>
        <time>2019-04-07T11:27:50Z</time>
      </trkpt>
      <trkpt lat="60.6005" lon="7.43863">
        <ele>1241.2</ele>
        <time>2019-04-07T11:27:57Z</time>
      </trkpt>
      <trkpt lat="60.60042" lon="7.43779">
        <ele>1243.12</ele>
        <time>2019-04-07T11:28:06Z</time>
      </trkpt>
      <trkpt lat="60.60034" lon="7.43715">
        <ele>1243.6</ele>
        <time>2019-04-07T11:28:14Z</time>
      </trkpt>
      <trkpt lat="60.60026" lon="7.43689">
        <ele>1242.16</ele>
        <time>2019-04-07T11:28:17Z</time>
      </trkpt>
      <trkpt lat="60.59997" lon="7.43625">
        <ele>1243.12</ele>
        <time>2019-04-07T11:28:27Z</time>
      </trkpt>
      <trkpt lat="60.59994" lon="7.43622">
        <ele>1243.12</ele>
        <time>2019-04-07T11:28:28Z</time>
      </trkpt>
      <trkpt lat="60.59982" lon="7.43599">
        <ele>1241.2</ele>
        <time>2019-04-07T11:28:32Z</time>
      </trkpt>
      <trkpt lat="60.59977" lon="7.43584">
        <ele>1239.28</ele>
        <time>2019-04-07T11:28:34Z</time>
      </trkpt>
      <trkpt lat="60.59982" lon="7.43556">
        <ele>1238.8</ele>
        <time>2019-04-07T11:28:38Z</time>
      </trkpt>
      <trkpt lat="60.59993" lon="7.4354">
        <ele>1239.28</ele>
        <time>2019-04-07T11:28:41Z</time>
      </trkpt>
      <trkpt lat="60.59999" lon="7.43526">
        <ele>1240.24</ele>
        <time>2019-04-07T11:28:43Z</time>
      </trkpt>
      <trkpt lat="60.60012" lon="7.43487">
        <ele>1240.72</ele>
        <time>2019-04-07T11:28:50Z</time>
      </trkpt>
      <trkpt lat="60.6002" lon="7.43479">
        <ele>1241.2</ele>
        <time>2019-04-07T11:28:52Z</time>
      </trkpt>
      <trkpt lat="60.60056" lon="7.43452">
        <ele>1242.16</ele>
        <time>2019-04-07T11:29:00Z</time>
      </trkpt>
      <trkpt lat="60.60076" lon="7.43438">
        <ele>1242.16</ele>
        <time>2019-04-07T11:29:04Z</time>
      </trkpt>
      <trkpt lat="60.60109" lon="7.43418">
        <ele>1244.56</ele>
        <time>2019-04-07T11:29:10Z</time>
      </trkpt>
      <trkpt lat="60.60118" lon="7.43397">
        <ele>1248.89</ele>
        <time>2019-04-07T11:29:15Z</time>
      </trkpt>
      <trkpt lat="60.60123" lon="7.43382">
        <ele>1250.81</ele>
        <time>2019-04-07T11:29:19Z</time>
      </trkpt>
      <trkpt lat="60.60131" lon="7.43361">
        <ele>1254.18</ele>
        <time>2019-04-07T11:29:23Z</time>
      </trkpt>
      <trkpt lat="60.60133" lon="7.43357">
        <ele>1254.18</ele>
        <time>2019-04-07T11:29:24Z</time>
      </trkpt>
      <trkpt lat="60.60135" lon="7.43353">
        <ele>1255.14</ele>
        <time>2019-04-07T11:29:25Z</time>
      </trkpt>
      <trkpt lat="60.60145" lon="7.43339">
        <ele>1255.14</ele>
        <time>2019-04-07T11:29:27Z</time>
      </trkpt>
      <trkpt lat="60.60164" lon="7.43273">
        <ele>1255.62</ele>
        <time>2019-04-07T11:29:34Z</time>
      </trkpt>
      <trkpt lat="60.60165" lon="7.43243">
        <ele>1250.81</ele>
        <time>2019-04-07T11:29:38Z</time>
      </trkpt>
      <trkpt lat="60.60165" lon="7.43237">
        <ele>1258.5</ele>
        <time>2019-04-07T11:29:39Z</time>
      </trkpt>
      <trkpt lat="60.60167" lon="7.43226">
        <ele>1256.1</ele>
        <time>2019-04-07T11:29:42Z</time>
      </trkpt>
      <trkpt lat="60.60171" lon="7.43216">
        <ele>1257.54</ele>
        <time>2019-04-07T11:29:45Z</time>
      </trkpt>
      <trkpt lat="60.60177" lon="7.43191">
        <ele>1258.98</ele>
        <time>2019-04-07T11:29:51Z</time>
      </trkpt>
      <trkpt lat="60.60189" lon="7.43158">
        <ele>1261.87</ele>
        <time>2019-04-07T11:29:58Z</time>
      </trkpt>
      <trkpt lat="60.60191" lon="7.43152">
        <ele>1262.83</ele>
        <time>2019-04-07T11:30:00Z</time>
      </trkpt>
      <trkpt lat="60.60196" lon="7.4313">
        <ele>1264.75</ele>
        <time>2019-04-07T11:30:07Z</time>
      </trkpt>
      <trkpt lat="60.60214" lon="7.43111">
        <ele>1267.16</ele>
        <time>2019-04-07T11:30:16Z</time>
      </trkpt>
      <trkpt lat="60.60216" lon="7.43113">
        <ele>1267.16</ele>
        <time>2019-04-07T11:30:18Z</time>
      </trkpt>
      <trkpt lat="60.6023" lon="7.43089">
        <ele>1267.64</ele>
        <time>2019-04-07T11:30:28Z</time>
      </trkpt>
      <trkpt lat="60.60235" lon="7.43081">
        <ele>1267.64</ele>
        <time>2019-04-07T11:30:30Z</time>
      </trkpt>
      <trkpt lat="60.60243" lon="7.43069">
        <ele>1268.6</ele>
        <time>2019-04-07T11:30:35Z</time>
      </trkpt>
      <trkpt lat="60.60266" lon="7.43016">
        <ele>1271</ele>
        <time>2019-04-07T11:30:47Z</time>
      </trkpt>
      <trkpt lat="60.60268" lon="7.43011">
        <ele>1271</ele>
        <time>2019-04-07T11:30:48Z</time>
      </trkpt>
      <trkpt lat="60.60277" lon="7.42988">
        <ele>1272.92</ele>
        <time>2019-04-07T11:30:52Z</time>
      </trkpt>
      <trkpt lat="60.60282" lon="7.42972">
        <ele>1273.88</ele>
        <time>2019-04-07T11:30:55Z</time>
      </trkpt>
      <trkpt lat="60.60298" lon="7.4292">
        <ele>1276.29</ele>
        <time>2019-04-07T11:31:03Z</time>
      </trkpt>
      <trkpt lat="60.60314" lon="7.42873">
        <ele>1277.73</ele>
        <time>2019-04-07T11:31:11Z</time>
      </trkpt>
      <trkpt lat="60.60328" lon="7.42825">
        <ele>1280.61</ele>
        <time>2019-04-07T11:31:19Z</time>
      </trkpt>
      <trkpt lat="60.60339" lon="7.42769">
        <ele>1281.57</ele>
        <time>2019-04-07T11:31:28Z</time>
      </trkpt>
      <trkpt lat="60.60338" lon="7.42716">
        <ele>1278.21</ele>
        <time>2019-04-07T11:31:37Z</time>
      </trkpt>
      <trkpt lat="60.6034" lon="7.42704">
        <ele>1277.73</ele>
        <time>2019-04-07T11:31:42Z</time>
      </trkpt>
      <trkpt lat="60.60347" lon="7.42675">
        <ele>1280.13</ele>
        <time>2019-04-07T11:31:47Z</time>
      </trkpt>
      <trkpt lat="60.60348" lon="7.42641">
        <ele>1280.13</ele>
        <time>2019-04-07T11:31:52Z</time>
      </trkpt>
      <trkpt lat="60.60347" lon="7.42604">
        <ele>1277.25</ele>
        <time>2019-04-07T11:31:59Z</time>
      </trkpt>
      <trkpt lat="60.60348" lon="7.4258">
        <ele>1276.29</ele>
        <time>2019-04-07T11:32:04Z</time>
      </trkpt>
      <trkpt lat="60.60352" lon="7.42555">
        <ele>1275.33</ele>
        <time>2019-04-07T11:32:08Z</time>
      </trkpt>
      <trkpt lat="60.60353" lon="7.42549">
        <ele>1275.33</ele>
        <time>2019-04-07T11:32:10Z</time>
      </trkpt>
      <trkpt lat="60.60347" lon="7.42542">
        <ele>1273.4</ele>
        <time>2019-04-07T11:32:14Z</time>
      </trkpt>
      <trkpt lat="60.60341" lon="7.42543">
        <ele>1270.52</ele>
        <time>2019-04-07T11:32:17Z</time>
      </trkpt>
      <trkpt lat="60.60336" lon="7.42544">
        <ele>1269.08</ele>
        <time>2019-04-07T11:32:19Z</time>
      </trkpt>
      <trkpt lat="60.60328" lon="7.42543">
        <ele>1264.27</ele>
        <time>2019-04-07T11:32:21Z</time>
      </trkpt>
      <trkpt lat="60.60318" lon="7.4254">
        <ele>1259.94</ele>
        <time>2019-04-07T11:32:23Z</time>
      </trkpt>
      <trkpt lat="60.60312" lon="7.42538">
        <ele>1258.02</ele>
        <time>2019-04-07T11:32:25Z</time>
      </trkpt>
      <trkpt lat="60.60306" lon="7.42481">
        <ele>1256.58</ele>
        <time>2019-04-07T11:32:33Z</time>
      </trkpt>
      <trkpt lat="60.60315" lon="7.42456">
        <ele>1257.54</ele>
        <time>2019-04-07T11:32:38Z</time>
      </trkpt>
      <trkpt lat="60.60309" lon="7.42425">
        <ele>1253.22</ele>
        <time>2019-04-07T11:32:42Z</time>
      </trkpt>
      <trkpt lat="60.603" lon="7.42415">
        <ele>1250.81</ele>
        <time>2019-04-07T11:32:44Z</time>
      </trkpt>
      <trkpt lat="60.60293" lon="7.42408">
        <ele>1249.85</ele>
        <time>2019-04-07T11:32:46Z</time>
      </trkpt>
      <trkpt lat="60.6029" lon="7.42402">
        <ele>1249.85</ele>
        <time>2019-04-07T11:32:48Z</time>
      </trkpt>
      <trkpt lat="60.60289" lon="7.42386">
        <ele>1251.29</ele>
        <time>2019-04-07T11:32:51Z</time>
      </trkpt>
      <trkpt lat="60.6029" lon="7.42383">
        <ele>1250.33</ele>
        <time>2019-04-07T11:32:52Z</time>
      </trkpt>
      <trkpt lat="60.60292" lon="7.42379">
        <ele>1250.33</ele>
        <time>2019-04-07T11:33:05Z</time>
      </trkpt>
      <trkpt lat="60.60291" lon="7.42379">
        <ele>1250.33</ele>
        <time>2019-04-07T11:33:25Z</time>
      </trkpt>
      <trkpt lat="60.60293" lon="7.42377">
        <ele>1250.33</ele>
        <time>2019-04-07T11:33:41Z</time>
      </trkpt>
      <trkpt lat="60.60294" lon="7.42342">
        <ele>1245.53</ele>
        <time>2019-04-07T11:33:46Z</time>
      </trkpt>
      <trkpt lat="60.60292" lon="7.42332">
        <ele>1245.53</ele>
        <time>2019-04-07T11:33:47Z</time>
      </trkpt>
      <trkpt lat="60.60304" lon="7.42282">
        <ele>1245.04</ele>
        <time>2019-04-07T11:33:53Z</time>
      </trkpt>
      <trkpt lat="60.60329" lon="7.42257">
        <ele>1246.49</ele>
        <time>2019-04-07T11:33:58Z</time>
      </trkpt>
      <trkpt lat="60.60351" lon="7.42221">
        <ele>1246.97</ele>
        <time>2019-04-07T11:34:04Z</time>
      </trkpt>
      <trkpt lat="60.60371" lon="7.4219">
        <ele>1249.37</ele>
        <time>2019-04-07T11:34:10Z</time>
      </trkpt>
      <trkpt lat="60.60376" lon="7.42175">
        <ele>1250.33</ele>
        <time>2019-04-07T11:34:12Z</time>
      </trkpt>
      <trkpt lat="60.60377" lon="7.42121">
        <ele>1250.33</ele>
        <time>2019-04-07T11:34:17Z</time>
      </trkpt>
      <trkpt lat="60.60369" lon="7.42057">
        <ele>1248.41</ele>
        <time>2019-04-07T11:34:21Z</time>
      </trkpt>
      <trkpt lat="60.60366" lon="7.42041">
        <ele>1248.41</ele>
        <time>2019-04-07T11:34:22Z</time>
      </trkpt>
      <trkpt lat="60.60367" lon="7.41992">
        <ele>1249.85</ele>
        <time>2019-04-07T11:34:27Z</time>
      </trkpt>
      <trkpt lat="60.6037" lon="7.41976">
        <ele>1251.29</ele>
        <time>2019-04-07T11:34:31Z</time>
      </trkpt>
      <trkpt lat="60.6037" lon="7.41971">
        <ele>1251.29</ele>
        <time>2019-04-07T11:34:32Z</time>
      </trkpt>
      <trkpt lat="60.60385" lon="7.41922">
        <ele>1251.77</ele>
        <time>2019-04-07T11:34:39Z</time>
      </trkpt>
      <trkpt lat="60.60385" lon="7.41886">
        <ele>1251.77</ele>
        <time>2019-04-07T11:34:43Z</time>
      </trkpt>
      <trkpt lat="60.60366" lon="7.41775">
        <ele>1249.85</ele>
        <time>2019-04-07T11:34:55Z</time>
      </trkpt>
      <trkpt lat="60.60358" lon="7.41748">
        <ele>1249.85</ele>
        <time>2019-04-07T11:34:58Z</time>
      </trkpt>
      <trkpt lat="60.60348" lon="7.41723">
        <ele>1252.25</ele>
        <time>2019-04-07T11:35:01Z</time>
      </trkpt>
      <trkpt lat="60.60338" lon="7.41697">
        <ele>1252.25</ele>
        <time>2019-04-07T11:35:04Z</time>
      </trkpt>
      <trkpt lat="60.60324" lon="7.41633">
        <ele>1250.81</ele>
        <time>2019-04-07T11:35:10Z</time>
      </trkpt>
      <trkpt lat="60.60313" lon="7.41584">
        <ele>1252.74</ele>
        <time>2019-04-07T11:35:14Z</time>
      </trkpt>
      <trkpt lat="60.60329" lon="7.41539">
        <ele>1254.18</ele>
        <time>2019-04-07T11:35:20Z</time>
      </trkpt>
      <trkpt lat="60.60347" lon="7.41523">
        <ele>1254.66</ele>
        <time>2019-04-07T11:35:24Z</time>
      </trkpt>
      <trkpt lat="60.60354" lon="7.41505">
        <ele>1254.66</ele>
        <time>2019-04-07T11:35:27Z</time>
      </trkpt>
      <trkpt lat="60.60367" lon="7.41465">
        <ele>1253.7</ele>
        <time>2019-04-07T11:35:34Z</time>
      </trkpt>
      <trkpt lat="60.60389" lon="7.41421">
        <ele>1252.74</ele>
        <time>2019-04-07T11:35:40Z</time>
      </trkpt>
      <trkpt lat="60.60414" lon="7.41407">
        <ele>1252.74</ele>
        <time>2019-04-07T11:35:44Z</time>
      </trkpt>
      <trkpt lat="60.60436" lon="7.41376">
        <ele>1257.54</ele>
        <time>2019-04-07T11:35:50Z</time>
      </trkpt>
      <trkpt lat="60.60441" lon="7.41353">
        <ele>1258.98</ele>
        <time>2019-04-07T11:35:53Z</time>
      </trkpt>
      <trkpt lat="60.60442" lon="7.4133">
        <ele>1258.98</ele>
        <time>2019-04-07T11:35:55Z</time>
      </trkpt>
      <trkpt lat="60.6044" lon="7.4121">
        <ele>1258.98</ele>
        <time>2019-04-07T11:36:04Z</time>
      </trkpt>
      <trkpt lat="60.60436" lon="7.41172">
        <ele>1260.91</ele>
        <time>2019-04-07T11:36:07Z</time>
      </trkpt>
      <trkpt lat="60.60434" lon="7.41161">
        <ele>1261.87</ele>
        <time>2019-04-07T11:36:08Z</time>
      </trkpt>
      <trkpt lat="60.60435" lon="7.41098">
        <ele>1267.16</ele>
        <time>2019-04-07T11:36:15Z</time>
      </trkpt>
      <trkpt lat="60.60444" lon="7.41085">
        <ele>1269.08</ele>
        <time>2019-04-07T11:36:18Z</time>
      </trkpt>
      <trkpt lat="60.6046" lon="7.41064">
        <ele>1270.52</ele>
        <time>2019-04-07T11:36:21Z</time>
      </trkpt>
      <trkpt lat="60.6047" lon="7.41055">
        <ele>1271.96</ele>
        <time>2019-04-07T11:36:23Z</time>
      </trkpt>
      <trkpt lat="60.6048" lon="7.41049">
        <ele>1274.36</ele>
        <time>2019-04-07T11:36:25Z</time>
      </trkpt>
      <trkpt lat="60.60495" lon="7.41004">
        <ele>1274.85</ele>
        <time>2019-04-07T11:36:35Z</time>
      </trkpt>
      <trkpt lat="60.60493" lon="7.41">
        <ele>1275.33</ele>
        <time>2019-04-07T11:36:49Z</time>
      </trkpt>
      <trkpt lat="60.60493" lon="7.40998">
        <ele>1275.33</ele>
        <time>2019-04-07T11:37:09Z</time>
      </trkpt>
      <trkpt lat="60.60499" lon="7.40997">
        <ele>1274.85</ele>
        <time>2019-04-07T11:37:21Z</time>
      </trkpt>
      <trkpt lat="60.60505" lon="7.41022">
        <ele>1275.81</ele>
        <time>2019-04-07T11:37:26Z</time>
      </trkpt>
      <trkpt lat="60.60506" lon="7.41062">
        <ele>1274.36</ele>
        <time>2019-04-07T11:37:32Z</time>
      </trkpt>
      <trkpt lat="60.60509" lon="7.411">
        <ele>1274.36</ele>
        <time>2019-04-07T11:37:38Z</time>
      </trkpt>
      <trkpt lat="60.60511" lon="7.4113">
        <ele>1274.36</ele>
        <time>2019-04-07T11:37:41Z</time>
      </trkpt>
      <trkpt lat="60.60515" lon="7.41191">
        <ele>1274.36</ele>
        <time>2019-04-07T11:37:48Z</time>
      </trkpt>
      <trkpt lat="60.6052" lon="7.41235">
        <ele>1275.33</ele>
        <time>2019-04-07T11:37:53Z</time>
      </trkpt>
      <trkpt lat="60.6052" lon="7.41244">
        <ele>1275.33</ele>
        <time>2019-04-07T11:37:54Z</time>
      </trkpt>
      <trkpt lat="60.6052" lon="7.41325">
        <ele>1276.29</ele>
        <time>2019-04-07T11:38:06Z</time>
      </trkpt>
      <trkpt lat="60.60521" lon="7.41333">
        <ele>1276.29</ele>
        <time>2019-04-07T11:38:07Z</time>
      </trkpt>
      <trkpt lat="60.60523" lon="7.41379">
        <ele>1274.85</ele>
        <time>2019-04-07T11:38:12Z</time>
      </trkpt>
      <trkpt lat="60.60522" lon="7.41476">
        <ele>1271.96</ele>
        <time>2019-04-07T11:38:22Z</time>
      </trkpt>
      <trkpt lat="60.60526" lon="7.41574">
        <ele>1271</ele>
        <time>2019-04-07T11:38:31Z</time>
      </trkpt>
      <trkpt lat="60.60525" lon="7.41593">
        <ele>1269.56</ele>
        <time>2019-04-07T11:38:33Z</time>
      </trkpt>
      <trkpt lat="60.60524" lon="7.41602">
        <ele>1267.64</ele>
        <time>2019-04-07T11:38:35Z</time>
      </trkpt>
      <trkpt lat="60.60514" lon="7.41603">
        <ele>1264.75</ele>
        <time>2019-04-07T11:38:39Z</time>
      </trkpt>
      <trkpt lat="60.60505" lon="7.41609">
        <ele>1264.75</ele>
        <time>2019-04-07T11:38:41Z</time>
      </trkpt>
      <trkpt lat="60.60485" lon="7.41628">
        <ele>1262.83</ele>
        <time>2019-04-07T11:38:45Z</time>
      </trkpt>
      <trkpt lat="60.60476" lon="7.41641">
        <ele>1260.43</ele>
        <time>2019-04-07T11:38:47Z</time>
      </trkpt>
      <trkpt lat="60.60464" lon="7.41661">
        <ele>1258.98</ele>
        <time>2019-04-07T11:38:51Z</time>
      </trkpt>
      <trkpt lat="60.60459" lon="7.41673">
        <ele>1258.02</ele>
        <time>2019-04-07T11:38:53Z</time>
      </trkpt>
      <trkpt lat="60.60442" lon="7.41703">
        <ele>1255.14</ele>
        <time>2019-04-07T11:38:58Z</time>
      </trkpt>
      <trkpt lat="60.60432" lon="7.41719">
        <ele>1250.81</ele>
        <time>2019-04-07T11:39:00Z</time>
      </trkpt>
      <trkpt lat="60.60426" lon="7.41728">
        <ele>1249.37</ele>
        <time>2019-04-07T11:39:01Z</time>
      </trkpt>
      <trkpt lat="60.60406" lon="7.41747">
        <ele>1251.77</ele>
        <time>2019-04-07T11:39:04Z</time>
      </trkpt>
      <trkpt lat="60.60385" lon="7.41761">
        <ele>1251.29</ele>
        <time>2019-04-07T11:39:07Z</time>
      </trkpt>
      <trkpt lat="60.60338" lon="7.41776">
        <ele>1252.74</ele>
        <time>2019-04-07T11:39:14Z</time>
      </trkpt>
      <trkpt lat="60.60311" lon="7.41786">
        <ele>1254.18</ele>
        <time>2019-04-07T11:39:19Z</time>
      </trkpt>
      <trkpt lat="60.60301" lon="7.41787">
        <ele>1251.29</ele>
        <time>2019-04-07T11:39:21Z</time>
      </trkpt>
      <trkpt lat="60.6029" lon="7.4179">
        <ele>1254.66</ele>
        <time>2019-04-07T11:39:23Z</time>
      </trkpt>
      <trkpt lat="60.60286" lon="7.4179">
        <ele>1254.66</ele>
        <time>2019-04-07T11:39:24Z</time>
      </trkpt>
      <trkpt lat="60.60281" lon="7.41791">
        <ele>1255.14</ele>
        <time>2019-04-07T11:39:25Z</time>
      </trkpt>
      <trkpt lat="60.60272" lon="7.41791">
        <ele>1256.58</ele>
        <time>2019-04-07T11:39:27Z</time>
      </trkpt>
      <trkpt lat="60.60267" lon="7.41791">
        <ele>1256.58</ele>
        <time>2019-04-07T11:39:28Z</time>
      </trkpt>
      <trkpt lat="60.60245" lon="7.41796">
        <ele>1257.54</ele>
        <time>2019-04-07T11:39:32Z</time>
      </trkpt>
      <trkpt lat="60.60214" lon="7.41797">
        <ele>1258.98</ele>
        <time>2019-04-07T11:39:37Z</time>
      </trkpt>
      <trkpt lat="60.60201" lon="7.41799">
        <ele>1258.02</ele>
        <time>2019-04-07T11:39:40Z</time>
      </trkpt>
      <trkpt lat="60.60214" lon="7.41808">
        <ele>1259.46</ele>
        <time>2019-04-07T11:39:47Z</time>
      </trkpt>
      <trkpt lat="60.60218" lon="7.41817">
        <ele>1259.94</ele>
        <time>2019-04-07T11:39:48Z</time>
      </trkpt>
      <trkpt lat="60.60239" lon="7.41907">
        <ele>1256.58</ele>
        <time>2019-04-07T11:39:55Z</time>
      </trkpt>
      <trkpt lat="60.60245" lon="7.41932">
        <ele>1254.18</ele>
        <time>2019-04-07T11:39:58Z</time>
      </trkpt>
      <trkpt lat="60.60247" lon="7.41952">
        <ele>1254.18</ele>
        <time>2019-04-07T11:40:00Z</time>
      </trkpt>
      <trkpt lat="60.60253" lon="7.41999">
        <ele>1253.22</ele>
        <time>2019-04-07T11:40:06Z</time>
      </trkpt>
      <trkpt lat="60.60256" lon="7.42016">
        <ele>1253.22</ele>
        <time>2019-04-07T11:40:08Z</time>
      </trkpt>
      <trkpt lat="60.60272" lon="7.42163">
        <ele>1251.29</ele>
        <time>2019-04-07T11:40:22Z</time>
      </trkpt>
      <trkpt lat="60.60281" lon="7.42228">
        <ele>1248.41</ele>
        <time>2019-04-07T11:40:27Z</time>
      </trkpt>
      <trkpt lat="60.60291" lon="7.42294">
        <ele>1247.45</ele>
        <time>2019-04-07T11:40:32Z</time>
      </trkpt>
      <trkpt lat="60.603" lon="7.42331">
        <ele>1246.97</ele>
        <time>2019-04-07T11:40:36Z</time>
      </trkpt>
      <trkpt lat="60.60313" lon="7.42359">
        <ele>1249.85</ele>
        <time>2019-04-07T11:40:41Z</time>
      </trkpt>
      <trkpt lat="60.60316" lon="7.42364">
        <ele>1250.33</ele>
        <time>2019-04-07T11:40:42Z</time>
      </trkpt>
      <trkpt lat="60.60334" lon="7.42394">
        <ele>1254.66</ele>
        <time>2019-04-07T11:40:48Z</time>
      </trkpt>
      <trkpt lat="60.60338" lon="7.42398">
        <ele>1256.1</ele>
        <time>2019-04-07T11:40:49Z</time>
      </trkpt>
      <trkpt lat="60.60333" lon="7.42388">
        <ele>1256.1</ele>
        <time>2019-04-07T11:40:55Z</time>
      </trkpt>
      <trkpt lat="60.60314" lon="7.42387">
        <ele>1250.33</ele>
        <time>2019-04-07T11:40:58Z</time>
      </trkpt>
      <trkpt lat="60.60297" lon="7.424">
        <ele>1252.25</ele>
        <time>2019-04-07T11:41:04Z</time>
      </trkpt>
      <trkpt lat="60.60269" lon="7.42427">
        <ele>1249.85</ele>
        <time>2019-04-07T11:41:19Z</time>
      </trkpt>
      <trkpt lat="60.60264" lon="7.42434">
        <ele>1246.49</ele>
        <time>2019-04-07T11:41:21Z</time>
      </trkpt>
      <trkpt lat="60.60257" lon="7.42444">
        <ele>1246.01</ele>
        <time>2019-04-07T11:41:23Z</time>
      </trkpt>
      <trkpt lat="60.60254" lon="7.42449">
        <ele>1246.01</ele>
        <time>2019-04-07T11:41:24Z</time>
      </trkpt>
      <trkpt lat="60.60246" lon="7.42458">
        <ele>1246.97</ele>
        <time>2019-04-07T11:41:26Z</time>
      </trkpt>
      <trkpt lat="60.60234" lon="7.42474">
        <ele>1245.04</ele>
        <time>2019-04-07T11:41:29Z</time>
      </trkpt>
      <trkpt lat="60.60204" lon="7.42509">
        <ele>1241.68</ele>
        <time>2019-04-07T11:41:36Z</time>
      </trkpt>
      <trkpt lat="60.60199" lon="7.42514">
        <ele>1242.16</ele>
        <time>2019-04-07T11:41:37Z</time>
      </trkpt>
      <trkpt lat="60.60189" lon="7.42526">
        <ele>1245.04</ele>
        <time>2019-04-07T11:41:40Z</time>
      </trkpt>
      <trkpt lat="60.60184" lon="7.4253">
        <ele>1240.24</ele>
        <time>2019-04-07T11:41:41Z</time>
      </trkpt>
      <trkpt lat="60.6018" lon="7.42534">
        <ele>1240.24</ele>
        <time>2019-04-07T11:41:42Z</time>
      </trkpt>
      <trkpt lat="60.60177" lon="7.42535">
        <ele>1243.12</ele>
        <time>2019-04-07T11:41:43Z</time>
      </trkpt>
      <trkpt lat="60.60182" lon="7.42549">
        <ele>1244.56</ele>
        <time>2019-04-07T11:41:49Z</time>
      </trkpt>
      <trkpt lat="60.60194" lon="7.42591">
        <ele>1242.64</ele>
        <time>2019-04-07T11:41:53Z</time>
      </trkpt>
      <trkpt lat="60.60197" lon="7.42603">
        <ele>1242.64</ele>
        <time>2019-04-07T11:41:54Z</time>
      </trkpt>
      <trkpt lat="60.60204" lon="7.4265">
        <ele>1240.72</ele>
        <time>2019-04-07T11:41:58Z</time>
      </trkpt>
      <trkpt lat="60.6021" lon="7.42687">
        <ele>1238.32</ele>
        <time>2019-04-07T11:42:01Z</time>
      </trkpt>
      <trkpt lat="60.60217" lon="7.42752">
        <ele>1234.95</ele>
        <time>2019-04-07T11:42:07Z</time>
      </trkpt>
      <trkpt lat="60.60224" lon="7.42768">
        <ele>1236.39</ele>
        <time>2019-04-07T11:42:11Z</time>
      </trkpt>
      <trkpt lat="60.60228" lon="7.42775">
        <ele>1237.35</ele>
        <time>2019-04-07T11:42:13Z</time>
      </trkpt>
      <trkpt lat="60.6024" lon="7.42801">
        <ele>1239.76</ele>
        <time>2019-04-07T11:42:19Z</time>
      </trkpt>
      <trkpt lat="60.6025" lon="7.42815">
        <ele>1241.2</ele>
        <time>2019-04-07T11:42:24Z</time>
      </trkpt>
      <trkpt lat="60.60256" lon="7.42815">
        <ele>1243.12</ele>
        <time>2019-04-07T11:42:28Z</time>
      </trkpt>
      <trkpt lat="60.60263" lon="7.42814">
        <ele>1245.04</ele>
        <time>2019-04-07T11:42:32Z</time>
      </trkpt>
      <trkpt lat="60.60251" lon="7.42814">
        <ele>1239.28</ele>
        <time>2019-04-07T11:42:36Z</time>
      </trkpt>
      <trkpt lat="60.60245" lon="7.42819">
        <ele>1238.32</ele>
        <time>2019-04-07T11:42:37Z</time>
      </trkpt>
      <trkpt lat="60.60184" lon="7.42876">
        <ele>1238.8</ele>
        <time>2019-04-07T11:42:51Z</time>
      </trkpt>
      <trkpt lat="60.6017" lon="7.42885">
        <ele>1240.72</ele>
        <time>2019-04-07T11:42:55Z</time>
      </trkpt>
      <trkpt lat="60.60134" lon="7.42916">
        <ele>1241.2</ele>
        <time>2019-04-07T11:43:07Z</time>
      </trkpt>
      <trkpt lat="60.60094" lon="7.42963">
        <ele>1238.8</ele>
        <time>2019-04-07T11:43:21Z</time>
      </trkpt>
      <trkpt lat="60.60075" lon="7.42986">
        <ele>1235.43</ele>
        <time>2019-04-07T11:43:26Z</time>
      </trkpt>
      <trkpt lat="60.60071" lon="7.42991">
        <ele>1235.43</ele>
        <time>2019-04-07T11:43:27Z</time>
      </trkpt>
      <trkpt lat="60.60067" lon="7.42997">
        <ele>1234.95</ele>
        <time>2019-04-07T11:43:28Z</time>
      </trkpt>
      <trkpt lat="60.6006" lon="7.43007">
        <ele>1235.91</ele>
        <time>2019-04-07T11:43:30Z</time>
      </trkpt>
      <trkpt lat="60.60044" lon="7.43026">
        <ele>1233.51</ele>
        <time>2019-04-07T11:43:34Z</time>
      </trkpt>
      <trkpt lat="60.6004" lon="7.43031">
        <ele>1233.51</ele>
        <time>2019-04-07T11:43:35Z</time>
      </trkpt>
      <trkpt lat="60.60028" lon="7.43052">
        <ele>1231.11</ele>
        <time>2019-04-07T11:43:39Z</time>
      </trkpt>
      <trkpt lat="60.60019" lon="7.43075">
        <ele>1227.26</ele>
        <time>2019-04-07T11:43:42Z</time>
      </trkpt>
      <trkpt lat="60.5999" lon="7.43116">
        <ele>1226.78</ele>
        <time>2019-04-07T11:43:49Z</time>
      </trkpt>
      <trkpt lat="60.59977" lon="7.43124">
        <ele>1226.78</ele>
        <time>2019-04-07T11:43:52Z</time>
      </trkpt>
      <trkpt lat="60.59958" lon="7.43131">
        <ele>1228.22</ele>
        <time>2019-04-07T11:43:56Z</time>
      </trkpt>
      <trkpt lat="60.59936" lon="7.4313">
        <ele>1228.22</ele>
        <time>2019-04-07T11:44:00Z</time>
      </trkpt>
      <trkpt lat="60.59913" lon="7.43126">
        <ele>1230.62</ele>
        <time>2019-04-07T11:44:04Z</time>
      </trkpt>
      <trkpt lat="60.59901" lon="7.43124">
        <ele>1231.59</ele>
        <time>2019-04-07T11:44:06Z</time>
      </trkpt>
      <trkpt lat="60.5989" lon="7.43122">
        <ele>1235.91</ele>
        <time>2019-04-07T11:44:09Z</time>
      </trkpt>
      <trkpt lat="60.59879" lon="7.43114">
        <ele>1238.8</ele>
        <time>2019-04-07T11:44:14Z</time>
      </trkpt>
      <trkpt lat="60.59879" lon="7.4311">
        <ele>1238.8</ele>
        <time>2019-04-07T11:44:16Z</time>
      </trkpt>
      <trkpt lat="60.59889" lon="7.43138">
        <ele>1238.8</ele>
        <time>2019-04-07T11:44:22Z</time>
      </trkpt>
      <trkpt lat="60.59892" lon="7.43162">
        <ele>1237.35</ele>
        <time>2019-04-07T11:44:24Z</time>
      </trkpt>
      <trkpt lat="60.59898" lon="7.43218">
        <ele>1233.51</ele>
        <time>2019-04-07T11:44:28Z</time>
      </trkpt>
      <trkpt lat="60.59904" lon="7.43296">
        <ele>1228.22</ele>
        <time>2019-04-07T11:44:34Z</time>
      </trkpt>
      <trkpt lat="60.59905" lon="7.43308">
        <ele>1228.22</ele>
        <time>2019-04-07T11:44:35Z</time>
      </trkpt>
      <trkpt lat="60.59923" lon="7.43403">
        <ele>1230.14</ele>
        <time>2019-04-07T11:44:45Z</time>
      </trkpt>
      <trkpt lat="60.59932" lon="7.43441">
        <ele>1232.55</ele>
        <time>2019-04-07T11:44:51Z</time>
      </trkpt>
      <trkpt lat="60.5994" lon="7.43474">
        <ele>1233.99</ele>
        <time>2019-04-07T11:44:56Z</time>
      </trkpt>
      <trkpt lat="60.59948" lon="7.43495">
        <ele>1235.43</ele>
        <time>2019-04-07T11:44:59Z</time>
      </trkpt>
      <trkpt lat="60.59955" lon="7.43519">
        <ele>1236.87</ele>
        <time>2019-04-07T11:45:02Z</time>
      </trkpt>
      <trkpt lat="60.59957" lon="7.43527">
        <ele>1237.83</ele>
        <time>2019-04-07T11:45:03Z</time>
      </trkpt>
      <trkpt lat="60.5997" lon="7.43565">
        <ele>1240.24</ele>
        <time>2019-04-07T11:45:08Z</time>
      </trkpt>
      <trkpt lat="60.59978" lon="7.43589">
        <ele>1241.68</ele>
        <time>2019-04-07T11:45:11Z</time>
      </trkpt>
      <trkpt lat="60.59991" lon="7.43631">
        <ele>1243.6</ele>
        <time>2019-04-07T11:45:16Z</time>
      </trkpt>
      <trkpt lat="60.6" lon="7.43668">
        <ele>1245.04</ele>
        <time>2019-04-07T11:45:20Z</time>
      </trkpt>
      <trkpt lat="60.60007" lon="7.43701">
        <ele>1245.04</ele>
        <time>2019-04-07T11:45:23Z</time>
      </trkpt>
      <trkpt lat="60.60025" lon="7.43839">
        <ele>1245.04</ele>
        <time>2019-04-07T11:45:37Z</time>
      </trkpt>
      <trkpt lat="60.60023" lon="7.43891">
        <ele>1243.6</ele>
        <time>2019-04-07T11:45:44Z</time>
      </trkpt>
      <trkpt lat="60.60024" lon="7.43898">
        <ele>1241.2</ele>
        <time>2019-04-07T11:45:47Z</time>
      </trkpt>
      <trkpt lat="60.6001" lon="7.43899">
        <ele>1240.24</ele>
        <time>2019-04-07T11:45:51Z</time>
      </trkpt>
      <trkpt lat="60.59987" lon="7.43917">
        <ele>1236.39</ele>
        <time>2019-04-07T11:45:55Z</time>
      </trkpt>
      <trkpt lat="60.59966" lon="7.43933">
        <ele>1230.62</ele>
        <time>2019-04-07T11:45:58Z</time>
      </trkpt>
      <trkpt lat="60.59918" lon="7.43968">
        <ele>1227.26</ele>
        <time>2019-04-07T11:46:05Z</time>
      </trkpt>
      <trkpt lat="60.59912" lon="7.43971">
        <ele>1227.26</ele>
        <time>2019-04-07T11:46:06Z</time>
      </trkpt>
      <trkpt lat="60.59882" lon="7.4399">
        <ele>1229.18</ele>
        <time>2019-04-07T11:46:11Z</time>
      </trkpt>
      <trkpt lat="60.59862" lon="7.43998">
        <ele>1227.74</ele>
        <time>2019-04-07T11:46:14Z</time>
      </trkpt>
      <trkpt lat="60.59843" lon="7.44009">
        <ele>1225.34</ele>
        <time>2019-04-07T11:46:17Z</time>
      </trkpt>
      <trkpt lat="60.59837" lon="7.44013">
        <ele>1225.34</ele>
        <time>2019-04-07T11:46:18Z</time>
      </trkpt>
      <trkpt lat="60.59823" lon="7.44017">
        <ele>1226.78</ele>
        <time>2019-04-07T11:46:20Z</time>
      </trkpt>
      <trkpt lat="60.59809" lon="7.44021">
        <ele>1224.86</ele>
        <time>2019-04-07T11:46:22Z</time>
      </trkpt>
      <trkpt lat="60.59799" lon="7.44021">
        <ele>1226.3</ele>
        <time>2019-04-07T11:46:24Z</time>
      </trkpt>
      <trkpt lat="60.59788" lon="7.44015">
        <ele>1227.74</ele>
        <time>2019-04-07T11:46:27Z</time>
      </trkpt>
      <trkpt lat="60.59784" lon="7.44013">
        <ele>1228.22</ele>
        <time>2019-04-07T11:46:28Z</time>
      </trkpt>
      <trkpt lat="60.5976" lon="7.44013">
        <ele>1232.07</ele>
        <time>2019-04-07T11:46:33Z</time>
      </trkpt>
      <trkpt lat="60.59739" lon="7.44019">
        <ele>1231.59</ele>
        <time>2019-04-07T11:46:41Z</time>
      </trkpt>
      <trkpt lat="60.59735" lon="7.44024">
        <ele>1230.14</ele>
        <time>2019-04-07T11:46:42Z</time>
      </trkpt>
      <trkpt lat="60.59732" lon="7.4403">
        <ele>1229.18</ele>
        <time>2019-04-07T11:46:43Z</time>
      </trkpt>
      <trkpt lat="60.59728" lon="7.44036">
        <ele>1229.18</ele>
        <time>2019-04-07T11:46:44Z</time>
      </trkpt>
      <trkpt lat="60.59724" lon="7.44041">
        <ele>1227.74</ele>
        <time>2019-04-07T11:46:45Z</time>
      </trkpt>
      <trkpt lat="60.59719" lon="7.44047">
        <ele>1227.74</ele>
        <time>2019-04-07T11:46:46Z</time>
      </trkpt>
      <trkpt lat="60.59708" lon="7.4406">
        <ele>1226.3</ele>
        <time>2019-04-07T11:46:48Z</time>
      </trkpt>
      <trkpt lat="60.59685" lon="7.44085">
        <ele>1224.38</ele>
        <time>2019-04-07T11:46:52Z</time>
      </trkpt>
      <trkpt lat="60.59673" lon="7.44092">
        <ele>1220.05</ele>
        <time>2019-04-07T11:46:54Z</time>
      </trkpt>
      <trkpt lat="60.59652" lon="7.441">
        <ele>1218.13</ele>
        <time>2019-04-07T11:46:57Z</time>
      </trkpt>
      <trkpt lat="60.59641" lon="7.44103">
        <ele>1222.93</ele>
        <time>2019-04-07T11:46:59Z</time>
      </trkpt>
      <trkpt lat="60.5963" lon="7.44105">
        <ele>1226.78</ele>
        <time>2019-04-07T11:47:01Z</time>
      </trkpt>
      <trkpt lat="60.59625" lon="7.44107">
        <ele>1226.78</ele>
        <time>2019-04-07T11:47:02Z</time>
      </trkpt>
      <trkpt lat="60.59602" lon="7.44115">
        <ele>1228.7</ele>
        <time>2019-04-07T11:47:06Z</time>
      </trkpt>
      <trkpt lat="60.59567" lon="7.44126">
        <ele>1231.59</ele>
        <time>2019-04-07T11:47:13Z</time>
      </trkpt>
      <trkpt lat="60.59553" lon="7.44135">
        <ele>1231.59</ele>
        <time>2019-04-07T11:47:16Z</time>
      </trkpt>
      <trkpt lat="60.59536" lon="7.44146">
        <ele>1228.7</ele>
        <time>2019-04-07T11:47:19Z</time>
      </trkpt>
      <trkpt lat="60.59498" lon="7.44163">
        <ele>1226.3</ele>
        <time>2019-04-07T11:47:25Z</time>
      </trkpt>
      <trkpt lat="60.59444" lon="7.44179">
        <ele>1229.66</ele>
        <time>2019-04-07T11:47:33Z</time>
      </trkpt>
      <trkpt lat="60.59426" lon="7.44182">
        <ele>1233.03</ele>
        <time>2019-04-07T11:47:37Z</time>
      </trkpt>
      <trkpt lat="60.59422" lon="7.44183">
        <ele>1233.03</ele>
        <time>2019-04-07T11:47:38Z</time>
      </trkpt>
      <trkpt lat="60.59396" lon="7.44191">
        <ele>1235.91</ele>
        <time>2019-04-07T11:47:44Z</time>
      </trkpt>
      <trkpt lat="60.5936" lon="7.44209">
        <ele>1236.39</ele>
        <time>2019-04-07T11:47:50Z</time>
      </trkpt>
      <trkpt lat="60.59348" lon="7.44217">
        <ele>1233.03</ele>
        <time>2019-04-07T11:47:52Z</time>
      </trkpt>
      <trkpt lat="60.59337" lon="7.44223">
        <ele>1236.39</ele>
        <time>2019-04-07T11:47:54Z</time>
      </trkpt>
      <trkpt lat="60.5933" lon="7.44225">
        <ele>1236.39</ele>
        <time>2019-04-07T11:47:55Z</time>
      </trkpt>
      <trkpt lat="60.59256" lon="7.4426">
        <ele>1237.83</ele>
        <time>2019-04-07T11:48:08Z</time>
      </trkpt>
      <trkpt lat="60.59238" lon="7.44266">
        <ele>1239.76</ele>
        <time>2019-04-07T11:48:12Z</time>
      </trkpt>
      <trkpt lat="60.59221" lon="7.44274">
        <ele>1240.72</ele>
        <time>2019-04-07T11:48:16Z</time>
      </trkpt>
      <trkpt lat="60.59209" lon="7.44279">
        <ele>1241.2</ele>
        <time>2019-04-07T11:48:19Z</time>
      </trkpt>
      <trkpt lat="60.59201" lon="7.44282">
        <ele>1241.68</ele>
        <time>2019-04-07T11:48:21Z</time>
      </trkpt>
      <trkpt lat="60.59184" lon="7.4429">
        <ele>1241.68</ele>
        <time>2019-04-07T11:48:25Z</time>
      </trkpt>
      <trkpt lat="60.59164" lon="7.44299">
        <ele>1242.64</ele>
        <time>2019-04-07T11:48:29Z</time>
      </trkpt>
      <trkpt lat="60.59119" lon="7.44331">
        <ele>1239.76</ele>
        <time>2019-04-07T11:48:38Z</time>
      </trkpt>
      <trkpt lat="60.59106" lon="7.44339">
        <ele>1241.2</ele>
        <time>2019-04-07T11:48:40Z</time>
      </trkpt>
      <trkpt lat="60.59068" lon="7.44355">
        <ele>1243.6</ele>
        <time>2019-04-07T11:48:46Z</time>
      </trkpt>
      <trkpt lat="60.59035" lon="7.44368">
        <ele>1244.56</ele>
        <time>2019-04-07T11:48:52Z</time>
      </trkpt>
      <trkpt lat="60.5902" lon="7.44374">
        <ele>1240.72</ele>
        <time>2019-04-07T11:48:55Z</time>
      </trkpt>
      <trkpt lat="60.5901" lon="7.44366">
        <ele>1244.08</ele>
        <time>2019-04-07T11:48:58Z</time>
      </trkpt>
      <trkpt lat="60.59006" lon="7.44358">
        <ele>1244.08</ele>
        <time>2019-04-07T11:48:59Z</time>
      </trkpt>
      <trkpt lat="60.59004" lon="7.44348">
        <ele>1244.08</ele>
        <time>2019-04-07T11:49:00Z</time>
      </trkpt>
      <trkpt lat="60.59" lon="7.44331">
        <ele>1245.53</ele>
        <time>2019-04-07T11:49:02Z</time>
      </trkpt>
      <trkpt lat="60.58984" lon="7.44305">
        <ele>1246.97</ele>
        <time>2019-04-07T11:49:06Z</time>
      </trkpt>
      <trkpt lat="60.58964" lon="7.44293">
        <ele>1243.6</ele>
        <time>2019-04-07T11:49:09Z</time>
      </trkpt>
      <trkpt lat="60.58956" lon="7.4429">
        <ele>1243.6</ele>
        <time>2019-04-07T11:49:10Z</time>
      </trkpt>
      <trkpt lat="60.58896" lon="7.4428">
        <ele>1239.76</ele>
        <time>2019-04-07T11:49:17Z</time>
      </trkpt>
      <trkpt lat="60.58887" lon="7.4428">
        <ele>1239.76</ele>
        <time>2019-04-07T11:49:18Z</time>
      </trkpt>
      <trkpt lat="60.5886" lon="7.44279">
        <ele>1244.08</ele>
        <time>2019-04-07T11:49:21Z</time>
      </trkpt>
      <trkpt lat="60.58851" lon="7.44277">
        <ele>1244.08</ele>
        <time>2019-04-07T11:49:22Z</time>
      </trkpt>
      <trkpt lat="60.5881" lon="7.44263">
        <ele>1246.97</ele>
        <time>2019-04-07T11:49:27Z</time>
      </trkpt>
      <trkpt lat="60.58802" lon="7.44261">
        <ele>1246.97</ele>
        <time>2019-04-07T11:49:28Z</time>
      </trkpt>
      <trkpt lat="60.58793" lon="7.44259">
        <ele>1246.97</ele>
        <time>2019-04-07T11:49:29Z</time>
      </trkpt>
      <trkpt lat="60.58757" lon="7.44244">
        <ele>1252.25</ele>
        <time>2019-04-07T11:49:34Z</time>
      </trkpt>
      <trkpt lat="60.5874" lon="7.44228">
        <ele>1256.1</ele>
        <time>2019-04-07T11:49:38Z</time>
      </trkpt>
      <trkpt lat="60.58729" lon="7.44215">
        <ele>1258.98</ele>
        <time>2019-04-07T11:49:42Z</time>
      </trkpt>
      <trkpt lat="60.58727" lon="7.44214">
        <ele>1259.46</ele>
        <time>2019-04-07T11:49:43Z</time>
      </trkpt>
      <trkpt lat="60.58723" lon="7.44209">
        <ele>1259.94</ele>
        <time>2019-04-07T11:49:45Z</time>
      </trkpt>
      <trkpt lat="60.58705" lon="7.4419">
        <ele>1262.35</ele>
        <time>2019-04-07T11:49:53Z</time>
      </trkpt>
      <trkpt lat="60.58692" lon="7.44176">
        <ele>1264.75</ele>
        <time>2019-04-07T11:49:57Z</time>
      </trkpt>
      <trkpt lat="60.58675" lon="7.4415">
        <ele>1269.08</ele>
        <time>2019-04-07T11:50:01Z</time>
      </trkpt>
      <trkpt lat="60.58658" lon="7.44136">
        <ele>1271</ele>
        <time>2019-04-07T11:50:04Z</time>
      </trkpt>
      <trkpt lat="60.58645" lon="7.4413">
        <ele>1273.4</ele>
        <time>2019-04-07T11:50:06Z</time>
      </trkpt>
      <trkpt lat="60.58632" lon="7.44123">
        <ele>1275.33</ele>
        <time>2019-04-07T11:50:08Z</time>
      </trkpt>
      <trkpt lat="60.58621" lon="7.44115">
        <ele>1276.77</ele>
        <time>2019-04-07T11:50:10Z</time>
      </trkpt>
      <trkpt lat="60.58599" lon="7.44097">
        <ele>1281.57</ele>
        <time>2019-04-07T11:50:14Z</time>
      </trkpt>
      <trkpt lat="60.58592" lon="7.44088">
        <ele>1283.5</ele>
        <time>2019-04-07T11:50:16Z</time>
      </trkpt>
      <trkpt lat="60.58575" lon="7.44078">
        <ele>1287.82</ele>
        <time>2019-04-07T11:50:20Z</time>
      </trkpt>
      <trkpt lat="60.58572" lon="7.44075">
        <ele>1288.3</ele>
        <time>2019-04-07T11:50:21Z</time>
      </trkpt>
      <trkpt lat="60.58546" lon="7.4406">
        <ele>1293.11</ele>
        <time>2019-04-07T11:50:27Z</time>
      </trkpt>
      <trkpt lat="60.58535" lon="7.44044">
        <ele>1297.92</ele>
        <time>2019-04-07T11:50:30Z</time>
      </trkpt>
      <trkpt lat="60.58529" lon="7.44035">
        <ele>1300.32</ele>
        <time>2019-04-07T11:50:32Z</time>
      </trkpt>
      <trkpt lat="60.58521" lon="7.44022">
        <ele>1304.17</ele>
        <time>2019-04-07T11:50:36Z</time>
      </trkpt>
      <trkpt lat="60.58521" lon="7.44013">
        <ele>1305.61</ele>
        <time>2019-04-07T11:50:39Z</time>
      </trkpt>
      <trkpt lat="60.58526" lon="7.44018">
        <ele>1306.09</ele>
        <time>2019-04-07T11:50:41Z</time>
      </trkpt>
      <trkpt lat="60.58533" lon="7.44036">
        <ele>1306.09</ele>
        <time>2019-04-07T11:50:43Z</time>
      </trkpt>
      <trkpt lat="60.58543" lon="7.4407">
        <ele>1298.4</ele>
        <time>2019-04-07T11:50:46Z</time>
      </trkpt>
      <trkpt lat="60.58552" lon="7.44089">
        <ele>1295.03</ele>
        <time>2019-04-07T11:50:48Z</time>
      </trkpt>
      <trkpt lat="60.58563" lon="7.44103">
        <ele>1291.19</ele>
        <time>2019-04-07T11:50:50Z</time>
      </trkpt>
      <trkpt lat="60.58567" lon="7.44111">
        <ele>1291.19</ele>
        <time>2019-04-07T11:50:51Z</time>
      </trkpt>
      <trkpt lat="60.58579" lon="7.44123">
        <ele>1287.34</ele>
        <time>2019-04-07T11:50:53Z</time>
      </trkpt>
      <trkpt lat="60.58592" lon="7.44133">
        <ele>1283.98</ele>
        <time>2019-04-07T11:50:55Z</time>
      </trkpt>
      <trkpt lat="60.58604" lon="7.44159">
        <ele>1281.09</ele>
        <time>2019-04-07T11:50:58Z</time>
      </trkpt>
      <trkpt lat="60.58608" lon="7.44181">
        <ele>1276.29</ele>
        <time>2019-04-07T11:51:00Z</time>
      </trkpt>
      <trkpt lat="60.58609" lon="7.44201">
        <ele>1274.36</ele>
        <time>2019-04-07T11:51:02Z</time>
      </trkpt>
      <trkpt lat="60.58607" lon="7.44241">
        <ele>1271.96</ele>
        <time>2019-04-07T11:51:07Z</time>
      </trkpt>
      <trkpt lat="60.58607" lon="7.4426">
        <ele>1271.48</ele>
        <time>2019-04-07T11:51:10Z</time>
      </trkpt>
      <trkpt lat="60.58611" lon="7.44268">
        <ele>1268.12</ele>
        <time>2019-04-07T11:51:14Z</time>
      </trkpt>
      <trkpt lat="60.58603" lon="7.44256">
        <ele>1270.04</ele>
        <time>2019-04-07T11:51:18Z</time>
      </trkpt>
      <trkpt lat="60.58596" lon="7.44254">
        <ele>1271</ele>
        <time>2019-04-07T11:51:20Z</time>
      </trkpt>
      <trkpt lat="60.58575" lon="7.44226">
        <ele>1274.85</ele>
        <time>2019-04-07T11:51:25Z</time>
      </trkpt>
      <trkpt lat="60.5856" lon="7.44222">
        <ele>1279.17</ele>
        <time>2019-04-07T11:51:28Z</time>
      </trkpt>
      <trkpt lat="60.58551" lon="7.44209">
        <ele>1281.57</ele>
        <time>2019-04-07T11:51:31Z</time>
      </trkpt>
      <trkpt lat="60.5854" lon="7.44198">
        <ele>1286.38</ele>
        <time>2019-04-07T11:51:34Z</time>
      </trkpt>
      <trkpt lat="60.5853" lon="7.44195">
        <ele>1288.78</ele>
        <time>2019-04-07T11:51:37Z</time>
      </trkpt>
      <trkpt lat="60.58519" lon="7.44177">
        <ele>1291.19</ele>
        <time>2019-04-07T11:51:40Z</time>
      </trkpt>
      <trkpt lat="60.58507" lon="7.44163">
        <ele>1295.51</ele>
        <time>2019-04-07T11:51:44Z</time>
      </trkpt>
      <trkpt lat="60.58505" lon="7.44158">
        <ele>1295.51</ele>
        <time>2019-04-07T11:51:45Z</time>
      </trkpt>
      <trkpt lat="60.58502" lon="7.4415">
        <ele>1297.44</ele>
        <time>2019-04-07T11:51:47Z</time>
      </trkpt>
      <trkpt lat="60.58497" lon="7.44136">
        <ele>1300.32</ele>
        <time>2019-04-07T11:51:51Z</time>
      </trkpt>
      <trkpt lat="60.5851" lon="7.44149">
        <ele>1298.88</ele>
        <time>2019-04-07T11:51:57Z</time>
      </trkpt>
      <trkpt lat="60.58511" lon="7.44158">
        <ele>1297.92</ele>
        <time>2019-04-07T11:51:58Z</time>
      </trkpt>
      <trkpt lat="60.58515" lon="7.44207">
        <ele>1293.59</ele>
        <time>2019-04-07T11:52:03Z</time>
      </trkpt>
      <trkpt lat="60.58521" lon="7.44241">
        <ele>1291.19</ele>
        <time>2019-04-07T11:52:07Z</time>
      </trkpt>
      <trkpt lat="60.58526" lon="7.44268">
        <ele>1289.27</ele>
        <time>2019-04-07T11:52:10Z</time>
      </trkpt>
      <trkpt lat="60.58531" lon="7.44316">
        <ele>1286.38</ele>
        <time>2019-04-07T11:52:16Z</time>
      </trkpt>
      <trkpt lat="60.58549" lon="7.4435">
        <ele>1282.06</ele>
        <time>2019-04-07T11:52:21Z</time>
      </trkpt>
      <trkpt lat="60.58561" lon="7.44359">
        <ele>1279.17</ele>
        <time>2019-04-07T11:52:23Z</time>
      </trkpt>
      <trkpt lat="60.58572" lon="7.44376">
        <ele>1275.81</ele>
        <time>2019-04-07T11:52:25Z</time>
      </trkpt>
      <trkpt lat="60.58581" lon="7.44397">
        <ele>1273.4</ele>
        <time>2019-04-07T11:52:27Z</time>
      </trkpt>
      <trkpt lat="60.58588" lon="7.44422">
        <ele>1269.56</ele>
        <time>2019-04-07T11:52:29Z</time>
      </trkpt>
      <trkpt lat="60.58591" lon="7.44435">
        <ele>1268.6</ele>
        <time>2019-04-07T11:52:30Z</time>
      </trkpt>
      <trkpt lat="60.58602" lon="7.44496">
        <ele>1261.87</ele>
        <time>2019-04-07T11:52:35Z</time>
      </trkpt>
      <trkpt lat="60.58615" lon="7.44539">
        <ele>1257.54</ele>
        <time>2019-04-07T11:52:40Z</time>
      </trkpt>
      <trkpt lat="60.58619" lon="7.44548">
        <ele>1257.06</ele>
        <time>2019-04-07T11:52:41Z</time>
      </trkpt>
      <trkpt lat="60.58626" lon="7.44565">
        <ele>1252.74</ele>
        <time>2019-04-07T11:52:46Z</time>
      </trkpt>
      <trkpt lat="60.58624" lon="7.44562">
        <ele>1252.74</ele>
        <time>2019-04-07T11:52:47Z</time>
      </trkpt>
      <trkpt lat="60.58619" lon="7.44559">
        <ele>1254.18</ele>
        <time>2019-04-07T11:52:50Z</time>
      </trkpt>
      <trkpt lat="60.58619" lon="7.44557">
        <ele>1255.14</ele>
        <time>2019-04-07T11:52:52Z</time>
      </trkpt>
      <trkpt lat="60.586" lon="7.4453">
        <ele>1258.02</ele>
        <time>2019-04-07T11:53:01Z</time>
      </trkpt>
      <trkpt lat="60.58588" lon="7.44519">
        <ele>1260.91</ele>
        <time>2019-04-07T11:53:06Z</time>
      </trkpt>
      <trkpt lat="60.58581" lon="7.4451">
        <ele>1262.83</ele>
        <time>2019-04-07T11:53:09Z</time>
      </trkpt>
      <trkpt lat="60.58574" lon="7.44513">
        <ele>1265.71</ele>
        <time>2019-04-07T11:53:12Z</time>
      </trkpt>
      <trkpt lat="60.58564" lon="7.44504">
        <ele>1268.6</ele>
        <time>2019-04-07T11:53:16Z</time>
      </trkpt>
      <trkpt lat="60.58551" lon="7.445">
        <ele>1272.92</ele>
        <time>2019-04-07T11:53:22Z</time>
      </trkpt>
      <trkpt lat="60.58547" lon="7.44492">
        <ele>1274.85</ele>
        <time>2019-04-07T11:53:24Z</time>
      </trkpt>
      <trkpt lat="60.58539" lon="7.44494">
        <ele>1278.21</ele>
        <time>2019-04-07T11:53:27Z</time>
      </trkpt>
      <trkpt lat="60.58537" lon="7.44495">
        <ele>1278.21</ele>
        <time>2019-04-07T11:53:28Z</time>
      </trkpt>
      <trkpt lat="60.58524" lon="7.44489">
        <ele>1282.54</ele>
        <time>2019-04-07T11:53:34Z</time>
      </trkpt>
      <trkpt lat="60.58523" lon="7.44489">
        <ele>1282.54</ele>
        <time>2019-04-07T11:53:35Z</time>
      </trkpt>
      <trkpt lat="60.58522" lon="7.44488">
        <ele>1283.02</ele>
        <time>2019-04-07T11:53:37Z</time>
      </trkpt>
      <trkpt lat="60.58516" lon="7.44481">
        <ele>1283.98</ele>
        <time>2019-04-07T11:53:40Z</time>
      </trkpt>
      <trkpt lat="60.58513" lon="7.44479">
        <ele>1285.42</ele>
        <time>2019-04-07T11:53:42Z</time>
      </trkpt>
      <trkpt lat="60.58507" lon="7.44477">
        <ele>1287.34</ele>
        <time>2019-04-07T11:53:45Z</time>
      </trkpt>
      <trkpt lat="60.58503" lon="7.44472">
        <ele>1287.82</ele>
        <time>2019-04-07T11:53:49Z</time>
      </trkpt>
      <trkpt lat="60.58499" lon="7.44467">
        <ele>1289.75</ele>
        <time>2019-04-07T11:53:53Z</time>
      </trkpt>
      <trkpt lat="60.58496" lon="7.44463">
        <ele>1290.71</ele>
        <time>2019-04-07T11:53:57Z</time>
      </trkpt>
      <trkpt lat="60.58493" lon="7.44458">
        <ele>1291.19</ele>
        <time>2019-04-07T11:54:06Z</time>
      </trkpt>
      <trkpt lat="60.58492" lon="7.44454">
        <ele>1291.19</ele>
        <time>2019-04-07T11:54:10Z</time>
      </trkpt>
      <trkpt lat="60.58489" lon="7.44444">
        <ele>1292.63</ele>
        <time>2019-04-07T11:54:16Z</time>
      </trkpt>
      <trkpt lat="60.58488" lon="7.4444">
        <ele>1293.11</ele>
        <time>2019-04-07T11:54:20Z</time>
      </trkpt>
      <trkpt lat="60.58484" lon="7.44435">
        <ele>1294.55</ele>
        <time>2019-04-07T11:54:24Z</time>
      </trkpt>
      <trkpt lat="60.5848" lon="7.44425">
        <ele>1295.51</ele>
        <time>2019-04-07T11:54:30Z</time>
      </trkpt>
      <trkpt lat="60.58474" lon="7.44398">
        <ele>1296.96</ele>
        <time>2019-04-07T11:54:39Z</time>
      </trkpt>
      <trkpt lat="60.58474" lon="7.44398">
        <ele>1296.96</ele>
        <time>2019-04-07T11:54:40Z</time>
      </trkpt>
      <trkpt lat="60.58474" lon="7.44357">
        <ele>1297.44</ele>
        <time>2019-04-07T11:54:47Z</time>
      </trkpt>
      <trkpt lat="60.58474" lon="7.44348">
        <ele>1297.44</ele>
        <time>2019-04-07T11:54:59Z</time>
      </trkpt>
      <trkpt lat="60.58475" lon="7.44339">
        <ele>1297.44</ele>
        <time>2019-04-07T11:55:03Z</time>
      </trkpt>
      <trkpt lat="60.58486" lon="7.4434">
        <ele>1293.11</ele>
        <time>2019-04-07T11:55:07Z</time>
      </trkpt>
      <trkpt lat="60.58498" lon="7.44369">
        <ele>1291.19</ele>
        <time>2019-04-07T11:55:11Z</time>
      </trkpt>
      <trkpt lat="60.58503" lon="7.44387">
        <ele>1290.23</ele>
        <time>2019-04-07T11:55:13Z</time>
      </trkpt>
      <trkpt lat="60.5851" lon="7.44414">
        <ele>1288.3</ele>
        <time>2019-04-07T11:55:16Z</time>
      </trkpt>
      <trkpt lat="60.58512" lon="7.44423">
        <ele>1287.34</ele>
        <time>2019-04-07T11:55:17Z</time>
      </trkpt>
      <trkpt lat="60.58515" lon="7.4444">
        <ele>1286.38</ele>
        <time>2019-04-07T11:55:19Z</time>
      </trkpt>
      <trkpt lat="60.58517" lon="7.44449">
        <ele>1285.42</ele>
        <time>2019-04-07T11:55:20Z</time>
      </trkpt>
      <trkpt lat="60.58525" lon="7.44484">
        <ele>1283.98</ele>
        <time>2019-04-07T11:55:24Z</time>
      </trkpt>
      <trkpt lat="60.58531" lon="7.445">
        <ele>1283.02</ele>
        <time>2019-04-07T11:55:26Z</time>
      </trkpt>
      <trkpt lat="60.58539" lon="7.44529">
        <ele>1281.09</ele>
        <time>2019-04-07T11:55:29Z</time>
      </trkpt>
      <trkpt lat="60.58548" lon="7.44559">
        <ele>1278.21</ele>
        <time>2019-04-07T11:55:32Z</time>
      </trkpt>
      <trkpt lat="60.58556" lon="7.44592">
        <ele>1274.36</ele>
        <time>2019-04-07T11:55:35Z</time>
      </trkpt>
      <trkpt lat="60.58564" lon="7.44623">
        <ele>1270.52</ele>
        <time>2019-04-07T11:55:38Z</time>
      </trkpt>
      <trkpt lat="60.58567" lon="7.44632">
        <ele>1270.52</ele>
        <time>2019-04-07T11:55:39Z</time>
      </trkpt>
      <trkpt lat="60.58576" lon="7.4466">
        <ele>1267.64</ele>
        <time>2019-04-07T11:55:42Z</time>
      </trkpt>
      <trkpt lat="60.58584" lon="7.44678">
        <ele>1265.71</ele>
        <time>2019-04-07T11:55:44Z</time>
      </trkpt>
      <trkpt lat="60.58588" lon="7.44687">
        <ele>1265.71</ele>
        <time>2019-04-07T11:55:45Z</time>
      </trkpt>
      <trkpt lat="60.58599" lon="7.44719">
        <ele>1263.79</ele>
        <time>2019-04-07T11:55:49Z</time>
      </trkpt>
      <trkpt lat="60.58605" lon="7.44733">
        <ele>1262.83</ele>
        <time>2019-04-07T11:55:51Z</time>
      </trkpt>
      <trkpt lat="60.58627" lon="7.44785">
        <ele>1259.94</ele>
        <time>2019-04-07T11:55:57Z</time>
      </trkpt>
      <trkpt lat="60.5865" lon="7.44825">
        <ele>1258.5</ele>
        <time>2019-04-07T11:56:07Z</time>
      </trkpt>
      <trkpt lat="60.58652" lon="7.44831">
        <ele>1258.5</ele>
        <time>2019-04-07T11:56:08Z</time>
      </trkpt>
      <trkpt lat="60.58655" lon="7.44846">
        <ele>1258.02</ele>
        <time>2019-04-07T11:56:10Z</time>
      </trkpt>
      <trkpt lat="60.58667" lon="7.44897">
        <ele>1254.18</ele>
        <time>2019-04-07T11:56:15Z</time>
      </trkpt>
      <trkpt lat="60.58676" lon="7.44943">
        <ele>1251.29</ele>
        <time>2019-04-07T11:56:19Z</time>
      </trkpt>
      <trkpt lat="60.58682" lon="7.44966">
        <ele>1248.89</ele>
        <time>2019-04-07T11:56:21Z</time>
      </trkpt>
      <trkpt lat="60.58691" lon="7.45001">
        <ele>1247.45</ele>
        <time>2019-04-07T11:56:24Z</time>
      </trkpt>
      <trkpt lat="60.58698" lon="7.45034">
        <ele>1246.01</ele>
        <time>2019-04-07T11:56:27Z</time>
      </trkpt>
      <trkpt lat="60.58705" lon="7.45057">
        <ele>1244.08</ele>
        <time>2019-04-07T11:56:29Z</time>
      </trkpt>
      <trkpt lat="60.58709" lon="7.4507">
        <ele>1242.64</ele>
        <time>2019-04-07T11:56:30Z</time>
      </trkpt>
      <trkpt lat="60.58719" lon="7.45111">
        <ele>1236.87</ele>
        <time>2019-04-07T11:56:33Z</time>
      </trkpt>
      <trkpt lat="60.58721" lon="7.45123">
        <ele>1233.99</ele>
        <time>2019-04-07T11:56:34Z</time>
      </trkpt>
      <trkpt lat="60.58727" lon="7.45161">
        <ele>1229.66</ele>
        <time>2019-04-07T11:56:37Z</time>
      </trkpt>
      <trkpt lat="60.58739" lon="7.45198">
        <ele>1222.93</ele>
        <time>2019-04-07T11:56:40Z</time>
      </trkpt>
      <trkpt lat="60.58745" lon="7.45212">
        <ele>1221.01</ele>
        <time>2019-04-07T11:56:41Z</time>
      </trkpt>
      <trkpt lat="60.5877" lon="7.45263">
        <ele>1216.21</ele>
        <time>2019-04-07T11:56:45Z</time>
      </trkpt>
      <trkpt lat="60.58776" lon="7.45275">
        <ele>1216.21</ele>
        <time>2019-04-07T11:56:46Z</time>
      </trkpt>
      <trkpt lat="60.58808" lon="7.45341">
        <ele>1215.24</ele>
        <time>2019-04-07T11:56:53Z</time>
      </trkpt>
      <trkpt lat="60.58828" lon="7.45386">
        <ele>1214.76</ele>
        <time>2019-04-07T11:56:59Z</time>
      </trkpt>
      <trkpt lat="60.58845" lon="7.45416">
        <ele>1215.24</ele>
        <time>2019-04-07T11:57:03Z</time>
      </trkpt>
      <trkpt lat="60.5891" lon="7.45549">
        <ele>1213.32</ele>
        <time>2019-04-07T11:57:17Z</time>
      </trkpt>
      <trkpt lat="60.58961" lon="7.45647">
        <ele>1213.32</ele>
        <time>2019-04-07T11:57:27Z</time>
      </trkpt>
      <trkpt lat="60.59017" lon="7.45785">
        <ele>1213.32</ele>
        <time>2019-04-07T11:57:41Z</time>
      </trkpt>
      <trkpt lat="60.59052" lon="7.45867">
        <ele>1212.84</ele>
        <time>2019-04-07T11:57:50Z</time>
      </trkpt>
      <trkpt lat="60.59101" lon="7.46009">
        <ele>1212.84</ele>
        <time>2019-04-07T11:58:04Z</time>
      </trkpt>
      <trkpt lat="60.5911" lon="7.46037">
        <ele>1212.84</ele>
        <time>2019-04-07T11:58:07Z</time>
      </trkpt>
      <trkpt lat="60.5917" lon="7.46182">
        <ele>1213.8</ele>
        <time>2019-04-07T11:58:21Z</time>
      </trkpt>
      <trkpt lat="60.59178" lon="7.46203">
        <ele>1213.8</ele>
        <time>2019-04-07T11:58:23Z</time>
      </trkpt>
      <trkpt lat="60.59192" lon="7.46232">
        <ele>1213.8</ele>
        <time>2019-04-07T11:58:27Z</time>
      </trkpt>
      <trkpt lat="60.59199" lon="7.46243">
        <ele>1212.36</ele>
        <time>2019-04-07T11:58:29Z</time>
      </trkpt>
      <trkpt lat="60.59221" lon="7.46284">
        <ele>1214.76</ele>
        <time>2019-04-07T11:58:34Z</time>
      </trkpt>
      <trkpt lat="60.59247" lon="7.4633">
        <ele>1213.8</ele>
        <time>2019-04-07T11:58:39Z</time>
      </trkpt>
      <trkpt lat="60.59272" lon="7.4638">
        <ele>1214.76</ele>
        <time>2019-04-07T11:58:44Z</time>
      </trkpt>
      <trkpt lat="60.59281" lon="7.46408">
        <ele>1212.36</ele>
        <time>2019-04-07T11:58:49Z</time>
      </trkpt>
      <trkpt lat="60.59282" lon="7.46404">
        <ele>1211.88</ele>
        <time>2019-04-07T11:58:53Z</time>
      </trkpt>
      <trkpt lat="60.59263" lon="7.46395">
        <ele>1208.51</ele>
        <time>2019-04-07T11:58:58Z</time>
      </trkpt>
      <trkpt lat="60.59257" lon="7.46396">
        <ele>1207.55</ele>
        <time>2019-04-07T11:58:59Z</time>
      </trkpt>
      <trkpt lat="60.59231" lon="7.46407">
        <ele>1207.07</ele>
        <time>2019-04-07T11:59:03Z</time>
      </trkpt>
      <trkpt lat="60.59182" lon="7.46443">
        <ele>1211.4</ele>
        <time>2019-04-07T11:59:11Z</time>
      </trkpt>
      <trkpt lat="60.59175" lon="7.46447">
        <ele>1211.4</ele>
        <time>2019-04-07T11:59:12Z</time>
      </trkpt>
      <trkpt lat="60.59153" lon="7.46459">
        <ele>1213.32</ele>
        <time>2019-04-07T11:59:15Z</time>
      </trkpt>
      <trkpt lat="60.59064" lon="7.46511">
        <ele>1213.32</ele>
        <time>2019-04-07T11:59:26Z</time>
      </trkpt>
      <trkpt lat="60.59034" lon="7.46528">
        <ele>1209.96</ele>
        <time>2019-04-07T11:59:30Z</time>
      </trkpt>
      <trkpt lat="60.58944" lon="7.4659">
        <ele>1209</ele>
        <time>2019-04-07T11:59:43Z</time>
      </trkpt>
      <trkpt lat="60.58918" lon="7.46613">
        <ele>1211.88</ele>
        <time>2019-04-07T11:59:47Z</time>
      </trkpt>
      <trkpt lat="60.58879" lon="7.46635">
        <ele>1209</ele>
        <time>2019-04-07T11:59:52Z</time>
      </trkpt>
      <trkpt lat="60.58872" lon="7.4664">
        <ele>1207.07</ele>
        <time>2019-04-07T11:59:53Z</time>
      </trkpt>
      <trkpt lat="60.58859" lon="7.46653">
        <ele>1210.44</ele>
        <time>2019-04-07T11:59:55Z</time>
      </trkpt>
      <trkpt lat="60.58853" lon="7.46658">
        <ele>1210.44</ele>
        <time>2019-04-07T11:59:56Z</time>
      </trkpt>
      <trkpt lat="60.58848" lon="7.46663">
        <ele>1209</ele>
        <time>2019-04-07T11:59:57Z</time>
      </trkpt>
      <trkpt lat="60.58842" lon="7.46657">
        <ele>1211.88</ele>
        <time>2019-04-07T12:00:00Z</time>
      </trkpt>
      <trkpt lat="60.58855" lon="7.46662">
        <ele>1213.32</ele>
        <time>2019-04-07T12:00:04Z</time>
      </trkpt>
      <trkpt lat="60.58881" lon="7.46696">
        <ele>1214.28</ele>
        <time>2019-04-07T12:00:09Z</time>
      </trkpt>
      <trkpt lat="60.58902" lon="7.46731">
        <ele>1214.76</ele>
        <time>2019-04-07T12:00:13Z</time>
      </trkpt>
      <trkpt lat="60.58921" lon="7.46783">
        <ele>1213.32</ele>
        <time>2019-04-07T12:00:18Z</time>
      </trkpt>
      <trkpt lat="60.58933" lon="7.46812">
        <ele>1213.32</ele>
        <time>2019-04-07T12:00:21Z</time>
      </trkpt>
      <trkpt lat="60.59" lon="7.4693">
        <ele>1213.32</ele>
        <time>2019-04-07T12:00:34Z</time>
      </trkpt>
      <trkpt lat="60.59036" lon="7.46993">
        <ele>1213.32</ele>
        <time>2019-04-07T12:00:41Z</time>
      </trkpt>
      <trkpt lat="60.59079" lon="7.47098">
        <ele>1214.28</ele>
        <time>2019-04-07T12:00:51Z</time>
      </trkpt>
      <trkpt lat="60.59119" lon="7.47248">
        <ele>1212.84</ele>
        <time>2019-04-07T12:01:05Z</time>
      </trkpt>
      <trkpt lat="60.59133" lon="7.47299">
        <ele>1212.36</ele>
        <time>2019-04-07T12:01:12Z</time>
      </trkpt>
      <trkpt lat="60.59136" lon="7.47297">
        <ele>1211.88</ele>
        <time>2019-04-07T12:01:16Z</time>
      </trkpt>
      <trkpt lat="60.59122" lon="7.47292">
        <ele>1209.96</ele>
        <time>2019-04-07T12:01:20Z</time>
      </trkpt>
      <trkpt lat="60.59115" lon="7.47294">
        <ele>1209.96</ele>
        <time>2019-04-07T12:01:21Z</time>
      </trkpt>
      <trkpt lat="60.59102" lon="7.473">
        <ele>1211.88</ele>
        <time>2019-04-07T12:01:23Z</time>
      </trkpt>
      <trkpt lat="60.59096" lon="7.47305">
        <ele>1212.36</ele>
        <time>2019-04-07T12:01:24Z</time>
      </trkpt>
      <trkpt lat="60.59068" lon="7.47338">
        <ele>1212.36</ele>
        <time>2019-04-07T12:01:29Z</time>
      </trkpt>
      <trkpt lat="60.59031" lon="7.47368">
        <ele>1212.84</ele>
        <time>2019-04-07T12:01:35Z</time>
      </trkpt>
      <trkpt lat="60.59013" lon="7.47386">
        <ele>1212.84</ele>
        <time>2019-04-07T12:01:38Z</time>
      </trkpt>
      <trkpt lat="60.59002" lon="7.47409">
        <ele>1210.44</ele>
        <time>2019-04-07T12:01:44Z</time>
      </trkpt>
      <trkpt lat="60.59002" lon="7.47407">
        <ele>1210.44</ele>
        <time>2019-04-07T12:01:46Z</time>
      </trkpt>
      <trkpt lat="60.59013" lon="7.47405">
        <ele>1212.36</ele>
        <time>2019-04-07T12:01:50Z</time>
      </trkpt>
      <trkpt lat="60.59027" lon="7.47428">
        <ele>1212.84</ele>
        <time>2019-04-07T12:01:54Z</time>
      </trkpt>
      <trkpt lat="60.59046" lon="7.47488">
        <ele>1213.32</ele>
        <time>2019-04-07T12:02:01Z</time>
      </trkpt>
      <trkpt lat="60.59102" lon="7.47629">
        <ele>1213.8</ele>
        <time>2019-04-07T12:02:16Z</time>
      </trkpt>
      <trkpt lat="60.5911" lon="7.47645">
        <ele>1213.8</ele>
        <time>2019-04-07T12:02:18Z</time>
      </trkpt>
      <trkpt lat="60.59142" lon="7.47694">
        <ele>1213.8</ele>
        <time>2019-04-07T12:02:24Z</time>
      </trkpt>
      <trkpt lat="60.59187" lon="7.47808">
        <ele>1213.8</ele>
        <time>2019-04-07T12:02:36Z</time>
      </trkpt>
      <trkpt lat="60.592" lon="7.4786">
        <ele>1213.8</ele>
        <time>2019-04-07T12:02:42Z</time>
      </trkpt>
      <trkpt lat="60.59255" lon="7.48">
        <ele>1213.8</ele>
        <time>2019-04-07T12:02:57Z</time>
      </trkpt>
      <trkpt lat="60.59306" lon="7.48181">
        <ele>1212.84</ele>
        <time>2019-04-07T12:03:14Z</time>
      </trkpt>
      <trkpt lat="60.59331" lon="7.48266">
        <ele>1212.84</ele>
        <time>2019-04-07T12:03:22Z</time>
      </trkpt>
      <trkpt lat="60.59352" lon="7.48354">
        <ele>1212.84</ele>
        <time>2019-04-07T12:03:30Z</time>
      </trkpt>
      <trkpt lat="60.59357" lon="7.48387">
        <ele>1212.36</ele>
        <time>2019-04-07T12:03:33Z</time>
      </trkpt>
      <trkpt lat="60.59369" lon="7.48434">
        <ele>1212.36</ele>
        <time>2019-04-07T12:03:38Z</time>
      </trkpt>
      <trkpt lat="60.59378" lon="7.48462">
        <ele>1211.88</ele>
        <time>2019-04-07T12:03:41Z</time>
      </trkpt>
      <trkpt lat="60.594" lon="7.48559">
        <ele>1211.88</ele>
        <time>2019-04-07T12:03:50Z</time>
      </trkpt>
      <trkpt lat="60.5943" lon="7.48692">
        <ele>1211.88</ele>
        <time>2019-04-07T12:04:03Z</time>
      </trkpt>
      <trkpt lat="60.59442" lon="7.48771">
        <ele>1211.88</ele>
        <time>2019-04-07T12:04:11Z</time>
      </trkpt>
      <trkpt lat="60.59445" lon="7.48767">
        <ele>1210.44</ele>
        <time>2019-04-07T12:04:14Z</time>
      </trkpt>
      <trkpt lat="60.59412" lon="7.48756">
        <ele>1210.92</ele>
        <time>2019-04-07T12:04:20Z</time>
      </trkpt>
      <trkpt lat="60.59293" lon="7.48761">
        <ele>1213.8</ele>
        <time>2019-04-07T12:04:37Z</time>
      </trkpt>
      <trkpt lat="60.59239" lon="7.48764">
        <ele>1209.48</ele>
        <time>2019-04-07T12:04:45Z</time>
      </trkpt>
      <trkpt lat="60.59211" lon="7.48773">
        <ele>1210.92</ele>
        <time>2019-04-07T12:04:49Z</time>
      </trkpt>
      <trkpt lat="60.59122" lon="7.48799">
        <ele>1209</ele>
        <time>2019-04-07T12:05:01Z</time>
      </trkpt>
      <trkpt lat="60.59092" lon="7.48808">
        <ele>1210.44</ele>
        <time>2019-04-07T12:05:05Z</time>
      </trkpt>
      <trkpt lat="60.58999" lon="7.4885">
        <ele>1212.36</ele>
        <time>2019-04-07T12:05:19Z</time>
      </trkpt>
      <trkpt lat="60.58978" lon="7.4886">
        <ele>1212.84</ele>
        <time>2019-04-07T12:05:22Z</time>
      </trkpt>
      <trkpt lat="60.58968" lon="7.48857">
        <ele>1211.88</ele>
        <time>2019-04-07T12:05:28Z</time>
      </trkpt>
      <trkpt lat="60.58972" lon="7.48861">
        <ele>1211.88</ele>
        <time>2019-04-07T12:05:31Z</time>
      </trkpt>
      <trkpt lat="60.58975" lon="7.48865">
        <ele>1211.88</ele>
        <time>2019-04-07T12:05:35Z</time>
      </trkpt>
      <trkpt lat="60.58987" lon="7.48868">
        <ele>1211.88</ele>
        <time>2019-04-07T12:05:40Z</time>
      </trkpt>
      <trkpt lat="60.59004" lon="7.48887">
        <ele>1211.88</ele>
        <time>2019-04-07T12:05:44Z</time>
      </trkpt>
      <trkpt lat="60.59014" lon="7.48914">
        <ele>1213.32</ele>
        <time>2019-04-07T12:05:47Z</time>
      </trkpt>
      <trkpt lat="60.59066" lon="7.49045">
        <ele>1212.84</ele>
        <time>2019-04-07T12:06:01Z</time>
      </trkpt>
      <trkpt lat="60.5909" lon="7.49104">
        <ele>1213.32</ele>
        <time>2019-04-07T12:06:06Z</time>
      </trkpt>
      <trkpt lat="60.59112" lon="7.4914">
        <ele>1213.32</ele>
        <time>2019-04-07T12:06:10Z</time>
      </trkpt>
      <trkpt lat="60.59173" lon="7.49255">
        <ele>1213.8</ele>
        <time>2019-04-07T12:06:22Z</time>
      </trkpt>
      <trkpt lat="60.5919" lon="7.49292">
        <ele>1213.8</ele>
        <time>2019-04-07T12:06:26Z</time>
      </trkpt>
      <trkpt lat="60.59215" lon="7.49371">
        <ele>1214.76</ele>
        <time>2019-04-07T12:06:34Z</time>
      </trkpt>
      <trkpt lat="60.59226" lon="7.4941">
        <ele>1214.76</ele>
        <time>2019-04-07T12:06:39Z</time>
      </trkpt>
      <trkpt lat="60.5923" lon="7.49434">
        <ele>1215.24</ele>
        <time>2019-04-07T12:06:42Z</time>
      </trkpt>
      <trkpt lat="60.59263" lon="7.49553">
        <ele>1213.8</ele>
        <time>2019-04-07T12:06:53Z</time>
      </trkpt>
      <trkpt lat="60.59306" lon="7.49723">
        <ele>1212.36</ele>
        <time>2019-04-07T12:07:07Z</time>
      </trkpt>
      <trkpt lat="60.59316" lon="7.49767">
        <ele>1212.36</ele>
        <time>2019-04-07T12:07:11Z</time>
      </trkpt>
      <trkpt lat="60.59325" lon="7.49818">
        <ele>1212.36</ele>
        <time>2019-04-07T12:07:16Z</time>
      </trkpt>
      <trkpt lat="60.59331" lon="7.49849">
        <ele>1212.36</ele>
        <time>2019-04-07T12:07:19Z</time>
      </trkpt>
      <trkpt lat="60.59362" lon="7.49999">
        <ele>1211.88</ele>
        <time>2019-04-07T12:07:32Z</time>
      </trkpt>
      <trkpt lat="60.59401" lon="7.50163">
        <ele>1211.88</ele>
        <time>2019-04-07T12:07:45Z</time>
      </trkpt>
      <trkpt lat="60.59454" lon="7.50349">
        <ele>1211.88</ele>
        <time>2019-04-07T12:07:59Z</time>
      </trkpt>
      <trkpt lat="60.59464" lon="7.50373">
        <ele>1211.88</ele>
        <time>2019-04-07T12:08:01Z</time>
      </trkpt>
      <trkpt lat="60.5951" lon="7.50505">
        <ele>1211.88</ele>
        <time>2019-04-07T12:08:12Z</time>
      </trkpt>
      <trkpt lat="60.59529" lon="7.50557">
        <ele>1211.88</ele>
        <time>2019-04-07T12:08:17Z</time>
      </trkpt>
      <trkpt lat="60.59538" lon="7.50588">
        <ele>1211.88</ele>
        <time>2019-04-07T12:08:20Z</time>
      </trkpt>
      <trkpt lat="60.59544" lon="7.50614">
        <ele>1211.88</ele>
        <time>2019-04-07T12:08:23Z</time>
      </trkpt>
      <trkpt lat="60.59549" lon="7.5063">
        <ele>1211.88</ele>
        <time>2019-04-07T12:08:25Z</time>
      </trkpt>
      <trkpt lat="60.59569" lon="7.50689">
        <ele>1211.88</ele>
        <time>2019-04-07T12:08:32Z</time>
      </trkpt>
      <trkpt lat="60.59578" lon="7.50714">
        <ele>1211.88</ele>
        <time>2019-04-07T12:08:35Z</time>
      </trkpt>
      <trkpt lat="60.59597" lon="7.50757">
        <ele>1211.88</ele>
        <time>2019-04-07T12:08:40Z</time>
      </trkpt>
      <trkpt lat="60.59638" lon="7.50846">
        <ele>1211.88</ele>
        <time>2019-04-07T12:08:49Z</time>
      </trkpt>
      <trkpt lat="60.59652" lon="7.50876">
        <ele>1211.88</ele>
        <time>2019-04-07T12:08:52Z</time>
      </trkpt>
      <trkpt lat="60.59671" lon="7.50916">
        <ele>1211.88</ele>
        <time>2019-04-07T12:08:56Z</time>
      </trkpt>
      <trkpt lat="60.59716" lon="7.51007">
        <ele>1211.88</ele>
        <time>2019-04-07T12:09:06Z</time>
      </trkpt>
      <trkpt lat="60.59724" lon="7.5102">
        <ele>1213.32</ele>
        <time>2019-04-07T12:09:11Z</time>
      </trkpt>
      <trkpt lat="60.59724" lon="7.51007">
        <ele>1211.88</ele>
        <time>2019-04-07T12:09:14Z</time>
      </trkpt>
      <trkpt lat="60.59724" lon="7.50991">
        <ele>1210.44</ele>
        <time>2019-04-07T12:09:24Z</time>
      </trkpt>
      <trkpt lat="60.59724" lon="7.50991">
        <ele>1210.44</ele>
        <time>2019-04-07T12:09:26Z</time>
      </trkpt>
      <trkpt lat="60.5971" lon="7.50968">
        <ele>1210.44</ele>
        <time>2019-04-07T12:09:31Z</time>
      </trkpt>
      <trkpt lat="60.59702" lon="7.50955">
        <ele>1210.44</ele>
        <time>2019-04-07T12:09:33Z</time>
      </trkpt>
      <trkpt lat="60.59645" lon="7.50914">
        <ele>1210.44</ele>
        <time>2019-04-07T12:09:41Z</time>
      </trkpt>
      <trkpt lat="60.59625" lon="7.50871">
        <ele>1211.4</ele>
        <time>2019-04-07T12:09:45Z</time>
      </trkpt>
      <trkpt lat="60.59619" lon="7.50848">
        <ele>1211.4</ele>
        <time>2019-04-07T12:09:47Z</time>
      </trkpt>
      <trkpt lat="60.59562" lon="7.50707">
        <ele>1210.44</ele>
        <time>2019-04-07T12:09:58Z</time>
      </trkpt>
      <trkpt lat="60.59526" lon="7.50569">
        <ele>1209</ele>
        <time>2019-04-07T12:10:07Z</time>
      </trkpt>
      <trkpt lat="60.59503" lon="7.50488">
        <ele>1210.44</ele>
        <time>2019-04-07T12:10:16Z</time>
      </trkpt>
      <trkpt lat="60.59501" lon="7.50482">
        <ele>1210.92</ele>
        <time>2019-04-07T12:10:25Z</time>
      </trkpt>
      <trkpt lat="60.59501" lon="7.50482">
        <ele>1210.92</ele>
        <time>2019-04-07T12:10:47Z</time>
      </trkpt>
      <trkpt lat="60.59501" lon="7.50482">
        <ele>1210.92</ele>
        <time>2019-04-07T12:11:09Z</time>
      </trkpt>
      <trkpt lat="60.59502" lon="7.50477">
        <ele>1210.92</ele>
        <time>2019-04-07T12:11:13Z</time>
      </trkpt>
      <trkpt lat="60.59503" lon="7.5047">
        <ele>1210.92</ele>
        <time>2019-04-07T12:11:27Z</time>
      </trkpt>
      <trkpt lat="60.59502" lon="7.5047">
        <ele>1210.92</ele>
        <time>2019-04-07T12:11:45Z</time>
      </trkpt>
      <trkpt lat="60.59501" lon="7.50465">
        <ele>1210.92</ele>
        <time>2019-04-07T12:12:03Z</time>
      </trkpt>
      <trkpt lat="60.59531" lon="7.50461">
        <ele>1210.92</ele>
        <time>2019-04-07T12:12:11Z</time>
      </trkpt>
      <trkpt lat="60.59554" lon="7.50475">
        <ele>1211.88</ele>
        <time>2019-04-07T12:12:15Z</time>
      </trkpt>
      <trkpt lat="60.5959" lon="7.50529">
        <ele>1211.88</ele>
        <time>2019-04-07T12:12:22Z</time>
      </trkpt>
      <trkpt lat="60.59606" lon="7.50569">
        <ele>1211.88</ele>
        <time>2019-04-07T12:12:27Z</time>
      </trkpt>
      <trkpt lat="60.59625" lon="7.50609">
        <ele>1211.88</ele>
        <time>2019-04-07T12:12:34Z</time>
      </trkpt>
      <trkpt lat="60.59642" lon="7.50651">
        <ele>1211.88</ele>
        <time>2019-04-07T12:12:41Z</time>
      </trkpt>
      <trkpt lat="60.59648" lon="7.50659">
        <ele>1211.88</ele>
        <time>2019-04-07T12:12:43Z</time>
      </trkpt>
      <trkpt lat="60.59664" lon="7.50687">
        <ele>1212.36</ele>
        <time>2019-04-07T12:12:47Z</time>
      </trkpt>
      <trkpt lat="60.59677" lon="7.50715">
        <ele>1213.32</ele>
        <time>2019-04-07T12:12:53Z</time>
      </trkpt>
      <trkpt lat="60.59689" lon="7.50719">
        <ele>1213.8</ele>
        <time>2019-04-07T12:12:59Z</time>
      </trkpt>
      <trkpt lat="60.59691" lon="7.50719">
        <ele>1214.76</ele>
        <time>2019-04-07T12:13:04Z</time>
      </trkpt>
      <trkpt lat="60.59676" lon="7.50708">
        <ele>1212.84</ele>
        <time>2019-04-07T12:13:09Z</time>
      </trkpt>
      <trkpt lat="60.59663" lon="7.5071">
        <ele>1210.44</ele>
        <time>2019-04-07T12:13:11Z</time>
      </trkpt>
      <trkpt lat="60.59649" lon="7.50717">
        <ele>1209.96</ele>
        <time>2019-04-07T12:13:13Z</time>
      </trkpt>
      <trkpt lat="60.5963" lon="7.50734">
        <ele>1212.36</ele>
        <time>2019-04-07T12:13:16Z</time>
      </trkpt>
      <trkpt lat="60.59597" lon="7.5077">
        <ele>1212.84</ele>
        <time>2019-04-07T12:13:21Z</time>
      </trkpt>
      <trkpt lat="60.59553" lon="7.50824">
        <ele>1212.84</ele>
        <time>2019-04-07T12:13:29Z</time>
      </trkpt>
      <trkpt lat="60.59543" lon="7.50834">
        <ele>1212.84</ele>
        <time>2019-04-07T12:13:31Z</time>
      </trkpt>
      <trkpt lat="60.59515" lon="7.50863">
        <ele>1212.84</ele>
        <time>2019-04-07T12:13:36Z</time>
      </trkpt>
      <trkpt lat="60.595" lon="7.50886">
        <ele>1212.84</ele>
        <time>2019-04-07T12:13:39Z</time>
      </trkpt>
      <trkpt lat="60.59488" lon="7.5091">
        <ele>1212.84</ele>
        <time>2019-04-07T12:13:42Z</time>
      </trkpt>
      <trkpt lat="60.59483" lon="7.50916">
        <ele>1211.4</ele>
        <time>2019-04-07T12:13:48Z</time>
      </trkpt>
      <trkpt lat="60.59486" lon="7.50918">
        <ele>1211.4</ele>
        <time>2019-04-07T12:13:49Z</time>
      </trkpt>
      <trkpt lat="60.59512" lon="7.50915">
        <ele>1211.4</ele>
        <time>2019-04-07T12:13:58Z</time>
      </trkpt>
      <trkpt lat="60.59555" lon="7.50906">
        <ele>1212.84</ele>
        <time>2019-04-07T12:14:04Z</time>
      </trkpt>
      <trkpt lat="60.5958" lon="7.50901">
        <ele>1213.32</ele>
        <time>2019-04-07T12:14:07Z</time>
      </trkpt>
      <trkpt lat="60.59603" lon="7.50898">
        <ele>1213.32</ele>
        <time>2019-04-07T12:14:10Z</time>
      </trkpt>
      <trkpt lat="60.59647" lon="7.50911">
        <ele>1212.36</ele>
        <time>2019-04-07T12:14:16Z</time>
      </trkpt>
      <trkpt lat="60.59679" lon="7.50926">
        <ele>1212.36</ele>
        <time>2019-04-07T12:14:20Z</time>
      </trkpt>
      <trkpt lat="60.59716" lon="7.50935">
        <ele>1211.4</ele>
        <time>2019-04-07T12:14:29Z</time>
      </trkpt>
      <trkpt lat="60.5972" lon="7.50939">
        <ele>1210.92</ele>
        <time>2019-04-07T12:14:41Z</time>
      </trkpt>
      <trkpt lat="60.59727" lon="7.50936">
        <ele>1210.92</ele>
        <time>2019-04-07T12:14:54Z</time>
      </trkpt>
      <trkpt lat="60.59729" lon="7.50935">
        <ele>1210.92</ele>
        <time>2019-04-07T12:15:05Z</time>
      </trkpt>
      <trkpt lat="60.59728" lon="7.50936">
        <ele>1210.92</ele>
        <time>2019-04-07T12:15:07Z</time>
      </trkpt>
      <trkpt lat="60.59735" lon="7.50942">
        <ele>1212.36</ele>
        <time>2019-04-07T12:15:12Z</time>
      </trkpt>
      <trkpt lat="60.59737" lon="7.50948">
        <ele>1212.36</ele>
        <time>2019-04-07T12:15:25Z</time>
      </trkpt>
      <trkpt lat="60.59736" lon="7.50947">
        <ele>1212.36</ele>
        <time>2019-04-07T12:15:44Z</time>
      </trkpt>
      <trkpt lat="60.59737" lon="7.50938">
        <ele>1212.36</ele>
        <time>2019-04-07T12:16:03Z</time>
      </trkpt>
      <trkpt lat="60.59737" lon="7.50934">
        <ele>1212.36</ele>
        <time>2019-04-07T12:16:06Z</time>
      </trkpt>
      <trkpt lat="60.59739" lon="7.50914">
        <ele>1212.36</ele>
        <time>2019-04-07T12:16:23Z</time>
      </trkpt>
      <trkpt lat="60.59739" lon="7.50915">
        <ele>1212.84</ele>
        <time>2019-04-07T12:16:42Z</time>
      </trkpt>
      <trkpt lat="60.59739" lon="7.50916">
        <ele>1212.84</ele>
        <time>2019-04-07T12:16:55Z</time>
      </trkpt>
      <trkpt lat="60.59739" lon="7.50909">
        <ele>1212.36</ele>
        <time>2019-04-07T12:17:10Z</time>
      </trkpt>
      <trkpt lat="60.5974" lon="7.50905">
        <ele>1212.36</ele>
        <time>2019-04-07T12:17:22Z</time>
      </trkpt>
      <trkpt lat="60.59739" lon="7.50904">
        <ele>1212.36</ele>
        <time>2019-04-07T12:17:35Z</time>
      </trkpt>
      <trkpt lat="60.59739" lon="7.50907">
        <ele>1212.36</ele>
        <time>2019-04-07T12:17:47Z</time>
      </trkpt>
      <trkpt lat="60.59739" lon="7.50909">
        <ele>1212.36</ele>
        <time>2019-04-07T12:18:00Z</time>
      </trkpt>
      <trkpt lat="60.59739" lon="7.50909">
        <ele>1212.84</ele>
        <time>2019-04-07T12:18:08Z</time>
      </trkpt>
      <trkpt lat="60.59738" lon="7.50908">
        <ele>1212.84</ele>
        <time>2019-04-07T12:18:18Z</time>
      </trkpt>
      <trkpt lat="60.59737" lon="7.50906">
        <ele>1212.36</ele>
        <time>2019-04-07T12:18:31Z</time>
      </trkpt>
      <trkpt lat="60.59738" lon="7.50895">
        <ele>1212.36</ele>
        <time>2019-04-07T12:18:47Z</time>
      </trkpt>
      <trkpt lat="60.5974" lon="7.50887">
        <ele>1213.32</ele>
        <time>2019-04-07T12:18:59Z</time>
      </trkpt>
      <trkpt lat="60.5974" lon="7.50887">
        <ele>1212.36</ele>
        <time>2019-04-07T12:19:03Z</time>
      </trkpt>
      <trkpt lat="60.59741" lon="7.50946">
        <ele>1207.55</ele>
        <time>2019-04-07T13:45:33Z</time>
      </trkpt>
      <trkpt lat="60.59742" lon="7.50956">
        <ele>1207.55</ele>
        <time>2019-04-07T13:45:47Z</time>
      </trkpt>
      <trkpt lat="60.59742" lon="7.50963">
        <ele>1207.55</ele>
        <time>2019-04-07T13:45:58Z</time>
      </trkpt>
      <trkpt lat="60.5974" lon="7.50965">
        <ele>1207.55</ele>
        <time>2019-04-07T13:46:08Z</time>
      </trkpt>
      <trkpt lat="60.59738" lon="7.5096">
        <ele>1207.55</ele>
        <time>2019-04-07T13:46:13Z</time>
      </trkpt>
      <trkpt lat="60.59738" lon="7.50955">
        <ele>1207.55</ele>
        <time>2019-04-07T13:46:19Z</time>
      </trkpt>
      <trkpt lat="60.59737" lon="7.50948">
        <ele>1207.55</ele>
        <time>2019-04-07T13:46:30Z</time>
      </trkpt>
      <trkpt lat="60.59737" lon="7.50947">
        <ele>1207.55</ele>
        <time>2019-04-07T13:46:45Z</time>
      </trkpt>
      <trkpt lat="60.59739" lon="7.50949">
        <ele>1207.55</ele>
        <time>2019-04-07T13:47:06Z</time>
      </trkpt>
      <trkpt lat="60.59739" lon="7.50948">
        <ele>1208.03</ele>
        <time>2019-04-07T13:47:20Z</time>
      </trkpt>
      <trkpt lat="60.59737" lon="7.50948">
        <ele>1207.07</ele>
        <time>2019-04-07T13:47:48Z</time>
      </trkpt>
      <trkpt lat="60.59737" lon="7.50947">
        <ele>1209</ele>
        <time>2019-04-07T13:47:55Z</time>
      </trkpt>
      <trkpt lat="60.59735" lon="7.50941">
        <ele>1207.55</ele>
        <time>2019-04-07T13:48:07Z</time>
      </trkpt>
      <trkpt lat="60.59735" lon="7.50939">
        <ele>1207.55</ele>
        <time>2019-04-07T13:48:10Z</time>
      </trkpt>
      <trkpt lat="60.59727" lon="7.50934">
        <ele>1207.07</ele>
        <time>2019-04-07T13:48:14Z</time>
      </trkpt>
      <trkpt lat="60.59698" lon="7.50897">
        <ele>1207.07</ele>
        <time>2019-04-07T13:48:25Z</time>
      </trkpt>
      <trkpt lat="60.59691" lon="7.50877">
        <ele>1208.51</ele>
        <time>2019-04-07T13:48:29Z</time>
      </trkpt>
      <trkpt lat="60.59682" lon="7.50863">
        <ele>1208.51</ele>
        <time>2019-04-07T13:48:33Z</time>
      </trkpt>
      <trkpt lat="60.59672" lon="7.50837">
        <ele>1208.51</ele>
        <time>2019-04-07T13:48:37Z</time>
      </trkpt>
      <trkpt lat="60.59657" lon="7.50806">
        <ele>1206.59</ele>
        <time>2019-04-07T13:48:41Z</time>
      </trkpt>
      <trkpt lat="60.59631" lon="7.50777">
        <ele>1204.19</ele>
        <time>2019-04-07T13:48:45Z</time>
      </trkpt>
      <trkpt lat="60.59543" lon="7.50702">
        <ele>1204.19</ele>
        <time>2019-04-07T13:48:58Z</time>
      </trkpt>
      <trkpt lat="60.59495" lon="7.50681">
        <ele>1204.19</ele>
        <time>2019-04-07T13:49:05Z</time>
      </trkpt>
      <trkpt lat="60.59468" lon="7.5064">
        <ele>1206.11</ele>
        <time>2019-04-07T13:49:12Z</time>
      </trkpt>
      <trkpt lat="60.59435" lon="7.50624">
        <ele>1205.15</ele>
        <time>2019-04-07T13:49:18Z</time>
      </trkpt>
      <trkpt lat="60.59417" lon="7.50614">
        <ele>1205.15</ele>
        <time>2019-04-07T13:49:21Z</time>
      </trkpt>
      <trkpt lat="60.59398" lon="7.50608">
        <ele>1205.15</ele>
        <time>2019-04-07T13:49:24Z</time>
      </trkpt>
      <trkpt lat="60.59351" lon="7.50618">
        <ele>1204.67</ele>
        <time>2019-04-07T13:49:31Z</time>
      </trkpt>
      <trkpt lat="60.59334" lon="7.50623">
        <ele>1206.11</ele>
        <time>2019-04-07T13:49:34Z</time>
      </trkpt>
      <trkpt lat="60.59323" lon="7.50625">
        <ele>1208.03</ele>
        <time>2019-04-07T13:49:37Z</time>
      </trkpt>
      <trkpt lat="60.59319" lon="7.50617">
        <ele>1209.96</ele>
        <time>2019-04-07T13:49:42Z</time>
      </trkpt>
      <trkpt lat="60.59332" lon="7.50611">
        <ele>1209.96</ele>
        <time>2019-04-07T13:49:46Z</time>
      </trkpt>
      <trkpt lat="60.5935" lon="7.50615">
        <ele>1209.96</ele>
        <time>2019-04-07T13:49:49Z</time>
      </trkpt>
      <trkpt lat="60.59363" lon="7.50614">
        <ele>1208.03</ele>
        <time>2019-04-07T13:49:51Z</time>
      </trkpt>
      <trkpt lat="60.59403" lon="7.50605">
        <ele>1208.03</ele>
        <time>2019-04-07T13:49:57Z</time>
      </trkpt>
      <trkpt lat="60.59492" lon="7.50612">
        <ele>1208.51</ele>
        <time>2019-04-07T13:50:11Z</time>
      </trkpt>
      <trkpt lat="60.59498" lon="7.50613">
        <ele>1208.51</ele>
        <time>2019-04-07T13:50:12Z</time>
      </trkpt>
      <trkpt lat="60.59516" lon="7.5062">
        <ele>1208.51</ele>
        <time>2019-04-07T13:50:15Z</time>
      </trkpt>
      <trkpt lat="60.5954" lon="7.50644">
        <ele>1208.03</ele>
        <time>2019-04-07T13:50:20Z</time>
      </trkpt>
      <trkpt lat="60.59549" lon="7.50656">
        <ele>1208.03</ele>
        <time>2019-04-07T13:50:22Z</time>
      </trkpt>
      <trkpt lat="60.59562" lon="7.50672">
        <ele>1208.03</ele>
        <time>2019-04-07T13:50:25Z</time>
      </trkpt>
      <trkpt lat="60.59588" lon="7.50697">
        <ele>1207.55</ele>
        <time>2019-04-07T13:50:33Z</time>
      </trkpt>
      <trkpt lat="60.59591" lon="7.50698">
        <ele>1207.55</ele>
        <time>2019-04-07T13:50:34Z</time>
      </trkpt>
      <trkpt lat="60.59603" lon="7.50708">
        <ele>1207.55</ele>
        <time>2019-04-07T13:50:37Z</time>
      </trkpt>
      <trkpt lat="60.5962" lon="7.50736">
        <ele>1207.55</ele>
        <time>2019-04-07T13:50:42Z</time>
      </trkpt>
      <trkpt lat="60.59626" lon="7.50755">
        <ele>1207.55</ele>
        <time>2019-04-07T13:50:45Z</time>
      </trkpt>
      <trkpt lat="60.59629" lon="7.50757">
        <ele>1207.55</ele>
        <time>2019-04-07T13:50:48Z</time>
      </trkpt>
      <trkpt lat="60.59621" lon="7.50739">
        <ele>1206.59</ele>
        <time>2019-04-07T13:50:53Z</time>
      </trkpt>
      <trkpt lat="60.59602" lon="7.50712">
        <ele>1206.59</ele>
        <time>2019-04-07T13:50:59Z</time>
      </trkpt>
      <trkpt lat="60.59585" lon="7.50696">
        <ele>1206.59</ele>
        <time>2019-04-07T13:51:03Z</time>
      </trkpt>
      <trkpt lat="60.59575" lon="7.50691">
        <ele>1205.63</ele>
        <time>2019-04-07T13:51:05Z</time>
      </trkpt>
      <trkpt lat="60.59528" lon="7.507">
        <ele>1204.67</ele>
        <time>2019-04-07T13:51:13Z</time>
      </trkpt>
      <trkpt lat="60.59509" lon="7.50706">
        <ele>1204.67</ele>
        <time>2019-04-07T13:51:16Z</time>
      </trkpt>
      <trkpt lat="60.5944" lon="7.50725">
        <ele>1206.11</ele>
        <time>2019-04-07T13:51:27Z</time>
      </trkpt>
      <trkpt lat="60.59374" lon="7.5075">
        <ele>1206.59</ele>
        <time>2019-04-07T13:51:38Z</time>
      </trkpt>
      <trkpt lat="60.59363" lon="7.50758">
        <ele>1206.59</ele>
        <time>2019-04-07T13:51:40Z</time>
      </trkpt>
      <trkpt lat="60.59331" lon="7.50774">
        <ele>1209.48</ele>
        <time>2019-04-07T13:51:49Z</time>
      </trkpt>
      <trkpt lat="60.59318" lon="7.50768">
        <ele>1210.44</ele>
        <time>2019-04-07T13:51:54Z</time>
      </trkpt>
      <trkpt lat="60.59315" lon="7.50761">
        <ele>1210.92</ele>
        <time>2019-04-07T13:51:59Z</time>
      </trkpt>
      <trkpt lat="60.59323" lon="7.50765">
        <ele>1210.92</ele>
        <time>2019-04-07T13:52:03Z</time>
      </trkpt>
      <trkpt lat="60.5936" lon="7.50812">
        <ele>1210.92</ele>
        <time>2019-04-07T13:52:16Z</time>
      </trkpt>
      <trkpt lat="60.59387" lon="7.50844">
        <ele>1209.48</ele>
        <time>2019-04-07T13:52:26Z</time>
      </trkpt>
      <trkpt lat="60.59391" lon="7.50848">
        <ele>1209.48</ele>
        <time>2019-04-07T13:52:28Z</time>
      </trkpt>
      <trkpt lat="60.59413" lon="7.50845">
        <ele>1209</ele>
        <time>2019-04-07T13:52:34Z</time>
      </trkpt>
      <trkpt lat="60.59428" lon="7.5085">
        <ele>1209</ele>
        <time>2019-04-07T13:52:37Z</time>
      </trkpt>
      <trkpt lat="60.59442" lon="7.50856">
        <ele>1209.96</ele>
        <time>2019-04-07T13:52:40Z</time>
      </trkpt>
      <trkpt lat="60.59446" lon="7.5086">
        <ele>1210.44</ele>
        <time>2019-04-07T13:52:41Z</time>
      </trkpt>
      <trkpt lat="60.5946" lon="7.50874">
        <ele>1209.96</ele>
        <time>2019-04-07T13:52:44Z</time>
      </trkpt>
      <trkpt lat="60.59474" lon="7.50898">
        <ele>1209.96</ele>
        <time>2019-04-07T13:52:48Z</time>
      </trkpt>
      <trkpt lat="60.59488" lon="7.50936">
        <ele>1209</ele>
        <time>2019-04-07T13:52:54Z</time>
      </trkpt>
      <trkpt lat="60.59491" lon="7.50937">
        <ele>1208.51</ele>
        <time>2019-04-07T13:52:57Z</time>
      </trkpt>
      <trkpt lat="60.59481" lon="7.50929">
        <ele>1208.03</ele>
        <time>2019-04-07T13:53:01Z</time>
      </trkpt>
      <trkpt lat="60.5946" lon="7.50931">
        <ele>1207.55</ele>
        <time>2019-04-07T13:53:06Z</time>
      </trkpt>
      <trkpt lat="60.59441" lon="7.50943">
        <ele>1208.51</ele>
        <time>2019-04-07T13:53:10Z</time>
      </trkpt>
      <trkpt lat="60.59425" lon="7.50947">
        <ele>1209.96</ele>
        <time>2019-04-07T13:53:14Z</time>
      </trkpt>
      <trkpt lat="60.59411" lon="7.50951">
        <ele>1209.96</ele>
        <time>2019-04-07T13:53:17Z</time>
      </trkpt>
      <trkpt lat="60.59388" lon="7.50944">
        <ele>1210.44</ele>
        <time>2019-04-07T13:53:22Z</time>
      </trkpt>
      <trkpt lat="60.59364" lon="7.50932">
        <ele>1209.48</ele>
        <time>2019-04-07T13:53:26Z</time>
      </trkpt>
      <trkpt lat="60.59342" lon="7.50924">
        <ele>1207.55</ele>
        <time>2019-04-07T13:53:29Z</time>
      </trkpt>
      <trkpt lat="60.59305" lon="7.50909">
        <ele>1210.92</ele>
        <time>2019-04-07T13:53:35Z</time>
      </trkpt>
      <trkpt lat="60.59252" lon="7.50888">
        <ele>1208.03</ele>
        <time>2019-04-07T13:53:43Z</time>
      </trkpt>
      <trkpt lat="60.5921" lon="7.50871">
        <ele>1210.92</ele>
        <time>2019-04-07T13:53:49Z</time>
      </trkpt>
      <trkpt lat="60.5913" lon="7.50831">
        <ele>1212.84</ele>
        <time>2019-04-07T13:54:01Z</time>
      </trkpt>
      <trkpt lat="60.59098" lon="7.50811">
        <ele>1213.32</ele>
        <time>2019-04-07T13:54:06Z</time>
      </trkpt>
      <trkpt lat="60.59079" lon="7.50796">
        <ele>1213.8</ele>
        <time>2019-04-07T13:54:09Z</time>
      </trkpt>
      <trkpt lat="60.59059" lon="7.50778">
        <ele>1215.24</ele>
        <time>2019-04-07T13:54:13Z</time>
      </trkpt>
      <trkpt lat="60.59039" lon="7.50761">
        <ele>1217.17</ele>
        <time>2019-04-07T13:54:18Z</time>
      </trkpt>
      <trkpt lat="60.59017" lon="7.50724">
        <ele>1220.53</ele>
        <time>2019-04-07T13:54:28Z</time>
      </trkpt>
      <trkpt lat="60.59013" lon="7.50713">
        <ele>1221.01</ele>
        <time>2019-04-07T13:54:32Z</time>
      </trkpt>
      <trkpt lat="60.58997" lon="7.50693">
        <ele>1223.42</ele>
        <time>2019-04-07T13:54:41Z</time>
      </trkpt>
      <trkpt lat="60.58976" lon="7.50669">
        <ele>1225.82</ele>
        <time>2019-04-07T13:54:51Z</time>
      </trkpt>
      <trkpt lat="60.58951" lon="7.50652">
        <ele>1226.78</ele>
        <time>2019-04-07T13:55:00Z</time>
      </trkpt>
      <trkpt lat="60.58947" lon="7.5065">
        <ele>1226.78</ele>
        <time>2019-04-07T13:55:01Z</time>
      </trkpt>
      <trkpt lat="60.58934" lon="7.50644">
        <ele>1226.78</ele>
        <time>2019-04-07T13:55:04Z</time>
      </trkpt>
      <trkpt lat="60.58919" lon="7.50619">
        <ele>1228.7</ele>
        <time>2019-04-07T13:55:09Z</time>
      </trkpt>
      <trkpt lat="60.5891" lon="7.50605">
        <ele>1229.66</ele>
        <time>2019-04-07T13:55:14Z</time>
      </trkpt>
      <trkpt lat="60.58886" lon="7.50578">
        <ele>1230.62</ele>
        <time>2019-04-07T13:55:23Z</time>
      </trkpt>
      <trkpt lat="60.58873" lon="7.50542">
        <ele>1233.03</ele>
        <time>2019-04-07T13:55:32Z</time>
      </trkpt>
      <trkpt lat="60.58872" lon="7.50528">
        <ele>1234.95</ele>
        <time>2019-04-07T13:55:39Z</time>
      </trkpt>
      <trkpt lat="60.58879" lon="7.5051">
        <ele>1235.43</ele>
        <time>2019-04-07T13:55:46Z</time>
      </trkpt>
      <trkpt lat="60.58891" lon="7.50532">
        <ele>1235.43</ele>
        <time>2019-04-07T13:55:51Z</time>
      </trkpt>
      <trkpt lat="60.58895" lon="7.50554">
        <ele>1235.43</ele>
        <time>2019-04-07T13:55:54Z</time>
      </trkpt>
      <trkpt lat="60.58901" lon="7.50579">
        <ele>1233.51</ele>
        <time>2019-04-07T13:55:57Z</time>
      </trkpt>
      <trkpt lat="60.58908" lon="7.50617">
        <ele>1231.59</ele>
        <time>2019-04-07T13:56:01Z</time>
      </trkpt>
      <trkpt lat="60.58919" lon="7.5068">
        <ele>1227.74</ele>
        <time>2019-04-07T13:56:07Z</time>
      </trkpt>
      <trkpt lat="60.58924" lon="7.50732">
        <ele>1224.38</ele>
        <time>2019-04-07T13:56:12Z</time>
      </trkpt>
      <trkpt lat="60.58926" lon="7.50749">
        <ele>1223.9</ele>
        <time>2019-04-07T13:56:14Z</time>
      </trkpt>
      <trkpt lat="60.58927" lon="7.50773">
        <ele>1222.45</ele>
        <time>2019-04-07T13:56:17Z</time>
      </trkpt>
      <trkpt lat="60.58927" lon="7.50782">
        <ele>1220.53</ele>
        <time>2019-04-07T13:56:22Z</time>
      </trkpt>
      <trkpt lat="60.58928" lon="7.50773">
        <ele>1220.53</ele>
        <time>2019-04-07T13:56:28Z</time>
      </trkpt>
      <trkpt lat="60.58922" lon="7.50768">
        <ele>1220.53</ele>
        <time>2019-04-07T13:56:32Z</time>
      </trkpt>
      <trkpt lat="60.58906" lon="7.50751">
        <ele>1220.05</ele>
        <time>2019-04-07T13:56:37Z</time>
      </trkpt>
      <trkpt lat="60.58892" lon="7.50741">
        <ele>1219.57</ele>
        <time>2019-04-07T13:56:40Z</time>
      </trkpt>
      <trkpt lat="60.58876" lon="7.50736">
        <ele>1219.09</ele>
        <time>2019-04-07T13:56:43Z</time>
      </trkpt>
      <trkpt lat="60.58858" lon="7.50728">
        <ele>1221.49</ele>
        <time>2019-04-07T13:56:47Z</time>
      </trkpt>
      <trkpt lat="60.58847" lon="7.50724">
        <ele>1222.93</ele>
        <time>2019-04-07T13:56:52Z</time>
      </trkpt>
      <trkpt lat="60.58842" lon="7.50712">
        <ele>1223.9</ele>
        <time>2019-04-07T13:57:02Z</time>
      </trkpt>
      <trkpt lat="60.5885" lon="7.50711">
        <ele>1223.9</ele>
        <time>2019-04-07T13:57:06Z</time>
      </trkpt>
      <trkpt lat="60.5887" lon="7.50693">
        <ele>1223.9</ele>
        <time>2019-04-07T13:57:11Z</time>
      </trkpt>
      <trkpt lat="60.58892" lon="7.50674">
        <ele>1225.34</ele>
        <time>2019-04-07T13:57:21Z</time>
      </trkpt>
      <trkpt lat="60.58892" lon="7.50673">
        <ele>1225.34</ele>
        <time>2019-04-07T13:57:22Z</time>
      </trkpt>
      <trkpt lat="60.58891" lon="7.50663">
        <ele>1225.82</ele>
        <time>2019-04-07T13:57:29Z</time>
      </trkpt>
      <trkpt lat="60.58874" lon="7.50632">
        <ele>1227.74</ele>
        <time>2019-04-07T13:57:40Z</time>
      </trkpt>
      <trkpt lat="60.58873" lon="7.50628">
        <ele>1228.22</ele>
        <time>2019-04-07T13:57:42Z</time>
      </trkpt>
      <trkpt lat="60.58866" lon="7.50622">
        <ele>1228.22</ele>
        <time>2019-04-07T13:57:46Z</time>
      </trkpt>
      <trkpt lat="60.58857" lon="7.5061">
        <ele>1229.66</ele>
        <time>2019-04-07T13:57:51Z</time>
      </trkpt>
      <trkpt lat="60.58843" lon="7.50593">
        <ele>1232.55</ele>
        <time>2019-04-07T13:58:00Z</time>
      </trkpt>
      <trkpt lat="60.58836" lon="7.50579">
        <ele>1233.51</ele>
        <time>2019-04-07T13:58:07Z</time>
      </trkpt>
      <trkpt lat="60.58827" lon="7.50571">
        <ele>1234.95</ele>
        <time>2019-04-07T13:58:13Z</time>
      </trkpt>
      <trkpt lat="60.58821" lon="7.50551">
        <ele>1235.91</ele>
        <time>2019-04-07T13:58:19Z</time>
      </trkpt>
      <trkpt lat="60.58808" lon="7.50542">
        <ele>1236.39</ele>
        <time>2019-04-07T13:58:25Z</time>
      </trkpt>
      <trkpt lat="60.58779" lon="7.50526">
        <ele>1237.83</ele>
        <time>2019-04-07T13:58:35Z</time>
      </trkpt>
      <trkpt lat="60.58755" lon="7.50525">
        <ele>1237.83</ele>
        <time>2019-04-07T13:58:42Z</time>
      </trkpt>
      <trkpt lat="60.58753" lon="7.5052">
        <ele>1239.76</ele>
        <time>2019-04-07T13:58:46Z</time>
      </trkpt>
      <trkpt lat="60.58749" lon="7.50516">
        <ele>1240.24</ele>
        <time>2019-04-07T13:58:53Z</time>
      </trkpt>
      <trkpt lat="60.58743" lon="7.50512">
        <ele>1240.24</ele>
        <time>2019-04-07T13:58:57Z</time>
      </trkpt>
      <trkpt lat="60.58739" lon="7.5051">
        <ele>1241.2</ele>
        <time>2019-04-07T13:59:01Z</time>
      </trkpt>
      <trkpt lat="60.58736" lon="7.50499">
        <ele>1242.64</ele>
        <time>2019-04-07T13:59:05Z</time>
      </trkpt>
      <trkpt lat="60.5872" lon="7.50505">
        <ele>1243.12</ele>
        <time>2019-04-07T13:59:12Z</time>
      </trkpt>
      <trkpt lat="60.58708" lon="7.50517">
        <ele>1241.2</ele>
        <time>2019-04-07T13:59:15Z</time>
      </trkpt>
      <trkpt lat="60.58701" lon="7.50524">
        <ele>1241.2</ele>
        <time>2019-04-07T13:59:17Z</time>
      </trkpt>
      <trkpt lat="60.58679" lon="7.5055">
        <ele>1243.6</ele>
        <time>2019-04-07T13:59:28Z</time>
      </trkpt>
      <trkpt lat="60.58679" lon="7.50548">
        <ele>1243.6</ele>
        <time>2019-04-07T13:59:32Z</time>
      </trkpt>
      <trkpt lat="60.58677" lon="7.50545">
        <ele>1244.56</ele>
        <time>2019-04-07T13:59:37Z</time>
      </trkpt>
      <trkpt lat="60.58675" lon="7.50535">
        <ele>1245.53</ele>
        <time>2019-04-07T13:59:42Z</time>
      </trkpt>
      <trkpt lat="60.58674" lon="7.5053">
        <ele>1246.97</ele>
        <time>2019-04-07T13:59:47Z</time>
      </trkpt>
      <trkpt lat="60.58672" lon="7.50523">
        <ele>1247.45</ele>
        <time>2019-04-07T13:59:51Z</time>
      </trkpt>
      <trkpt lat="60.5867" lon="7.50516">
        <ele>1248.41</ele>
        <time>2019-04-07T13:59:57Z</time>
      </trkpt>
      <trkpt lat="60.58667" lon="7.50504">
        <ele>1250.33</ele>
        <time>2019-04-07T14:00:03Z</time>
      </trkpt>
      <trkpt lat="60.58667" lon="7.50496">
        <ele>1250.81</ele>
        <time>2019-04-07T14:00:07Z</time>
      </trkpt>
      <trkpt lat="60.58668" lon="7.50485">
        <ele>1251.29</ele>
        <time>2019-04-07T14:00:13Z</time>
      </trkpt>
      <trkpt lat="60.58667" lon="7.5048">
        <ele>1251.77</ele>
        <time>2019-04-07T14:00:17Z</time>
      </trkpt>
      <trkpt lat="60.58666" lon="7.50471">
        <ele>1252.74</ele>
        <time>2019-04-07T14:00:22Z</time>
      </trkpt>
      <trkpt lat="60.58665" lon="7.50461">
        <ele>1253.22</ele>
        <time>2019-04-07T14:00:27Z</time>
      </trkpt>
      <trkpt lat="60.58664" lon="7.50452">
        <ele>1254.18</ele>
        <time>2019-04-07T14:00:31Z</time>
      </trkpt>
      <trkpt lat="60.58661" lon="7.50439">
        <ele>1255.14</ele>
        <time>2019-04-07T14:00:37Z</time>
      </trkpt>
      <trkpt lat="60.58659" lon="7.50418">
        <ele>1255.62</ele>
        <time>2019-04-07T14:00:45Z</time>
      </trkpt>
      <trkpt lat="60.58657" lon="7.50412">
        <ele>1256.58</ele>
        <time>2019-04-07T14:00:49Z</time>
      </trkpt>
      <trkpt lat="60.58654" lon="7.50394">
        <ele>1257.06</ele>
        <time>2019-04-07T14:00:56Z</time>
      </trkpt>
      <trkpt lat="60.58645" lon="7.50363">
        <ele>1258.98</ele>
        <time>2019-04-07T14:01:08Z</time>
      </trkpt>
      <trkpt lat="60.58638" lon="7.50336">
        <ele>1259.94</ele>
        <time>2019-04-07T14:01:17Z</time>
      </trkpt>
      <trkpt lat="60.58625" lon="7.50313">
        <ele>1260.91</ele>
        <time>2019-04-07T14:01:25Z</time>
      </trkpt>
      <trkpt lat="60.58625" lon="7.50312">
        <ele>1260.91</ele>
        <time>2019-04-07T14:01:26Z</time>
      </trkpt>
      <trkpt lat="60.58619" lon="7.50299">
        <ele>1260.91</ele>
        <time>2019-04-07T14:01:31Z</time>
      </trkpt>
      <trkpt lat="60.58613" lon="7.50292">
        <ele>1259.46</ele>
        <time>2019-04-07T14:01:33Z</time>
      </trkpt>
      <trkpt lat="60.58611" lon="7.50291">
        <ele>1260.91</ele>
        <time>2019-04-07T14:01:35Z</time>
      </trkpt>
      <trkpt lat="60.5861" lon="7.50288">
        <ele>1260.91</ele>
        <time>2019-04-07T14:01:39Z</time>
      </trkpt>
      <trkpt lat="60.58603" lon="7.50279">
        <ele>1261.39</ele>
        <time>2019-04-07T14:01:46Z</time>
      </trkpt>
      <trkpt lat="60.58591" lon="7.50269">
        <ele>1258.98</ele>
        <time>2019-04-07T14:01:53Z</time>
      </trkpt>
      <trkpt lat="60.58581" lon="7.50269">
        <ele>1258.02</ele>
        <time>2019-04-07T14:01:57Z</time>
      </trkpt>
      <trkpt lat="60.58552" lon="7.50267">
        <ele>1257.54</ele>
        <time>2019-04-07T14:02:04Z</time>
      </trkpt>
      <trkpt lat="60.58533" lon="7.50243">
        <ele>1258.02</ele>
        <time>2019-04-07T14:02:14Z</time>
      </trkpt>
      <trkpt lat="60.58532" lon="7.5024">
        <ele>1258.02</ele>
        <time>2019-04-07T14:02:15Z</time>
      </trkpt>
      <trkpt lat="60.58525" lon="7.50225">
        <ele>1255.14</ele>
        <time>2019-04-07T14:02:18Z</time>
      </trkpt>
      <trkpt lat="60.58501" lon="7.50197">
        <ele>1255.14</ele>
        <time>2019-04-07T14:02:24Z</time>
      </trkpt>
      <trkpt lat="60.58476" lon="7.50189">
        <ele>1254.18</ele>
        <time>2019-04-07T14:02:29Z</time>
      </trkpt>
      <trkpt lat="60.58422" lon="7.50158">
        <ele>1254.18</ele>
        <time>2019-04-07T14:02:38Z</time>
      </trkpt>
      <trkpt lat="60.58411" lon="7.50153">
        <ele>1254.18</ele>
        <time>2019-04-07T14:02:40Z</time>
      </trkpt>
      <trkpt lat="60.58401" lon="7.50146">
        <ele>1254.66</ele>
        <time>2019-04-07T14:02:42Z</time>
      </trkpt>
      <trkpt lat="60.58385" lon="7.50138">
        <ele>1257.54</ele>
        <time>2019-04-07T14:02:49Z</time>
      </trkpt>
      <trkpt lat="60.58374" lon="7.50112">
        <ele>1254.18</ele>
        <time>2019-04-07T14:02:57Z</time>
      </trkpt>
      <trkpt lat="60.58364" lon="7.50104">
        <ele>1253.22</ele>
        <time>2019-04-07T14:02:59Z</time>
      </trkpt>
      <trkpt lat="60.5836" lon="7.50103">
        <ele>1253.22</ele>
        <time>2019-04-07T14:03:00Z</time>
      </trkpt>
      <trkpt lat="60.58351" lon="7.50101">
        <ele>1253.22</ele>
        <time>2019-04-07T14:03:02Z</time>
      </trkpt>
      <trkpt lat="60.58343" lon="7.50102">
        <ele>1253.22</ele>
        <time>2019-04-07T14:03:04Z</time>
      </trkpt>
      <trkpt lat="60.58338" lon="7.50098">
        <ele>1256.58</ele>
        <time>2019-04-07T14:03:07Z</time>
      </trkpt>
      <trkpt lat="60.58337" lon="7.50097">
        <ele>1256.58</ele>
        <time>2019-04-07T14:03:08Z</time>
      </trkpt>
      <trkpt lat="60.58334" lon="7.50086">
        <ele>1258.02</ele>
        <time>2019-04-07T14:03:15Z</time>
      </trkpt>
      <trkpt lat="60.58328" lon="7.50071">
        <ele>1259.94</ele>
        <time>2019-04-07T14:03:24Z</time>
      </trkpt>
      <trkpt lat="60.58327" lon="7.50067">
        <ele>1259.94</ele>
        <time>2019-04-07T14:03:28Z</time>
      </trkpt>
      <trkpt lat="60.58323" lon="7.5006">
        <ele>1260.91</ele>
        <time>2019-04-07T14:03:33Z</time>
      </trkpt>
      <trkpt lat="60.58321" lon="7.50055">
        <ele>1261.39</ele>
        <time>2019-04-07T14:03:38Z</time>
      </trkpt>
      <trkpt lat="60.58318" lon="7.5005">
        <ele>1261.87</ele>
        <time>2019-04-07T14:03:48Z</time>
      </trkpt>
      <trkpt lat="60.58316" lon="7.50044">
        <ele>1262.35</ele>
        <time>2019-04-07T14:03:53Z</time>
      </trkpt>
      <trkpt lat="60.58303" lon="7.5003">
        <ele>1262.35</ele>
        <time>2019-04-07T14:04:01Z</time>
      </trkpt>
      <trkpt lat="60.58297" lon="7.50027">
        <ele>1262.35</ele>
        <time>2019-04-07T14:04:03Z</time>
      </trkpt>
      <trkpt lat="60.58276" lon="7.50033">
        <ele>1258.98</ele>
        <time>2019-04-07T14:04:07Z</time>
      </trkpt>
      <trkpt lat="60.58249" lon="7.50041">
        <ele>1258.98</ele>
        <time>2019-04-07T14:04:12Z</time>
      </trkpt>
      <trkpt lat="60.58222" lon="7.50045">
        <ele>1262.35</ele>
        <time>2019-04-07T14:04:19Z</time>
      </trkpt>
      <trkpt lat="60.58205" lon="7.50058">
        <ele>1262.35</ele>
        <time>2019-04-07T14:04:26Z</time>
      </trkpt>
      <trkpt lat="60.58203" lon="7.50057">
        <ele>1262.83</ele>
        <time>2019-04-07T14:04:31Z</time>
      </trkpt>
      <trkpt lat="60.58208" lon="7.50102">
        <ele>1262.83</ele>
        <time>2019-04-07T14:04:40Z</time>
      </trkpt>
      <trkpt lat="60.58198" lon="7.50139">
        <ele>1258.98</ele>
        <time>2019-04-07T14:04:45Z</time>
      </trkpt>
      <trkpt lat="60.58191" lon="7.50158">
        <ele>1257.06</ele>
        <time>2019-04-07T14:04:48Z</time>
      </trkpt>
      <trkpt lat="60.58183" lon="7.50174">
        <ele>1255.62</ele>
        <time>2019-04-07T14:04:51Z</time>
      </trkpt>
      <trkpt lat="60.58178" lon="7.50183">
        <ele>1254.18</ele>
        <time>2019-04-07T14:04:53Z</time>
      </trkpt>
      <trkpt lat="60.58178" lon="7.50196">
        <ele>1252.25</ele>
        <time>2019-04-07T14:04:57Z</time>
      </trkpt>
      <trkpt lat="60.58179" lon="7.50196">
        <ele>1251.29</ele>
        <time>2019-04-07T14:04:59Z</time>
      </trkpt>
      <trkpt lat="60.58164" lon="7.50172">
        <ele>1252.74</ele>
        <time>2019-04-07T14:05:07Z</time>
      </trkpt>
      <trkpt lat="60.58148" lon="7.50155">
        <ele>1256.58</ele>
        <time>2019-04-07T14:05:13Z</time>
      </trkpt>
      <trkpt lat="60.58146" lon="7.50149">
        <ele>1257.54</ele>
        <time>2019-04-07T14:05:15Z</time>
      </trkpt>
      <trkpt lat="60.58143" lon="7.50143">
        <ele>1258.98</ele>
        <time>2019-04-07T14:05:19Z</time>
      </trkpt>
      <trkpt lat="60.58141" lon="7.50133">
        <ele>1259.46</ele>
        <time>2019-04-07T14:05:23Z</time>
      </trkpt>
      <trkpt lat="60.58137" lon="7.50127">
        <ele>1260.91</ele>
        <time>2019-04-07T14:05:26Z</time>
      </trkpt>
      <trkpt lat="60.58137" lon="7.50127">
        <ele>1261.87</ele>
        <time>2019-04-07T14:05:27Z</time>
      </trkpt>
      <trkpt lat="60.58133" lon="7.50114">
        <ele>1263.31</ele>
        <time>2019-04-07T14:05:32Z</time>
      </trkpt>
      <trkpt lat="60.58125" lon="7.50091">
        <ele>1266.19</ele>
        <time>2019-04-07T14:05:43Z</time>
      </trkpt>
      <trkpt lat="60.58122" lon="7.50079">
        <ele>1267.64</ele>
        <time>2019-04-07T14:05:51Z</time>
      </trkpt>
      <trkpt lat="60.58122" lon="7.50078">
        <ele>1267.64</ele>
        <time>2019-04-07T14:05:52Z</time>
      </trkpt>
      <trkpt lat="60.58121" lon="7.50073">
        <ele>1268.6</ele>
        <time>2019-04-07T14:05:56Z</time>
      </trkpt>
      <trkpt lat="60.58116" lon="7.5006">
        <ele>1270.52</ele>
        <time>2019-04-07T14:06:08Z</time>
      </trkpt>
      <trkpt lat="60.58114" lon="7.50059">
        <ele>1271.48</ele>
        <time>2019-04-07T14:06:13Z</time>
      </trkpt>
      <trkpt lat="60.58109" lon="7.50051">
        <ele>1273.4</ele>
        <time>2019-04-07T14:06:21Z</time>
      </trkpt>
      <trkpt lat="60.58106" lon="7.50043">
        <ele>1274.36</ele>
        <time>2019-04-07T14:06:25Z</time>
      </trkpt>
      <trkpt lat="60.58101" lon="7.50039">
        <ele>1275.33</ele>
        <time>2019-04-07T14:06:28Z</time>
      </trkpt>
      <trkpt lat="60.58096" lon="7.50038">
        <ele>1276.29</ele>
        <time>2019-04-07T14:06:37Z</time>
      </trkpt>
      <trkpt lat="60.58092" lon="7.5004">
        <ele>1277.25</ele>
        <time>2019-04-07T14:06:48Z</time>
      </trkpt>
      <trkpt lat="60.58081" lon="7.5004">
        <ele>1278.21</ele>
        <time>2019-04-07T14:07:00Z</time>
      </trkpt>
      <trkpt lat="60.58079" lon="7.50042">
        <ele>1276.77</ele>
        <time>2019-04-07T14:07:02Z</time>
      </trkpt>
      <trkpt lat="60.58076" lon="7.50043">
        <ele>1276.77</ele>
        <time>2019-04-07T14:07:05Z</time>
      </trkpt>
      <trkpt lat="60.58066" lon="7.5004">
        <ele>1276.77</ele>
        <time>2019-04-07T14:07:11Z</time>
      </trkpt>
      <trkpt lat="60.58061" lon="7.50043">
        <ele>1276.77</ele>
        <time>2019-04-07T14:07:14Z</time>
      </trkpt>
      <trkpt lat="60.58056" lon="7.50039">
        <ele>1278.21</ele>
        <time>2019-04-07T14:07:17Z</time>
      </trkpt>
      <trkpt lat="60.58055" lon="7.50038">
        <ele>1279.17</ele>
        <time>2019-04-07T14:07:19Z</time>
      </trkpt>
      <trkpt lat="60.58049" lon="7.50034">
        <ele>1279.65</ele>
        <time>2019-04-07T14:07:24Z</time>
      </trkpt>
      <trkpt lat="60.58042" lon="7.50023">
        <ele>1281.57</ele>
        <time>2019-04-07T14:07:31Z</time>
      </trkpt>
      <trkpt lat="60.5804" lon="7.50015">
        <ele>1282.54</ele>
        <time>2019-04-07T14:07:37Z</time>
      </trkpt>
      <trkpt lat="60.5804" lon="7.50011">
        <ele>1283.98</ele>
        <time>2019-04-07T14:07:39Z</time>
      </trkpt>
      <trkpt lat="60.5804" lon="7.50005">
        <ele>1284.46</ele>
        <time>2019-04-07T14:07:50Z</time>
      </trkpt>
      <trkpt lat="60.58038" lon="7.49992">
        <ele>1285.42</ele>
        <time>2019-04-07T14:07:55Z</time>
      </trkpt>
      <trkpt lat="60.58038" lon="7.49983">
        <ele>1286.86</ele>
        <time>2019-04-07T14:08:00Z</time>
      </trkpt>
      <trkpt lat="60.58039" lon="7.49978">
        <ele>1287.34</ele>
        <time>2019-04-07T14:08:04Z</time>
      </trkpt>
      <trkpt lat="60.58038" lon="7.49964">
        <ele>1288.78</ele>
        <time>2019-04-07T14:08:11Z</time>
      </trkpt>
      <trkpt lat="60.58033" lon="7.49957">
        <ele>1291.19</ele>
        <time>2019-04-07T14:08:16Z</time>
      </trkpt>
      <trkpt lat="60.58029" lon="7.49948">
        <ele>1293.11</ele>
        <time>2019-04-07T14:08:23Z</time>
      </trkpt>
      <trkpt lat="60.58026" lon="7.49938">
        <ele>1295.03</ele>
        <time>2019-04-07T14:08:27Z</time>
      </trkpt>
      <trkpt lat="60.58024" lon="7.49936">
        <ele>1295.51</ele>
        <time>2019-04-07T14:08:36Z</time>
      </trkpt>
      <trkpt lat="60.58024" lon="7.4993">
        <ele>1295.99</ele>
        <time>2019-04-07T14:08:40Z</time>
      </trkpt>
      <trkpt lat="60.58018" lon="7.49923">
        <ele>1296.96</ele>
        <time>2019-04-07T14:08:47Z</time>
      </trkpt>
      <trkpt lat="60.58001" lon="7.49914">
        <ele>1297.92</ele>
        <time>2019-04-07T14:08:55Z</time>
      </trkpt>
      <trkpt lat="60.57984" lon="7.49907">
        <ele>1295.99</ele>
        <time>2019-04-07T14:08:59Z</time>
      </trkpt>
      <trkpt lat="60.57969" lon="7.4988">
        <ele>1299.36</ele>
        <time>2019-04-07T14:09:07Z</time>
      </trkpt>
      <trkpt lat="60.57968" lon="7.49878">
        <ele>1299.36</ele>
        <time>2019-04-07T14:09:08Z</time>
      </trkpt>
      <trkpt lat="60.57962" lon="7.49861">
        <ele>1300.8</ele>
        <time>2019-04-07T14:09:14Z</time>
      </trkpt>
      <trkpt lat="60.57958" lon="7.49854">
        <ele>1301.28</ele>
        <time>2019-04-07T14:09:18Z</time>
      </trkpt>
      <trkpt lat="60.57952" lon="7.49834">
        <ele>1302.72</ele>
        <time>2019-04-07T14:09:24Z</time>
      </trkpt>
      <trkpt lat="60.57941" lon="7.49813">
        <ele>1305.61</ele>
        <time>2019-04-07T14:09:34Z</time>
      </trkpt>
      <trkpt lat="60.57932" lon="7.49793">
        <ele>1307.53</ele>
        <time>2019-04-07T14:09:41Z</time>
      </trkpt>
      <trkpt lat="60.57924" lon="7.49769">
        <ele>1308.01</ele>
        <time>2019-04-07T14:09:50Z</time>
      </trkpt>
      <trkpt lat="60.57923" lon="7.49764">
        <ele>1308.01</ele>
        <time>2019-04-07T14:09:52Z</time>
      </trkpt>
      <trkpt lat="60.57921" lon="7.49755">
        <ele>1309.45</ele>
        <time>2019-04-07T14:09:57Z</time>
      </trkpt>
      <trkpt lat="60.57919" lon="7.49743">
        <ele>1309.93</ele>
        <time>2019-04-07T14:10:03Z</time>
      </trkpt>
      <trkpt lat="60.57918" lon="7.49735">
        <ele>1310.41</ele>
        <time>2019-04-07T14:10:07Z</time>
      </trkpt>
      <trkpt lat="60.57917" lon="7.49728">
        <ele>1310.9</ele>
        <time>2019-04-07T14:10:12Z</time>
      </trkpt>
      <trkpt lat="60.57915" lon="7.49717">
        <ele>1312.34</ele>
        <time>2019-04-07T14:10:16Z</time>
      </trkpt>
      <trkpt lat="60.57914" lon="7.49709">
        <ele>1312.82</ele>
        <time>2019-04-07T14:10:21Z</time>
      </trkpt>
      <trkpt lat="60.57912" lon="7.49697">
        <ele>1313.3</ele>
        <time>2019-04-07T14:10:26Z</time>
      </trkpt>
      <trkpt lat="60.57906" lon="7.49679">
        <ele>1314.26</ele>
        <time>2019-04-07T14:10:32Z</time>
      </trkpt>
      <trkpt lat="60.57891" lon="7.4965">
        <ele>1314.74</ele>
        <time>2019-04-07T14:10:41Z</time>
      </trkpt>
      <trkpt lat="60.57879" lon="7.49628">
        <ele>1315.22</ele>
        <time>2019-04-07T14:10:49Z</time>
      </trkpt>
      <trkpt lat="60.57875" lon="7.49624">
        <ele>1313.78</ele>
        <time>2019-04-07T14:10:50Z</time>
      </trkpt>
      <trkpt lat="60.5787" lon="7.4962">
        <ele>1313.3</ele>
        <time>2019-04-07T14:10:51Z</time>
      </trkpt>
      <trkpt lat="60.57854" lon="7.49595">
        <ele>1313.3</ele>
        <time>2019-04-07T14:10:55Z</time>
      </trkpt>
      <trkpt lat="60.57848" lon="7.49582">
        <ele>1315.22</ele>
        <time>2019-04-07T14:10:58Z</time>
      </trkpt>
      <trkpt lat="60.57845" lon="7.4958">
        <ele>1316.18</ele>
        <time>2019-04-07T14:11:03Z</time>
      </trkpt>
      <trkpt lat="60.57841" lon="7.49573">
        <ele>1316.18</ele>
        <time>2019-04-07T14:11:08Z</time>
      </trkpt>
      <trkpt lat="60.57838" lon="7.49562">
        <ele>1316.66</ele>
        <time>2019-04-07T14:11:13Z</time>
      </trkpt>
      <trkpt lat="60.57827" lon="7.49544">
        <ele>1317.62</ele>
        <time>2019-04-07T14:11:22Z</time>
      </trkpt>
      <trkpt lat="60.57809" lon="7.4952">
        <ele>1317.62</ele>
        <time>2019-04-07T14:11:33Z</time>
      </trkpt>
      <trkpt lat="60.57793" lon="7.49495">
        <ele>1315.22</ele>
        <time>2019-04-07T14:11:40Z</time>
      </trkpt>
      <trkpt lat="60.57786" lon="7.49488">
        <ele>1314.26</ele>
        <time>2019-04-07T14:11:42Z</time>
      </trkpt>
      <trkpt lat="60.57774" lon="7.49471">
        <ele>1313.78</ele>
        <time>2019-04-07T14:11:50Z</time>
      </trkpt>
      <trkpt lat="60.57756" lon="7.49443">
        <ele>1312.34</ele>
        <time>2019-04-07T14:11:57Z</time>
      </trkpt>
      <trkpt lat="60.57747" lon="7.49435">
        <ele>1311.38</ele>
        <time>2019-04-07T14:12:00Z</time>
      </trkpt>
      <trkpt lat="60.57739" lon="7.49438">
        <ele>1309.45</ele>
        <time>2019-04-07T14:12:03Z</time>
      </trkpt>
      <trkpt lat="60.57737" lon="7.49437">
        <ele>1309.45</ele>
        <time>2019-04-07T14:12:07Z</time>
      </trkpt>
      <trkpt lat="60.57737" lon="7.49429">
        <ele>1309.45</ele>
        <time>2019-04-07T14:12:10Z</time>
      </trkpt>
      <trkpt lat="60.57728" lon="7.49399">
        <ele>1308.01</ele>
        <time>2019-04-07T14:12:16Z</time>
      </trkpt>
      <trkpt lat="60.57726" lon="7.49393">
        <ele>1307.05</ele>
        <time>2019-04-07T14:12:17Z</time>
      </trkpt>
      <trkpt lat="60.57708" lon="7.49364">
        <ele>1303.69</ele>
        <time>2019-04-07T14:12:21Z</time>
      </trkpt>
      <trkpt lat="60.57703" lon="7.49355">
        <ele>1302.24</ele>
        <time>2019-04-07T14:12:22Z</time>
      </trkpt>
      <trkpt lat="60.57677" lon="7.49313">
        <ele>1298.4</ele>
        <time>2019-04-07T14:12:26Z</time>
      </trkpt>
      <trkpt lat="60.57647" lon="7.49273">
        <ele>1294.55</ele>
        <time>2019-04-07T14:12:30Z</time>
      </trkpt>
      <trkpt lat="60.57623" lon="7.49242">
        <ele>1290.71</ele>
        <time>2019-04-07T14:12:33Z</time>
      </trkpt>
      <trkpt lat="60.57604" lon="7.49224">
        <ele>1287.34</ele>
        <time>2019-04-07T14:12:35Z</time>
      </trkpt>
      <trkpt lat="60.57595" lon="7.49216">
        <ele>1287.34</ele>
        <time>2019-04-07T14:12:36Z</time>
      </trkpt>
      <trkpt lat="60.57572" lon="7.49195">
        <ele>1290.23</ele>
        <time>2019-04-07T14:12:39Z</time>
      </trkpt>
      <trkpt lat="60.57548" lon="7.49176">
        <ele>1293.59</ele>
        <time>2019-04-07T14:12:43Z</time>
      </trkpt>
      <trkpt lat="60.57537" lon="7.49169">
        <ele>1294.55</ele>
        <time>2019-04-07T14:12:45Z</time>
      </trkpt>
      <trkpt lat="60.57505" lon="7.49146">
        <ele>1291.19</ele>
        <time>2019-04-07T14:12:50Z</time>
      </trkpt>
      <trkpt lat="60.57497" lon="7.49141">
        <ele>1291.19</ele>
        <time>2019-04-07T14:12:51Z</time>
      </trkpt>
      <trkpt lat="60.57472" lon="7.49121">
        <ele>1294.55</ele>
        <time>2019-04-07T14:12:55Z</time>
      </trkpt>
      <trkpt lat="60.57461" lon="7.4911">
        <ele>1295.99</ele>
        <time>2019-04-07T14:12:58Z</time>
      </trkpt>
      <trkpt lat="60.5745" lon="7.49088">
        <ele>1298.88</ele>
        <time>2019-04-07T14:13:04Z</time>
      </trkpt>
      <trkpt lat="60.57445" lon="7.49075">
        <ele>1298.88</ele>
        <time>2019-04-07T14:13:09Z</time>
      </trkpt>
      <trkpt lat="60.57421" lon="7.49043">
        <ele>1301.28</ele>
        <time>2019-04-07T14:13:19Z</time>
      </trkpt>
      <trkpt lat="60.57419" lon="7.49037">
        <ele>1301.76</ele>
        <time>2019-04-07T14:13:21Z</time>
      </trkpt>
      <trkpt lat="60.57398" lon="7.49013">
        <ele>1303.69</ele>
        <time>2019-04-07T14:13:32Z</time>
      </trkpt>
      <trkpt lat="60.57388" lon="7.48998">
        <ele>1306.09</ele>
        <time>2019-04-07T14:13:41Z</time>
      </trkpt>
      <trkpt lat="60.57387" lon="7.48997">
        <ele>1307.05</ele>
        <time>2019-04-07T14:13:44Z</time>
      </trkpt>
      <trkpt lat="60.57385" lon="7.48991">
        <ele>1308.01</ele>
        <time>2019-04-07T14:13:48Z</time>
      </trkpt>
      <trkpt lat="60.5738" lon="7.48985">
        <ele>1308.97</ele>
        <time>2019-04-07T14:13:52Z</time>
      </trkpt>
      <trkpt lat="60.57379" lon="7.48981">
        <ele>1309.93</ele>
        <time>2019-04-07T14:13:56Z</time>
      </trkpt>
      <trkpt lat="60.57376" lon="7.48975">
        <ele>1311.38</ele>
        <time>2019-04-07T14:14:01Z</time>
      </trkpt>
      <trkpt lat="60.57375" lon="7.48969">
        <ele>1311.38</ele>
        <time>2019-04-07T14:14:05Z</time>
      </trkpt>
      <trkpt lat="60.57369" lon="7.48951">
        <ele>1314.26</ele>
        <time>2019-04-07T14:14:13Z</time>
      </trkpt>
      <trkpt lat="60.57367" lon="7.48949">
        <ele>1313.78</ele>
        <time>2019-04-07T14:14:17Z</time>
      </trkpt>
      <trkpt lat="60.57359" lon="7.48952">
        <ele>1311.86</ele>
        <time>2019-04-07T14:14:21Z</time>
      </trkpt>
      <trkpt lat="60.5735" lon="7.48957">
        <ele>1310.41</ele>
        <time>2019-04-07T14:14:24Z</time>
      </trkpt>
      <trkpt lat="60.57328" lon="7.48969">
        <ele>1308.49</ele>
        <time>2019-04-07T14:14:30Z</time>
      </trkpt>
      <trkpt lat="60.57319" lon="7.48975">
        <ele>1308.01</ele>
        <time>2019-04-07T14:14:32Z</time>
      </trkpt>
      <trkpt lat="60.57301" lon="7.48975">
        <ele>1309.93</ele>
        <time>2019-04-07T14:14:37Z</time>
      </trkpt>
      <trkpt lat="60.57296" lon="7.48971">
        <ele>1311.38</ele>
        <time>2019-04-07T14:14:42Z</time>
      </trkpt>
      <trkpt lat="60.57292" lon="7.48963">
        <ele>1312.82</ele>
        <time>2019-04-07T14:14:47Z</time>
      </trkpt>
      <trkpt lat="60.57289" lon="7.4896">
        <ele>1313.78</ele>
        <time>2019-04-07T14:14:53Z</time>
      </trkpt>
      <trkpt lat="60.57288" lon="7.48956">
        <ele>1314.74</ele>
        <time>2019-04-07T14:14:57Z</time>
      </trkpt>
      <trkpt lat="60.57286" lon="7.48949">
        <ele>1315.22</ele>
        <time>2019-04-07T14:15:01Z</time>
      </trkpt>
      <trkpt lat="60.57285" lon="7.48943">
        <ele>1316.66</ele>
        <time>2019-04-07T14:15:05Z</time>
      </trkpt>
      <trkpt lat="60.57283" lon="7.48937">
        <ele>1317.14</ele>
        <time>2019-04-07T14:15:11Z</time>
      </trkpt>
      <trkpt lat="60.57281" lon="7.48929">
        <ele>1318.1</ele>
        <time>2019-04-07T14:15:15Z</time>
      </trkpt>
      <trkpt lat="60.57279" lon="7.48924">
        <ele>1319.55</ele>
        <time>2019-04-07T14:15:20Z</time>
      </trkpt>
      <trkpt lat="60.57278" lon="7.48917">
        <ele>1320.51</ele>
        <time>2019-04-07T14:15:24Z</time>
      </trkpt>
      <trkpt lat="60.57272" lon="7.48902">
        <ele>1322.43</ele>
        <time>2019-04-07T14:15:34Z</time>
      </trkpt>
      <trkpt lat="60.5727" lon="7.48899">
        <ele>1323.39</ele>
        <time>2019-04-07T14:15:39Z</time>
      </trkpt>
      <trkpt lat="60.57268" lon="7.48894">
        <ele>1323.87</ele>
        <time>2019-04-07T14:15:44Z</time>
      </trkpt>
      <trkpt lat="60.57263" lon="7.4889">
        <ele>1325.31</ele>
        <time>2019-04-07T14:15:48Z</time>
      </trkpt>
      <trkpt lat="60.57261" lon="7.48881">
        <ele>1325.8</ele>
        <time>2019-04-07T14:15:52Z</time>
      </trkpt>
      <trkpt lat="60.57257" lon="7.48877">
        <ele>1326.76</ele>
        <time>2019-04-07T14:15:58Z</time>
      </trkpt>
      <trkpt lat="60.57255" lon="7.48871">
        <ele>1327.24</ele>
        <time>2019-04-07T14:16:02Z</time>
      </trkpt>
      <trkpt lat="60.57252" lon="7.48864">
        <ele>1328.68</ele>
        <time>2019-04-07T14:16:08Z</time>
      </trkpt>
      <trkpt lat="60.57251" lon="7.48861">
        <ele>1328.68</ele>
        <time>2019-04-07T14:16:10Z</time>
      </trkpt>
      <trkpt lat="60.57247" lon="7.48858">
        <ele>1330.6</ele>
        <time>2019-04-07T14:16:17Z</time>
      </trkpt>
      <trkpt lat="60.57243" lon="7.48848">
        <ele>1331.56</ele>
        <time>2019-04-07T14:16:27Z</time>
      </trkpt>
      <trkpt lat="60.57243" lon="7.48846">
        <ele>1331.56</ele>
        <time>2019-04-07T14:16:29Z</time>
      </trkpt>
      <trkpt lat="60.57239" lon="7.48843">
        <ele>1333.01</ele>
        <time>2019-04-07T14:16:34Z</time>
      </trkpt>
      <trkpt lat="60.57234" lon="7.48839">
        <ele>1333.97</ele>
        <time>2019-04-07T14:16:45Z</time>
      </trkpt>
      <trkpt lat="60.57234" lon="7.48839">
        <ele>1333.97</ele>
        <time>2019-04-07T14:16:46Z</time>
      </trkpt>
      <trkpt lat="60.57233" lon="7.48834">
        <ele>1334.93</ele>
        <time>2019-04-07T14:16:51Z</time>
      </trkpt>
      <trkpt lat="60.57232" lon="7.48829">
        <ele>1335.89</ele>
        <time>2019-04-07T14:16:56Z</time>
      </trkpt>
      <trkpt lat="60.57231" lon="7.48824">
        <ele>1336.37</ele>
        <time>2019-04-07T14:17:00Z</time>
      </trkpt>
      <trkpt lat="60.57227" lon="7.48812">
        <ele>1338.29</ele>
        <time>2019-04-07T14:17:09Z</time>
      </trkpt>
      <trkpt lat="60.57227" lon="7.48813">
        <ele>1338.29</ele>
        <time>2019-04-07T14:17:10Z</time>
      </trkpt>
      <trkpt lat="60.57224" lon="7.48808">
        <ele>1339.25</ele>
        <time>2019-04-07T14:17:15Z</time>
      </trkpt>
      <trkpt lat="60.57222" lon="7.48803">
        <ele>1339.73</ele>
        <time>2019-04-07T14:17:19Z</time>
      </trkpt>
      <trkpt lat="60.5722" lon="7.48799">
        <ele>1340.7</ele>
        <time>2019-04-07T14:17:25Z</time>
      </trkpt>
      <trkpt lat="60.57218" lon="7.48795">
        <ele>1341.66</ele>
        <time>2019-04-07T14:17:29Z</time>
      </trkpt>
      <trkpt lat="60.57213" lon="7.48792">
        <ele>1342.14</ele>
        <time>2019-04-07T14:17:35Z</time>
      </trkpt>
      <trkpt lat="60.5721" lon="7.48789">
        <ele>1343.1</ele>
        <time>2019-04-07T14:17:39Z</time>
      </trkpt>
      <trkpt lat="60.57207" lon="7.48784">
        <ele>1344.54</ele>
        <time>2019-04-07T14:17:44Z</time>
      </trkpt>
      <trkpt lat="60.57204" lon="7.48778">
        <ele>1345.02</ele>
        <time>2019-04-07T14:17:48Z</time>
      </trkpt>
      <trkpt lat="60.57195" lon="7.48777">
        <ele>1345.5</ele>
        <time>2019-04-07T14:17:53Z</time>
      </trkpt>
      <trkpt lat="60.57193" lon="7.48773">
        <ele>1346.46</ele>
        <time>2019-04-07T14:17:57Z</time>
      </trkpt>
      <trkpt lat="60.57185" lon="7.48764">
        <ele>1347.43</ele>
        <time>2019-04-07T14:18:03Z</time>
      </trkpt>
      <trkpt lat="60.57184" lon="7.48759">
        <ele>1347.91</ele>
        <time>2019-04-07T14:18:06Z</time>
      </trkpt>
      <trkpt lat="60.57166" lon="7.48751">
        <ele>1347.91</ele>
        <time>2019-04-07T14:18:16Z</time>
      </trkpt>
      <trkpt lat="60.57157" lon="7.48748">
        <ele>1348.39</ele>
        <time>2019-04-07T14:18:22Z</time>
      </trkpt>
      <trkpt lat="60.57149" lon="7.48728">
        <ele>1349.83</ele>
        <time>2019-04-07T14:18:31Z</time>
      </trkpt>
      <trkpt lat="60.5714" lon="7.48702">
        <ele>1351.27</ele>
        <time>2019-04-07T14:18:38Z</time>
      </trkpt>
      <trkpt lat="60.57115" lon="7.48676">
        <ele>1353.67</ele>
        <time>2019-04-07T14:18:48Z</time>
      </trkpt>
      <trkpt lat="60.571" lon="7.48657">
        <ele>1356.56</ele>
        <time>2019-04-07T14:18:54Z</time>
      </trkpt>
      <trkpt lat="60.571" lon="7.48658">
        <ele>1356.56</ele>
        <time>2019-04-07T14:18:55Z</time>
      </trkpt>
      <trkpt lat="60.57096" lon="7.48646">
        <ele>1358</ele>
        <time>2019-04-07T14:18:59Z</time>
      </trkpt>
      <trkpt lat="60.57095" lon="7.48646">
        <ele>1358.48</ele>
        <time>2019-04-07T14:19:01Z</time>
      </trkpt>
      <trkpt lat="60.57093" lon="7.48638">
        <ele>1359.44</ele>
        <time>2019-04-07T14:19:05Z</time>
      </trkpt>
      <trkpt lat="60.57087" lon="7.48628">
        <ele>1360.88</ele>
        <time>2019-04-07T14:19:10Z</time>
      </trkpt>
      <trkpt lat="60.57083" lon="7.48615">
        <ele>1361.84</ele>
        <time>2019-04-07T14:19:15Z</time>
      </trkpt>
      <trkpt lat="60.57068" lon="7.48604">
        <ele>1361.84</ele>
        <time>2019-04-07T14:19:22Z</time>
      </trkpt>
      <trkpt lat="60.57067" lon="7.48598">
        <ele>1361.84</ele>
        <time>2019-04-07T14:19:26Z</time>
      </trkpt>
      <trkpt lat="60.57061" lon="7.48586">
        <ele>1362.33</ele>
        <time>2019-04-07T14:19:34Z</time>
      </trkpt>
      <trkpt lat="60.5706" lon="7.48579">
        <ele>1362.81</ele>
        <time>2019-04-07T14:19:38Z</time>
      </trkpt>
      <trkpt lat="60.57051" lon="7.48573">
        <ele>1362.81</ele>
        <time>2019-04-07T14:19:45Z</time>
      </trkpt>
      <trkpt lat="60.57049" lon="7.48568">
        <ele>1362.81</ele>
        <time>2019-04-07T14:19:49Z</time>
      </trkpt>
      <trkpt lat="60.57043" lon="7.48559">
        <ele>1362.81</ele>
        <time>2019-04-07T14:19:55Z</time>
      </trkpt>
      <trkpt lat="60.57033" lon="7.48542">
        <ele>1362.81</ele>
        <time>2019-04-07T14:20:04Z</time>
      </trkpt>
      <trkpt lat="60.57031" lon="7.48541">
        <ele>1362.81</ele>
        <time>2019-04-07T14:20:07Z</time>
      </trkpt>
      <trkpt lat="60.5703" lon="7.48535">
        <ele>1362.81</ele>
        <time>2019-04-07T14:20:13Z</time>
      </trkpt>
      <trkpt lat="60.57028" lon="7.48524">
        <ele>1362.81</ele>
        <time>2019-04-07T14:20:19Z</time>
      </trkpt>
      <trkpt lat="60.57027" lon="7.48516">
        <ele>1363.29</ele>
        <time>2019-04-07T14:20:24Z</time>
      </trkpt>
      <trkpt lat="60.57025" lon="7.48505">
        <ele>1364.25</ele>
        <time>2019-04-07T14:20:34Z</time>
      </trkpt>
      <trkpt lat="60.57023" lon="7.485">
        <ele>1365.21</ele>
        <time>2019-04-07T14:20:40Z</time>
      </trkpt>
      <trkpt lat="60.57022" lon="7.48491">
        <ele>1365.69</ele>
        <time>2019-04-07T14:20:44Z</time>
      </trkpt>
      <trkpt lat="60.57021" lon="7.48485">
        <ele>1366.65</ele>
        <time>2019-04-07T14:20:49Z</time>
      </trkpt>
      <trkpt lat="60.5702" lon="7.48477">
        <ele>1367.61</ele>
        <time>2019-04-07T14:20:54Z</time>
      </trkpt>
      <trkpt lat="60.57018" lon="7.48468">
        <ele>1369.05</ele>
        <time>2019-04-07T14:20:59Z</time>
      </trkpt>
      <trkpt lat="60.57016" lon="7.4846">
        <ele>1369.54</ele>
        <time>2019-04-07T14:21:04Z</time>
      </trkpt>
      <trkpt lat="60.5701" lon="7.48436">
        <ele>1370.98</ele>
        <time>2019-04-07T14:21:14Z</time>
      </trkpt>
      <trkpt lat="60.5701" lon="7.48436">
        <ele>1371.46</ele>
        <time>2019-04-07T14:21:15Z</time>
      </trkpt>
      <trkpt lat="60.57004" lon="7.4842">
        <ele>1371.94</ele>
        <time>2019-04-07T14:21:23Z</time>
      </trkpt>
      <trkpt lat="60.57003" lon="7.48418">
        <ele>1371.94</ele>
        <time>2019-04-07T14:21:25Z</time>
      </trkpt>
      <trkpt lat="60.56999" lon="7.48409">
        <ele>1374.34</ele>
        <time>2019-04-07T14:21:30Z</time>
      </trkpt>
      <trkpt lat="60.56996" lon="7.48396">
        <ele>1376.26</ele>
        <time>2019-04-07T14:21:34Z</time>
      </trkpt>
      <trkpt lat="60.56994" lon="7.48386">
        <ele>1376.75</ele>
        <time>2019-04-07T14:21:39Z</time>
      </trkpt>
      <trkpt lat="60.56993" lon="7.48384">
        <ele>1377.23</ele>
        <time>2019-04-07T14:21:41Z</time>
      </trkpt>
      <trkpt lat="60.56992" lon="7.48374">
        <ele>1380.11</ele>
        <time>2019-04-07T14:21:49Z</time>
      </trkpt>
      <trkpt lat="60.56991" lon="7.48369">
        <ele>1381.07</ele>
        <time>2019-04-07T14:21:53Z</time>
      </trkpt>
      <trkpt lat="60.56989" lon="7.4836">
        <ele>1382.99</ele>
        <time>2019-04-07T14:21:58Z</time>
      </trkpt>
      <trkpt lat="60.56986" lon="7.4834">
        <ele>1386.36</ele>
        <time>2019-04-07T14:22:06Z</time>
      </trkpt>
      <trkpt lat="60.56986" lon="7.4834">
        <ele>1386.36</ele>
        <time>2019-04-07T14:22:07Z</time>
      </trkpt>
      <trkpt lat="60.56983" lon="7.48335">
        <ele>1387.32</ele>
        <time>2019-04-07T14:22:12Z</time>
      </trkpt>
      <trkpt lat="60.56982" lon="7.48328">
        <ele>1388.76</ele>
        <time>2019-04-07T14:22:17Z</time>
      </trkpt>
      <trkpt lat="60.56979" lon="7.48319">
        <ele>1390.2</ele>
        <time>2019-04-07T14:22:21Z</time>
      </trkpt>
      <trkpt lat="60.56976" lon="7.48307">
        <ele>1392.13</ele>
        <time>2019-04-07T14:22:26Z</time>
      </trkpt>
      <trkpt lat="60.56972" lon="7.48292">
        <ele>1394.05</ele>
        <time>2019-04-07T14:22:30Z</time>
      </trkpt>
      <trkpt lat="60.56961" lon="7.4826">
        <ele>1397.41</ele>
        <time>2019-04-07T14:22:39Z</time>
      </trkpt>
      <trkpt lat="60.5696" lon="7.48255">
        <ele>1397.89</ele>
        <time>2019-04-07T14:22:41Z</time>
      </trkpt>
      <trkpt lat="60.56957" lon="7.48247">
        <ele>1399.34</ele>
        <time>2019-04-07T14:22:43Z</time>
      </trkpt>
      <trkpt lat="60.56953" lon="7.48224">
        <ele>1402.7</ele>
        <time>2019-04-07T14:22:49Z</time>
      </trkpt>
      <trkpt lat="60.56949" lon="7.48209">
        <ele>1405.1</ele>
        <time>2019-04-07T14:22:53Z</time>
      </trkpt>
      <trkpt lat="60.56949" lon="7.48186">
        <ele>1407.51</ele>
        <time>2019-04-07T14:22:59Z</time>
      </trkpt>
      <trkpt lat="60.56953" lon="7.48163">
        <ele>1408.95</ele>
        <time>2019-04-07T14:23:02Z</time>
      </trkpt>
      <trkpt lat="60.56964" lon="7.48127">
        <ele>1409.43</ele>
        <time>2019-04-07T14:23:09Z</time>
      </trkpt>
      <trkpt lat="60.56966" lon="7.48113">
        <ele>1410.39</ele>
        <time>2019-04-07T14:23:13Z</time>
      </trkpt>
      <trkpt lat="60.56965" lon="7.48097">
        <ele>1411.35</ele>
        <time>2019-04-07T14:23:17Z</time>
      </trkpt>
      <trkpt lat="60.56962" lon="7.48077">
        <ele>1414.24</ele>
        <time>2019-04-07T14:23:23Z</time>
      </trkpt>
      <trkpt lat="60.56956" lon="7.48041">
        <ele>1415.2</ele>
        <time>2019-04-07T14:23:30Z</time>
      </trkpt>
      <trkpt lat="60.5695" lon="7.48005">
        <ele>1416.64</ele>
        <time>2019-04-07T14:23:38Z</time>
      </trkpt>
      <trkpt lat="60.56944" lon="7.47964">
        <ele>1417.12</ele>
        <time>2019-04-07T14:23:47Z</time>
      </trkpt>
      <trkpt lat="60.56932" lon="7.47925">
        <ele>1418.56</ele>
        <time>2019-04-07T14:23:56Z</time>
      </trkpt>
      <trkpt lat="60.5692" lon="7.4788">
        <ele>1420</ele>
        <time>2019-04-07T14:24:05Z</time>
      </trkpt>
      <trkpt lat="60.56916" lon="7.47862">
        <ele>1420.49</ele>
        <time>2019-04-07T14:24:10Z</time>
      </trkpt>
      <trkpt lat="60.5691" lon="7.4785">
        <ele>1420.97</ele>
        <time>2019-04-07T14:24:14Z</time>
      </trkpt>
      <trkpt lat="60.56898" lon="7.47829">
        <ele>1421.93</ele>
        <time>2019-04-07T14:24:22Z</time>
      </trkpt>
      <trkpt lat="60.56881" lon="7.47786">
        <ele>1421.93</ele>
        <time>2019-04-07T14:24:33Z</time>
      </trkpt>
      <trkpt lat="60.56874" lon="7.47755">
        <ele>1422.41</ele>
        <time>2019-04-07T14:24:41Z</time>
      </trkpt>
      <trkpt lat="60.56877" lon="7.47745">
        <ele>1422.41</ele>
        <time>2019-04-07T14:24:44Z</time>
      </trkpt>
      <trkpt lat="60.56877" lon="7.4774">
        <ele>1420.97</ele>
        <time>2019-04-07T14:24:46Z</time>
      </trkpt>
      <trkpt lat="60.56868" lon="7.47701">
        <ele>1420</ele>
        <time>2019-04-07T14:24:56Z</time>
      </trkpt>
      <trkpt lat="60.56859" lon="7.47663">
        <ele>1419.52</ele>
        <time>2019-04-07T14:25:05Z</time>
      </trkpt>
      <trkpt lat="60.56845" lon="7.47623">
        <ele>1418.08</ele>
        <time>2019-04-07T14:25:14Z</time>
      </trkpt>
      <trkpt lat="60.56841" lon="7.47612">
        <ele>1418.08</ele>
        <time>2019-04-07T14:25:17Z</time>
      </trkpt>
      <trkpt lat="60.56833" lon="7.47601">
        <ele>1418.08</ele>
        <time>2019-04-07T14:25:21Z</time>
      </trkpt>
      <trkpt lat="60.56832" lon="7.47598">
        <ele>1418.08</ele>
        <time>2019-04-07T14:25:24Z</time>
      </trkpt>
      <trkpt lat="60.56828" lon="7.47571">
        <ele>1417.12</ele>
        <time>2019-04-07T14:25:33Z</time>
      </trkpt>
      <trkpt lat="60.56828" lon="7.47567">
        <ele>1416.64</ele>
        <time>2019-04-07T14:25:34Z</time>
      </trkpt>
      <trkpt lat="60.5682" lon="7.47536">
        <ele>1414.72</ele>
        <time>2019-04-07T14:25:47Z</time>
      </trkpt>
      <trkpt lat="60.5682" lon="7.47534">
        <ele>1414.72</ele>
        <time>2019-04-07T14:25:48Z</time>
      </trkpt>
      <trkpt lat="60.56814" lon="7.4751">
        <ele>1413.76</ele>
        <time>2019-04-07T14:25:58Z</time>
      </trkpt>
      <trkpt lat="60.56813" lon="7.47507">
        <ele>1413.76</ele>
        <time>2019-04-07T14:26:01Z</time>
      </trkpt>
      <trkpt lat="60.56798" lon="7.47476">
        <ele>1413.28</ele>
        <time>2019-04-07T14:26:10Z</time>
      </trkpt>
      <trkpt lat="60.56796" lon="7.47472">
        <ele>1413.28</ele>
        <time>2019-04-07T14:26:13Z</time>
      </trkpt>
      <trkpt lat="60.56793" lon="7.47462">
        <ele>1413.28</ele>
        <time>2019-04-07T14:26:20Z</time>
      </trkpt>
      <trkpt lat="60.56791" lon="7.47451">
        <ele>1412.79</ele>
        <time>2019-04-07T14:26:25Z</time>
      </trkpt>
      <trkpt lat="60.56789" lon="7.47447">
        <ele>1412.31</ele>
        <time>2019-04-07T14:26:37Z</time>
      </trkpt>
      <trkpt lat="60.56785" lon="7.47432">
        <ele>1412.31</ele>
        <time>2019-04-07T14:26:46Z</time>
      </trkpt>
      <trkpt lat="60.56783" lon="7.47427">
        <ele>1412.31</ele>
        <time>2019-04-07T14:26:50Z</time>
      </trkpt>
      <trkpt lat="60.5678" lon="7.47418">
        <ele>1413.76</ele>
        <time>2019-04-07T14:26:55Z</time>
      </trkpt>
      <trkpt lat="60.56776" lon="7.47405">
        <ele>1414.72</ele>
        <time>2019-04-07T14:27:05Z</time>
      </trkpt>
      <trkpt lat="60.56773" lon="7.47397">
        <ele>1415.2</ele>
        <time>2019-04-07T14:27:12Z</time>
      </trkpt>
      <trkpt lat="60.5677" lon="7.47392">
        <ele>1415.68</ele>
        <time>2019-04-07T14:27:23Z</time>
      </trkpt>
      <trkpt lat="60.56767" lon="7.47384">
        <ele>1416.16</ele>
        <time>2019-04-07T14:27:34Z</time>
      </trkpt>
      <trkpt lat="60.56765" lon="7.4738">
        <ele>1416.64</ele>
        <time>2019-04-07T14:27:41Z</time>
      </trkpt>
      <trkpt lat="60.56766" lon="7.4737">
        <ele>1417.12</ele>
        <time>2019-04-07T14:27:48Z</time>
      </trkpt>
      <trkpt lat="60.56762" lon="7.47361">
        <ele>1417.6</ele>
        <time>2019-04-07T14:27:53Z</time>
      </trkpt>
      <trkpt lat="60.56761" lon="7.47354">
        <ele>1418.08</ele>
        <time>2019-04-07T14:27:58Z</time>
      </trkpt>
      <trkpt lat="60.56758" lon="7.47342">
        <ele>1419.52</ele>
        <time>2019-04-07T14:28:03Z</time>
      </trkpt>
      <trkpt lat="60.56757" lon="7.47328">
        <ele>1420</ele>
        <time>2019-04-07T14:28:10Z</time>
      </trkpt>
      <trkpt lat="60.56753" lon="7.47316">
        <ele>1420.97</ele>
        <time>2019-04-07T14:28:15Z</time>
      </trkpt>
      <trkpt lat="60.56753" lon="7.47291">
        <ele>1421.93</ele>
        <time>2019-04-07T14:28:23Z</time>
      </trkpt>
      <trkpt lat="60.5675" lon="7.47277">
        <ele>1422.89</ele>
        <time>2019-04-07T14:28:28Z</time>
      </trkpt>
      <trkpt lat="60.56745" lon="7.47261">
        <ele>1424.33</ele>
        <time>2019-04-07T14:28:37Z</time>
      </trkpt>
      <trkpt lat="60.56743" lon="7.47256">
        <ele>1424.81</ele>
        <time>2019-04-07T14:28:45Z</time>
      </trkpt>
      <trkpt lat="60.5674" lon="7.4725">
        <ele>1425.29</ele>
        <time>2019-04-07T14:28:56Z</time>
      </trkpt>
      <trkpt lat="60.5674" lon="7.47249">
        <ele>1426.25</ele>
        <time>2019-04-07T14:28:59Z</time>
      </trkpt>
      <trkpt lat="60.56744" lon="7.47256">
        <ele>1425.29</ele>
        <time>2019-04-07T14:29:04Z</time>
      </trkpt>
      <trkpt lat="60.56743" lon="7.47252">
        <ele>1424.33</ele>
        <time>2019-04-07T14:29:19Z</time>
      </trkpt>
      <trkpt lat="60.56741" lon="7.47244">
        <ele>1425.77</ele>
        <time>2019-04-07T14:29:25Z</time>
      </trkpt>
      <trkpt lat="60.5674" lon="7.47242">
        <ele>1426.25</ele>
        <time>2019-04-07T14:29:30Z</time>
      </trkpt>
      <trkpt lat="60.56738" lon="7.47235">
        <ele>1426.73</ele>
        <time>2019-04-07T14:29:35Z</time>
      </trkpt>
      <trkpt lat="60.56737" lon="7.47221">
        <ele>1427.21</ele>
        <time>2019-04-07T14:29:42Z</time>
      </trkpt>
      <trkpt lat="60.56734" lon="7.47216">
        <ele>1427.7</ele>
        <time>2019-04-07T14:29:47Z</time>
      </trkpt>
      <trkpt lat="60.56733" lon="7.47205">
        <ele>1428.66</ele>
        <time>2019-04-07T14:29:53Z</time>
      </trkpt>
      <trkpt lat="60.56728" lon="7.47198">
        <ele>1429.62</ele>
        <time>2019-04-07T14:29:59Z</time>
      </trkpt>
      <trkpt lat="60.56723" lon="7.47191">
        <ele>1430.58</ele>
        <time>2019-04-07T14:30:06Z</time>
      </trkpt>
      <trkpt lat="60.56718" lon="7.47181">
        <ele>1432.02</ele>
        <time>2019-04-07T14:30:13Z</time>
      </trkpt>
      <trkpt lat="60.56713" lon="7.47173">
        <ele>1432.5</ele>
        <time>2019-04-07T14:30:18Z</time>
      </trkpt>
      <trkpt lat="60.56709" lon="7.47165">
        <ele>1433.46</ele>
        <time>2019-04-07T14:30:23Z</time>
      </trkpt>
      <trkpt lat="60.56704" lon="7.47142">
        <ele>1435.39</ele>
        <time>2019-04-07T14:30:32Z</time>
      </trkpt>
      <trkpt lat="60.56704" lon="7.47142">
        <ele>1435.39</ele>
        <time>2019-04-07T14:30:34Z</time>
      </trkpt>
      <trkpt lat="60.56701" lon="7.4713">
        <ele>1436.35</ele>
        <time>2019-04-07T14:30:40Z</time>
      </trkpt>
      <trkpt lat="60.56698" lon="7.47125">
        <ele>1437.31</ele>
        <time>2019-04-07T14:30:45Z</time>
      </trkpt>
      <trkpt lat="60.56694" lon="7.47117">
        <ele>1438.27</ele>
        <time>2019-04-07T14:30:50Z</time>
      </trkpt>
      <trkpt lat="60.56688" lon="7.47107">
        <ele>1439.23</ele>
        <time>2019-04-07T14:30:56Z</time>
      </trkpt>
      <trkpt lat="60.56687" lon="7.47104">
        <ele>1440.19</ele>
        <time>2019-04-07T14:31:00Z</time>
      </trkpt>
      <trkpt lat="60.5668" lon="7.47095">
        <ele>1441.63</ele>
        <time>2019-04-07T14:31:06Z</time>
      </trkpt>
      <trkpt lat="60.56678" lon="7.47088">
        <ele>1442.11</ele>
        <time>2019-04-07T14:31:12Z</time>
      </trkpt>
      <trkpt lat="60.56674" lon="7.47084">
        <ele>1442.6</ele>
        <time>2019-04-07T14:31:17Z</time>
      </trkpt>
      <trkpt lat="60.56669" lon="7.47073">
        <ele>1444.04</ele>
        <time>2019-04-07T14:31:28Z</time>
      </trkpt>
      <trkpt lat="60.56668" lon="7.47072">
        <ele>1444.04</ele>
        <time>2019-04-07T14:31:29Z</time>
      </trkpt>
      <trkpt lat="60.56664" lon="7.4707">
        <ele>1445</ele>
        <time>2019-04-07T14:31:34Z</time>
      </trkpt>
      <trkpt lat="60.56662" lon="7.47064">
        <ele>1445.48</ele>
        <time>2019-04-07T14:31:40Z</time>
      </trkpt>
      <trkpt lat="60.56655" lon="7.4705">
        <ele>1446.92</ele>
        <time>2019-04-07T14:31:48Z</time>
      </trkpt>
      <trkpt lat="60.56654" lon="7.47049">
        <ele>1447.4</ele>
        <time>2019-04-07T14:31:51Z</time>
      </trkpt>
      <trkpt lat="60.56651" lon="7.47044">
        <ele>1448.36</ele>
        <time>2019-04-07T14:31:56Z</time>
      </trkpt>
      <trkpt lat="60.56649" lon="7.47039">
        <ele>1449.32</ele>
        <time>2019-04-07T14:32:02Z</time>
      </trkpt>
      <trkpt lat="60.56643" lon="7.4703">
        <ele>1449.81</ele>
        <time>2019-04-07T14:32:08Z</time>
      </trkpt>
      <trkpt lat="60.56637" lon="7.47022">
        <ele>1451.25</ele>
        <time>2019-04-07T14:32:19Z</time>
      </trkpt>
      <trkpt lat="60.56637" lon="7.47022">
        <ele>1451.25</ele>
        <time>2019-04-07T14:32:20Z</time>
      </trkpt>
      <trkpt lat="60.56636" lon="7.47018">
        <ele>1452.69</ele>
        <time>2019-04-07T14:32:24Z</time>
      </trkpt>
      <trkpt lat="60.56639" lon="7.4702">
        <ele>1452.69</ele>
        <time>2019-04-07T14:32:27Z</time>
      </trkpt>
      <trkpt lat="60.56637" lon="7.47017">
        <ele>1451.25</ele>
        <time>2019-04-07T14:32:29Z</time>
      </trkpt>
      <trkpt lat="60.56637" lon="7.47019">
        <ele>1451.25</ele>
        <time>2019-04-07T14:32:32Z</time>
      </trkpt>
      <trkpt lat="60.56635" lon="7.47014">
        <ele>1451.25</ele>
        <time>2019-04-07T14:32:44Z</time>
      </trkpt>
      <trkpt lat="60.56636" lon="7.47015">
        <ele>1451.25</ele>
        <time>2019-04-07T14:32:46Z</time>
      </trkpt>
      <trkpt lat="60.56633" lon="7.4701">
        <ele>1452.69</ele>
        <time>2019-04-07T14:32:56Z</time>
      </trkpt>
      <trkpt lat="60.56633" lon="7.4701">
        <ele>1452.69</ele>
        <time>2019-04-07T14:32:57Z</time>
      </trkpt>
      <trkpt lat="60.56629" lon="7.47006">
        <ele>1453.65</ele>
        <time>2019-04-07T14:33:02Z</time>
      </trkpt>
      <trkpt lat="60.56623" lon="7.46997">
        <ele>1455.09</ele>
        <time>2019-04-07T14:33:07Z</time>
      </trkpt>
      <trkpt lat="60.56616" lon="7.46993">
        <ele>1456.05</ele>
        <time>2019-04-07T14:33:12Z</time>
      </trkpt>
      <trkpt lat="60.56613" lon="7.46988">
        <ele>1457.02</ele>
        <time>2019-04-07T14:33:18Z</time>
      </trkpt>
      <trkpt lat="60.56609" lon="7.46979">
        <ele>1457.98</ele>
        <time>2019-04-07T14:33:23Z</time>
      </trkpt>
      <trkpt lat="60.56606" lon="7.46977">
        <ele>1458.46</ele>
        <time>2019-04-07T14:33:30Z</time>
      </trkpt>
      <trkpt lat="60.56601" lon="7.46975">
        <ele>1458.94</ele>
        <time>2019-04-07T14:33:35Z</time>
      </trkpt>
      <trkpt lat="60.56599" lon="7.46973">
        <ele>1459.42</ele>
        <time>2019-04-07T14:33:42Z</time>
      </trkpt>
      <trkpt lat="60.56599" lon="7.46975">
        <ele>1459.42</ele>
        <time>2019-04-07T14:33:52Z</time>
      </trkpt>
      <trkpt lat="60.566" lon="7.46975">
        <ele>1459.42</ele>
        <time>2019-04-07T14:34:03Z</time>
      </trkpt>
      <trkpt lat="60.566" lon="7.46976">
        <ele>1459.42</ele>
        <time>2019-04-07T14:34:05Z</time>
      </trkpt>
      <trkpt lat="60.56597" lon="7.46974">
        <ele>1459.42</ele>
        <time>2019-04-07T14:34:12Z</time>
      </trkpt>
      <trkpt lat="60.56595" lon="7.46972">
        <ele>1459.9</ele>
        <time>2019-04-07T14:34:16Z</time>
      </trkpt>
      <trkpt lat="60.56593" lon="7.46969">
        <ele>1460.38</ele>
        <time>2019-04-07T14:34:23Z</time>
      </trkpt>
      <trkpt lat="60.56591" lon="7.46966">
        <ele>1460.86</ele>
        <time>2019-04-07T14:34:26Z</time>
      </trkpt>
      <trkpt lat="60.56588" lon="7.4696">
        <ele>1461.82</ele>
        <time>2019-04-07T14:34:32Z</time>
      </trkpt>
      <trkpt lat="60.56584" lon="7.46955">
        <ele>1462.3</ele>
        <time>2019-04-07T14:34:42Z</time>
      </trkpt>
      <trkpt lat="60.56583" lon="7.46955">
        <ele>1462.3</ele>
        <time>2019-04-07T14:34:49Z</time>
      </trkpt>
      <trkpt lat="60.56583" lon="7.46947">
        <ele>1462.78</ele>
        <time>2019-04-07T14:34:55Z</time>
      </trkpt>
      <trkpt lat="60.56581" lon="7.46942">
        <ele>1463.26</ele>
        <time>2019-04-07T14:35:00Z</time>
      </trkpt>
      <trkpt lat="60.5658" lon="7.46939">
        <ele>1463.74</ele>
        <time>2019-04-07T14:35:03Z</time>
      </trkpt>
      <trkpt lat="60.56582" lon="7.4694">
        <ele>1463.74</ele>
        <time>2019-04-07T14:35:11Z</time>
      </trkpt>
      <trkpt lat="60.56581" lon="7.46938">
        <ele>1463.74</ele>
        <time>2019-04-07T14:35:16Z</time>
      </trkpt>
      <trkpt lat="60.56575" lon="7.46929">
        <ele>1465.19</ele>
        <time>2019-04-07T14:35:26Z</time>
      </trkpt>
      <trkpt lat="60.56572" lon="7.46924">
        <ele>1465.67</ele>
        <time>2019-04-07T14:35:34Z</time>
      </trkpt>
      <trkpt lat="60.56568" lon="7.46915">
        <ele>1467.11</ele>
        <time>2019-04-07T14:35:39Z</time>
      </trkpt>
      <trkpt lat="60.56561" lon="7.469">
        <ele>1468.55</ele>
        <time>2019-04-07T14:35:48Z</time>
      </trkpt>
      <trkpt lat="60.56555" lon="7.46894">
        <ele>1469.99</ele>
        <time>2019-04-07T14:35:54Z</time>
      </trkpt>
      <trkpt lat="60.56552" lon="7.46884">
        <ele>1470.95</ele>
        <time>2019-04-07T14:36:00Z</time>
      </trkpt>
      <trkpt lat="60.56551" lon="7.46879">
        <ele>1471.44</ele>
        <time>2019-04-07T14:36:05Z</time>
      </trkpt>
      <trkpt lat="60.56552" lon="7.46881">
        <ele>1471.44</ele>
        <time>2019-04-07T14:36:11Z</time>
      </trkpt>
      <trkpt lat="60.56549" lon="7.46879">
        <ele>1471.44</ele>
        <time>2019-04-07T14:36:22Z</time>
      </trkpt>
      <trkpt lat="60.5655" lon="7.46879">
        <ele>1471.44</ele>
        <time>2019-04-07T14:36:29Z</time>
      </trkpt>
      <trkpt lat="60.56545" lon="7.46862">
        <ele>1472.88</ele>
        <time>2019-04-07T14:36:38Z</time>
      </trkpt>
      <trkpt lat="60.56542" lon="7.46852">
        <ele>1473.36</ele>
        <time>2019-04-07T14:36:42Z</time>
      </trkpt>
      <trkpt lat="60.56537" lon="7.46843">
        <ele>1474.8</ele>
        <time>2019-04-07T14:36:48Z</time>
      </trkpt>
      <trkpt lat="60.56533" lon="7.46827">
        <ele>1475.76</ele>
        <time>2019-04-07T14:36:53Z</time>
      </trkpt>
      <trkpt lat="60.56529" lon="7.46822">
        <ele>1477.2</ele>
        <time>2019-04-07T14:36:58Z</time>
      </trkpt>
      <trkpt lat="60.56527" lon="7.46817">
        <ele>1477.68</ele>
        <time>2019-04-07T14:37:03Z</time>
      </trkpt>
      <trkpt lat="60.56525" lon="7.46811">
        <ele>1478.16</ele>
        <time>2019-04-07T14:37:07Z</time>
      </trkpt>
      <trkpt lat="60.56524" lon="7.46805">
        <ele>1478.65</ele>
        <time>2019-04-07T14:37:12Z</time>
      </trkpt>
      <trkpt lat="60.56519" lon="7.46801">
        <ele>1479.61</ele>
        <time>2019-04-07T14:37:18Z</time>
      </trkpt>
      <trkpt lat="60.56516" lon="7.46789">
        <ele>1480.57</ele>
        <time>2019-04-07T14:37:28Z</time>
      </trkpt>
      <trkpt lat="60.56516" lon="7.4679">
        <ele>1480.57</ele>
        <time>2019-04-07T14:37:36Z</time>
      </trkpt>
      <trkpt lat="60.56514" lon="7.46786">
        <ele>1480.57</ele>
        <time>2019-04-07T14:37:42Z</time>
      </trkpt>
      <trkpt lat="60.56512" lon="7.46778">
        <ele>1481.53</ele>
        <time>2019-04-07T14:37:52Z</time>
      </trkpt>
      <trkpt lat="60.56512" lon="7.46776">
        <ele>1481.53</ele>
        <time>2019-04-07T14:37:55Z</time>
      </trkpt>
      <trkpt lat="60.56513" lon="7.46773">
        <ele>1481.53</ele>
        <time>2019-04-07T14:38:06Z</time>
      </trkpt>
      <trkpt lat="60.56513" lon="7.46771">
        <ele>1481.53</ele>
        <time>2019-04-07T14:38:17Z</time>
      </trkpt>
      <trkpt lat="60.56515" lon="7.46766">
        <ele>1481.53</ele>
        <time>2019-04-07T14:38:21Z</time>
      </trkpt>
      <trkpt lat="60.56511" lon="7.4676">
        <ele>1482.01</ele>
        <time>2019-04-07T14:38:26Z</time>
      </trkpt>
      <trkpt lat="60.56511" lon="7.46752">
        <ele>1482.97</ele>
        <time>2019-04-07T14:38:30Z</time>
      </trkpt>
      <trkpt lat="60.56506" lon="7.46745">
        <ele>1483.93</ele>
        <time>2019-04-07T14:38:35Z</time>
      </trkpt>
      <trkpt lat="60.56507" lon="7.46733">
        <ele>1484.89</ele>
        <time>2019-04-07T14:38:40Z</time>
      </trkpt>
      <trkpt lat="60.56502" lon="7.46726">
        <ele>1485.37</ele>
        <time>2019-04-07T14:38:46Z</time>
      </trkpt>
      <trkpt lat="60.56501" lon="7.46714">
        <ele>1486.34</ele>
        <time>2019-04-07T14:38:50Z</time>
      </trkpt>
      <trkpt lat="60.56497" lon="7.46703">
        <ele>1486.82</ele>
        <time>2019-04-07T14:38:55Z</time>
      </trkpt>
      <trkpt lat="60.56497" lon="7.46686">
        <ele>1488.26</ele>
        <time>2019-04-07T14:39:01Z</time>
      </trkpt>
      <trkpt lat="60.56493" lon="7.46678">
        <ele>1489.22</ele>
        <time>2019-04-07T14:39:06Z</time>
      </trkpt>
      <trkpt lat="60.56492" lon="7.46673">
        <ele>1489.22</ele>
        <time>2019-04-07T14:39:10Z</time>
      </trkpt>
      <trkpt lat="60.56489" lon="7.46666">
        <ele>1490.18</ele>
        <time>2019-04-07T14:39:17Z</time>
      </trkpt>
      <trkpt lat="60.5648" lon="7.46641">
        <ele>1491.62</ele>
        <time>2019-04-07T14:39:28Z</time>
      </trkpt>
      <trkpt lat="60.5648" lon="7.4664">
        <ele>1492.1</ele>
        <time>2019-04-07T14:39:32Z</time>
      </trkpt>
      <trkpt lat="60.56474" lon="7.46627">
        <ele>1493.55</ele>
        <time>2019-04-07T14:39:41Z</time>
      </trkpt>
      <trkpt lat="60.5647" lon="7.46618">
        <ele>1494.03</ele>
        <time>2019-04-07T14:39:47Z</time>
      </trkpt>
      <trkpt lat="60.56469" lon="7.4661">
        <ele>1494.03</ele>
        <time>2019-04-07T14:39:51Z</time>
      </trkpt>
      <trkpt lat="60.56463" lon="7.46599">
        <ele>1494.99</ele>
        <time>2019-04-07T14:39:58Z</time>
      </trkpt>
      <trkpt lat="60.56462" lon="7.46593">
        <ele>1494.99</ele>
        <time>2019-04-07T14:40:02Z</time>
      </trkpt>
      <trkpt lat="60.56458" lon="7.46584">
        <ele>1496.43</ele>
        <time>2019-04-07T14:40:09Z</time>
      </trkpt>
      <trkpt lat="60.56454" lon="7.46574">
        <ele>1496.43</ele>
        <time>2019-04-07T14:40:18Z</time>
      </trkpt>
      <trkpt lat="60.56449" lon="7.46567">
        <ele>1496.91</ele>
        <time>2019-04-07T14:40:29Z</time>
      </trkpt>
      <trkpt lat="60.56449" lon="7.46567">
        <ele>1496.91</ele>
        <time>2019-04-07T14:40:30Z</time>
      </trkpt>
      <trkpt lat="60.56447" lon="7.46561">
        <ele>1497.39</ele>
        <time>2019-04-07T14:40:39Z</time>
      </trkpt>
      <trkpt lat="60.56443" lon="7.46552">
        <ele>1497.87</ele>
        <time>2019-04-07T14:40:49Z</time>
      </trkpt>
      <trkpt lat="60.56443" lon="7.46552">
        <ele>1497.87</ele>
        <time>2019-04-07T14:40:50Z</time>
      </trkpt>
      <trkpt lat="60.56442" lon="7.46543">
        <ele>1498.35</ele>
        <time>2019-04-07T14:40:58Z</time>
      </trkpt>
      <trkpt lat="60.56439" lon="7.46529">
        <ele>1499.31</ele>
        <time>2019-04-07T14:41:10Z</time>
      </trkpt>
      <trkpt lat="60.56434" lon="7.46523">
        <ele>1499.79</ele>
        <time>2019-04-07T14:41:20Z</time>
      </trkpt>
      <trkpt lat="60.5643" lon="7.46514">
        <ele>1500.27</ele>
        <time>2019-04-07T14:41:26Z</time>
      </trkpt>
      <trkpt lat="60.5643" lon="7.46508">
        <ele>1500.76</ele>
        <time>2019-04-07T14:41:30Z</time>
      </trkpt>
      <trkpt lat="60.56421" lon="7.46492">
        <ele>1501.72</ele>
        <time>2019-04-07T14:41:41Z</time>
      </trkpt>
      <trkpt lat="60.56419" lon="7.46485">
        <ele>1502.2</ele>
        <time>2019-04-07T14:41:48Z</time>
      </trkpt>
      <trkpt lat="60.56415" lon="7.46472">
        <ele>1503.16</ele>
        <time>2019-04-07T14:41:55Z</time>
      </trkpt>
      <trkpt lat="60.56414" lon="7.46461">
        <ele>1503.16</ele>
        <time>2019-04-07T14:41:59Z</time>
      </trkpt>
      <trkpt lat="60.56408" lon="7.46443">
        <ele>1504.6</ele>
        <time>2019-04-07T14:42:05Z</time>
      </trkpt>
      <trkpt lat="60.56401" lon="7.46429">
        <ele>1505.56</ele>
        <time>2019-04-07T14:42:13Z</time>
      </trkpt>
      <trkpt lat="60.56395" lon="7.46406">
        <ele>1507</ele>
        <time>2019-04-07T14:42:23Z</time>
      </trkpt>
      <trkpt lat="60.56392" lon="7.46397">
        <ele>1507.97</ele>
        <time>2019-04-07T14:42:30Z</time>
      </trkpt>
      <trkpt lat="60.56387" lon="7.46385">
        <ele>1508.45</ele>
        <time>2019-04-07T14:42:39Z</time>
      </trkpt>
      <trkpt lat="60.56383" lon="7.46373">
        <ele>1509.41</ele>
        <time>2019-04-07T14:42:49Z</time>
      </trkpt>
      <trkpt lat="60.5638" lon="7.46364">
        <ele>1510.37</ele>
        <time>2019-04-07T14:42:59Z</time>
      </trkpt>
      <trkpt lat="60.56378" lon="7.46351">
        <ele>1510.85</ele>
        <time>2019-04-07T14:43:06Z</time>
      </trkpt>
      <trkpt lat="60.56374" lon="7.46341">
        <ele>1511.33</ele>
        <time>2019-04-07T14:43:12Z</time>
      </trkpt>
      <trkpt lat="60.56372" lon="7.46319">
        <ele>1513.25</ele>
        <time>2019-04-07T14:43:18Z</time>
      </trkpt>
      <trkpt lat="60.56363" lon="7.46282">
        <ele>1515.66</ele>
        <time>2019-04-07T14:43:28Z</time>
      </trkpt>
      <trkpt lat="60.56357" lon="7.46252">
        <ele>1517.58</ele>
        <time>2019-04-07T14:43:38Z</time>
      </trkpt>
      <trkpt lat="60.56356" lon="7.4624">
        <ele>1518.06</ele>
        <time>2019-04-07T14:43:42Z</time>
      </trkpt>
      <trkpt lat="60.56348" lon="7.4621">
        <ele>1520.94</ele>
        <time>2019-04-07T14:43:50Z</time>
      </trkpt>
      <trkpt lat="60.56347" lon="7.46206">
        <ele>1520.94</ele>
        <time>2019-04-07T14:43:52Z</time>
      </trkpt>
      <trkpt lat="60.56344" lon="7.46201">
        <ele>1521.42</ele>
        <time>2019-04-07T14:43:54Z</time>
      </trkpt>
      <trkpt lat="60.56342" lon="7.4619">
        <ele>1522.39</ele>
        <time>2019-04-07T14:43:59Z</time>
      </trkpt>
      <trkpt lat="60.56338" lon="7.46181">
        <ele>1523.83</ele>
        <time>2019-04-07T14:44:05Z</time>
      </trkpt>
      <trkpt lat="60.56336" lon="7.46164">
        <ele>1524.31</ele>
        <time>2019-04-07T14:44:11Z</time>
      </trkpt>
      <trkpt lat="60.56333" lon="7.46153">
        <ele>1525.75</ele>
        <time>2019-04-07T14:44:17Z</time>
      </trkpt>
      <trkpt lat="60.5633" lon="7.4614">
        <ele>1526.23</ele>
        <time>2019-04-07T14:44:21Z</time>
      </trkpt>
      <trkpt lat="60.56322" lon="7.46119">
        <ele>1528.15</ele>
        <time>2019-04-07T14:44:30Z</time>
      </trkpt>
      <trkpt lat="60.56315" lon="7.46093">
        <ele>1530.08</ele>
        <time>2019-04-07T14:44:40Z</time>
      </trkpt>
      <trkpt lat="60.5631" lon="7.46064">
        <ele>1532</ele>
        <time>2019-04-07T14:44:48Z</time>
      </trkpt>
      <trkpt lat="60.56306" lon="7.46046">
        <ele>1533.44</ele>
        <time>2019-04-07T14:44:56Z</time>
      </trkpt>
      <trkpt lat="60.56302" lon="7.46038">
        <ele>1533.92</ele>
        <time>2019-04-07T14:45:08Z</time>
      </trkpt>
      <trkpt lat="60.563" lon="7.46032">
        <ele>1534.88</ele>
        <time>2019-04-07T14:45:14Z</time>
      </trkpt>
      <trkpt lat="60.56298" lon="7.46007">
        <ele>1535.84</ele>
        <time>2019-04-07T14:45:24Z</time>
      </trkpt>
      <trkpt lat="60.56298" lon="7.46003">
        <ele>1536.32</ele>
        <time>2019-04-07T14:45:28Z</time>
      </trkpt>
      <trkpt lat="60.56296" lon="7.45993">
        <ele>1537.29</ele>
        <time>2019-04-07T14:45:34Z</time>
      </trkpt>
      <trkpt lat="60.56297" lon="7.45986">
        <ele>1537.77</ele>
        <time>2019-04-07T14:45:38Z</time>
      </trkpt>
      <trkpt lat="60.56293" lon="7.45974">
        <ele>1538.25</ele>
        <time>2019-04-07T14:45:47Z</time>
      </trkpt>
      <trkpt lat="60.56293" lon="7.45974">
        <ele>1538.25</ele>
        <time>2019-04-07T14:45:48Z</time>
      </trkpt>
      <trkpt lat="60.5629" lon="7.45966">
        <ele>1539.21</ele>
        <time>2019-04-07T14:45:54Z</time>
      </trkpt>
      <trkpt lat="60.5629" lon="7.45952">
        <ele>1539.21</ele>
        <time>2019-04-07T14:45:59Z</time>
      </trkpt>
      <trkpt lat="60.56284" lon="7.45938">
        <ele>1540.65</ele>
        <time>2019-04-07T14:46:07Z</time>
      </trkpt>
      <trkpt lat="60.56278" lon="7.45925">
        <ele>1541.13</ele>
        <time>2019-04-07T14:46:13Z</time>
      </trkpt>
      <trkpt lat="60.56278" lon="7.4592">
        <ele>1541.13</ele>
        <time>2019-04-07T14:46:16Z</time>
      </trkpt>
      <trkpt lat="60.56273" lon="7.45912">
        <ele>1542.09</ele>
        <time>2019-04-07T14:46:24Z</time>
      </trkpt>
      <trkpt lat="60.56273" lon="7.45912">
        <ele>1542.09</ele>
        <time>2019-04-07T14:46:29Z</time>
      </trkpt>
      <trkpt lat="60.56273" lon="7.45909">
        <ele>1542.57</ele>
        <time>2019-04-07T14:46:39Z</time>
      </trkpt>
      <trkpt lat="60.56273" lon="7.45911">
        <ele>1542.57</ele>
        <time>2019-04-07T14:46:46Z</time>
      </trkpt>
      <trkpt lat="60.56274" lon="7.45921">
        <ele>1541.13</ele>
        <time>2019-04-07T14:46:51Z</time>
      </trkpt>
      <trkpt lat="60.56274" lon="7.45927">
        <ele>1540.65</ele>
        <time>2019-04-07T14:47:02Z</time>
      </trkpt>
      <trkpt lat="60.56274" lon="7.45927">
        <ele>1540.65</ele>
        <time>2019-04-07T14:47:06Z</time>
      </trkpt>
      <trkpt lat="60.56274" lon="7.45927">
        <ele>1540.65</ele>
        <time>2019-04-07T14:47:18Z</time>
      </trkpt>
      <trkpt lat="60.56274" lon="7.45925">
        <ele>1540.65</ele>
        <time>2019-04-07T14:47:19Z</time>
      </trkpt>
      <trkpt lat="60.56271" lon="7.45923">
        <ele>1540.65</ele>
        <time>2019-04-07T14:47:30Z</time>
      </trkpt>
      <trkpt lat="60.56271" lon="7.45917">
        <ele>1540.65</ele>
        <time>2019-04-07T14:47:35Z</time>
      </trkpt>
      <trkpt lat="60.56272" lon="7.45908">
        <ele>1542.09</ele>
        <time>2019-04-07T14:47:39Z</time>
      </trkpt>
      <trkpt lat="60.56272" lon="7.45908">
        <ele>1542.09</ele>
        <time>2019-04-07T14:47:40Z</time>
      </trkpt>
      <trkpt lat="60.56271" lon="7.45897">
        <ele>1542.57</ele>
        <time>2019-04-07T14:47:45Z</time>
      </trkpt>
      <trkpt lat="60.56272" lon="7.45889">
        <ele>1543.53</ele>
        <time>2019-04-07T14:47:50Z</time>
      </trkpt>
      <trkpt lat="60.56269" lon="7.4588">
        <ele>1544.01</ele>
        <time>2019-04-07T14:47:55Z</time>
      </trkpt>
      <trkpt lat="60.56269" lon="7.45873">
        <ele>1544.01</ele>
        <time>2019-04-07T14:48:00Z</time>
      </trkpt>
      <trkpt lat="60.56268" lon="7.45866">
        <ele>1544.5</ele>
        <time>2019-04-07T14:48:11Z</time>
      </trkpt>
      <trkpt lat="60.56267" lon="7.45863">
        <ele>1544.5</ele>
        <time>2019-04-07T14:48:21Z</time>
      </trkpt>
      <trkpt lat="60.56265" lon="7.45863">
        <ele>1545.46</ele>
        <time>2019-04-07T14:48:30Z</time>
      </trkpt>
      <trkpt lat="60.56266" lon="7.45863">
        <ele>1545.46</ele>
        <time>2019-04-07T14:48:37Z</time>
      </trkpt>
      <trkpt lat="60.56264" lon="7.45854">
        <ele>1545.94</ele>
        <time>2019-04-07T14:48:48Z</time>
      </trkpt>
      <trkpt lat="60.56264" lon="7.45854">
        <ele>1545.94</ele>
        <time>2019-04-07T14:48:49Z</time>
      </trkpt>
      <trkpt lat="60.56262" lon="7.45845">
        <ele>1545.94</ele>
        <time>2019-04-07T14:49:00Z</time>
      </trkpt>
      <trkpt lat="60.56261" lon="7.45844">
        <ele>1545.94</ele>
        <time>2019-04-07T14:49:01Z</time>
      </trkpt>
      <trkpt lat="60.56261" lon="7.45836">
        <ele>1546.42</ele>
        <time>2019-04-07T14:49:06Z</time>
      </trkpt>
      <trkpt lat="60.56262" lon="7.45829">
        <ele>1546.9</ele>
        <time>2019-04-07T14:49:11Z</time>
      </trkpt>
      <trkpt lat="60.5626" lon="7.4582">
        <ele>1547.86</ele>
        <time>2019-04-07T14:49:18Z</time>
      </trkpt>
      <trkpt lat="60.56261" lon="7.45815">
        <ele>1548.34</ele>
        <time>2019-04-07T14:49:21Z</time>
      </trkpt>
      <trkpt lat="60.5626" lon="7.45807">
        <ele>1548.82</ele>
        <time>2019-04-07T14:49:29Z</time>
      </trkpt>
      <trkpt lat="60.56259" lon="7.45802">
        <ele>1549.3</ele>
        <time>2019-04-07T14:49:40Z</time>
      </trkpt>
      <trkpt lat="60.5626" lon="7.45798">
        <ele>1549.78</ele>
        <time>2019-04-07T14:49:51Z</time>
      </trkpt>
      <trkpt lat="60.56259" lon="7.45798">
        <ele>1549.78</ele>
        <time>2019-04-07T14:50:03Z</time>
      </trkpt>
      <trkpt lat="60.56258" lon="7.45797">
        <ele>1549.78</ele>
        <time>2019-04-07T14:50:07Z</time>
      </trkpt>
      <trkpt lat="60.56257" lon="7.45791">
        <ele>1550.26</ele>
        <time>2019-04-07T14:50:19Z</time>
      </trkpt>
      <trkpt lat="60.56256" lon="7.4579">
        <ele>1550.26</ele>
        <time>2019-04-07T14:50:31Z</time>
      </trkpt>
      <trkpt lat="60.56255" lon="7.45784">
        <ele>1550.74</ele>
        <time>2019-04-07T14:50:44Z</time>
      </trkpt>
      <trkpt lat="60.56256" lon="7.45779">
        <ele>1551.22</ele>
        <time>2019-04-07T14:50:54Z</time>
      </trkpt>
      <trkpt lat="60.56256" lon="7.45772">
        <ele>1551.71</ele>
        <time>2019-04-07T14:51:01Z</time>
      </trkpt>
      <trkpt lat="60.56256" lon="7.4577">
        <ele>1552.19</ele>
        <time>2019-04-07T14:51:06Z</time>
      </trkpt>
      <trkpt lat="60.56255" lon="7.45761">
        <ele>1552.67</ele>
        <time>2019-04-07T14:51:17Z</time>
      </trkpt>
      <trkpt lat="60.56256" lon="7.45754">
        <ele>1553.15</ele>
        <time>2019-04-07T14:51:29Z</time>
      </trkpt>
      <trkpt lat="60.56256" lon="7.45749">
        <ele>1553.63</ele>
        <time>2019-04-07T14:51:39Z</time>
      </trkpt>
      <trkpt lat="60.56255" lon="7.45746">
        <ele>1554.11</ele>
        <time>2019-04-07T14:51:51Z</time>
      </trkpt>
      <trkpt lat="60.56255" lon="7.45739">
        <ele>1555.07</ele>
        <time>2019-04-07T14:52:01Z</time>
      </trkpt>
      <trkpt lat="60.56254" lon="7.4574">
        <ele>1555.07</ele>
        <time>2019-04-07T14:52:03Z</time>
      </trkpt>
      <trkpt lat="60.56254" lon="7.45736">
        <ele>1555.07</ele>
        <time>2019-04-07T14:52:14Z</time>
      </trkpt>
      <trkpt lat="60.56255" lon="7.45737">
        <ele>1555.07</ele>
        <time>2019-04-07T14:52:23Z</time>
      </trkpt>
      <trkpt lat="60.56255" lon="7.45736">
        <ele>1553.63</ele>
        <time>2019-04-07T14:52:36Z</time>
      </trkpt>
      <trkpt lat="60.56255" lon="7.45741">
        <ele>1553.63</ele>
        <time>2019-04-07T14:52:47Z</time>
      </trkpt>
      <trkpt lat="60.56254" lon="7.45744">
        <ele>1553.63</ele>
        <time>2019-04-07T14:52:59Z</time>
      </trkpt>
      <trkpt lat="60.56255" lon="7.45744">
        <ele>1553.63</ele>
        <time>2019-04-07T14:53:19Z</time>
      </trkpt>
      <trkpt lat="60.56255" lon="7.45746">
        <ele>1553.15</ele>
        <time>2019-04-07T14:53:47Z</time>
      </trkpt>
      <trkpt lat="60.56254" lon="7.45747">
        <ele>1553.15</ele>
        <time>2019-04-07T14:54:18Z</time>
      </trkpt>
      <trkpt lat="60.56255" lon="7.45748">
        <ele>1552.67</ele>
        <time>2019-04-07T14:54:44Z</time>
      </trkpt>
      <trkpt lat="60.56255" lon="7.45748">
        <ele>1552.67</ele>
        <time>2019-04-07T14:55:08Z</time>
      </trkpt>
      <trkpt lat="60.56253" lon="7.45751">
        <ele>1552.19</ele>
        <time>2019-04-07T14:55:38Z</time>
      </trkpt>
      <trkpt lat="60.56254" lon="7.45749">
        <ele>1552.19</ele>
        <time>2019-04-07T14:56:05Z</time>
      </trkpt>
      <trkpt lat="60.56256" lon="7.45747">
        <ele>1552.19</ele>
        <time>2019-04-07T14:56:32Z</time>
      </trkpt>
      <trkpt lat="60.56254" lon="7.45749">
        <ele>1552.19</ele>
        <time>2019-04-07T14:57:00Z</time>
      </trkpt>
      <trkpt lat="60.56253" lon="7.45748">
        <ele>1552.19</ele>
        <time>2019-04-07T14:57:26Z</time>
      </trkpt>
      <trkpt lat="60.56256" lon="7.4575">
        <ele>1551.71</ele>
        <time>2019-04-07T14:57:57Z</time>
      </trkpt>
      <trkpt lat="60.56256" lon="7.4575">
        <ele>1551.71</ele>
        <time>2019-04-07T14:58:05Z</time>
      </trkpt>
      <trkpt lat="60.56268" lon="7.45797">
        <ele>1548.82</ele>
        <time>2019-04-07T14:58:18Z</time>
      </trkpt>
      <trkpt lat="60.56284" lon="7.45839">
        <ele>1546.9</ele>
        <time>2019-04-07T14:58:24Z</time>
      </trkpt>
      <trkpt lat="60.56301" lon="7.45893">
        <ele>1543.53</ele>
        <time>2019-04-07T14:58:29Z</time>
      </trkpt>
      <trkpt lat="60.56314" lon="7.45941">
        <ele>1540.65</ele>
        <time>2019-04-07T14:58:33Z</time>
      </trkpt>
      <trkpt lat="60.56329" lon="7.46003">
        <ele>1536.8</ele>
        <time>2019-04-07T14:58:38Z</time>
      </trkpt>
      <trkpt lat="60.56343" lon="7.46052">
        <ele>1532.96</ele>
        <time>2019-04-07T14:58:42Z</time>
      </trkpt>
      <trkpt lat="60.56346" lon="7.46064">
        <ele>1531.52</ele>
        <time>2019-04-07T14:58:43Z</time>
      </trkpt>
      <trkpt lat="60.56356" lon="7.46115">
        <ele>1527.67</ele>
        <time>2019-04-07T14:58:47Z</time>
      </trkpt>
      <trkpt lat="60.56361" lon="7.46139">
        <ele>1525.27</ele>
        <time>2019-04-07T14:58:49Z</time>
      </trkpt>
      <trkpt lat="60.56366" lon="7.46174">
        <ele>1521.9</ele>
        <time>2019-04-07T14:58:52Z</time>
      </trkpt>
      <trkpt lat="60.56376" lon="7.46221">
        <ele>1518.54</ele>
        <time>2019-04-07T14:58:56Z</time>
      </trkpt>
      <trkpt lat="60.56382" lon="7.46256">
        <ele>1515.66</ele>
        <time>2019-04-07T14:58:59Z</time>
      </trkpt>
      <trkpt lat="60.56395" lon="7.46316">
        <ele>1512.29</ele>
        <time>2019-04-07T14:59:04Z</time>
      </trkpt>
      <trkpt lat="60.56398" lon="7.46328">
        <ele>1510.37</ele>
        <time>2019-04-07T14:59:05Z</time>
      </trkpt>
      <trkpt lat="60.56411" lon="7.4637">
        <ele>1506.04</ele>
        <time>2019-04-07T14:59:09Z</time>
      </trkpt>
      <trkpt lat="60.56415" lon="7.46389">
        <ele>1505.08</ele>
        <time>2019-04-07T14:59:11Z</time>
      </trkpt>
      <trkpt lat="60.56421" lon="7.46413">
        <ele>1504.12</ele>
        <time>2019-04-07T14:59:14Z</time>
      </trkpt>
      <trkpt lat="60.56433" lon="7.46456">
        <ele>1501.72</ele>
        <time>2019-04-07T14:59:20Z</time>
      </trkpt>
      <trkpt lat="60.56448" lon="7.46505">
        <ele>1497.87</ele>
        <time>2019-04-07T14:59:26Z</time>
      </trkpt>
      <trkpt lat="60.56455" lon="7.46524">
        <ele>1497.39</ele>
        <time>2019-04-07T14:59:28Z</time>
      </trkpt>
      <trkpt lat="60.56462" lon="7.46554">
        <ele>1496.43</ele>
        <time>2019-04-07T14:59:31Z</time>
      </trkpt>
      <trkpt lat="60.56466" lon="7.46571">
        <ele>1494.99</ele>
        <time>2019-04-07T14:59:33Z</time>
      </trkpt>
      <trkpt lat="60.5647" lon="7.46589">
        <ele>1494.51</ele>
        <time>2019-04-07T14:59:35Z</time>
      </trkpt>
      <trkpt lat="60.5648" lon="7.46629">
        <ele>1490.66</ele>
        <time>2019-04-07T14:59:40Z</time>
      </trkpt>
      <trkpt lat="60.56488" lon="7.46664">
        <ele>1488.74</ele>
        <time>2019-04-07T14:59:44Z</time>
      </trkpt>
      <trkpt lat="60.56493" lon="7.46681">
        <ele>1487.78</ele>
        <time>2019-04-07T14:59:46Z</time>
      </trkpt>
      <trkpt lat="60.56511" lon="7.46732">
        <ele>1483.93</ele>
        <time>2019-04-07T14:59:52Z</time>
      </trkpt>
      <trkpt lat="60.56526" lon="7.46768">
        <ele>1479.61</ele>
        <time>2019-04-07T14:59:56Z</time>
      </trkpt>
      <trkpt lat="60.56542" lon="7.46807">
        <ele>1476.24</ele>
        <time>2019-04-07T15:00:00Z</time>
      </trkpt>
      <trkpt lat="60.56554" lon="7.46837">
        <ele>1472.88</ele>
        <time>2019-04-07T15:00:03Z</time>
      </trkpt>
      <trkpt lat="60.56565" lon="7.46867">
        <ele>1469.51</ele>
        <time>2019-04-07T15:00:06Z</time>
      </trkpt>
      <trkpt lat="60.56577" lon="7.46897">
        <ele>1466.63</ele>
        <time>2019-04-07T15:00:09Z</time>
      </trkpt>
      <trkpt lat="60.56582" lon="7.46907">
        <ele>1464.71</ele>
        <time>2019-04-07T15:00:10Z</time>
      </trkpt>
      <trkpt lat="60.56597" lon="7.46933">
        <ele>1461.82</ele>
        <time>2019-04-07T15:00:13Z</time>
      </trkpt>
      <trkpt lat="60.56606" lon="7.46952">
        <ele>1459.42</ele>
        <time>2019-04-07T15:00:15Z</time>
      </trkpt>
      <trkpt lat="60.56622" lon="7.46994">
        <ele>1454.61</ele>
        <time>2019-04-07T15:00:19Z</time>
      </trkpt>
      <trkpt lat="60.56631" lon="7.47014">
        <ele>1451.73</ele>
        <time>2019-04-07T15:00:21Z</time>
      </trkpt>
      <trkpt lat="60.56646" lon="7.47053">
        <ele>1445.96</ele>
        <time>2019-04-07T15:00:25Z</time>
      </trkpt>
      <trkpt lat="60.56659" lon="7.47082">
        <ele>1442.6</ele>
        <time>2019-04-07T15:00:28Z</time>
      </trkpt>
      <trkpt lat="60.56671" lon="7.47112">
        <ele>1439.23</ele>
        <time>2019-04-07T15:00:31Z</time>
      </trkpt>
      <trkpt lat="60.56683" lon="7.47141">
        <ele>1435.87</ele>
        <time>2019-04-07T15:00:34Z</time>
      </trkpt>
      <trkpt lat="60.56699" lon="7.47179">
        <ele>1431.54</ele>
        <time>2019-04-07T15:00:38Z</time>
      </trkpt>
      <trkpt lat="60.56712" lon="7.47213">
        <ele>1428.66</ele>
        <time>2019-04-07T15:00:42Z</time>
      </trkpt>
      <trkpt lat="60.56731" lon="7.47251">
        <ele>1423.85</ele>
        <time>2019-04-07T15:00:47Z</time>
      </trkpt>
      <trkpt lat="60.56743" lon="7.47272">
        <ele>1420.49</ele>
        <time>2019-04-07T15:00:50Z</time>
      </trkpt>
      <trkpt lat="60.56746" lon="7.4728">
        <ele>1420.49</ele>
        <time>2019-04-07T15:00:51Z</time>
      </trkpt>
      <trkpt lat="60.56758" lon="7.47316">
        <ele>1417.12</ele>
        <time>2019-04-07T15:00:55Z</time>
      </trkpt>
      <trkpt lat="60.56768" lon="7.47353">
        <ele>1413.76</ele>
        <time>2019-04-07T15:00:59Z</time>
      </trkpt>
      <trkpt lat="60.56777" lon="7.4738">
        <ele>1410.87</ele>
        <time>2019-04-07T15:01:02Z</time>
      </trkpt>
      <trkpt lat="60.5679" lon="7.4742">
        <ele>1407.51</ele>
        <time>2019-04-07T15:01:07Z</time>
      </trkpt>
      <trkpt lat="60.56797" lon="7.47436">
        <ele>1405.58</ele>
        <time>2019-04-07T15:01:10Z</time>
      </trkpt>
      <trkpt lat="60.56804" lon="7.47442">
        <ele>1404.14</ele>
        <time>2019-04-07T15:01:19Z</time>
      </trkpt>
      <trkpt lat="60.56801" lon="7.47441">
        <ele>1404.14</ele>
        <time>2019-04-07T15:01:34Z</time>
      </trkpt>
      <trkpt lat="60.568" lon="7.47441">
        <ele>1405.1</ele>
        <time>2019-04-07T15:01:53Z</time>
      </trkpt>
      <trkpt lat="60.568" lon="7.47438">
        <ele>1405.1</ele>
        <time>2019-04-07T15:02:09Z</time>
      </trkpt>
      <trkpt lat="60.56801" lon="7.47433">
        <ele>1405.1</ele>
        <time>2019-04-07T15:02:29Z</time>
      </trkpt>
      <trkpt lat="60.56804" lon="7.47429">
        <ele>1405.1</ele>
        <time>2019-04-07T15:02:41Z</time>
      </trkpt>
      <trkpt lat="60.56804" lon="7.47429">
        <ele>1405.1</ele>
        <time>2019-04-07T15:03:00Z</time>
      </trkpt>
      <trkpt lat="60.56802" lon="7.47424">
        <ele>1405.1</ele>
        <time>2019-04-07T15:03:13Z</time>
      </trkpt>
      <trkpt lat="60.56799" lon="7.47416">
        <ele>1405.1</ele>
        <time>2019-04-07T15:03:27Z</time>
      </trkpt>
      <trkpt lat="60.56797" lon="7.47411">
        <ele>1405.1</ele>
        <time>2019-04-07T15:03:47Z</time>
      </trkpt>
      <trkpt lat="60.56802" lon="7.47406">
        <ele>1405.1</ele>
        <time>2019-04-07T15:04:21Z</time>
      </trkpt>
      <trkpt lat="60.56798" lon="7.47405">
        <ele>1405.1</ele>
        <time>2019-04-07T15:04:49Z</time>
      </trkpt>
      <trkpt lat="60.56797" lon="7.47409">
        <ele>1405.1</ele>
        <time>2019-04-07T15:05:01Z</time>
      </trkpt>
      <trkpt lat="60.56795" lon="7.47408">
        <ele>1405.1</ele>
        <time>2019-04-07T15:05:05Z</time>
      </trkpt>
      <trkpt lat="60.56797" lon="7.47403">
        <ele>1405.58</ele>
        <time>2019-04-07T15:05:20Z</time>
      </trkpt>
      <trkpt lat="60.56796" lon="7.47402">
        <ele>1405.58</ele>
        <time>2019-04-07T15:05:40Z</time>
      </trkpt>
      <trkpt lat="60.56797" lon="7.474">
        <ele>1401.74</ele>
        <time>2019-04-07T15:05:44Z</time>
      </trkpt>
      <trkpt lat="60.56797" lon="7.47399">
        <ele>1407.99</ele>
        <time>2019-04-07T15:05:45Z</time>
      </trkpt>
      <trkpt lat="60.56797" lon="7.47399">
        <ele>1403.66</ele>
        <time>2019-04-07T15:05:46Z</time>
      </trkpt>
      <trkpt lat="60.56794" lon="7.47403">
        <ele>1404.62</ele>
        <time>2019-04-07T15:05:59Z</time>
      </trkpt>
      <trkpt lat="60.56797" lon="7.47409">
        <ele>1405.1</ele>
        <time>2019-04-07T15:06:12Z</time>
      </trkpt>
      <trkpt lat="60.56796" lon="7.47406">
        <ele>1405.1</ele>
        <time>2019-04-07T15:06:23Z</time>
      </trkpt>
      <trkpt lat="60.56798" lon="7.47409">
        <ele>1404.62</ele>
        <time>2019-04-07T15:06:27Z</time>
      </trkpt>
      <trkpt lat="60.56798" lon="7.47404">
        <ele>1405.1</ele>
        <time>2019-04-07T15:06:42Z</time>
      </trkpt>
      <trkpt lat="60.56798" lon="7.47411">
        <ele>1404.14</ele>
        <time>2019-04-07T15:06:54Z</time>
      </trkpt>
      <trkpt lat="60.56799" lon="7.4741">
        <ele>1405.58</ele>
        <time>2019-04-07T15:07:10Z</time>
      </trkpt>
      <trkpt lat="60.56799" lon="7.4741">
        <ele>1404.62</ele>
        <time>2019-04-07T15:07:12Z</time>
      </trkpt>
      <trkpt lat="60.56797" lon="7.4741">
        <ele>1405.1</ele>
        <time>2019-04-07T15:07:27Z</time>
      </trkpt>
      <trkpt lat="60.56797" lon="7.47409">
        <ele>1405.1</ele>
        <time>2019-04-07T15:07:44Z</time>
      </trkpt>
      <trkpt lat="60.56797" lon="7.4741">
        <ele>1401.74</ele>
        <time>2019-04-07T15:07:52Z</time>
      </trkpt>
      <trkpt lat="60.56797" lon="7.47409">
        <ele>1404.62</ele>
        <time>2019-04-07T15:07:55Z</time>
      </trkpt>
      <trkpt lat="60.56797" lon="7.47408">
        <ele>1405.1</ele>
        <time>2019-04-07T15:08:10Z</time>
      </trkpt>
      <trkpt lat="60.56798" lon="7.47408">
        <ele>1403.18</ele>
        <time>2019-04-07T15:08:22Z</time>
      </trkpt>
      <trkpt lat="60.568" lon="7.47405">
        <ele>1403.18</ele>
        <time>2019-04-07T15:08:52Z</time>
      </trkpt>
      <trkpt lat="60.568" lon="7.47403">
        <ele>1403.66</ele>
        <time>2019-04-07T15:09:21Z</time>
      </trkpt>
      <trkpt lat="60.568" lon="7.47406">
        <ele>1403.66</ele>
        <time>2019-04-07T15:09:46Z</time>
      </trkpt>
      <trkpt lat="60.56801" lon="7.47406">
        <ele>1404.14</ele>
        <time>2019-04-07T15:10:14Z</time>
      </trkpt>
      <trkpt lat="60.56801" lon="7.47407">
        <ele>1404.14</ele>
        <time>2019-04-07T15:10:44Z</time>
      </trkpt>
      <trkpt lat="60.56801" lon="7.47407">
        <ele>1404.14</ele>
        <time>2019-04-07T15:10:45Z</time>
      </trkpt>
      <trkpt lat="60.56798" lon="7.47404">
        <ele>1405.1</ele>
        <time>2019-04-07T15:10:54Z</time>
      </trkpt>
      <trkpt lat="60.56798" lon="7.47406">
        <ele>1405.58</ele>
        <time>2019-04-07T15:11:09Z</time>
      </trkpt>
      <trkpt lat="60.56799" lon="7.47404">
        <ele>1405.58</ele>
        <time>2019-04-07T15:11:30Z</time>
      </trkpt>
      <trkpt lat="60.56799" lon="7.47406">
        <ele>1405.58</ele>
        <time>2019-04-07T15:11:52Z</time>
      </trkpt>
      <trkpt lat="60.56804" lon="7.47434">
        <ele>1405.58</ele>
        <time>2019-04-07T15:12:08Z</time>
      </trkpt>
      <trkpt lat="60.56804" lon="7.47438">
        <ele>1406.07</ele>
        <time>2019-04-07T15:12:21Z</time>
      </trkpt>
      <trkpt lat="60.56802" lon="7.47436">
        <ele>1406.07</ele>
        <time>2019-04-07T15:12:47Z</time>
      </trkpt>
      <trkpt lat="60.56805" lon="7.47444">
        <ele>1406.55</ele>
        <time>2019-04-07T15:13:00Z</time>
      </trkpt>
      <trkpt lat="60.56817" lon="7.47465">
        <ele>1406.55</ele>
        <time>2019-04-07T15:13:11Z</time>
      </trkpt>
      <trkpt lat="60.56815" lon="7.47463">
        <ele>1405.1</ele>
        <time>2019-04-07T15:13:17Z</time>
      </trkpt>
      <trkpt lat="60.5682" lon="7.4747">
        <ele>1405.1</ele>
        <time>2019-04-07T15:13:30Z</time>
      </trkpt>
      <trkpt lat="60.56834" lon="7.475">
        <ele>1405.1</ele>
        <time>2019-04-07T15:13:42Z</time>
      </trkpt>
      <trkpt lat="60.56855" lon="7.47535">
        <ele>1405.1</ele>
        <time>2019-04-07T15:13:55Z</time>
      </trkpt>
      <trkpt lat="60.56868" lon="7.47561">
        <ele>1405.1</ele>
        <time>2019-04-07T15:14:09Z</time>
      </trkpt>
      <trkpt lat="60.56873" lon="7.47568">
        <ele>1405.1</ele>
        <time>2019-04-07T15:14:16Z</time>
      </trkpt>
      <trkpt lat="60.56881" lon="7.47581">
        <ele>1405.1</ele>
        <time>2019-04-07T15:14:28Z</time>
      </trkpt>
      <trkpt lat="60.56882" lon="7.47585">
        <ele>1406.07</ele>
        <time>2019-04-07T15:14:31Z</time>
      </trkpt>
      <trkpt lat="60.56885" lon="7.47597">
        <ele>1406.55</ele>
        <time>2019-04-07T15:14:42Z</time>
      </trkpt>
      <trkpt lat="60.56888" lon="7.47606">
        <ele>1407.03</ele>
        <time>2019-04-07T15:14:50Z</time>
      </trkpt>
      <trkpt lat="60.56888" lon="7.47625">
        <ele>1407.99</ele>
        <time>2019-04-07T15:15:05Z</time>
      </trkpt>
      <trkpt lat="60.5689" lon="7.47635">
        <ele>1408.47</ele>
        <time>2019-04-07T15:15:13Z</time>
      </trkpt>
      <trkpt lat="60.56894" lon="7.47653">
        <ele>1409.43</ele>
        <time>2019-04-07T15:15:27Z</time>
      </trkpt>
      <trkpt lat="60.56897" lon="7.4767">
        <ele>1410.39</ele>
        <time>2019-04-07T15:15:40Z</time>
      </trkpt>
      <trkpt lat="60.56904" lon="7.47689">
        <ele>1411.35</ele>
        <time>2019-04-07T15:15:55Z</time>
      </trkpt>
      <trkpt lat="60.5691" lon="7.47703">
        <ele>1412.31</ele>
        <time>2019-04-07T15:16:08Z</time>
      </trkpt>
      <trkpt lat="60.56915" lon="7.47718">
        <ele>1412.31</ele>
        <time>2019-04-07T15:16:21Z</time>
      </trkpt>
      <trkpt lat="60.56916" lon="7.47722">
        <ele>1412.31</ele>
        <time>2019-04-07T15:16:24Z</time>
      </trkpt>
      <trkpt lat="60.56917" lon="7.47726">
        <ele>1412.31</ele>
        <time>2019-04-07T15:16:26Z</time>
      </trkpt>
      <trkpt lat="60.56927" lon="7.47763">
        <ele>1412.79</ele>
        <time>2019-04-07T15:16:40Z</time>
      </trkpt>
      <trkpt lat="60.56935" lon="7.47807">
        <ele>1412.79</ele>
        <time>2019-04-07T15:16:51Z</time>
      </trkpt>
      <trkpt lat="60.56947" lon="7.47868">
        <ele>1410.87</ele>
        <time>2019-04-07T15:17:05Z</time>
      </trkpt>
      <trkpt lat="60.5696" lon="7.47929">
        <ele>1409.91</ele>
        <time>2019-04-07T15:17:18Z</time>
      </trkpt>
      <trkpt lat="60.56979" lon="7.47974">
        <ele>1408.47</ele>
        <time>2019-04-07T15:17:31Z</time>
      </trkpt>
      <trkpt lat="60.56986" lon="7.48026">
        <ele>1406.55</ele>
        <time>2019-04-07T15:17:42Z</time>
      </trkpt>
      <trkpt lat="60.56987" lon="7.48106">
        <ele>1403.66</ele>
        <time>2019-04-07T15:17:54Z</time>
      </trkpt>
      <trkpt lat="60.56984" lon="7.48141">
        <ele>1401.74</ele>
        <time>2019-04-07T15:17:58Z</time>
      </trkpt>
      <trkpt lat="60.56982" lon="7.48169">
        <ele>1399.34</ele>
        <time>2019-04-07T15:18:01Z</time>
      </trkpt>
      <trkpt lat="60.56973" lon="7.48216">
        <ele>1395.97</ele>
        <time>2019-04-07T15:18:06Z</time>
      </trkpt>
      <trkpt lat="60.5697" lon="7.48234">
        <ele>1394.53</ele>
        <time>2019-04-07T15:18:08Z</time>
      </trkpt>
      <trkpt lat="60.56971" lon="7.4825">
        <ele>1393.09</ele>
        <time>2019-04-07T15:18:10Z</time>
      </trkpt>
      <trkpt lat="60.56968" lon="7.48267">
        <ele>1390.68</ele>
        <time>2019-04-07T15:18:12Z</time>
      </trkpt>
      <trkpt lat="60.56958" lon="7.48304">
        <ele>1386.84</ele>
        <time>2019-04-07T15:18:16Z</time>
      </trkpt>
      <trkpt lat="60.56956" lon="7.48312">
        <ele>1386.84</ele>
        <time>2019-04-07T15:18:17Z</time>
      </trkpt>
      <trkpt lat="60.56952" lon="7.48342">
        <ele>1382.99</ele>
        <time>2019-04-07T15:18:21Z</time>
      </trkpt>
      <trkpt lat="60.5695" lon="7.48365">
        <ele>1380.11</ele>
        <time>2019-04-07T15:18:24Z</time>
      </trkpt>
      <trkpt lat="60.56963" lon="7.48395">
        <ele>1374.82</ele>
        <time>2019-04-07T15:18:28Z</time>
      </trkpt>
      <trkpt lat="60.56965" lon="7.48427">
        <ele>1371.46</ele>
        <time>2019-04-07T15:18:31Z</time>
      </trkpt>
      <trkpt lat="60.56968" lon="7.48448">
        <ele>1370.5</ele>
        <time>2019-04-07T15:18:33Z</time>
      </trkpt>
      <trkpt lat="60.56986" lon="7.48506">
        <ele>1363.77</ele>
        <time>2019-04-07T15:18:40Z</time>
      </trkpt>
      <trkpt lat="60.5699" lon="7.48509">
        <ele>1363.77</ele>
        <time>2019-04-07T15:18:41Z</time>
      </trkpt>
      <trkpt lat="60.57001" lon="7.48513">
        <ele>1361.84</ele>
        <time>2019-04-07T15:18:43Z</time>
      </trkpt>
      <trkpt lat="60.57016" lon="7.48532">
        <ele>1358</ele>
        <time>2019-04-07T15:18:46Z</time>
      </trkpt>
      <trkpt lat="60.57019" lon="7.48542">
        <ele>1358</ele>
        <time>2019-04-07T15:18:47Z</time>
      </trkpt>
      <trkpt lat="60.57025" lon="7.48574">
        <ele>1353.67</ele>
        <time>2019-04-07T15:18:50Z</time>
      </trkpt>
      <trkpt lat="60.57042" lon="7.48622">
        <ele>1349.83</ele>
        <time>2019-04-07T15:18:54Z</time>
      </trkpt>
      <trkpt lat="60.57061" lon="7.48658">
        <ele>1348.39</ele>
        <time>2019-04-07T15:19:01Z</time>
      </trkpt>
      <trkpt lat="60.57074" lon="7.48699">
        <ele>1343.58</ele>
        <time>2019-04-07T15:19:05Z</time>
      </trkpt>
      <trkpt lat="60.57078" lon="7.48708">
        <ele>1344.06</ele>
        <time>2019-04-07T15:19:06Z</time>
      </trkpt>
      <trkpt lat="60.57082" lon="7.48716">
        <ele>1343.1</ele>
        <time>2019-04-07T15:19:07Z</time>
      </trkpt>
      <trkpt lat="60.57108" lon="7.4877">
        <ele>1338.77</ele>
        <time>2019-04-07T15:19:14Z</time>
      </trkpt>
      <trkpt lat="60.57113" lon="7.48778">
        <ele>1338.77</ele>
        <time>2019-04-07T15:19:15Z</time>
      </trkpt>
      <trkpt lat="60.57122" lon="7.48796">
        <ele>1336.85</ele>
        <time>2019-04-07T15:19:17Z</time>
      </trkpt>
      <trkpt lat="60.5713" lon="7.48817">
        <ele>1334.93</ele>
        <time>2019-04-07T15:19:19Z</time>
      </trkpt>
      <trkpt lat="60.57143" lon="7.4884">
        <ele>1333.97</ele>
        <time>2019-04-07T15:19:23Z</time>
      </trkpt>
      <trkpt lat="60.57144" lon="7.48855">
        <ele>1332.52</ele>
        <time>2019-04-07T15:19:25Z</time>
      </trkpt>
      <trkpt lat="60.57142" lon="7.48873">
        <ele>1331.56</ele>
        <time>2019-04-07T15:19:27Z</time>
      </trkpt>
      <trkpt lat="60.57148" lon="7.48917">
        <ele>1327.24</ele>
        <time>2019-04-07T15:19:32Z</time>
      </trkpt>
      <trkpt lat="60.57151" lon="7.48922">
        <ele>1327.24</ele>
        <time>2019-04-07T15:19:33Z</time>
      </trkpt>
      <trkpt lat="60.57157" lon="7.48938">
        <ele>1325.31</ele>
        <time>2019-04-07T15:19:35Z</time>
      </trkpt>
      <trkpt lat="60.57172" lon="7.48979">
        <ele>1322.43</ele>
        <time>2019-04-07T15:19:40Z</time>
      </trkpt>
      <trkpt lat="60.57183" lon="7.49004">
        <ele>1320.51</ele>
        <time>2019-04-07T15:19:43Z</time>
      </trkpt>
      <trkpt lat="60.57196" lon="7.49037">
        <ele>1316.66</ele>
        <time>2019-04-07T15:19:47Z</time>
      </trkpt>
      <trkpt lat="60.57199" lon="7.49046">
        <ele>1316.66</ele>
        <time>2019-04-07T15:19:48Z</time>
      </trkpt>
      <trkpt lat="60.57207" lon="7.4906">
        <ele>1315.22</ele>
        <time>2019-04-07T15:19:50Z</time>
      </trkpt>
      <trkpt lat="60.57224" lon="7.49102">
        <ele>1311.86</ele>
        <time>2019-04-07T15:19:55Z</time>
      </trkpt>
      <trkpt lat="60.57239" lon="7.49137">
        <ele>1308.01</ele>
        <time>2019-04-07T15:19:59Z</time>
      </trkpt>
      <trkpt lat="60.57253" lon="7.49174">
        <ele>1305.13</ele>
        <time>2019-04-07T15:20:03Z</time>
      </trkpt>
      <trkpt lat="60.57261" lon="7.49188">
        <ele>1303.69</ele>
        <time>2019-04-07T15:20:05Z</time>
      </trkpt>
      <trkpt lat="60.57287" lon="7.49221">
        <ele>1299.84</ele>
        <time>2019-04-07T15:20:10Z</time>
      </trkpt>
      <trkpt lat="60.57293" lon="7.49228">
        <ele>1299.84</ele>
        <time>2019-04-07T15:20:11Z</time>
      </trkpt>
      <trkpt lat="60.57316" lon="7.4926">
        <ele>1297.92</ele>
        <time>2019-04-07T15:20:15Z</time>
      </trkpt>
      <trkpt lat="60.57345" lon="7.49304">
        <ele>1294.07</ele>
        <time>2019-04-07T15:20:20Z</time>
      </trkpt>
      <trkpt lat="60.57351" lon="7.49313">
        <ele>1293.59</ele>
        <time>2019-04-07T15:20:21Z</time>
      </trkpt>
      <trkpt lat="60.57367" lon="7.49347">
        <ele>1291.67</ele>
        <time>2019-04-07T15:20:25Z</time>
      </trkpt>
      <trkpt lat="60.57392" lon="7.49383">
        <ele>1288.3</ele>
        <time>2019-04-07T15:20:30Z</time>
      </trkpt>
      <trkpt lat="60.57397" lon="7.49391">
        <ele>1288.3</ele>
        <time>2019-04-07T15:20:31Z</time>
      </trkpt>
      <trkpt lat="60.57427" lon="7.49442">
        <ele>1284.94</ele>
        <time>2019-04-07T15:20:37Z</time>
      </trkpt>
      <trkpt lat="60.57432" lon="7.49452">
        <ele>1284.94</ele>
        <time>2019-04-07T15:20:38Z</time>
      </trkpt>
      <trkpt lat="60.57441" lon="7.49472">
        <ele>1283.5</ele>
        <time>2019-04-07T15:20:40Z</time>
      </trkpt>
      <trkpt lat="60.57454" lon="7.49508">
        <ele>1282.54</ele>
        <time>2019-04-07T15:20:43Z</time>
      </trkpt>
      <trkpt lat="60.57462" lon="7.49531">
        <ele>1281.09</ele>
        <time>2019-04-07T15:20:45Z</time>
      </trkpt>
      <trkpt lat="60.57497" lon="7.49613">
        <ele>1277.73</ele>
        <time>2019-04-07T15:20:54Z</time>
      </trkpt>
      <trkpt lat="60.57537" lon="7.49682">
        <ele>1276.77</ele>
        <time>2019-04-07T15:21:07Z</time>
      </trkpt>
      <trkpt lat="60.57574" lon="7.49761">
        <ele>1274.85</ele>
        <time>2019-04-07T15:21:22Z</time>
      </trkpt>
      <trkpt lat="60.57599" lon="7.49819">
        <ele>1274.36</ele>
        <time>2019-04-07T15:21:35Z</time>
      </trkpt>
      <trkpt lat="60.57622" lon="7.49867">
        <ele>1273.4</ele>
        <time>2019-04-07T15:21:48Z</time>
      </trkpt>
      <trkpt lat="60.57645" lon="7.49934">
        <ele>1271.96</ele>
        <time>2019-04-07T15:22:02Z</time>
      </trkpt>
      <trkpt lat="60.5767" lon="7.50003">
        <ele>1270.52</ele>
        <time>2019-04-07T15:22:16Z</time>
      </trkpt>
      <trkpt lat="60.57682" lon="7.50019">
        <ele>1270.04</ele>
        <time>2019-04-07T15:22:21Z</time>
      </trkpt>
      <trkpt lat="60.57686" lon="7.50022">
        <ele>1269.56</ele>
        <time>2019-04-07T15:22:32Z</time>
      </trkpt>
      <trkpt lat="60.57689" lon="7.50026">
        <ele>1268.12</ele>
        <time>2019-04-07T15:22:45Z</time>
      </trkpt>
      <trkpt lat="60.5769" lon="7.50022">
        <ele>1267.64</ele>
        <time>2019-04-07T15:22:47Z</time>
      </trkpt>
      <trkpt lat="60.57709" lon="7.5005">
        <ele>1266.67</ele>
        <time>2019-04-07T15:22:57Z</time>
      </trkpt>
      <trkpt lat="60.57735" lon="7.50084">
        <ele>1265.23</ele>
        <time>2019-04-07T15:23:06Z</time>
      </trkpt>
      <trkpt lat="60.57776" lon="7.5013">
        <ele>1262.83</ele>
        <time>2019-04-07T15:23:20Z</time>
      </trkpt>
      <trkpt lat="60.57811" lon="7.50144">
        <ele>1261.87</ele>
        <time>2019-04-07T15:23:34Z</time>
      </trkpt>
      <trkpt lat="60.57835" lon="7.50143">
        <ele>1261.39</ele>
        <time>2019-04-07T15:23:43Z</time>
      </trkpt>
      <trkpt lat="60.57854" lon="7.50137">
        <ele>1261.87</ele>
        <time>2019-04-07T15:23:48Z</time>
      </trkpt>
      <trkpt lat="60.57883" lon="7.50147">
        <ele>1260.43</ele>
        <time>2019-04-07T15:23:59Z</time>
      </trkpt>
      <trkpt lat="60.57885" lon="7.50148">
        <ele>1260.43</ele>
        <time>2019-04-07T15:24:00Z</time>
      </trkpt>
      <trkpt lat="60.57918" lon="7.50161">
        <ele>1260.43</ele>
        <time>2019-04-07T15:24:13Z</time>
      </trkpt>
      <trkpt lat="60.57931" lon="7.50167">
        <ele>1258.02</ele>
        <time>2019-04-07T15:24:19Z</time>
      </trkpt>
      <trkpt lat="60.57935" lon="7.50169">
        <ele>1259.46</ele>
        <time>2019-04-07T15:24:21Z</time>
      </trkpt>
      <trkpt lat="60.57962" lon="7.50188">
        <ele>1258.02</ele>
        <time>2019-04-07T15:24:35Z</time>
      </trkpt>
      <trkpt lat="60.57986" lon="7.50196">
        <ele>1258.02</ele>
        <time>2019-04-07T15:24:48Z</time>
      </trkpt>
      <trkpt lat="60.58013" lon="7.5019">
        <ele>1258.5</ele>
        <time>2019-04-07T15:25:00Z</time>
      </trkpt>
      <trkpt lat="60.58019" lon="7.50189">
        <ele>1257.06</ele>
        <time>2019-04-07T15:25:02Z</time>
      </trkpt>
      <trkpt lat="60.5805" lon="7.50196">
        <ele>1256.1</ele>
        <time>2019-04-07T15:25:15Z</time>
      </trkpt>
      <trkpt lat="60.58052" lon="7.50198">
        <ele>1256.1</ele>
        <time>2019-04-07T15:25:18Z</time>
      </trkpt>
      <trkpt lat="60.58068" lon="7.50204">
        <ele>1256.1</ele>
        <time>2019-04-07T15:25:31Z</time>
      </trkpt>
      <trkpt lat="60.58078" lon="7.50202">
        <ele>1257.54</ele>
        <time>2019-04-07T15:25:45Z</time>
      </trkpt>
      <trkpt lat="60.58081" lon="7.502">
        <ele>1257.54</ele>
        <time>2019-04-07T15:25:50Z</time>
      </trkpt>
      <trkpt lat="60.58104" lon="7.50179">
        <ele>1257.54</ele>
        <time>2019-04-07T15:26:05Z</time>
      </trkpt>
      <trkpt lat="60.58113" lon="7.50168">
        <ele>1255.62</ele>
        <time>2019-04-07T15:26:09Z</time>
      </trkpt>
      <trkpt lat="60.58146" lon="7.50149">
        <ele>1252.25</ele>
        <time>2019-04-07T15:26:16Z</time>
      </trkpt>
      <trkpt lat="60.58154" lon="7.50147">
        <ele>1252.25</ele>
        <time>2019-04-07T15:26:17Z</time>
      </trkpt>
      <trkpt lat="60.58175" lon="7.50144">
        <ele>1249.37</ele>
        <time>2019-04-07T15:26:20Z</time>
      </trkpt>
      <trkpt lat="60.58181" lon="7.50143">
        <ele>1249.37</ele>
        <time>2019-04-07T15:26:21Z</time>
      </trkpt>
      <trkpt lat="60.58186" lon="7.50141">
        <ele>1249.37</ele>
        <time>2019-04-07T15:26:22Z</time>
      </trkpt>
      <trkpt lat="60.58214" lon="7.5014">
        <ele>1249.85</ele>
        <time>2019-04-07T15:26:34Z</time>
      </trkpt>
      <trkpt lat="60.58236" lon="7.50135">
        <ele>1249.37</ele>
        <time>2019-04-07T15:26:47Z</time>
      </trkpt>
      <trkpt lat="60.5825" lon="7.50131">
        <ele>1249.37</ele>
        <time>2019-04-07T15:26:58Z</time>
      </trkpt>
      <trkpt lat="60.58264" lon="7.5013">
        <ele>1249.37</ele>
        <time>2019-04-07T15:27:13Z</time>
      </trkpt>
      <trkpt lat="60.58276" lon="7.50128">
        <ele>1250.81</ele>
        <time>2019-04-07T15:27:24Z</time>
      </trkpt>
      <trkpt lat="60.58289" lon="7.50126">
        <ele>1251.77</ele>
        <time>2019-04-07T15:27:39Z</time>
      </trkpt>
      <trkpt lat="60.58305" lon="7.50119">
        <ele>1251.77</ele>
        <time>2019-04-07T15:27:52Z</time>
      </trkpt>
      <trkpt lat="60.58331" lon="7.50099">
        <ele>1251.77</ele>
        <time>2019-04-07T15:28:03Z</time>
      </trkpt>
      <trkpt lat="60.58371" lon="7.50088">
        <ele>1248.41</ele>
        <time>2019-04-07T15:28:14Z</time>
      </trkpt>
      <trkpt lat="60.58375" lon="7.50089">
        <ele>1248.41</ele>
        <time>2019-04-07T15:28:15Z</time>
      </trkpt>
      <trkpt lat="60.58399" lon="7.50102">
        <ele>1248.41</ele>
        <time>2019-04-07T15:28:25Z</time>
      </trkpt>
      <trkpt lat="60.58428" lon="7.50119">
        <ele>1248.41</ele>
        <time>2019-04-07T15:28:39Z</time>
      </trkpt>
      <trkpt lat="60.58452" lon="7.50137">
        <ele>1248.41</ele>
        <time>2019-04-07T15:28:53Z</time>
      </trkpt>
      <trkpt lat="60.58465" lon="7.50147">
        <ele>1249.85</ele>
        <time>2019-04-07T15:29:11Z</time>
      </trkpt>
      <trkpt lat="60.58485" lon="7.50163">
        <ele>1250.33</ele>
        <time>2019-04-07T15:29:24Z</time>
      </trkpt>
      <trkpt lat="60.58493" lon="7.5017">
        <ele>1250.33</ele>
        <time>2019-04-07T15:29:33Z</time>
      </trkpt>
      <trkpt lat="60.58501" lon="7.50174">
        <ele>1251.29</ele>
        <time>2019-04-07T15:29:45Z</time>
      </trkpt>
      <trkpt lat="60.58519" lon="7.50186">
        <ele>1251.29</ele>
        <time>2019-04-07T15:29:55Z</time>
      </trkpt>
      <trkpt lat="60.58536" lon="7.5019">
        <ele>1249.37</ele>
        <time>2019-04-07T15:30:01Z</time>
      </trkpt>
      <trkpt lat="60.58554" lon="7.50195">
        <ele>1250.33</ele>
        <time>2019-04-07T15:30:12Z</time>
      </trkpt>
      <trkpt lat="60.58576" lon="7.50218">
        <ele>1248.89</ele>
        <time>2019-04-07T15:30:22Z</time>
      </trkpt>
      <trkpt lat="60.58593" lon="7.50222">
        <ele>1248.41</ele>
        <time>2019-04-07T15:30:31Z</time>
      </trkpt>
      <trkpt lat="60.58603" lon="7.50223">
        <ele>1249.85</ele>
        <time>2019-04-07T15:30:45Z</time>
      </trkpt>
      <trkpt lat="60.58604" lon="7.50224">
        <ele>1249.85</ele>
        <time>2019-04-07T15:30:47Z</time>
      </trkpt>
      <trkpt lat="60.58617" lon="7.50238">
        <ele>1250.33</ele>
        <time>2019-04-07T15:31:00Z</time>
      </trkpt>
      <trkpt lat="60.58639" lon="7.50257">
        <ele>1250.81</ele>
        <time>2019-04-07T15:31:13Z</time>
      </trkpt>
      <trkpt lat="60.58642" lon="7.50265">
        <ele>1251.29</ele>
        <time>2019-04-07T15:31:20Z</time>
      </trkpt>
      <trkpt lat="60.58647" lon="7.50282">
        <ele>1251.77</ele>
        <time>2019-04-07T15:31:34Z</time>
      </trkpt>
      <trkpt lat="60.58657" lon="7.50292">
        <ele>1252.74</ele>
        <time>2019-04-07T15:31:47Z</time>
      </trkpt>
      <trkpt lat="60.58676" lon="7.50314">
        <ele>1251.77</ele>
        <time>2019-04-07T15:31:57Z</time>
      </trkpt>
      <trkpt lat="60.58711" lon="7.50362">
        <ele>1249.37</ele>
        <time>2019-04-07T15:32:11Z</time>
      </trkpt>
      <trkpt lat="60.5873" lon="7.50373">
        <ele>1246.49</ele>
        <time>2019-04-07T15:32:16Z</time>
      </trkpt>
      <trkpt lat="60.58745" lon="7.50397">
        <ele>1244.56</ele>
        <time>2019-04-07T15:32:20Z</time>
      </trkpt>
      <trkpt lat="60.58757" lon="7.50443">
        <ele>1241.2</ele>
        <time>2019-04-07T15:32:25Z</time>
      </trkpt>
      <trkpt lat="60.58757" lon="7.50453">
        <ele>1241.2</ele>
        <time>2019-04-07T15:32:26Z</time>
      </trkpt>
      <trkpt lat="60.58759" lon="7.50461">
        <ele>1238.8</ele>
        <time>2019-04-07T15:32:29Z</time>
      </trkpt>
      <trkpt lat="60.58759" lon="7.50463">
        <ele>1238.8</ele>
        <time>2019-04-07T15:32:32Z</time>
      </trkpt>
      <trkpt lat="60.5876" lon="7.50504">
        <ele>1235.43</ele>
        <time>2019-04-07T15:32:39Z</time>
      </trkpt>
      <trkpt lat="60.58766" lon="7.50515">
        <ele>1234.47</ele>
        <time>2019-04-07T15:32:41Z</time>
      </trkpt>
      <trkpt lat="60.58809" lon="7.50548">
        <ele>1230.62</ele>
        <time>2019-04-07T15:32:53Z</time>
      </trkpt>
      <trkpt lat="60.58861" lon="7.5058">
        <ele>1227.26</ele>
        <time>2019-04-07T15:33:07Z</time>
      </trkpt>
      <trkpt lat="60.58908" lon="7.50607">
        <ele>1222.93</ele>
        <time>2019-04-07T15:33:17Z</time>
      </trkpt>
      <trkpt lat="60.58915" lon="7.50611">
        <ele>1225.82</ele>
        <time>2019-04-07T15:33:19Z</time>
      </trkpt>
      <trkpt lat="60.58958" lon="7.50636">
        <ele>1223.42</ele>
        <time>2019-04-07T15:33:33Z</time>
      </trkpt>
      <trkpt lat="60.59003" lon="7.50664">
        <ele>1220.53</ele>
        <time>2019-04-07T15:33:48Z</time>
      </trkpt>
      <trkpt lat="60.59045" lon="7.50691">
        <ele>1217.65</ele>
        <time>2019-04-07T15:33:56Z</time>
      </trkpt>
      <trkpt lat="60.59079" lon="7.50717">
        <ele>1214.28</ele>
        <time>2019-04-07T15:34:02Z</time>
      </trkpt>
      <trkpt lat="60.59085" lon="7.50721">
        <ele>1214.28</ele>
        <time>2019-04-07T15:34:03Z</time>
      </trkpt>
      <trkpt lat="60.5914" lon="7.50762">
        <ele>1210.92</ele>
        <time>2019-04-07T15:34:14Z</time>
      </trkpt>
      <trkpt lat="60.59193" lon="7.50808">
        <ele>1209.96</ele>
        <time>2019-04-07T15:34:30Z</time>
      </trkpt>
      <trkpt lat="60.5923" lon="7.50838">
        <ele>1209</ele>
        <time>2019-04-07T15:34:43Z</time>
      </trkpt>
      <trkpt lat="60.59279" lon="7.50873">
        <ele>1209</ele>
        <time>2019-04-07T15:34:57Z</time>
      </trkpt>
      <trkpt lat="60.59308" lon="7.50891">
        <ele>1209</ele>
        <time>2019-04-07T15:35:10Z</time>
      </trkpt>
      <trkpt lat="60.59331" lon="7.50901">
        <ele>1207.55</ele>
        <time>2019-04-07T15:35:17Z</time>
      </trkpt>
      <trkpt lat="60.59384" lon="7.50915">
        <ele>1206.59</ele>
        <time>2019-04-07T15:35:31Z</time>
      </trkpt>
      <trkpt lat="60.59402" lon="7.50916">
        <ele>1206.59</ele>
        <time>2019-04-07T15:35:44Z</time>
      </trkpt>
      <trkpt lat="60.59414" lon="7.5092">
        <ele>1206.59</ele>
        <time>2019-04-07T15:35:55Z</time>
      </trkpt>
      <trkpt lat="60.59415" lon="7.50914">
        <ele>1206.59</ele>
        <time>2019-04-07T15:36:15Z</time>
      </trkpt>
      <trkpt lat="60.59418" lon="7.50916">
        <ele>1206.59</ele>
        <time>2019-04-07T15:36:38Z</time>
      </trkpt>
      <trkpt lat="60.59416" lon="7.50919">
        <ele>1206.59</ele>
        <time>2019-04-07T15:36:53Z</time>
      </trkpt>
      <trkpt lat="60.59416" lon="7.50923">
        <ele>1207.07</ele>
        <time>2019-04-07T15:37:27Z</time>
      </trkpt>
      <trkpt lat="60.59416" lon="7.50923">
        <ele>1207.07</ele>
        <time>2019-04-07T15:38:11Z</time>
      </trkpt>
      <trkpt lat="60.59416" lon="7.5092">
        <ele>1207.07</ele>
        <time>2019-04-07T15:38:46Z</time>
      </trkpt>
      <trkpt lat="60.59416" lon="7.50922">
        <ele>1207.55</ele>
        <time>2019-04-07T15:39:18Z</time>
      </trkpt>
      <trkpt lat="60.59414" lon="7.50924">
        <ele>1207.55</ele>
        <time>2019-04-07T15:39:55Z</time>
      </trkpt>
      <trkpt lat="60.59416" lon="7.5092">
        <ele>1207.55</ele>
        <time>2019-04-07T15:40:34Z</time>
      </trkpt>
      <trkpt lat="60.59416" lon="7.50921">
        <ele>1208.03</ele>
        <time>2019-04-07T15:41:13Z</time>
      </trkpt>
      <trkpt lat="60.59416" lon="7.50921">
        <ele>1208.03</ele>
        <time>2019-04-07T15:41:53Z</time>
      </trkpt>
      <trkpt lat="60.59417" lon="7.5092">
        <ele>1208.51</ele>
        <time>2019-04-07T15:42:47Z</time>
      </trkpt>
      <trkpt lat="60.59417" lon="7.50923">
        <ele>1208.51</ele>
        <time>2019-04-07T15:43:28Z</time>
      </trkpt>
      <trkpt lat="60.59416" lon="7.50921">
        <ele>1209</ele>
        <time>2019-04-07T15:44:06Z</time>
      </trkpt>
      <trkpt lat="60.59415" lon="7.50921">
        <ele>1209</ele>
        <time>2019-04-07T15:44:38Z</time>
      </trkpt>
      <trkpt lat="60.59415" lon="7.50923">
        <ele>1209</ele>
        <time>2019-04-07T15:45:10Z</time>
      </trkpt>
      <trkpt lat="60.59415" lon="7.50923">
        <ele>1209</ele>
        <time>2019-04-07T15:45:44Z</time>
      </trkpt>
      <trkpt lat="60.59415" lon="7.50923">
        <ele>1209.48</ele>
        <time>2019-04-07T15:46:30Z</time>
      </trkpt>
      <trkpt lat="60.59415" lon="7.50924">
        <ele>1209.48</ele>
        <time>2019-04-07T15:47:24Z</time>
      </trkpt>
      <trkpt lat="60.59416" lon="7.50922">
        <ele>1209.48</ele>
        <time>2019-04-07T15:48:12Z</time>
      </trkpt>
      <trkpt lat="60.59417" lon="7.50917">
        <ele>1210.92</ele>
        <time>2019-04-07T15:48:33Z</time>
      </trkpt>
      <trkpt lat="60.59416" lon="7.50916">
        <ele>1209.48</ele>
        <time>2019-04-07T15:49:02Z</time>
      </trkpt>
      <trkpt lat="60.59416" lon="7.50918">
        <ele>1209.48</ele>
        <time>2019-04-07T15:49:29Z</time>
      </trkpt>
      <trkpt lat="60.59416" lon="7.5092">
        <ele>1209.48</ele>
        <time>2019-04-07T15:50:05Z</time>
      </trkpt>
      <trkpt lat="60.59417" lon="7.5092">
        <ele>1209.48</ele>
        <time>2019-04-07T15:50:41Z</time>
      </trkpt>
      <trkpt lat="60.59417" lon="7.50919">
        <ele>1209.48</ele>
        <time>2019-04-07T15:51:24Z</time>
      </trkpt>
      <trkpt lat="60.59418" lon="7.50919">
        <ele>1209.48</ele>
        <time>2019-04-07T15:52:05Z</time>
      </trkpt>
      <trkpt lat="60.59419" lon="7.50922">
        <ele>1209.48</ele>
        <time>2019-04-07T15:52:40Z</time>
      </trkpt>
      <trkpt lat="60.59416" lon="7.50919">
        <ele>1209.48</ele>
        <time>2019-04-07T15:53:07Z</time>
      </trkpt>
      <trkpt lat="60.59416" lon="7.50917">
        <ele>1209.48</ele>
        <time>2019-04-07T15:53:51Z</time>
      </trkpt>
      <trkpt lat="60.59415" lon="7.50916">
        <ele>1209.48</ele>
        <time>2019-04-07T15:54:14Z</time>
      </trkpt>
      <trkpt lat="60.59415" lon="7.50921">
        <ele>1209.48</ele>
        <time>2019-04-07T15:54:46Z</time>
      </trkpt>
      <trkpt lat="60.59415" lon="7.50918">
        <ele>1209.48</ele>
        <time>2019-04-07T15:55:15Z</time>
      </trkpt>
      <trkpt lat="60.59416" lon="7.50915">
        <ele>1209.48</ele>
        <time>2019-04-07T15:55:51Z</time>
      </trkpt>
      <trkpt lat="60.59416" lon="7.50915">
        <ele>1209.96</ele>
        <time>2019-04-07T15:56:27Z</time>
      </trkpt>
      <trkpt lat="60.59417" lon="7.50917">
        <ele>1209.48</ele>
        <time>2019-04-07T15:57:01Z</time>
      </trkpt>
      <trkpt lat="60.59416" lon="7.50921">
        <ele>1209.48</ele>
        <time>2019-04-07T15:57:44Z</time>
      </trkpt>
      <trkpt lat="60.59416" lon="7.50916">
        <ele>1209.48</ele>
        <time>2019-04-07T15:58:16Z</time>
      </trkpt>
      <trkpt lat="60.59416" lon="7.50916">
        <ele>1209.48</ele>
        <time>2019-04-07T15:58:51Z</time>
      </trkpt>
      <trkpt lat="60.59418" lon="7.5092">
        <ele>1209.48</ele>
        <time>2019-04-07T15:59:17Z</time>
      </trkpt>
      <trkpt lat="60.59419" lon="7.50924">
        <ele>1209.48</ele>
        <time>2019-04-07T16:00:01Z</time>
      </trkpt>
      <trkpt lat="60.59418" lon="7.50923">
        <ele>1209.96</ele>
        <time>2019-04-07T16:00:48Z</time>
      </trkpt>
      <trkpt lat="60.59417" lon="7.50921">
        <ele>1209.96</ele>
        <time>2019-04-07T16:01:20Z</time>
      </trkpt>
      <trkpt lat="60.59418" lon="7.50919">
        <ele>1209.96</ele>
        <time>2019-04-07T16:01:55Z</time>
      </trkpt>
      <trkpt lat="60.59419" lon="7.50922">
        <ele>1209.96</ele>
        <time>2019-04-07T16:02:34Z</time>
      </trkpt>
      <trkpt lat="60.59419" lon="7.5092">
        <ele>1209.48</ele>
        <time>2019-04-07T16:03:15Z</time>
      </trkpt>
      <trkpt lat="60.59418" lon="7.50921">
        <ele>1209.96</ele>
        <time>2019-04-07T16:04:05Z</time>
      </trkpt>
      <trkpt lat="60.59418" lon="7.5092">
        <ele>1209.96</ele>
        <time>2019-04-07T16:04:49Z</time>
      </trkpt>
      <trkpt lat="60.59418" lon="7.50919">
        <ele>1209.96</ele>
        <time>2019-04-07T16:05:32Z</time>
      </trkpt>
      <trkpt lat="60.59418" lon="7.50919">
        <ele>1209.96</ele>
        <time>2019-04-07T16:06:04Z</time>
      </trkpt>
      <trkpt lat="60.59419" lon="7.5092">
        <ele>1209.96</ele>
        <time>2019-04-07T16:06:47Z</time>
      </trkpt>
      <trkpt lat="60.59419" lon="7.50917">
        <ele>1209.96</ele>
        <time>2019-04-07T16:07:31Z</time>
      </trkpt>
      <trkpt lat="60.59417" lon="7.50919">
        <ele>1210.44</ele>
        <time>2019-04-07T16:08:08Z</time>
      </trkpt>
      <trkpt lat="60.59418" lon="7.50922">
        <ele>1210.44</ele>
        <time>2019-04-07T16:08:43Z</time>
      </trkpt>
      <trkpt lat="60.5942" lon="7.50923">
        <ele>1210.44</ele>
        <time>2019-04-07T16:09:26Z</time>
      </trkpt>
      <trkpt lat="60.59418" lon="7.5092">
        <ele>1210.44</ele>
        <time>2019-04-07T16:10:07Z</time>
      </trkpt>
      <trkpt lat="60.59418" lon="7.50919">
        <ele>1210.44</ele>
        <time>2019-04-07T16:10:38Z</time>
      </trkpt>
      <trkpt lat="60.59421" lon="7.50921">
        <ele>1210.44</ele>
        <time>2019-04-07T16:11:21Z</time>
      </trkpt>
      <trkpt lat="60.59422" lon="7.50922">
        <ele>1210.44</ele>
        <time>2019-04-07T16:11:54Z</time>
      </trkpt>
      <trkpt lat="60.59421" lon="7.50923">
        <ele>1210.44</ele>
        <time>2019-04-07T16:12:32Z</time>
      </trkpt>
      <trkpt lat="60.59419" lon="7.50919">
        <ele>1210.44</ele>
        <time>2019-04-07T16:13:12Z</time>
      </trkpt>
      <trkpt lat="60.59418" lon="7.50919">
        <ele>1210.44</ele>
        <time>2019-04-07T16:13:52Z</time>
      </trkpt>
      <trkpt lat="60.59419" lon="7.5092">
        <ele>1210.44</ele>
        <time>2019-04-07T16:14:21Z</time>
      </trkpt>
      <trkpt lat="60.59419" lon="7.50922">
        <ele>1210.44</ele>
        <time>2019-04-07T16:14:58Z</time>
      </trkpt>
      <trkpt lat="60.59418" lon="7.50919">
        <ele>1209.96</ele>
        <time>2019-04-07T16:15:42Z</time>
      </trkpt>
      <trkpt lat="60.59418" lon="7.50919">
        <ele>1209.96</ele>
        <time>2019-04-07T16:16:22Z</time>
      </trkpt>
      <trkpt lat="60.59417" lon="7.50921">
        <ele>1209.96</ele>
        <time>2019-04-07T16:16:55Z</time>
      </trkpt>
      <trkpt lat="60.59418" lon="7.50919">
        <ele>1209.96</ele>
        <time>2019-04-07T16:17:34Z</time>
      </trkpt>
      <trkpt lat="60.59419" lon="7.5092">
        <ele>1209.96</ele>
        <time>2019-04-07T16:18:06Z</time>
      </trkpt>
      <trkpt lat="60.59419" lon="7.5092">
        <ele>1209.96</ele>
        <time>2019-04-07T16:18:48Z</time>
      </trkpt>
      <trkpt lat="60.59419" lon="7.5092">
        <ele>1209.48</ele>
        <time>2019-04-07T16:19:37Z</time>
      </trkpt>
      <trkpt lat="60.59418" lon="7.50916">
        <ele>1209.48</ele>
        <time>2019-04-07T16:20:17Z</time>
      </trkpt>
      <trkpt lat="60.59418" lon="7.50917">
        <ele>1209.48</ele>
        <time>2019-04-07T16:20:56Z</time>
      </trkpt>
      <trkpt lat="60.59418" lon="7.50917">
        <ele>1209</ele>
        <time>2019-04-07T16:21:33Z</time>
      </trkpt>
      <trkpt lat="60.5942" lon="7.50921">
        <ele>1209</ele>
        <time>2019-04-07T16:22:16Z</time>
      </trkpt>
      <trkpt lat="60.59417" lon="7.50916">
        <ele>1209</ele>
        <time>2019-04-07T16:22:51Z</time>
      </trkpt>
      <trkpt lat="60.59418" lon="7.50915">
        <ele>1209</ele>
        <time>2019-04-07T16:23:25Z</time>
      </trkpt>
      <trkpt lat="60.59418" lon="7.50918">
        <ele>1209</ele>
        <time>2019-04-07T16:23:57Z</time>
      </trkpt>
      <trkpt lat="60.59418" lon="7.50919">
        <ele>1209</ele>
        <time>2019-04-07T16:24:36Z</time>
      </trkpt>
      <trkpt lat="60.59417" lon="7.50917">
        <ele>1209</ele>
        <time>2019-04-07T16:25:12Z</time>
      </trkpt>
      <trkpt lat="60.59417" lon="7.50914">
        <ele>1209</ele>
        <time>2019-04-07T16:25:40Z</time>
      </trkpt>
      <trkpt lat="60.59417" lon="7.50915">
        <ele>1209</ele>
        <time>2019-04-07T16:26:04Z</time>
      </trkpt>
      <trkpt lat="60.59418" lon="7.50918">
        <ele>1209</ele>
        <time>2019-04-07T16:26:34Z</time>
      </trkpt>
      <trkpt lat="60.59418" lon="7.50919">
        <ele>1209</ele>
        <time>2019-04-07T16:27:01Z</time>
      </trkpt>
      <trkpt lat="60.59417" lon="7.50916">
        <ele>1209</ele>
        <time>2019-04-07T16:27:40Z</time>
      </trkpt>
      <trkpt lat="60.59417" lon="7.50911">
        <ele>1209</ele>
        <time>2019-04-07T16:28:17Z</time>
      </trkpt>
      <trkpt lat="60.59418" lon="7.50909">
        <ele>1209</ele>
        <time>2019-04-07T16:28:48Z</time>
      </trkpt>
      <trkpt lat="60.59417" lon="7.50912">
        <ele>1209</ele>
        <time>2019-04-07T16:29:21Z</time>
      </trkpt>
      <trkpt lat="60.59418" lon="7.50911">
        <ele>1209</ele>
        <time>2019-04-07T16:30:02Z</time>
      </trkpt>
      <trkpt lat="60.59418" lon="7.50908">
        <ele>1209</ele>
        <time>2019-04-07T16:30:37Z</time>
      </trkpt>
      <trkpt lat="60.59417" lon="7.50915">
        <ele>1209</ele>
        <time>2019-04-07T16:31:15Z</time>
      </trkpt>
      <trkpt lat="60.58632" lon="7.50548">
        <ele>1256.1</ele>
        <time>2019-04-07T17:47:12Z</time>
      </trkpt>
      <trkpt lat="60.58633" lon="7.50548">
        <ele>1256.1</ele>
        <time>2019-04-07T17:47:13Z</time>
      </trkpt>
    </trkseg>
  </trk>
  <trk>
    <name><![CDATA[2019-04-08]]></name>
    <trkseg>
      <trkpt lat="60.59793" lon="7.50795">
        <ele>1239.76</ele>
        <time>2019-04-08T11:39:03Z</time>
      </trkpt>
      <trkpt lat="60.59794" lon="7.50796">
        <ele>1239.76</ele>
        <time>2019-04-08T11:39:04Z</time>
      </trkpt>
      <trkpt lat="60.59792" lon="7.50797">
        <ele>1238.8</ele>
        <time>2019-04-08T11:39:15Z</time>
      </trkpt>
      <trkpt lat="60.59791" lon="7.50797">
        <ele>1238.8</ele>
        <time>2019-04-08T11:39:19Z</time>
      </trkpt>
      <trkpt lat="60.59764" lon="7.50776">
        <ele>1238.32</ele>
        <time>2019-04-08T11:39:37Z</time>
      </trkpt>
      <trkpt lat="60.59746" lon="7.50767">
        <ele>1237.83</ele>
        <time>2019-04-08T11:39:53Z</time>
      </trkpt>
      <trkpt lat="60.59737" lon="7.50767">
        <ele>1235.91</ele>
        <time>2019-04-08T11:40:04Z</time>
      </trkpt>
      <trkpt lat="60.59725" lon="7.50761">
        <ele>1232.55</ele>
        <time>2019-04-08T11:40:15Z</time>
      </trkpt>
      <trkpt lat="60.59723" lon="7.5076">
        <ele>1232.55</ele>
        <time>2019-04-08T11:40:16Z</time>
      </trkpt>
      <trkpt lat="60.59708" lon="7.50744">
        <ele>1230.62</ele>
        <time>2019-04-08T11:40:28Z</time>
      </trkpt>
      <trkpt lat="60.59686" lon="7.50726">
        <ele>1230.62</ele>
        <time>2019-04-08T11:40:44Z</time>
      </trkpt>
      <trkpt lat="60.59663" lon="7.50708">
        <ele>1228.7</ele>
        <time>2019-04-08T11:40:58Z</time>
      </trkpt>
      <trkpt lat="60.59647" lon="7.50693">
        <ele>1227.74</ele>
        <time>2019-04-08T11:41:13Z</time>
      </trkpt>
      <trkpt lat="60.5963" lon="7.50682">
        <ele>1227.74</ele>
        <time>2019-04-08T11:41:28Z</time>
      </trkpt>
      <trkpt lat="60.59622" lon="7.50676">
        <ele>1227.74</ele>
        <time>2019-04-08T11:41:35Z</time>
      </trkpt>
      <trkpt lat="60.59601" lon="7.50654">
        <ele>1226.78</ele>
        <time>2019-04-08T11:41:55Z</time>
      </trkpt>
      <trkpt lat="60.59588" lon="7.50642">
        <ele>1228.22</ele>
        <time>2019-04-08T11:42:10Z</time>
      </trkpt>
      <trkpt lat="60.59588" lon="7.50643">
        <ele>1224.38</ele>
        <time>2019-04-08T11:42:16Z</time>
      </trkpt>
      <trkpt lat="60.59589" lon="7.50644">
        <ele>1226.78</ele>
        <time>2019-04-08T11:42:17Z</time>
      </trkpt>
      <trkpt lat="60.59589" lon="7.50644">
        <ele>1231.59</ele>
        <time>2019-04-08T11:42:20Z</time>
      </trkpt>
      <trkpt lat="60.59589" lon="7.50643">
        <ele>1227.26</ele>
        <time>2019-04-08T11:42:21Z</time>
      </trkpt>
      <trkpt lat="60.5957" lon="7.50627">
        <ele>1227.26</ele>
        <time>2019-04-08T11:42:33Z</time>
      </trkpt>
      <trkpt lat="60.5955" lon="7.50618">
        <ele>1226.3</ele>
        <time>2019-04-08T11:42:49Z</time>
      </trkpt>
      <trkpt lat="60.59534" lon="7.50603">
        <ele>1226.3</ele>
        <time>2019-04-08T11:43:04Z</time>
      </trkpt>
      <trkpt lat="60.59518" lon="7.50588">
        <ele>1226.3</ele>
        <time>2019-04-08T11:43:20Z</time>
      </trkpt>
      <trkpt lat="60.59501" lon="7.50574">
        <ele>1227.26</ele>
        <time>2019-04-08T11:43:37Z</time>
      </trkpt>
      <trkpt lat="60.59488" lon="7.50559">
        <ele>1227.26</ele>
        <time>2019-04-08T11:43:52Z</time>
      </trkpt>
      <trkpt lat="60.59471" lon="7.50544">
        <ele>1226.78</ele>
        <time>2019-04-08T11:44:09Z</time>
      </trkpt>
      <trkpt lat="60.59465" lon="7.50539">
        <ele>1225.82</ele>
        <time>2019-04-08T11:44:15Z</time>
      </trkpt>
      <trkpt lat="60.59448" lon="7.50526">
        <ele>1225.34</ele>
        <time>2019-04-08T11:44:32Z</time>
      </trkpt>
      <trkpt lat="60.59446" lon="7.50523">
        <ele>1225.34</ele>
        <time>2019-04-08T11:44:35Z</time>
      </trkpt>
      <trkpt lat="60.59426" lon="7.50511">
        <ele>1225.34</ele>
        <time>2019-04-08T11:44:53Z</time>
      </trkpt>
      <trkpt lat="60.59411" lon="7.505">
        <ele>1225.34</ele>
        <time>2019-04-08T11:45:09Z</time>
      </trkpt>
      <trkpt lat="60.59406" lon="7.50496">
        <ele>1225.34</ele>
        <time>2019-04-08T11:45:14Z</time>
      </trkpt>
      <trkpt lat="60.59386" lon="7.50478">
        <ele>1224.86</ele>
        <time>2019-04-08T11:45:33Z</time>
      </trkpt>
      <trkpt lat="60.59382" lon="7.50474">
        <ele>1224.86</ele>
        <time>2019-04-08T11:45:37Z</time>
      </trkpt>
      <trkpt lat="60.59366" lon="7.50459">
        <ele>1224.86</ele>
        <time>2019-04-08T11:45:54Z</time>
      </trkpt>
      <trkpt lat="60.59348" lon="7.50443">
        <ele>1224.86</ele>
        <time>2019-04-08T11:46:12Z</time>
      </trkpt>
      <trkpt lat="60.59332" lon="7.50431">
        <ele>1224.86</ele>
        <time>2019-04-08T11:46:28Z</time>
      </trkpt>
      <trkpt lat="60.59318" lon="7.50418">
        <ele>1226.3</ele>
        <time>2019-04-08T11:46:41Z</time>
      </trkpt>
      <trkpt lat="60.59304" lon="7.50409">
        <ele>1226.78</ele>
        <time>2019-04-08T11:46:58Z</time>
      </trkpt>
      <trkpt lat="60.59291" lon="7.50404">
        <ele>1227.74</ele>
        <time>2019-04-08T11:47:13Z</time>
      </trkpt>
      <trkpt lat="60.59275" lon="7.50399">
        <ele>1230.14</ele>
        <time>2019-04-08T11:47:31Z</time>
      </trkpt>
      <trkpt lat="60.59262" lon="7.50387">
        <ele>1231.11</ele>
        <time>2019-04-08T11:47:48Z</time>
      </trkpt>
      <trkpt lat="60.59247" lon="7.50376">
        <ele>1231.11</ele>
        <time>2019-04-08T11:48:03Z</time>
      </trkpt>
      <trkpt lat="60.59243" lon="7.50372">
        <ele>1231.11</ele>
        <time>2019-04-08T11:48:23Z</time>
      </trkpt>
      <trkpt lat="60.59243" lon="7.50373">
        <ele>1231.11</ele>
        <time>2019-04-08T11:48:55Z</time>
      </trkpt>
      <trkpt lat="60.59241" lon="7.50372">
        <ele>1230.62</ele>
        <time>2019-04-08T11:49:19Z</time>
      </trkpt>
      <trkpt lat="60.59242" lon="7.50373">
        <ele>1230.62</ele>
        <time>2019-04-08T11:49:44Z</time>
      </trkpt>
      <trkpt lat="60.5924" lon="7.50373">
        <ele>1230.62</ele>
        <time>2019-04-08T11:50:03Z</time>
      </trkpt>
      <trkpt lat="60.5924" lon="7.50374">
        <ele>1230.62</ele>
        <time>2019-04-08T11:50:26Z</time>
      </trkpt>
      <trkpt lat="60.59242" lon="7.50372">
        <ele>1230.14</ele>
        <time>2019-04-08T11:50:52Z</time>
      </trkpt>
      <trkpt lat="60.59238" lon="7.50368">
        <ele>1230.14</ele>
        <time>2019-04-08T11:51:09Z</time>
      </trkpt>
      <trkpt lat="60.59224" lon="7.50356">
        <ele>1230.62</ele>
        <time>2019-04-08T11:51:28Z</time>
      </trkpt>
      <trkpt lat="60.59207" lon="7.50344">
        <ele>1231.11</ele>
        <time>2019-04-08T11:51:46Z</time>
      </trkpt>
      <trkpt lat="60.59189" lon="7.50331">
        <ele>1231.59</ele>
        <time>2019-04-08T11:52:05Z</time>
      </trkpt>
      <trkpt lat="60.59173" lon="7.50323">
        <ele>1232.55</ele>
        <time>2019-04-08T11:52:21Z</time>
      </trkpt>
      <trkpt lat="60.59155" lon="7.50312">
        <ele>1233.99</ele>
        <time>2019-04-08T11:52:40Z</time>
      </trkpt>
      <trkpt lat="60.59135" lon="7.50308">
        <ele>1234.95</ele>
        <time>2019-04-08T11:52:58Z</time>
      </trkpt>
      <trkpt lat="60.59117" lon="7.503">
        <ele>1234.47</ele>
        <time>2019-04-08T11:53:14Z</time>
      </trkpt>
      <trkpt lat="60.59098" lon="7.50291">
        <ele>1234.95</ele>
        <time>2019-04-08T11:53:31Z</time>
      </trkpt>
      <trkpt lat="60.5908" lon="7.50284">
        <ele>1235.43</ele>
        <time>2019-04-08T11:53:48Z</time>
      </trkpt>
      <trkpt lat="60.59064" lon="7.50277">
        <ele>1236.39</ele>
        <time>2019-04-08T11:54:03Z</time>
      </trkpt>
      <trkpt lat="60.59046" lon="7.50271">
        <ele>1237.35</ele>
        <time>2019-04-08T11:54:20Z</time>
      </trkpt>
      <trkpt lat="60.59029" lon="7.50256">
        <ele>1238.32</ele>
        <time>2019-04-08T11:54:38Z</time>
      </trkpt>
      <trkpt lat="60.59013" lon="7.50241">
        <ele>1239.76</ele>
        <time>2019-04-08T11:54:55Z</time>
      </trkpt>
      <trkpt lat="60.58991" lon="7.50222">
        <ele>1241.2</ele>
        <time>2019-04-08T11:55:16Z</time>
      </trkpt>
      <trkpt lat="60.58972" lon="7.50207">
        <ele>1243.6</ele>
        <time>2019-04-08T11:55:36Z</time>
      </trkpt>
      <trkpt lat="60.58956" lon="7.50192">
        <ele>1246.01</ele>
        <time>2019-04-08T11:55:54Z</time>
      </trkpt>
      <trkpt lat="60.5894" lon="7.50174">
        <ele>1248.89</ele>
        <time>2019-04-08T11:56:13Z</time>
      </trkpt>
      <trkpt lat="60.58925" lon="7.50155">
        <ele>1251.29</ele>
        <time>2019-04-08T11:56:29Z</time>
      </trkpt>
      <trkpt lat="60.58909" lon="7.50135">
        <ele>1253.7</ele>
        <time>2019-04-08T11:56:49Z</time>
      </trkpt>
      <trkpt lat="60.58895" lon="7.50115">
        <ele>1256.58</ele>
        <time>2019-04-08T11:57:06Z</time>
      </trkpt>
      <trkpt lat="60.58881" lon="7.50094">
        <ele>1258.5</ele>
        <time>2019-04-08T11:57:24Z</time>
      </trkpt>
      <trkpt lat="60.58866" lon="7.50074">
        <ele>1260.91</ele>
        <time>2019-04-08T11:57:41Z</time>
      </trkpt>
      <trkpt lat="60.58854" lon="7.50059">
        <ele>1263.31</ele>
        <time>2019-04-08T11:57:57Z</time>
      </trkpt>
      <trkpt lat="60.58838" lon="7.50042">
        <ele>1264.75</ele>
        <time>2019-04-08T11:58:16Z</time>
      </trkpt>
      <trkpt lat="60.58832" lon="7.50039">
        <ele>1266.19</ele>
        <time>2019-04-08T11:58:29Z</time>
      </trkpt>
      <trkpt lat="60.58815" lon="7.5003">
        <ele>1267.16</ele>
        <time>2019-04-08T11:58:47Z</time>
      </trkpt>
      <trkpt lat="60.58797" lon="7.50024">
        <ele>1269.08</ele>
        <time>2019-04-08T11:59:05Z</time>
      </trkpt>
      <trkpt lat="60.58781" lon="7.50017">
        <ele>1270.52</ele>
        <time>2019-04-08T11:59:23Z</time>
      </trkpt>
      <trkpt lat="60.58766" lon="7.50009">
        <ele>1271</ele>
        <time>2019-04-08T11:59:39Z</time>
      </trkpt>
      <trkpt lat="60.58756" lon="7.5">
        <ele>1271.48</ele>
        <time>2019-04-08T11:59:54Z</time>
      </trkpt>
      <trkpt lat="60.58752" lon="7.49998">
        <ele>1271.48</ele>
        <time>2019-04-08T12:00:12Z</time>
      </trkpt>
      <trkpt lat="60.58753" lon="7.49999">
        <ele>1271</ele>
        <time>2019-04-08T12:00:42Z</time>
      </trkpt>
      <trkpt lat="60.58752" lon="7.49997">
        <ele>1271</ele>
        <time>2019-04-08T12:01:10Z</time>
      </trkpt>
      <trkpt lat="60.5874" lon="7.49992">
        <ele>1269.56</ele>
        <time>2019-04-08T12:01:17Z</time>
      </trkpt>
      <trkpt lat="60.58719" lon="7.49984">
        <ele>1267.64</ele>
        <time>2019-04-08T12:01:32Z</time>
      </trkpt>
      <trkpt lat="60.58695" lon="7.49977">
        <ele>1264.27</ele>
        <time>2019-04-08T12:01:44Z</time>
      </trkpt>
      <trkpt lat="60.58672" lon="7.49961">
        <ele>1261.87</ele>
        <time>2019-04-08T12:01:59Z</time>
      </trkpt>
      <trkpt lat="60.58652" lon="7.49945">
        <ele>1261.39</ele>
        <time>2019-04-08T12:02:16Z</time>
      </trkpt>
      <trkpt lat="60.58634" lon="7.4992">
        <ele>1260.43</ele>
        <time>2019-04-08T12:02:34Z</time>
      </trkpt>
      <trkpt lat="60.5862" lon="7.49898">
        <ele>1258.98</ele>
        <time>2019-04-08T12:02:48Z</time>
      </trkpt>
      <trkpt lat="60.58598" lon="7.49866">
        <ele>1256.1</ele>
        <time>2019-04-08T12:03:03Z</time>
      </trkpt>
      <trkpt lat="60.58596" lon="7.49864">
        <ele>1256.1</ele>
        <time>2019-04-08T12:03:04Z</time>
      </trkpt>
      <trkpt lat="60.5858" lon="7.4985">
        <ele>1255.14</ele>
        <time>2019-04-08T12:03:19Z</time>
      </trkpt>
      <trkpt lat="60.58566" lon="7.49846">
        <ele>1257.54</ele>
        <time>2019-04-08T12:03:34Z</time>
      </trkpt>
      <trkpt lat="60.58552" lon="7.49848">
        <ele>1260.43</ele>
        <time>2019-04-08T12:03:51Z</time>
      </trkpt>
      <trkpt lat="60.58538" lon="7.49845">
        <ele>1263.31</ele>
        <time>2019-04-08T12:04:08Z</time>
      </trkpt>
      <trkpt lat="60.58522" lon="7.49835">
        <ele>1264.27</ele>
        <time>2019-04-08T12:04:25Z</time>
      </trkpt>
      <trkpt lat="60.58506" lon="7.4983">
        <ele>1265.23</ele>
        <time>2019-04-08T12:04:42Z</time>
      </trkpt>
      <trkpt lat="60.58491" lon="7.49835">
        <ele>1265.23</ele>
        <time>2019-04-08T12:04:57Z</time>
      </trkpt>
      <trkpt lat="60.58475" lon="7.49835">
        <ele>1263.79</ele>
        <time>2019-04-08T12:05:12Z</time>
      </trkpt>
      <trkpt lat="60.58449" lon="7.49831">
        <ele>1263.31</ele>
        <time>2019-04-08T12:05:33Z</time>
      </trkpt>
      <trkpt lat="60.5843" lon="7.49832">
        <ele>1262.35</ele>
        <time>2019-04-08T12:05:49Z</time>
      </trkpt>
      <trkpt lat="60.58417" lon="7.49828">
        <ele>1264.27</ele>
        <time>2019-04-08T12:06:03Z</time>
      </trkpt>
      <trkpt lat="60.58401" lon="7.49821">
        <ele>1266.67</ele>
        <time>2019-04-08T12:06:21Z</time>
      </trkpt>
      <trkpt lat="60.58386" lon="7.49813">
        <ele>1267.64</ele>
        <time>2019-04-08T12:06:37Z</time>
      </trkpt>
      <trkpt lat="60.5838" lon="7.4981">
        <ele>1269.08</ele>
        <time>2019-04-08T12:06:51Z</time>
      </trkpt>
      <trkpt lat="60.58365" lon="7.49804">
        <ele>1269.56</ele>
        <time>2019-04-08T12:07:08Z</time>
      </trkpt>
      <trkpt lat="60.58363" lon="7.49806">
        <ele>1269.56</ele>
        <time>2019-04-08T12:07:10Z</time>
      </trkpt>
      <trkpt lat="60.58362" lon="7.49807">
        <ele>1269.56</ele>
        <time>2019-04-08T12:07:11Z</time>
      </trkpt>
      <trkpt lat="60.58361" lon="7.49809">
        <ele>1269.56</ele>
        <time>2019-04-08T12:07:12Z</time>
      </trkpt>
      <trkpt lat="60.58342" lon="7.49813">
        <ele>1269.56</ele>
        <time>2019-04-08T12:07:28Z</time>
      </trkpt>
      <trkpt lat="60.58325" lon="7.49818">
        <ele>1270.52</ele>
        <time>2019-04-08T12:07:44Z</time>
      </trkpt>
      <trkpt lat="60.5831" lon="7.49823">
        <ele>1271.96</ele>
        <time>2019-04-08T12:08:01Z</time>
      </trkpt>
      <trkpt lat="60.5829" lon="7.49826">
        <ele>1273.4</ele>
        <time>2019-04-08T12:08:21Z</time>
      </trkpt>
      <trkpt lat="60.58273" lon="7.49829">
        <ele>1276.29</ele>
        <time>2019-04-08T12:08:39Z</time>
      </trkpt>
      <trkpt lat="60.58261" lon="7.49831">
        <ele>1278.69</ele>
        <time>2019-04-08T12:08:54Z</time>
      </trkpt>
      <trkpt lat="60.58247" lon="7.49834">
        <ele>1281.09</ele>
        <time>2019-04-08T12:09:10Z</time>
      </trkpt>
      <trkpt lat="60.58231" lon="7.49838">
        <ele>1283.5</ele>
        <time>2019-04-08T12:09:28Z</time>
      </trkpt>
      <trkpt lat="60.58214" lon="7.49843">
        <ele>1285.42</ele>
        <time>2019-04-08T12:09:46Z</time>
      </trkpt>
      <trkpt lat="60.58197" lon="7.49851">
        <ele>1286.86</ele>
        <time>2019-04-08T12:10:04Z</time>
      </trkpt>
      <trkpt lat="60.58179" lon="7.49859">
        <ele>1288.78</ele>
        <time>2019-04-08T12:10:23Z</time>
      </trkpt>
      <trkpt lat="60.58161" lon="7.49863">
        <ele>1290.23</ele>
        <time>2019-04-08T12:10:43Z</time>
      </trkpt>
      <trkpt lat="60.58147" lon="7.49868">
        <ele>1292.15</ele>
        <time>2019-04-08T12:10:59Z</time>
      </trkpt>
      <trkpt lat="60.58131" lon="7.49876">
        <ele>1293.11</ele>
        <time>2019-04-08T12:11:15Z</time>
      </trkpt>
      <trkpt lat="60.58114" lon="7.49878">
        <ele>1295.03</ele>
        <time>2019-04-08T12:11:33Z</time>
      </trkpt>
      <trkpt lat="60.58102" lon="7.49881">
        <ele>1297.92</ele>
        <time>2019-04-08T12:11:49Z</time>
      </trkpt>
      <trkpt lat="60.5809" lon="7.49883">
        <ele>1301.28</ele>
        <time>2019-04-08T12:12:03Z</time>
      </trkpt>
      <trkpt lat="60.58076" lon="7.49886">
        <ele>1304.65</ele>
        <time>2019-04-08T12:12:21Z</time>
      </trkpt>
      <trkpt lat="60.58061" lon="7.4989">
        <ele>1308.01</ele>
        <time>2019-04-08T12:12:40Z</time>
      </trkpt>
      <trkpt lat="60.58054" lon="7.49884">
        <ele>1309.45</ele>
        <time>2019-04-08T12:12:49Z</time>
      </trkpt>
      <trkpt lat="60.58039" lon="7.4987">
        <ele>1312.34</ele>
        <time>2019-04-08T12:13:08Z</time>
      </trkpt>
      <trkpt lat="60.58026" lon="7.49852">
        <ele>1313.78</ele>
        <time>2019-04-08T12:13:26Z</time>
      </trkpt>
      <trkpt lat="60.58013" lon="7.49828">
        <ele>1314.74</ele>
        <time>2019-04-08T12:13:43Z</time>
      </trkpt>
      <trkpt lat="60.58008" lon="7.49813">
        <ele>1314.74</ele>
        <time>2019-04-08T12:13:51Z</time>
      </trkpt>
      <trkpt lat="60.57998" lon="7.4978">
        <ele>1314.26</ele>
        <time>2019-04-08T12:14:06Z</time>
      </trkpt>
      <trkpt lat="60.5799" lon="7.49757">
        <ele>1313.3</ele>
        <time>2019-04-08T12:14:16Z</time>
      </trkpt>
      <trkpt lat="60.57984" lon="7.49745">
        <ele>1312.82</ele>
        <time>2019-04-08T12:14:29Z</time>
      </trkpt>
      <trkpt lat="60.57973" lon="7.49725">
        <ele>1313.3</ele>
        <time>2019-04-08T12:14:42Z</time>
      </trkpt>
      <trkpt lat="60.5796" lon="7.49706">
        <ele>1313.78</ele>
        <time>2019-04-08T12:14:56Z</time>
      </trkpt>
      <trkpt lat="60.57946" lon="7.49685">
        <ele>1316.18</ele>
        <time>2019-04-08T12:15:14Z</time>
      </trkpt>
      <trkpt lat="60.57931" lon="7.49664">
        <ele>1318.59</ele>
        <time>2019-04-08T12:15:31Z</time>
      </trkpt>
      <trkpt lat="60.57917" lon="7.49645">
        <ele>1320.51</ele>
        <time>2019-04-08T12:15:48Z</time>
      </trkpt>
      <trkpt lat="60.57903" lon="7.49626">
        <ele>1322.91</ele>
        <time>2019-04-08T12:16:06Z</time>
      </trkpt>
      <trkpt lat="60.57889" lon="7.49608">
        <ele>1323.87</ele>
        <time>2019-04-08T12:16:22Z</time>
      </trkpt>
      <trkpt lat="60.57884" lon="7.49606">
        <ele>1323.87</ele>
        <time>2019-04-08T12:16:34Z</time>
      </trkpt>
      <trkpt lat="60.57866" lon="7.49585">
        <ele>1322.43</ele>
        <time>2019-04-08T12:16:54Z</time>
      </trkpt>
      <trkpt lat="60.57858" lon="7.49577">
        <ele>1323.87</ele>
        <time>2019-04-08T12:17:04Z</time>
      </trkpt>
      <trkpt lat="60.57846" lon="7.49561">
        <ele>1324.35</ele>
        <time>2019-04-08T12:17:18Z</time>
      </trkpt>
      <trkpt lat="60.57835" lon="7.49547">
        <ele>1325.8</ele>
        <time>2019-04-08T12:17:33Z</time>
      </trkpt>
      <trkpt lat="60.57823" lon="7.49528">
        <ele>1325.8</ele>
        <time>2019-04-08T12:17:49Z</time>
      </trkpt>
      <trkpt lat="60.57808" lon="7.49506">
        <ele>1325.8</ele>
        <time>2019-04-08T12:18:04Z</time>
      </trkpt>
      <trkpt lat="60.57802" lon="7.49498">
        <ele>1324.35</ele>
        <time>2019-04-08T12:18:10Z</time>
      </trkpt>
      <trkpt lat="60.57787" lon="7.49478">
        <ele>1322.91</ele>
        <time>2019-04-08T12:18:25Z</time>
      </trkpt>
      <trkpt lat="60.57781" lon="7.49466">
        <ele>1322.43</ele>
        <time>2019-04-08T12:18:41Z</time>
      </trkpt>
      <trkpt lat="60.5777" lon="7.49436">
        <ele>1321.47</ele>
        <time>2019-04-08T12:18:56Z</time>
      </trkpt>
      <trkpt lat="60.57759" lon="7.49409">
        <ele>1320.51</ele>
        <time>2019-04-08T12:19:11Z</time>
      </trkpt>
      <trkpt lat="60.57742" lon="7.49378">
        <ele>1317.62</ele>
        <time>2019-04-08T12:19:25Z</time>
      </trkpt>
      <trkpt lat="60.57721" lon="7.49341">
        <ele>1315.22</ele>
        <time>2019-04-08T12:19:42Z</time>
      </trkpt>
      <trkpt lat="60.57704" lon="7.49315">
        <ele>1312.34</ele>
        <time>2019-04-08T12:19:55Z</time>
      </trkpt>
      <trkpt lat="60.5768" lon="7.49286">
        <ele>1309.45</ele>
        <time>2019-04-08T12:20:09Z</time>
      </trkpt>
      <trkpt lat="60.57661" lon="7.49266">
        <ele>1306.57</ele>
        <time>2019-04-08T12:20:23Z</time>
      </trkpt>
      <trkpt lat="60.5764" lon="7.49243">
        <ele>1303.2</ele>
        <time>2019-04-08T12:20:39Z</time>
      </trkpt>
      <trkpt lat="60.5762" lon="7.49215">
        <ele>1300.8</ele>
        <time>2019-04-08T12:20:53Z</time>
      </trkpt>
      <trkpt lat="60.57603" lon="7.4919">
        <ele>1299.84</ele>
        <time>2019-04-08T12:21:10Z</time>
      </trkpt>
      <trkpt lat="60.57586" lon="7.49176">
        <ele>1299.84</ele>
        <time>2019-04-08T12:21:27Z</time>
      </trkpt>
      <trkpt lat="60.5757" lon="7.49162">
        <ele>1302.24</ele>
        <time>2019-04-08T12:21:45Z</time>
      </trkpt>
      <trkpt lat="60.57553" lon="7.49149">
        <ele>1303.69</ele>
        <time>2019-04-08T12:22:04Z</time>
      </trkpt>
      <trkpt lat="60.57536" lon="7.49138">
        <ele>1304.17</ele>
        <time>2019-04-08T12:22:22Z</time>
      </trkpt>
      <trkpt lat="60.57524" lon="7.49124">
        <ele>1302.72</ele>
        <time>2019-04-08T12:22:34Z</time>
      </trkpt>
      <trkpt lat="60.57506" lon="7.49099">
        <ele>1302.24</ele>
        <time>2019-04-08T12:22:54Z</time>
      </trkpt>
      <trkpt lat="60.57491" lon="7.49084">
        <ele>1302.24</ele>
        <time>2019-04-08T12:23:10Z</time>
      </trkpt>
      <trkpt lat="60.57489" lon="7.49081">
        <ele>1303.2</ele>
        <time>2019-04-08T12:23:12Z</time>
      </trkpt>
      <trkpt lat="60.57474" lon="7.49065">
        <ele>1305.61</ele>
        <time>2019-04-08T12:23:30Z</time>
      </trkpt>
      <trkpt lat="60.57461" lon="7.49046">
        <ele>1307.53</ele>
        <time>2019-04-08T12:23:49Z</time>
      </trkpt>
      <trkpt lat="60.57449" lon="7.49029">
        <ele>1309.45</ele>
        <time>2019-04-08T12:24:06Z</time>
      </trkpt>
      <trkpt lat="60.57437" lon="7.49013">
        <ele>1310.41</ele>
        <time>2019-04-08T12:24:22Z</time>
      </trkpt>
      <trkpt lat="60.57424" lon="7.48996">
        <ele>1312.82</ele>
        <time>2019-04-08T12:24:39Z</time>
      </trkpt>
      <trkpt lat="60.5741" lon="7.4898">
        <ele>1314.74</ele>
        <time>2019-04-08T12:24:58Z</time>
      </trkpt>
      <trkpt lat="60.57398" lon="7.48966">
        <ele>1317.62</ele>
        <time>2019-04-08T12:25:16Z</time>
      </trkpt>
      <trkpt lat="60.57393" lon="7.48959">
        <ele>1319.07</ele>
        <time>2019-04-08T12:25:34Z</time>
      </trkpt>
      <trkpt lat="60.57392" lon="7.48959">
        <ele>1318.59</ele>
        <time>2019-04-08T12:26:01Z</time>
      </trkpt>
      <trkpt lat="60.57387" lon="7.4895">
        <ele>1319.55</ele>
        <time>2019-04-08T12:26:26Z</time>
      </trkpt>
      <trkpt lat="60.57378" lon="7.48934">
        <ele>1321.95</ele>
        <time>2019-04-08T12:26:41Z</time>
      </trkpt>
      <trkpt lat="60.57371" lon="7.48918">
        <ele>1323.87</ele>
        <time>2019-04-08T12:26:57Z</time>
      </trkpt>
      <trkpt lat="60.5736" lon="7.48903">
        <ele>1326.76</ele>
        <time>2019-04-08T12:27:14Z</time>
      </trkpt>
      <trkpt lat="60.57352" lon="7.48891">
        <ele>1329.64</ele>
        <time>2019-04-08T12:27:28Z</time>
      </trkpt>
      <trkpt lat="60.57342" lon="7.48872">
        <ele>1332.52</ele>
        <time>2019-04-08T12:27:47Z</time>
      </trkpt>
      <trkpt lat="60.57337" lon="7.48849">
        <ele>1336.37</ele>
        <time>2019-04-08T12:28:03Z</time>
      </trkpt>
      <trkpt lat="60.57332" lon="7.48827">
        <ele>1339.25</ele>
        <time>2019-04-08T12:28:19Z</time>
      </trkpt>
      <trkpt lat="60.57328" lon="7.48803">
        <ele>1342.62</ele>
        <time>2019-04-08T12:28:36Z</time>
      </trkpt>
      <trkpt lat="60.57324" lon="7.48777">
        <ele>1345.98</ele>
        <time>2019-04-08T12:28:55Z</time>
      </trkpt>
      <trkpt lat="60.57319" lon="7.48749">
        <ele>1349.35</ele>
        <time>2019-04-08T12:29:13Z</time>
      </trkpt>
      <trkpt lat="60.57314" lon="7.48726">
        <ele>1352.23</ele>
        <time>2019-04-08T12:29:30Z</time>
      </trkpt>
      <trkpt lat="60.5731" lon="7.48706">
        <ele>1355.6</ele>
        <time>2019-04-08T12:29:46Z</time>
      </trkpt>
      <trkpt lat="60.57303" lon="7.48685">
        <ele>1358.96</ele>
        <time>2019-04-08T12:30:04Z</time>
      </trkpt>
      <trkpt lat="60.5729" lon="7.48669">
        <ele>1359.92</ele>
        <time>2019-04-08T12:30:20Z</time>
      </trkpt>
      <trkpt lat="60.57281" lon="7.48663">
        <ele>1360.88</ele>
        <time>2019-04-08T12:30:31Z</time>
      </trkpt>
      <trkpt lat="60.57269" lon="7.48647">
        <ele>1363.29</ele>
        <time>2019-04-08T12:30:49Z</time>
      </trkpt>
      <trkpt lat="60.57257" lon="7.48634">
        <ele>1366.17</ele>
        <time>2019-04-08T12:31:07Z</time>
      </trkpt>
      <trkpt lat="60.57242" lon="7.48623">
        <ele>1366.17</ele>
        <time>2019-04-08T12:31:23Z</time>
      </trkpt>
      <trkpt lat="60.57228" lon="7.48609">
        <ele>1367.13</ele>
        <time>2019-04-08T12:31:38Z</time>
      </trkpt>
      <trkpt lat="60.57224" lon="7.48603">
        <ele>1367.13</ele>
        <time>2019-04-08T12:31:56Z</time>
      </trkpt>
      <trkpt lat="60.57225" lon="7.48605">
        <ele>1366.65</ele>
        <time>2019-04-08T12:32:29Z</time>
      </trkpt>
      <trkpt lat="60.57213" lon="7.48595">
        <ele>1366.65</ele>
        <time>2019-04-08T12:32:53Z</time>
      </trkpt>
      <trkpt lat="60.57197" lon="7.48574">
        <ele>1366.65</ele>
        <time>2019-04-08T12:33:09Z</time>
      </trkpt>
      <trkpt lat="60.57183" lon="7.4856">
        <ele>1366.17</ele>
        <time>2019-04-08T12:33:24Z</time>
      </trkpt>
      <trkpt lat="60.57167" lon="7.48543">
        <ele>1366.17</ele>
        <time>2019-04-08T12:33:40Z</time>
      </trkpt>
      <trkpt lat="60.57153" lon="7.48526">
        <ele>1366.65</ele>
        <time>2019-04-08T12:33:57Z</time>
      </trkpt>
      <trkpt lat="60.5714" lon="7.48513">
        <ele>1367.13</ele>
        <time>2019-04-08T12:34:11Z</time>
      </trkpt>
      <trkpt lat="60.57137" lon="7.48509">
        <ele>1367.13</ele>
        <time>2019-04-08T12:34:15Z</time>
      </trkpt>
      <trkpt lat="60.57126" lon="7.48487">
        <ele>1370.02</ele>
        <time>2019-04-08T12:34:35Z</time>
      </trkpt>
      <trkpt lat="60.57115" lon="7.48474">
        <ele>1372.9</ele>
        <time>2019-04-08T12:34:52Z</time>
      </trkpt>
      <trkpt lat="60.57101" lon="7.48472">
        <ele>1375.3</ele>
        <time>2019-04-08T12:35:10Z</time>
      </trkpt>
      <trkpt lat="60.57092" lon="7.48461">
        <ele>1375.78</ele>
        <time>2019-04-08T12:35:22Z</time>
      </trkpt>
      <trkpt lat="60.57089" lon="7.48458">
        <ele>1375.78</ele>
        <time>2019-04-08T12:35:26Z</time>
      </trkpt>
      <trkpt lat="60.57079" lon="7.48455">
        <ele>1374.34</ele>
        <time>2019-04-08T12:35:36Z</time>
      </trkpt>
      <trkpt lat="60.57072" lon="7.48448">
        <ele>1373.38</ele>
        <time>2019-04-08T12:35:49Z</time>
      </trkpt>
      <trkpt lat="60.57056" lon="7.48437">
        <ele>1372.9</ele>
        <time>2019-04-08T12:36:05Z</time>
      </trkpt>
      <trkpt lat="60.57056" lon="7.48437">
        <ele>1372.9</ele>
        <time>2019-04-08T12:36:29Z</time>
      </trkpt>
      <trkpt lat="60.57055" lon="7.48437">
        <ele>1372.9</ele>
        <time>2019-04-08T12:36:54Z</time>
      </trkpt>
      <trkpt lat="60.57054" lon="7.48437">
        <ele>1372.9</ele>
        <time>2019-04-08T12:37:22Z</time>
      </trkpt>
      <trkpt lat="60.57057" lon="7.48437">
        <ele>1372.9</ele>
        <time>2019-04-08T12:37:52Z</time>
      </trkpt>
      <trkpt lat="60.57058" lon="7.48437">
        <ele>1372.42</ele>
        <time>2019-04-08T12:38:32Z</time>
      </trkpt>
      <trkpt lat="60.57054" lon="7.48436">
        <ele>1372.42</ele>
        <time>2019-04-08T12:38:59Z</time>
      </trkpt>
      <trkpt lat="60.57053" lon="7.48435">
        <ele>1372.42</ele>
        <time>2019-04-08T12:39:26Z</time>
      </trkpt>
      <trkpt lat="60.57047" lon="7.4843">
        <ele>1372.42</ele>
        <time>2019-04-08T12:39:49Z</time>
      </trkpt>
      <trkpt lat="60.57043" lon="7.48425">
        <ele>1373.38</ele>
        <time>2019-04-08T12:39:54Z</time>
      </trkpt>
      <trkpt lat="60.5703" lon="7.48414">
        <ele>1376.26</ele>
        <time>2019-04-08T12:40:09Z</time>
      </trkpt>
      <trkpt lat="60.57011" lon="7.48395">
        <ele>1376.26</ele>
        <time>2019-04-08T12:40:28Z</time>
      </trkpt>
      <trkpt lat="60.57006" lon="7.48388">
        <ele>1378.19</ele>
        <time>2019-04-08T12:40:45Z</time>
      </trkpt>
      <trkpt lat="60.57005" lon="7.48387">
        <ele>1372.42</ele>
        <time>2019-04-08T12:40:58Z</time>
      </trkpt>
      <trkpt lat="60.57006" lon="7.48386">
        <ele>1374.34</ele>
        <time>2019-04-08T12:40:59Z</time>
      </trkpt>
      <trkpt lat="60.57006" lon="7.48386">
        <ele>1377.71</ele>
        <time>2019-04-08T12:41:00Z</time>
      </trkpt>
      <trkpt lat="60.57006" lon="7.48386">
        <ele>1383.47</ele>
        <time>2019-04-08T12:41:01Z</time>
      </trkpt>
      <trkpt lat="60.57006" lon="7.48385">
        <ele>1383.47</ele>
        <time>2019-04-08T12:41:02Z</time>
      </trkpt>
      <trkpt lat="60.57005" lon="7.48385">
        <ele>1379.15</ele>
        <time>2019-04-08T12:41:03Z</time>
      </trkpt>
      <trkpt lat="60.57005" lon="7.48384">
        <ele>1379.15</ele>
        <time>2019-04-08T12:41:04Z</time>
      </trkpt>
      <trkpt lat="60.56997" lon="7.48375">
        <ele>1381.07</ele>
        <time>2019-04-08T12:41:16Z</time>
      </trkpt>
      <trkpt lat="60.56995" lon="7.48374">
        <ele>1381.55</ele>
        <time>2019-04-08T12:41:30Z</time>
      </trkpt>
      <trkpt lat="60.56986" lon="7.48365">
        <ele>1384.44</ele>
        <time>2019-04-08T12:41:47Z</time>
      </trkpt>
      <trkpt lat="60.5698" lon="7.48349">
        <ele>1387.8</ele>
        <time>2019-04-08T12:42:02Z</time>
      </trkpt>
      <trkpt lat="60.56971" lon="7.48326">
        <ele>1391.17</ele>
        <time>2019-04-08T12:42:20Z</time>
      </trkpt>
      <trkpt lat="60.56968" lon="7.48296">
        <ele>1394.05</ele>
        <time>2019-04-08T12:42:39Z</time>
      </trkpt>
      <trkpt lat="60.5697" lon="7.4827">
        <ele>1397.41</ele>
        <time>2019-04-08T12:42:53Z</time>
      </trkpt>
      <trkpt lat="60.56971" lon="7.48271">
        <ele>1393.09</ele>
        <time>2019-04-08T12:43:09Z</time>
      </trkpt>
      <trkpt lat="60.56971" lon="7.48271">
        <ele>1399.34</ele>
        <time>2019-04-08T12:43:10Z</time>
      </trkpt>
      <trkpt lat="60.56971" lon="7.4827">
        <ele>1395.01</ele>
        <time>2019-04-08T12:43:12Z</time>
      </trkpt>
      <trkpt lat="60.56971" lon="7.4827">
        <ele>1398.86</ele>
        <time>2019-04-08T12:43:13Z</time>
      </trkpt>
      <trkpt lat="60.56971" lon="7.48268">
        <ele>1397.41</ele>
        <time>2019-04-08T12:43:16Z</time>
      </trkpt>
      <trkpt lat="60.56974" lon="7.48239">
        <ele>1400.3</ele>
        <time>2019-04-08T12:43:33Z</time>
      </trkpt>
      <trkpt lat="60.56977" lon="7.48209">
        <ele>1403.18</ele>
        <time>2019-04-08T12:43:49Z</time>
      </trkpt>
      <trkpt lat="60.56977" lon="7.48208">
        <ele>1402.7</ele>
        <time>2019-04-08T12:43:50Z</time>
      </trkpt>
      <trkpt lat="60.56979" lon="7.4818">
        <ele>1405.1</ele>
        <time>2019-04-08T12:44:05Z</time>
      </trkpt>
      <trkpt lat="60.56982" lon="7.48143">
        <ele>1407.51</ele>
        <time>2019-04-08T12:44:23Z</time>
      </trkpt>
      <trkpt lat="60.56984" lon="7.48106">
        <ele>1409.91</ele>
        <time>2019-04-08T12:44:40Z</time>
      </trkpt>
      <trkpt lat="60.56986" lon="7.48068">
        <ele>1411.83</ele>
        <time>2019-04-08T12:44:57Z</time>
      </trkpt>
      <trkpt lat="60.56985" lon="7.48031">
        <ele>1412.79</ele>
        <time>2019-04-08T12:45:13Z</time>
      </trkpt>
      <trkpt lat="60.56982" lon="7.47995">
        <ele>1412.79</ele>
        <time>2019-04-08T12:45:29Z</time>
      </trkpt>
      <trkpt lat="60.56973" lon="7.47967">
        <ele>1413.76</ele>
        <time>2019-04-08T12:45:44Z</time>
      </trkpt>
      <trkpt lat="60.56962" lon="7.47942">
        <ele>1414.72</ele>
        <time>2019-04-08T12:45:58Z</time>
      </trkpt>
      <trkpt lat="60.56949" lon="7.47912">
        <ele>1416.16</ele>
        <time>2019-04-08T12:46:16Z</time>
      </trkpt>
      <trkpt lat="60.56936" lon="7.47888">
        <ele>1417.12</ele>
        <time>2019-04-08T12:46:31Z</time>
      </trkpt>
      <trkpt lat="60.56924" lon="7.47868">
        <ele>1418.56</ele>
        <time>2019-04-08T12:46:46Z</time>
      </trkpt>
      <trkpt lat="60.56912" lon="7.47841">
        <ele>1420.49</ele>
        <time>2019-04-08T12:47:02Z</time>
      </trkpt>
      <trkpt lat="60.56898" lon="7.47813">
        <ele>1420.49</ele>
        <time>2019-04-08T12:47:18Z</time>
      </trkpt>
      <trkpt lat="60.56884" lon="7.47786">
        <ele>1420.97</ele>
        <time>2019-04-08T12:47:35Z</time>
      </trkpt>
      <trkpt lat="60.56876" lon="7.47745">
        <ele>1420.97</ele>
        <time>2019-04-08T12:47:52Z</time>
      </trkpt>
      <trkpt lat="60.56875" lon="7.47723">
        <ele>1419.52</ele>
        <time>2019-04-08T12:47:59Z</time>
      </trkpt>
      <trkpt lat="60.56866" lon="7.47687">
        <ele>1419.04</ele>
        <time>2019-04-08T12:48:15Z</time>
      </trkpt>
      <trkpt lat="60.56863" lon="7.47679">
        <ele>1419.04</ele>
        <time>2019-04-08T12:48:29Z</time>
      </trkpt>
      <trkpt lat="60.56863" lon="7.47677">
        <ele>1419.04</ele>
        <time>2019-04-08T12:48:49Z</time>
      </trkpt>
      <trkpt lat="60.56862" lon="7.47682">
        <ele>1418.56</ele>
        <time>2019-04-08T12:49:12Z</time>
      </trkpt>
      <trkpt lat="60.56861" lon="7.47683">
        <ele>1420</ele>
        <time>2019-04-08T12:49:32Z</time>
      </trkpt>
      <trkpt lat="60.56861" lon="7.47683">
        <ele>1420</ele>
        <time>2019-04-08T12:49:48Z</time>
      </trkpt>
      <trkpt lat="60.5686" lon="7.47682">
        <ele>1419.52</ele>
        <time>2019-04-08T12:50:16Z</time>
      </trkpt>
      <trkpt lat="60.56859" lon="7.47681">
        <ele>1419.52</ele>
        <time>2019-04-08T12:50:43Z</time>
      </trkpt>
      <trkpt lat="60.56859" lon="7.47662">
        <ele>1418.08</ele>
        <time>2019-04-08T12:50:49Z</time>
      </trkpt>
      <trkpt lat="60.56851" lon="7.47625">
        <ele>1416.64</ele>
        <time>2019-04-08T12:51:02Z</time>
      </trkpt>
      <trkpt lat="60.56839" lon="7.47602">
        <ele>1416.64</ele>
        <time>2019-04-08T12:51:18Z</time>
      </trkpt>
      <trkpt lat="60.56824" lon="7.47586">
        <ele>1416.64</ele>
        <time>2019-04-08T12:51:34Z</time>
      </trkpt>
      <trkpt lat="60.56809" lon="7.4757">
        <ele>1418.08</ele>
        <time>2019-04-08T12:51:50Z</time>
      </trkpt>
      <trkpt lat="60.56796" lon="7.47556">
        <ele>1418.56</ele>
        <time>2019-04-08T12:52:05Z</time>
      </trkpt>
      <trkpt lat="60.56782" lon="7.47536">
        <ele>1419.04</ele>
        <time>2019-04-08T12:52:22Z</time>
      </trkpt>
      <trkpt lat="60.5677" lon="7.47515">
        <ele>1419.52</ele>
        <time>2019-04-08T12:52:37Z</time>
      </trkpt>
      <trkpt lat="60.56757" lon="7.47491">
        <ele>1420</ele>
        <time>2019-04-08T12:52:53Z</time>
      </trkpt>
      <trkpt lat="60.56745" lon="7.47464">
        <ele>1421.93</ele>
        <time>2019-04-08T12:53:12Z</time>
      </trkpt>
      <trkpt lat="60.56736" lon="7.47439">
        <ele>1423.37</ele>
        <time>2019-04-08T12:53:29Z</time>
      </trkpt>
      <trkpt lat="60.56731" lon="7.47423">
        <ele>1426.25</ele>
        <time>2019-04-08T12:53:44Z</time>
      </trkpt>
      <trkpt lat="60.56723" lon="7.47402">
        <ele>1427.21</ele>
        <time>2019-04-08T12:53:57Z</time>
      </trkpt>
      <trkpt lat="60.56713" lon="7.47372">
        <ele>1428.66</ele>
        <time>2019-04-08T12:54:15Z</time>
      </trkpt>
      <trkpt lat="60.56713" lon="7.47371">
        <ele>1429.14</ele>
        <time>2019-04-08T12:54:37Z</time>
      </trkpt>
      <trkpt lat="60.56714" lon="7.47372">
        <ele>1429.14</ele>
        <time>2019-04-08T12:55:01Z</time>
      </trkpt>
      <trkpt lat="60.56715" lon="7.47372">
        <ele>1429.14</ele>
        <time>2019-04-08T12:55:34Z</time>
      </trkpt>
      <trkpt lat="60.56705" lon="7.47349">
        <ele>1430.58</ele>
        <time>2019-04-08T12:55:50Z</time>
      </trkpt>
      <trkpt lat="60.56692" lon="7.47313">
        <ele>1432.5</ele>
        <time>2019-04-08T12:56:09Z</time>
      </trkpt>
      <trkpt lat="60.56683" lon="7.4729">
        <ele>1433.94</ele>
        <time>2019-04-08T12:56:23Z</time>
      </trkpt>
      <trkpt lat="60.5667" lon="7.47266">
        <ele>1436.35</ele>
        <time>2019-04-08T12:56:40Z</time>
      </trkpt>
      <trkpt lat="60.56658" lon="7.47245">
        <ele>1438.27</ele>
        <time>2019-04-08T12:56:57Z</time>
      </trkpt>
      <trkpt lat="60.56646" lon="7.47223">
        <ele>1440.19</ele>
        <time>2019-04-08T12:57:14Z</time>
      </trkpt>
      <trkpt lat="60.56634" lon="7.47203">
        <ele>1442.6</ele>
        <time>2019-04-08T12:57:30Z</time>
      </trkpt>
      <trkpt lat="60.56621" lon="7.4718">
        <ele>1445</ele>
        <time>2019-04-08T12:57:48Z</time>
      </trkpt>
      <trkpt lat="60.5661" lon="7.4716">
        <ele>1447.4</ele>
        <time>2019-04-08T12:58:05Z</time>
      </trkpt>
      <trkpt lat="60.56597" lon="7.47135">
        <ele>1450.29</ele>
        <time>2019-04-08T12:58:24Z</time>
      </trkpt>
      <trkpt lat="60.56593" lon="7.47127">
        <ele>1451.73</ele>
        <time>2019-04-08T12:58:40Z</time>
      </trkpt>
      <trkpt lat="60.56593" lon="7.47125">
        <ele>1451.25</ele>
        <time>2019-04-08T12:59:10Z</time>
      </trkpt>
      <trkpt lat="60.56589" lon="7.47118">
        <ele>1451.73</ele>
        <time>2019-04-08T12:59:36Z</time>
      </trkpt>
      <trkpt lat="60.56582" lon="7.471">
        <ele>1453.17</ele>
        <time>2019-04-08T12:59:51Z</time>
      </trkpt>
      <trkpt lat="60.56573" lon="7.47079">
        <ele>1454.61</ele>
        <time>2019-04-08T13:00:07Z</time>
      </trkpt>
      <trkpt lat="60.56566" lon="7.47058">
        <ele>1457.98</ele>
        <time>2019-04-08T13:00:20Z</time>
      </trkpt>
      <trkpt lat="60.56556" lon="7.47031">
        <ele>1459.42</ele>
        <time>2019-04-08T13:00:35Z</time>
      </trkpt>
      <trkpt lat="60.56546" lon="7.47004">
        <ele>1462.3</ele>
        <time>2019-04-08T13:00:51Z</time>
      </trkpt>
      <trkpt lat="60.56535" lon="7.46978">
        <ele>1464.71</ele>
        <time>2019-04-08T13:01:09Z</time>
      </trkpt>
      <trkpt lat="60.56522" lon="7.46958">
        <ele>1467.59</ele>
        <time>2019-04-08T13:01:25Z</time>
      </trkpt>
      <trkpt lat="60.5651" lon="7.46938">
        <ele>1469.51</ele>
        <time>2019-04-08T13:01:43Z</time>
      </trkpt>
      <trkpt lat="60.56497" lon="7.46919">
        <ele>1471.44</ele>
        <time>2019-04-08T13:02:00Z</time>
      </trkpt>
      <trkpt lat="60.56485" lon="7.46904">
        <ele>1472.88</ele>
        <time>2019-04-08T13:02:15Z</time>
      </trkpt>
      <trkpt lat="60.56473" lon="7.46888">
        <ele>1474.8</ele>
        <time>2019-04-08T13:02:30Z</time>
      </trkpt>
      <trkpt lat="60.56459" lon="7.46868">
        <ele>1476.72</ele>
        <time>2019-04-08T13:02:47Z</time>
      </trkpt>
      <trkpt lat="60.56445" lon="7.4685">
        <ele>1479.13</ele>
        <time>2019-04-08T13:03:04Z</time>
      </trkpt>
      <trkpt lat="60.56432" lon="7.46833">
        <ele>1481.05</ele>
        <time>2019-04-08T13:03:20Z</time>
      </trkpt>
      <trkpt lat="60.56419" lon="7.46817">
        <ele>1482.97</ele>
        <time>2019-04-08T13:03:35Z</time>
      </trkpt>
      <trkpt lat="60.56401" lon="7.46799">
        <ele>1484.89</ele>
        <time>2019-04-08T13:03:54Z</time>
      </trkpt>
      <trkpt lat="60.56385" lon="7.4679">
        <ele>1486.82</ele>
        <time>2019-04-08T13:04:10Z</time>
      </trkpt>
      <trkpt lat="60.56367" lon="7.46775">
        <ele>1488.74</ele>
        <time>2019-04-08T13:04:27Z</time>
      </trkpt>
      <trkpt lat="60.56353" lon="7.46762">
        <ele>1490.18</ele>
        <time>2019-04-08T13:04:41Z</time>
      </trkpt>
      <trkpt lat="60.5634" lon="7.46754">
        <ele>1491.62</ele>
        <time>2019-04-08T13:04:53Z</time>
      </trkpt>
      <trkpt lat="60.56334" lon="7.46749">
        <ele>1492.1</ele>
        <time>2019-04-08T13:04:58Z</time>
      </trkpt>
      <trkpt lat="60.5633" lon="7.46746">
        <ele>1492.58</ele>
        <time>2019-04-08T13:05:02Z</time>
      </trkpt>
      <trkpt lat="60.56311" lon="7.46737">
        <ele>1494.03</ele>
        <time>2019-04-08T13:05:20Z</time>
      </trkpt>
      <trkpt lat="60.56291" lon="7.46742">
        <ele>1494.99</ele>
        <time>2019-04-08T13:05:38Z</time>
      </trkpt>
      <trkpt lat="60.56273" lon="7.46753">
        <ele>1496.43</ele>
        <time>2019-04-08T13:05:55Z</time>
      </trkpt>
      <trkpt lat="60.56256" lon="7.46767">
        <ele>1498.83</ele>
        <time>2019-04-08T13:06:14Z</time>
      </trkpt>
      <trkpt lat="60.56241" lon="7.46774">
        <ele>1501.72</ele>
        <time>2019-04-08T13:06:31Z</time>
      </trkpt>
      <trkpt lat="60.56226" lon="7.46781">
        <ele>1504.6</ele>
        <time>2019-04-08T13:06:50Z</time>
      </trkpt>
      <trkpt lat="60.56211" lon="7.46791">
        <ele>1507.48</ele>
        <time>2019-04-08T13:07:09Z</time>
      </trkpt>
      <trkpt lat="60.56199" lon="7.46802">
        <ele>1510.85</ele>
        <time>2019-04-08T13:07:25Z</time>
      </trkpt>
      <trkpt lat="60.5619" lon="7.46817">
        <ele>1514.21</ele>
        <time>2019-04-08T13:07:41Z</time>
      </trkpt>
      <trkpt lat="60.56179" lon="7.46837">
        <ele>1517.58</ele>
        <time>2019-04-08T13:07:59Z</time>
      </trkpt>
      <trkpt lat="60.56171" lon="7.46859">
        <ele>1520.94</ele>
        <time>2019-04-08T13:08:15Z</time>
      </trkpt>
      <trkpt lat="60.56164" lon="7.46881">
        <ele>1522.39</ele>
        <time>2019-04-08T13:08:29Z</time>
      </trkpt>
      <trkpt lat="60.56159" lon="7.46913">
        <ele>1524.79</ele>
        <time>2019-04-08T13:08:46Z</time>
      </trkpt>
      <trkpt lat="60.56152" lon="7.46949">
        <ele>1526.23</ele>
        <time>2019-04-08T13:09:04Z</time>
      </trkpt>
      <trkpt lat="60.56148" lon="7.46987">
        <ele>1528.15</ele>
        <time>2019-04-08T13:09:23Z</time>
      </trkpt>
      <trkpt lat="60.56146" lon="7.47022">
        <ele>1530.56</ele>
        <time>2019-04-08T13:09:41Z</time>
      </trkpt>
      <trkpt lat="60.56144" lon="7.47059">
        <ele>1533.44</ele>
        <time>2019-04-08T13:10:00Z</time>
      </trkpt>
      <trkpt lat="60.56142" lon="7.47091">
        <ele>1535.36</ele>
        <time>2019-04-08T13:10:17Z</time>
      </trkpt>
      <trkpt lat="60.5614" lon="7.47124">
        <ele>1538.73</ele>
        <time>2019-04-08T13:10:35Z</time>
      </trkpt>
      <trkpt lat="60.56137" lon="7.47157">
        <ele>1542.09</ele>
        <time>2019-04-08T13:10:53Z</time>
      </trkpt>
      <trkpt lat="60.56137" lon="7.47184">
        <ele>1545.46</ele>
        <time>2019-04-08T13:11:10Z</time>
      </trkpt>
      <trkpt lat="60.56133" lon="7.47214">
        <ele>1547.86</ele>
        <time>2019-04-08T13:11:29Z</time>
      </trkpt>
      <trkpt lat="60.56127" lon="7.47241">
        <ele>1551.22</ele>
        <time>2019-04-08T13:11:47Z</time>
      </trkpt>
      <trkpt lat="60.5612" lon="7.4727">
        <ele>1554.59</ele>
        <time>2019-04-08T13:12:05Z</time>
      </trkpt>
      <trkpt lat="60.56114" lon="7.47288">
        <ele>1556.03</ele>
        <time>2019-04-08T13:12:19Z</time>
      </trkpt>
      <trkpt lat="60.56109" lon="7.47301">
        <ele>1556.99</ele>
        <time>2019-04-08T13:12:29Z</time>
      </trkpt>
      <trkpt lat="60.56096" lon="7.47318">
        <ele>1559.4</ele>
        <time>2019-04-08T13:12:46Z</time>
      </trkpt>
      <trkpt lat="60.56085" lon="7.47338">
        <ele>1561.8</ele>
        <time>2019-04-08T13:13:04Z</time>
      </trkpt>
      <trkpt lat="60.56084" lon="7.47336">
        <ele>1561.32</ele>
        <time>2019-04-08T13:13:39Z</time>
      </trkpt>
      <trkpt lat="60.56081" lon="7.47347">
        <ele>1561.32</ele>
        <time>2019-04-08T13:13:53Z</time>
      </trkpt>
      <trkpt lat="60.56071" lon="7.47376">
        <ele>1563.72</ele>
        <time>2019-04-08T13:14:10Z</time>
      </trkpt>
      <trkpt lat="60.56061" lon="7.47401">
        <ele>1564.68</ele>
        <time>2019-04-08T13:14:26Z</time>
      </trkpt>
      <trkpt lat="60.56056" lon="7.47415">
        <ele>1566.12</ele>
        <time>2019-04-08T13:14:35Z</time>
      </trkpt>
      <trkpt lat="60.56047" lon="7.4744">
        <ele>1568.53</ele>
        <time>2019-04-08T13:14:52Z</time>
      </trkpt>
      <trkpt lat="60.5604" lon="7.47462">
        <ele>1569.97</ele>
        <time>2019-04-08T13:15:06Z</time>
      </trkpt>
      <trkpt lat="60.56029" lon="7.47484">
        <ele>1571.89</ele>
        <time>2019-04-08T13:15:23Z</time>
      </trkpt>
      <trkpt lat="60.56027" lon="7.47489">
        <ele>1571.89</ele>
        <time>2019-04-08T13:15:50Z</time>
      </trkpt>
      <trkpt lat="60.56024" lon="7.47494">
        <ele>1572.37</ele>
        <time>2019-04-08T13:16:05Z</time>
      </trkpt>
      <trkpt lat="60.5602" lon="7.47504">
        <ele>1573.33</ele>
        <time>2019-04-08T13:16:32Z</time>
      </trkpt>
      <trkpt lat="60.56012" lon="7.47529">
        <ele>1575.26</ele>
        <time>2019-04-08T13:16:49Z</time>
      </trkpt>
      <trkpt lat="60.56005" lon="7.47553">
        <ele>1577.18</ele>
        <time>2019-04-08T13:17:06Z</time>
      </trkpt>
      <trkpt lat="60.55997" lon="7.47574">
        <ele>1580.54</ele>
        <time>2019-04-08T13:17:24Z</time>
      </trkpt>
      <trkpt lat="60.55988" lon="7.47597">
        <ele>1582.95</ele>
        <time>2019-04-08T13:17:42Z</time>
      </trkpt>
      <trkpt lat="60.5598" lon="7.47618">
        <ele>1584.87</ele>
        <time>2019-04-08T13:18:00Z</time>
      </trkpt>
      <trkpt lat="60.55975" lon="7.47635">
        <ele>1587.27</ele>
        <time>2019-04-08T13:18:17Z</time>
      </trkpt>
      <trkpt lat="60.55973" lon="7.47651">
        <ele>1590.16</ele>
        <time>2019-04-08T13:18:32Z</time>
      </trkpt>
      <trkpt lat="60.55968" lon="7.47672">
        <ele>1593.52</ele>
        <time>2019-04-08T13:18:49Z</time>
      </trkpt>
      <trkpt lat="60.55962" lon="7.47688">
        <ele>1596.89</ele>
        <time>2019-04-08T13:19:05Z</time>
      </trkpt>
      <trkpt lat="60.55952" lon="7.47707">
        <ele>1599.77</ele>
        <time>2019-04-08T13:19:22Z</time>
      </trkpt>
      <trkpt lat="60.55943" lon="7.47723">
        <ele>1603.14</ele>
        <time>2019-04-08T13:19:39Z</time>
      </trkpt>
      <trkpt lat="60.55934" lon="7.47748">
        <ele>1606.02</ele>
        <time>2019-04-08T13:19:59Z</time>
      </trkpt>
      <trkpt lat="60.55925" lon="7.47767">
        <ele>1609.38</ele>
        <time>2019-04-08T13:20:17Z</time>
      </trkpt>
      <trkpt lat="60.55913" lon="7.47787">
        <ele>1613.23</ele>
        <time>2019-04-08T13:20:36Z</time>
      </trkpt>
      <trkpt lat="60.55901" lon="7.47803">
        <ele>1616.11</ele>
        <time>2019-04-08T13:20:53Z</time>
      </trkpt>
      <trkpt lat="60.55892" lon="7.47813">
        <ele>1619</ele>
        <time>2019-04-08T13:21:05Z</time>
      </trkpt>
      <trkpt lat="60.5588" lon="7.47818">
        <ele>1622.84</ele>
        <time>2019-04-08T13:21:23Z</time>
      </trkpt>
      <trkpt lat="60.55871" lon="7.47819">
        <ele>1626.21</ele>
        <time>2019-04-08T13:21:35Z</time>
      </trkpt>
      <trkpt lat="60.5586" lon="7.47817">
        <ele>1629.57</ele>
        <time>2019-04-08T13:21:49Z</time>
      </trkpt>
      <trkpt lat="60.55853" lon="7.47816">
        <ele>1629.57</ele>
        <time>2019-04-08T13:22:06Z</time>
      </trkpt>
      <trkpt lat="60.55853" lon="7.47816">
        <ele>1629.57</ele>
        <time>2019-04-08T13:22:07Z</time>
      </trkpt>
      <trkpt lat="60.55851" lon="7.47815">
        <ele>1630.53</ele>
        <time>2019-04-08T13:22:23Z</time>
      </trkpt>
      <trkpt lat="60.55842" lon="7.47819">
        <ele>1633.9</ele>
        <time>2019-04-08T13:22:37Z</time>
      </trkpt>
      <trkpt lat="60.55831" lon="7.47817">
        <ele>1637.26</ele>
        <time>2019-04-08T13:22:53Z</time>
      </trkpt>
      <trkpt lat="60.55821" lon="7.47812">
        <ele>1640.63</ele>
        <time>2019-04-08T13:23:07Z</time>
      </trkpt>
      <trkpt lat="60.55812" lon="7.47804">
        <ele>1643.03</ele>
        <time>2019-04-08T13:23:21Z</time>
      </trkpt>
      <trkpt lat="60.55801" lon="7.47791">
        <ele>1646.88</ele>
        <time>2019-04-08T13:23:38Z</time>
      </trkpt>
      <trkpt lat="60.5579" lon="7.47771">
        <ele>1650.24</ele>
        <time>2019-04-08T13:23:57Z</time>
      </trkpt>
      <trkpt lat="60.55785" lon="7.47756">
        <ele>1650.72</ele>
        <time>2019-04-08T13:24:08Z</time>
      </trkpt>
      <trkpt lat="60.55777" lon="7.47731">
        <ele>1653.12</ele>
        <time>2019-04-08T13:24:25Z</time>
      </trkpt>
      <trkpt lat="60.5577" lon="7.47718">
        <ele>1655.05</ele>
        <time>2019-04-08T13:24:35Z</time>
      </trkpt>
      <trkpt lat="60.55764" lon="7.47707">
        <ele>1656.49</ele>
        <time>2019-04-08T13:24:48Z</time>
      </trkpt>
      <trkpt lat="60.5575" lon="7.47694">
        <ele>1657.93</ele>
        <time>2019-04-08T13:25:04Z</time>
      </trkpt>
      <trkpt lat="60.55734" lon="7.47679">
        <ele>1658.41</ele>
        <time>2019-04-08T13:25:20Z</time>
      </trkpt>
      <trkpt lat="60.55719" lon="7.47665">
        <ele>1659.37</ele>
        <time>2019-04-08T13:25:34Z</time>
      </trkpt>
      <trkpt lat="60.55704" lon="7.47646">
        <ele>1660.33</ele>
        <time>2019-04-08T13:25:51Z</time>
      </trkpt>
      <trkpt lat="60.55687" lon="7.47627">
        <ele>1663.22</ele>
        <time>2019-04-08T13:26:10Z</time>
      </trkpt>
      <trkpt lat="60.55677" lon="7.47615">
        <ele>1666.1</ele>
        <time>2019-04-08T13:26:23Z</time>
      </trkpt>
      <trkpt lat="60.55666" lon="7.47602">
        <ele>1669.95</ele>
        <time>2019-04-08T13:26:39Z</time>
      </trkpt>
      <trkpt lat="60.55656" lon="7.47593">
        <ele>1673.31</ele>
        <time>2019-04-08T13:26:56Z</time>
      </trkpt>
      <trkpt lat="60.55646" lon="7.47585">
        <ele>1676.68</ele>
        <time>2019-04-08T13:27:11Z</time>
      </trkpt>
      <trkpt lat="60.55636" lon="7.47579">
        <ele>1680.04</ele>
        <time>2019-04-08T13:27:28Z</time>
      </trkpt>
      <trkpt lat="60.55627" lon="7.47576">
        <ele>1683.41</ele>
        <time>2019-04-08T13:27:43Z</time>
      </trkpt>
      <trkpt lat="60.55615" lon="7.47572">
        <ele>1686.77</ele>
        <time>2019-04-08T13:28:00Z</time>
      </trkpt>
      <trkpt lat="60.55604" lon="7.47564">
        <ele>1689.17</ele>
        <time>2019-04-08T13:28:17Z</time>
      </trkpt>
      <trkpt lat="60.55597" lon="7.47554">
        <ele>1692.54</ele>
        <time>2019-04-08T13:28:31Z</time>
      </trkpt>
      <trkpt lat="60.55587" lon="7.47545">
        <ele>1695.9</ele>
        <time>2019-04-08T13:28:46Z</time>
      </trkpt>
      <trkpt lat="60.55578" lon="7.47535">
        <ele>1698.79</ele>
        <time>2019-04-08T13:29:03Z</time>
      </trkpt>
      <trkpt lat="60.5557" lon="7.47524">
        <ele>1702.63</ele>
        <time>2019-04-08T13:29:19Z</time>
      </trkpt>
      <trkpt lat="60.55562" lon="7.47517">
        <ele>1705.52</ele>
        <time>2019-04-08T13:29:35Z</time>
      </trkpt>
      <trkpt lat="60.55553" lon="7.4751">
        <ele>1708.88</ele>
        <time>2019-04-08T13:29:51Z</time>
      </trkpt>
      <trkpt lat="60.55544" lon="7.47496">
        <ele>1711.76</ele>
        <time>2019-04-08T13:30:11Z</time>
      </trkpt>
      <trkpt lat="60.55537" lon="7.47482">
        <ele>1715.13</ele>
        <time>2019-04-08T13:30:26Z</time>
      </trkpt>
      <trkpt lat="60.55526" lon="7.47468">
        <ele>1718.01</ele>
        <time>2019-04-08T13:30:43Z</time>
      </trkpt>
      <trkpt lat="60.55516" lon="7.47454">
        <ele>1721.86</ele>
        <time>2019-04-08T13:31:01Z</time>
      </trkpt>
      <trkpt lat="60.55507" lon="7.4744">
        <ele>1725.7</ele>
        <time>2019-04-08T13:31:18Z</time>
      </trkpt>
      <trkpt lat="60.55496" lon="7.47427">
        <ele>1729.07</ele>
        <time>2019-04-08T13:31:36Z</time>
      </trkpt>
      <trkpt lat="60.55487" lon="7.47414">
        <ele>1731.95</ele>
        <time>2019-04-08T13:31:51Z</time>
      </trkpt>
      <trkpt lat="60.55479" lon="7.47405">
        <ele>1735.32</ele>
        <time>2019-04-08T13:32:06Z</time>
      </trkpt>
      <trkpt lat="60.55471" lon="7.47395">
        <ele>1738.68</ele>
        <time>2019-04-08T13:32:19Z</time>
      </trkpt>
      <trkpt lat="60.55463" lon="7.47381">
        <ele>1741.08</ele>
        <time>2019-04-08T13:32:37Z</time>
      </trkpt>
      <trkpt lat="60.55455" lon="7.4737">
        <ele>1744.45</ele>
        <time>2019-04-08T13:32:51Z</time>
      </trkpt>
      <trkpt lat="60.55448" lon="7.47362">
        <ele>1747.33</ele>
        <time>2019-04-08T13:33:04Z</time>
      </trkpt>
      <trkpt lat="60.5544" lon="7.47356">
        <ele>1750.7</ele>
        <time>2019-04-08T13:33:20Z</time>
      </trkpt>
      <trkpt lat="60.55429" lon="7.47351">
        <ele>1754.06</ele>
        <time>2019-04-08T13:33:37Z</time>
      </trkpt>
      <trkpt lat="60.55417" lon="7.47348">
        <ele>1757.43</ele>
        <time>2019-04-08T13:33:53Z</time>
      </trkpt>
      <trkpt lat="60.55404" lon="7.47344">
        <ele>1760.31</ele>
        <time>2019-04-08T13:34:11Z</time>
      </trkpt>
      <trkpt lat="60.55401" lon="7.47343">
        <ele>1761.27</ele>
        <time>2019-04-08T13:34:15Z</time>
      </trkpt>
      <trkpt lat="60.55386" lon="7.47334">
        <ele>1763.2</ele>
        <time>2019-04-08T13:34:33Z</time>
      </trkpt>
      <trkpt lat="60.55372" lon="7.47318">
        <ele>1766.56</ele>
        <time>2019-04-08T13:34:51Z</time>
      </trkpt>
      <trkpt lat="60.55357" lon="7.47307">
        <ele>1769.44</ele>
        <time>2019-04-08T13:35:07Z</time>
      </trkpt>
      <trkpt lat="60.55342" lon="7.473">
        <ele>1771.37</ele>
        <time>2019-04-08T13:35:24Z</time>
      </trkpt>
      <trkpt lat="60.55325" lon="7.47298">
        <ele>1773.77</ele>
        <time>2019-04-08T13:35:42Z</time>
      </trkpt>
      <trkpt lat="60.55308" lon="7.47289">
        <ele>1776.65</ele>
        <time>2019-04-08T13:35:59Z</time>
      </trkpt>
      <trkpt lat="60.55293" lon="7.47274">
        <ele>1778.58</ele>
        <time>2019-04-08T13:36:16Z</time>
      </trkpt>
      <trkpt lat="60.5529" lon="7.47268">
        <ele>1780.02</ele>
        <time>2019-04-08T13:36:20Z</time>
      </trkpt>
      <trkpt lat="60.55287" lon="7.4723">
        <ele>1780.98</ele>
        <time>2019-04-08T13:36:37Z</time>
      </trkpt>
      <trkpt lat="60.55282" lon="7.47202">
        <ele>1780.98</ele>
        <time>2019-04-08T13:36:49Z</time>
      </trkpt>
      <trkpt lat="60.55278" lon="7.47169">
        <ele>1782.9</ele>
        <time>2019-04-08T13:37:05Z</time>
      </trkpt>
      <trkpt lat="60.55274" lon="7.47133">
        <ele>1784.82</ele>
        <time>2019-04-08T13:37:22Z</time>
      </trkpt>
      <trkpt lat="60.55273" lon="7.47096">
        <ele>1786.75</ele>
        <time>2019-04-08T13:37:40Z</time>
      </trkpt>
      <trkpt lat="60.55272" lon="7.47061">
        <ele>1789.63</ele>
        <time>2019-04-08T13:37:57Z</time>
      </trkpt>
      <trkpt lat="60.55274" lon="7.47044">
        <ele>1790.11</ele>
        <time>2019-04-08T13:38:08Z</time>
      </trkpt>
      <trkpt lat="60.55274" lon="7.47042">
        <ele>1780.02</ele>
        <time>2019-04-08T13:38:19Z</time>
      </trkpt>
      <trkpt lat="60.55272" lon="7.47038">
        <ele>1794.92</ele>
        <time>2019-04-08T13:38:21Z</time>
      </trkpt>
      <trkpt lat="60.55271" lon="7.47038">
        <ele>1792.03</ele>
        <time>2019-04-08T13:38:22Z</time>
      </trkpt>
      <trkpt lat="60.5527" lon="7.47039">
        <ele>1786.27</ele>
        <time>2019-04-08T13:38:23Z</time>
      </trkpt>
      <trkpt lat="60.55271" lon="7.47039">
        <ele>1797.8</ele>
        <time>2019-04-08T13:38:24Z</time>
      </trkpt>
      <trkpt lat="60.55271" lon="7.47039">
        <ele>1792.03</ele>
        <time>2019-04-08T13:38:25Z</time>
      </trkpt>
      <trkpt lat="60.55271" lon="7.47041">
        <ele>1789.15</ele>
        <time>2019-04-08T13:38:27Z</time>
      </trkpt>
      <trkpt lat="60.5527" lon="7.4704">
        <ele>1789.15</ele>
        <time>2019-04-08T13:38:28Z</time>
      </trkpt>
      <trkpt lat="60.5527" lon="7.47035">
        <ele>1791.07</ele>
        <time>2019-04-08T13:38:32Z</time>
      </trkpt>
      <trkpt lat="60.55269" lon="7.47033">
        <ele>1790.59</ele>
        <time>2019-04-08T13:38:46Z</time>
      </trkpt>
      <trkpt lat="60.5527" lon="7.47029">
        <ele>1792.03</ele>
        <time>2019-04-08T13:38:56Z</time>
      </trkpt>
      <trkpt lat="60.55273" lon="7.47028">
        <ele>1791.55</ele>
        <time>2019-04-08T13:39:07Z</time>
      </trkpt>
      <trkpt lat="60.55274" lon="7.47027">
        <ele>1789.63</ele>
        <time>2019-04-08T13:39:21Z</time>
      </trkpt>
      <trkpt lat="60.55278" lon="7.47049">
        <ele>1791.55</ele>
        <time>2019-04-08T14:38:28Z</time>
      </trkpt>
      <trkpt lat="60.55278" lon="7.47048">
        <ele>1791.55</ele>
        <time>2019-04-08T14:38:29Z</time>
      </trkpt>
      <trkpt lat="60.55276" lon="7.47044">
        <ele>1791.07</ele>
        <time>2019-04-08T14:38:48Z</time>
      </trkpt>
      <trkpt lat="60.55274" lon="7.47042">
        <ele>1790.59</ele>
        <time>2019-04-08T14:39:20Z</time>
      </trkpt>
      <trkpt lat="60.55274" lon="7.4704">
        <ele>1790.11</ele>
        <time>2019-04-08T14:39:51Z</time>
      </trkpt>
      <trkpt lat="60.55273" lon="7.4704">
        <ele>1790.11</ele>
        <time>2019-04-08T14:40:16Z</time>
      </trkpt>
      <trkpt lat="60.55274" lon="7.4704">
        <ele>1790.11</ele>
        <time>2019-04-08T14:40:36Z</time>
      </trkpt>
      <trkpt lat="60.55275" lon="7.47038">
        <ele>1791.55</ele>
        <time>2019-04-08T14:40:39Z</time>
      </trkpt>
      <trkpt lat="60.55276" lon="7.4704">
        <ele>1792.52</ele>
        <time>2019-04-08T14:40:55Z</time>
      </trkpt>
      <trkpt lat="60.55276" lon="7.47039">
        <ele>1790.59</ele>
        <time>2019-04-08T14:41:00Z</time>
      </trkpt>
      <trkpt lat="60.55276" lon="7.47039">
        <ele>1792.03</ele>
        <time>2019-04-08T14:41:03Z</time>
      </trkpt>
      <trkpt lat="60.55276" lon="7.4704">
        <ele>1791.07</ele>
        <time>2019-04-08T14:41:07Z</time>
      </trkpt>
      <trkpt lat="60.55276" lon="7.4704">
        <ele>1792.52</ele>
        <time>2019-04-08T14:41:13Z</time>
      </trkpt>
      <trkpt lat="60.55276" lon="7.4704">
        <ele>1782.9</ele>
        <time>2019-04-08T14:41:21Z</time>
      </trkpt>
      <trkpt lat="60.55279" lon="7.47042">
        <ele>1783.86</ele>
        <time>2019-04-08T14:41:23Z</time>
      </trkpt>
      <trkpt lat="60.5528" lon="7.47042">
        <ele>1800.69</ele>
        <time>2019-04-08T14:41:24Z</time>
      </trkpt>
      <trkpt lat="60.5528" lon="7.47044">
        <ele>1782.42</ele>
        <time>2019-04-08T14:41:25Z</time>
      </trkpt>
      <trkpt lat="60.55281" lon="7.47048">
        <ele>1796.84</ele>
        <time>2019-04-08T14:41:28Z</time>
      </trkpt>
      <trkpt lat="60.55282" lon="7.47046">
        <ele>1792.52</ele>
        <time>2019-04-08T14:41:29Z</time>
      </trkpt>
      <trkpt lat="60.55284" lon="7.47007">
        <ele>1792.52</ele>
        <time>2019-04-08T14:41:46Z</time>
      </trkpt>
      <trkpt lat="60.55288" lon="7.46989">
        <ele>1791.07</ele>
        <time>2019-04-08T14:41:55Z</time>
      </trkpt>
      <trkpt lat="60.55289" lon="7.46968">
        <ele>1788.67</ele>
        <time>2019-04-08T14:42:09Z</time>
      </trkpt>
      <trkpt lat="60.55278" lon="7.46975">
        <ele>1780.98</ele>
        <time>2019-04-08T14:42:24Z</time>
      </trkpt>
      <trkpt lat="60.55278" lon="7.46975">
        <ele>1789.63</ele>
        <time>2019-04-08T14:42:25Z</time>
      </trkpt>
      <trkpt lat="60.55278" lon="7.46974">
        <ele>1776.65</ele>
        <time>2019-04-08T14:42:35Z</time>
      </trkpt>
      <trkpt lat="60.55281" lon="7.46975">
        <ele>1789.15</ele>
        <time>2019-04-08T14:42:37Z</time>
      </trkpt>
      <trkpt lat="60.5528" lon="7.46976">
        <ele>1786.27</ele>
        <time>2019-04-08T14:42:41Z</time>
      </trkpt>
      <trkpt lat="60.5528" lon="7.46975">
        <ele>1787.71</ele>
        <time>2019-04-08T14:42:44Z</time>
      </trkpt>
      <trkpt lat="60.55279" lon="7.46972">
        <ele>1790.59</ele>
        <time>2019-04-08T14:42:55Z</time>
      </trkpt>
      <trkpt lat="60.5528" lon="7.46969">
        <ele>1788.19</ele>
        <time>2019-04-08T14:42:57Z</time>
      </trkpt>
      <trkpt lat="60.55279" lon="7.46971">
        <ele>1788.67</ele>
        <time>2019-04-08T14:43:09Z</time>
      </trkpt>
      <trkpt lat="60.55279" lon="7.46971">
        <ele>1788.67</ele>
        <time>2019-04-08T14:43:15Z</time>
      </trkpt>
      <trkpt lat="60.55278" lon="7.46973">
        <ele>1778.58</ele>
        <time>2019-04-08T14:43:19Z</time>
      </trkpt>
      <trkpt lat="60.55277" lon="7.46974">
        <ele>1792.03</ele>
        <time>2019-04-08T14:43:20Z</time>
      </trkpt>
      <trkpt lat="60.55277" lon="7.46976">
        <ele>1778.1</ele>
        <time>2019-04-08T14:43:22Z</time>
      </trkpt>
      <trkpt lat="60.55277" lon="7.46976">
        <ele>1796.36</ele>
        <time>2019-04-08T14:43:23Z</time>
      </trkpt>
      <trkpt lat="60.55277" lon="7.46974">
        <ele>1787.71</ele>
        <time>2019-04-08T14:43:26Z</time>
      </trkpt>
      <trkpt lat="60.55277" lon="7.46974">
        <ele>1779.06</ele>
        <time>2019-04-08T14:43:28Z</time>
      </trkpt>
      <trkpt lat="60.55278" lon="7.46974">
        <ele>1789.63</ele>
        <time>2019-04-08T14:43:29Z</time>
      </trkpt>
      <trkpt lat="60.55277" lon="7.46974">
        <ele>1787.23</ele>
        <time>2019-04-08T14:43:33Z</time>
      </trkpt>
      <trkpt lat="60.55278" lon="7.46974">
        <ele>1782.42</ele>
        <time>2019-04-08T14:43:35Z</time>
      </trkpt>
      <trkpt lat="60.55278" lon="7.46974">
        <ele>1785.31</ele>
        <time>2019-04-08T14:43:36Z</time>
      </trkpt>
      <trkpt lat="60.55278" lon="7.46973">
        <ele>1789.63</ele>
        <time>2019-04-08T14:43:37Z</time>
      </trkpt>
      <trkpt lat="60.55276" lon="7.46973">
        <ele>1789.15</ele>
        <time>2019-04-08T14:43:39Z</time>
      </trkpt>
      <trkpt lat="60.55276" lon="7.46974">
        <ele>1782.9</ele>
        <time>2019-04-08T14:43:43Z</time>
      </trkpt>
      <trkpt lat="60.55276" lon="7.46976">
        <ele>1789.15</ele>
        <time>2019-04-08T14:43:44Z</time>
      </trkpt>
      <trkpt lat="60.55276" lon="7.46974">
        <ele>1787.71</ele>
        <time>2019-04-08T14:43:49Z</time>
      </trkpt>
      <trkpt lat="60.55277" lon="7.46973">
        <ele>1787.23</ele>
        <time>2019-04-08T14:43:51Z</time>
      </trkpt>
      <trkpt lat="60.55279" lon="7.46976">
        <ele>1788.19</ele>
        <time>2019-04-08T14:43:55Z</time>
      </trkpt>
      <trkpt lat="60.55281" lon="7.46979">
        <ele>1798.28</ele>
        <time>2019-04-08T14:43:57Z</time>
      </trkpt>
      <trkpt lat="60.5528" lon="7.46977">
        <ele>1787.23</ele>
        <time>2019-04-08T14:43:58Z</time>
      </trkpt>
      <trkpt lat="60.5528" lon="7.46976">
        <ele>1781.94</ele>
        <time>2019-04-08T14:43:59Z</time>
      </trkpt>
      <trkpt lat="60.55279" lon="7.46975">
        <ele>1790.11</ele>
        <time>2019-04-08T14:44:00Z</time>
      </trkpt>
      <trkpt lat="60.55279" lon="7.46976">
        <ele>1790.11</ele>
        <time>2019-04-08T14:44:01Z</time>
      </trkpt>
      <trkpt lat="60.55278" lon="7.46975">
        <ele>1786.75</ele>
        <time>2019-04-08T14:44:04Z</time>
      </trkpt>
      <trkpt lat="60.55277" lon="7.46974">
        <ele>1790.59</ele>
        <time>2019-04-08T14:44:05Z</time>
      </trkpt>
      <trkpt lat="60.55278" lon="7.46979">
        <ele>1788.19</ele>
        <time>2019-04-08T14:44:09Z</time>
      </trkpt>
      <trkpt lat="60.5528" lon="7.46981">
        <ele>1787.71</ele>
        <time>2019-04-08T14:44:12Z</time>
      </trkpt>
      <trkpt lat="60.55282" lon="7.46982">
        <ele>1784.82</ele>
        <time>2019-04-08T14:44:14Z</time>
      </trkpt>
      <trkpt lat="60.55282" lon="7.46982">
        <ele>1793</ele>
        <time>2019-04-08T14:44:15Z</time>
      </trkpt>
      <trkpt lat="60.55283" lon="7.4698">
        <ele>1788.19</ele>
        <time>2019-04-08T14:44:16Z</time>
      </trkpt>
      <trkpt lat="60.55278" lon="7.46974">
        <ele>1782.42</ele>
        <time>2019-04-08T14:44:21Z</time>
      </trkpt>
      <trkpt lat="60.55278" lon="7.46973">
        <ele>1791.55</ele>
        <time>2019-04-08T14:44:22Z</time>
      </trkpt>
      <trkpt lat="60.55279" lon="7.46971">
        <ele>1788.19</ele>
        <time>2019-04-08T14:44:23Z</time>
      </trkpt>
      <trkpt lat="60.55279" lon="7.46969">
        <ele>1787.23</ele>
        <time>2019-04-08T14:44:24Z</time>
      </trkpt>
      <trkpt lat="60.5528" lon="7.46967">
        <ele>1787.23</ele>
        <time>2019-04-08T14:44:39Z</time>
      </trkpt>
      <trkpt lat="60.5528" lon="7.46965">
        <ele>1787.23</ele>
        <time>2019-04-08T14:44:58Z</time>
      </trkpt>
      <trkpt lat="60.55287" lon="7.46959">
        <ele>1787.23</ele>
        <time>2019-04-08T14:45:13Z</time>
      </trkpt>
      <trkpt lat="60.55294" lon="7.46957">
        <ele>1787.23</ele>
        <time>2019-04-08T14:45:27Z</time>
      </trkpt>
      <trkpt lat="60.55297" lon="7.46957">
        <ele>1788.19</ele>
        <time>2019-04-08T14:45:39Z</time>
      </trkpt>
      <trkpt lat="60.55296" lon="7.46958">
        <ele>1784.82</ele>
        <time>2019-04-08T14:45:51Z</time>
      </trkpt>
      <trkpt lat="60.55296" lon="7.46958">
        <ele>1790.11</ele>
        <time>2019-04-08T14:45:52Z</time>
      </trkpt>
      <trkpt lat="60.55293" lon="7.46959">
        <ele>1787.71</ele>
        <time>2019-04-08T14:46:01Z</time>
      </trkpt>
      <trkpt lat="60.55289" lon="7.46964">
        <ele>1788.67</ele>
        <time>2019-04-08T14:46:10Z</time>
      </trkpt>
      <trkpt lat="60.55292" lon="7.46961">
        <ele>1787.23</ele>
        <time>2019-04-08T14:46:13Z</time>
      </trkpt>
      <trkpt lat="60.55299" lon="7.46954">
        <ele>1787.23</ele>
        <time>2019-04-08T14:46:28Z</time>
      </trkpt>
      <trkpt lat="60.55299" lon="7.46955">
        <ele>1783.86</ele>
        <time>2019-04-08T14:46:39Z</time>
      </trkpt>
      <trkpt lat="60.55298" lon="7.46957">
        <ele>1788.19</ele>
        <time>2019-04-08T14:46:41Z</time>
      </trkpt>
      <trkpt lat="60.55298" lon="7.46957">
        <ele>1791.55</ele>
        <time>2019-04-08T14:46:42Z</time>
      </trkpt>
      <trkpt lat="60.55299" lon="7.46956">
        <ele>1787.71</ele>
        <time>2019-04-08T14:46:43Z</time>
      </trkpt>
      <trkpt lat="60.55298" lon="7.46958">
        <ele>1787.71</ele>
        <time>2019-04-08T14:46:58Z</time>
      </trkpt>
      <trkpt lat="60.55299" lon="7.46964">
        <ele>1790.11</ele>
        <time>2019-04-08T14:47:01Z</time>
      </trkpt>
      <trkpt lat="60.55299" lon="7.46966">
        <ele>1781.94</ele>
        <time>2019-04-08T14:47:04Z</time>
      </trkpt>
      <trkpt lat="60.55299" lon="7.46967">
        <ele>1787.71</ele>
        <time>2019-04-08T14:47:05Z</time>
      </trkpt>
      <trkpt lat="60.55299" lon="7.46967">
        <ele>1784.34</ele>
        <time>2019-04-08T14:47:09Z</time>
      </trkpt>
      <trkpt lat="60.55299" lon="7.46966">
        <ele>1798.76</ele>
        <time>2019-04-08T14:47:10Z</time>
      </trkpt>
      <trkpt lat="60.55299" lon="7.46966">
        <ele>1788.19</ele>
        <time>2019-04-08T14:47:11Z</time>
      </trkpt>
      <trkpt lat="60.55298" lon="7.46952">
        <ele>1788.19</ele>
        <time>2019-04-08T14:47:30Z</time>
      </trkpt>
      <trkpt lat="60.55298" lon="7.46948">
        <ele>1788.19</ele>
        <time>2019-04-08T14:47:45Z</time>
      </trkpt>
      <trkpt lat="60.55299" lon="7.46948">
        <ele>1787.71</ele>
        <time>2019-04-08T14:48:03Z</time>
      </trkpt>
      <trkpt lat="60.553" lon="7.46948">
        <ele>1787.71</ele>
        <time>2019-04-08T14:48:43Z</time>
      </trkpt>
      <trkpt lat="60.553" lon="7.46948">
        <ele>1787.23</ele>
        <time>2019-04-08T14:49:17Z</time>
      </trkpt>
      <trkpt lat="60.55299" lon="7.46949">
        <ele>1787.23</ele>
        <time>2019-04-08T14:49:37Z</time>
      </trkpt>
      <trkpt lat="60.55301" lon="7.46951">
        <ele>1787.23</ele>
        <time>2019-04-08T14:49:57Z</time>
      </trkpt>
      <trkpt lat="60.55303" lon="7.46952">
        <ele>1785.31</ele>
        <time>2019-04-08T14:49:59Z</time>
      </trkpt>
      <trkpt lat="60.55304" lon="7.46954">
        <ele>1786.75</ele>
        <time>2019-04-08T14:50:04Z</time>
      </trkpt>
      <trkpt lat="60.55305" lon="7.46952">
        <ele>1786.75</ele>
        <time>2019-04-08T14:50:30Z</time>
      </trkpt>
      <trkpt lat="60.55305" lon="7.46953">
        <ele>1786.27</ele>
        <time>2019-04-08T14:50:57Z</time>
      </trkpt>
      <trkpt lat="60.55312" lon="7.46952">
        <ele>1786.27</ele>
        <time>2019-04-08T14:51:18Z</time>
      </trkpt>
      <trkpt lat="60.55317" lon="7.46953">
        <ele>1786.75</ele>
        <time>2019-04-08T14:51:32Z</time>
      </trkpt>
      <trkpt lat="60.5532" lon="7.46949">
        <ele>1786.75</ele>
        <time>2019-04-08T14:51:46Z</time>
      </trkpt>
      <trkpt lat="60.55319" lon="7.46945">
        <ele>1786.75</ele>
        <time>2019-04-08T14:51:56Z</time>
      </trkpt>
      <trkpt lat="60.55321" lon="7.46939">
        <ele>1786.75</ele>
        <time>2019-04-08T14:52:00Z</time>
      </trkpt>
      <trkpt lat="60.55328" lon="7.4693">
        <ele>1785.31</ele>
        <time>2019-04-08T14:52:13Z</time>
      </trkpt>
      <trkpt lat="60.5533" lon="7.46933">
        <ele>1784.82</ele>
        <time>2019-04-08T14:52:32Z</time>
      </trkpt>
      <trkpt lat="60.55329" lon="7.46935">
        <ele>1784.82</ele>
        <time>2019-04-08T14:52:45Z</time>
      </trkpt>
      <trkpt lat="60.55329" lon="7.46934">
        <ele>1784.82</ele>
        <time>2019-04-08T14:52:48Z</time>
      </trkpt>
      <trkpt lat="60.55327" lon="7.46915">
        <ele>1784.82</ele>
        <time>2019-04-08T14:52:53Z</time>
      </trkpt>
      <trkpt lat="60.55332" lon="7.46882">
        <ele>1786.27</ele>
        <time>2019-04-08T14:52:57Z</time>
      </trkpt>
      <trkpt lat="60.5533" lon="7.46829">
        <ele>1787.23</ele>
        <time>2019-04-08T14:53:02Z</time>
      </trkpt>
      <trkpt lat="60.55332" lon="7.46787">
        <ele>1787.71</ele>
        <time>2019-04-08T14:53:06Z</time>
      </trkpt>
      <trkpt lat="60.5534" lon="7.4671">
        <ele>1789.15</ele>
        <time>2019-04-08T14:53:16Z</time>
      </trkpt>
      <trkpt lat="60.55339" lon="7.46641">
        <ele>1791.07</ele>
        <time>2019-04-08T14:53:25Z</time>
      </trkpt>
      <trkpt lat="60.55342" lon="7.46624">
        <ele>1791.55</ele>
        <time>2019-04-08T14:53:28Z</time>
      </trkpt>
      <trkpt lat="60.55348" lon="7.46603">
        <ele>1792.03</ele>
        <time>2019-04-08T14:53:36Z</time>
      </trkpt>
      <trkpt lat="60.55347" lon="7.46604">
        <ele>1792.03</ele>
        <time>2019-04-08T14:53:39Z</time>
      </trkpt>
      <trkpt lat="60.55334" lon="7.46635">
        <ele>1790.59</ele>
        <time>2019-04-08T14:53:49Z</time>
      </trkpt>
      <trkpt lat="60.55332" lon="7.46652">
        <ele>1790.11</ele>
        <time>2019-04-08T14:53:51Z</time>
      </trkpt>
      <trkpt lat="60.55332" lon="7.4668">
        <ele>1788.67</ele>
        <time>2019-04-08T14:53:54Z</time>
      </trkpt>
      <trkpt lat="60.55338" lon="7.46716">
        <ele>1786.75</ele>
        <time>2019-04-08T14:53:58Z</time>
      </trkpt>
      <trkpt lat="60.55342" lon="7.46727">
        <ele>1786.75</ele>
        <time>2019-04-08T14:54:00Z</time>
      </trkpt>
      <trkpt lat="60.55344" lon="7.4674">
        <ele>1788.19</ele>
        <time>2019-04-08T14:54:13Z</time>
      </trkpt>
      <trkpt lat="60.5534" lon="7.4673">
        <ele>1788.67</ele>
        <time>2019-04-08T14:54:19Z</time>
      </trkpt>
      <trkpt lat="60.55345" lon="7.46699">
        <ele>1789.15</ele>
        <time>2019-04-08T14:54:25Z</time>
      </trkpt>
      <trkpt lat="60.55349" lon="7.4668">
        <ele>1789.15</ele>
        <time>2019-04-08T14:54:29Z</time>
      </trkpt>
      <trkpt lat="60.55352" lon="7.46664">
        <ele>1789.63</ele>
        <time>2019-04-08T14:54:33Z</time>
      </trkpt>
      <trkpt lat="60.55362" lon="7.46638">
        <ele>1790.11</ele>
        <time>2019-04-08T14:54:43Z</time>
      </trkpt>
      <trkpt lat="60.55368" lon="7.46618">
        <ele>1790.11</ele>
        <time>2019-04-08T14:54:50Z</time>
      </trkpt>
      <trkpt lat="60.55372" lon="7.46607">
        <ele>1790.11</ele>
        <time>2019-04-08T14:54:56Z</time>
      </trkpt>
      <trkpt lat="60.55368" lon="7.46595">
        <ele>1790.59</ele>
        <time>2019-04-08T14:55:04Z</time>
      </trkpt>
      <trkpt lat="60.55365" lon="7.46593">
        <ele>1790.59</ele>
        <time>2019-04-08T14:55:07Z</time>
      </trkpt>
      <trkpt lat="60.55362" lon="7.46577">
        <ele>1791.07</ele>
        <time>2019-04-08T14:55:16Z</time>
      </trkpt>
      <trkpt lat="60.55368" lon="7.46528">
        <ele>1792.03</ele>
        <time>2019-04-08T14:55:27Z</time>
      </trkpt>
      <trkpt lat="60.55368" lon="7.46529">
        <ele>1792.03</ele>
        <time>2019-04-08T14:55:28Z</time>
      </trkpt>
      <trkpt lat="60.55363" lon="7.46501">
        <ele>1792.52</ele>
        <time>2019-04-08T14:55:37Z</time>
      </trkpt>
      <trkpt lat="60.55363" lon="7.46444">
        <ele>1793.48</ele>
        <time>2019-04-08T14:55:46Z</time>
      </trkpt>
      <trkpt lat="60.55362" lon="7.46438">
        <ele>1793.48</ele>
        <time>2019-04-08T14:55:48Z</time>
      </trkpt>
      <trkpt lat="60.55368" lon="7.4638">
        <ele>1793.96</ele>
        <time>2019-04-08T14:55:56Z</time>
      </trkpt>
      <trkpt lat="60.5537" lon="7.46352">
        <ele>1794.44</ele>
        <time>2019-04-08T14:55:59Z</time>
      </trkpt>
      <trkpt lat="60.55377" lon="7.46315">
        <ele>1794.92</ele>
        <time>2019-04-08T14:56:03Z</time>
      </trkpt>
      <trkpt lat="60.5539" lon="7.46266">
        <ele>1794.92</ele>
        <time>2019-04-08T14:56:08Z</time>
      </trkpt>
      <trkpt lat="60.55396" lon="7.46243">
        <ele>1793</ele>
        <time>2019-04-08T14:56:12Z</time>
      </trkpt>
      <trkpt lat="60.55395" lon="7.46242">
        <ele>1793</ele>
        <time>2019-04-08T14:56:13Z</time>
      </trkpt>
      <trkpt lat="60.55388" lon="7.46259">
        <ele>1792.52</ele>
        <time>2019-04-08T14:56:22Z</time>
      </trkpt>
      <trkpt lat="60.55379" lon="7.46275">
        <ele>1793.48</ele>
        <time>2019-04-08T14:56:29Z</time>
      </trkpt>
      <trkpt lat="60.5537" lon="7.46286">
        <ele>1794.92</ele>
        <time>2019-04-08T14:56:34Z</time>
      </trkpt>
      <trkpt lat="60.55347" lon="7.46302">
        <ele>1795.88</ele>
        <time>2019-04-08T14:56:42Z</time>
      </trkpt>
      <trkpt lat="60.55339" lon="7.46314">
        <ele>1795.88</ele>
        <time>2019-04-08T14:56:44Z</time>
      </trkpt>
      <trkpt lat="60.5533" lon="7.46327">
        <ele>1796.84</ele>
        <time>2019-04-08T14:56:46Z</time>
      </trkpt>
      <trkpt lat="60.55315" lon="7.46359">
        <ele>1797.32</ele>
        <time>2019-04-08T14:56:50Z</time>
      </trkpt>
      <trkpt lat="60.55287" lon="7.46421">
        <ele>1797.8</ele>
        <time>2019-04-08T14:56:57Z</time>
      </trkpt>
      <trkpt lat="60.55281" lon="7.46448">
        <ele>1797.8</ele>
        <time>2019-04-08T14:57:00Z</time>
      </trkpt>
      <trkpt lat="60.55277" lon="7.46455">
        <ele>1798.76</ele>
        <time>2019-04-08T14:57:03Z</time>
      </trkpt>
      <trkpt lat="60.55275" lon="7.46442">
        <ele>1798.76</ele>
        <time>2019-04-08T14:57:07Z</time>
      </trkpt>
      <trkpt lat="60.55274" lon="7.46393">
        <ele>1800.21</ele>
        <time>2019-04-08T14:57:15Z</time>
      </trkpt>
      <trkpt lat="60.55276" lon="7.46344">
        <ele>1802.13</ele>
        <time>2019-04-08T14:57:22Z</time>
      </trkpt>
      <trkpt lat="60.55287" lon="7.46297">
        <ele>1802.61</ele>
        <time>2019-04-08T14:57:28Z</time>
      </trkpt>
      <trkpt lat="60.55292" lon="7.46278">
        <ele>1802.61</ele>
        <time>2019-04-08T14:57:30Z</time>
      </trkpt>
      <trkpt lat="60.553" lon="7.46218">
        <ele>1803.57</ele>
        <time>2019-04-08T14:57:36Z</time>
      </trkpt>
      <trkpt lat="60.55302" lon="7.46197">
        <ele>1803.57</ele>
        <time>2019-04-08T14:57:38Z</time>
      </trkpt>
      <trkpt lat="60.5531" lon="7.46151">
        <ele>1803.57</ele>
        <time>2019-04-08T14:57:43Z</time>
      </trkpt>
      <trkpt lat="60.55318" lon="7.46109">
        <ele>1803.09</ele>
        <time>2019-04-08T14:57:48Z</time>
      </trkpt>
      <trkpt lat="60.55322" lon="7.46092">
        <ele>1803.09</ele>
        <time>2019-04-08T14:57:50Z</time>
      </trkpt>
      <trkpt lat="60.55331" lon="7.46053">
        <ele>1801.65</ele>
        <time>2019-04-08T14:57:55Z</time>
      </trkpt>
      <trkpt lat="60.5533" lon="7.46038">
        <ele>1801.17</ele>
        <time>2019-04-08T14:57:58Z</time>
      </trkpt>
      <trkpt lat="60.55323" lon="7.46039">
        <ele>1800.69</ele>
        <time>2019-04-08T14:58:02Z</time>
      </trkpt>
      <trkpt lat="60.55319" lon="7.46037">
        <ele>1802.61</ele>
        <time>2019-04-08T14:58:04Z</time>
      </trkpt>
      <trkpt lat="60.55297" lon="7.46062">
        <ele>1804.53</ele>
        <time>2019-04-08T14:58:12Z</time>
      </trkpt>
      <trkpt lat="60.5529" lon="7.46072">
        <ele>1805.01</ele>
        <time>2019-04-08T14:58:15Z</time>
      </trkpt>
      <trkpt lat="60.5527" lon="7.46101">
        <ele>1806.94</ele>
        <time>2019-04-08T14:58:25Z</time>
      </trkpt>
      <trkpt lat="60.55257" lon="7.4612">
        <ele>1807.9</ele>
        <time>2019-04-08T14:58:37Z</time>
      </trkpt>
      <trkpt lat="60.55258" lon="7.46119">
        <ele>1807.9</ele>
        <time>2019-04-08T14:58:39Z</time>
      </trkpt>
      <trkpt lat="60.55258" lon="7.46096">
        <ele>1808.38</ele>
        <time>2019-04-08T14:58:44Z</time>
      </trkpt>
      <trkpt lat="60.55269" lon="7.46041">
        <ele>1808.86</ele>
        <time>2019-04-08T14:58:53Z</time>
      </trkpt>
      <trkpt lat="60.55273" lon="7.46024">
        <ele>1809.82</ele>
        <time>2019-04-08T14:58:55Z</time>
      </trkpt>
      <trkpt lat="60.55278" lon="7.45996">
        <ele>1807.9</ele>
        <time>2019-04-08T14:58:59Z</time>
      </trkpt>
      <trkpt lat="60.55276" lon="7.45985">
        <ele>1807.9</ele>
        <time>2019-04-08T14:59:01Z</time>
      </trkpt>
      <trkpt lat="60.55277" lon="7.4595">
        <ele>1809.34</ele>
        <time>2019-04-08T14:59:05Z</time>
      </trkpt>
      <trkpt lat="60.5528" lon="7.45939">
        <ele>1809.34</ele>
        <time>2019-04-08T14:59:06Z</time>
      </trkpt>
      <trkpt lat="60.55285" lon="7.45896">
        <ele>1809.34</ele>
        <time>2019-04-08T14:59:10Z</time>
      </trkpt>
      <trkpt lat="60.55292" lon="7.45865">
        <ele>1809.34</ele>
        <time>2019-04-08T14:59:13Z</time>
      </trkpt>
      <trkpt lat="60.55298" lon="7.45847">
        <ele>1807.9</ele>
        <time>2019-04-08T14:59:15Z</time>
      </trkpt>
      <trkpt lat="60.553" lon="7.45837">
        <ele>1806.45</ele>
        <time>2019-04-08T14:59:18Z</time>
      </trkpt>
      <trkpt lat="60.553" lon="7.45838">
        <ele>1806.45</ele>
        <time>2019-04-08T14:59:20Z</time>
      </trkpt>
      <trkpt lat="60.55297" lon="7.45846">
        <ele>1806.45</ele>
        <time>2019-04-08T14:59:27Z</time>
      </trkpt>
      <trkpt lat="60.55293" lon="7.45845">
        <ele>1807.42</ele>
        <time>2019-04-08T14:59:31Z</time>
      </trkpt>
      <trkpt lat="60.55284" lon="7.45852">
        <ele>1808.86</ele>
        <time>2019-04-08T14:59:44Z</time>
      </trkpt>
      <trkpt lat="60.55283" lon="7.45853">
        <ele>1808.86</ele>
        <time>2019-04-08T14:59:47Z</time>
      </trkpt>
      <trkpt lat="60.55276" lon="7.45848">
        <ele>1809.34</ele>
        <time>2019-04-08T14:59:52Z</time>
      </trkpt>
      <trkpt lat="60.55266" lon="7.45859">
        <ele>1810.3</ele>
        <time>2019-04-08T15:00:04Z</time>
      </trkpt>
      <trkpt lat="60.55255" lon="7.45867">
        <ele>1811.74</ele>
        <time>2019-04-08T15:00:11Z</time>
      </trkpt>
      <trkpt lat="60.55249" lon="7.45878">
        <ele>1812.7</ele>
        <time>2019-04-08T15:00:19Z</time>
      </trkpt>
      <trkpt lat="60.5523" lon="7.45898">
        <ele>1814.15</ele>
        <time>2019-04-08T15:00:29Z</time>
      </trkpt>
      <trkpt lat="60.55223" lon="7.459">
        <ele>1814.15</ele>
        <time>2019-04-08T15:00:32Z</time>
      </trkpt>
      <trkpt lat="60.55199" lon="7.45913">
        <ele>1816.07</ele>
        <time>2019-04-08T15:00:38Z</time>
      </trkpt>
      <trkpt lat="60.55174" lon="7.45926">
        <ele>1817.99</ele>
        <time>2019-04-08T15:00:43Z</time>
      </trkpt>
      <trkpt lat="60.55154" lon="7.45947">
        <ele>1818.95</ele>
        <time>2019-04-08T15:00:47Z</time>
      </trkpt>
      <trkpt lat="60.55126" lon="7.45958">
        <ele>1820.87</ele>
        <time>2019-04-08T15:00:55Z</time>
      </trkpt>
      <trkpt lat="60.55116" lon="7.45975">
        <ele>1820.87</ele>
        <time>2019-04-08T15:00:59Z</time>
      </trkpt>
      <trkpt lat="60.55106" lon="7.46003">
        <ele>1820.87</ele>
        <time>2019-04-08T15:01:06Z</time>
      </trkpt>
      <trkpt lat="60.55111" lon="7.4595">
        <ele>1822.32</ele>
        <time>2019-04-08T15:01:16Z</time>
      </trkpt>
      <trkpt lat="60.55111" lon="7.45925">
        <ele>1823.76</ele>
        <time>2019-04-08T15:01:22Z</time>
      </trkpt>
      <trkpt lat="60.55113" lon="7.45885">
        <ele>1824.72</ele>
        <time>2019-04-08T15:01:28Z</time>
      </trkpt>
      <trkpt lat="60.55115" lon="7.45867">
        <ele>1825.2</ele>
        <time>2019-04-08T15:01:31Z</time>
      </trkpt>
      <trkpt lat="60.5512" lon="7.45845">
        <ele>1825.68</ele>
        <time>2019-04-08T15:01:34Z</time>
      </trkpt>
      <trkpt lat="60.55158" lon="7.45724">
        <ele>1826.64</ele>
        <time>2019-04-08T15:01:48Z</time>
      </trkpt>
      <trkpt lat="60.55162" lon="7.45716">
        <ele>1826.64</ele>
        <time>2019-04-08T15:01:49Z</time>
      </trkpt>
      <trkpt lat="60.55184" lon="7.45678">
        <ele>1823.76</ele>
        <time>2019-04-08T15:01:55Z</time>
      </trkpt>
      <trkpt lat="60.55185" lon="7.45667">
        <ele>1823.28</ele>
        <time>2019-04-08T15:01:59Z</time>
      </trkpt>
      <trkpt lat="60.55174" lon="7.4567">
        <ele>1823.28</ele>
        <time>2019-04-08T15:02:08Z</time>
      </trkpt>
      <trkpt lat="60.55173" lon="7.45669">
        <ele>1824.72</ele>
        <time>2019-04-08T15:02:09Z</time>
      </trkpt>
      <trkpt lat="60.55165" lon="7.45677">
        <ele>1825.2</ele>
        <time>2019-04-08T15:02:14Z</time>
      </trkpt>
      <trkpt lat="60.55157" lon="7.4569">
        <ele>1825.2</ele>
        <time>2019-04-08T15:02:18Z</time>
      </trkpt>
      <trkpt lat="60.5515" lon="7.45691">
        <ele>1826.64</ele>
        <time>2019-04-08T15:02:23Z</time>
      </trkpt>
      <trkpt lat="60.55131" lon="7.45704">
        <ele>1827.6</ele>
        <time>2019-04-08T15:02:31Z</time>
      </trkpt>
      <trkpt lat="60.55122" lon="7.45718">
        <ele>1828.56</ele>
        <time>2019-04-08T15:02:39Z</time>
      </trkpt>
      <trkpt lat="60.55104" lon="7.45724">
        <ele>1829.05</ele>
        <time>2019-04-08T15:02:47Z</time>
      </trkpt>
      <trkpt lat="60.55096" lon="7.45735">
        <ele>1829.05</ele>
        <time>2019-04-08T15:02:49Z</time>
      </trkpt>
      <trkpt lat="60.55062" lon="7.45755">
        <ele>1830.97</ele>
        <time>2019-04-08T15:02:59Z</time>
      </trkpt>
      <trkpt lat="60.55037" lon="7.45774">
        <ele>1831.45</ele>
        <time>2019-04-08T15:03:08Z</time>
      </trkpt>
      <trkpt lat="60.5502" lon="7.45816">
        <ele>1830.01</ele>
        <time>2019-04-08T15:03:16Z</time>
      </trkpt>
      <trkpt lat="60.54997" lon="7.45872">
        <ele>1827.6</ele>
        <time>2019-04-08T15:03:23Z</time>
      </trkpt>
      <trkpt lat="60.54984" lon="7.45905">
        <ele>1826.16</ele>
        <time>2019-04-08T15:03:26Z</time>
      </trkpt>
      <trkpt lat="60.5498" lon="7.45915">
        <ele>1825.2</ele>
        <time>2019-04-08T15:03:27Z</time>
      </trkpt>
      <trkpt lat="60.5497" lon="7.45935">
        <ele>1823.76</ele>
        <time>2019-04-08T15:03:29Z</time>
      </trkpt>
      <trkpt lat="60.5495" lon="7.45975">
        <ele>1823.28</ele>
        <time>2019-04-08T15:03:35Z</time>
      </trkpt>
      <trkpt lat="60.54953" lon="7.45961">
        <ele>1824.72</ele>
        <time>2019-04-08T15:03:39Z</time>
      </trkpt>
      <trkpt lat="60.54954" lon="7.45958">
        <ele>1824.72</ele>
        <time>2019-04-08T15:03:41Z</time>
      </trkpt>
      <trkpt lat="60.54954" lon="7.45936">
        <ele>1825.68</ele>
        <time>2019-04-08T15:03:45Z</time>
      </trkpt>
      <trkpt lat="60.54955" lon="7.45915">
        <ele>1826.64</ele>
        <time>2019-04-08T15:03:50Z</time>
      </trkpt>
      <trkpt lat="60.54955" lon="7.4589">
        <ele>1828.56</ele>
        <time>2019-04-08T15:03:56Z</time>
      </trkpt>
      <trkpt lat="60.54956" lon="7.45871">
        <ele>1829.05</ele>
        <time>2019-04-08T15:04:06Z</time>
      </trkpt>
      <trkpt lat="60.54956" lon="7.45857">
        <ele>1830.01</ele>
        <time>2019-04-08T15:04:11Z</time>
      </trkpt>
      <trkpt lat="60.54954" lon="7.45826">
        <ele>1831.45</ele>
        <time>2019-04-08T15:04:18Z</time>
      </trkpt>
      <trkpt lat="60.54953" lon="7.4582">
        <ele>1831.45</ele>
        <time>2019-04-08T15:04:20Z</time>
      </trkpt>
      <trkpt lat="60.54958" lon="7.45782">
        <ele>1833.37</ele>
        <time>2019-04-08T15:04:29Z</time>
      </trkpt>
      <trkpt lat="60.54965" lon="7.4576">
        <ele>1834.33</ele>
        <time>2019-04-08T15:04:33Z</time>
      </trkpt>
      <trkpt lat="60.54976" lon="7.45736">
        <ele>1834.81</ele>
        <time>2019-04-08T15:04:43Z</time>
      </trkpt>
      <trkpt lat="60.54977" lon="7.45732">
        <ele>1834.81</ele>
        <time>2019-04-08T15:04:48Z</time>
      </trkpt>
      <trkpt lat="60.54977" lon="7.45724">
        <ele>1835.29</ele>
        <time>2019-04-08T15:04:54Z</time>
      </trkpt>
      <trkpt lat="60.54976" lon="7.45719">
        <ele>1835.29</ele>
        <time>2019-04-08T15:04:58Z</time>
      </trkpt>
      <trkpt lat="60.54978" lon="7.45706">
        <ele>1836.26</ele>
        <time>2019-04-08T15:05:03Z</time>
      </trkpt>
      <trkpt lat="60.54979" lon="7.45696">
        <ele>1836.26</ele>
        <time>2019-04-08T15:05:07Z</time>
      </trkpt>
      <trkpt lat="60.54981" lon="7.45674">
        <ele>1836.74</ele>
        <time>2019-04-08T15:05:19Z</time>
      </trkpt>
      <trkpt lat="60.54981" lon="7.45674">
        <ele>1836.74</ele>
        <time>2019-04-08T15:05:20Z</time>
      </trkpt>
      <trkpt lat="60.54985" lon="7.45642">
        <ele>1837.7</ele>
        <time>2019-04-08T15:05:28Z</time>
      </trkpt>
      <trkpt lat="60.55005" lon="7.45612">
        <ele>1838.66</ele>
        <time>2019-04-08T15:05:37Z</time>
      </trkpt>
      <trkpt lat="60.55006" lon="7.45609">
        <ele>1838.66</ele>
        <time>2019-04-08T15:05:41Z</time>
      </trkpt>
      <trkpt lat="60.54987" lon="7.45632">
        <ele>1837.7</ele>
        <time>2019-04-08T15:05:51Z</time>
      </trkpt>
      <trkpt lat="60.54974" lon="7.45703">
        <ele>1834.81</ele>
        <time>2019-04-08T15:06:04Z</time>
      </trkpt>
      <trkpt lat="60.54974" lon="7.45732">
        <ele>1832.89</ele>
        <time>2019-04-08T15:06:07Z</time>
      </trkpt>
      <trkpt lat="60.54976" lon="7.45754">
        <ele>1831.45</ele>
        <time>2019-04-08T15:06:09Z</time>
      </trkpt>
      <trkpt lat="60.54979" lon="7.45777">
        <ele>1830.49</ele>
        <time>2019-04-08T15:06:11Z</time>
      </trkpt>
      <trkpt lat="60.54982" lon="7.45843">
        <ele>1826.64</ele>
        <time>2019-04-08T15:06:16Z</time>
      </trkpt>
      <trkpt lat="60.54983" lon="7.45889">
        <ele>1824.72</ele>
        <time>2019-04-08T15:06:19Z</time>
      </trkpt>
      <trkpt lat="60.54986" lon="7.45951">
        <ele>1822.32</ele>
        <time>2019-04-08T15:06:23Z</time>
      </trkpt>
      <trkpt lat="60.54993" lon="7.45996">
        <ele>1819.43</ele>
        <time>2019-04-08T15:06:26Z</time>
      </trkpt>
      <trkpt lat="60.55005" lon="7.46043">
        <ele>1817.99</ele>
        <time>2019-04-08T15:06:30Z</time>
      </trkpt>
      <trkpt lat="60.55015" lon="7.46067">
        <ele>1817.03</ele>
        <time>2019-04-08T15:06:33Z</time>
      </trkpt>
      <trkpt lat="60.55027" lon="7.46107">
        <ele>1815.11</ele>
        <time>2019-04-08T15:06:38Z</time>
      </trkpt>
      <trkpt lat="60.55032" lon="7.46126">
        <ele>1814.15</ele>
        <time>2019-04-08T15:06:40Z</time>
      </trkpt>
      <trkpt lat="60.55049" lon="7.46173">
        <ele>1812.22</ele>
        <time>2019-04-08T15:06:45Z</time>
      </trkpt>
      <trkpt lat="60.55061" lon="7.46197">
        <ele>1810.78</ele>
        <time>2019-04-08T15:06:48Z</time>
      </trkpt>
      <trkpt lat="60.55067" lon="7.46211">
        <ele>1809.82</ele>
        <time>2019-04-08T15:06:50Z</time>
      </trkpt>
      <trkpt lat="60.55072" lon="7.46228">
        <ele>1808.86</ele>
        <time>2019-04-08T15:06:52Z</time>
      </trkpt>
      <trkpt lat="60.55086" lon="7.46275">
        <ele>1805.97</ele>
        <time>2019-04-08T15:06:57Z</time>
      </trkpt>
      <trkpt lat="60.55097" lon="7.46317">
        <ele>1804.05</ele>
        <time>2019-04-08T15:07:01Z</time>
      </trkpt>
      <trkpt lat="60.55105" lon="7.46351">
        <ele>1802.61</ele>
        <time>2019-04-08T15:07:04Z</time>
      </trkpt>
      <trkpt lat="60.55115" lon="7.4638">
        <ele>1801.17</ele>
        <time>2019-04-08T15:07:07Z</time>
      </trkpt>
      <trkpt lat="60.55123" lon="7.46422">
        <ele>1799.73</ele>
        <time>2019-04-08T15:07:11Z</time>
      </trkpt>
      <trkpt lat="60.55135" lon="7.46468">
        <ele>1796.36</ele>
        <time>2019-04-08T15:07:15Z</time>
      </trkpt>
      <trkpt lat="60.55157" lon="7.46544">
        <ele>1793.96</ele>
        <time>2019-04-08T15:07:22Z</time>
      </trkpt>
      <trkpt lat="60.55172" lon="7.46593">
        <ele>1793.48</ele>
        <time>2019-04-08T15:07:27Z</time>
      </trkpt>
      <trkpt lat="60.55179" lon="7.46623">
        <ele>1791.07</ele>
        <time>2019-04-08T15:07:30Z</time>
      </trkpt>
      <trkpt lat="60.55194" lon="7.4668">
        <ele>1788.67</ele>
        <time>2019-04-08T15:07:36Z</time>
      </trkpt>
      <trkpt lat="60.55215" lon="7.4676">
        <ele>1787.23</ele>
        <time>2019-04-08T15:07:47Z</time>
      </trkpt>
      <trkpt lat="60.55224" lon="7.46799">
        <ele>1784.82</ele>
        <time>2019-04-08T15:07:52Z</time>
      </trkpt>
      <trkpt lat="60.55232" lon="7.46832">
        <ele>1783.86</ele>
        <time>2019-04-08T15:07:56Z</time>
      </trkpt>
      <trkpt lat="60.55238" lon="7.46847">
        <ele>1782.9</ele>
        <time>2019-04-08T15:07:58Z</time>
      </trkpt>
      <trkpt lat="60.55253" lon="7.46909">
        <ele>1781.46</ele>
        <time>2019-04-08T15:08:06Z</time>
      </trkpt>
      <trkpt lat="60.55267" lon="7.46949">
        <ele>1781.46</ele>
        <time>2019-04-08T15:08:16Z</time>
      </trkpt>
      <trkpt lat="60.55267" lon="7.46949">
        <ele>1782.42</ele>
        <time>2019-04-08T15:08:21Z</time>
      </trkpt>
      <trkpt lat="60.55267" lon="7.46949">
        <ele>1782.42</ele>
        <time>2019-04-08T15:08:45Z</time>
      </trkpt>
      <trkpt lat="60.55267" lon="7.4695">
        <ele>1782.42</ele>
        <time>2019-04-08T15:09:12Z</time>
      </trkpt>
      <trkpt lat="60.55266" lon="7.46951">
        <ele>1782.42</ele>
        <time>2019-04-08T15:09:28Z</time>
      </trkpt>
      <trkpt lat="60.55264" lon="7.46951">
        <ele>1783.38</ele>
        <time>2019-04-08T15:09:40Z</time>
      </trkpt>
      <trkpt lat="60.55264" lon="7.46952">
        <ele>1781.94</ele>
        <time>2019-04-08T15:09:46Z</time>
      </trkpt>
      <trkpt lat="60.55266" lon="7.46954">
        <ele>1778.1</ele>
        <time>2019-04-08T15:10:08Z</time>
      </trkpt>
      <trkpt lat="60.55266" lon="7.46956">
        <ele>1780.02</ele>
        <time>2019-04-08T15:10:09Z</time>
      </trkpt>
      <trkpt lat="60.55266" lon="7.46957">
        <ele>1787.23</ele>
        <time>2019-04-08T15:10:10Z</time>
      </trkpt>
      <trkpt lat="60.55267" lon="7.46958">
        <ele>1781.94</ele>
        <time>2019-04-08T15:10:11Z</time>
      </trkpt>
      <trkpt lat="60.55266" lon="7.4695">
        <ele>1781.46</ele>
        <time>2019-04-08T15:10:40Z</time>
      </trkpt>
      <trkpt lat="60.55266" lon="7.46949">
        <ele>1782.42</ele>
        <time>2019-04-08T15:11:09Z</time>
      </trkpt>
      <trkpt lat="60.55266" lon="7.46949">
        <ele>1778.58</ele>
        <time>2019-04-08T15:11:20Z</time>
      </trkpt>
      <trkpt lat="60.55266" lon="7.4695">
        <ele>1781.94</ele>
        <time>2019-04-08T15:11:21Z</time>
      </trkpt>
      <trkpt lat="60.55265" lon="7.46949">
        <ele>1781.94</ele>
        <time>2019-04-08T15:12:00Z</time>
      </trkpt>
      <trkpt lat="60.55265" lon="7.46949">
        <ele>1781.94</ele>
        <time>2019-04-08T15:12:28Z</time>
      </trkpt>
      <trkpt lat="60.55266" lon="7.46951">
        <ele>1780.98</ele>
        <time>2019-04-08T15:12:55Z</time>
      </trkpt>
      <trkpt lat="60.55265" lon="7.4695">
        <ele>1780.98</ele>
        <time>2019-04-08T15:13:24Z</time>
      </trkpt>
      <trkpt lat="60.55265" lon="7.46951">
        <ele>1780.98</ele>
        <time>2019-04-08T15:13:59Z</time>
      </trkpt>
      <trkpt lat="60.55265" lon="7.46952">
        <ele>1784.34</ele>
        <time>2019-04-08T15:14:29Z</time>
      </trkpt>
      <trkpt lat="60.55266" lon="7.46951">
        <ele>1781.94</ele>
        <time>2019-04-08T15:14:52Z</time>
      </trkpt>
      <trkpt lat="60.55266" lon="7.46949">
        <ele>1772.81</ele>
        <time>2019-04-08T15:15:02Z</time>
      </trkpt>
      <trkpt lat="60.55266" lon="7.4695">
        <ele>1787.23</ele>
        <time>2019-04-08T15:15:03Z</time>
      </trkpt>
      <trkpt lat="60.55266" lon="7.46951">
        <ele>1783.86</ele>
        <time>2019-04-08T15:15:04Z</time>
      </trkpt>
      <trkpt lat="60.55266" lon="7.46951">
        <ele>1789.15</ele>
        <time>2019-04-08T15:15:05Z</time>
      </trkpt>
      <trkpt lat="60.55266" lon="7.46952">
        <ele>1782.9</ele>
        <time>2019-04-08T15:15:06Z</time>
      </trkpt>
      <trkpt lat="60.55266" lon="7.46953">
        <ele>1782.9</ele>
        <time>2019-04-08T15:15:29Z</time>
      </trkpt>
      <trkpt lat="60.55266" lon="7.46953">
        <ele>1781.94</ele>
        <time>2019-04-08T15:15:53Z</time>
      </trkpt>
      <trkpt lat="60.55258" lon="7.46953">
        <ele>1781.94</ele>
        <time>2019-04-08T15:16:09Z</time>
      </trkpt>
      <trkpt lat="60.5525" lon="7.4695">
        <ele>1781.46</ele>
        <time>2019-04-08T15:16:25Z</time>
      </trkpt>
      <trkpt lat="60.55246" lon="7.46948">
        <ele>1781.46</ele>
        <time>2019-04-08T15:16:41Z</time>
      </trkpt>
      <trkpt lat="60.55246" lon="7.46947">
        <ele>1781.46</ele>
        <time>2019-04-08T15:17:01Z</time>
      </trkpt>
      <trkpt lat="60.55246" lon="7.46948">
        <ele>1779.06</ele>
        <time>2019-04-08T15:17:08Z</time>
      </trkpt>
      <trkpt lat="60.55245" lon="7.46956">
        <ele>1780.98</ele>
        <time>2019-04-08T15:17:10Z</time>
      </trkpt>
      <trkpt lat="60.55245" lon="7.46959">
        <ele>1787.23</ele>
        <time>2019-04-08T15:17:11Z</time>
      </trkpt>
      <trkpt lat="60.55245" lon="7.46958">
        <ele>1784.82</ele>
        <time>2019-04-08T15:17:12Z</time>
      </trkpt>
      <trkpt lat="60.55245" lon="7.46955">
        <ele>1780.98</ele>
        <time>2019-04-08T15:17:13Z</time>
      </trkpt>
      <trkpt lat="60.55245" lon="7.46953">
        <ele>1786.75</ele>
        <time>2019-04-08T15:17:14Z</time>
      </trkpt>
      <trkpt lat="60.55246" lon="7.46953">
        <ele>1781.94</ele>
        <time>2019-04-08T15:17:15Z</time>
      </trkpt>
      <trkpt lat="60.55248" lon="7.46951">
        <ele>1781.46</ele>
        <time>2019-04-08T15:17:35Z</time>
      </trkpt>
      <trkpt lat="60.55245" lon="7.46949">
        <ele>1781.46</ele>
        <time>2019-04-08T15:17:50Z</time>
      </trkpt>
      <trkpt lat="60.55245" lon="7.4695">
        <ele>1780.98</ele>
        <time>2019-04-08T15:18:12Z</time>
      </trkpt>
      <trkpt lat="60.55245" lon="7.4695">
        <ele>1780.98</ele>
        <time>2019-04-08T15:18:13Z</time>
      </trkpt>
      <trkpt lat="60.55245" lon="7.46944">
        <ele>1780.98</ele>
        <time>2019-04-08T15:18:25Z</time>
      </trkpt>
      <trkpt lat="60.55244" lon="7.46941">
        <ele>1780.98</ele>
        <time>2019-04-08T15:18:37Z</time>
      </trkpt>
      <trkpt lat="60.55241" lon="7.46946">
        <ele>1780.98</ele>
        <time>2019-04-08T15:18:53Z</time>
      </trkpt>
      <trkpt lat="60.55241" lon="7.46943">
        <ele>1780.98</ele>
        <time>2019-04-08T15:19:09Z</time>
      </trkpt>
      <trkpt lat="60.55242" lon="7.46941">
        <ele>1780.98</ele>
        <time>2019-04-08T15:19:23Z</time>
      </trkpt>
      <trkpt lat="60.55243" lon="7.46942">
        <ele>1780.5</ele>
        <time>2019-04-08T15:19:38Z</time>
      </trkpt>
      <trkpt lat="60.55243" lon="7.46944">
        <ele>1780.5</ele>
        <time>2019-04-08T15:19:49Z</time>
      </trkpt>
      <trkpt lat="60.55243" lon="7.46943">
        <ele>1780.5</ele>
        <time>2019-04-08T15:20:03Z</time>
      </trkpt>
      <trkpt lat="60.55243" lon="7.46944">
        <ele>1781.94</ele>
        <time>2019-04-08T15:20:16Z</time>
      </trkpt>
      <trkpt lat="60.55243" lon="7.46946">
        <ele>1780.5</ele>
        <time>2019-04-08T15:20:31Z</time>
      </trkpt>
      <trkpt lat="60.55243" lon="7.46948">
        <ele>1780.98</ele>
        <time>2019-04-08T15:20:41Z</time>
      </trkpt>
      <trkpt lat="60.55243" lon="7.4695">
        <ele>1779.06</ele>
        <time>2019-04-08T15:21:15Z</time>
      </trkpt>
      <trkpt lat="60.5524" lon="7.46953">
        <ele>1779.54</ele>
        <time>2019-04-08T15:21:51Z</time>
      </trkpt>
      <trkpt lat="60.55243" lon="7.46948">
        <ele>1779.54</ele>
        <time>2019-04-08T15:22:26Z</time>
      </trkpt>
      <trkpt lat="60.55244" lon="7.46948">
        <ele>1780.98</ele>
        <time>2019-04-08T15:22:35Z</time>
      </trkpt>
      <trkpt lat="60.55244" lon="7.46947">
        <ele>1779.54</ele>
        <time>2019-04-08T15:22:37Z</time>
      </trkpt>
      <trkpt lat="60.55243" lon="7.46947">
        <ele>1780.98</ele>
        <time>2019-04-08T15:22:54Z</time>
      </trkpt>
      <trkpt lat="60.55241" lon="7.46949">
        <ele>1779.54</ele>
        <time>2019-04-08T15:23:18Z</time>
      </trkpt>
      <trkpt lat="60.5524" lon="7.46945">
        <ele>1780.98</ele>
        <time>2019-04-08T15:23:20Z</time>
      </trkpt>
      <trkpt lat="60.55241" lon="7.46948">
        <ele>1780.98</ele>
        <time>2019-04-08T15:23:33Z</time>
      </trkpt>
      <trkpt lat="60.55241" lon="7.4695">
        <ele>1777.13</ele>
        <time>2019-04-08T15:23:43Z</time>
      </trkpt>
      <trkpt lat="60.55242" lon="7.46951">
        <ele>1784.34</ele>
        <time>2019-04-08T15:23:44Z</time>
      </trkpt>
      <trkpt lat="60.55242" lon="7.46951">
        <ele>1780.98</ele>
        <time>2019-04-08T15:23:45Z</time>
      </trkpt>
      <trkpt lat="60.55242" lon="7.46952">
        <ele>1780.98</ele>
        <time>2019-04-08T15:23:46Z</time>
      </trkpt>
      <trkpt lat="60.55246" lon="7.46952">
        <ele>1780.98</ele>
        <time>2019-04-08T15:24:02Z</time>
      </trkpt>
      <trkpt lat="60.55248" lon="7.46951">
        <ele>1780.98</ele>
        <time>2019-04-08T15:24:32Z</time>
      </trkpt>
      <trkpt lat="60.55246" lon="7.4695">
        <ele>1780.98</ele>
        <time>2019-04-08T15:24:52Z</time>
      </trkpt>
      <trkpt lat="60.55246" lon="7.46953">
        <ele>1780.98</ele>
        <time>2019-04-08T15:24:54Z</time>
      </trkpt>
      <trkpt lat="60.55246" lon="7.46952">
        <ele>1781.46</ele>
        <time>2019-04-08T15:24:59Z</time>
      </trkpt>
      <trkpt lat="60.55246" lon="7.46951">
        <ele>1794.92</ele>
        <time>2019-04-08T15:25:02Z</time>
      </trkpt>
      <trkpt lat="60.55245" lon="7.46951">
        <ele>1783.86</ele>
        <time>2019-04-08T15:25:03Z</time>
      </trkpt>
      <trkpt lat="60.55244" lon="7.46954">
        <ele>1781.46</ele>
        <time>2019-04-08T15:25:06Z</time>
      </trkpt>
      <trkpt lat="60.55244" lon="7.46955">
        <ele>1763.2</ele>
        <time>2019-04-08T15:25:07Z</time>
      </trkpt>
      <trkpt lat="60.55245" lon="7.46955">
        <ele>1801.65</ele>
        <time>2019-04-08T15:25:08Z</time>
      </trkpt>
      <trkpt lat="60.55245" lon="7.46956">
        <ele>1781.94</ele>
        <time>2019-04-08T15:25:09Z</time>
      </trkpt>
      <trkpt lat="60.55246" lon="7.4696">
        <ele>1780.98</ele>
        <time>2019-04-08T15:25:30Z</time>
      </trkpt>
      <trkpt lat="60.55248" lon="7.46969">
        <ele>1780.98</ele>
        <time>2019-04-08T15:25:43Z</time>
      </trkpt>
      <trkpt lat="60.55246" lon="7.46985">
        <ele>1780.98</ele>
        <time>2019-04-08T15:25:57Z</time>
      </trkpt>
      <trkpt lat="60.55246" lon="7.46986">
        <ele>1781.46</ele>
        <time>2019-04-08T15:26:16Z</time>
      </trkpt>
      <trkpt lat="60.55246" lon="7.46985">
        <ele>1780.5</ele>
        <time>2019-04-08T15:26:22Z</time>
      </trkpt>
      <trkpt lat="60.55246" lon="7.46982">
        <ele>1781.46</ele>
        <time>2019-04-08T15:26:49Z</time>
      </trkpt>
      <trkpt lat="60.55246" lon="7.46984">
        <ele>1781.46</ele>
        <time>2019-04-08T15:27:15Z</time>
      </trkpt>
      <trkpt lat="60.55248" lon="7.46982">
        <ele>1767.52</ele>
        <time>2019-04-08T15:27:17Z</time>
      </trkpt>
      <trkpt lat="60.5525" lon="7.46981">
        <ele>1775.21</ele>
        <time>2019-04-08T15:27:18Z</time>
      </trkpt>
      <trkpt lat="60.55252" lon="7.46979">
        <ele>1784.82</ele>
        <time>2019-04-08T15:27:19Z</time>
      </trkpt>
      <trkpt lat="60.55255" lon="7.46976">
        <ele>1797.32</ele>
        <time>2019-04-08T15:27:20Z</time>
      </trkpt>
      <trkpt lat="60.55258" lon="7.46974">
        <ele>1781.46</ele>
        <time>2019-04-08T15:27:21Z</time>
      </trkpt>
      <trkpt lat="60.55256" lon="7.46976">
        <ele>1781.46</ele>
        <time>2019-04-08T15:27:22Z</time>
      </trkpt>
      <trkpt lat="60.55249" lon="7.46987">
        <ele>1781.46</ele>
        <time>2019-04-08T15:27:38Z</time>
      </trkpt>
      <trkpt lat="60.55239" lon="7.47038">
        <ele>1780.02</ele>
        <time>2019-04-08T15:27:53Z</time>
      </trkpt>
      <trkpt lat="60.55231" lon="7.47117">
        <ele>1778.58</ele>
        <time>2019-04-08T15:28:07Z</time>
      </trkpt>
      <trkpt lat="60.5523" lon="7.47149">
        <ele>1779.06</ele>
        <time>2019-04-08T15:28:17Z</time>
      </trkpt>
      <trkpt lat="60.55235" lon="7.47193">
        <ele>1778.58</ele>
        <time>2019-04-08T15:28:29Z</time>
      </trkpt>
      <trkpt lat="60.5525" lon="7.47262">
        <ele>1776.65</ele>
        <time>2019-04-08T15:28:43Z</time>
      </trkpt>
      <trkpt lat="60.55278" lon="7.47299">
        <ele>1774.25</ele>
        <time>2019-04-08T15:28:58Z</time>
      </trkpt>
      <trkpt lat="60.55284" lon="7.47304">
        <ele>1773.29</ele>
        <time>2019-04-08T15:29:00Z</time>
      </trkpt>
      <trkpt lat="60.55295" lon="7.47333">
        <ele>1770.41</ele>
        <time>2019-04-08T15:29:04Z</time>
      </trkpt>
      <trkpt lat="60.55307" lon="7.47369">
        <ele>1767.04</ele>
        <time>2019-04-08T15:29:08Z</time>
      </trkpt>
      <trkpt lat="60.5531" lon="7.47379">
        <ele>1764.64</ele>
        <time>2019-04-08T15:29:09Z</time>
      </trkpt>
      <trkpt lat="60.55324" lon="7.47398">
        <ele>1758.87</ele>
        <time>2019-04-08T15:29:13Z</time>
      </trkpt>
      <trkpt lat="60.55329" lon="7.47394">
        <ele>1758.87</ele>
        <time>2019-04-08T15:29:14Z</time>
      </trkpt>
      <trkpt lat="60.55338" lon="7.4739">
        <ele>1757.43</ele>
        <time>2019-04-08T15:29:16Z</time>
      </trkpt>
      <trkpt lat="60.55373" lon="7.47389">
        <ele>1753.1</ele>
        <time>2019-04-08T15:29:25Z</time>
      </trkpt>
      <trkpt lat="60.55377" lon="7.47389">
        <ele>1753.1</ele>
        <time>2019-04-08T15:29:26Z</time>
      </trkpt>
      <trkpt lat="60.55389" lon="7.47388">
        <ele>1751.66</ele>
        <time>2019-04-08T15:29:29Z</time>
      </trkpt>
      <trkpt lat="60.55402" lon="7.47419">
        <ele>1747.33</ele>
        <time>2019-04-08T15:29:34Z</time>
      </trkpt>
      <trkpt lat="60.55406" lon="7.47445">
        <ele>1741.57</ele>
        <time>2019-04-08T15:29:37Z</time>
      </trkpt>
      <trkpt lat="60.55415" lon="7.47464">
        <ele>1737.72</ele>
        <time>2019-04-08T15:29:40Z</time>
      </trkpt>
      <trkpt lat="60.55421" lon="7.47486">
        <ele>1732.43</ele>
        <time>2019-04-08T15:29:43Z</time>
      </trkpt>
      <trkpt lat="60.5543" lon="7.47508">
        <ele>1728.11</ele>
        <time>2019-04-08T15:29:46Z</time>
      </trkpt>
      <trkpt lat="60.55439" lon="7.47516">
        <ele>1723.3</ele>
        <time>2019-04-08T15:29:48Z</time>
      </trkpt>
      <trkpt lat="60.5545" lon="7.47515">
        <ele>1720.42</ele>
        <time>2019-04-08T15:29:50Z</time>
      </trkpt>
      <trkpt lat="60.55462" lon="7.47513">
        <ele>1719.94</ele>
        <time>2019-04-08T15:29:52Z</time>
      </trkpt>
      <trkpt lat="60.55477" lon="7.4751">
        <ele>1717.53</ele>
        <time>2019-04-08T15:29:55Z</time>
      </trkpt>
      <trkpt lat="60.55493" lon="7.47533">
        <ele>1711.76</ele>
        <time>2019-04-08T15:30:00Z</time>
      </trkpt>
      <trkpt lat="60.55498" lon="7.47537">
        <ele>1710.32</ele>
        <time>2019-04-08T15:30:01Z</time>
      </trkpt>
      <trkpt lat="60.55509" lon="7.47544">
        <ele>1709.84</ele>
        <time>2019-04-08T15:30:03Z</time>
      </trkpt>
      <trkpt lat="60.55534" lon="7.47544">
        <ele>1704.07</ele>
        <time>2019-04-08T15:30:09Z</time>
      </trkpt>
      <trkpt lat="60.5554" lon="7.47539">
        <ele>1702.63</ele>
        <time>2019-04-08T15:30:14Z</time>
      </trkpt>
      <trkpt lat="60.55543" lon="7.47562">
        <ele>1699.75</ele>
        <time>2019-04-08T15:30:18Z</time>
      </trkpt>
      <trkpt lat="60.55547" lon="7.47589">
        <ele>1694.46</ele>
        <time>2019-04-08T15:30:21Z</time>
      </trkpt>
      <trkpt lat="60.55555" lon="7.47608">
        <ele>1690.62</ele>
        <time>2019-04-08T15:30:24Z</time>
      </trkpt>
      <trkpt lat="60.55568" lon="7.47606">
        <ele>1687.25</ele>
        <time>2019-04-08T15:30:27Z</time>
      </trkpt>
      <trkpt lat="60.55574" lon="7.47602">
        <ele>1686.29</ele>
        <time>2019-04-08T15:30:31Z</time>
      </trkpt>
      <trkpt lat="60.5558" lon="7.47626">
        <ele>1682.44</ele>
        <time>2019-04-08T15:30:35Z</time>
      </trkpt>
      <trkpt lat="60.55584" lon="7.47639">
        <ele>1679.56</ele>
        <time>2019-04-08T15:30:37Z</time>
      </trkpt>
      <trkpt lat="60.55583" lon="7.47653">
        <ele>1678.12</ele>
        <time>2019-04-08T15:30:40Z</time>
      </trkpt>
      <trkpt lat="60.55589" lon="7.47665">
        <ele>1675.23</ele>
        <time>2019-04-08T15:30:43Z</time>
      </trkpt>
      <trkpt lat="60.55603" lon="7.47661">
        <ele>1672.35</ele>
        <time>2019-04-08T15:30:47Z</time>
      </trkpt>
      <trkpt lat="60.55614" lon="7.47672">
        <ele>1668.99</ele>
        <time>2019-04-08T15:30:54Z</time>
      </trkpt>
      <trkpt lat="60.55623" lon="7.47692">
        <ele>1665.14</ele>
        <time>2019-04-08T15:30:57Z</time>
      </trkpt>
      <trkpt lat="60.55641" lon="7.47692">
        <ele>1660.81</ele>
        <time>2019-04-08T15:31:00Z</time>
      </trkpt>
      <trkpt lat="60.55666" lon="7.47691">
        <ele>1657.93</ele>
        <time>2019-04-08T15:31:03Z</time>
      </trkpt>
      <trkpt lat="60.55683" lon="7.47691">
        <ele>1655.05</ele>
        <time>2019-04-08T15:31:05Z</time>
      </trkpt>
      <trkpt lat="60.55708" lon="7.47695">
        <ele>1653.12</ele>
        <time>2019-04-08T15:31:08Z</time>
      </trkpt>
      <trkpt lat="60.55724" lon="7.47695">
        <ele>1652.16</ele>
        <time>2019-04-08T15:31:10Z</time>
      </trkpt>
      <trkpt lat="60.55756" lon="7.47708">
        <ele>1650.72</ele>
        <time>2019-04-08T15:31:16Z</time>
      </trkpt>
      <trkpt lat="60.55784" lon="7.47722">
        <ele>1645.91</ele>
        <time>2019-04-08T15:31:21Z</time>
      </trkpt>
      <trkpt lat="60.5579" lon="7.47749">
        <ele>1643.99</ele>
        <time>2019-04-08T15:31:24Z</time>
      </trkpt>
      <trkpt lat="60.55803" lon="7.4779">
        <ele>1640.15</ele>
        <time>2019-04-08T15:31:29Z</time>
      </trkpt>
      <trkpt lat="60.55813" lon="7.47808">
        <ele>1636.78</ele>
        <time>2019-04-08T15:31:31Z</time>
      </trkpt>
      <trkpt lat="60.55826" lon="7.47833">
        <ele>1632.46</ele>
        <time>2019-04-08T15:31:34Z</time>
      </trkpt>
      <trkpt lat="60.55831" lon="7.47852">
        <ele>1631.49</ele>
        <time>2019-04-08T15:31:36Z</time>
      </trkpt>
      <trkpt lat="60.55833" lon="7.47871">
        <ele>1630.53</ele>
        <time>2019-04-08T15:31:38Z</time>
      </trkpt>
      <trkpt lat="60.55834" lon="7.47885">
        <ele>1630.53</ele>
        <time>2019-04-08T15:31:40Z</time>
      </trkpt>
      <trkpt lat="60.55837" lon="7.4789">
        <ele>1631.98</ele>
        <time>2019-04-08T15:31:44Z</time>
      </trkpt>
      <trkpt lat="60.55848" lon="7.47897">
        <ele>1629.09</ele>
        <time>2019-04-08T15:31:48Z</time>
      </trkpt>
      <trkpt lat="60.55859" lon="7.47917">
        <ele>1623.8</ele>
        <time>2019-04-08T15:31:50Z</time>
      </trkpt>
      <trkpt lat="60.55872" lon="7.47929">
        <ele>1621.88</ele>
        <time>2019-04-08T15:31:52Z</time>
      </trkpt>
      <trkpt lat="60.55898" lon="7.4796">
        <ele>1614.67</ele>
        <time>2019-04-08T15:31:56Z</time>
      </trkpt>
      <trkpt lat="60.55912" lon="7.47972">
        <ele>1612.75</ele>
        <time>2019-04-08T15:31:58Z</time>
      </trkpt>
      <trkpt lat="60.55939" lon="7.4798">
        <ele>1609.38</ele>
        <time>2019-04-08T15:32:03Z</time>
      </trkpt>
      <trkpt lat="60.55956" lon="7.47995">
        <ele>1606.02</ele>
        <time>2019-04-08T15:32:07Z</time>
      </trkpt>
      <trkpt lat="60.55966" lon="7.48008">
        <ele>1601.21</ele>
        <time>2019-04-08T15:32:09Z</time>
      </trkpt>
      <trkpt lat="60.55987" lon="7.48045">
        <ele>1594.48</ele>
        <time>2019-04-08T15:32:13Z</time>
      </trkpt>
      <trkpt lat="60.55999" lon="7.48058">
        <ele>1590.64</ele>
        <time>2019-04-08T15:32:15Z</time>
      </trkpt>
      <trkpt lat="60.56016" lon="7.48077">
        <ele>1585.83</ele>
        <time>2019-04-08T15:32:18Z</time>
      </trkpt>
      <trkpt lat="60.56028" lon="7.48098">
        <ele>1581.99</ele>
        <time>2019-04-08T15:32:20Z</time>
      </trkpt>
      <trkpt lat="60.56036" lon="7.48147">
        <ele>1579.1</ele>
        <time>2019-04-08T15:32:23Z</time>
      </trkpt>
      <trkpt lat="60.5604" lon="7.48162">
        <ele>1577.18</ele>
        <time>2019-04-08T15:32:24Z</time>
      </trkpt>
      <trkpt lat="60.56052" lon="7.48209">
        <ele>1574.3</ele>
        <time>2019-04-08T15:32:27Z</time>
      </trkpt>
      <trkpt lat="60.5608" lon="7.48247">
        <ele>1569.49</ele>
        <time>2019-04-08T15:32:31Z</time>
      </trkpt>
      <trkpt lat="60.56089" lon="7.48251">
        <ele>1566.61</ele>
        <time>2019-04-08T15:32:32Z</time>
      </trkpt>
      <trkpt lat="60.56153" lon="7.48269">
        <ele>1565.16</ele>
        <time>2019-04-08T15:32:41Z</time>
      </trkpt>
      <trkpt lat="60.56201" lon="7.48282">
        <ele>1564.68</ele>
        <time>2019-04-08T15:32:55Z</time>
      </trkpt>
      <trkpt lat="60.56231" lon="7.48298">
        <ele>1561.32</ele>
        <time>2019-04-08T15:33:02Z</time>
      </trkpt>
      <trkpt lat="60.56236" lon="7.483">
        <ele>1560.84</ele>
        <time>2019-04-08T15:33:03Z</time>
      </trkpt>
      <trkpt lat="60.56254" lon="7.48303">
        <ele>1559.4</ele>
        <time>2019-04-08T15:33:06Z</time>
      </trkpt>
      <trkpt lat="60.5632" lon="7.48297">
        <ele>1555.55</ele>
        <time>2019-04-08T15:33:20Z</time>
      </trkpt>
      <trkpt lat="60.5636" lon="7.48287">
        <ele>1552.19</ele>
        <time>2019-04-08T15:33:27Z</time>
      </trkpt>
      <trkpt lat="60.56383" lon="7.48276">
        <ele>1548.82</ele>
        <time>2019-04-08T15:33:30Z</time>
      </trkpt>
      <trkpt lat="60.56399" lon="7.48268">
        <ele>1547.86</ele>
        <time>2019-04-08T15:33:32Z</time>
      </trkpt>
      <trkpt lat="60.56425" lon="7.48255">
        <ele>1543.53</ele>
        <time>2019-04-08T15:33:35Z</time>
      </trkpt>
      <trkpt lat="60.56472" lon="7.48229">
        <ele>1540.65</ele>
        <time>2019-04-08T15:33:41Z</time>
      </trkpt>
      <trkpt lat="60.56496" lon="7.48225">
        <ele>1544.01</ele>
        <time>2019-04-08T15:33:48Z</time>
      </trkpt>
      <trkpt lat="60.56508" lon="7.48227">
        <ele>1543.53</ele>
        <time>2019-04-08T15:33:53Z</time>
      </trkpt>
      <trkpt lat="60.56518" lon="7.48231">
        <ele>1544.01</ele>
        <time>2019-04-08T15:34:03Z</time>
      </trkpt>
      <trkpt lat="60.56525" lon="7.48235">
        <ele>1544.01</ele>
        <time>2019-04-08T15:34:17Z</time>
      </trkpt>
      <trkpt lat="60.5653" lon="7.4824">
        <ele>1544.5</ele>
        <time>2019-04-08T15:34:30Z</time>
      </trkpt>
      <trkpt lat="60.56534" lon="7.48242">
        <ele>1544.5</ele>
        <time>2019-04-08T15:34:47Z</time>
      </trkpt>
      <trkpt lat="60.56539" lon="7.48247">
        <ele>1543.05</ele>
        <time>2019-04-08T15:34:49Z</time>
      </trkpt>
      <trkpt lat="60.56546" lon="7.48237">
        <ele>1539.69</ele>
        <time>2019-04-08T15:34:53Z</time>
      </trkpt>
      <trkpt lat="60.56548" lon="7.48233">
        <ele>1539.21</ele>
        <time>2019-04-08T15:34:55Z</time>
      </trkpt>
      <trkpt lat="60.56548" lon="7.48231">
        <ele>1539.21</ele>
        <time>2019-04-08T15:35:14Z</time>
      </trkpt>
      <trkpt lat="60.56548" lon="7.48231">
        <ele>1539.21</ele>
        <time>2019-04-08T15:35:16Z</time>
      </trkpt>
      <trkpt lat="60.56557" lon="7.48241">
        <ele>1535.36</ele>
        <time>2019-04-08T15:35:19Z</time>
      </trkpt>
      <trkpt lat="60.56562" lon="7.4826">
        <ele>1532</ele>
        <time>2019-04-08T15:35:21Z</time>
      </trkpt>
      <trkpt lat="60.56574" lon="7.48291">
        <ele>1526.23</ele>
        <time>2019-04-08T15:35:24Z</time>
      </trkpt>
      <trkpt lat="60.56587" lon="7.48317">
        <ele>1522.39</ele>
        <time>2019-04-08T15:35:27Z</time>
      </trkpt>
      <trkpt lat="60.566" lon="7.48338">
        <ele>1519.02</ele>
        <time>2019-04-08T15:35:30Z</time>
      </trkpt>
      <trkpt lat="60.56609" lon="7.48342">
        <ele>1515.66</ele>
        <time>2019-04-08T15:35:32Z</time>
      </trkpt>
      <trkpt lat="60.56621" lon="7.48347">
        <ele>1513.73</ele>
        <time>2019-04-08T15:35:35Z</time>
      </trkpt>
      <trkpt lat="60.56632" lon="7.48356">
        <ele>1509.41</ele>
        <time>2019-04-08T15:35:41Z</time>
      </trkpt>
      <trkpt lat="60.5664" lon="7.48365">
        <ele>1504.6</ele>
        <time>2019-04-08T15:35:44Z</time>
      </trkpt>
      <trkpt lat="60.56648" lon="7.48363">
        <ele>1500.76</ele>
        <time>2019-04-08T15:35:46Z</time>
      </trkpt>
      <trkpt lat="60.56654" lon="7.48374">
        <ele>1497.87</ele>
        <time>2019-04-08T15:35:48Z</time>
      </trkpt>
      <trkpt lat="60.56661" lon="7.48377">
        <ele>1494.03</ele>
        <time>2019-04-08T15:35:50Z</time>
      </trkpt>
      <trkpt lat="60.56669" lon="7.48386">
        <ele>1490.18</ele>
        <time>2019-04-08T15:35:52Z</time>
      </trkpt>
      <trkpt lat="60.56675" lon="7.48391">
        <ele>1486.34</ele>
        <time>2019-04-08T15:35:54Z</time>
      </trkpt>
      <trkpt lat="60.56684" lon="7.48385">
        <ele>1482.97</ele>
        <time>2019-04-08T15:35:56Z</time>
      </trkpt>
      <trkpt lat="60.56693" lon="7.48385">
        <ele>1478.65</ele>
        <time>2019-04-08T15:35:58Z</time>
      </trkpt>
      <trkpt lat="60.56702" lon="7.48382">
        <ele>1475.28</ele>
        <time>2019-04-08T15:36:00Z</time>
      </trkpt>
      <trkpt lat="60.56715" lon="7.48385">
        <ele>1470.95</ele>
        <time>2019-04-08T15:36:03Z</time>
      </trkpt>
      <trkpt lat="60.56721" lon="7.48369">
        <ele>1467.59</ele>
        <time>2019-04-08T15:36:05Z</time>
      </trkpt>
      <trkpt lat="60.56734" lon="7.48345">
        <ele>1463.74</ele>
        <time>2019-04-08T15:36:09Z</time>
      </trkpt>
      <trkpt lat="60.56745" lon="7.48342">
        <ele>1459.9</ele>
        <time>2019-04-08T15:36:11Z</time>
      </trkpt>
      <trkpt lat="60.56755" lon="7.48337">
        <ele>1456.53</ele>
        <time>2019-04-08T15:36:13Z</time>
      </trkpt>
      <trkpt lat="60.56761" lon="7.48327">
        <ele>1453.17</ele>
        <time>2019-04-08T15:36:15Z</time>
      </trkpt>
      <trkpt lat="60.56766" lon="7.48297">
        <ele>1451.25</ele>
        <time>2019-04-08T15:36:19Z</time>
      </trkpt>
      <trkpt lat="60.56777" lon="7.48279">
        <ele>1447.88</ele>
        <time>2019-04-08T15:36:22Z</time>
      </trkpt>
      <trkpt lat="60.56787" lon="7.4827">
        <ele>1444.52</ele>
        <time>2019-04-08T15:36:24Z</time>
      </trkpt>
      <trkpt lat="60.56804" lon="7.4827">
        <ele>1438.27</ele>
        <time>2019-04-08T15:36:27Z</time>
      </trkpt>
      <trkpt lat="60.56809" lon="7.48276">
        <ele>1435.87</ele>
        <time>2019-04-08T15:36:28Z</time>
      </trkpt>
      <trkpt lat="60.56818" lon="7.48293">
        <ele>1431.54</ele>
        <time>2019-04-08T15:36:31Z</time>
      </trkpt>
      <trkpt lat="60.56817" lon="7.48297">
        <ele>1428.66</ele>
        <time>2019-04-08T15:36:41Z</time>
      </trkpt>
      <trkpt lat="60.56815" lon="7.48298">
        <ele>1429.14</ele>
        <time>2019-04-08T15:37:02Z</time>
      </trkpt>
      <trkpt lat="60.56816" lon="7.48298">
        <ele>1429.14</ele>
        <time>2019-04-08T15:37:03Z</time>
      </trkpt>
      <trkpt lat="60.56829" lon="7.48294">
        <ele>1424.81</ele>
        <time>2019-04-08T15:37:07Z</time>
      </trkpt>
      <trkpt lat="60.56834" lon="7.48298">
        <ele>1422.89</ele>
        <time>2019-04-08T15:37:08Z</time>
      </trkpt>
      <trkpt lat="60.56848" lon="7.48322">
        <ele>1415.2</ele>
        <time>2019-04-08T15:37:12Z</time>
      </trkpt>
      <trkpt lat="60.56855" lon="7.48329">
        <ele>1410.87</ele>
        <time>2019-04-08T15:37:14Z</time>
      </trkpt>
      <trkpt lat="60.56864" lon="7.48333">
        <ele>1405.58</ele>
        <time>2019-04-08T15:37:16Z</time>
      </trkpt>
      <trkpt lat="60.56871" lon="7.48342">
        <ele>1398.37</ele>
        <time>2019-04-08T15:37:18Z</time>
      </trkpt>
      <trkpt lat="60.56877" lon="7.48344">
        <ele>1402.7</ele>
        <time>2019-04-08T15:37:19Z</time>
      </trkpt>
      <trkpt lat="60.56881" lon="7.48351">
        <ele>1395.01</ele>
        <time>2019-04-08T15:37:20Z</time>
      </trkpt>
      <trkpt lat="60.56885" lon="7.48372">
        <ele>1390.68</ele>
        <time>2019-04-08T15:37:22Z</time>
      </trkpt>
      <trkpt lat="60.56896" lon="7.48392">
        <ele>1384.92</ele>
        <time>2019-04-08T15:37:24Z</time>
      </trkpt>
      <trkpt lat="60.56902" lon="7.48417">
        <ele>1381.07</ele>
        <time>2019-04-08T15:37:26Z</time>
      </trkpt>
      <trkpt lat="60.56911" lon="7.48434">
        <ele>1376.75</ele>
        <time>2019-04-08T15:37:28Z</time>
      </trkpt>
      <trkpt lat="60.56912" lon="7.48457">
        <ele>1373.38</ele>
        <time>2019-04-08T15:37:30Z</time>
      </trkpt>
      <trkpt lat="60.56913" lon="7.48484">
        <ele>1370.02</ele>
        <time>2019-04-08T15:37:32Z</time>
      </trkpt>
      <trkpt lat="60.56917" lon="7.48494">
        <ele>1367.61</ele>
        <time>2019-04-08T15:37:33Z</time>
      </trkpt>
      <trkpt lat="60.56947" lon="7.48524">
        <ele>1359.44</ele>
        <time>2019-04-08T15:37:37Z</time>
      </trkpt>
      <trkpt lat="60.56967" lon="7.48546">
        <ele>1358</ele>
        <time>2019-04-08T15:37:40Z</time>
      </trkpt>
      <trkpt lat="60.56983" lon="7.48574">
        <ele>1354.15</ele>
        <time>2019-04-08T15:37:43Z</time>
      </trkpt>
      <trkpt lat="60.56995" lon="7.48622">
        <ele>1352.23</ele>
        <time>2019-04-08T15:37:47Z</time>
      </trkpt>
      <trkpt lat="60.56996" lon="7.4865">
        <ele>1350.79</ele>
        <time>2019-04-08T15:37:49Z</time>
      </trkpt>
      <trkpt lat="60.57007" lon="7.48687">
        <ele>1346.94</ele>
        <time>2019-04-08T15:37:52Z</time>
      </trkpt>
      <trkpt lat="60.57013" lon="7.48697">
        <ele>1345.02</ele>
        <time>2019-04-08T15:37:53Z</time>
      </trkpt>
      <trkpt lat="60.57025" lon="7.48725">
        <ele>1341.66</ele>
        <time>2019-04-08T15:37:55Z</time>
      </trkpt>
      <trkpt lat="60.57051" lon="7.48754">
        <ele>1337.81</ele>
        <time>2019-04-08T15:37:59Z</time>
      </trkpt>
      <trkpt lat="60.57084" lon="7.4876">
        <ele>1333.01</ele>
        <time>2019-04-08T15:38:03Z</time>
      </trkpt>
      <trkpt lat="60.57092" lon="7.48761">
        <ele>1332.04</ele>
        <time>2019-04-08T15:38:04Z</time>
      </trkpt>
      <trkpt lat="60.57105" lon="7.48766">
        <ele>1332.04</ele>
        <time>2019-04-08T15:38:06Z</time>
      </trkpt>
      <trkpt lat="60.57165" lon="7.48807">
        <ele>1331.56</ele>
        <time>2019-04-08T15:38:20Z</time>
      </trkpt>
      <trkpt lat="60.57169" lon="7.48809">
        <ele>1331.56</ele>
        <time>2019-04-08T15:38:21Z</time>
      </trkpt>
      <trkpt lat="60.5719" lon="7.4884">
        <ele>1328.2</ele>
        <time>2019-04-08T15:38:26Z</time>
      </trkpt>
      <trkpt lat="60.57212" lon="7.4886">
        <ele>1323.39</ele>
        <time>2019-04-08T15:38:30Z</time>
      </trkpt>
      <trkpt lat="60.57229" lon="7.48867">
        <ele>1321.47</ele>
        <time>2019-04-08T15:38:33Z</time>
      </trkpt>
      <trkpt lat="60.57233" lon="7.48876">
        <ele>1320.99</ele>
        <time>2019-04-08T15:38:34Z</time>
      </trkpt>
      <trkpt lat="60.57252" lon="7.48904">
        <ele>1316.66</ele>
        <time>2019-04-08T15:38:38Z</time>
      </trkpt>
      <trkpt lat="60.57258" lon="7.48926">
        <ele>1313.3</ele>
        <time>2019-04-08T15:38:40Z</time>
      </trkpt>
      <trkpt lat="60.57264" lon="7.4896">
        <ele>1309.93</ele>
        <time>2019-04-08T15:38:43Z</time>
      </trkpt>
      <trkpt lat="60.5727" lon="7.48968">
        <ele>1308.01</ele>
        <time>2019-04-08T15:38:44Z</time>
      </trkpt>
      <trkpt lat="60.57294" lon="7.48993">
        <ele>1301.28</ele>
        <time>2019-04-08T15:38:47Z</time>
      </trkpt>
      <trkpt lat="60.57305" lon="7.49005">
        <ele>1296.96</ele>
        <time>2019-04-08T15:38:48Z</time>
      </trkpt>
      <trkpt lat="60.57324" lon="7.49032">
        <ele>1294.55</ele>
        <time>2019-04-08T15:38:50Z</time>
      </trkpt>
      <trkpt lat="60.57342" lon="7.49054">
        <ele>1291.67</ele>
        <time>2019-04-08T15:38:52Z</time>
      </trkpt>
      <trkpt lat="60.57377" lon="7.49098">
        <ele>1288.78</ele>
        <time>2019-04-08T15:38:56Z</time>
      </trkpt>
      <trkpt lat="60.57393" lon="7.49119">
        <ele>1286.86</ele>
        <time>2019-04-08T15:38:58Z</time>
      </trkpt>
      <trkpt lat="60.57408" lon="7.49142">
        <ele>1283.98</ele>
        <time>2019-04-08T15:39:00Z</time>
      </trkpt>
      <trkpt lat="60.57415" lon="7.49155">
        <ele>1282.06</ele>
        <time>2019-04-08T15:39:01Z</time>
      </trkpt>
      <trkpt lat="60.57448" lon="7.49255">
        <ele>1280.13</ele>
        <time>2019-04-08T15:39:08Z</time>
      </trkpt>
      <trkpt lat="60.57472" lon="7.49332">
        <ele>1277.25</ele>
        <time>2019-04-08T15:39:14Z</time>
      </trkpt>
      <trkpt lat="60.57479" lon="7.49358">
        <ele>1276.77</ele>
        <time>2019-04-08T15:39:16Z</time>
      </trkpt>
      <trkpt lat="60.57496" lon="7.49507">
        <ele>1274.36</ele>
        <time>2019-04-08T15:39:28Z</time>
      </trkpt>
      <trkpt lat="60.57519" lon="7.49632">
        <ele>1273.4</ele>
        <time>2019-04-08T15:39:44Z</time>
      </trkpt>
      <trkpt lat="60.57547" lon="7.49711">
        <ele>1271.96</ele>
        <time>2019-04-08T15:39:58Z</time>
      </trkpt>
      <trkpt lat="60.57561" lon="7.49743">
        <ele>1270.52</ele>
        <time>2019-04-08T15:40:03Z</time>
      </trkpt>
      <trkpt lat="60.57599" lon="7.49828">
        <ele>1270.04</ele>
        <time>2019-04-08T15:40:18Z</time>
      </trkpt>
      <trkpt lat="60.57629" lon="7.49909">
        <ele>1268.6</ele>
        <time>2019-04-08T15:40:32Z</time>
      </trkpt>
      <trkpt lat="60.57661" lon="7.50017">
        <ele>1265.71</ele>
        <time>2019-04-08T15:40:48Z</time>
      </trkpt>
      <trkpt lat="60.57688" lon="7.50064">
        <ele>1262.35</ele>
        <time>2019-04-08T15:40:56Z</time>
      </trkpt>
      <trkpt lat="60.57689" lon="7.50066">
        <ele>1262.35</ele>
        <time>2019-04-08T15:40:57Z</time>
      </trkpt>
      <trkpt lat="60.57705" lon="7.5008">
        <ele>1259.46</ele>
        <time>2019-04-08T15:41:01Z</time>
      </trkpt>
      <trkpt lat="60.57759" lon="7.50144">
        <ele>1258.02</ele>
        <time>2019-04-08T15:41:17Z</time>
      </trkpt>
      <trkpt lat="60.57805" lon="7.50168">
        <ele>1256.58</ele>
        <time>2019-04-08T15:41:31Z</time>
      </trkpt>
      <trkpt lat="60.57841" lon="7.50173">
        <ele>1253.22</ele>
        <time>2019-04-08T15:41:40Z</time>
      </trkpt>
      <trkpt lat="60.57886" lon="7.50194">
        <ele>1250.33</ele>
        <time>2019-04-08T15:41:49Z</time>
      </trkpt>
      <trkpt lat="60.57905" lon="7.50205">
        <ele>1248.41</ele>
        <time>2019-04-08T15:41:53Z</time>
      </trkpt>
      <trkpt lat="60.57914" lon="7.50209">
        <ele>1248.41</ele>
        <time>2019-04-08T15:41:55Z</time>
      </trkpt>
      <trkpt lat="60.57923" lon="7.50215">
        <ele>1247.45</ele>
        <time>2019-04-08T15:41:57Z</time>
      </trkpt>
      <trkpt lat="60.57944" lon="7.5024">
        <ele>1246.49</ele>
        <time>2019-04-08T15:42:02Z</time>
      </trkpt>
      <trkpt lat="60.57992" lon="7.50299">
        <ele>1244.56</ele>
        <time>2019-04-08T15:42:18Z</time>
      </trkpt>
      <trkpt lat="60.58031" lon="7.50306">
        <ele>1242.64</ele>
        <time>2019-04-08T15:42:31Z</time>
      </trkpt>
      <trkpt lat="60.58069" lon="7.50314">
        <ele>1241.68</ele>
        <time>2019-04-08T15:42:44Z</time>
      </trkpt>
      <trkpt lat="60.58098" lon="7.5031">
        <ele>1242.64</ele>
        <time>2019-04-08T15:42:57Z</time>
      </trkpt>
      <trkpt lat="60.58099" lon="7.50309">
        <ele>1242.64</ele>
        <time>2019-04-08T15:42:58Z</time>
      </trkpt>
      <trkpt lat="60.58104" lon="7.50307">
        <ele>1241.2</ele>
        <time>2019-04-08T15:43:01Z</time>
      </trkpt>
      <trkpt lat="60.58137" lon="7.50287">
        <ele>1240.24</ele>
        <time>2019-04-08T15:43:14Z</time>
      </trkpt>
      <trkpt lat="60.58164" lon="7.50278">
        <ele>1236.87</ele>
        <time>2019-04-08T15:43:22Z</time>
      </trkpt>
      <trkpt lat="60.58169" lon="7.50276">
        <ele>1236.87</ele>
        <time>2019-04-08T15:43:23Z</time>
      </trkpt>
      <trkpt lat="60.58174" lon="7.50274">
        <ele>1235.91</ele>
        <time>2019-04-08T15:43:24Z</time>
      </trkpt>
      <trkpt lat="60.58195" lon="7.50273">
        <ele>1237.35</ele>
        <time>2019-04-08T15:43:33Z</time>
      </trkpt>
      <trkpt lat="60.58194" lon="7.50274">
        <ele>1237.35</ele>
        <time>2019-04-08T15:43:47Z</time>
      </trkpt>
      <trkpt lat="60.58193" lon="7.5027">
        <ele>1233.03</ele>
        <time>2019-04-08T15:43:49Z</time>
      </trkpt>
      <trkpt lat="60.58193" lon="7.5027">
        <ele>1237.83</ele>
        <time>2019-04-08T15:43:50Z</time>
      </trkpt>
      <trkpt lat="60.58193" lon="7.50271">
        <ele>1235.43</ele>
        <time>2019-04-08T15:43:51Z</time>
      </trkpt>
      <trkpt lat="60.58193" lon="7.50273">
        <ele>1238.8</ele>
        <time>2019-04-08T15:43:52Z</time>
      </trkpt>
      <trkpt lat="60.58193" lon="7.50275">
        <ele>1246.97</ele>
        <time>2019-04-08T15:43:53Z</time>
      </trkpt>
      <trkpt lat="60.58195" lon="7.50279">
        <ele>1234.95</ele>
        <time>2019-04-08T15:43:54Z</time>
      </trkpt>
      <trkpt lat="60.58196" lon="7.50282">
        <ele>1236.87</ele>
        <time>2019-04-08T15:43:55Z</time>
      </trkpt>
      <trkpt lat="60.58195" lon="7.5028">
        <ele>1243.6</ele>
        <time>2019-04-08T15:43:58Z</time>
      </trkpt>
      <trkpt lat="60.58196" lon="7.50281">
        <ele>1234.95</ele>
        <time>2019-04-08T15:43:59Z</time>
      </trkpt>
      <trkpt lat="60.58195" lon="7.50279">
        <ele>1238.8</ele>
        <time>2019-04-08T15:44:00Z</time>
      </trkpt>
      <trkpt lat="60.58195" lon="7.50278">
        <ele>1234.47</ele>
        <time>2019-04-08T15:44:02Z</time>
      </trkpt>
      <trkpt lat="60.58195" lon="7.5028">
        <ele>1241.68</ele>
        <time>2019-04-08T15:44:04Z</time>
      </trkpt>
      <trkpt lat="60.58195" lon="7.50277">
        <ele>1237.35</ele>
        <time>2019-04-08T15:44:05Z</time>
      </trkpt>
      <trkpt lat="60.58194" lon="7.50273">
        <ele>1235.43</ele>
        <time>2019-04-08T15:44:19Z</time>
      </trkpt>
      <trkpt lat="60.58192" lon="7.50274">
        <ele>1239.28</ele>
        <time>2019-04-08T15:44:21Z</time>
      </trkpt>
      <trkpt lat="60.58193" lon="7.50274">
        <ele>1236.87</ele>
        <time>2019-04-08T15:44:22Z</time>
      </trkpt>
      <trkpt lat="60.58193" lon="7.50279">
        <ele>1247.45</ele>
        <time>2019-04-08T15:44:24Z</time>
      </trkpt>
      <trkpt lat="60.58193" lon="7.50284">
        <ele>1238.32</ele>
        <time>2019-04-08T15:44:25Z</time>
      </trkpt>
      <trkpt lat="60.58194" lon="7.50276">
        <ele>1237.83</ele>
        <time>2019-04-08T15:44:41Z</time>
      </trkpt>
      <trkpt lat="60.58194" lon="7.50275">
        <ele>1237.83</ele>
        <time>2019-04-08T15:45:06Z</time>
      </trkpt>
      <trkpt lat="60.58195" lon="7.50274">
        <ele>1238.32</ele>
        <time>2019-04-08T15:45:26Z</time>
      </trkpt>
      <trkpt lat="60.58195" lon="7.50275">
        <ele>1245.04</ele>
        <time>2019-04-08T15:45:34Z</time>
      </trkpt>
      <trkpt lat="60.58196" lon="7.50277">
        <ele>1238.32</ele>
        <time>2019-04-08T15:45:35Z</time>
      </trkpt>
      <trkpt lat="60.58195" lon="7.50274">
        <ele>1238.8</ele>
        <time>2019-04-08T15:45:57Z</time>
      </trkpt>
      <trkpt lat="60.58196" lon="7.50277">
        <ele>1244.08</ele>
        <time>2019-04-08T15:46:13Z</time>
      </trkpt>
      <trkpt lat="60.58196" lon="7.50281">
        <ele>1238.8</ele>
        <time>2019-04-08T15:46:14Z</time>
      </trkpt>
      <trkpt lat="60.58196" lon="7.50274">
        <ele>1235.91</ele>
        <time>2019-04-08T15:46:20Z</time>
      </trkpt>
      <trkpt lat="60.58196" lon="7.50266">
        <ele>1238.8</ele>
        <time>2019-04-08T15:46:22Z</time>
      </trkpt>
      <trkpt lat="60.58196" lon="7.50263">
        <ele>1229.66</ele>
        <time>2019-04-08T15:46:23Z</time>
      </trkpt>
      <trkpt lat="60.58196" lon="7.50258">
        <ele>1237.35</ele>
        <time>2019-04-08T15:46:24Z</time>
      </trkpt>
      <trkpt lat="60.58197" lon="7.5025">
        <ele>1239.28</ele>
        <time>2019-04-08T15:46:26Z</time>
      </trkpt>
      <trkpt lat="60.58195" lon="7.50269">
        <ele>1239.28</ele>
        <time>2019-04-08T15:46:40Z</time>
      </trkpt>
      <trkpt lat="60.58193" lon="7.50266">
        <ele>1237.35</ele>
        <time>2019-04-08T15:46:42Z</time>
      </trkpt>
      <trkpt lat="60.58194" lon="7.50267">
        <ele>1241.2</ele>
        <time>2019-04-08T15:46:43Z</time>
      </trkpt>
      <trkpt lat="60.58194" lon="7.50268">
        <ele>1239.76</ele>
        <time>2019-04-08T15:46:44Z</time>
      </trkpt>
      <trkpt lat="60.58194" lon="7.50269">
        <ele>1236.39</ele>
        <time>2019-04-08T15:46:47Z</time>
      </trkpt>
      <trkpt lat="60.58194" lon="7.50269">
        <ele>1239.76</ele>
        <time>2019-04-08T15:46:48Z</time>
      </trkpt>
      <trkpt lat="60.58194" lon="7.50269">
        <ele>1239.76</ele>
        <time>2019-04-08T15:46:49Z</time>
      </trkpt>
      <trkpt lat="60.58194" lon="7.50273">
        <ele>1247.45</ele>
        <time>2019-04-08T15:46:54Z</time>
      </trkpt>
      <trkpt lat="60.58195" lon="7.50276">
        <ele>1239.28</ele>
        <time>2019-04-08T15:46:55Z</time>
      </trkpt>
      <trkpt lat="60.582" lon="7.50271">
        <ele>1239.28</ele>
        <time>2019-04-08T15:47:09Z</time>
      </trkpt>
      <trkpt lat="60.58206" lon="7.50264">
        <ele>1239.28</ele>
        <time>2019-04-08T15:47:21Z</time>
      </trkpt>
      <trkpt lat="60.58208" lon="7.50261">
        <ele>1240.72</ele>
        <time>2019-04-08T15:47:24Z</time>
      </trkpt>
      <trkpt lat="60.58223" lon="7.50248">
        <ele>1241.68</ele>
        <time>2019-04-08T15:47:41Z</time>
      </trkpt>
      <trkpt lat="60.58232" lon="7.50242">
        <ele>1241.68</ele>
        <time>2019-04-08T15:47:56Z</time>
      </trkpt>
      <trkpt lat="60.58234" lon="7.50241">
        <ele>1242.64</ele>
        <time>2019-04-08T15:47:58Z</time>
      </trkpt>
      <trkpt lat="60.5825" lon="7.50231">
        <ele>1243.6</ele>
        <time>2019-04-08T15:48:14Z</time>
      </trkpt>
      <trkpt lat="60.58268" lon="7.5022">
        <ele>1244.56</ele>
        <time>2019-04-08T15:48:31Z</time>
      </trkpt>
      <trkpt lat="60.58287" lon="7.50208">
        <ele>1245.53</ele>
        <time>2019-04-08T15:48:49Z</time>
      </trkpt>
      <trkpt lat="60.58305" lon="7.50196">
        <ele>1246.01</ele>
        <time>2019-04-08T15:49:05Z</time>
      </trkpt>
      <trkpt lat="60.5832" lon="7.50178">
        <ele>1245.04</ele>
        <time>2019-04-08T15:49:21Z</time>
      </trkpt>
      <trkpt lat="60.58336" lon="7.50161">
        <ele>1245.04</ele>
        <time>2019-04-08T15:49:36Z</time>
      </trkpt>
      <trkpt lat="60.58353" lon="7.50144">
        <ele>1246.01</ele>
        <time>2019-04-08T15:49:52Z</time>
      </trkpt>
      <trkpt lat="60.58354" lon="7.50143">
        <ele>1246.01</ele>
        <time>2019-04-08T15:49:53Z</time>
      </trkpt>
      <trkpt lat="60.58369" lon="7.50128">
        <ele>1246.97</ele>
        <time>2019-04-08T15:50:09Z</time>
      </trkpt>
      <trkpt lat="60.58382" lon="7.50116">
        <ele>1249.37</ele>
        <time>2019-04-08T15:50:24Z</time>
      </trkpt>
      <trkpt lat="60.584" lon="7.50115">
        <ele>1249.37</ele>
        <time>2019-04-08T15:50:40Z</time>
      </trkpt>
      <trkpt lat="60.58403" lon="7.50113">
        <ele>1249.37</ele>
        <time>2019-04-08T15:50:53Z</time>
      </trkpt>
      <trkpt lat="60.58414" lon="7.50118">
        <ele>1249.37</ele>
        <time>2019-04-08T15:51:04Z</time>
      </trkpt>
      <trkpt lat="60.5843" lon="7.50126">
        <ele>1249.85</ele>
        <time>2019-04-08T15:51:18Z</time>
      </trkpt>
      <trkpt lat="60.58449" lon="7.50137">
        <ele>1249.85</ele>
        <time>2019-04-08T15:51:33Z</time>
      </trkpt>
      <trkpt lat="60.58465" lon="7.50148">
        <ele>1250.81</ele>
        <time>2019-04-08T15:51:48Z</time>
      </trkpt>
      <trkpt lat="60.58481" lon="7.50161">
        <ele>1251.77</ele>
        <time>2019-04-08T15:52:02Z</time>
      </trkpt>
      <trkpt lat="60.58498" lon="7.50175">
        <ele>1252.25</ele>
        <time>2019-04-08T15:52:17Z</time>
      </trkpt>
      <trkpt lat="60.58515" lon="7.50184">
        <ele>1252.74</ele>
        <time>2019-04-08T15:52:30Z</time>
      </trkpt>
      <trkpt lat="60.58528" lon="7.5019">
        <ele>1251.29</ele>
        <time>2019-04-08T15:52:40Z</time>
      </trkpt>
      <trkpt lat="60.58545" lon="7.50196">
        <ele>1251.29</ele>
        <time>2019-04-08T15:52:54Z</time>
      </trkpt>
      <trkpt lat="60.58559" lon="7.50205">
        <ele>1253.22</ele>
        <time>2019-04-08T15:53:08Z</time>
      </trkpt>
      <trkpt lat="60.58564" lon="7.50208">
        <ele>1251.77</ele>
        <time>2019-04-08T15:53:11Z</time>
      </trkpt>
      <trkpt lat="60.58584" lon="7.50224">
        <ele>1250.33</ele>
        <time>2019-04-08T15:53:26Z</time>
      </trkpt>
      <trkpt lat="60.58594" lon="7.50229">
        <ele>1251.77</ele>
        <time>2019-04-08T15:53:38Z</time>
      </trkpt>
      <trkpt lat="60.586" lon="7.50234">
        <ele>1252.74</ele>
        <time>2019-04-08T15:53:52Z</time>
      </trkpt>
      <trkpt lat="60.58607" lon="7.50242">
        <ele>1253.7</ele>
        <time>2019-04-08T15:54:09Z</time>
      </trkpt>
      <trkpt lat="60.58621" lon="7.50256">
        <ele>1254.18</ele>
        <time>2019-04-08T15:54:23Z</time>
      </trkpt>
      <trkpt lat="60.58638" lon="7.50281">
        <ele>1254.18</ele>
        <time>2019-04-08T15:54:41Z</time>
      </trkpt>
      <trkpt lat="60.58654" lon="7.50295">
        <ele>1254.66</ele>
        <time>2019-04-08T15:54:58Z</time>
      </trkpt>
      <trkpt lat="60.58668" lon="7.50312">
        <ele>1253.7</ele>
        <time>2019-04-08T15:55:11Z</time>
      </trkpt>
      <trkpt lat="60.58687" lon="7.50327">
        <ele>1253.22</ele>
        <time>2019-04-08T15:55:29Z</time>
      </trkpt>
      <trkpt lat="60.58704" lon="7.50344">
        <ele>1252.25</ele>
        <time>2019-04-08T15:55:42Z</time>
      </trkpt>
      <trkpt lat="60.58721" lon="7.50354">
        <ele>1249.85</ele>
        <time>2019-04-08T15:55:55Z</time>
      </trkpt>
      <trkpt lat="60.58739" lon="7.5038">
        <ele>1247.93</ele>
        <time>2019-04-08T15:56:09Z</time>
      </trkpt>
      <trkpt lat="60.58758" lon="7.50393">
        <ele>1246.01</ele>
        <time>2019-04-08T15:56:20Z</time>
      </trkpt>
      <trkpt lat="60.58778" lon="7.50406">
        <ele>1242.16</ele>
        <time>2019-04-08T15:56:32Z</time>
      </trkpt>
      <trkpt lat="60.5878" lon="7.50407">
        <ele>1242.16</ele>
        <time>2019-04-08T15:56:33Z</time>
      </trkpt>
      <trkpt lat="60.58795" lon="7.50417">
        <ele>1241.2</ele>
        <time>2019-04-08T15:56:44Z</time>
      </trkpt>
      <trkpt lat="60.58817" lon="7.50429">
        <ele>1237.83</ele>
        <time>2019-04-08T15:56:58Z</time>
      </trkpt>
      <trkpt lat="60.58834" lon="7.50438">
        <ele>1237.35</ele>
        <time>2019-04-08T15:57:10Z</time>
      </trkpt>
      <trkpt lat="60.58856" lon="7.50447">
        <ele>1236.39</ele>
        <time>2019-04-08T15:57:26Z</time>
      </trkpt>
      <trkpt lat="60.5888" lon="7.50456">
        <ele>1233.99</ele>
        <time>2019-04-08T15:57:42Z</time>
      </trkpt>
      <trkpt lat="60.58902" lon="7.5046">
        <ele>1233.03</ele>
        <time>2019-04-08T15:57:59Z</time>
      </trkpt>
      <trkpt lat="60.58929" lon="7.50468">
        <ele>1231.11</ele>
        <time>2019-04-08T15:58:18Z</time>
      </trkpt>
      <trkpt lat="60.58952" lon="7.5048">
        <ele>1229.66</ele>
        <time>2019-04-08T15:58:35Z</time>
      </trkpt>
      <trkpt lat="60.58969" lon="7.50493">
        <ele>1228.22</ele>
        <time>2019-04-08T15:58:50Z</time>
      </trkpt>
      <trkpt lat="60.58988" lon="7.50501">
        <ele>1227.26</ele>
        <time>2019-04-08T15:59:05Z</time>
      </trkpt>
      <trkpt lat="60.59005" lon="7.50511">
        <ele>1226.3</ele>
        <time>2019-04-08T15:59:20Z</time>
      </trkpt>
      <trkpt lat="60.59016" lon="7.5052">
        <ele>1224.86</ele>
        <time>2019-04-08T15:59:27Z</time>
      </trkpt>
      <trkpt lat="60.5905" lon="7.50535">
        <ele>1221.97</ele>
        <time>2019-04-08T15:59:44Z</time>
      </trkpt>
      <trkpt lat="60.59075" lon="7.50549">
        <ele>1218.61</ele>
        <time>2019-04-08T15:59:57Z</time>
      </trkpt>
      <trkpt lat="60.59104" lon="7.50563">
        <ele>1215.72</ele>
        <time>2019-04-08T16:00:13Z</time>
      </trkpt>
      <trkpt lat="60.59134" lon="7.50577">
        <ele>1213.32</ele>
        <time>2019-04-08T16:00:32Z</time>
      </trkpt>
      <trkpt lat="60.59155" lon="7.50582">
        <ele>1212.84</ele>
        <time>2019-04-08T16:00:48Z</time>
      </trkpt>
      <trkpt lat="60.59177" lon="7.50591">
        <ele>1212.36</ele>
        <time>2019-04-08T16:01:06Z</time>
      </trkpt>
      <trkpt lat="60.59196" lon="7.50601">
        <ele>1212.36</ele>
        <time>2019-04-08T16:01:22Z</time>
      </trkpt>
      <trkpt lat="60.59212" lon="7.50608">
        <ele>1212.36</ele>
        <time>2019-04-08T16:01:37Z</time>
      </trkpt>
      <trkpt lat="60.59216" lon="7.5061">
        <ele>1213.8</ele>
        <time>2019-04-08T16:01:41Z</time>
      </trkpt>
      <trkpt lat="60.59234" lon="7.50613">
        <ele>1214.28</ele>
        <time>2019-04-08T16:01:57Z</time>
      </trkpt>
      <trkpt lat="60.59253" lon="7.5062">
        <ele>1214.28</ele>
        <time>2019-04-08T16:02:13Z</time>
      </trkpt>
      <trkpt lat="60.59272" lon="7.50632">
        <ele>1214.28</ele>
        <time>2019-04-08T16:02:30Z</time>
      </trkpt>
      <trkpt lat="60.59287" lon="7.50637">
        <ele>1214.76</ele>
        <time>2019-04-08T16:02:44Z</time>
      </trkpt>
      <trkpt lat="60.59308" lon="7.50657">
        <ele>1211.4</ele>
        <time>2019-04-08T16:02:56Z</time>
      </trkpt>
      <trkpt lat="60.59321" lon="7.50663">
        <ele>1207.07</ele>
        <time>2019-04-08T16:02:59Z</time>
      </trkpt>
      <trkpt lat="60.59326" lon="7.50666">
        <ele>1207.07</ele>
        <time>2019-04-08T16:03:00Z</time>
      </trkpt>
      <trkpt lat="60.5934" lon="7.50674">
        <ele>1206.59</ele>
        <time>2019-04-08T16:03:10Z</time>
      </trkpt>
      <trkpt lat="60.5936" lon="7.5068">
        <ele>1206.59</ele>
        <time>2019-04-08T16:03:26Z</time>
      </trkpt>
      <trkpt lat="60.59377" lon="7.50688">
        <ele>1206.59</ele>
        <time>2019-04-08T16:03:42Z</time>
      </trkpt>
      <trkpt lat="60.59396" lon="7.50694">
        <ele>1206.59</ele>
        <time>2019-04-08T16:03:58Z</time>
      </trkpt>
      <trkpt lat="60.59416" lon="7.50702">
        <ele>1206.59</ele>
        <time>2019-04-08T16:04:15Z</time>
      </trkpt>
      <trkpt lat="60.59434" lon="7.50709">
        <ele>1206.59</ele>
        <time>2019-04-08T16:04:31Z</time>
      </trkpt>
      <trkpt lat="60.59451" lon="7.50716">
        <ele>1206.59</ele>
        <time>2019-04-08T16:04:46Z</time>
      </trkpt>
      <trkpt lat="60.59467" lon="7.50725">
        <ele>1206.59</ele>
        <time>2019-04-08T16:05:00Z</time>
      </trkpt>
      <trkpt lat="60.59486" lon="7.5073">
        <ele>1206.59</ele>
        <time>2019-04-08T16:05:17Z</time>
      </trkpt>
      <trkpt lat="60.59503" lon="7.50735">
        <ele>1206.59</ele>
        <time>2019-04-08T16:05:32Z</time>
      </trkpt>
      <trkpt lat="60.59522" lon="7.5074">
        <ele>1206.59</ele>
        <time>2019-04-08T16:05:49Z</time>
      </trkpt>
      <trkpt lat="60.59543" lon="7.50746">
        <ele>1206.59</ele>
        <time>2019-04-08T16:06:08Z</time>
      </trkpt>
      <trkpt lat="60.59562" lon="7.5075">
        <ele>1206.59</ele>
        <time>2019-04-08T16:06:24Z</time>
      </trkpt>
      <trkpt lat="60.5958" lon="7.50758">
        <ele>1207.07</ele>
        <time>2019-04-08T16:06:40Z</time>
      </trkpt>
      <trkpt lat="60.596" lon="7.50769">
        <ele>1207.07</ele>
        <time>2019-04-08T16:06:58Z</time>
      </trkpt>
      <trkpt lat="60.59619" lon="7.50773">
        <ele>1207.07</ele>
        <time>2019-04-08T16:07:14Z</time>
      </trkpt>
      <trkpt lat="60.59635" lon="7.50775">
        <ele>1207.07</ele>
        <time>2019-04-08T16:07:28Z</time>
      </trkpt>
      <trkpt lat="60.59653" lon="7.50778">
        <ele>1207.07</ele>
        <time>2019-04-08T16:07:44Z</time>
      </trkpt>
      <trkpt lat="60.59657" lon="7.50779">
        <ele>1208.51</ele>
        <time>2019-04-08T16:07:48Z</time>
      </trkpt>
      <trkpt lat="60.59672" lon="7.50784">
        <ele>1209.96</ele>
        <time>2019-04-08T16:08:03Z</time>
      </trkpt>
      <trkpt lat="60.59689" lon="7.50787">
        <ele>1210.92</ele>
        <time>2019-04-08T16:08:19Z</time>
      </trkpt>
      <trkpt lat="60.59705" lon="7.50786">
        <ele>1210.92</ele>
        <time>2019-04-08T16:08:34Z</time>
      </trkpt>
      <trkpt lat="60.59721" lon="7.50788">
        <ele>1211.4</ele>
        <time>2019-04-08T16:08:49Z</time>
      </trkpt>
      <trkpt lat="60.59733" lon="7.50789">
        <ele>1213.8</ele>
        <time>2019-04-08T16:09:04Z</time>
      </trkpt>
      <trkpt lat="60.59747" lon="7.50787">
        <ele>1215.72</ele>
        <time>2019-04-08T16:09:20Z</time>
      </trkpt>
      <trkpt lat="60.59756" lon="7.50785">
        <ele>1216.21</ele>
        <time>2019-04-08T16:09:28Z</time>
      </trkpt>
      <trkpt lat="60.59771" lon="7.5078">
        <ele>1217.17</ele>
        <time>2019-04-08T16:09:42Z</time>
      </trkpt>
      <trkpt lat="60.59784" lon="7.50782">
        <ele>1218.13</ele>
        <time>2019-04-08T16:09:56Z</time>
      </trkpt>
      <trkpt lat="60.59794" lon="7.50775">
        <ele>1218.61</ele>
        <time>2019-04-08T16:10:11Z</time>
      </trkpt>
      <trkpt lat="60.59797" lon="7.50771">
        <ele>1218.61</ele>
        <time>2019-04-08T16:10:14Z</time>
      </trkpt>
      <trkpt lat="60.59803" lon="7.50754">
        <ele>1219.57</ele>
        <time>2019-04-08T16:10:28Z</time>
      </trkpt>
      <trkpt lat="60.59804" lon="7.50753">
        <ele>1219.57</ele>
        <time>2019-04-08T16:10:45Z</time>
      </trkpt>
      <trkpt lat="60.59804" lon="7.50755">
        <ele>1209.48</ele>
        <time>2019-04-08T16:10:56Z</time>
      </trkpt>
      <trkpt lat="60.59803" lon="7.50751">
        <ele>1221.01</ele>
        <time>2019-04-08T16:10:58Z</time>
      </trkpt>
      <trkpt lat="60.59803" lon="7.50749">
        <ele>1225.82</ele>
        <time>2019-04-08T16:10:59Z</time>
      </trkpt>
      <trkpt lat="60.59802" lon="7.50747">
        <ele>1219.57</ele>
        <time>2019-04-08T16:11:00Z</time>
      </trkpt>
      <trkpt lat="60.59803" lon="7.50752">
        <ele>1220.05</ele>
        <time>2019-04-08T16:11:09Z</time>
      </trkpt>
      <trkpt lat="60.59803" lon="7.50754">
        <ele>1218.61</ele>
        <time>2019-04-08T16:11:15Z</time>
      </trkpt>
      <trkpt lat="60.59803" lon="7.50757">
        <ele>1218.13</ele>
        <time>2019-04-08T16:11:50Z</time>
      </trkpt>
      <trkpt lat="60.59804" lon="7.50759">
        <ele>1218.13</ele>
        <time>2019-04-08T16:12:25Z</time>
      </trkpt>
      <trkpt lat="60.59804" lon="7.50758">
        <ele>1218.61</ele>
        <time>2019-04-08T16:12:58Z</time>
      </trkpt>
      <trkpt lat="60.59804" lon="7.50758">
        <ele>1218.61</ele>
        <time>2019-04-08T16:13:33Z</time>
      </trkpt>
      <trkpt lat="60.59804" lon="7.50757">
        <ele>1218.61</ele>
        <time>2019-04-08T16:14:03Z</time>
      </trkpt>
      <trkpt lat="60.59804" lon="7.50758">
        <ele>1219.09</ele>
        <time>2019-04-08T16:14:41Z</time>
      </trkpt>
      <trkpt lat="60.59802" lon="7.50753">
        <ele>1219.09</ele>
        <time>2019-04-08T16:15:09Z</time>
      </trkpt>
      <trkpt lat="60.59802" lon="7.50749">
        <ele>1219.09</ele>
        <time>2019-04-08T16:15:11Z</time>
      </trkpt>
      <trkpt lat="60.59805" lon="7.50749">
        <ele>1218.61</ele>
        <time>2019-04-08T16:15:22Z</time>
      </trkpt>
      <trkpt lat="60.59807" lon="7.5075">
        <ele>1218.61</ele>
        <time>2019-04-08T16:15:54Z</time>
      </trkpt>
      <trkpt lat="60.59807" lon="7.50749">
        <ele>1220.05</ele>
        <time>2019-04-08T16:16:13Z</time>
      </trkpt>
      <trkpt lat="60.59807" lon="7.5075">
        <ele>1220.05</ele>
        <time>2019-04-08T16:16:46Z</time>
      </trkpt>
      <trkpt lat="60.59806" lon="7.50749">
        <ele>1220.53</ele>
        <time>2019-04-08T16:17:17Z</time>
      </trkpt>
      <trkpt lat="60.59805" lon="7.50748">
        <ele>1220.53</ele>
        <time>2019-04-08T16:18:01Z</time>
      </trkpt>
      <trkpt lat="60.59805" lon="7.5075">
        <ele>1220.53</ele>
        <time>2019-04-08T16:18:45Z</time>
      </trkpt>
      <trkpt lat="60.59805" lon="7.50748">
        <ele>1221.49</ele>
        <time>2019-04-08T16:18:55Z</time>
      </trkpt>
      <trkpt lat="60.59803" lon="7.50746">
        <ele>1221.49</ele>
        <time>2019-04-08T16:19:03Z</time>
      </trkpt>
      <trkpt lat="60.598" lon="7.5073">
        <ele>1221.97</ele>
        <time>2019-04-08T16:19:16Z</time>
      </trkpt>
      <trkpt lat="60.59802" lon="7.50729">
        <ele>1221.97</ele>
        <time>2019-04-08T16:19:35Z</time>
      </trkpt>
      <trkpt lat="60.59798" lon="7.50727">
        <ele>1221.97</ele>
        <time>2019-04-08T16:20:08Z</time>
      </trkpt>
      <trkpt lat="60.59798" lon="7.50724">
        <ele>1221.97</ele>
        <time>2019-04-08T16:20:34Z</time>
      </trkpt>
      <trkpt lat="60.598" lon="7.50726">
        <ele>1221.97</ele>
        <time>2019-04-08T16:21:00Z</time>
      </trkpt>
      <trkpt lat="60.59799" lon="7.50726">
        <ele>1222.45</ele>
        <time>2019-04-08T16:21:25Z</time>
      </trkpt>
      <trkpt lat="60.598" lon="7.50727">
        <ele>1222.45</ele>
        <time>2019-04-08T16:21:49Z</time>
      </trkpt>
      <trkpt lat="60.59798" lon="7.50726">
        <ele>1222.45</ele>
        <time>2019-04-08T16:22:11Z</time>
      </trkpt>
      <trkpt lat="60.59798" lon="7.50725">
        <ele>1222.45</ele>
        <time>2019-04-08T16:22:32Z</time>
      </trkpt>
      <trkpt lat="60.59798" lon="7.50723">
        <ele>1223.9</ele>
        <time>2019-04-08T16:22:34Z</time>
      </trkpt>
      <trkpt lat="60.59798" lon="7.5072">
        <ele>1222.93</ele>
        <time>2019-04-08T16:22:39Z</time>
      </trkpt>
      <trkpt lat="60.59796" lon="7.50719">
        <ele>1222.93</ele>
        <time>2019-04-08T16:22:53Z</time>
      </trkpt>
      <trkpt lat="60.59796" lon="7.50718">
        <ele>1222.93</ele>
        <time>2019-04-08T16:23:28Z</time>
      </trkpt>
      <trkpt lat="60.59794" lon="7.50721">
        <ele>1223.9</ele>
        <time>2019-04-08T16:23:40Z</time>
      </trkpt>
      <trkpt lat="60.59793" lon="7.50712">
        <ele>1222.93</ele>
        <time>2019-04-08T16:24:07Z</time>
      </trkpt>
      <trkpt lat="60.59795" lon="7.50726">
        <ele>1222.93</ele>
        <time>2019-04-08T16:24:42Z</time>
      </trkpt>
      <trkpt lat="60.59795" lon="7.50726">
        <ele>1224.38</ele>
        <time>2019-04-08T16:24:55Z</time>
      </trkpt>
    </trkseg>
  </trk>
  <trk>
    <name><![CDATA[AAA9-04-03 17:12:33]]></name>
    <trkseg>
      <trkpt lat="60.46187" lon="7.81639">
        <ele>1122.96</ele>
        <time>2019-04-03T09:32:28Z</time>
      </trkpt>
      <trkpt lat="60.46187" lon="7.81639">
        <ele>1122.96</ele>
        <time>2019-04-03T09:32:30Z</time>
      </trkpt>
      <trkpt lat="60.46187" lon="7.81639">
        <ele>1141.22</ele>
        <time>2019-04-03T09:32:36Z</time>
      </trkpt>
      <trkpt lat="60.46188" lon="7.81637">
        <ele>1140.74</ele>
        <time>2019-04-03T09:32:54Z</time>
      </trkpt>
      <trkpt lat="60.46188" lon="7.81637">
        <ele>1141.22</ele>
        <time>2019-04-03T09:33:14Z</time>
      </trkpt>
      <trkpt lat="60.46188" lon="7.81637">
        <ele>1137.86</ele>
        <time>2019-04-03T09:33:19Z</time>
      </trkpt>
      <trkpt lat="60.46188" lon="7.81638">
        <ele>1140.74</ele>
        <time>2019-04-03T09:33:20Z</time>
      </trkpt>
      <trkpt lat="60.46186" lon="7.81662">
        <ele>1140.74</ele>
        <time>2019-04-03T09:33:29Z</time>
      </trkpt>
      <trkpt lat="60.46182" lon="7.81703">
        <ele>1140.74</ele>
        <time>2019-04-03T09:33:45Z</time>
      </trkpt>
      <trkpt lat="60.46179" lon="7.81727">
        <ele>1140.74</ele>
        <time>2019-04-03T09:33:55Z</time>
      </trkpt>
      <trkpt lat="60.46178" lon="7.81737">
        <ele>1141.7</ele>
        <time>2019-04-03T09:34:00Z</time>
      </trkpt>
      <trkpt lat="60.46174" lon="7.81766">
        <ele>1142.66</ele>
        <time>2019-04-03T09:34:12Z</time>
      </trkpt>
      <trkpt lat="60.46172" lon="7.81785">
        <ele>1144.59</ele>
        <time>2019-04-03T09:34:22Z</time>
      </trkpt>
      <trkpt lat="60.4617" lon="7.81804">
        <ele>1145.07</ele>
        <time>2019-04-03T09:34:32Z</time>
      </trkpt>
      <trkpt lat="60.46169" lon="7.8182">
        <ele>1145.07</ele>
        <time>2019-04-03T09:34:41Z</time>
      </trkpt>
      <trkpt lat="60.46168" lon="7.81833">
        <ele>1145.07</ele>
        <time>2019-04-03T09:34:51Z</time>
      </trkpt>
      <trkpt lat="60.46168" lon="7.81835">
        <ele>1145.07</ele>
        <time>2019-04-03T09:35:03Z</time>
      </trkpt>
      <trkpt lat="60.46167" lon="7.81836">
        <ele>1145.07</ele>
        <time>2019-04-03T09:35:24Z</time>
      </trkpt>
      <trkpt lat="60.46165" lon="7.81842">
        <ele>1145.07</ele>
        <time>2019-04-03T09:35:33Z</time>
      </trkpt>
      <trkpt lat="60.46166" lon="7.81843">
        <ele>1145.07</ele>
        <time>2019-04-03T09:35:51Z</time>
      </trkpt>
      <trkpt lat="60.46165" lon="7.81842">
        <ele>1145.07</ele>
        <time>2019-04-03T09:36:20Z</time>
      </trkpt>
      <trkpt lat="60.46165" lon="7.81841">
        <ele>1145.07</ele>
        <time>2019-04-03T09:36:54Z</time>
      </trkpt>
      <trkpt lat="60.46166" lon="7.81843">
        <ele>1145.07</ele>
        <time>2019-04-03T09:37:12Z</time>
      </trkpt>
      <trkpt lat="60.46167" lon="7.81844">
        <ele>1145.55</ele>
        <time>2019-04-03T09:37:34Z</time>
      </trkpt>
      <trkpt lat="60.46167" lon="7.81843">
        <ele>1145.55</ele>
        <time>2019-04-03T09:37:53Z</time>
      </trkpt>
      <trkpt lat="60.46166" lon="7.81844">
        <ele>1145.55</ele>
        <time>2019-04-03T09:38:11Z</time>
      </trkpt>
      <trkpt lat="60.46166" lon="7.81845">
        <ele>1146.03</ele>
        <time>2019-04-03T09:38:30Z</time>
      </trkpt>
      <trkpt lat="60.46164" lon="7.81846">
        <ele>1144.59</ele>
        <time>2019-04-03T09:38:32Z</time>
      </trkpt>
      <trkpt lat="60.46152" lon="7.81855">
        <ele>1144.11</ele>
        <time>2019-04-03T09:38:43Z</time>
      </trkpt>
      <trkpt lat="60.4614" lon="7.81865">
        <ele>1144.59</ele>
        <time>2019-04-03T09:38:53Z</time>
      </trkpt>
      <trkpt lat="60.46129" lon="7.81874">
        <ele>1144.59</ele>
        <time>2019-04-03T09:39:03Z</time>
      </trkpt>
      <trkpt lat="60.46117" lon="7.81885">
        <ele>1143.63</ele>
        <time>2019-04-03T09:39:15Z</time>
      </trkpt>
      <trkpt lat="60.46104" lon="7.81894">
        <ele>1142.18</ele>
        <time>2019-04-03T09:39:26Z</time>
      </trkpt>
      <trkpt lat="60.46095" lon="7.819">
        <ele>1142.18</ele>
        <time>2019-04-03T09:39:36Z</time>
      </trkpt>
      <trkpt lat="60.46085" lon="7.81906">
        <ele>1143.63</ele>
        <time>2019-04-03T09:39:48Z</time>
      </trkpt>
      <trkpt lat="60.46077" lon="7.81918">
        <ele>1143.63</ele>
        <time>2019-04-03T09:39:59Z</time>
      </trkpt>
      <trkpt lat="60.46074" lon="7.81921">
        <ele>1142.18</ele>
        <time>2019-04-03T09:40:02Z</time>
      </trkpt>
      <trkpt lat="60.46062" lon="7.81937">
        <ele>1142.18</ele>
        <time>2019-04-03T09:40:15Z</time>
      </trkpt>
      <trkpt lat="60.46049" lon="7.81957">
        <ele>1141.7</ele>
        <time>2019-04-03T09:40:27Z</time>
      </trkpt>
      <trkpt lat="60.46039" lon="7.81974">
        <ele>1141.22</ele>
        <time>2019-04-03T09:40:39Z</time>
      </trkpt>
      <trkpt lat="60.46028" lon="7.81989">
        <ele>1141.22</ele>
        <time>2019-04-03T09:40:51Z</time>
      </trkpt>
      <trkpt lat="60.46017" lon="7.82009">
        <ele>1141.22</ele>
        <time>2019-04-03T09:41:03Z</time>
      </trkpt>
      <trkpt lat="60.46007" lon="7.82023">
        <ele>1139.78</ele>
        <time>2019-04-03T09:41:13Z</time>
      </trkpt>
      <trkpt lat="60.45994" lon="7.82029">
        <ele>1140.26</ele>
        <time>2019-04-03T09:41:25Z</time>
      </trkpt>
      <trkpt lat="60.45981" lon="7.82033">
        <ele>1139.78</ele>
        <time>2019-04-03T09:41:37Z</time>
      </trkpt>
      <trkpt lat="60.45971" lon="7.82039">
        <ele>1139.78</ele>
        <time>2019-04-03T09:41:48Z</time>
      </trkpt>
      <trkpt lat="60.45962" lon="7.82046">
        <ele>1140.74</ele>
        <time>2019-04-03T09:41:58Z</time>
      </trkpt>
      <trkpt lat="60.45951" lon="7.8206">
        <ele>1141.22</ele>
        <time>2019-04-03T09:42:11Z</time>
      </trkpt>
      <trkpt lat="60.45939" lon="7.82076">
        <ele>1140.26</ele>
        <time>2019-04-03T09:42:23Z</time>
      </trkpt>
      <trkpt lat="60.45929" lon="7.82091">
        <ele>1140.26</ele>
        <time>2019-04-03T09:42:34Z</time>
      </trkpt>
      <trkpt lat="60.45919" lon="7.82103">
        <ele>1138.82</ele>
        <time>2019-04-03T09:42:44Z</time>
      </trkpt>
      <trkpt lat="60.45906" lon="7.82116">
        <ele>1138.82</ele>
        <time>2019-04-03T09:42:57Z</time>
      </trkpt>
      <trkpt lat="60.45897" lon="7.82127">
        <ele>1137.86</ele>
        <time>2019-04-03T09:43:07Z</time>
      </trkpt>
      <trkpt lat="60.45896" lon="7.82128">
        <ele>1137.86</ele>
        <time>2019-04-03T09:43:08Z</time>
      </trkpt>
      <trkpt lat="60.4589" lon="7.82132">
        <ele>1137.86</ele>
        <time>2019-04-03T09:43:19Z</time>
      </trkpt>
      <trkpt lat="60.45887" lon="7.82133">
        <ele>1136.9</ele>
        <time>2019-04-03T09:43:36Z</time>
      </trkpt>
      <trkpt lat="60.45883" lon="7.82135">
        <ele>1136.9</ele>
        <time>2019-04-03T09:43:40Z</time>
      </trkpt>
      <trkpt lat="60.45873" lon="7.82141">
        <ele>1136.9</ele>
        <time>2019-04-03T09:43:51Z</time>
      </trkpt>
      <trkpt lat="60.45863" lon="7.82145">
        <ele>1136.9</ele>
        <time>2019-04-03T09:44:03Z</time>
      </trkpt>
      <trkpt lat="60.45853" lon="7.82148">
        <ele>1136.9</ele>
        <time>2019-04-03T09:44:14Z</time>
      </trkpt>
      <trkpt lat="60.45842" lon="7.8215">
        <ele>1136.9</ele>
        <time>2019-04-03T09:44:25Z</time>
      </trkpt>
      <trkpt lat="60.45833" lon="7.82151">
        <ele>1136.9</ele>
        <time>2019-04-03T09:44:37Z</time>
      </trkpt>
      <trkpt lat="60.45823" lon="7.82152">
        <ele>1136.9</ele>
        <time>2019-04-03T09:44:48Z</time>
      </trkpt>
      <trkpt lat="60.4581" lon="7.82156">
        <ele>1136.9</ele>
        <time>2019-04-03T09:45:01Z</time>
      </trkpt>
      <trkpt lat="60.45806" lon="7.82155">
        <ele>1136.42</ele>
        <time>2019-04-03T09:45:05Z</time>
      </trkpt>
      <trkpt lat="60.45801" lon="7.82156">
        <ele>1136.9</ele>
        <time>2019-04-03T09:45:10Z</time>
      </trkpt>
      <trkpt lat="60.45793" lon="7.82152">
        <ele>1136.9</ele>
        <time>2019-04-03T09:45:20Z</time>
      </trkpt>
      <trkpt lat="60.45783" lon="7.82154">
        <ele>1136.9</ele>
        <time>2019-04-03T09:45:34Z</time>
      </trkpt>
      <trkpt lat="60.45774" lon="7.82155">
        <ele>1136.9</ele>
        <time>2019-04-03T09:45:46Z</time>
      </trkpt>
      <trkpt lat="60.45765" lon="7.82155">
        <ele>1136.9</ele>
        <time>2019-04-03T09:45:55Z</time>
      </trkpt>
      <trkpt lat="60.45762" lon="7.82156">
        <ele>1136.9</ele>
        <time>2019-04-03T09:45:59Z</time>
      </trkpt>
      <trkpt lat="60.45753" lon="7.82157">
        <ele>1136.9</ele>
        <time>2019-04-03T09:46:09Z</time>
      </trkpt>
      <trkpt lat="60.45743" lon="7.82158">
        <ele>1136.9</ele>
        <time>2019-04-03T09:46:20Z</time>
      </trkpt>
      <trkpt lat="60.45736" lon="7.82158">
        <ele>1136.42</ele>
        <time>2019-04-03T09:46:31Z</time>
      </trkpt>
      <trkpt lat="60.45732" lon="7.82158">
        <ele>1136.42</ele>
        <time>2019-04-03T09:46:57Z</time>
      </trkpt>
      <trkpt lat="60.4572" lon="7.82157">
        <ele>1136.42</ele>
        <time>2019-04-03T09:47:09Z</time>
      </trkpt>
      <trkpt lat="60.45709" lon="7.82159">
        <ele>1136.42</ele>
        <time>2019-04-03T09:47:20Z</time>
      </trkpt>
      <trkpt lat="60.45697" lon="7.82163">
        <ele>1136.42</ele>
        <time>2019-04-03T09:47:32Z</time>
      </trkpt>
      <trkpt lat="60.45688" lon="7.82163">
        <ele>1136.42</ele>
        <time>2019-04-03T09:47:42Z</time>
      </trkpt>
      <trkpt lat="60.45679" lon="7.82163">
        <ele>1136.42</ele>
        <time>2019-04-03T09:47:51Z</time>
      </trkpt>
      <trkpt lat="60.45678" lon="7.82163">
        <ele>1136.42</ele>
        <time>2019-04-03T09:47:52Z</time>
      </trkpt>
      <trkpt lat="60.45669" lon="7.82164">
        <ele>1136.42</ele>
        <time>2019-04-03T09:48:03Z</time>
      </trkpt>
      <trkpt lat="60.45661" lon="7.82166">
        <ele>1136.42</ele>
        <time>2019-04-03T09:48:13Z</time>
      </trkpt>
      <trkpt lat="60.45653" lon="7.82166">
        <ele>1136.42</ele>
        <time>2019-04-03T09:48:21Z</time>
      </trkpt>
      <trkpt lat="60.45649" lon="7.82168">
        <ele>1136.42</ele>
        <time>2019-04-03T09:48:26Z</time>
      </trkpt>
      <trkpt lat="60.45638" lon="7.82169">
        <ele>1136.9</ele>
        <time>2019-04-03T09:48:37Z</time>
      </trkpt>
      <trkpt lat="60.45625" lon="7.8217">
        <ele>1136.9</ele>
        <time>2019-04-03T09:48:48Z</time>
      </trkpt>
      <trkpt lat="60.45613" lon="7.82171">
        <ele>1136.9</ele>
        <time>2019-04-03T09:49:00Z</time>
      </trkpt>
      <trkpt lat="60.45608" lon="7.8217">
        <ele>1136.9</ele>
        <time>2019-04-03T09:49:12Z</time>
      </trkpt>
      <trkpt lat="60.45598" lon="7.82169">
        <ele>1136.9</ele>
        <time>2019-04-03T09:49:22Z</time>
      </trkpt>
      <trkpt lat="60.45586" lon="7.8217">
        <ele>1137.38</ele>
        <time>2019-04-03T09:49:33Z</time>
      </trkpt>
      <trkpt lat="60.4558" lon="7.8217">
        <ele>1137.38</ele>
        <time>2019-04-03T09:49:42Z</time>
      </trkpt>
      <trkpt lat="60.45569" lon="7.82171">
        <ele>1136.42</ele>
        <time>2019-04-03T09:49:54Z</time>
      </trkpt>
      <trkpt lat="60.45556" lon="7.82171">
        <ele>1136.42</ele>
        <time>2019-04-03T09:50:06Z</time>
      </trkpt>
      <trkpt lat="60.45544" lon="7.82172">
        <ele>1137.38</ele>
        <time>2019-04-03T09:50:18Z</time>
      </trkpt>
      <trkpt lat="60.45534" lon="7.82173">
        <ele>1137.38</ele>
        <time>2019-04-03T09:50:29Z</time>
      </trkpt>
      <trkpt lat="60.45522" lon="7.82177">
        <ele>1136.42</ele>
        <time>2019-04-03T09:50:40Z</time>
      </trkpt>
      <trkpt lat="60.4551" lon="7.82182">
        <ele>1136.42</ele>
        <time>2019-04-03T09:50:52Z</time>
      </trkpt>
      <trkpt lat="60.455" lon="7.82185">
        <ele>1136.42</ele>
        <time>2019-04-03T09:51:03Z</time>
      </trkpt>
      <trkpt lat="60.45494" lon="7.82187">
        <ele>1136.42</ele>
        <time>2019-04-03T09:51:13Z</time>
      </trkpt>
      <trkpt lat="60.45486" lon="7.82191">
        <ele>1136.42</ele>
        <time>2019-04-03T09:51:23Z</time>
      </trkpt>
      <trkpt lat="60.45478" lon="7.82199">
        <ele>1137.38</ele>
        <time>2019-04-03T09:51:37Z</time>
      </trkpt>
      <trkpt lat="60.45471" lon="7.82202">
        <ele>1138.34</ele>
        <time>2019-04-03T09:51:47Z</time>
      </trkpt>
      <trkpt lat="60.45461" lon="7.8221">
        <ele>1139.78</ele>
        <time>2019-04-03T09:51:58Z</time>
      </trkpt>
      <trkpt lat="60.45452" lon="7.82212">
        <ele>1139.78</ele>
        <time>2019-04-03T09:52:09Z</time>
      </trkpt>
      <trkpt lat="60.45444" lon="7.82209">
        <ele>1139.78</ele>
        <time>2019-04-03T09:52:20Z</time>
      </trkpt>
      <trkpt lat="60.45434" lon="7.82213">
        <ele>1139.78</ele>
        <time>2019-04-03T09:52:32Z</time>
      </trkpt>
      <trkpt lat="60.45424" lon="7.82221">
        <ele>1139.78</ele>
        <time>2019-04-03T09:52:44Z</time>
      </trkpt>
      <trkpt lat="60.45412" lon="7.82226">
        <ele>1139.78</ele>
        <time>2019-04-03T09:52:55Z</time>
      </trkpt>
      <trkpt lat="60.45404" lon="7.82225">
        <ele>1139.78</ele>
        <time>2019-04-03T09:53:05Z</time>
      </trkpt>
      <trkpt lat="60.45396" lon="7.82229">
        <ele>1139.78</ele>
        <time>2019-04-03T09:53:15Z</time>
      </trkpt>
      <trkpt lat="60.45385" lon="7.82235">
        <ele>1139.78</ele>
        <time>2019-04-03T09:53:27Z</time>
      </trkpt>
      <trkpt lat="60.45376" lon="7.8224">
        <ele>1139.78</ele>
        <time>2019-04-03T09:53:38Z</time>
      </trkpt>
      <trkpt lat="60.45366" lon="7.82246">
        <ele>1139.78</ele>
        <time>2019-04-03T09:53:49Z</time>
      </trkpt>
      <trkpt lat="60.45356" lon="7.82248">
        <ele>1139.78</ele>
        <time>2019-04-03T09:54:01Z</time>
      </trkpt>
      <trkpt lat="60.45348" lon="7.82251">
        <ele>1139.78</ele>
        <time>2019-04-03T09:54:11Z</time>
      </trkpt>
      <trkpt lat="60.45337" lon="7.82253">
        <ele>1140.26</ele>
        <time>2019-04-03T09:54:22Z</time>
      </trkpt>
      <trkpt lat="60.45327" lon="7.82254">
        <ele>1140.26</ele>
        <time>2019-04-03T09:54:33Z</time>
      </trkpt>
      <trkpt lat="60.45315" lon="7.82254">
        <ele>1140.26</ele>
        <time>2019-04-03T09:54:44Z</time>
      </trkpt>
      <trkpt lat="60.45303" lon="7.82252">
        <ele>1140.26</ele>
        <time>2019-04-03T09:54:55Z</time>
      </trkpt>
      <trkpt lat="60.45292" lon="7.82253">
        <ele>1140.26</ele>
        <time>2019-04-03T09:55:07Z</time>
      </trkpt>
      <trkpt lat="60.4528" lon="7.82254">
        <ele>1141.22</ele>
        <time>2019-04-03T09:55:19Z</time>
      </trkpt>
      <trkpt lat="60.45271" lon="7.82256">
        <ele>1141.7</ele>
        <time>2019-04-03T09:55:30Z</time>
      </trkpt>
      <trkpt lat="60.45263" lon="7.82258">
        <ele>1142.18</ele>
        <time>2019-04-03T09:55:41Z</time>
      </trkpt>
      <trkpt lat="60.45254" lon="7.8226">
        <ele>1142.18</ele>
        <time>2019-04-03T09:55:51Z</time>
      </trkpt>
      <trkpt lat="60.45244" lon="7.82263">
        <ele>1143.14</ele>
        <time>2019-04-03T09:56:02Z</time>
      </trkpt>
      <trkpt lat="60.45235" lon="7.82266">
        <ele>1143.14</ele>
        <time>2019-04-03T09:56:13Z</time>
      </trkpt>
      <trkpt lat="60.45222" lon="7.82273">
        <ele>1143.63</ele>
        <time>2019-04-03T09:56:27Z</time>
      </trkpt>
      <trkpt lat="60.45211" lon="7.82277">
        <ele>1143.63</ele>
        <time>2019-04-03T09:56:38Z</time>
      </trkpt>
      <trkpt lat="60.45201" lon="7.82283">
        <ele>1142.18</ele>
        <time>2019-04-03T09:56:49Z</time>
      </trkpt>
      <trkpt lat="60.45191" lon="7.82287">
        <ele>1142.18</ele>
        <time>2019-04-03T09:57:00Z</time>
      </trkpt>
      <trkpt lat="60.45177" lon="7.82295">
        <ele>1141.22</ele>
        <time>2019-04-03T09:57:13Z</time>
      </trkpt>
      <trkpt lat="60.45165" lon="7.82304">
        <ele>1139.78</ele>
        <time>2019-04-03T09:57:24Z</time>
      </trkpt>
      <trkpt lat="60.45155" lon="7.82309">
        <ele>1138.82</ele>
        <time>2019-04-03T09:57:36Z</time>
      </trkpt>
      <trkpt lat="60.45147" lon="7.82315">
        <ele>1138.82</ele>
        <time>2019-04-03T09:57:47Z</time>
      </trkpt>
      <trkpt lat="60.45142" lon="7.82316">
        <ele>1140.26</ele>
        <time>2019-04-03T09:57:52Z</time>
      </trkpt>
      <trkpt lat="60.45132" lon="7.82318">
        <ele>1140.26</ele>
        <time>2019-04-03T09:58:04Z</time>
      </trkpt>
      <trkpt lat="60.45121" lon="7.82317">
        <ele>1140.26</ele>
        <time>2019-04-03T09:58:15Z</time>
      </trkpt>
      <trkpt lat="60.45111" lon="7.8232">
        <ele>1140.26</ele>
        <time>2019-04-03T09:58:26Z</time>
      </trkpt>
      <trkpt lat="60.45101" lon="7.82321">
        <ele>1140.26</ele>
        <time>2019-04-03T09:58:37Z</time>
      </trkpt>
      <trkpt lat="60.45094" lon="7.82323">
        <ele>1140.74</ele>
        <time>2019-04-03T09:58:48Z</time>
      </trkpt>
      <trkpt lat="60.45087" lon="7.82324">
        <ele>1141.7</ele>
        <time>2019-04-03T09:58:59Z</time>
      </trkpt>
      <trkpt lat="60.45079" lon="7.82327">
        <ele>1142.66</ele>
        <time>2019-04-03T09:59:11Z</time>
      </trkpt>
      <trkpt lat="60.45071" lon="7.82329">
        <ele>1143.14</ele>
        <time>2019-04-03T09:59:21Z</time>
      </trkpt>
      <trkpt lat="60.45063" lon="7.82332">
        <ele>1143.14</ele>
        <time>2019-04-03T09:59:31Z</time>
      </trkpt>
      <trkpt lat="60.45053" lon="7.82335">
        <ele>1143.63</ele>
        <time>2019-04-03T09:59:43Z</time>
      </trkpt>
      <trkpt lat="60.45044" lon="7.82337">
        <ele>1144.11</ele>
        <time>2019-04-03T09:59:55Z</time>
      </trkpt>
      <trkpt lat="60.45033" lon="7.8234">
        <ele>1144.11</ele>
        <time>2019-04-03T10:00:08Z</time>
      </trkpt>
      <trkpt lat="60.45021" lon="7.82346">
        <ele>1144.11</ele>
        <time>2019-04-03T10:00:19Z</time>
      </trkpt>
      <trkpt lat="60.4501" lon="7.8235">
        <ele>1143.14</ele>
        <time>2019-04-03T10:00:31Z</time>
      </trkpt>
      <trkpt lat="60.45" lon="7.82353">
        <ele>1143.14</ele>
        <time>2019-04-03T10:00:42Z</time>
      </trkpt>
      <trkpt lat="60.44991" lon="7.82356">
        <ele>1143.14</ele>
        <time>2019-04-03T10:00:53Z</time>
      </trkpt>
      <trkpt lat="60.44986" lon="7.82357">
        <ele>1143.14</ele>
        <time>2019-04-03T10:00:59Z</time>
      </trkpt>
      <trkpt lat="60.44983" lon="7.82357">
        <ele>1143.14</ele>
        <time>2019-04-03T10:01:02Z</time>
      </trkpt>
      <trkpt lat="60.44972" lon="7.8236">
        <ele>1143.14</ele>
        <time>2019-04-03T10:01:13Z</time>
      </trkpt>
      <trkpt lat="60.44971" lon="7.8236">
        <ele>1143.14</ele>
        <time>2019-04-03T10:01:27Z</time>
      </trkpt>
      <trkpt lat="60.4497" lon="7.8236">
        <ele>1143.14</ele>
        <time>2019-04-03T10:01:45Z</time>
      </trkpt>
      <trkpt lat="60.44961" lon="7.82359">
        <ele>1143.14</ele>
        <time>2019-04-03T10:01:56Z</time>
      </trkpt>
      <trkpt lat="60.4496" lon="7.82357">
        <ele>1143.14</ele>
        <time>2019-04-03T10:02:12Z</time>
      </trkpt>
      <trkpt lat="60.4496" lon="7.82357">
        <ele>1144.59</ele>
        <time>2019-04-03T10:02:35Z</time>
      </trkpt>
      <trkpt lat="60.44961" lon="7.82356">
        <ele>1144.59</ele>
        <time>2019-04-03T10:03:02Z</time>
      </trkpt>
      <trkpt lat="60.4496" lon="7.82357">
        <ele>1144.59</ele>
        <time>2019-04-03T10:03:28Z</time>
      </trkpt>
      <trkpt lat="60.44958" lon="7.82353">
        <ele>1144.59</ele>
        <time>2019-04-03T10:03:39Z</time>
      </trkpt>
      <trkpt lat="60.44951" lon="7.82349">
        <ele>1145.07</ele>
        <time>2019-04-03T10:03:49Z</time>
      </trkpt>
      <trkpt lat="60.4494" lon="7.82344">
        <ele>1145.55</ele>
        <time>2019-04-03T10:04:01Z</time>
      </trkpt>
      <trkpt lat="60.44929" lon="7.82337">
        <ele>1146.03</ele>
        <time>2019-04-03T10:04:13Z</time>
      </trkpt>
      <trkpt lat="60.44919" lon="7.82334">
        <ele>1146.03</ele>
        <time>2019-04-03T10:04:24Z</time>
      </trkpt>
      <trkpt lat="60.44908" lon="7.82329">
        <ele>1146.03</ele>
        <time>2019-04-03T10:04:35Z</time>
      </trkpt>
      <trkpt lat="60.44896" lon="7.82323">
        <ele>1146.03</ele>
        <time>2019-04-03T10:04:48Z</time>
      </trkpt>
      <trkpt lat="60.44893" lon="7.82319">
        <ele>1146.03</ele>
        <time>2019-04-03T10:04:58Z</time>
      </trkpt>
      <trkpt lat="60.44893" lon="7.82318">
        <ele>1146.03</ele>
        <time>2019-04-03T10:05:18Z</time>
      </trkpt>
      <trkpt lat="60.44888" lon="7.8232">
        <ele>1146.03</ele>
        <time>2019-04-03T10:05:33Z</time>
      </trkpt>
      <trkpt lat="60.44877" lon="7.82316">
        <ele>1146.51</ele>
        <time>2019-04-03T10:05:44Z</time>
      </trkpt>
      <trkpt lat="60.44866" lon="7.82311">
        <ele>1146.51</ele>
        <time>2019-04-03T10:05:55Z</time>
      </trkpt>
      <trkpt lat="60.44855" lon="7.82308">
        <ele>1146.51</ele>
        <time>2019-04-03T10:06:06Z</time>
      </trkpt>
      <trkpt lat="60.44845" lon="7.823">
        <ele>1145.55</ele>
        <time>2019-04-03T10:06:17Z</time>
      </trkpt>
      <trkpt lat="60.44831" lon="7.8229">
        <ele>1145.07</ele>
        <time>2019-04-03T10:06:29Z</time>
      </trkpt>
      <trkpt lat="60.44819" lon="7.82284">
        <ele>1145.07</ele>
        <time>2019-04-03T10:06:39Z</time>
      </trkpt>
      <trkpt lat="60.44805" lon="7.82277">
        <ele>1143.14</ele>
        <time>2019-04-03T10:06:49Z</time>
      </trkpt>
      <trkpt lat="60.4479" lon="7.8227">
        <ele>1142.18</ele>
        <time>2019-04-03T10:07:01Z</time>
      </trkpt>
      <trkpt lat="60.44779" lon="7.82265">
        <ele>1141.7</ele>
        <time>2019-04-03T10:07:11Z</time>
      </trkpt>
      <trkpt lat="60.44763" lon="7.82259">
        <ele>1140.74</ele>
        <time>2019-04-03T10:07:23Z</time>
      </trkpt>
      <trkpt lat="60.44751" lon="7.82258">
        <ele>1140.74</ele>
        <time>2019-04-03T10:07:35Z</time>
      </trkpt>
      <trkpt lat="60.44746" lon="7.82256">
        <ele>1140.74</ele>
        <time>2019-04-03T10:07:40Z</time>
      </trkpt>
      <trkpt lat="60.44736" lon="7.82248">
        <ele>1140.74</ele>
        <time>2019-04-03T10:07:51Z</time>
      </trkpt>
      <trkpt lat="60.44724" lon="7.82243">
        <ele>1140.74</ele>
        <time>2019-04-03T10:08:04Z</time>
      </trkpt>
      <trkpt lat="60.44714" lon="7.82238">
        <ele>1140.74</ele>
        <time>2019-04-03T10:08:15Z</time>
      </trkpt>
      <trkpt lat="60.44709" lon="7.82233">
        <ele>1140.74</ele>
        <time>2019-04-03T10:08:25Z</time>
      </trkpt>
      <trkpt lat="60.447" lon="7.82227">
        <ele>1140.74</ele>
        <time>2019-04-03T10:08:36Z</time>
      </trkpt>
      <trkpt lat="60.44692" lon="7.82216">
        <ele>1140.74</ele>
        <time>2019-04-03T10:08:46Z</time>
      </trkpt>
      <trkpt lat="60.44681" lon="7.82211">
        <ele>1140.74</ele>
        <time>2019-04-03T10:08:58Z</time>
      </trkpt>
      <trkpt lat="60.4467" lon="7.82206">
        <ele>1140.26</ele>
        <time>2019-04-03T10:09:09Z</time>
      </trkpt>
      <trkpt lat="60.44653" lon="7.82201">
        <ele>1138.82</ele>
        <time>2019-04-03T10:09:21Z</time>
      </trkpt>
      <trkpt lat="60.44641" lon="7.82197">
        <ele>1138.34</ele>
        <time>2019-04-03T10:09:32Z</time>
      </trkpt>
      <trkpt lat="60.44631" lon="7.82191">
        <ele>1138.82</ele>
        <time>2019-04-03T10:09:43Z</time>
      </trkpt>
      <trkpt lat="60.44626" lon="7.82189">
        <ele>1138.82</ele>
        <time>2019-04-03T10:09:53Z</time>
      </trkpt>
      <trkpt lat="60.44621" lon="7.82186">
        <ele>1138.82</ele>
        <time>2019-04-03T10:10:05Z</time>
      </trkpt>
      <trkpt lat="60.44612" lon="7.82182">
        <ele>1138.82</ele>
        <time>2019-04-03T10:10:15Z</time>
      </trkpt>
      <trkpt lat="60.44601" lon="7.82176">
        <ele>1138.34</ele>
        <time>2019-04-03T10:10:28Z</time>
      </trkpt>
      <trkpt lat="60.44592" lon="7.82168">
        <ele>1138.82</ele>
        <time>2019-04-03T10:10:38Z</time>
      </trkpt>
      <trkpt lat="60.44586" lon="7.82163">
        <ele>1138.82</ele>
        <time>2019-04-03T10:10:46Z</time>
      </trkpt>
      <trkpt lat="60.44573" lon="7.82157">
        <ele>1138.82</ele>
        <time>2019-04-03T10:10:59Z</time>
      </trkpt>
      <trkpt lat="60.44566" lon="7.82152">
        <ele>1138.82</ele>
        <time>2019-04-03T10:11:09Z</time>
      </trkpt>
      <trkpt lat="60.44558" lon="7.82146">
        <ele>1139.78</ele>
        <time>2019-04-03T10:11:19Z</time>
      </trkpt>
      <trkpt lat="60.44551" lon="7.8214">
        <ele>1140.26</ele>
        <time>2019-04-03T10:11:29Z</time>
      </trkpt>
      <trkpt lat="60.44548" lon="7.8214">
        <ele>1140.26</ele>
        <time>2019-04-03T10:11:33Z</time>
      </trkpt>
      <trkpt lat="60.44543" lon="7.82141">
        <ele>1140.26</ele>
        <time>2019-04-03T10:11:38Z</time>
      </trkpt>
      <trkpt lat="60.44532" lon="7.82138">
        <ele>1141.22</ele>
        <time>2019-04-03T10:11:50Z</time>
      </trkpt>
      <trkpt lat="60.44523" lon="7.82134">
        <ele>1141.22</ele>
        <time>2019-04-03T10:12:02Z</time>
      </trkpt>
      <trkpt lat="60.44514" lon="7.82131">
        <ele>1141.7</ele>
        <time>2019-04-03T10:12:12Z</time>
      </trkpt>
      <trkpt lat="60.44505" lon="7.82128">
        <ele>1142.18</ele>
        <time>2019-04-03T10:12:23Z</time>
      </trkpt>
      <trkpt lat="60.44496" lon="7.82126">
        <ele>1142.66</ele>
        <time>2019-04-03T10:12:34Z</time>
      </trkpt>
      <trkpt lat="60.44488" lon="7.82122">
        <ele>1144.11</ele>
        <time>2019-04-03T10:12:44Z</time>
      </trkpt>
      <trkpt lat="60.44481" lon="7.82119">
        <ele>1144.11</ele>
        <time>2019-04-03T10:12:54Z</time>
      </trkpt>
      <trkpt lat="60.44473" lon="7.82114">
        <ele>1144.59</ele>
        <time>2019-04-03T10:13:05Z</time>
      </trkpt>
      <trkpt lat="60.44466" lon="7.8211">
        <ele>1144.59</ele>
        <time>2019-04-03T10:13:16Z</time>
      </trkpt>
      <trkpt lat="60.44458" lon="7.82105">
        <ele>1145.07</ele>
        <time>2019-04-03T10:13:27Z</time>
      </trkpt>
      <trkpt lat="60.44449" lon="7.82097">
        <ele>1145.55</ele>
        <time>2019-04-03T10:13:39Z</time>
      </trkpt>
      <trkpt lat="60.44439" lon="7.82085">
        <ele>1145.55</ele>
        <time>2019-04-03T10:13:51Z</time>
      </trkpt>
      <trkpt lat="60.44432" lon="7.82076">
        <ele>1145.55</ele>
        <time>2019-04-03T10:14:02Z</time>
      </trkpt>
      <trkpt lat="60.44427" lon="7.82071">
        <ele>1146.99</ele>
        <time>2019-04-03T10:14:08Z</time>
      </trkpt>
      <trkpt lat="60.44419" lon="7.82065">
        <ele>1146.99</ele>
        <time>2019-04-03T10:14:19Z</time>
      </trkpt>
      <trkpt lat="60.44414" lon="7.82061">
        <ele>1146.99</ele>
        <time>2019-04-03T10:14:25Z</time>
      </trkpt>
      <trkpt lat="60.44403" lon="7.82053">
        <ele>1146.99</ele>
        <time>2019-04-03T10:14:39Z</time>
      </trkpt>
      <trkpt lat="60.44395" lon="7.82046">
        <ele>1147.47</ele>
        <time>2019-04-03T10:14:50Z</time>
      </trkpt>
      <trkpt lat="60.44385" lon="7.82039">
        <ele>1147.47</ele>
        <time>2019-04-03T10:15:02Z</time>
      </trkpt>
      <trkpt lat="60.44375" lon="7.82031">
        <ele>1147.47</ele>
        <time>2019-04-03T10:15:13Z</time>
      </trkpt>
      <trkpt lat="60.44367" lon="7.82018">
        <ele>1147.47</ele>
        <time>2019-04-03T10:15:25Z</time>
      </trkpt>
      <trkpt lat="60.44359" lon="7.82012">
        <ele>1147.47</ele>
        <time>2019-04-03T10:15:35Z</time>
      </trkpt>
      <trkpt lat="60.4435" lon="7.82008">
        <ele>1147.95</ele>
        <time>2019-04-03T10:15:46Z</time>
      </trkpt>
      <trkpt lat="60.44342" lon="7.82003">
        <ele>1147.95</ele>
        <time>2019-04-03T10:15:57Z</time>
      </trkpt>
      <trkpt lat="60.44335" lon="7.81997">
        <ele>1148.43</ele>
        <time>2019-04-03T10:16:07Z</time>
      </trkpt>
      <trkpt lat="60.44327" lon="7.81991">
        <ele>1148.91</ele>
        <time>2019-04-03T10:16:18Z</time>
      </trkpt>
      <trkpt lat="60.44319" lon="7.81987">
        <ele>1149.39</ele>
        <time>2019-04-03T10:16:29Z</time>
      </trkpt>
      <trkpt lat="60.4431" lon="7.81978">
        <ele>1150.35</ele>
        <time>2019-04-03T10:16:41Z</time>
      </trkpt>
      <trkpt lat="60.44303" lon="7.81972">
        <ele>1151.32</ele>
        <time>2019-04-03T10:16:52Z</time>
      </trkpt>
      <trkpt lat="60.44294" lon="7.81966">
        <ele>1151.8</ele>
        <time>2019-04-03T10:17:05Z</time>
      </trkpt>
      <trkpt lat="60.44286" lon="7.81961">
        <ele>1152.28</ele>
        <time>2019-04-03T10:17:16Z</time>
      </trkpt>
      <trkpt lat="60.44275" lon="7.81955">
        <ele>1152.28</ele>
        <time>2019-04-03T10:17:28Z</time>
      </trkpt>
      <trkpt lat="60.44266" lon="7.81947">
        <ele>1152.28</ele>
        <time>2019-04-03T10:17:38Z</time>
      </trkpt>
      <trkpt lat="60.44254" lon="7.81942">
        <ele>1150.84</ele>
        <time>2019-04-03T10:17:49Z</time>
      </trkpt>
      <trkpt lat="60.44243" lon="7.81941">
        <ele>1150.84</ele>
        <time>2019-04-03T10:18:00Z</time>
      </trkpt>
      <trkpt lat="60.44234" lon="7.8194">
        <ele>1150.84</ele>
        <time>2019-04-03T10:18:11Z</time>
      </trkpt>
      <trkpt lat="60.44228" lon="7.81939">
        <ele>1150.84</ele>
        <time>2019-04-03T10:18:23Z</time>
      </trkpt>
      <trkpt lat="60.44227" lon="7.81939">
        <ele>1152.28</ele>
        <time>2019-04-03T10:18:42Z</time>
      </trkpt>
      <trkpt lat="60.44228" lon="7.81937">
        <ele>1152.28</ele>
        <time>2019-04-03T10:19:06Z</time>
      </trkpt>
      <trkpt lat="60.44227" lon="7.81938">
        <ele>1152.28</ele>
        <time>2019-04-03T10:19:36Z</time>
      </trkpt>
      <trkpt lat="60.44226" lon="7.81933">
        <ele>1152.28</ele>
        <time>2019-04-03T10:19:54Z</time>
      </trkpt>
      <trkpt lat="60.44226" lon="7.81934">
        <ele>1152.28</ele>
        <time>2019-04-03T10:20:12Z</time>
      </trkpt>
      <trkpt lat="60.44227" lon="7.81937">
        <ele>1152.28</ele>
        <time>2019-04-03T10:20:31Z</time>
      </trkpt>
      <trkpt lat="60.4422" lon="7.81935">
        <ele>1152.28</ele>
        <time>2019-04-03T10:20:44Z</time>
      </trkpt>
      <trkpt lat="60.44202" lon="7.81917">
        <ele>1147.95</ele>
        <time>2019-04-03T10:20:55Z</time>
      </trkpt>
      <trkpt lat="60.44189" lon="7.81901">
        <ele>1147.95</ele>
        <time>2019-04-03T10:21:01Z</time>
      </trkpt>
      <trkpt lat="60.44178" lon="7.81887">
        <ele>1147.47</ele>
        <time>2019-04-03T10:21:11Z</time>
      </trkpt>
      <trkpt lat="60.44167" lon="7.81874">
        <ele>1147.47</ele>
        <time>2019-04-03T10:21:23Z</time>
      </trkpt>
      <trkpt lat="60.44157" lon="7.81861">
        <ele>1147.47</ele>
        <time>2019-04-03T10:21:35Z</time>
      </trkpt>
      <trkpt lat="60.44149" lon="7.81851">
        <ele>1147.47</ele>
        <time>2019-04-03T10:21:46Z</time>
      </trkpt>
      <trkpt lat="60.44138" lon="7.81842">
        <ele>1147.47</ele>
        <time>2019-04-03T10:21:58Z</time>
      </trkpt>
      <trkpt lat="60.44126" lon="7.81831">
        <ele>1147.47</ele>
        <time>2019-04-03T10:22:11Z</time>
      </trkpt>
      <trkpt lat="60.44116" lon="7.81821">
        <ele>1147.47</ele>
        <time>2019-04-03T10:22:22Z</time>
      </trkpt>
      <trkpt lat="60.44104" lon="7.8181">
        <ele>1147.47</ele>
        <time>2019-04-03T10:22:36Z</time>
      </trkpt>
      <trkpt lat="60.44097" lon="7.81801">
        <ele>1147.47</ele>
        <time>2019-04-03T10:22:47Z</time>
      </trkpt>
      <trkpt lat="60.44091" lon="7.81793">
        <ele>1148.91</ele>
        <time>2019-04-03T10:22:56Z</time>
      </trkpt>
      <trkpt lat="60.44083" lon="7.8178">
        <ele>1149.87</ele>
        <time>2019-04-03T10:23:09Z</time>
      </trkpt>
      <trkpt lat="60.44078" lon="7.81765">
        <ele>1150.84</ele>
        <time>2019-04-03T10:23:23Z</time>
      </trkpt>
      <trkpt lat="60.44074" lon="7.81745">
        <ele>1151.32</ele>
        <time>2019-04-03T10:23:37Z</time>
      </trkpt>
      <trkpt lat="60.44073" lon="7.81742">
        <ele>1151.32</ele>
        <time>2019-04-03T10:23:39Z</time>
      </trkpt>
      <trkpt lat="60.44069" lon="7.81722">
        <ele>1152.76</ele>
        <time>2019-04-03T10:23:53Z</time>
      </trkpt>
      <trkpt lat="60.44066" lon="7.81701">
        <ele>1153.24</ele>
        <time>2019-04-03T10:24:06Z</time>
      </trkpt>
      <trkpt lat="60.44063" lon="7.81679">
        <ele>1153.72</ele>
        <time>2019-04-03T10:24:18Z</time>
      </trkpt>
      <trkpt lat="60.44059" lon="7.8166">
        <ele>1153.72</ele>
        <time>2019-04-03T10:24:29Z</time>
      </trkpt>
      <trkpt lat="60.4405" lon="7.81646">
        <ele>1154.2</ele>
        <time>2019-04-03T10:24:40Z</time>
      </trkpt>
      <trkpt lat="60.44042" lon="7.81642">
        <ele>1154.68</ele>
        <time>2019-04-03T10:24:51Z</time>
      </trkpt>
      <trkpt lat="60.44034" lon="7.81642">
        <ele>1155.64</ele>
        <time>2019-04-03T10:25:02Z</time>
      </trkpt>
      <trkpt lat="60.44025" lon="7.81637">
        <ele>1156.6</ele>
        <time>2019-04-03T10:25:14Z</time>
      </trkpt>
      <trkpt lat="60.44016" lon="7.81631">
        <ele>1157.56</ele>
        <time>2019-04-03T10:25:27Z</time>
      </trkpt>
      <trkpt lat="60.44009" lon="7.81621">
        <ele>1158.53</ele>
        <time>2019-04-03T10:25:39Z</time>
      </trkpt>
      <trkpt lat="60.44001" lon="7.8161">
        <ele>1159.49</ele>
        <time>2019-04-03T10:25:51Z</time>
      </trkpt>
      <trkpt lat="60.43993" lon="7.81599">
        <ele>1160.45</ele>
        <time>2019-04-03T10:26:03Z</time>
      </trkpt>
      <trkpt lat="60.43987" lon="7.81588">
        <ele>1160.93</ele>
        <time>2019-04-03T10:26:14Z</time>
      </trkpt>
      <trkpt lat="60.4398" lon="7.81576">
        <ele>1161.41</ele>
        <time>2019-04-03T10:26:26Z</time>
      </trkpt>
      <trkpt lat="60.43971" lon="7.81568">
        <ele>1162.85</ele>
        <time>2019-04-03T10:26:38Z</time>
      </trkpt>
      <trkpt lat="60.43964" lon="7.81562">
        <ele>1163.33</ele>
        <time>2019-04-03T10:26:49Z</time>
      </trkpt>
      <trkpt lat="60.43959" lon="7.81557">
        <ele>1163.81</ele>
        <time>2019-04-03T10:27:01Z</time>
      </trkpt>
      <trkpt lat="60.4395" lon="7.81545">
        <ele>1163.81</ele>
        <time>2019-04-03T10:27:12Z</time>
      </trkpt>
      <trkpt lat="60.4394" lon="7.81529">
        <ele>1164.29</ele>
        <time>2019-04-03T10:27:23Z</time>
      </trkpt>
      <trkpt lat="60.43929" lon="7.81511">
        <ele>1161.89</ele>
        <time>2019-04-03T10:27:33Z</time>
      </trkpt>
      <trkpt lat="60.43923" lon="7.81494">
        <ele>1161.89</ele>
        <time>2019-04-03T10:27:44Z</time>
      </trkpt>
      <trkpt lat="60.43917" lon="7.81477">
        <ele>1161.89</ele>
        <time>2019-04-03T10:27:54Z</time>
      </trkpt>
      <trkpt lat="60.43911" lon="7.81455">
        <ele>1161.41</ele>
        <time>2019-04-03T10:28:06Z</time>
      </trkpt>
      <trkpt lat="60.43905" lon="7.81432">
        <ele>1160.93</ele>
        <time>2019-04-03T10:28:18Z</time>
      </trkpt>
      <trkpt lat="60.43903" lon="7.81421">
        <ele>1160.93</ele>
        <time>2019-04-03T10:28:29Z</time>
      </trkpt>
      <trkpt lat="60.439" lon="7.81409">
        <ele>1160.93</ele>
        <time>2019-04-03T10:28:41Z</time>
      </trkpt>
      <trkpt lat="60.43895" lon="7.81389">
        <ele>1161.41</ele>
        <time>2019-04-03T10:28:53Z</time>
      </trkpt>
      <trkpt lat="60.43893" lon="7.81376">
        <ele>1162.37</ele>
        <time>2019-04-03T10:29:01Z</time>
      </trkpt>
      <trkpt lat="60.4389" lon="7.81369">
        <ele>1162.37</ele>
        <time>2019-04-03T10:29:13Z</time>
      </trkpt>
      <trkpt lat="60.43889" lon="7.8137">
        <ele>1162.37</ele>
        <time>2019-04-03T10:29:36Z</time>
      </trkpt>
      <trkpt lat="60.43889" lon="7.8137">
        <ele>1161.89</ele>
        <time>2019-04-03T10:29:50Z</time>
      </trkpt>
      <trkpt lat="60.43889" lon="7.81369">
        <ele>1161.41</ele>
        <time>2019-04-03T10:30:09Z</time>
      </trkpt>
      <trkpt lat="60.4389" lon="7.8137">
        <ele>1162.85</ele>
        <time>2019-04-03T10:30:25Z</time>
      </trkpt>
      <trkpt lat="60.43889" lon="7.81369">
        <ele>1162.85</ele>
        <time>2019-04-03T10:30:49Z</time>
      </trkpt>
      <trkpt lat="60.43887" lon="7.8136">
        <ele>1162.85</ele>
        <time>2019-04-03T10:30:58Z</time>
      </trkpt>
      <trkpt lat="60.43883" lon="7.8134">
        <ele>1162.85</ele>
        <time>2019-04-03T10:31:09Z</time>
      </trkpt>
      <trkpt lat="60.43876" lon="7.81317">
        <ele>1162.85</ele>
        <time>2019-04-03T10:31:21Z</time>
      </trkpt>
      <trkpt lat="60.4387" lon="7.81294">
        <ele>1163.33</ele>
        <time>2019-04-03T10:31:33Z</time>
      </trkpt>
      <trkpt lat="60.43867" lon="7.81272">
        <ele>1163.33</ele>
        <time>2019-04-03T10:31:44Z</time>
      </trkpt>
      <trkpt lat="60.43864" lon="7.81251">
        <ele>1163.81</ele>
        <time>2019-04-03T10:31:56Z</time>
      </trkpt>
      <trkpt lat="60.43864" lon="7.81251">
        <ele>1159.49</ele>
        <time>2019-04-03T10:32:00Z</time>
      </trkpt>
      <trkpt lat="60.43864" lon="7.81251">
        <ele>1165.26</ele>
        <time>2019-04-03T10:32:01Z</time>
      </trkpt>
      <trkpt lat="60.43864" lon="7.81251">
        <ele>1165.26</ele>
        <time>2019-04-03T10:32:02Z</time>
      </trkpt>
      <trkpt lat="60.43864" lon="7.81251">
        <ele>1163.33</ele>
        <time>2019-04-03T10:32:04Z</time>
      </trkpt>
      <trkpt lat="60.43864" lon="7.8125">
        <ele>1163.33</ele>
        <time>2019-04-03T10:32:13Z</time>
      </trkpt>
      <trkpt lat="60.43864" lon="7.8125">
        <ele>1157.56</ele>
        <time>2019-04-03T10:32:15Z</time>
      </trkpt>
      <trkpt lat="60.43864" lon="7.8125">
        <ele>1162.37</ele>
        <time>2019-04-03T10:32:16Z</time>
      </trkpt>
      <trkpt lat="60.43863" lon="7.8125">
        <ele>1167.66</ele>
        <time>2019-04-03T10:32:26Z</time>
      </trkpt>
      <trkpt lat="60.43863" lon="7.81251">
        <ele>1167.66</ele>
        <time>2019-04-03T10:32:27Z</time>
      </trkpt>
      <trkpt lat="60.43863" lon="7.81251">
        <ele>1162.37</ele>
        <time>2019-04-03T10:32:29Z</time>
      </trkpt>
      <trkpt lat="60.43862" lon="7.81249">
        <ele>1158.53</ele>
        <time>2019-04-03T10:32:33Z</time>
      </trkpt>
      <trkpt lat="60.43862" lon="7.81249">
        <ele>1164.77</ele>
        <time>2019-04-03T10:32:34Z</time>
      </trkpt>
      <trkpt lat="60.43862" lon="7.81248">
        <ele>1160.45</ele>
        <time>2019-04-03T10:32:41Z</time>
      </trkpt>
      <trkpt lat="60.43862" lon="7.81248">
        <ele>1163.81</ele>
        <time>2019-04-03T10:32:50Z</time>
      </trkpt>
      <trkpt lat="60.43861" lon="7.81251">
        <ele>1162.37</ele>
        <time>2019-04-03T10:33:09Z</time>
      </trkpt>
      <trkpt lat="60.43861" lon="7.81251">
        <ele>1163.33</ele>
        <time>2019-04-03T10:33:27Z</time>
      </trkpt>
      <trkpt lat="60.43861" lon="7.81251">
        <ele>1164.77</ele>
        <time>2019-04-03T10:33:35Z</time>
      </trkpt>
      <trkpt lat="60.43863" lon="7.81252">
        <ele>1164.29</ele>
        <time>2019-04-03T10:33:59Z</time>
      </trkpt>
      <trkpt lat="60.43863" lon="7.81252">
        <ele>1158.05</ele>
        <time>2019-04-03T10:34:00Z</time>
      </trkpt>
      <trkpt lat="60.43863" lon="7.81252">
        <ele>1163.81</ele>
        <time>2019-04-03T10:34:01Z</time>
      </trkpt>
      <trkpt lat="60.43863" lon="7.81252">
        <ele>1159.97</ele>
        <time>2019-04-03T10:34:02Z</time>
      </trkpt>
      <trkpt lat="60.43863" lon="7.81251">
        <ele>1165.26</ele>
        <time>2019-04-03T10:34:03Z</time>
      </trkpt>
      <trkpt lat="60.43864" lon="7.81251">
        <ele>1161.41</ele>
        <time>2019-04-03T10:34:14Z</time>
      </trkpt>
      <trkpt lat="60.43864" lon="7.8125">
        <ele>1164.77</ele>
        <time>2019-04-03T10:34:16Z</time>
      </trkpt>
      <trkpt lat="60.43863" lon="7.81251">
        <ele>1166.22</ele>
        <time>2019-04-03T10:34:18Z</time>
      </trkpt>
      <trkpt lat="60.43864" lon="7.81252">
        <ele>1164.29</ele>
        <time>2019-04-03T10:34:20Z</time>
      </trkpt>
      <trkpt lat="60.43864" lon="7.81253">
        <ele>1158.53</ele>
        <time>2019-04-03T10:34:24Z</time>
      </trkpt>
      <trkpt lat="60.43865" lon="7.81251">
        <ele>1162.85</ele>
        <time>2019-04-03T10:34:25Z</time>
      </trkpt>
      <trkpt lat="60.43864" lon="7.81247">
        <ele>1162.85</ele>
        <time>2019-04-03T10:35:00Z</time>
      </trkpt>
      <trkpt lat="60.43863" lon="7.81249">
        <ele>1162.37</ele>
        <time>2019-04-03T10:35:32Z</time>
      </trkpt>
      <trkpt lat="60.43863" lon="7.81249">
        <ele>1162.37</ele>
        <time>2019-04-03T10:35:55Z</time>
      </trkpt>
      <trkpt lat="60.43865" lon="7.81247">
        <ele>1162.37</ele>
        <time>2019-04-03T10:36:22Z</time>
      </trkpt>
      <trkpt lat="60.43865" lon="7.81248">
        <ele>1162.37</ele>
        <time>2019-04-03T10:36:54Z</time>
      </trkpt>
      <trkpt lat="60.43865" lon="7.8125">
        <ele>1162.37</ele>
        <time>2019-04-03T10:37:28Z</time>
      </trkpt>
      <trkpt lat="60.43866" lon="7.81249">
        <ele>1162.37</ele>
        <time>2019-04-03T10:38:05Z</time>
      </trkpt>
      <trkpt lat="60.43865" lon="7.81248">
        <ele>1162.37</ele>
        <time>2019-04-03T10:38:36Z</time>
      </trkpt>
      <trkpt lat="60.43866" lon="7.81249">
        <ele>1162.37</ele>
        <time>2019-04-03T10:39:08Z</time>
      </trkpt>
      <trkpt lat="60.43865" lon="7.81251">
        <ele>1162.85</ele>
        <time>2019-04-03T10:39:37Z</time>
      </trkpt>
      <trkpt lat="60.43865" lon="7.8125">
        <ele>1162.85</ele>
        <time>2019-04-03T10:40:03Z</time>
      </trkpt>
      <trkpt lat="60.43865" lon="7.81249">
        <ele>1162.85</ele>
        <time>2019-04-03T10:40:29Z</time>
      </trkpt>
      <trkpt lat="60.43864" lon="7.8125">
        <ele>1162.85</ele>
        <time>2019-04-03T10:40:58Z</time>
      </trkpt>
      <trkpt lat="60.43863" lon="7.81252">
        <ele>1162.85</ele>
        <time>2019-04-03T10:41:20Z</time>
      </trkpt>
      <trkpt lat="60.43863" lon="7.81252">
        <ele>1162.85</ele>
        <time>2019-04-03T10:41:44Z</time>
      </trkpt>
      <trkpt lat="60.43864" lon="7.81253">
        <ele>1162.85</ele>
        <time>2019-04-03T10:42:09Z</time>
      </trkpt>
      <trkpt lat="60.43864" lon="7.81254">
        <ele>1162.85</ele>
        <time>2019-04-03T10:42:33Z</time>
      </trkpt>
      <trkpt lat="60.43864" lon="7.81254">
        <ele>1162.85</ele>
        <time>2019-04-03T10:42:56Z</time>
      </trkpt>
      <trkpt lat="60.43863" lon="7.81256">
        <ele>1162.85</ele>
        <time>2019-04-03T10:43:31Z</time>
      </trkpt>
      <trkpt lat="60.43864" lon="7.81254">
        <ele>1163.33</ele>
        <time>2019-04-03T10:44:00Z</time>
      </trkpt>
      <trkpt lat="60.43864" lon="7.81254">
        <ele>1163.33</ele>
        <time>2019-04-03T10:44:31Z</time>
      </trkpt>
      <trkpt lat="60.43863" lon="7.81254">
        <ele>1163.33</ele>
        <time>2019-04-03T10:44:54Z</time>
      </trkpt>
      <trkpt lat="60.43864" lon="7.81252">
        <ele>1164.29</ele>
        <time>2019-04-03T10:45:19Z</time>
      </trkpt>
      <trkpt lat="60.43864" lon="7.81253">
        <ele>1164.77</ele>
        <time>2019-04-03T10:45:42Z</time>
      </trkpt>
      <trkpt lat="60.43863" lon="7.81253">
        <ele>1164.77</ele>
        <time>2019-04-03T10:46:13Z</time>
      </trkpt>
      <trkpt lat="60.43863" lon="7.81253">
        <ele>1167.66</ele>
        <time>2019-04-03T10:46:35Z</time>
      </trkpt>
      <trkpt lat="60.43863" lon="7.81253">
        <ele>1167.66</ele>
        <time>2019-04-03T10:46:36Z</time>
      </trkpt>
      <trkpt lat="60.43863" lon="7.81254">
        <ele>1165.74</ele>
        <time>2019-04-03T10:46:39Z</time>
      </trkpt>
      <trkpt lat="60.43865" lon="7.81252">
        <ele>1160.93</ele>
        <time>2019-04-03T10:46:46Z</time>
      </trkpt>
      <trkpt lat="60.43864" lon="7.81253">
        <ele>1161.41</ele>
        <time>2019-04-03T10:46:47Z</time>
      </trkpt>
      <trkpt lat="60.43864" lon="7.81253">
        <ele>1164.77</ele>
        <time>2019-04-03T10:46:48Z</time>
      </trkpt>
      <trkpt lat="60.43865" lon="7.81252">
        <ele>1164.77</ele>
        <time>2019-04-03T10:46:49Z</time>
      </trkpt>
      <trkpt lat="60.43864" lon="7.81253">
        <ele>1167.18</ele>
        <time>2019-04-03T10:46:53Z</time>
      </trkpt>
      <trkpt lat="60.43864" lon="7.81254">
        <ele>1164.77</ele>
        <time>2019-04-03T10:46:56Z</time>
      </trkpt>
      <trkpt lat="60.43864" lon="7.81254">
        <ele>1168.62</ele>
        <time>2019-04-03T10:46:59Z</time>
      </trkpt>
      <trkpt lat="60.43864" lon="7.81254">
        <ele>1159.97</ele>
        <time>2019-04-03T10:47:02Z</time>
      </trkpt>
      <trkpt lat="60.43864" lon="7.81254">
        <ele>1165.74</ele>
        <time>2019-04-03T10:47:03Z</time>
      </trkpt>
      <trkpt lat="60.43865" lon="7.81256">
        <ele>1167.18</ele>
        <time>2019-04-03T10:47:14Z</time>
      </trkpt>
      <trkpt lat="60.43864" lon="7.81254">
        <ele>1164.77</ele>
        <time>2019-04-03T10:47:20Z</time>
      </trkpt>
      <trkpt lat="60.43864" lon="7.81253">
        <ele>1168.14</ele>
        <time>2019-04-03T10:47:22Z</time>
      </trkpt>
      <trkpt lat="60.43864" lon="7.81253">
        <ele>1166.7</ele>
        <time>2019-04-03T10:47:23Z</time>
      </trkpt>
      <trkpt lat="60.43863" lon="7.81253">
        <ele>1165.26</ele>
        <time>2019-04-03T10:47:37Z</time>
      </trkpt>
      <trkpt lat="60.43863" lon="7.8125">
        <ele>1154.68</ele>
        <time>2019-04-03T10:47:42Z</time>
      </trkpt>
      <trkpt lat="60.43863" lon="7.8125">
        <ele>1169.58</ele>
        <time>2019-04-03T10:47:43Z</time>
      </trkpt>
      <trkpt lat="60.43863" lon="7.8125">
        <ele>1163.81</ele>
        <time>2019-04-03T10:47:44Z</time>
      </trkpt>
      <trkpt lat="60.43863" lon="7.81249">
        <ele>1163.81</ele>
        <time>2019-04-03T10:47:51Z</time>
      </trkpt>
      <trkpt lat="60.43864" lon="7.8125">
        <ele>1168.14</ele>
        <time>2019-04-03T10:47:54Z</time>
      </trkpt>
      <trkpt lat="60.43864" lon="7.81249">
        <ele>1166.22</ele>
        <time>2019-04-03T10:47:55Z</time>
      </trkpt>
      <trkpt lat="60.43866" lon="7.81248">
        <ele>1166.7</ele>
        <time>2019-04-03T10:47:57Z</time>
      </trkpt>
      <trkpt lat="60.43865" lon="7.81247">
        <ele>1165.26</ele>
        <time>2019-04-03T10:48:05Z</time>
      </trkpt>
      <trkpt lat="60.43865" lon="7.81247">
        <ele>1170.54</ele>
        <time>2019-04-03T10:48:06Z</time>
      </trkpt>
      <trkpt lat="60.43864" lon="7.81247">
        <ele>1168.14</ele>
        <time>2019-04-03T10:48:07Z</time>
      </trkpt>
      <trkpt lat="60.43864" lon="7.81246">
        <ele>1164.77</ele>
        <time>2019-04-03T10:48:08Z</time>
      </trkpt>
      <trkpt lat="60.43864" lon="7.81247">
        <ele>1165.74</ele>
        <time>2019-04-03T10:48:09Z</time>
      </trkpt>
      <trkpt lat="60.43865" lon="7.81248">
        <ele>1156.12</ele>
        <time>2019-04-03T10:48:10Z</time>
      </trkpt>
      <trkpt lat="60.43864" lon="7.81248">
        <ele>1157.56</ele>
        <time>2019-04-03T10:48:11Z</time>
      </trkpt>
      <trkpt lat="60.43864" lon="7.81248">
        <ele>1171.98</ele>
        <time>2019-04-03T10:48:12Z</time>
      </trkpt>
      <trkpt lat="60.43864" lon="7.81249">
        <ele>1169.58</ele>
        <time>2019-04-03T10:48:13Z</time>
      </trkpt>
      <trkpt lat="60.43864" lon="7.8125">
        <ele>1165.26</ele>
        <time>2019-04-03T10:48:14Z</time>
      </trkpt>
      <trkpt lat="60.43864" lon="7.8125">
        <ele>1165.26</ele>
        <time>2019-04-03T10:48:15Z</time>
      </trkpt>
      <trkpt lat="60.43864" lon="7.81253">
        <ele>1165.74</ele>
        <time>2019-04-03T10:48:30Z</time>
      </trkpt>
      <trkpt lat="60.43865" lon="7.81253">
        <ele>1165.74</ele>
        <time>2019-04-03T10:48:50Z</time>
      </trkpt>
      <trkpt lat="60.43865" lon="7.81253">
        <ele>1165.74</ele>
        <time>2019-04-03T10:49:08Z</time>
      </trkpt>
      <trkpt lat="60.43864" lon="7.81252">
        <ele>1161.41</ele>
        <time>2019-04-03T10:49:16Z</time>
      </trkpt>
      <trkpt lat="60.43864" lon="7.81252">
        <ele>1163.81</ele>
        <time>2019-04-03T10:49:17Z</time>
      </trkpt>
      <trkpt lat="60.43864" lon="7.81252">
        <ele>1167.66</ele>
        <time>2019-04-03T10:49:18Z</time>
      </trkpt>
      <trkpt lat="60.43864" lon="7.81252">
        <ele>1162.85</ele>
        <time>2019-04-03T10:49:19Z</time>
      </trkpt>
      <trkpt lat="60.43863" lon="7.81252">
        <ele>1166.22</ele>
        <time>2019-04-03T10:49:21Z</time>
      </trkpt>
      <trkpt lat="60.43862" lon="7.81253">
        <ele>1162.37</ele>
        <time>2019-04-03T10:49:26Z</time>
      </trkpt>
      <trkpt lat="60.43862" lon="7.81253">
        <ele>1162.37</ele>
        <time>2019-04-03T10:49:27Z</time>
      </trkpt>
      <trkpt lat="60.43862" lon="7.81253">
        <ele>1166.22</ele>
        <time>2019-04-03T10:49:28Z</time>
      </trkpt>
      <trkpt lat="60.43862" lon="7.81253">
        <ele>1166.22</ele>
        <time>2019-04-03T10:49:29Z</time>
      </trkpt>
      <trkpt lat="60.43862" lon="7.81253">
        <ele>1160.45</ele>
        <time>2019-04-03T10:49:30Z</time>
      </trkpt>
      <trkpt lat="60.43861" lon="7.81253">
        <ele>1165.26</ele>
        <time>2019-04-03T10:49:31Z</time>
      </trkpt>
      <trkpt lat="60.4386" lon="7.8125">
        <ele>1165.74</ele>
        <time>2019-04-03T10:49:51Z</time>
      </trkpt>
      <trkpt lat="60.43861" lon="7.81249">
        <ele>1159.97</ele>
        <time>2019-04-03T10:49:56Z</time>
      </trkpt>
      <trkpt lat="60.43861" lon="7.81249">
        <ele>1168.62</ele>
        <time>2019-04-03T10:49:57Z</time>
      </trkpt>
      <trkpt lat="60.43861" lon="7.81249">
        <ele>1168.62</ele>
        <time>2019-04-03T10:49:58Z</time>
      </trkpt>
      <trkpt lat="60.4386" lon="7.81251">
        <ele>1165.74</ele>
        <time>2019-04-03T10:50:00Z</time>
      </trkpt>
      <trkpt lat="60.43858" lon="7.81263">
        <ele>1162.85</ele>
        <time>2019-04-03T10:50:13Z</time>
      </trkpt>
      <trkpt lat="60.43858" lon="7.81264">
        <ele>1167.18</ele>
        <time>2019-04-03T10:50:15Z</time>
      </trkpt>
      <trkpt lat="60.43858" lon="7.81264">
        <ele>1165.74</ele>
        <time>2019-04-03T10:50:16Z</time>
      </trkpt>
      <trkpt lat="60.43856" lon="7.81261">
        <ele>1165.74</ele>
        <time>2019-04-03T10:50:27Z</time>
      </trkpt>
      <trkpt lat="60.43856" lon="7.81257">
        <ele>1160.93</ele>
        <time>2019-04-03T10:50:30Z</time>
      </trkpt>
      <trkpt lat="60.43856" lon="7.81256">
        <ele>1164.29</ele>
        <time>2019-04-03T10:50:31Z</time>
      </trkpt>
      <trkpt lat="60.43856" lon="7.81256">
        <ele>1166.22</ele>
        <time>2019-04-03T10:50:35Z</time>
      </trkpt>
      <trkpt lat="60.43857" lon="7.81251">
        <ele>1164.29</ele>
        <time>2019-04-03T10:50:37Z</time>
      </trkpt>
      <trkpt lat="60.43864" lon="7.81238">
        <ele>1164.29</ele>
        <time>2019-04-03T10:50:44Z</time>
      </trkpt>
      <trkpt lat="60.4385" lon="7.81235">
        <ele>1163.81</ele>
        <time>2019-04-03T10:50:47Z</time>
      </trkpt>
      <trkpt lat="60.43825" lon="7.81248">
        <ele>1159.49</ele>
        <time>2019-04-03T10:50:51Z</time>
      </trkpt>
      <trkpt lat="60.43818" lon="7.81252">
        <ele>1159.49</ele>
        <time>2019-04-03T10:50:52Z</time>
      </trkpt>
      <trkpt lat="60.43771" lon="7.81267">
        <ele>1156.6</ele>
        <time>2019-04-03T10:50:58Z</time>
      </trkpt>
      <trkpt lat="60.43755" lon="7.81275">
        <ele>1155.64</ele>
        <time>2019-04-03T10:51:00Z</time>
      </trkpt>
      <trkpt lat="60.43749" lon="7.81279">
        <ele>1155.64</ele>
        <time>2019-04-03T10:51:01Z</time>
      </trkpt>
      <trkpt lat="60.43728" lon="7.81278">
        <ele>1158.05</ele>
        <time>2019-04-03T10:51:06Z</time>
      </trkpt>
      <trkpt lat="60.43728" lon="7.8127">
        <ele>1158.05</ele>
        <time>2019-04-03T10:51:08Z</time>
      </trkpt>
      <trkpt lat="60.43731" lon="7.81263">
        <ele>1158.53</ele>
        <time>2019-04-03T10:51:10Z</time>
      </trkpt>
      <trkpt lat="60.43754" lon="7.81244">
        <ele>1160.45</ele>
        <time>2019-04-03T10:51:15Z</time>
      </trkpt>
      <trkpt lat="60.43766" lon="7.81231">
        <ele>1160.45</ele>
        <time>2019-04-03T10:51:21Z</time>
      </trkpt>
      <trkpt lat="60.43779" lon="7.81223">
        <ele>1160.93</ele>
        <time>2019-04-03T10:51:28Z</time>
      </trkpt>
      <trkpt lat="60.43782" lon="7.8122">
        <ele>1161.41</ele>
        <time>2019-04-03T10:51:29Z</time>
      </trkpt>
      <trkpt lat="60.43795" lon="7.81215">
        <ele>1163.33</ele>
        <time>2019-04-03T10:51:32Z</time>
      </trkpt>
      <trkpt lat="60.43809" lon="7.81213">
        <ele>1163.33</ele>
        <time>2019-04-03T10:51:35Z</time>
      </trkpt>
      <trkpt lat="60.43835" lon="7.81213">
        <ele>1163.33</ele>
        <time>2019-04-03T10:51:44Z</time>
      </trkpt>
      <trkpt lat="60.43836" lon="7.81212">
        <ele>1163.81</ele>
        <time>2019-04-03T10:51:56Z</time>
      </trkpt>
      <trkpt lat="60.43836" lon="7.81213">
        <ele>1163.81</ele>
        <time>2019-04-03T10:52:22Z</time>
      </trkpt>
      <trkpt lat="60.43836" lon="7.81213">
        <ele>1164.29</ele>
        <time>2019-04-03T10:52:46Z</time>
      </trkpt>
      <trkpt lat="60.43836" lon="7.8121">
        <ele>1164.29</ele>
        <time>2019-04-03T10:53:05Z</time>
      </trkpt>
      <trkpt lat="60.43836" lon="7.8121">
        <ele>1164.29</ele>
        <time>2019-04-03T10:53:32Z</time>
      </trkpt>
      <trkpt lat="60.43836" lon="7.81209">
        <ele>1164.29</ele>
        <time>2019-04-03T10:53:46Z</time>
      </trkpt>
      <trkpt lat="60.43836" lon="7.81208">
        <ele>1164.29</ele>
        <time>2019-04-03T10:54:06Z</time>
      </trkpt>
      <trkpt lat="60.43836" lon="7.81206">
        <ele>1164.29</ele>
        <time>2019-04-03T10:54:10Z</time>
      </trkpt>
      <trkpt lat="60.43819" lon="7.81199">
        <ele>1161.89</ele>
        <time>2019-04-03T10:54:17Z</time>
      </trkpt>
      <trkpt lat="60.43816" lon="7.81191">
        <ele>1160.93</ele>
        <time>2019-04-03T10:54:18Z</time>
      </trkpt>
      <trkpt lat="60.4378" lon="7.81145">
        <ele>1159.97</ele>
        <time>2019-04-03T10:54:27Z</time>
      </trkpt>
      <trkpt lat="60.43763" lon="7.81112">
        <ele>1159.01</ele>
        <time>2019-04-03T10:54:32Z</time>
      </trkpt>
      <trkpt lat="60.43761" lon="7.81107">
        <ele>1158.53</ele>
        <time>2019-04-03T10:54:33Z</time>
      </trkpt>
      <trkpt lat="60.43771" lon="7.8107">
        <ele>1159.49</ele>
        <time>2019-04-03T10:54:43Z</time>
      </trkpt>
      <trkpt lat="60.43775" lon="7.81053">
        <ele>1159.49</ele>
        <time>2019-04-03T10:54:51Z</time>
      </trkpt>
      <trkpt lat="60.43776" lon="7.81015">
        <ele>1159.49</ele>
        <time>2019-04-03T10:54:56Z</time>
      </trkpt>
      <trkpt lat="60.4379" lon="7.80965">
        <ele>1159.01</ele>
        <time>2019-04-03T10:55:02Z</time>
      </trkpt>
      <trkpt lat="60.43789" lon="7.80919">
        <ele>1158.53</ele>
        <time>2019-04-03T10:55:07Z</time>
      </trkpt>
      <trkpt lat="60.43785" lon="7.80881">
        <ele>1160.45</ele>
        <time>2019-04-03T10:55:12Z</time>
      </trkpt>
      <trkpt lat="60.43782" lon="7.80857">
        <ele>1160.45</ele>
        <time>2019-04-03T10:55:15Z</time>
      </trkpt>
      <trkpt lat="60.43775" lon="7.80841">
        <ele>1161.41</ele>
        <time>2019-04-03T10:55:18Z</time>
      </trkpt>
      <trkpt lat="60.43749" lon="7.80819">
        <ele>1159.49</ele>
        <time>2019-04-03T10:55:24Z</time>
      </trkpt>
      <trkpt lat="60.43748" lon="7.80812">
        <ele>1159.49</ele>
        <time>2019-04-03T10:55:25Z</time>
      </trkpt>
      <trkpt lat="60.43751" lon="7.80755">
        <ele>1160.93</ele>
        <time>2019-04-03T10:55:30Z</time>
      </trkpt>
      <trkpt lat="60.43753" lon="7.80744">
        <ele>1160.93</ele>
        <time>2019-04-03T10:55:31Z</time>
      </trkpt>
      <trkpt lat="60.43754" lon="7.80673">
        <ele>1159.49</ele>
        <time>2019-04-03T10:55:38Z</time>
      </trkpt>
      <trkpt lat="60.43755" lon="7.80661">
        <ele>1159.49</ele>
        <time>2019-04-03T10:55:39Z</time>
      </trkpt>
      <trkpt lat="60.43756" lon="7.80649">
        <ele>1159.49</ele>
        <time>2019-04-03T10:55:40Z</time>
      </trkpt>
      <trkpt lat="60.43771" lon="7.80591">
        <ele>1157.56</ele>
        <time>2019-04-03T10:55:45Z</time>
      </trkpt>
      <trkpt lat="60.43787" lon="7.80546">
        <ele>1155.16</ele>
        <time>2019-04-03T10:55:49Z</time>
      </trkpt>
      <trkpt lat="60.43792" lon="7.80533">
        <ele>1154.68</ele>
        <time>2019-04-03T10:55:50Z</time>
      </trkpt>
      <trkpt lat="60.43805" lon="7.80479">
        <ele>1154.2</ele>
        <time>2019-04-03T10:55:54Z</time>
      </trkpt>
      <trkpt lat="60.43803" lon="7.80398">
        <ele>1152.76</ele>
        <time>2019-04-03T10:56:00Z</time>
      </trkpt>
      <trkpt lat="60.43803" lon="7.80375">
        <ele>1152.28</ele>
        <time>2019-04-03T10:56:02Z</time>
      </trkpt>
      <trkpt lat="60.43804" lon="7.80353">
        <ele>1152.28</ele>
        <time>2019-04-03T10:56:04Z</time>
      </trkpt>
      <trkpt lat="60.43812" lon="7.80295">
        <ele>1152.76</ele>
        <time>2019-04-03T10:56:11Z</time>
      </trkpt>
      <trkpt lat="60.43815" lon="7.80219">
        <ele>1153.72</ele>
        <time>2019-04-03T10:56:19Z</time>
      </trkpt>
      <trkpt lat="60.43816" lon="7.80177">
        <ele>1154.68</ele>
        <time>2019-04-03T10:56:23Z</time>
      </trkpt>
      <trkpt lat="60.43819" lon="7.80146">
        <ele>1156.6</ele>
        <time>2019-04-03T10:56:26Z</time>
      </trkpt>
      <trkpt lat="60.43821" lon="7.80135">
        <ele>1157.08</ele>
        <time>2019-04-03T10:56:27Z</time>
      </trkpt>
      <trkpt lat="60.43828" lon="7.80092">
        <ele>1158.53</ele>
        <time>2019-04-03T10:56:31Z</time>
      </trkpt>
      <trkpt lat="60.43842" lon="7.80019">
        <ele>1156.12</ele>
        <time>2019-04-03T10:56:38Z</time>
      </trkpt>
      <trkpt lat="60.43841" lon="7.80006">
        <ele>1156.12</ele>
        <time>2019-04-03T10:56:39Z</time>
      </trkpt>
      <trkpt lat="60.43845" lon="7.79938">
        <ele>1154.2</ele>
        <time>2019-04-03T10:56:44Z</time>
      </trkpt>
      <trkpt lat="60.43838" lon="7.79915">
        <ele>1153.24</ele>
        <time>2019-04-03T10:56:48Z</time>
      </trkpt>
      <trkpt lat="60.43833" lon="7.79913">
        <ele>1153.24</ele>
        <time>2019-04-03T10:56:49Z</time>
      </trkpt>
      <trkpt lat="60.43806" lon="7.79907">
        <ele>1152.28</ele>
        <time>2019-04-03T10:56:55Z</time>
      </trkpt>
      <trkpt lat="60.43775" lon="7.79852">
        <ele>1151.8</ele>
        <time>2019-04-03T10:57:01Z</time>
      </trkpt>
      <trkpt lat="60.43763" lon="7.79823">
        <ele>1152.28</ele>
        <time>2019-04-03T10:57:04Z</time>
      </trkpt>
      <trkpt lat="60.43746" lon="7.79788">
        <ele>1150.35</ele>
        <time>2019-04-03T10:57:08Z</time>
      </trkpt>
      <trkpt lat="60.43727" lon="7.7974">
        <ele>1148.91</ele>
        <time>2019-04-03T10:57:15Z</time>
      </trkpt>
      <trkpt lat="60.43727" lon="7.79726">
        <ele>1150.35</ele>
        <time>2019-04-03T10:57:19Z</time>
      </trkpt>
      <trkpt lat="60.43728" lon="7.79714">
        <ele>1150.84</ele>
        <time>2019-04-03T10:57:28Z</time>
      </trkpt>
      <trkpt lat="60.43722" lon="7.79677">
        <ele>1149.87</ele>
        <time>2019-04-03T10:57:33Z</time>
      </trkpt>
      <trkpt lat="60.43723" lon="7.7966">
        <ele>1151.32</ele>
        <time>2019-04-03T10:57:36Z</time>
      </trkpt>
      <trkpt lat="60.43715" lon="7.79622">
        <ele>1151.32</ele>
        <time>2019-04-03T10:57:42Z</time>
      </trkpt>
      <trkpt lat="60.43714" lon="7.79581">
        <ele>1152.76</ele>
        <time>2019-04-03T10:57:46Z</time>
      </trkpt>
      <trkpt lat="60.43713" lon="7.79567">
        <ele>1152.76</ele>
        <time>2019-04-03T10:57:48Z</time>
      </trkpt>
      <trkpt lat="60.43716" lon="7.79547">
        <ele>1153.24</ele>
        <time>2019-04-03T10:57:53Z</time>
      </trkpt>
      <trkpt lat="60.43703" lon="7.79518">
        <ele>1153.72</ele>
        <time>2019-04-03T10:57:57Z</time>
      </trkpt>
      <trkpt lat="60.4369" lon="7.79461">
        <ele>1154.2</ele>
        <time>2019-04-03T10:58:03Z</time>
      </trkpt>
      <trkpt lat="60.43685" lon="7.79429">
        <ele>1152.28</ele>
        <time>2019-04-03T10:58:06Z</time>
      </trkpt>
      <trkpt lat="60.43672" lon="7.79395">
        <ele>1151.32</ele>
        <time>2019-04-03T10:58:09Z</time>
      </trkpt>
      <trkpt lat="60.43632" lon="7.79346">
        <ele>1149.39</ele>
        <time>2019-04-03T10:58:16Z</time>
      </trkpt>
      <trkpt lat="60.43623" lon="7.79331">
        <ele>1148.91</ele>
        <time>2019-04-03T10:58:18Z</time>
      </trkpt>
      <trkpt lat="60.43604" lon="7.79293">
        <ele>1148.43</ele>
        <time>2019-04-03T10:58:22Z</time>
      </trkpt>
      <trkpt lat="60.43595" lon="7.79277">
        <ele>1146.51</ele>
        <time>2019-04-03T10:58:24Z</time>
      </trkpt>
      <trkpt lat="60.4359" lon="7.79268">
        <ele>1146.51</ele>
        <time>2019-04-03T10:58:25Z</time>
      </trkpt>
      <trkpt lat="60.43563" lon="7.7922">
        <ele>1147.95</ele>
        <time>2019-04-03T10:58:31Z</time>
      </trkpt>
      <trkpt lat="60.43555" lon="7.79204">
        <ele>1146.51</ele>
        <time>2019-04-03T10:58:33Z</time>
      </trkpt>
      <trkpt lat="60.43549" lon="7.79166">
        <ele>1146.03</ele>
        <time>2019-04-03T10:58:37Z</time>
      </trkpt>
      <trkpt lat="60.43549" lon="7.7914">
        <ele>1147.95</ele>
        <time>2019-04-03T10:58:39Z</time>
      </trkpt>
      <trkpt lat="60.43551" lon="7.79126">
        <ele>1147.95</ele>
        <time>2019-04-03T10:58:40Z</time>
      </trkpt>
      <trkpt lat="60.43554" lon="7.791">
        <ele>1148.43</ele>
        <time>2019-04-03T10:58:42Z</time>
      </trkpt>
      <trkpt lat="60.43558" lon="7.79078">
        <ele>1148.43</ele>
        <time>2019-04-03T10:58:44Z</time>
      </trkpt>
      <trkpt lat="60.43561" lon="7.78983">
        <ele>1148.43</ele>
        <time>2019-04-03T10:58:51Z</time>
      </trkpt>
      <trkpt lat="60.43563" lon="7.78956">
        <ele>1148.43</ele>
        <time>2019-04-03T10:58:53Z</time>
      </trkpt>
      <trkpt lat="60.43562" lon="7.78898">
        <ele>1148.43</ele>
        <time>2019-04-03T10:58:57Z</time>
      </trkpt>
      <trkpt lat="60.43561" lon="7.78872">
        <ele>1148.43</ele>
        <time>2019-04-03T10:58:59Z</time>
      </trkpt>
      <trkpt lat="60.43569" lon="7.78783">
        <ele>1148.43</ele>
        <time>2019-04-03T10:59:05Z</time>
      </trkpt>
      <trkpt lat="60.43568" lon="7.78768">
        <ele>1148.43</ele>
        <time>2019-04-03T10:59:06Z</time>
      </trkpt>
      <trkpt lat="60.43567" lon="7.7874">
        <ele>1146.99</ele>
        <time>2019-04-03T10:59:08Z</time>
      </trkpt>
      <trkpt lat="60.43568" lon="7.78712">
        <ele>1146.99</ele>
        <time>2019-04-03T10:59:10Z</time>
      </trkpt>
      <trkpt lat="60.43578" lon="7.78659">
        <ele>1146.99</ele>
        <time>2019-04-03T10:59:15Z</time>
      </trkpt>
      <trkpt lat="60.43582" lon="7.78641">
        <ele>1146.99</ele>
        <time>2019-04-03T10:59:17Z</time>
      </trkpt>
      <trkpt lat="60.43584" lon="7.7862">
        <ele>1148.43</ele>
        <time>2019-04-03T10:59:19Z</time>
      </trkpt>
      <trkpt lat="60.4358" lon="7.78589">
        <ele>1151.8</ele>
        <time>2019-04-03T10:59:23Z</time>
      </trkpt>
      <trkpt lat="60.43581" lon="7.7858">
        <ele>1152.28</ele>
        <time>2019-04-03T10:59:24Z</time>
      </trkpt>
      <trkpt lat="60.43583" lon="7.78565">
        <ele>1154.68</ele>
        <time>2019-04-03T10:59:26Z</time>
      </trkpt>
      <trkpt lat="60.43575" lon="7.78522">
        <ele>1159.49</ele>
        <time>2019-04-03T10:59:32Z</time>
      </trkpt>
      <trkpt lat="60.43574" lon="7.78512">
        <ele>1160.45</ele>
        <time>2019-04-03T10:59:34Z</time>
      </trkpt>
      <trkpt lat="60.43572" lon="7.78489">
        <ele>1163.33</ele>
        <time>2019-04-03T10:59:40Z</time>
      </trkpt>
      <trkpt lat="60.43572" lon="7.7849">
        <ele>1163.33</ele>
        <time>2019-04-03T10:59:55Z</time>
      </trkpt>
      <trkpt lat="60.43571" lon="7.78489">
        <ele>1163.33</ele>
        <time>2019-04-03T11:00:16Z</time>
      </trkpt>
      <trkpt lat="60.43561" lon="7.78488">
        <ele>1161.41</ele>
        <time>2019-04-03T11:00:21Z</time>
      </trkpt>
      <trkpt lat="60.43543" lon="7.78454">
        <ele>1160.93</ele>
        <time>2019-04-03T11:00:28Z</time>
      </trkpt>
      <trkpt lat="60.43527" lon="7.78431">
        <ele>1160.93</ele>
        <time>2019-04-03T11:00:31Z</time>
      </trkpt>
      <trkpt lat="60.43506" lon="7.78411">
        <ele>1162.85</ele>
        <time>2019-04-03T11:00:35Z</time>
      </trkpt>
      <trkpt lat="60.43499" lon="7.78397">
        <ele>1163.81</ele>
        <time>2019-04-03T11:00:37Z</time>
      </trkpt>
      <trkpt lat="60.43489" lon="7.7837">
        <ele>1166.7</ele>
        <time>2019-04-03T11:00:41Z</time>
      </trkpt>
      <trkpt lat="60.43481" lon="7.78353">
        <ele>1167.66</ele>
        <time>2019-04-03T11:00:44Z</time>
      </trkpt>
      <trkpt lat="60.43468" lon="7.78325">
        <ele>1169.1</ele>
        <time>2019-04-03T11:00:48Z</time>
      </trkpt>
      <trkpt lat="60.43458" lon="7.78305">
        <ele>1171.02</ele>
        <time>2019-04-03T11:00:51Z</time>
      </trkpt>
      <trkpt lat="60.43455" lon="7.783">
        <ele>1171.02</ele>
        <time>2019-04-03T11:00:52Z</time>
      </trkpt>
      <trkpt lat="60.4344" lon="7.7828">
        <ele>1172.47</ele>
        <time>2019-04-03T11:01:00Z</time>
      </trkpt>
      <trkpt lat="60.43437" lon="7.78269">
        <ele>1172.47</ele>
        <time>2019-04-03T11:01:04Z</time>
      </trkpt>
      <trkpt lat="60.43434" lon="7.78266">
        <ele>1172.47</ele>
        <time>2019-04-03T11:01:07Z</time>
      </trkpt>
      <trkpt lat="60.43427" lon="7.78244">
        <ele>1172.47</ele>
        <time>2019-04-03T11:01:13Z</time>
      </trkpt>
      <trkpt lat="60.43424" lon="7.78239">
        <ele>1170.54</ele>
        <time>2019-04-03T11:01:14Z</time>
      </trkpt>
      <trkpt lat="60.43404" lon="7.78205">
        <ele>1172.47</ele>
        <time>2019-04-03T11:01:19Z</time>
      </trkpt>
      <trkpt lat="60.43384" lon="7.78151">
        <ele>1174.87</ele>
        <time>2019-04-03T11:01:28Z</time>
      </trkpt>
      <trkpt lat="60.43371" lon="7.78117">
        <ele>1175.83</ele>
        <time>2019-04-03T11:01:35Z</time>
      </trkpt>
      <trkpt lat="60.43343" lon="7.78101">
        <ele>1176.79</ele>
        <time>2019-04-03T11:01:41Z</time>
      </trkpt>
      <trkpt lat="60.43326" lon="7.781">
        <ele>1178.23</ele>
        <time>2019-04-03T11:01:45Z</time>
      </trkpt>
      <trkpt lat="60.43308" lon="7.7809">
        <ele>1178.71</ele>
        <time>2019-04-03T11:01:50Z</time>
      </trkpt>
      <trkpt lat="60.43283" lon="7.78103">
        <ele>1181.12</ele>
        <time>2019-04-03T11:02:00Z</time>
      </trkpt>
      <trkpt lat="60.4328" lon="7.78103">
        <ele>1182.08</ele>
        <time>2019-04-03T11:02:12Z</time>
      </trkpt>
      <trkpt lat="60.4328" lon="7.78103">
        <ele>1181.12</ele>
        <time>2019-04-03T11:02:32Z</time>
      </trkpt>
      <trkpt lat="60.43281" lon="7.78102">
        <ele>1181.12</ele>
        <time>2019-04-03T11:02:57Z</time>
      </trkpt>
      <trkpt lat="60.43281" lon="7.78102">
        <ele>1181.12</ele>
        <time>2019-04-03T11:03:21Z</time>
      </trkpt>
      <trkpt lat="60.43281" lon="7.78101">
        <ele>1181.12</ele>
        <time>2019-04-03T11:03:45Z</time>
      </trkpt>
      <trkpt lat="60.43281" lon="7.781">
        <ele>1181.6</ele>
        <time>2019-04-03T11:04:04Z</time>
      </trkpt>
      <trkpt lat="60.43281" lon="7.781">
        <ele>1181.6</ele>
        <time>2019-04-03T11:04:06Z</time>
      </trkpt>
      <trkpt lat="60.43279" lon="7.78084">
        <ele>1179.67</ele>
        <time>2019-04-03T11:04:09Z</time>
      </trkpt>
      <trkpt lat="60.4327" lon="7.78068">
        <ele>1176.79</ele>
        <time>2019-04-03T11:04:11Z</time>
      </trkpt>
      <trkpt lat="60.43264" lon="7.78063">
        <ele>1176.31</ele>
        <time>2019-04-03T11:04:12Z</time>
      </trkpt>
      <trkpt lat="60.43235" lon="7.78042">
        <ele>1176.31</ele>
        <time>2019-04-03T11:04:17Z</time>
      </trkpt>
      <trkpt lat="60.43223" lon="7.78033">
        <ele>1178.23</ele>
        <time>2019-04-03T11:04:20Z</time>
      </trkpt>
      <trkpt lat="60.43202" lon="7.77986">
        <ele>1177.27</ele>
        <time>2019-04-03T11:04:27Z</time>
      </trkpt>
      <trkpt lat="60.43181" lon="7.77964">
        <ele>1179.19</ele>
        <time>2019-04-03T11:04:32Z</time>
      </trkpt>
      <trkpt lat="60.43171" lon="7.7795">
        <ele>1180.16</ele>
        <time>2019-04-03T11:04:34Z</time>
      </trkpt>
      <trkpt lat="60.43145" lon="7.77905">
        <ele>1177.27</ele>
        <time>2019-04-03T11:04:39Z</time>
      </trkpt>
      <trkpt lat="60.43125" lon="7.77888">
        <ele>1177.27</ele>
        <time>2019-04-03T11:04:43Z</time>
      </trkpt>
      <trkpt lat="60.43122" lon="7.77874">
        <ele>1178.71</ele>
        <time>2019-04-03T11:04:45Z</time>
      </trkpt>
      <trkpt lat="60.43122" lon="7.77852">
        <ele>1176.31</ele>
        <time>2019-04-03T11:04:47Z</time>
      </trkpt>
      <trkpt lat="60.43135" lon="7.77784">
        <ele>1174.39</ele>
        <time>2019-04-03T11:04:52Z</time>
      </trkpt>
      <trkpt lat="60.43138" lon="7.77763">
        <ele>1173.43</ele>
        <time>2019-04-03T11:04:54Z</time>
      </trkpt>
      <trkpt lat="60.4313" lon="7.77738">
        <ele>1169.58</ele>
        <time>2019-04-03T11:04:57Z</time>
      </trkpt>
      <trkpt lat="60.43125" lon="7.77732">
        <ele>1169.58</ele>
        <time>2019-04-03T11:04:58Z</time>
      </trkpt>
      <trkpt lat="60.4312" lon="7.77725">
        <ele>1169.1</ele>
        <time>2019-04-03T11:04:59Z</time>
      </trkpt>
      <trkpt lat="60.43094" lon="7.77702">
        <ele>1164.29</ele>
        <time>2019-04-03T11:05:03Z</time>
      </trkpt>
      <trkpt lat="60.43087" lon="7.77695">
        <ele>1164.29</ele>
        <time>2019-04-03T11:05:04Z</time>
      </trkpt>
      <trkpt lat="60.4308" lon="7.77688">
        <ele>1159.49</ele>
        <time>2019-04-03T11:05:05Z</time>
      </trkpt>
      <trkpt lat="60.43073" lon="7.77682">
        <ele>1163.33</ele>
        <time>2019-04-03T11:05:06Z</time>
      </trkpt>
      <trkpt lat="60.43066" lon="7.77676">
        <ele>1163.81</ele>
        <time>2019-04-03T11:05:07Z</time>
      </trkpt>
      <trkpt lat="60.43038" lon="7.77651">
        <ele>1162.85</ele>
        <time>2019-04-03T11:05:12Z</time>
      </trkpt>
      <trkpt lat="60.43018" lon="7.77625">
        <ele>1160.93</ele>
        <time>2019-04-03T11:05:16Z</time>
      </trkpt>
      <trkpt lat="60.42997" lon="7.77604">
        <ele>1157.08</ele>
        <time>2019-04-03T11:05:19Z</time>
      </trkpt>
      <trkpt lat="60.42977" lon="7.77587">
        <ele>1157.56</ele>
        <time>2019-04-03T11:05:22Z</time>
      </trkpt>
      <trkpt lat="60.4296" lon="7.77577">
        <ele>1159.01</ele>
        <time>2019-04-03T11:05:25Z</time>
      </trkpt>
      <trkpt lat="60.42951" lon="7.77568">
        <ele>1160.45</ele>
        <time>2019-04-03T11:05:27Z</time>
      </trkpt>
      <trkpt lat="60.42927" lon="7.77525">
        <ele>1159.49</ele>
        <time>2019-04-03T11:05:33Z</time>
      </trkpt>
      <trkpt lat="60.4292" lon="7.77503">
        <ele>1161.41</ele>
        <time>2019-04-03T11:05:36Z</time>
      </trkpt>
      <trkpt lat="60.42918" lon="7.77396">
        <ele>1157.56</ele>
        <time>2019-04-03T11:05:44Z</time>
      </trkpt>
      <trkpt lat="60.42921" lon="7.7737">
        <ele>1157.08</ele>
        <time>2019-04-03T11:05:46Z</time>
      </trkpt>
      <trkpt lat="60.42935" lon="7.7732">
        <ele>1157.08</ele>
        <time>2019-04-03T11:05:50Z</time>
      </trkpt>
      <trkpt lat="60.42947" lon="7.77245">
        <ele>1157.08</ele>
        <time>2019-04-03T11:05:56Z</time>
      </trkpt>
      <trkpt lat="60.42945" lon="7.77221">
        <ele>1156.6</ele>
        <time>2019-04-03T11:05:58Z</time>
      </trkpt>
      <trkpt lat="60.42957" lon="7.77146">
        <ele>1158.05</ele>
        <time>2019-04-03T11:06:04Z</time>
      </trkpt>
      <trkpt lat="60.42979" lon="7.77077">
        <ele>1158.05</ele>
        <time>2019-04-03T11:06:10Z</time>
      </trkpt>
      <trkpt lat="60.42982" lon="7.77014">
        <ele>1157.56</ele>
        <time>2019-04-03T11:06:15Z</time>
      </trkpt>
      <trkpt lat="60.4298" lon="7.76942">
        <ele>1157.08</ele>
        <time>2019-04-03T11:06:22Z</time>
      </trkpt>
      <trkpt lat="60.42978" lon="7.76914">
        <ele>1157.56</ele>
        <time>2019-04-03T11:06:25Z</time>
      </trkpt>
      <trkpt lat="60.42977" lon="7.76906">
        <ele>1157.56</ele>
        <time>2019-04-03T11:06:26Z</time>
      </trkpt>
      <trkpt lat="60.42978" lon="7.76878">
        <ele>1157.56</ele>
        <time>2019-04-03T11:06:29Z</time>
      </trkpt>
      <trkpt lat="60.42976" lon="7.76841">
        <ele>1158.05</ele>
        <time>2019-04-03T11:06:33Z</time>
      </trkpt>
      <trkpt lat="60.42976" lon="7.76831">
        <ele>1158.05</ele>
        <time>2019-04-03T11:06:34Z</time>
      </trkpt>
      <trkpt lat="60.42976" lon="7.76822">
        <ele>1156.6</ele>
        <time>2019-04-03T11:06:35Z</time>
      </trkpt>
      <trkpt lat="60.42973" lon="7.76775">
        <ele>1158.05</ele>
        <time>2019-04-03T11:06:40Z</time>
      </trkpt>
      <trkpt lat="60.42973" lon="7.76718">
        <ele>1158.05</ele>
        <time>2019-04-03T11:06:46Z</time>
      </trkpt>
      <trkpt lat="60.42972" lon="7.76689">
        <ele>1158.05</ele>
        <time>2019-04-03T11:06:52Z</time>
      </trkpt>
      <trkpt lat="60.42975" lon="7.76648">
        <ele>1158.05</ele>
        <time>2019-04-03T11:06:56Z</time>
      </trkpt>
      <trkpt lat="60.42974" lon="7.76611">
        <ele>1154.68</ele>
        <time>2019-04-03T11:07:00Z</time>
      </trkpt>
      <trkpt lat="60.42971" lon="7.76585">
        <ele>1158.05</ele>
        <time>2019-04-03T11:07:03Z</time>
      </trkpt>
      <trkpt lat="60.42973" lon="7.76562">
        <ele>1158.05</ele>
        <time>2019-04-03T11:07:05Z</time>
      </trkpt>
      <trkpt lat="60.42977" lon="7.7653">
        <ele>1158.05</ele>
        <time>2019-04-03T11:07:08Z</time>
      </trkpt>
      <trkpt lat="60.4298" lon="7.76482">
        <ele>1158.05</ele>
        <time>2019-04-03T11:07:12Z</time>
      </trkpt>
      <trkpt lat="60.42981" lon="7.76432">
        <ele>1157.08</ele>
        <time>2019-04-03T11:07:18Z</time>
      </trkpt>
      <trkpt lat="60.42967" lon="7.76422">
        <ele>1156.12</ele>
        <time>2019-04-03T11:07:22Z</time>
      </trkpt>
      <trkpt lat="60.42945" lon="7.76395">
        <ele>1155.16</ele>
        <time>2019-04-03T11:07:26Z</time>
      </trkpt>
      <trkpt lat="60.42936" lon="7.76382">
        <ele>1157.56</ele>
        <time>2019-04-03T11:07:28Z</time>
      </trkpt>
      <trkpt lat="60.42915" lon="7.76342">
        <ele>1157.56</ele>
        <time>2019-04-03T11:07:35Z</time>
      </trkpt>
      <trkpt lat="60.4289" lon="7.76306">
        <ele>1156.12</ele>
        <time>2019-04-03T11:07:41Z</time>
      </trkpt>
      <trkpt lat="60.42879" lon="7.76286">
        <ele>1158.05</ele>
        <time>2019-04-03T11:07:44Z</time>
      </trkpt>
      <trkpt lat="60.42871" lon="7.76244">
        <ele>1156.6</ele>
        <time>2019-04-03T11:07:50Z</time>
      </trkpt>
      <trkpt lat="60.42878" lon="7.76225">
        <ele>1158.05</ele>
        <time>2019-04-03T11:07:52Z</time>
      </trkpt>
      <trkpt lat="60.42885" lon="7.76207">
        <ele>1158.05</ele>
        <time>2019-04-03T11:07:54Z</time>
      </trkpt>
      <trkpt lat="60.42891" lon="7.76134">
        <ele>1157.08</ele>
        <time>2019-04-03T11:08:00Z</time>
      </trkpt>
      <trkpt lat="60.42891" lon="7.76108">
        <ele>1157.08</ele>
        <time>2019-04-03T11:08:02Z</time>
      </trkpt>
      <trkpt lat="60.42899" lon="7.76056">
        <ele>1157.08</ele>
        <time>2019-04-03T11:08:06Z</time>
      </trkpt>
      <trkpt lat="60.42896" lon="7.76011">
        <ele>1157.56</ele>
        <time>2019-04-03T11:08:10Z</time>
      </trkpt>
      <trkpt lat="60.42896" lon="7.75992">
        <ele>1156.6</ele>
        <time>2019-04-03T11:08:12Z</time>
      </trkpt>
      <trkpt lat="60.42889" lon="7.75958">
        <ele>1156.6</ele>
        <time>2019-04-03T11:08:16Z</time>
      </trkpt>
      <trkpt lat="60.42875" lon="7.75948">
        <ele>1156.12</ele>
        <time>2019-04-03T11:08:19Z</time>
      </trkpt>
      <trkpt lat="60.42858" lon="7.7595">
        <ele>1155.64</ele>
        <time>2019-04-03T11:08:22Z</time>
      </trkpt>
      <trkpt lat="60.42823" lon="7.7596">
        <ele>1154.2</ele>
        <time>2019-04-03T11:08:27Z</time>
      </trkpt>
      <trkpt lat="60.4279" lon="7.75961">
        <ele>1156.12</ele>
        <time>2019-04-03T11:08:31Z</time>
      </trkpt>
      <trkpt lat="60.42744" lon="7.7592">
        <ele>1159.97</ele>
        <time>2019-04-03T11:08:39Z</time>
      </trkpt>
      <trkpt lat="60.42724" lon="7.75885">
        <ele>1160.93</ele>
        <time>2019-04-03T11:08:44Z</time>
      </trkpt>
      <trkpt lat="60.42716" lon="7.75871">
        <ele>1161.41</ele>
        <time>2019-04-03T11:08:47Z</time>
      </trkpt>
      <trkpt lat="60.42725" lon="7.75833">
        <ele>1163.33</ele>
        <time>2019-04-03T11:08:51Z</time>
      </trkpt>
      <trkpt lat="60.42747" lon="7.75781">
        <ele>1159.49</ele>
        <time>2019-04-03T11:08:57Z</time>
      </trkpt>
      <trkpt lat="60.42745" lon="7.75779">
        <ele>1159.49</ele>
        <time>2019-04-03T11:08:58Z</time>
      </trkpt>
      <trkpt lat="60.42739" lon="7.75773">
        <ele>1159.49</ele>
        <time>2019-04-03T11:09:00Z</time>
      </trkpt>
      <trkpt lat="60.42729" lon="7.75762">
        <ele>1162.85</ele>
        <time>2019-04-03T11:09:05Z</time>
      </trkpt>
      <trkpt lat="60.42722" lon="7.7574">
        <ele>1164.29</ele>
        <time>2019-04-03T11:09:09Z</time>
      </trkpt>
      <trkpt lat="60.4271" lon="7.75727">
        <ele>1165.26</ele>
        <time>2019-04-03T11:09:13Z</time>
      </trkpt>
      <trkpt lat="60.42699" lon="7.75704">
        <ele>1166.22</ele>
        <time>2019-04-03T11:09:18Z</time>
      </trkpt>
      <trkpt lat="60.42695" lon="7.7568">
        <ele>1166.22</ele>
        <time>2019-04-03T11:09:21Z</time>
      </trkpt>
      <trkpt lat="60.42688" lon="7.75669">
        <ele>1166.22</ele>
        <time>2019-04-03T11:09:23Z</time>
      </trkpt>
      <trkpt lat="60.4267" lon="7.75657">
        <ele>1166.22</ele>
        <time>2019-04-03T11:09:27Z</time>
      </trkpt>
      <trkpt lat="60.42655" lon="7.75624">
        <ele>1167.66</ele>
        <time>2019-04-03T11:09:33Z</time>
      </trkpt>
      <trkpt lat="60.42648" lon="7.75589">
        <ele>1167.66</ele>
        <time>2019-04-03T11:09:38Z</time>
      </trkpt>
      <trkpt lat="60.42628" lon="7.75577">
        <ele>1165.74</ele>
        <time>2019-04-03T11:09:42Z</time>
      </trkpt>
      <trkpt lat="60.42611" lon="7.75573">
        <ele>1165.74</ele>
        <time>2019-04-03T11:09:45Z</time>
      </trkpt>
      <trkpt lat="60.426" lon="7.7557">
        <ele>1165.74</ele>
        <time>2019-04-03T11:09:47Z</time>
      </trkpt>
      <trkpt lat="60.42591" lon="7.75569">
        <ele>1168.14</ele>
        <time>2019-04-03T11:09:49Z</time>
      </trkpt>
      <trkpt lat="60.42589" lon="7.75569">
        <ele>1171.02</ele>
        <time>2019-04-03T11:09:50Z</time>
      </trkpt>
      <trkpt lat="60.42586" lon="7.75567">
        <ele>1171.02</ele>
        <time>2019-04-03T11:09:51Z</time>
      </trkpt>
      <trkpt lat="60.42581" lon="7.75558">
        <ele>1171.5</ele>
        <time>2019-04-03T11:09:53Z</time>
      </trkpt>
      <trkpt lat="60.42568" lon="7.75544">
        <ele>1173.43</ele>
        <time>2019-04-03T11:09:57Z</time>
      </trkpt>
      <trkpt lat="60.42557" lon="7.75531">
        <ele>1174.87</ele>
        <time>2019-04-03T11:10:02Z</time>
      </trkpt>
      <trkpt lat="60.42552" lon="7.7552">
        <ele>1176.31</ele>
        <time>2019-04-03T11:10:04Z</time>
      </trkpt>
      <trkpt lat="60.4254" lon="7.75497">
        <ele>1176.79</ele>
        <time>2019-04-03T11:10:10Z</time>
      </trkpt>
      <trkpt lat="60.42536" lon="7.75494">
        <ele>1178.23</ele>
        <time>2019-04-03T11:10:12Z</time>
      </trkpt>
      <trkpt lat="60.42523" lon="7.75469">
        <ele>1179.19</ele>
        <time>2019-04-03T11:10:19Z</time>
      </trkpt>
      <trkpt lat="60.42522" lon="7.75468">
        <ele>1180.16</ele>
        <time>2019-04-03T11:10:23Z</time>
      </trkpt>
      <trkpt lat="60.42509" lon="7.75449">
        <ele>1180.64</ele>
        <time>2019-04-03T11:10:29Z</time>
      </trkpt>
      <trkpt lat="60.42502" lon="7.75446">
        <ele>1180.64</ele>
        <time>2019-04-03T11:10:32Z</time>
      </trkpt>
      <trkpt lat="60.42493" lon="7.75436">
        <ele>1179.19</ele>
        <time>2019-04-03T11:10:36Z</time>
      </trkpt>
      <trkpt lat="60.42489" lon="7.75433">
        <ele>1181.6</ele>
        <time>2019-04-03T11:10:38Z</time>
      </trkpt>
      <trkpt lat="60.4248" lon="7.75416">
        <ele>1180.16</ele>
        <time>2019-04-03T11:10:42Z</time>
      </trkpt>
      <trkpt lat="60.42473" lon="7.75398">
        <ele>1179.19</ele>
        <time>2019-04-03T11:10:45Z</time>
      </trkpt>
      <trkpt lat="60.42462" lon="7.75384">
        <ele>1178.23</ele>
        <time>2019-04-03T11:10:49Z</time>
      </trkpt>
      <trkpt lat="60.42458" lon="7.7538">
        <ele>1178.23</ele>
        <time>2019-04-03T11:10:51Z</time>
      </trkpt>
      <trkpt lat="60.42455" lon="7.75378">
        <ele>1178.23</ele>
        <time>2019-04-03T11:11:02Z</time>
      </trkpt>
      <trkpt lat="60.42455" lon="7.75378">
        <ele>1178.23</ele>
        <time>2019-04-03T11:11:03Z</time>
      </trkpt>
      <trkpt lat="60.42456" lon="7.75379">
        <ele>1178.23</ele>
        <time>2019-04-03T11:11:31Z</time>
      </trkpt>
      <trkpt lat="60.42456" lon="7.75376">
        <ele>1178.23</ele>
        <time>2019-04-03T11:11:55Z</time>
      </trkpt>
      <trkpt lat="60.42458" lon="7.75377">
        <ele>1178.23</ele>
        <time>2019-04-03T11:12:28Z</time>
      </trkpt>
      <trkpt lat="60.42459" lon="7.75375">
        <ele>1178.23</ele>
        <time>2019-04-03T11:12:56Z</time>
      </trkpt>
      <trkpt lat="60.42459" lon="7.75375">
        <ele>1178.23</ele>
        <time>2019-04-03T11:13:33Z</time>
      </trkpt>
      <trkpt lat="60.42456" lon="7.75375">
        <ele>1178.23</ele>
        <time>2019-04-03T11:14:03Z</time>
      </trkpt>
      <trkpt lat="60.42456" lon="7.75375">
        <ele>1178.71</ele>
        <time>2019-04-03T11:14:26Z</time>
      </trkpt>
      <trkpt lat="60.4245" lon="7.75363">
        <ele>1177.27</ele>
        <time>2019-04-03T11:14:34Z</time>
      </trkpt>
      <trkpt lat="60.42446" lon="7.7535">
        <ele>1176.31</ele>
        <time>2019-04-03T11:14:38Z</time>
      </trkpt>
      <trkpt lat="60.42436" lon="7.75312">
        <ele>1175.83</ele>
        <time>2019-04-03T11:14:46Z</time>
      </trkpt>
      <trkpt lat="60.42422" lon="7.75289">
        <ele>1174.87</ele>
        <time>2019-04-03T11:14:50Z</time>
      </trkpt>
      <trkpt lat="60.42406" lon="7.75254">
        <ele>1174.39</ele>
        <time>2019-04-03T11:14:56Z</time>
      </trkpt>
      <trkpt lat="60.42412" lon="7.75192">
        <ele>1174.39</ele>
        <time>2019-04-03T11:15:02Z</time>
      </trkpt>
      <trkpt lat="60.42417" lon="7.75143">
        <ele>1174.39</ele>
        <time>2019-04-03T11:15:06Z</time>
      </trkpt>
      <trkpt lat="60.42417" lon="7.75123">
        <ele>1174.39</ele>
        <time>2019-04-03T11:15:08Z</time>
      </trkpt>
      <trkpt lat="60.42419" lon="7.75102">
        <ele>1176.31</ele>
        <time>2019-04-03T11:15:10Z</time>
      </trkpt>
      <trkpt lat="60.42407" lon="7.75063">
        <ele>1177.75</ele>
        <time>2019-04-03T11:15:15Z</time>
      </trkpt>
      <trkpt lat="60.42371" lon="7.75032">
        <ele>1175.35</ele>
        <time>2019-04-03T11:15:22Z</time>
      </trkpt>
      <trkpt lat="60.42361" lon="7.75038">
        <ele>1179.67</ele>
        <time>2019-04-03T11:15:24Z</time>
      </trkpt>
      <trkpt lat="60.42355" lon="7.75036">
        <ele>1180.16</ele>
        <time>2019-04-03T11:15:25Z</time>
      </trkpt>
      <trkpt lat="60.42348" lon="7.75025">
        <ele>1180.16</ele>
        <time>2019-04-03T11:15:27Z</time>
      </trkpt>
      <trkpt lat="60.42337" lon="7.75005">
        <ele>1183.04</ele>
        <time>2019-04-03T11:15:31Z</time>
      </trkpt>
      <trkpt lat="60.42325" lon="7.74975">
        <ele>1185.44</ele>
        <time>2019-04-03T11:15:36Z</time>
      </trkpt>
      <trkpt lat="60.4231" lon="7.7495">
        <ele>1186.4</ele>
        <time>2019-04-03T11:15:42Z</time>
      </trkpt>
      <trkpt lat="60.42293" lon="7.74921">
        <ele>1188.33</ele>
        <time>2019-04-03T11:15:47Z</time>
      </trkpt>
      <trkpt lat="60.42275" lon="7.74895">
        <ele>1190.73</ele>
        <time>2019-04-03T11:15:52Z</time>
      </trkpt>
      <trkpt lat="60.42256" lon="7.74852">
        <ele>1192.17</ele>
        <time>2019-04-03T11:15:58Z</time>
      </trkpt>
      <trkpt lat="60.42248" lon="7.7483">
        <ele>1192.65</ele>
        <time>2019-04-03T11:16:01Z</time>
      </trkpt>
      <trkpt lat="60.42237" lon="7.74782">
        <ele>1193.61</ele>
        <time>2019-04-03T11:16:06Z</time>
      </trkpt>
      <trkpt lat="60.42242" lon="7.74727">
        <ele>1194.09</ele>
        <time>2019-04-03T11:16:10Z</time>
      </trkpt>
      <trkpt lat="60.42242" lon="7.74677">
        <ele>1190.25</ele>
        <time>2019-04-03T11:16:15Z</time>
      </trkpt>
      <trkpt lat="60.42242" lon="7.74675">
        <ele>1190.25</ele>
        <time>2019-04-03T11:16:22Z</time>
      </trkpt>
      <trkpt lat="60.42242" lon="7.74677">
        <ele>1190.73</ele>
        <time>2019-04-03T11:16:43Z</time>
      </trkpt>
      <trkpt lat="60.42241" lon="7.74678">
        <ele>1190.73</ele>
        <time>2019-04-03T11:17:04Z</time>
      </trkpt>
      <trkpt lat="60.42241" lon="7.74683">
        <ele>1190.73</ele>
        <time>2019-04-03T11:17:16Z</time>
      </trkpt>
      <trkpt lat="60.42244" lon="7.74684">
        <ele>1190.73</ele>
        <time>2019-04-03T11:17:29Z</time>
      </trkpt>
      <trkpt lat="60.42244" lon="7.74685">
        <ele>1185.92</ele>
        <time>2019-04-03T11:17:45Z</time>
      </trkpt>
      <trkpt lat="60.42244" lon="7.74685">
        <ele>1179.19</ele>
        <time>2019-04-03T11:17:46Z</time>
      </trkpt>
      <trkpt lat="60.42245" lon="7.74684">
        <ele>1199.38</ele>
        <time>2019-04-03T11:17:47Z</time>
      </trkpt>
      <trkpt lat="60.42245" lon="7.74685">
        <ele>1191.21</ele>
        <time>2019-04-03T11:17:48Z</time>
      </trkpt>
      <trkpt lat="60.42245" lon="7.74685">
        <ele>1187.85</ele>
        <time>2019-04-03T11:17:49Z</time>
      </trkpt>
      <trkpt lat="60.42245" lon="7.74685">
        <ele>1189.29</ele>
        <time>2019-04-03T11:17:50Z</time>
      </trkpt>
      <trkpt lat="60.42245" lon="7.74685">
        <ele>1192.17</ele>
        <time>2019-04-03T11:17:51Z</time>
      </trkpt>
      <trkpt lat="60.42245" lon="7.74685">
        <ele>1201.3</ele>
        <time>2019-04-03T11:17:52Z</time>
      </trkpt>
      <trkpt lat="60.42245" lon="7.74685">
        <ele>1193.13</ele>
        <time>2019-04-03T11:17:53Z</time>
      </trkpt>
      <trkpt lat="60.42244" lon="7.74686">
        <ele>1187.37</ele>
        <time>2019-04-03T11:17:54Z</time>
      </trkpt>
      <trkpt lat="60.42244" lon="7.74687">
        <ele>1194.09</ele>
        <time>2019-04-03T11:17:55Z</time>
      </trkpt>
      <trkpt lat="60.42244" lon="7.74689">
        <ele>1190.25</ele>
        <time>2019-04-03T11:17:57Z</time>
      </trkpt>
      <trkpt lat="60.42245" lon="7.7469">
        <ele>1190.25</ele>
        <time>2019-04-03T11:17:58Z</time>
      </trkpt>
      <trkpt lat="60.42245" lon="7.74689">
        <ele>1187.37</ele>
        <time>2019-04-03T11:18:01Z</time>
      </trkpt>
      <trkpt lat="60.42243" lon="7.74687">
        <ele>1183.04</ele>
        <time>2019-04-03T11:18:07Z</time>
      </trkpt>
      <trkpt lat="60.42243" lon="7.74687">
        <ele>1191.69</ele>
        <time>2019-04-03T11:18:08Z</time>
      </trkpt>
      <trkpt lat="60.42243" lon="7.74687">
        <ele>1191.69</ele>
        <time>2019-04-03T11:18:09Z</time>
      </trkpt>
      <trkpt lat="60.42243" lon="7.74686">
        <ele>1184.96</ele>
        <time>2019-04-03T11:18:15Z</time>
      </trkpt>
      <trkpt lat="60.42243" lon="7.74686">
        <ele>1188.81</ele>
        <time>2019-04-03T11:18:16Z</time>
      </trkpt>
      <trkpt lat="60.42241" lon="7.74682">
        <ele>1186.88</ele>
        <time>2019-04-03T11:18:45Z</time>
      </trkpt>
      <trkpt lat="60.42241" lon="7.74682">
        <ele>1190.25</ele>
        <time>2019-04-03T11:18:56Z</time>
      </trkpt>
      <trkpt lat="60.42242" lon="7.74682">
        <ele>1190.25</ele>
        <time>2019-04-03T11:19:09Z</time>
      </trkpt>
      <trkpt lat="60.42242" lon="7.74682">
        <ele>1190.25</ele>
        <time>2019-04-03T11:19:17Z</time>
      </trkpt>
      <trkpt lat="60.42241" lon="7.74678">
        <ele>1193.13</ele>
        <time>2019-04-03T11:19:20Z</time>
      </trkpt>
      <trkpt lat="60.42241" lon="7.74677">
        <ele>1189.77</ele>
        <time>2019-04-03T11:19:21Z</time>
      </trkpt>
      <trkpt lat="60.42241" lon="7.74676">
        <ele>1188.81</ele>
        <time>2019-04-03T11:19:23Z</time>
      </trkpt>
      <trkpt lat="60.42242" lon="7.74675">
        <ele>1189.77</ele>
        <time>2019-04-03T11:19:41Z</time>
      </trkpt>
      <trkpt lat="60.42242" lon="7.74673">
        <ele>1189.77</ele>
        <time>2019-04-03T11:20:02Z</time>
      </trkpt>
      <trkpt lat="60.42241" lon="7.74673">
        <ele>1189.77</ele>
        <time>2019-04-03T11:20:21Z</time>
      </trkpt>
      <trkpt lat="60.42241" lon="7.74672">
        <ele>1189.29</ele>
        <time>2019-04-03T11:20:30Z</time>
      </trkpt>
      <trkpt lat="60.42232" lon="7.74634">
        <ele>1189.29</ele>
        <time>2019-04-03T11:20:36Z</time>
      </trkpt>
      <trkpt lat="60.42229" lon="7.74618">
        <ele>1191.21</ele>
        <time>2019-04-03T11:20:38Z</time>
      </trkpt>
      <trkpt lat="60.42218" lon="7.74581">
        <ele>1191.21</ele>
        <time>2019-04-03T11:20:43Z</time>
      </trkpt>
      <trkpt lat="60.42212" lon="7.74557">
        <ele>1191.21</ele>
        <time>2019-04-03T11:20:46Z</time>
      </trkpt>
      <trkpt lat="60.42184" lon="7.74501">
        <ele>1191.21</ele>
        <time>2019-04-03T11:20:53Z</time>
      </trkpt>
      <trkpt lat="60.42165" lon="7.74449">
        <ele>1190.73</ele>
        <time>2019-04-03T11:20:58Z</time>
      </trkpt>
      <trkpt lat="60.42158" lon="7.74432">
        <ele>1188.33</ele>
        <time>2019-04-03T11:21:00Z</time>
      </trkpt>
      <trkpt lat="60.42149" lon="7.74403">
        <ele>1190.25</ele>
        <time>2019-04-03T11:21:07Z</time>
      </trkpt>
      <trkpt lat="60.42149" lon="7.74398">
        <ele>1190.25</ele>
        <time>2019-04-03T11:21:08Z</time>
      </trkpt>
      <trkpt lat="60.4215" lon="7.74371">
        <ele>1191.21</ele>
        <time>2019-04-03T11:21:14Z</time>
      </trkpt>
      <trkpt lat="60.42156" lon="7.74345">
        <ele>1192.65</ele>
        <time>2019-04-03T11:21:18Z</time>
      </trkpt>
      <trkpt lat="60.42165" lon="7.74324">
        <ele>1196.02</ele>
        <time>2019-04-03T11:21:21Z</time>
      </trkpt>
      <trkpt lat="60.42179" lon="7.74265">
        <ele>1198.9</ele>
        <time>2019-04-03T11:21:28Z</time>
      </trkpt>
      <trkpt lat="60.42178" lon="7.74219">
        <ele>1200.82</ele>
        <time>2019-04-03T11:21:34Z</time>
      </trkpt>
      <trkpt lat="60.42177" lon="7.74186">
        <ele>1201.3</ele>
        <time>2019-04-03T11:21:38Z</time>
      </trkpt>
      <trkpt lat="60.42181" lon="7.74132">
        <ele>1202.27</ele>
        <time>2019-04-03T11:21:43Z</time>
      </trkpt>
      <trkpt lat="60.42177" lon="7.74108">
        <ele>1202.75</ele>
        <time>2019-04-03T11:21:46Z</time>
      </trkpt>
      <trkpt lat="60.42164" lon="7.74076">
        <ele>1204.19</ele>
        <time>2019-04-03T11:21:51Z</time>
      </trkpt>
      <trkpt lat="60.42166" lon="7.74029">
        <ele>1204.67</ele>
        <time>2019-04-03T11:21:56Z</time>
      </trkpt>
      <trkpt lat="60.42161" lon="7.73977">
        <ele>1204.19</ele>
        <time>2019-04-03T11:22:03Z</time>
      </trkpt>
      <trkpt lat="60.42151" lon="7.73952">
        <ele>1203.71</ele>
        <time>2019-04-03T11:22:07Z</time>
      </trkpt>
      <trkpt lat="60.42147" lon="7.73944">
        <ele>1204.67</ele>
        <time>2019-04-03T11:22:10Z</time>
      </trkpt>
      <trkpt lat="60.42133" lon="7.73897">
        <ele>1205.63</ele>
        <time>2019-04-03T11:22:18Z</time>
      </trkpt>
      <trkpt lat="60.42124" lon="7.73856">
        <ele>1202.75</ele>
        <time>2019-04-03T11:22:25Z</time>
      </trkpt>
      <trkpt lat="60.42122" lon="7.73849">
        <ele>1206.11</ele>
        <time>2019-04-03T11:22:26Z</time>
      </trkpt>
      <trkpt lat="60.42117" lon="7.7384">
        <ele>1206.59</ele>
        <time>2019-04-03T11:22:28Z</time>
      </trkpt>
      <trkpt lat="60.42104" lon="7.73796">
        <ele>1206.59</ele>
        <time>2019-04-03T11:22:35Z</time>
      </trkpt>
      <trkpt lat="60.42108" lon="7.73769">
        <ele>1206.59</ele>
        <time>2019-04-03T11:22:39Z</time>
      </trkpt>
      <trkpt lat="60.42112" lon="7.73751">
        <ele>1206.59</ele>
        <time>2019-04-03T11:22:41Z</time>
      </trkpt>
      <trkpt lat="60.42114" lon="7.73734">
        <ele>1205.15</ele>
        <time>2019-04-03T11:22:43Z</time>
      </trkpt>
      <trkpt lat="60.42115" lon="7.7372">
        <ele>1204.67</ele>
        <time>2019-04-03T11:22:45Z</time>
      </trkpt>
      <trkpt lat="60.42112" lon="7.73658">
        <ele>1201.79</ele>
        <time>2019-04-03T11:22:51Z</time>
      </trkpt>
      <trkpt lat="60.4211" lon="7.73621">
        <ele>1199.86</ele>
        <time>2019-04-03T11:22:54Z</time>
      </trkpt>
      <trkpt lat="60.42114" lon="7.73569">
        <ele>1197.94</ele>
        <time>2019-04-03T11:22:58Z</time>
      </trkpt>
      <trkpt lat="60.4212" lon="7.7352">
        <ele>1196.02</ele>
        <time>2019-04-03T11:23:03Z</time>
      </trkpt>
      <trkpt lat="60.42116" lon="7.73476">
        <ele>1196.02</ele>
        <time>2019-04-03T11:23:09Z</time>
      </trkpt>
      <trkpt lat="60.42109" lon="7.73462">
        <ele>1196.5</ele>
        <time>2019-04-03T11:23:14Z</time>
      </trkpt>
      <trkpt lat="60.42099" lon="7.73437">
        <ele>1195.06</ele>
        <time>2019-04-03T11:23:18Z</time>
      </trkpt>
      <trkpt lat="60.42074" lon="7.73377">
        <ele>1196.5</ele>
        <time>2019-04-03T11:23:28Z</time>
      </trkpt>
      <trkpt lat="60.42072" lon="7.73367">
        <ele>1195.06</ele>
        <time>2019-04-03T11:23:30Z</time>
      </trkpt>
      <trkpt lat="60.42071" lon="7.73352">
        <ele>1196.02</ele>
        <time>2019-04-03T11:23:32Z</time>
      </trkpt>
      <trkpt lat="60.42063" lon="7.73323">
        <ele>1196.02</ele>
        <time>2019-04-03T11:23:37Z</time>
      </trkpt>
      <trkpt lat="60.42062" lon="7.7331">
        <ele>1197.46</ele>
        <time>2019-04-03T11:23:39Z</time>
      </trkpt>
      <trkpt lat="60.42062" lon="7.73278">
        <ele>1198.9</ele>
        <time>2019-04-03T11:23:43Z</time>
      </trkpt>
      <trkpt lat="60.42064" lon="7.73267">
        <ele>1198.9</ele>
        <time>2019-04-03T11:23:44Z</time>
      </trkpt>
      <trkpt lat="60.4207" lon="7.73188">
        <ele>1196.98</ele>
        <time>2019-04-03T11:23:51Z</time>
      </trkpt>
      <trkpt lat="60.42078" lon="7.73112">
        <ele>1196.02</ele>
        <time>2019-04-03T11:23:57Z</time>
      </trkpt>
      <trkpt lat="60.42075" lon="7.73074">
        <ele>1195.54</ele>
        <time>2019-04-03T11:24:01Z</time>
      </trkpt>
      <trkpt lat="60.42077" lon="7.73043">
        <ele>1195.54</ele>
        <time>2019-04-03T11:24:04Z</time>
      </trkpt>
      <trkpt lat="60.42077" lon="7.73011">
        <ele>1195.54</ele>
        <time>2019-04-03T11:24:07Z</time>
      </trkpt>
      <trkpt lat="60.42074" lon="7.72966">
        <ele>1195.54</ele>
        <time>2019-04-03T11:24:12Z</time>
      </trkpt>
      <trkpt lat="60.42068" lon="7.72953">
        <ele>1195.54</ele>
        <time>2019-04-03T11:24:14Z</time>
      </trkpt>
      <trkpt lat="60.42059" lon="7.72942">
        <ele>1194.09</ele>
        <time>2019-04-03T11:24:16Z</time>
      </trkpt>
      <trkpt lat="60.42053" lon="7.72938">
        <ele>1194.09</ele>
        <time>2019-04-03T11:24:17Z</time>
      </trkpt>
      <trkpt lat="60.42048" lon="7.72892">
        <ele>1196.02</ele>
        <time>2019-04-03T11:24:23Z</time>
      </trkpt>
      <trkpt lat="60.42052" lon="7.72872">
        <ele>1196.02</ele>
        <time>2019-04-03T11:24:25Z</time>
      </trkpt>
      <trkpt lat="60.42057" lon="7.7284">
        <ele>1195.54</ele>
        <time>2019-04-03T11:24:28Z</time>
      </trkpt>
      <trkpt lat="60.42058" lon="7.72805">
        <ele>1194.58</ele>
        <time>2019-04-03T11:24:31Z</time>
      </trkpt>
      <trkpt lat="60.42058" lon="7.72786">
        <ele>1194.09</ele>
        <time>2019-04-03T11:24:33Z</time>
      </trkpt>
      <trkpt lat="60.42062" lon="7.72736">
        <ele>1193.13</ele>
        <time>2019-04-03T11:24:38Z</time>
      </trkpt>
      <trkpt lat="60.42061" lon="7.72645">
        <ele>1193.13</ele>
        <time>2019-04-03T11:24:46Z</time>
      </trkpt>
      <trkpt lat="60.42054" lon="7.72607">
        <ele>1193.13</ele>
        <time>2019-04-03T11:24:51Z</time>
      </trkpt>
      <trkpt lat="60.42047" lon="7.72563">
        <ele>1192.65</ele>
        <time>2019-04-03T11:24:56Z</time>
      </trkpt>
      <trkpt lat="60.42025" lon="7.72537">
        <ele>1192.65</ele>
        <time>2019-04-03T11:25:01Z</time>
      </trkpt>
      <trkpt lat="60.42009" lon="7.72514">
        <ele>1194.09</ele>
        <time>2019-04-03T11:25:06Z</time>
      </trkpt>
      <trkpt lat="60.42002" lon="7.72496">
        <ele>1191.21</ele>
        <time>2019-04-03T11:25:13Z</time>
      </trkpt>
      <trkpt lat="60.42002" lon="7.72495">
        <ele>1194.58</ele>
        <time>2019-04-03T11:25:14Z</time>
      </trkpt>
      <trkpt lat="60.41993" lon="7.72464">
        <ele>1194.58</ele>
        <time>2019-04-03T11:25:20Z</time>
      </trkpt>
      <trkpt lat="60.41971" lon="7.72419">
        <ele>1196.02</ele>
        <time>2019-04-03T11:25:30Z</time>
      </trkpt>
      <trkpt lat="60.4197" lon="7.72418">
        <ele>1196.02</ele>
        <time>2019-04-03T11:25:31Z</time>
      </trkpt>
      <trkpt lat="60.41966" lon="7.7241">
        <ele>1194.09</ele>
        <time>2019-04-03T11:25:35Z</time>
      </trkpt>
      <trkpt lat="60.41957" lon="7.724">
        <ele>1196.5</ele>
        <time>2019-04-03T11:25:37Z</time>
      </trkpt>
      <trkpt lat="60.41935" lon="7.7237">
        <ele>1195.06</ele>
        <time>2019-04-03T11:25:42Z</time>
      </trkpt>
      <trkpt lat="60.41923" lon="7.72361">
        <ele>1191.21</ele>
        <time>2019-04-03T11:25:44Z</time>
      </trkpt>
      <trkpt lat="60.41916" lon="7.7236">
        <ele>1194.09</ele>
        <time>2019-04-03T11:25:45Z</time>
      </trkpt>
      <trkpt lat="60.4191" lon="7.72358">
        <ele>1193.13</ele>
        <time>2019-04-03T11:25:46Z</time>
      </trkpt>
      <trkpt lat="60.41876" lon="7.72349">
        <ele>1194.58</ele>
        <time>2019-04-03T11:25:52Z</time>
      </trkpt>
      <trkpt lat="60.41866" lon="7.72344">
        <ele>1196.02</ele>
        <time>2019-04-03T11:25:55Z</time>
      </trkpt>
      <trkpt lat="60.41837" lon="7.72341">
        <ele>1195.06</ele>
        <time>2019-04-03T11:26:03Z</time>
      </trkpt>
      <trkpt lat="60.4182" lon="7.72328">
        <ele>1196.02</ele>
        <time>2019-04-03T11:26:12Z</time>
      </trkpt>
      <trkpt lat="60.41804" lon="7.72305">
        <ele>1195.54</ele>
        <time>2019-04-03T11:26:20Z</time>
      </trkpt>
      <trkpt lat="60.41791" lon="7.72277">
        <ele>1194.58</ele>
        <time>2019-04-03T11:26:24Z</time>
      </trkpt>
      <trkpt lat="60.41782" lon="7.72256">
        <ele>1194.09</ele>
        <time>2019-04-03T11:26:28Z</time>
      </trkpt>
      <trkpt lat="60.41775" lon="7.72246">
        <ele>1195.54</ele>
        <time>2019-04-03T11:26:30Z</time>
      </trkpt>
      <trkpt lat="60.41766" lon="7.72239">
        <ele>1195.54</ele>
        <time>2019-04-03T11:26:32Z</time>
      </trkpt>
      <trkpt lat="60.41757" lon="7.7223">
        <ele>1194.09</ele>
        <time>2019-04-03T11:26:34Z</time>
      </trkpt>
      <trkpt lat="60.41749" lon="7.72217">
        <ele>1196.98</ele>
        <time>2019-04-03T11:26:36Z</time>
      </trkpt>
      <trkpt lat="60.41738" lon="7.72198">
        <ele>1194.58</ele>
        <time>2019-04-03T11:26:39Z</time>
      </trkpt>
      <trkpt lat="60.41728" lon="7.7219">
        <ele>1196.5</ele>
        <time>2019-04-03T11:26:41Z</time>
      </trkpt>
      <trkpt lat="60.41713" lon="7.72176">
        <ele>1196.5</ele>
        <time>2019-04-03T11:26:44Z</time>
      </trkpt>
      <trkpt lat="60.41701" lon="7.72155">
        <ele>1196.5</ele>
        <time>2019-04-03T11:26:47Z</time>
      </trkpt>
      <trkpt lat="60.41683" lon="7.72146">
        <ele>1198.42</ele>
        <time>2019-04-03T11:26:51Z</time>
      </trkpt>
      <trkpt lat="60.4168" lon="7.72145">
        <ele>1198.42</ele>
        <time>2019-04-03T11:26:52Z</time>
      </trkpt>
      <trkpt lat="60.41672" lon="7.7212">
        <ele>1198.9</ele>
        <time>2019-04-03T11:26:56Z</time>
      </trkpt>
      <trkpt lat="60.41672" lon="7.72047">
        <ele>1196.98</ele>
        <time>2019-04-03T11:27:02Z</time>
      </trkpt>
      <trkpt lat="60.4167" lon="7.72012">
        <ele>1195.06</ele>
        <time>2019-04-03T11:27:05Z</time>
      </trkpt>
      <trkpt lat="60.41672" lon="7.7199">
        <ele>1194.58</ele>
        <time>2019-04-03T11:27:07Z</time>
      </trkpt>
      <trkpt lat="60.41668" lon="7.71962">
        <ele>1193.61</ele>
        <time>2019-04-03T11:27:10Z</time>
      </trkpt>
      <trkpt lat="60.41646" lon="7.71941">
        <ele>1193.61</ele>
        <time>2019-04-03T11:27:16Z</time>
      </trkpt>
      <trkpt lat="60.41643" lon="7.7194">
        <ele>1193.61</ele>
        <time>2019-04-03T11:27:17Z</time>
      </trkpt>
      <trkpt lat="60.41628" lon="7.71927">
        <ele>1194.58</ele>
        <time>2019-04-03T11:27:21Z</time>
      </trkpt>
      <trkpt lat="60.41609" lon="7.71893">
        <ele>1192.65</ele>
        <time>2019-04-03T11:27:27Z</time>
      </trkpt>
      <trkpt lat="60.41602" lon="7.71884">
        <ele>1195.06</ele>
        <time>2019-04-03T11:27:29Z</time>
      </trkpt>
      <trkpt lat="60.41584" lon="7.71862">
        <ele>1193.61</ele>
        <time>2019-04-03T11:27:34Z</time>
      </trkpt>
      <trkpt lat="60.41571" lon="7.71846">
        <ele>1194.58</ele>
        <time>2019-04-03T11:27:37Z</time>
      </trkpt>
      <trkpt lat="60.41556" lon="7.71815">
        <ele>1193.61</ele>
        <time>2019-04-03T11:27:42Z</time>
      </trkpt>
      <trkpt lat="60.41553" lon="7.71811">
        <ele>1192.17</ele>
        <time>2019-04-03T11:27:43Z</time>
      </trkpt>
      <trkpt lat="60.41536" lon="7.71787">
        <ele>1194.58</ele>
        <time>2019-04-03T11:27:48Z</time>
      </trkpt>
      <trkpt lat="60.41525" lon="7.71769">
        <ele>1193.13</ele>
        <time>2019-04-03T11:27:51Z</time>
      </trkpt>
      <trkpt lat="60.41502" lon="7.7173">
        <ele>1188.81</ele>
        <time>2019-04-03T11:27:57Z</time>
      </trkpt>
      <trkpt lat="60.41477" lon="7.71698">
        <ele>1187.85</ele>
        <time>2019-04-03T11:28:02Z</time>
      </trkpt>
      <trkpt lat="60.41466" lon="7.71689">
        <ele>1187.37</ele>
        <time>2019-04-03T11:28:04Z</time>
      </trkpt>
      <trkpt lat="60.41442" lon="7.7168">
        <ele>1185.44</ele>
        <time>2019-04-03T11:28:08Z</time>
      </trkpt>
      <trkpt lat="60.41421" lon="7.71677">
        <ele>1187.37</ele>
        <time>2019-04-03T11:28:12Z</time>
      </trkpt>
      <trkpt lat="60.41417" lon="7.71677">
        <ele>1187.37</ele>
        <time>2019-04-03T11:28:13Z</time>
      </trkpt>
      <trkpt lat="60.41393" lon="7.71665">
        <ele>1184</ele>
        <time>2019-04-03T11:28:18Z</time>
      </trkpt>
      <trkpt lat="60.4134" lon="7.71674">
        <ele>1182.56</ele>
        <time>2019-04-03T11:28:28Z</time>
      </trkpt>
      <trkpt lat="60.41309" lon="7.71684">
        <ele>1181.6</ele>
        <time>2019-04-03T11:28:33Z</time>
      </trkpt>
      <trkpt lat="60.41286" lon="7.71685">
        <ele>1181.6</ele>
        <time>2019-04-03T11:28:37Z</time>
      </trkpt>
      <trkpt lat="60.41264" lon="7.71691">
        <ele>1181.6</ele>
        <time>2019-04-03T11:28:41Z</time>
      </trkpt>
      <trkpt lat="60.41253" lon="7.71697">
        <ele>1181.12</ele>
        <time>2019-04-03T11:28:43Z</time>
      </trkpt>
      <trkpt lat="60.41236" lon="7.71702">
        <ele>1181.12</ele>
        <time>2019-04-03T11:28:46Z</time>
      </trkpt>
      <trkpt lat="60.41226" lon="7.71707">
        <ele>1179.67</ele>
        <time>2019-04-03T11:28:48Z</time>
      </trkpt>
      <trkpt lat="60.41204" lon="7.71734">
        <ele>1178.71</ele>
        <time>2019-04-03T11:28:53Z</time>
      </trkpt>
      <trkpt lat="60.41158" lon="7.71785">
        <ele>1178.71</ele>
        <time>2019-04-03T11:29:03Z</time>
      </trkpt>
      <trkpt lat="60.41149" lon="7.71797">
        <ele>1180.64</ele>
        <time>2019-04-03T11:29:05Z</time>
      </trkpt>
      <trkpt lat="60.4112" lon="7.7183">
        <ele>1179.67</ele>
        <time>2019-04-03T11:29:11Z</time>
      </trkpt>
      <trkpt lat="60.41076" lon="7.71864">
        <ele>1178.23</ele>
        <time>2019-04-03T11:29:19Z</time>
      </trkpt>
      <trkpt lat="60.41065" lon="7.71876">
        <ele>1176.31</ele>
        <time>2019-04-03T11:29:21Z</time>
      </trkpt>
      <trkpt lat="60.41051" lon="7.71894">
        <ele>1177.75</ele>
        <time>2019-04-03T11:29:24Z</time>
      </trkpt>
      <trkpt lat="60.41033" lon="7.71911">
        <ele>1179.19</ele>
        <time>2019-04-03T11:29:28Z</time>
      </trkpt>
      <trkpt lat="60.41024" lon="7.71921">
        <ele>1180.64</ele>
        <time>2019-04-03T11:29:30Z</time>
      </trkpt>
      <trkpt lat="60.41016" lon="7.71933">
        <ele>1181.6</ele>
        <time>2019-04-03T11:29:32Z</time>
      </trkpt>
      <trkpt lat="60.41008" lon="7.71946">
        <ele>1179.67</ele>
        <time>2019-04-03T11:29:34Z</time>
      </trkpt>
      <trkpt lat="60.40968" lon="7.72002">
        <ele>1178.23</ele>
        <time>2019-04-03T11:29:43Z</time>
      </trkpt>
      <trkpt lat="60.40963" lon="7.72007">
        <ele>1180.16</ele>
        <time>2019-04-03T11:29:45Z</time>
      </trkpt>
      <trkpt lat="60.4096" lon="7.72009">
        <ele>1180.64</ele>
        <time>2019-04-03T11:29:46Z</time>
      </trkpt>
      <trkpt lat="60.40937" lon="7.72033">
        <ele>1177.27</ele>
        <time>2019-04-03T11:29:51Z</time>
      </trkpt>
      <trkpt lat="60.40933" lon="7.72038">
        <ele>1177.27</ele>
        <time>2019-04-03T11:29:52Z</time>
      </trkpt>
      <trkpt lat="60.40923" lon="7.72051">
        <ele>1177.27</ele>
        <time>2019-04-03T11:29:54Z</time>
      </trkpt>
      <trkpt lat="60.40898" lon="7.72076">
        <ele>1178.23</ele>
        <time>2019-04-03T11:29:59Z</time>
      </trkpt>
      <trkpt lat="60.40894" lon="7.72079">
        <ele>1179.19</ele>
        <time>2019-04-03T11:30:00Z</time>
      </trkpt>
      <trkpt lat="60.40858" lon="7.72113">
        <ele>1179.19</ele>
        <time>2019-04-03T11:30:09Z</time>
      </trkpt>
      <trkpt lat="60.40827" lon="7.72135">
        <ele>1178.71</ele>
        <time>2019-04-03T11:30:17Z</time>
      </trkpt>
      <trkpt lat="60.4081" lon="7.72166">
        <ele>1180.16</ele>
        <time>2019-04-03T11:30:23Z</time>
      </trkpt>
      <trkpt lat="60.40807" lon="7.72171">
        <ele>1180.16</ele>
        <time>2019-04-03T11:30:24Z</time>
      </trkpt>
      <trkpt lat="60.40786" lon="7.72202">
        <ele>1178.23</ele>
        <time>2019-04-03T11:30:30Z</time>
      </trkpt>
      <trkpt lat="60.40758" lon="7.72241">
        <ele>1178.23</ele>
        <time>2019-04-03T11:30:37Z</time>
      </trkpt>
      <trkpt lat="60.40742" lon="7.72261">
        <ele>1179.67</ele>
        <time>2019-04-03T11:30:41Z</time>
      </trkpt>
      <trkpt lat="60.40738" lon="7.72265">
        <ele>1179.67</ele>
        <time>2019-04-03T11:30:42Z</time>
      </trkpt>
      <trkpt lat="60.40725" lon="7.72276">
        <ele>1178.23</ele>
        <time>2019-04-03T11:30:45Z</time>
      </trkpt>
      <trkpt lat="60.40711" lon="7.72293">
        <ele>1180.16</ele>
        <time>2019-04-03T11:30:49Z</time>
      </trkpt>
      <trkpt lat="60.40693" lon="7.72336">
        <ele>1181.6</ele>
        <time>2019-04-03T11:30:57Z</time>
      </trkpt>
      <trkpt lat="60.4067" lon="7.72377">
        <ele>1183.52</ele>
        <time>2019-04-03T11:31:06Z</time>
      </trkpt>
      <trkpt lat="60.40667" lon="7.72383">
        <ele>1183.52</ele>
        <time>2019-04-03T11:31:07Z</time>
      </trkpt>
      <trkpt lat="60.4065" lon="7.72416">
        <ele>1182.08</ele>
        <time>2019-04-03T11:31:13Z</time>
      </trkpt>
      <trkpt lat="60.40639" lon="7.72433">
        <ele>1181.6</ele>
        <time>2019-04-03T11:31:16Z</time>
      </trkpt>
      <trkpt lat="60.40627" lon="7.72455">
        <ele>1183.04</ele>
        <time>2019-04-03T11:31:19Z</time>
      </trkpt>
      <trkpt lat="60.40619" lon="7.72469">
        <ele>1182.08</ele>
        <time>2019-04-03T11:31:21Z</time>
      </trkpt>
      <trkpt lat="60.40609" lon="7.72488">
        <ele>1184</ele>
        <time>2019-04-03T11:31:24Z</time>
      </trkpt>
      <trkpt lat="60.40597" lon="7.72513">
        <ele>1184</ele>
        <time>2019-04-03T11:31:28Z</time>
      </trkpt>
      <trkpt lat="60.40582" lon="7.72543">
        <ele>1185.92</ele>
        <time>2019-04-03T11:31:33Z</time>
      </trkpt>
      <trkpt lat="60.40573" lon="7.72564">
        <ele>1183.52</ele>
        <time>2019-04-03T11:31:36Z</time>
      </trkpt>
      <trkpt lat="60.40549" lon="7.72639">
        <ele>1184.48</ele>
        <time>2019-04-03T11:31:47Z</time>
      </trkpt>
      <trkpt lat="60.40541" lon="7.72665">
        <ele>1184</ele>
        <time>2019-04-03T11:31:51Z</time>
      </trkpt>
      <trkpt lat="60.4053" lon="7.72705">
        <ele>1183.52</ele>
        <time>2019-04-03T11:31:56Z</time>
      </trkpt>
      <trkpt lat="60.40519" lon="7.72739">
        <ele>1181.6</ele>
        <time>2019-04-03T11:32:00Z</time>
      </trkpt>
      <trkpt lat="60.40512" lon="7.72758">
        <ele>1180.16</ele>
        <time>2019-04-03T11:32:02Z</time>
      </trkpt>
      <trkpt lat="60.40502" lon="7.72787">
        <ele>1179.19</ele>
        <time>2019-04-03T11:32:05Z</time>
      </trkpt>
      <trkpt lat="60.40494" lon="7.72805">
        <ele>1178.23</ele>
        <time>2019-04-03T11:32:07Z</time>
      </trkpt>
      <trkpt lat="60.4049" lon="7.72814">
        <ele>1178.23</ele>
        <time>2019-04-03T11:32:08Z</time>
      </trkpt>
      <trkpt lat="60.40477" lon="7.7284">
        <ele>1177.27</ele>
        <time>2019-04-03T11:32:11Z</time>
      </trkpt>
      <trkpt lat="60.40469" lon="7.72854">
        <ele>1178.71</ele>
        <time>2019-04-03T11:32:13Z</time>
      </trkpt>
      <trkpt lat="60.40457" lon="7.72874">
        <ele>1176.79</ele>
        <time>2019-04-03T11:32:17Z</time>
      </trkpt>
      <trkpt lat="60.40441" lon="7.72905">
        <ele>1179.19</ele>
        <time>2019-04-03T11:32:23Z</time>
      </trkpt>
      <trkpt lat="60.40428" lon="7.72931">
        <ele>1179.67</ele>
        <time>2019-04-03T11:32:31Z</time>
      </trkpt>
      <trkpt lat="60.40414" lon="7.72945">
        <ele>1178.23</ele>
        <time>2019-04-03T11:32:42Z</time>
      </trkpt>
      <trkpt lat="60.4041" lon="7.72949">
        <ele>1178.23</ele>
        <time>2019-04-03T11:32:43Z</time>
      </trkpt>
      <trkpt lat="60.40396" lon="7.7297">
        <ele>1176.79</ele>
        <time>2019-04-03T11:32:47Z</time>
      </trkpt>
      <trkpt lat="60.40382" lon="7.73001">
        <ele>1175.35</ele>
        <time>2019-04-03T11:32:52Z</time>
      </trkpt>
      <trkpt lat="60.40378" lon="7.73007">
        <ele>1174.87</ele>
        <time>2019-04-03T11:32:53Z</time>
      </trkpt>
      <trkpt lat="60.4036" lon="7.73034">
        <ele>1174.87</ele>
        <time>2019-04-03T11:33:01Z</time>
      </trkpt>
      <trkpt lat="60.40359" lon="7.73034">
        <ele>1176.31</ele>
        <time>2019-04-03T11:33:03Z</time>
      </trkpt>
      <trkpt lat="60.40359" lon="7.73034">
        <ele>1176.79</ele>
        <time>2019-04-03T11:33:24Z</time>
      </trkpt>
      <trkpt lat="60.40358" lon="7.73035">
        <ele>1176.79</ele>
        <time>2019-04-03T11:33:45Z</time>
      </trkpt>
      <trkpt lat="60.40358" lon="7.73035">
        <ele>1175.83</ele>
        <time>2019-04-03T11:34:02Z</time>
      </trkpt>
      <trkpt lat="60.40358" lon="7.73034">
        <ele>1175.35</ele>
        <time>2019-04-03T11:34:30Z</time>
      </trkpt>
      <trkpt lat="60.40356" lon="7.73035">
        <ele>1175.83</ele>
        <time>2019-04-03T11:34:43Z</time>
      </trkpt>
      <trkpt lat="60.4035" lon="7.73045">
        <ele>1175.35</ele>
        <time>2019-04-03T11:34:47Z</time>
      </trkpt>
      <trkpt lat="60.40342" lon="7.73055">
        <ele>1176.79</ele>
        <time>2019-04-03T11:34:51Z</time>
      </trkpt>
      <trkpt lat="60.40318" lon="7.73116">
        <ele>1177.27</ele>
        <time>2019-04-03T11:35:01Z</time>
      </trkpt>
      <trkpt lat="60.40309" lon="7.73141">
        <ele>1176.31</ele>
        <time>2019-04-03T11:35:04Z</time>
      </trkpt>
      <trkpt lat="60.40288" lon="7.73209">
        <ele>1177.75</ele>
        <time>2019-04-03T11:35:11Z</time>
      </trkpt>
      <trkpt lat="60.4026" lon="7.73292">
        <ele>1180.16</ele>
        <time>2019-04-03T11:35:21Z</time>
      </trkpt>
      <trkpt lat="60.40254" lon="7.73312">
        <ele>1177.27</ele>
        <time>2019-04-03T11:35:23Z</time>
      </trkpt>
      <trkpt lat="60.40242" lon="7.73351">
        <ele>1174.87</ele>
        <time>2019-04-03T11:35:27Z</time>
      </trkpt>
      <trkpt lat="60.40236" lon="7.7337">
        <ele>1173.91</ele>
        <time>2019-04-03T11:35:29Z</time>
      </trkpt>
      <trkpt lat="60.4023" lon="7.73388">
        <ele>1173.91</ele>
        <time>2019-04-03T11:35:31Z</time>
      </trkpt>
      <trkpt lat="60.40205" lon="7.73458">
        <ele>1171.98</ele>
        <time>2019-04-03T11:35:40Z</time>
      </trkpt>
      <trkpt lat="60.40193" lon="7.73494">
        <ele>1170.54</ele>
        <time>2019-04-03T11:35:44Z</time>
      </trkpt>
      <trkpt lat="60.40186" lon="7.7351">
        <ele>1169.1</ele>
        <time>2019-04-03T11:35:46Z</time>
      </trkpt>
      <trkpt lat="60.40181" lon="7.73532">
        <ele>1169.1</ele>
        <time>2019-04-03T11:35:49Z</time>
      </trkpt>
      <trkpt lat="60.40171" lon="7.73566">
        <ele>1166.22</ele>
        <time>2019-04-03T11:35:53Z</time>
      </trkpt>
      <trkpt lat="60.40168" lon="7.73576">
        <ele>1165.26</ele>
        <time>2019-04-03T11:35:54Z</time>
      </trkpt>
      <trkpt lat="60.40164" lon="7.73595">
        <ele>1164.29</ele>
        <time>2019-04-03T11:35:56Z</time>
      </trkpt>
      <trkpt lat="60.40159" lon="7.73615">
        <ele>1163.81</ele>
        <time>2019-04-03T11:35:58Z</time>
      </trkpt>
      <trkpt lat="60.40146" lon="7.73648">
        <ele>1163.81</ele>
        <time>2019-04-03T11:36:02Z</time>
      </trkpt>
      <trkpt lat="60.4013" lon="7.7369">
        <ele>1163.81</ele>
        <time>2019-04-03T11:36:07Z</time>
      </trkpt>
      <trkpt lat="60.4012" lon="7.7372">
        <ele>1163.81</ele>
        <time>2019-04-03T11:36:10Z</time>
      </trkpt>
      <trkpt lat="60.40112" lon="7.73739">
        <ele>1163.81</ele>
        <time>2019-04-03T11:36:12Z</time>
      </trkpt>
      <trkpt lat="60.40103" lon="7.73756">
        <ele>1165.26</ele>
        <time>2019-04-03T11:36:14Z</time>
      </trkpt>
      <trkpt lat="60.4008" lon="7.73799">
        <ele>1166.7</ele>
        <time>2019-04-03T11:36:21Z</time>
      </trkpt>
      <trkpt lat="60.40077" lon="7.73806">
        <ele>1164.77</ele>
        <time>2019-04-03T11:36:22Z</time>
      </trkpt>
      <trkpt lat="60.40071" lon="7.73822">
        <ele>1164.29</ele>
        <time>2019-04-03T11:36:24Z</time>
      </trkpt>
      <trkpt lat="60.40057" lon="7.73869">
        <ele>1161.89</ele>
        <time>2019-04-03T11:36:29Z</time>
      </trkpt>
      <trkpt lat="60.40048" lon="7.73895">
        <ele>1161.89</ele>
        <time>2019-04-03T11:36:32Z</time>
      </trkpt>
      <trkpt lat="60.40043" lon="7.73909">
        <ele>1165.74</ele>
        <time>2019-04-03T11:36:34Z</time>
      </trkpt>
      <trkpt lat="60.40034" lon="7.73925">
        <ele>1168.14</ele>
        <time>2019-04-03T11:36:37Z</time>
      </trkpt>
      <trkpt lat="60.40024" lon="7.73949">
        <ele>1169.58</ele>
        <time>2019-04-03T11:36:41Z</time>
      </trkpt>
      <trkpt lat="60.40014" lon="7.73977">
        <ele>1170.06</ele>
        <time>2019-04-03T11:36:45Z</time>
      </trkpt>
      <trkpt lat="60.40001" lon="7.7402">
        <ele>1167.66</ele>
        <time>2019-04-03T11:36:50Z</time>
      </trkpt>
      <trkpt lat="60.39997" lon="7.7403">
        <ele>1167.66</ele>
        <time>2019-04-03T11:36:51Z</time>
      </trkpt>
      <trkpt lat="60.39987" lon="7.74059">
        <ele>1166.22</ele>
        <time>2019-04-03T11:36:54Z</time>
      </trkpt>
      <trkpt lat="60.39965" lon="7.74116">
        <ele>1168.14</ele>
        <time>2019-04-03T11:37:00Z</time>
      </trkpt>
      <trkpt lat="60.39948" lon="7.74162">
        <ele>1169.58</ele>
        <time>2019-04-03T11:37:05Z</time>
      </trkpt>
      <trkpt lat="60.3994" lon="7.7418">
        <ele>1168.14</ele>
        <time>2019-04-03T11:37:07Z</time>
      </trkpt>
      <trkpt lat="60.39933" lon="7.74199">
        <ele>1169.58</ele>
        <time>2019-04-03T11:37:09Z</time>
      </trkpt>
      <trkpt lat="60.39906" lon="7.74255">
        <ele>1169.1</ele>
        <time>2019-04-03T11:37:16Z</time>
      </trkpt>
      <trkpt lat="60.39891" lon="7.74273">
        <ele>1170.54</ele>
        <time>2019-04-03T11:37:19Z</time>
      </trkpt>
      <trkpt lat="60.39871" lon="7.74308">
        <ele>1170.54</ele>
        <time>2019-04-03T11:37:24Z</time>
      </trkpt>
      <trkpt lat="60.39857" lon="7.74335">
        <ele>1171.98</ele>
        <time>2019-04-03T11:37:28Z</time>
      </trkpt>
      <trkpt lat="60.39837" lon="7.74368">
        <ele>1171.02</ele>
        <time>2019-04-03T11:37:33Z</time>
      </trkpt>
      <trkpt lat="60.39826" lon="7.74392">
        <ele>1171.02</ele>
        <time>2019-04-03T11:37:36Z</time>
      </trkpt>
      <trkpt lat="60.39808" lon="7.74424">
        <ele>1172.95</ele>
        <time>2019-04-03T11:37:41Z</time>
      </trkpt>
      <trkpt lat="60.39789" lon="7.74464">
        <ele>1172.95</ele>
        <time>2019-04-03T11:37:47Z</time>
      </trkpt>
      <trkpt lat="60.39761" lon="7.74509">
        <ele>1172.47</ele>
        <time>2019-04-03T11:37:54Z</time>
      </trkpt>
      <trkpt lat="60.39753" lon="7.74521">
        <ele>1171.02</ele>
        <time>2019-04-03T11:37:56Z</time>
      </trkpt>
      <trkpt lat="60.39741" lon="7.74541">
        <ele>1172.47</ele>
        <time>2019-04-03T11:38:00Z</time>
      </trkpt>
      <trkpt lat="60.39734" lon="7.74556">
        <ele>1172.95</ele>
        <time>2019-04-03T11:38:03Z</time>
      </trkpt>
      <trkpt lat="60.39722" lon="7.74576">
        <ele>1173.43</ele>
        <time>2019-04-03T11:38:11Z</time>
      </trkpt>
      <trkpt lat="60.39717" lon="7.7458">
        <ele>1173.91</ele>
        <time>2019-04-03T11:38:16Z</time>
      </trkpt>
      <trkpt lat="60.39713" lon="7.74581">
        <ele>1173.91</ele>
        <time>2019-04-03T11:38:18Z</time>
      </trkpt>
      <trkpt lat="60.39705" lon="7.74589">
        <ele>1171.98</ele>
        <time>2019-04-03T11:38:21Z</time>
      </trkpt>
      <trkpt lat="60.39701" lon="7.7459">
        <ele>1171.98</ele>
        <time>2019-04-03T11:38:22Z</time>
      </trkpt>
      <trkpt lat="60.39683" lon="7.74599">
        <ele>1170.06</ele>
        <time>2019-04-03T11:38:26Z</time>
      </trkpt>
      <trkpt lat="60.39675" lon="7.74609">
        <ele>1172.95</ele>
        <time>2019-04-03T11:38:30Z</time>
      </trkpt>
      <trkpt lat="60.39657" lon="7.74615">
        <ele>1171.02</ele>
        <time>2019-04-03T11:38:36Z</time>
      </trkpt>
      <trkpt lat="60.39641" lon="7.74638">
        <ele>1171.02</ele>
        <time>2019-04-03T11:38:41Z</time>
      </trkpt>
      <trkpt lat="60.39637" lon="7.74645">
        <ele>1171.98</ele>
        <time>2019-04-03T11:38:43Z</time>
      </trkpt>
      <trkpt lat="60.3962" lon="7.74657">
        <ele>1170.54</ele>
        <time>2019-04-03T11:38:50Z</time>
      </trkpt>
      <trkpt lat="60.39616" lon="7.74662">
        <ele>1170.54</ele>
        <time>2019-04-03T11:38:51Z</time>
      </trkpt>
      <trkpt lat="60.3961" lon="7.74671">
        <ele>1170.54</ele>
        <time>2019-04-03T11:38:53Z</time>
      </trkpt>
      <trkpt lat="60.39599" lon="7.74686">
        <ele>1170.54</ele>
        <time>2019-04-03T11:38:56Z</time>
      </trkpt>
      <trkpt lat="60.39585" lon="7.74709">
        <ele>1171.98</ele>
        <time>2019-04-03T11:39:00Z</time>
      </trkpt>
      <trkpt lat="60.39577" lon="7.74719">
        <ele>1170.06</ele>
        <time>2019-04-03T11:39:02Z</time>
      </trkpt>
      <trkpt lat="60.39573" lon="7.74724">
        <ele>1169.58</ele>
        <time>2019-04-03T11:39:03Z</time>
      </trkpt>
      <trkpt lat="60.39546" lon="7.74778">
        <ele>1170.54</ele>
        <time>2019-04-03T11:39:12Z</time>
      </trkpt>
      <trkpt lat="60.39532" lon="7.74792">
        <ele>1170.54</ele>
        <time>2019-04-03T11:39:16Z</time>
      </trkpt>
      <trkpt lat="60.39496" lon="7.74851">
        <ele>1171.02</ele>
        <time>2019-04-03T11:39:28Z</time>
      </trkpt>
      <trkpt lat="60.39477" lon="7.74891">
        <ele>1171.02</ele>
        <time>2019-04-03T11:39:36Z</time>
      </trkpt>
      <trkpt lat="60.39454" lon="7.74935">
        <ele>1169.1</ele>
        <time>2019-04-03T11:39:45Z</time>
      </trkpt>
      <trkpt lat="60.3945" lon="7.74946">
        <ele>1171.02</ele>
        <time>2019-04-03T11:39:47Z</time>
      </trkpt>
      <trkpt lat="60.39446" lon="7.74956">
        <ele>1169.58</ele>
        <time>2019-04-03T11:39:49Z</time>
      </trkpt>
      <trkpt lat="60.39437" lon="7.74985">
        <ele>1171.02</ele>
        <time>2019-04-03T11:39:58Z</time>
      </trkpt>
      <trkpt lat="60.39436" lon="7.74984">
        <ele>1171.02</ele>
        <time>2019-04-03T11:39:59Z</time>
      </trkpt>
      <trkpt lat="60.3943" lon="7.74984">
        <ele>1171.5</ele>
        <time>2019-04-03T11:40:16Z</time>
      </trkpt>
      <trkpt lat="60.39426" lon="7.74989">
        <ele>1171.5</ele>
        <time>2019-04-03T11:40:22Z</time>
      </trkpt>
      <trkpt lat="60.39411" lon="7.74998">
        <ele>1168.14</ele>
        <time>2019-04-03T11:40:27Z</time>
      </trkpt>
      <trkpt lat="60.39399" lon="7.75024">
        <ele>1169.58</ele>
        <time>2019-04-03T11:40:31Z</time>
      </trkpt>
      <trkpt lat="60.3938" lon="7.75074">
        <ele>1169.1</ele>
        <time>2019-04-03T11:40:40Z</time>
      </trkpt>
      <trkpt lat="60.3937" lon="7.75097">
        <ele>1171.02</ele>
        <time>2019-04-03T11:40:44Z</time>
      </trkpt>
      <trkpt lat="60.39364" lon="7.7511">
        <ele>1169.1</ele>
        <time>2019-04-03T11:40:46Z</time>
      </trkpt>
      <trkpt lat="60.3935" lon="7.75149">
        <ele>1168.62</ele>
        <time>2019-04-03T11:40:52Z</time>
      </trkpt>
      <trkpt lat="60.39324" lon="7.75221">
        <ele>1165.74</ele>
        <time>2019-04-03T11:41:02Z</time>
      </trkpt>
      <trkpt lat="60.39309" lon="7.7525">
        <ele>1164.29</ele>
        <time>2019-04-03T11:41:06Z</time>
      </trkpt>
      <trkpt lat="60.39305" lon="7.75257">
        <ele>1163.81</ele>
        <time>2019-04-03T11:41:07Z</time>
      </trkpt>
      <trkpt lat="60.39294" lon="7.75281">
        <ele>1160.93</ele>
        <time>2019-04-03T11:41:10Z</time>
      </trkpt>
      <trkpt lat="60.39281" lon="7.75326">
        <ele>1159.49</ele>
        <time>2019-04-03T11:41:15Z</time>
      </trkpt>
      <trkpt lat="60.39276" lon="7.75344">
        <ele>1158.05</ele>
        <time>2019-04-03T11:41:17Z</time>
      </trkpt>
      <trkpt lat="60.39266" lon="7.75372">
        <ele>1159.01</ele>
        <time>2019-04-03T11:41:20Z</time>
      </trkpt>
      <trkpt lat="60.39239" lon="7.75426">
        <ele>1154.2</ele>
        <time>2019-04-03T11:41:26Z</time>
      </trkpt>
      <trkpt lat="60.3923" lon="7.75444">
        <ele>1152.28</ele>
        <time>2019-04-03T11:41:28Z</time>
      </trkpt>
      <trkpt lat="60.392" lon="7.75501">
        <ele>1151.8</ele>
        <time>2019-04-03T11:41:35Z</time>
      </trkpt>
      <trkpt lat="60.39193" lon="7.75517">
        <ele>1153.72</ele>
        <time>2019-04-03T11:41:37Z</time>
      </trkpt>
      <trkpt lat="60.39187" lon="7.75533">
        <ele>1152.28</ele>
        <time>2019-04-03T11:41:39Z</time>
      </trkpt>
      <trkpt lat="60.39154" lon="7.75604">
        <ele>1150.35</ele>
        <time>2019-04-03T11:41:48Z</time>
      </trkpt>
      <trkpt lat="60.39107" lon="7.75679">
        <ele>1151.32</ele>
        <time>2019-04-03T11:41:57Z</time>
      </trkpt>
      <trkpt lat="60.39086" lon="7.75726">
        <ele>1151.32</ele>
        <time>2019-04-03T11:42:03Z</time>
      </trkpt>
      <trkpt lat="60.39063" lon="7.75781">
        <ele>1153.24</ele>
        <time>2019-04-03T11:42:13Z</time>
      </trkpt>
      <trkpt lat="60.39055" lon="7.75795">
        <ele>1151.8</ele>
        <time>2019-04-03T11:42:15Z</time>
      </trkpt>
      <trkpt lat="60.39034" lon="7.7583">
        <ele>1151.32</ele>
        <time>2019-04-03T11:42:20Z</time>
      </trkpt>
      <trkpt lat="60.39024" lon="7.75856">
        <ele>1152.76</ele>
        <time>2019-04-03T11:42:24Z</time>
      </trkpt>
      <trkpt lat="60.39016" lon="7.75881">
        <ele>1153.24</ele>
        <time>2019-04-03T11:42:28Z</time>
      </trkpt>
      <trkpt lat="60.39006" lon="7.75906">
        <ele>1155.64</ele>
        <time>2019-04-03T11:42:37Z</time>
      </trkpt>
      <trkpt lat="60.39006" lon="7.75907">
        <ele>1152.28</ele>
        <time>2019-04-03T11:42:44Z</time>
      </trkpt>
      <trkpt lat="60.39006" lon="7.75907">
        <ele>1157.08</ele>
        <time>2019-04-03T11:42:45Z</time>
      </trkpt>
      <trkpt lat="60.39005" lon="7.75907">
        <ele>1156.12</ele>
        <time>2019-04-03T11:42:58Z</time>
      </trkpt>
      <trkpt lat="60.39004" lon="7.75907">
        <ele>1154.2</ele>
        <time>2019-04-03T11:43:15Z</time>
      </trkpt>
      <trkpt lat="60.39003" lon="7.75908">
        <ele>1155.64</ele>
        <time>2019-04-03T11:43:31Z</time>
      </trkpt>
      <trkpt lat="60.39003" lon="7.75907">
        <ele>1153.72</ele>
        <time>2019-04-03T11:43:33Z</time>
      </trkpt>
      <trkpt lat="60.39003" lon="7.75907">
        <ele>1156.12</ele>
        <time>2019-04-03T11:43:35Z</time>
      </trkpt>
      <trkpt lat="60.39003" lon="7.75907">
        <ele>1152.28</ele>
        <time>2019-04-03T11:43:36Z</time>
      </trkpt>
      <trkpt lat="60.39003" lon="7.75907">
        <ele>1156.12</ele>
        <time>2019-04-03T11:43:37Z</time>
      </trkpt>
      <trkpt lat="60.39003" lon="7.75906">
        <ele>1154.68</ele>
        <time>2019-04-03T11:43:50Z</time>
      </trkpt>
      <trkpt lat="60.39003" lon="7.75906">
        <ele>1154.68</ele>
        <time>2019-04-03T11:44:07Z</time>
      </trkpt>
      <trkpt lat="60.39003" lon="7.75907">
        <ele>1155.64</ele>
        <time>2019-04-03T11:44:10Z</time>
      </trkpt>
      <trkpt lat="60.39002" lon="7.75907">
        <ele>1154.2</ele>
        <time>2019-04-03T11:44:12Z</time>
      </trkpt>
      <trkpt lat="60.39002" lon="7.75906">
        <ele>1155.64</ele>
        <time>2019-04-03T11:44:29Z</time>
      </trkpt>
      <trkpt lat="60.39001" lon="7.75908">
        <ele>1154.68</ele>
        <time>2019-04-03T11:44:38Z</time>
      </trkpt>
      <trkpt lat="60.39" lon="7.75908">
        <ele>1156.6</ele>
        <time>2019-04-03T11:44:48Z</time>
      </trkpt>
      <trkpt lat="60.39" lon="7.75908">
        <ele>1156.6</ele>
        <time>2019-04-03T11:44:52Z</time>
      </trkpt>
      <trkpt lat="60.38997" lon="7.75911">
        <ele>1155.16</ele>
        <time>2019-04-03T11:44:54Z</time>
      </trkpt>
      <trkpt lat="60.38994" lon="7.75915">
        <ele>1155.16</ele>
        <time>2019-04-03T11:44:56Z</time>
      </trkpt>
      <trkpt lat="60.38984" lon="7.75922">
        <ele>1156.6</ele>
        <time>2019-04-03T11:45:07Z</time>
      </trkpt>
      <trkpt lat="60.38984" lon="7.75922">
        <ele>1153.24</ele>
        <time>2019-04-03T11:45:10Z</time>
      </trkpt>
      <trkpt lat="60.38984" lon="7.75922">
        <ele>1157.56</ele>
        <time>2019-04-03T11:45:12Z</time>
      </trkpt>
      <trkpt lat="60.38984" lon="7.75923">
        <ele>1154.68</ele>
        <time>2019-04-03T11:45:15Z</time>
      </trkpt>
      <trkpt lat="60.38983" lon="7.75922">
        <ele>1156.12</ele>
        <time>2019-04-03T11:45:19Z</time>
      </trkpt>
      <trkpt lat="60.38983" lon="7.75922">
        <ele>1156.12</ele>
        <time>2019-04-03T11:45:47Z</time>
      </trkpt>
      <trkpt lat="60.38983" lon="7.75922">
        <ele>1156.12</ele>
        <time>2019-04-03T11:46:22Z</time>
      </trkpt>
      <trkpt lat="60.38982" lon="7.75923">
        <ele>1155.64</ele>
        <time>2019-04-03T11:46:44Z</time>
      </trkpt>
      <trkpt lat="60.38983" lon="7.75921">
        <ele>1155.64</ele>
        <time>2019-04-03T11:47:16Z</time>
      </trkpt>
      <trkpt lat="60.38984" lon="7.7592">
        <ele>1155.16</ele>
        <time>2019-04-03T11:47:53Z</time>
      </trkpt>
      <trkpt lat="60.38984" lon="7.75921">
        <ele>1155.64</ele>
        <time>2019-04-03T11:48:19Z</time>
      </trkpt>
      <trkpt lat="60.38983" lon="7.75924">
        <ele>1154.68</ele>
        <time>2019-04-03T11:48:45Z</time>
      </trkpt>
      <trkpt lat="60.38983" lon="7.75923">
        <ele>1154.68</ele>
        <time>2019-04-03T11:49:10Z</time>
      </trkpt>
      <trkpt lat="60.38983" lon="7.75923">
        <ele>1154.68</ele>
        <time>2019-04-03T11:49:36Z</time>
      </trkpt>
      <trkpt lat="60.38983" lon="7.75922">
        <ele>1154.68</ele>
        <time>2019-04-03T11:50:03Z</time>
      </trkpt>
      <trkpt lat="60.38982" lon="7.75922">
        <ele>1154.68</ele>
        <time>2019-04-03T11:50:30Z</time>
      </trkpt>
      <trkpt lat="60.38982" lon="7.75922">
        <ele>1159.01</ele>
        <time>2019-04-03T11:50:51Z</time>
      </trkpt>
      <trkpt lat="60.38981" lon="7.75922">
        <ele>1153.72</ele>
        <time>2019-04-03T11:50:52Z</time>
      </trkpt>
      <trkpt lat="60.38982" lon="7.75922">
        <ele>1154.68</ele>
        <time>2019-04-03T11:51:14Z</time>
      </trkpt>
      <trkpt lat="60.38982" lon="7.75922">
        <ele>1155.16</ele>
        <time>2019-04-03T11:51:38Z</time>
      </trkpt>
      <trkpt lat="60.38982" lon="7.75923">
        <ele>1153.72</ele>
        <time>2019-04-03T11:51:43Z</time>
      </trkpt>
      <trkpt lat="60.38982" lon="7.75922">
        <ele>1153.72</ele>
        <time>2019-04-03T11:52:02Z</time>
      </trkpt>
      <trkpt lat="60.38982" lon="7.75922">
        <ele>1155.16</ele>
        <time>2019-04-03T11:52:05Z</time>
      </trkpt>
      <trkpt lat="60.38982" lon="7.75922">
        <ele>1154.68</ele>
        <time>2019-04-03T11:52:10Z</time>
      </trkpt>
      <trkpt lat="60.38981" lon="7.75923">
        <ele>1153.72</ele>
        <time>2019-04-03T11:52:38Z</time>
      </trkpt>
      <trkpt lat="60.38981" lon="7.75924">
        <ele>1154.2</ele>
        <time>2019-04-03T11:53:09Z</time>
      </trkpt>
      <trkpt lat="60.38981" lon="7.75926">
        <ele>1154.2</ele>
        <time>2019-04-03T11:53:34Z</time>
      </trkpt>
      <trkpt lat="60.38981" lon="7.75927">
        <ele>1154.2</ele>
        <time>2019-04-03T11:54:01Z</time>
      </trkpt>
      <trkpt lat="60.38981" lon="7.75926">
        <ele>1154.2</ele>
        <time>2019-04-03T11:54:05Z</time>
      </trkpt>
      <trkpt lat="60.38969" lon="7.75916">
        <ele>1152.76</ele>
        <time>2019-04-03T11:54:10Z</time>
      </trkpt>
      <trkpt lat="60.38941" lon="7.7592">
        <ele>1151.32</ele>
        <time>2019-04-03T11:54:16Z</time>
      </trkpt>
      <trkpt lat="60.38932" lon="7.75927">
        <ele>1150.35</ele>
        <time>2019-04-03T11:54:18Z</time>
      </trkpt>
      <trkpt lat="60.38923" lon="7.75933">
        <ele>1149.87</ele>
        <time>2019-04-03T11:54:20Z</time>
      </trkpt>
      <trkpt lat="60.38899" lon="7.75938">
        <ele>1147.95</ele>
        <time>2019-04-03T11:54:24Z</time>
      </trkpt>
      <trkpt lat="60.38862" lon="7.75949">
        <ele>1147.47</ele>
        <time>2019-04-03T11:54:30Z</time>
      </trkpt>
      <trkpt lat="60.38837" lon="7.75965">
        <ele>1145.07</ele>
        <time>2019-04-03T11:54:34Z</time>
      </trkpt>
      <trkpt lat="60.38794" lon="7.76003">
        <ele>1144.59</ele>
        <time>2019-04-03T11:54:41Z</time>
      </trkpt>
      <trkpt lat="60.38776" lon="7.76019">
        <ele>1141.7</ele>
        <time>2019-04-03T11:54:44Z</time>
      </trkpt>
      <trkpt lat="60.38764" lon="7.76031">
        <ele>1140.74</ele>
        <time>2019-04-03T11:54:46Z</time>
      </trkpt>
      <trkpt lat="60.3874" lon="7.7605">
        <ele>1137.38</ele>
        <time>2019-04-03T11:54:50Z</time>
      </trkpt>
      <trkpt lat="60.38726" lon="7.76062">
        <ele>1134.97</ele>
        <time>2019-04-03T11:54:52Z</time>
      </trkpt>
      <trkpt lat="60.38701" lon="7.7608">
        <ele>1131.61</ele>
        <time>2019-04-03T11:54:55Z</time>
      </trkpt>
      <trkpt lat="60.38693" lon="7.76088">
        <ele>1128.73</ele>
        <time>2019-04-03T11:54:56Z</time>
      </trkpt>
      <trkpt lat="60.38653" lon="7.76127">
        <ele>1124.88</ele>
        <time>2019-04-03T11:55:01Z</time>
      </trkpt>
      <trkpt lat="60.38646" lon="7.76134">
        <ele>1124.88</ele>
        <time>2019-04-03T11:55:02Z</time>
      </trkpt>
      <trkpt lat="60.3861" lon="7.76171">
        <ele>1122.96</ele>
        <time>2019-04-03T11:55:07Z</time>
      </trkpt>
      <trkpt lat="60.38598" lon="7.76185">
        <ele>1121.52</ele>
        <time>2019-04-03T11:55:09Z</time>
      </trkpt>
      <trkpt lat="60.38592" lon="7.76192">
        <ele>1121.52</ele>
        <time>2019-04-03T11:55:10Z</time>
      </trkpt>
      <trkpt lat="60.38572" lon="7.76208">
        <ele>1123.44</ele>
        <time>2019-04-03T11:55:13Z</time>
      </trkpt>
      <trkpt lat="60.38537" lon="7.76238">
        <ele>1124.4</ele>
        <time>2019-04-03T11:55:19Z</time>
      </trkpt>
      <trkpt lat="60.38521" lon="7.76249">
        <ele>1124.4</ele>
        <time>2019-04-03T11:55:22Z</time>
      </trkpt>
      <trkpt lat="60.38505" lon="7.76255">
        <ele>1122.96</ele>
        <time>2019-04-03T11:55:25Z</time>
      </trkpt>
      <trkpt lat="60.385" lon="7.76257">
        <ele>1124.4</ele>
        <time>2019-04-03T11:55:26Z</time>
      </trkpt>
      <trkpt lat="60.38484" lon="7.76258">
        <ele>1124.4</ele>
        <time>2019-04-03T11:55:30Z</time>
      </trkpt>
      <trkpt lat="60.38458" lon="7.7627">
        <ele>1124.4</ele>
        <time>2019-04-03T11:55:37Z</time>
      </trkpt>
      <trkpt lat="60.38445" lon="7.7626">
        <ele>1122.96</ele>
        <time>2019-04-03T11:55:40Z</time>
      </trkpt>
      <trkpt lat="60.38433" lon="7.76257">
        <ele>1121.03</ele>
        <time>2019-04-03T11:55:42Z</time>
      </trkpt>
      <trkpt lat="60.38413" lon="7.76264">
        <ele>1122</ele>
        <time>2019-04-03T11:55:46Z</time>
      </trkpt>
      <trkpt lat="60.38401" lon="7.76268">
        <ele>1122.48</ele>
        <time>2019-04-03T11:55:49Z</time>
      </trkpt>
      <trkpt lat="60.38376" lon="7.76271">
        <ele>1122.48</ele>
        <time>2019-04-03T11:55:56Z</time>
      </trkpt>
      <trkpt lat="60.38363" lon="7.7627">
        <ele>1122.48</ele>
        <time>2019-04-03T11:55:59Z</time>
      </trkpt>
      <trkpt lat="60.38354" lon="7.76276">
        <ele>1122.48</ele>
        <time>2019-04-03T11:56:01Z</time>
      </trkpt>
      <trkpt lat="60.38346" lon="7.76285">
        <ele>1121.03</ele>
        <time>2019-04-03T11:56:03Z</time>
      </trkpt>
      <trkpt lat="60.38335" lon="7.76285">
        <ele>1122.48</ele>
        <time>2019-04-03T11:56:06Z</time>
      </trkpt>
      <trkpt lat="60.38321" lon="7.76282">
        <ele>1122.48</ele>
        <time>2019-04-03T11:56:09Z</time>
      </trkpt>
      <trkpt lat="60.38303" lon="7.76294">
        <ele>1122</ele>
        <time>2019-04-03T11:56:13Z</time>
      </trkpt>
      <trkpt lat="60.38282" lon="7.76289">
        <ele>1122</ele>
        <time>2019-04-03T11:56:18Z</time>
      </trkpt>
      <trkpt lat="60.38266" lon="7.76286">
        <ele>1122</ele>
        <time>2019-04-03T11:56:21Z</time>
      </trkpt>
      <trkpt lat="60.3825" lon="7.76289">
        <ele>1120.55</ele>
        <time>2019-04-03T11:56:24Z</time>
      </trkpt>
      <trkpt lat="60.38241" lon="7.7629">
        <ele>1122</ele>
        <time>2019-04-03T11:56:26Z</time>
      </trkpt>
      <trkpt lat="60.38227" lon="7.76291">
        <ele>1122</ele>
        <time>2019-04-03T11:56:29Z</time>
      </trkpt>
      <trkpt lat="60.38191" lon="7.76295">
        <ele>1122</ele>
        <time>2019-04-03T11:56:37Z</time>
      </trkpt>
      <trkpt lat="60.38169" lon="7.76298">
        <ele>1122.48</ele>
        <time>2019-04-03T11:56:43Z</time>
      </trkpt>
      <trkpt lat="60.38153" lon="7.76303">
        <ele>1122.48</ele>
        <time>2019-04-03T11:56:47Z</time>
      </trkpt>
      <trkpt lat="60.38145" lon="7.7631">
        <ele>1121.03</ele>
        <time>2019-04-03T11:56:49Z</time>
      </trkpt>
      <trkpt lat="60.38137" lon="7.76318">
        <ele>1121.03</ele>
        <time>2019-04-03T11:56:51Z</time>
      </trkpt>
      <trkpt lat="60.3813" lon="7.76323">
        <ele>1121.03</ele>
        <time>2019-04-03T11:56:53Z</time>
      </trkpt>
      <trkpt lat="60.38114" lon="7.76334">
        <ele>1122.48</ele>
        <time>2019-04-03T11:56:57Z</time>
      </trkpt>
      <trkpt lat="60.38107" lon="7.76337">
        <ele>1122.48</ele>
        <time>2019-04-03T11:56:59Z</time>
      </trkpt>
      <trkpt lat="60.38087" lon="7.76352">
        <ele>1122.48</ele>
        <time>2019-04-03T11:57:04Z</time>
      </trkpt>
      <trkpt lat="60.38065" lon="7.76342">
        <ele>1122.48</ele>
        <time>2019-04-03T11:57:09Z</time>
      </trkpt>
      <trkpt lat="60.38044" lon="7.76351">
        <ele>1121.03</ele>
        <time>2019-04-03T11:57:13Z</time>
      </trkpt>
      <trkpt lat="60.38031" lon="7.76356">
        <ele>1122.48</ele>
        <time>2019-04-03T11:57:16Z</time>
      </trkpt>
      <trkpt lat="60.38011" lon="7.76387">
        <ele>1122.48</ele>
        <time>2019-04-03T11:57:23Z</time>
      </trkpt>
      <trkpt lat="60.38006" lon="7.7639">
        <ele>1122.48</ele>
        <time>2019-04-03T11:57:25Z</time>
      </trkpt>
      <trkpt lat="60.37985" lon="7.76403">
        <ele>1122.48</ele>
        <time>2019-04-03T11:57:34Z</time>
      </trkpt>
      <trkpt lat="60.37985" lon="7.76402">
        <ele>1122.96</ele>
        <time>2019-04-03T11:57:41Z</time>
      </trkpt>
      <trkpt lat="60.37978" lon="7.76404">
        <ele>1122.96</ele>
        <time>2019-04-03T11:57:46Z</time>
      </trkpt>
      <trkpt lat="60.3797" lon="7.76403">
        <ele>1122.96</ele>
        <time>2019-04-03T11:57:48Z</time>
      </trkpt>
      <trkpt lat="60.37959" lon="7.76412">
        <ele>1121.52</ele>
        <time>2019-04-03T11:57:51Z</time>
      </trkpt>
      <trkpt lat="60.37956" lon="7.76418">
        <ele>1121.52</ele>
        <time>2019-04-03T11:57:52Z</time>
      </trkpt>
      <trkpt lat="60.37945" lon="7.76422">
        <ele>1122.96</ele>
        <time>2019-04-03T11:57:55Z</time>
      </trkpt>
      <trkpt lat="60.37932" lon="7.76422">
        <ele>1122.96</ele>
        <time>2019-04-03T11:57:58Z</time>
      </trkpt>
      <trkpt lat="60.37912" lon="7.76434">
        <ele>1122.96</ele>
        <time>2019-04-03T11:58:03Z</time>
      </trkpt>
      <trkpt lat="60.37905" lon="7.76442">
        <ele>1121.52</ele>
        <time>2019-04-03T11:58:05Z</time>
      </trkpt>
      <trkpt lat="60.37899" lon="7.76448">
        <ele>1122.48</ele>
        <time>2019-04-03T11:58:07Z</time>
      </trkpt>
      <trkpt lat="60.37879" lon="7.76441">
        <ele>1122.96</ele>
        <time>2019-04-03T11:58:13Z</time>
      </trkpt>
      <trkpt lat="60.37872" lon="7.76447">
        <ele>1122.96</ele>
        <time>2019-04-03T11:58:15Z</time>
      </trkpt>
      <trkpt lat="60.37865" lon="7.76459">
        <ele>1123.44</ele>
        <time>2019-04-03T11:58:18Z</time>
      </trkpt>
      <trkpt lat="60.37841" lon="7.76468">
        <ele>1123.44</ele>
        <time>2019-04-03T11:58:26Z</time>
      </trkpt>
      <trkpt lat="60.37837" lon="7.76474">
        <ele>1123.44</ele>
        <time>2019-04-03T11:58:28Z</time>
      </trkpt>
      <trkpt lat="60.37821" lon="7.76483">
        <ele>1124.4</ele>
        <time>2019-04-03T11:58:36Z</time>
      </trkpt>
      <trkpt lat="60.37819" lon="7.76484">
        <ele>1124.4</ele>
        <time>2019-04-03T11:58:37Z</time>
      </trkpt>
      <trkpt lat="60.37803" lon="7.76508">
        <ele>1124.88</ele>
        <time>2019-04-03T11:58:46Z</time>
      </trkpt>
      <trkpt lat="60.37796" lon="7.76512">
        <ele>1125.36</ele>
        <time>2019-04-03T11:58:56Z</time>
      </trkpt>
      <trkpt lat="60.37795" lon="7.76511">
        <ele>1125.36</ele>
        <time>2019-04-03T11:59:05Z</time>
      </trkpt>
      <trkpt lat="60.37784" lon="7.76515">
        <ele>1125.36</ele>
        <time>2019-04-03T11:59:12Z</time>
      </trkpt>
      <trkpt lat="60.3778" lon="7.76517">
        <ele>1125.36</ele>
        <time>2019-04-03T11:59:14Z</time>
      </trkpt>
      <trkpt lat="60.37769" lon="7.76528">
        <ele>1125.36</ele>
        <time>2019-04-03T11:59:19Z</time>
      </trkpt>
      <trkpt lat="60.37766" lon="7.76536">
        <ele>1125.36</ele>
        <time>2019-04-03T11:59:21Z</time>
      </trkpt>
      <trkpt lat="60.37758" lon="7.76537">
        <ele>1125.84</ele>
        <time>2019-04-03T11:59:24Z</time>
      </trkpt>
      <trkpt lat="60.37739" lon="7.76545">
        <ele>1123.92</ele>
        <time>2019-04-03T11:59:28Z</time>
      </trkpt>
      <trkpt lat="60.37729" lon="7.76555">
        <ele>1123.44</ele>
        <time>2019-04-03T11:59:30Z</time>
      </trkpt>
      <trkpt lat="60.37708" lon="7.7658">
        <ele>1122.96</ele>
        <time>2019-04-03T11:59:35Z</time>
      </trkpt>
      <trkpt lat="60.37698" lon="7.76595">
        <ele>1122.96</ele>
        <time>2019-04-03T11:59:38Z</time>
      </trkpt>
      <trkpt lat="60.37675" lon="7.76637">
        <ele>1122</ele>
        <time>2019-04-03T11:59:46Z</time>
      </trkpt>
      <trkpt lat="60.37663" lon="7.76665">
        <ele>1122.48</ele>
        <time>2019-04-03T11:59:51Z</time>
      </trkpt>
      <trkpt lat="60.37649" lon="7.76678">
        <ele>1122.48</ele>
        <time>2019-04-03T12:00:01Z</time>
      </trkpt>
      <trkpt lat="60.37648" lon="7.76681">
        <ele>1122.96</ele>
        <time>2019-04-03T12:00:15Z</time>
      </trkpt>
      <trkpt lat="60.37643" lon="7.7669">
        <ele>1122.96</ele>
        <time>2019-04-03T12:00:22Z</time>
      </trkpt>
      <trkpt lat="60.37642" lon="7.7669">
        <ele>1122.96</ele>
        <time>2019-04-03T12:00:23Z</time>
      </trkpt>
      <trkpt lat="60.37627" lon="7.767">
        <ele>1122</ele>
        <time>2019-04-03T12:00:29Z</time>
      </trkpt>
      <trkpt lat="60.37625" lon="7.76705">
        <ele>1122</ele>
        <time>2019-04-03T12:00:30Z</time>
      </trkpt>
      <trkpt lat="60.37618" lon="7.7672">
        <ele>1122</ele>
        <time>2019-04-03T12:00:34Z</time>
      </trkpt>
      <trkpt lat="60.37614" lon="7.76726">
        <ele>1122</ele>
        <time>2019-04-03T12:00:36Z</time>
      </trkpt>
      <trkpt lat="60.37605" lon="7.76726">
        <ele>1122</ele>
        <time>2019-04-03T12:00:39Z</time>
      </trkpt>
      <trkpt lat="60.37581" lon="7.76746">
        <ele>1122</ele>
        <time>2019-04-03T12:00:45Z</time>
      </trkpt>
      <trkpt lat="60.37567" lon="7.76765">
        <ele>1122.48</ele>
        <time>2019-04-03T12:00:49Z</time>
      </trkpt>
      <trkpt lat="60.37559" lon="7.76773">
        <ele>1122.48</ele>
        <time>2019-04-03T12:00:51Z</time>
      </trkpt>
      <trkpt lat="60.37552" lon="7.76783">
        <ele>1122.48</ele>
        <time>2019-04-03T12:00:53Z</time>
      </trkpt>
      <trkpt lat="60.37529" lon="7.76808">
        <ele>1121.03</ele>
        <time>2019-04-03T12:01:00Z</time>
      </trkpt>
      <trkpt lat="60.37524" lon="7.76813">
        <ele>1122.48</ele>
        <time>2019-04-03T12:01:02Z</time>
      </trkpt>
      <trkpt lat="60.37515" lon="7.7682">
        <ele>1122.96</ele>
        <time>2019-04-03T12:01:05Z</time>
      </trkpt>
      <trkpt lat="60.37493" lon="7.76843">
        <ele>1122.96</ele>
        <time>2019-04-03T12:01:14Z</time>
      </trkpt>
      <trkpt lat="60.37479" lon="7.76836">
        <ele>1122.96</ele>
        <time>2019-04-03T12:01:18Z</time>
      </trkpt>
      <trkpt lat="60.37448" lon="7.7683">
        <ele>1122.96</ele>
        <time>2019-04-03T12:01:26Z</time>
      </trkpt>
      <trkpt lat="60.37435" lon="7.76821">
        <ele>1122.96</ele>
        <time>2019-04-03T12:01:30Z</time>
      </trkpt>
      <trkpt lat="60.37418" lon="7.76819">
        <ele>1122.96</ele>
        <time>2019-04-03T12:01:34Z</time>
      </trkpt>
      <trkpt lat="60.374" lon="7.76828">
        <ele>1122.96</ele>
        <time>2019-04-03T12:01:38Z</time>
      </trkpt>
      <trkpt lat="60.37373" lon="7.76816">
        <ele>1122.96</ele>
        <time>2019-04-03T12:01:46Z</time>
      </trkpt>
      <trkpt lat="60.37351" lon="7.76823">
        <ele>1122</ele>
        <time>2019-04-03T12:01:53Z</time>
      </trkpt>
      <trkpt lat="60.37343" lon="7.76839">
        <ele>1123.44</ele>
        <time>2019-04-03T12:01:58Z</time>
      </trkpt>
      <trkpt lat="60.37337" lon="7.76845">
        <ele>1123.44</ele>
        <time>2019-04-03T12:02:04Z</time>
      </trkpt>
      <trkpt lat="60.37325" lon="7.76848">
        <ele>1123.44</ele>
        <time>2019-04-03T12:02:10Z</time>
      </trkpt>
      <trkpt lat="60.37303" lon="7.76851">
        <ele>1123.44</ele>
        <time>2019-04-03T12:02:19Z</time>
      </trkpt>
      <trkpt lat="60.37279" lon="7.76865">
        <ele>1123.44</ele>
        <time>2019-04-03T12:02:27Z</time>
      </trkpt>
      <trkpt lat="60.37259" lon="7.76857">
        <ele>1123.44</ele>
        <time>2019-04-03T12:02:34Z</time>
      </trkpt>
      <trkpt lat="60.37232" lon="7.76863">
        <ele>1123.44</ele>
        <time>2019-04-03T12:02:40Z</time>
      </trkpt>
      <trkpt lat="60.37224" lon="7.7687">
        <ele>1122</ele>
        <time>2019-04-03T12:02:42Z</time>
      </trkpt>
      <trkpt lat="60.37206" lon="7.76886">
        <ele>1123.44</ele>
        <time>2019-04-03T12:02:48Z</time>
      </trkpt>
      <trkpt lat="60.37197" lon="7.76885">
        <ele>1123.44</ele>
        <time>2019-04-03T12:02:55Z</time>
      </trkpt>
      <trkpt lat="60.37193" lon="7.76881">
        <ele>1123.44</ele>
        <time>2019-04-03T12:02:58Z</time>
      </trkpt>
      <trkpt lat="60.37173" lon="7.76863">
        <ele>1123.44</ele>
        <time>2019-04-03T12:03:08Z</time>
      </trkpt>
      <trkpt lat="60.37152" lon="7.76828">
        <ele>1123.44</ele>
        <time>2019-04-03T12:03:16Z</time>
      </trkpt>
      <trkpt lat="60.37134" lon="7.76801">
        <ele>1123.44</ele>
        <time>2019-04-03T12:03:22Z</time>
      </trkpt>
      <trkpt lat="60.37114" lon="7.76776">
        <ele>1123.44</ele>
        <time>2019-04-03T12:03:28Z</time>
      </trkpt>
      <trkpt lat="60.37095" lon="7.76744">
        <ele>1123.44</ele>
        <time>2019-04-03T12:03:35Z</time>
      </trkpt>
      <trkpt lat="60.37075" lon="7.76712">
        <ele>1123.44</ele>
        <time>2019-04-03T12:03:42Z</time>
      </trkpt>
      <trkpt lat="60.37063" lon="7.76701">
        <ele>1123.92</ele>
        <time>2019-04-03T12:03:46Z</time>
      </trkpt>
      <trkpt lat="60.37055" lon="7.76687">
        <ele>1124.4</ele>
        <time>2019-04-03T12:03:50Z</time>
      </trkpt>
      <trkpt lat="60.37046" lon="7.76679">
        <ele>1124.88</ele>
        <time>2019-04-03T12:03:54Z</time>
      </trkpt>
      <trkpt lat="60.37029" lon="7.76648">
        <ele>1125.36</ele>
        <time>2019-04-03T12:04:02Z</time>
      </trkpt>
      <trkpt lat="60.37026" lon="7.76643">
        <ele>1125.36</ele>
        <time>2019-04-03T12:04:03Z</time>
      </trkpt>
      <trkpt lat="60.37018" lon="7.76616">
        <ele>1125.36</ele>
        <time>2019-04-03T12:04:07Z</time>
      </trkpt>
      <trkpt lat="60.37002" lon="7.76591">
        <ele>1126.8</ele>
        <time>2019-04-03T12:04:13Z</time>
      </trkpt>
      <trkpt lat="60.36985" lon="7.76562">
        <ele>1127.76</ele>
        <time>2019-04-03T12:04:22Z</time>
      </trkpt>
      <trkpt lat="60.3698" lon="7.76551">
        <ele>1127.76</ele>
        <time>2019-04-03T12:04:25Z</time>
      </trkpt>
      <trkpt lat="60.36964" lon="7.76532">
        <ele>1128.73</ele>
        <time>2019-04-03T12:04:32Z</time>
      </trkpt>
      <trkpt lat="60.36957" lon="7.76524">
        <ele>1130.17</ele>
        <time>2019-04-03T12:04:35Z</time>
      </trkpt>
      <trkpt lat="60.36946" lon="7.76507">
        <ele>1130.17</ele>
        <time>2019-04-03T12:04:40Z</time>
      </trkpt>
      <trkpt lat="60.36928" lon="7.76477">
        <ele>1131.61</ele>
        <time>2019-04-03T12:04:48Z</time>
      </trkpt>
      <trkpt lat="60.36918" lon="7.76456">
        <ele>1132.57</ele>
        <time>2019-04-03T12:04:53Z</time>
      </trkpt>
      <trkpt lat="60.36904" lon="7.76435">
        <ele>1133.53</ele>
        <time>2019-04-03T12:05:01Z</time>
      </trkpt>
      <trkpt lat="60.36903" lon="7.76433">
        <ele>1134.49</ele>
        <time>2019-04-03T12:05:02Z</time>
      </trkpt>
      <trkpt lat="60.36887" lon="7.76407">
        <ele>1135.45</ele>
        <time>2019-04-03T12:05:11Z</time>
      </trkpt>
      <trkpt lat="60.3687" lon="7.76376">
        <ele>1137.38</ele>
        <time>2019-04-03T12:05:19Z</time>
      </trkpt>
      <trkpt lat="60.36859" lon="7.76343">
        <ele>1139.3</ele>
        <time>2019-04-03T12:05:28Z</time>
      </trkpt>
      <trkpt lat="60.36852" lon="7.76315">
        <ele>1140.74</ele>
        <time>2019-04-03T12:05:36Z</time>
      </trkpt>
      <trkpt lat="60.36847" lon="7.76295">
        <ele>1142.66</ele>
        <time>2019-04-03T12:05:42Z</time>
      </trkpt>
      <trkpt lat="60.3684" lon="7.76271">
        <ele>1144.59</ele>
        <time>2019-04-03T12:05:49Z</time>
      </trkpt>
      <trkpt lat="60.36835" lon="7.76248">
        <ele>1146.03</ele>
        <time>2019-04-03T12:05:56Z</time>
      </trkpt>
      <trkpt lat="60.36834" lon="7.76241">
        <ele>1146.03</ele>
        <time>2019-04-03T12:05:58Z</time>
      </trkpt>
      <trkpt lat="60.36827" lon="7.76216">
        <ele>1149.39</ele>
        <time>2019-04-03T12:06:06Z</time>
      </trkpt>
      <trkpt lat="60.3682" lon="7.76192">
        <ele>1150.84</ele>
        <time>2019-04-03T12:06:13Z</time>
      </trkpt>
      <trkpt lat="60.36811" lon="7.76172">
        <ele>1153.24</ele>
        <time>2019-04-03T12:06:21Z</time>
      </trkpt>
      <trkpt lat="60.36806" lon="7.76151">
        <ele>1153.24</ele>
        <time>2019-04-03T12:06:26Z</time>
      </trkpt>
      <trkpt lat="60.36802" lon="7.76136">
        <ele>1154.68</ele>
        <time>2019-04-03T12:06:30Z</time>
      </trkpt>
      <trkpt lat="60.36796" lon="7.76117">
        <ele>1156.12</ele>
        <time>2019-04-03T12:06:35Z</time>
      </trkpt>
      <trkpt lat="60.36787" lon="7.76075">
        <ele>1157.56</ele>
        <time>2019-04-03T12:06:46Z</time>
      </trkpt>
      <trkpt lat="60.36782" lon="7.7606">
        <ele>1159.01</ele>
        <time>2019-04-03T12:06:51Z</time>
      </trkpt>
      <trkpt lat="60.36775" lon="7.76031">
        <ele>1160.93</ele>
        <time>2019-04-03T12:07:00Z</time>
      </trkpt>
      <trkpt lat="60.36774" lon="7.76027">
        <ele>1160.93</ele>
        <time>2019-04-03T12:07:01Z</time>
      </trkpt>
      <trkpt lat="60.36769" lon="7.76002">
        <ele>1162.85</ele>
        <time>2019-04-03T12:07:08Z</time>
      </trkpt>
      <trkpt lat="60.36767" lon="7.75994">
        <ele>1163.33</ele>
        <time>2019-04-03T12:07:11Z</time>
      </trkpt>
      <trkpt lat="60.36758" lon="7.75968">
        <ele>1166.22</ele>
        <time>2019-04-03T12:07:19Z</time>
      </trkpt>
      <trkpt lat="60.36757" lon="7.75964">
        <ele>1166.22</ele>
        <time>2019-04-03T12:07:20Z</time>
      </trkpt>
      <trkpt lat="60.36747" lon="7.75937">
        <ele>1168.14</ele>
        <time>2019-04-03T12:07:28Z</time>
      </trkpt>
      <trkpt lat="60.36743" lon="7.75921">
        <ele>1169.58</ele>
        <time>2019-04-03T12:07:33Z</time>
      </trkpt>
      <trkpt lat="60.36734" lon="7.75896">
        <ele>1171.98</ele>
        <time>2019-04-03T12:07:42Z</time>
      </trkpt>
      <trkpt lat="60.36732" lon="7.75888">
        <ele>1171.98</ele>
        <time>2019-04-03T12:07:44Z</time>
      </trkpt>
      <trkpt lat="60.36728" lon="7.75879">
        <ele>1173.43</ele>
        <time>2019-04-03T12:07:47Z</time>
      </trkpt>
      <trkpt lat="60.3672" lon="7.75858">
        <ele>1174.39</ele>
        <time>2019-04-03T12:07:55Z</time>
      </trkpt>
      <trkpt lat="60.36715" lon="7.75846">
        <ele>1175.35</ele>
        <time>2019-04-03T12:08:01Z</time>
      </trkpt>
      <trkpt lat="60.36711" lon="7.75835">
        <ele>1175.83</ele>
        <time>2019-04-03T12:08:05Z</time>
      </trkpt>
      <trkpt lat="60.367" lon="7.75809">
        <ele>1177.27</ele>
        <time>2019-04-03T12:08:16Z</time>
      </trkpt>
      <trkpt lat="60.367" lon="7.75808">
        <ele>1177.27</ele>
        <time>2019-04-03T12:08:17Z</time>
      </trkpt>
      <trkpt lat="60.36692" lon="7.75777">
        <ele>1177.75</ele>
        <time>2019-04-03T12:08:27Z</time>
      </trkpt>
      <trkpt lat="60.36683" lon="7.75757">
        <ele>1179.19</ele>
        <time>2019-04-03T12:08:34Z</time>
      </trkpt>
      <trkpt lat="60.36673" lon="7.75735">
        <ele>1180.64</ele>
        <time>2019-04-03T12:08:42Z</time>
      </trkpt>
      <trkpt lat="60.36662" lon="7.75707">
        <ele>1182.08</ele>
        <time>2019-04-03T12:08:51Z</time>
      </trkpt>
      <trkpt lat="60.36657" lon="7.75695">
        <ele>1182.56</ele>
        <time>2019-04-03T12:08:57Z</time>
      </trkpt>
      <trkpt lat="60.36654" lon="7.75687">
        <ele>1183.04</ele>
        <time>2019-04-03T12:09:01Z</time>
      </trkpt>
      <trkpt lat="60.36644" lon="7.7566">
        <ele>1184</ele>
        <time>2019-04-03T12:09:10Z</time>
      </trkpt>
      <trkpt lat="60.36633" lon="7.75632">
        <ele>1184.48</ele>
        <time>2019-04-03T12:09:20Z</time>
      </trkpt>
      <trkpt lat="60.36631" lon="7.75628">
        <ele>1184.96</ele>
        <time>2019-04-03T12:09:22Z</time>
      </trkpt>
      <trkpt lat="60.36621" lon="7.75607">
        <ele>1186.4</ele>
        <time>2019-04-03T12:09:31Z</time>
      </trkpt>
      <trkpt lat="60.36613" lon="7.75592">
        <ele>1186.88</ele>
        <time>2019-04-03T12:09:38Z</time>
      </trkpt>
      <trkpt lat="60.36601" lon="7.75573">
        <ele>1188.33</ele>
        <time>2019-04-03T12:09:46Z</time>
      </trkpt>
      <trkpt lat="60.36592" lon="7.75548">
        <ele>1190.73</ele>
        <time>2019-04-03T12:09:55Z</time>
      </trkpt>
      <trkpt lat="60.36581" lon="7.75527">
        <ele>1191.69</ele>
        <time>2019-04-03T12:10:04Z</time>
      </trkpt>
      <trkpt lat="60.36579" lon="7.75518">
        <ele>1192.17</ele>
        <time>2019-04-03T12:10:08Z</time>
      </trkpt>
      <trkpt lat="60.36575" lon="7.75513">
        <ele>1192.65</ele>
        <time>2019-04-03T12:10:11Z</time>
      </trkpt>
      <trkpt lat="60.36569" lon="7.75506">
        <ele>1193.61</ele>
        <time>2019-04-03T12:10:15Z</time>
      </trkpt>
      <trkpt lat="60.36561" lon="7.75496">
        <ele>1194.58</ele>
        <time>2019-04-03T12:10:20Z</time>
      </trkpt>
      <trkpt lat="60.36557" lon="7.75473">
        <ele>1196.02</ele>
        <time>2019-04-03T12:10:28Z</time>
      </trkpt>
      <trkpt lat="60.36552" lon="7.75457">
        <ele>1197.46</ele>
        <time>2019-04-03T12:10:33Z</time>
      </trkpt>
      <trkpt lat="60.36543" lon="7.75431">
        <ele>1199.86</ele>
        <time>2019-04-03T12:10:42Z</time>
      </trkpt>
      <trkpt lat="60.36542" lon="7.75428">
        <ele>1199.86</ele>
        <time>2019-04-03T12:10:43Z</time>
      </trkpt>
      <trkpt lat="60.36536" lon="7.75411">
        <ele>1201.3</ele>
        <time>2019-04-03T12:10:48Z</time>
      </trkpt>
      <trkpt lat="60.36529" lon="7.75399">
        <ele>1202.75</ele>
        <time>2019-04-03T12:10:52Z</time>
      </trkpt>
      <trkpt lat="60.36528" lon="7.75395">
        <ele>1202.75</ele>
        <time>2019-04-03T12:10:53Z</time>
      </trkpt>
      <trkpt lat="60.36519" lon="7.75382">
        <ele>1204.19</ele>
        <time>2019-04-03T12:10:57Z</time>
      </trkpt>
      <trkpt lat="60.36501" lon="7.75359">
        <ele>1206.11</ele>
        <time>2019-04-03T12:11:04Z</time>
      </trkpt>
      <trkpt lat="60.36498" lon="7.75351">
        <ele>1206.59</ele>
        <time>2019-04-03T12:11:06Z</time>
      </trkpt>
      <trkpt lat="60.36483" lon="7.75331">
        <ele>1208.03</ele>
        <time>2019-04-03T12:11:13Z</time>
      </trkpt>
      <trkpt lat="60.36472" lon="7.75306">
        <ele>1211.4</ele>
        <time>2019-04-03T12:11:20Z</time>
      </trkpt>
      <trkpt lat="60.36467" lon="7.75291">
        <ele>1212.84</ele>
        <time>2019-04-03T12:11:24Z</time>
      </trkpt>
      <trkpt lat="60.36457" lon="7.75264">
        <ele>1216.69</ele>
        <time>2019-04-03T12:11:31Z</time>
      </trkpt>
      <trkpt lat="60.3645" lon="7.75244">
        <ele>1218.61</ele>
        <time>2019-04-03T12:11:36Z</time>
      </trkpt>
      <trkpt lat="60.36442" lon="7.75243">
        <ele>1219.09</ele>
        <time>2019-04-03T12:11:40Z</time>
      </trkpt>
      <trkpt lat="60.36435" lon="7.75216">
        <ele>1221.01</ele>
        <time>2019-04-03T12:11:48Z</time>
      </trkpt>
      <trkpt lat="60.36436" lon="7.75213">
        <ele>1221.97</ele>
        <time>2019-04-03T12:11:57Z</time>
      </trkpt>
      <trkpt lat="60.36435" lon="7.7521">
        <ele>1221.97</ele>
        <time>2019-04-03T12:12:19Z</time>
      </trkpt>
      <trkpt lat="60.36435" lon="7.7521">
        <ele>1221.97</ele>
        <time>2019-04-03T12:12:21Z</time>
      </trkpt>
      <trkpt lat="60.36436" lon="7.75205">
        <ele>1221.97</ele>
        <time>2019-04-03T12:12:31Z</time>
      </trkpt>
      <trkpt lat="60.36435" lon="7.75203">
        <ele>1221.49</ele>
        <time>2019-04-03T12:12:48Z</time>
      </trkpt>
      <trkpt lat="60.36435" lon="7.75178">
        <ele>1222.45</ele>
        <time>2019-04-03T12:12:54Z</time>
      </trkpt>
      <trkpt lat="60.36435" lon="7.75167">
        <ele>1222.93</ele>
        <time>2019-04-03T12:13:02Z</time>
      </trkpt>
      <trkpt lat="60.36434" lon="7.75166">
        <ele>1223.42</ele>
        <time>2019-04-03T12:13:05Z</time>
      </trkpt>
      <trkpt lat="60.36432" lon="7.75159">
        <ele>1223.42</ele>
        <time>2019-04-03T12:13:12Z</time>
      </trkpt>
      <trkpt lat="60.36428" lon="7.75143">
        <ele>1223.42</ele>
        <time>2019-04-03T12:13:16Z</time>
      </trkpt>
      <trkpt lat="60.36428" lon="7.75135">
        <ele>1223.9</ele>
        <time>2019-04-03T12:13:28Z</time>
      </trkpt>
      <trkpt lat="60.36427" lon="7.75132">
        <ele>1223.9</ele>
        <time>2019-04-03T12:13:49Z</time>
      </trkpt>
      <trkpt lat="60.36427" lon="7.7513">
        <ele>1223.9</ele>
        <time>2019-04-03T12:13:57Z</time>
      </trkpt>
      <trkpt lat="60.36414" lon="7.7512">
        <ele>1223.9</ele>
        <time>2019-04-03T12:14:03Z</time>
      </trkpt>
      <trkpt lat="60.36412" lon="7.75117">
        <ele>1223.9</ele>
        <time>2019-04-03T12:14:04Z</time>
      </trkpt>
      <trkpt lat="60.36407" lon="7.75111">
        <ele>1223.9</ele>
        <time>2019-04-03T12:14:06Z</time>
      </trkpt>
      <trkpt lat="60.36394" lon="7.75104">
        <ele>1224.38</ele>
        <time>2019-04-03T12:14:15Z</time>
      </trkpt>
      <trkpt lat="60.36392" lon="7.751">
        <ele>1224.38</ele>
        <time>2019-04-03T12:14:27Z</time>
      </trkpt>
      <trkpt lat="60.36392" lon="7.75099">
        <ele>1223.9</ele>
        <time>2019-04-03T12:14:48Z</time>
      </trkpt>
      <trkpt lat="60.3639" lon="7.75096">
        <ele>1224.38</ele>
        <time>2019-04-03T12:14:56Z</time>
      </trkpt>
      <trkpt lat="60.36386" lon="7.75087">
        <ele>1224.38</ele>
        <time>2019-04-03T12:15:01Z</time>
      </trkpt>
      <trkpt lat="60.3638" lon="7.75073">
        <ele>1225.82</ele>
        <time>2019-04-03T12:15:05Z</time>
      </trkpt>
      <trkpt lat="60.36376" lon="7.75062">
        <ele>1226.78</ele>
        <time>2019-04-03T12:15:11Z</time>
      </trkpt>
      <trkpt lat="60.36374" lon="7.75039">
        <ele>1228.22</ele>
        <time>2019-04-03T12:15:19Z</time>
      </trkpt>
      <trkpt lat="60.3637" lon="7.7502">
        <ele>1229.18</ele>
        <time>2019-04-03T12:15:25Z</time>
      </trkpt>
      <trkpt lat="60.36366" lon="7.75013">
        <ele>1230.14</ele>
        <time>2019-04-03T12:15:28Z</time>
      </trkpt>
      <trkpt lat="60.36359" lon="7.74998">
        <ele>1231.59</ele>
        <time>2019-04-03T12:15:34Z</time>
      </trkpt>
      <trkpt lat="60.36355" lon="7.74993">
        <ele>1232.07</ele>
        <time>2019-04-03T12:15:37Z</time>
      </trkpt>
      <trkpt lat="60.36351" lon="7.74977">
        <ele>1233.03</ele>
        <time>2019-04-03T12:15:41Z</time>
      </trkpt>
      <trkpt lat="60.36335" lon="7.74966">
        <ele>1233.99</ele>
        <time>2019-04-03T12:15:46Z</time>
      </trkpt>
      <trkpt lat="60.36323" lon="7.74946">
        <ele>1234.47</ele>
        <time>2019-04-03T12:15:50Z</time>
      </trkpt>
      <trkpt lat="60.36316" lon="7.74905">
        <ele>1235.43</ele>
        <time>2019-04-03T12:15:57Z</time>
      </trkpt>
      <trkpt lat="60.36318" lon="7.74884">
        <ele>1235.91</ele>
        <time>2019-04-03T12:16:01Z</time>
      </trkpt>
      <trkpt lat="60.36303" lon="7.74845">
        <ele>1236.39</ele>
        <time>2019-04-03T12:16:09Z</time>
      </trkpt>
      <trkpt lat="60.36296" lon="7.74831">
        <ele>1236.87</ele>
        <time>2019-04-03T12:16:14Z</time>
      </trkpt>
      <trkpt lat="60.36286" lon="7.74799">
        <ele>1237.83</ele>
        <time>2019-04-03T12:16:21Z</time>
      </trkpt>
      <trkpt lat="60.36284" lon="7.74794">
        <ele>1237.83</ele>
        <time>2019-04-03T12:16:22Z</time>
      </trkpt>
      <trkpt lat="60.36268" lon="7.74775">
        <ele>1237.83</ele>
        <time>2019-04-03T12:16:28Z</time>
      </trkpt>
      <trkpt lat="60.36255" lon="7.74755">
        <ele>1237.83</ele>
        <time>2019-04-03T12:16:33Z</time>
      </trkpt>
      <trkpt lat="60.36242" lon="7.7473">
        <ele>1239.28</ele>
        <time>2019-04-03T12:16:39Z</time>
      </trkpt>
      <trkpt lat="60.36224" lon="7.74717">
        <ele>1240.24</ele>
        <time>2019-04-03T12:16:44Z</time>
      </trkpt>
      <trkpt lat="60.3621" lon="7.74699">
        <ele>1242.16</ele>
        <time>2019-04-03T12:16:49Z</time>
      </trkpt>
      <trkpt lat="60.3619" lon="7.74686">
        <ele>1244.08</ele>
        <time>2019-04-03T12:16:54Z</time>
      </trkpt>
      <trkpt lat="60.36179" lon="7.74664">
        <ele>1245.04</ele>
        <time>2019-04-03T12:16:58Z</time>
      </trkpt>
      <trkpt lat="60.36149" lon="7.7465">
        <ele>1247.93</ele>
        <time>2019-04-03T12:17:05Z</time>
      </trkpt>
      <trkpt lat="60.36146" lon="7.74642">
        <ele>1248.89</ele>
        <time>2019-04-03T12:17:07Z</time>
      </trkpt>
      <trkpt lat="60.36143" lon="7.74605">
        <ele>1251.77</ele>
        <time>2019-04-03T12:17:14Z</time>
      </trkpt>
      <trkpt lat="60.36139" lon="7.74595">
        <ele>1253.22</ele>
        <time>2019-04-03T12:17:16Z</time>
      </trkpt>
      <trkpt lat="60.36125" lon="7.74553">
        <ele>1254.66</ele>
        <time>2019-04-03T12:17:25Z</time>
      </trkpt>
      <trkpt lat="60.36114" lon="7.74534">
        <ele>1256.1</ele>
        <time>2019-04-03T12:17:30Z</time>
      </trkpt>
      <trkpt lat="60.36098" lon="7.74497">
        <ele>1257.06</ele>
        <time>2019-04-03T12:17:38Z</time>
      </trkpt>
      <trkpt lat="60.36091" lon="7.74486">
        <ele>1257.54</ele>
        <time>2019-04-03T12:17:41Z</time>
      </trkpt>
      <trkpt lat="60.36084" lon="7.74465">
        <ele>1256.1</ele>
        <time>2019-04-03T12:17:44Z</time>
      </trkpt>
      <trkpt lat="60.36067" lon="7.74442">
        <ele>1252.25</ele>
        <time>2019-04-03T12:17:48Z</time>
      </trkpt>
      <trkpt lat="60.36062" lon="7.74439">
        <ele>1251.29</ele>
        <time>2019-04-03T12:17:49Z</time>
      </trkpt>
      <trkpt lat="60.36044" lon="7.74428">
        <ele>1250.33</ele>
        <time>2019-04-03T12:17:53Z</time>
      </trkpt>
      <trkpt lat="60.36035" lon="7.7442">
        <ele>1248.89</ele>
        <time>2019-04-03T12:17:55Z</time>
      </trkpt>
      <trkpt lat="60.36027" lon="7.74412">
        <ele>1248.41</ele>
        <time>2019-04-03T12:17:57Z</time>
      </trkpt>
      <trkpt lat="60.36017" lon="7.74405">
        <ele>1246.97</ele>
        <time>2019-04-03T12:17:59Z</time>
      </trkpt>
      <trkpt lat="60.36" lon="7.74396">
        <ele>1245.53</ele>
        <time>2019-04-03T12:18:02Z</time>
      </trkpt>
      <trkpt lat="60.35982" lon="7.74393">
        <ele>1243.6</ele>
        <time>2019-04-03T12:18:05Z</time>
      </trkpt>
      <trkpt lat="60.35969" lon="7.74389">
        <ele>1243.12</ele>
        <time>2019-04-03T12:18:07Z</time>
      </trkpt>
      <trkpt lat="60.35951" lon="7.74377">
        <ele>1239.76</ele>
        <time>2019-04-03T12:18:10Z</time>
      </trkpt>
      <trkpt lat="60.35944" lon="7.74374">
        <ele>1239.76</ele>
        <time>2019-04-03T12:18:11Z</time>
      </trkpt>
      <trkpt lat="60.3593" lon="7.74363">
        <ele>1237.83</ele>
        <time>2019-04-03T12:18:13Z</time>
      </trkpt>
      <trkpt lat="60.35902" lon="7.7433">
        <ele>1237.35</ele>
        <time>2019-04-03T12:18:18Z</time>
      </trkpt>
      <trkpt lat="60.35891" lon="7.74318">
        <ele>1238.8</ele>
        <time>2019-04-03T12:18:20Z</time>
      </trkpt>
      <trkpt lat="60.35866" lon="7.74296">
        <ele>1238.8</ele>
        <time>2019-04-03T12:18:25Z</time>
      </trkpt>
      <trkpt lat="60.35849" lon="7.74279">
        <ele>1240.72</ele>
        <time>2019-04-03T12:18:29Z</time>
      </trkpt>
      <trkpt lat="60.3583" lon="7.74264">
        <ele>1243.12</ele>
        <time>2019-04-03T12:18:35Z</time>
      </trkpt>
      <trkpt lat="60.35812" lon="7.74248">
        <ele>1244.08</ele>
        <time>2019-04-03T12:18:40Z</time>
      </trkpt>
      <trkpt lat="60.35783" lon="7.74228">
        <ele>1244.56</ele>
        <time>2019-04-03T12:18:46Z</time>
      </trkpt>
      <trkpt lat="60.35769" lon="7.74206">
        <ele>1245.04</ele>
        <time>2019-04-03T12:18:50Z</time>
      </trkpt>
      <trkpt lat="60.35752" lon="7.74195">
        <ele>1245.04</ele>
        <time>2019-04-03T12:18:53Z</time>
      </trkpt>
      <trkpt lat="60.35721" lon="7.74144">
        <ele>1243.6</ele>
        <time>2019-04-03T12:18:59Z</time>
      </trkpt>
      <trkpt lat="60.35699" lon="7.74123">
        <ele>1242.64</ele>
        <time>2019-04-03T12:19:03Z</time>
      </trkpt>
      <trkpt lat="60.35686" lon="7.74117">
        <ele>1244.08</ele>
        <time>2019-04-03T12:19:06Z</time>
      </trkpt>
      <trkpt lat="60.35666" lon="7.74087">
        <ele>1245.53</ele>
        <time>2019-04-03T12:19:12Z</time>
      </trkpt>
      <trkpt lat="60.35646" lon="7.74079">
        <ele>1248.41</ele>
        <time>2019-04-03T12:19:17Z</time>
      </trkpt>
      <trkpt lat="60.35622" lon="7.74053">
        <ele>1251.77</ele>
        <time>2019-04-03T12:19:24Z</time>
      </trkpt>
      <trkpt lat="60.3561" lon="7.74034">
        <ele>1252.74</ele>
        <time>2019-04-03T12:19:28Z</time>
      </trkpt>
      <trkpt lat="60.35585" lon="7.74002">
        <ele>1254.66</ele>
        <time>2019-04-03T12:19:35Z</time>
      </trkpt>
      <trkpt lat="60.35572" lon="7.73988">
        <ele>1256.1</ele>
        <time>2019-04-03T12:19:38Z</time>
      </trkpt>
      <trkpt lat="60.35546" lon="7.73967">
        <ele>1258.5</ele>
        <time>2019-04-03T12:19:44Z</time>
      </trkpt>
      <trkpt lat="60.3553" lon="7.73951">
        <ele>1259.94</ele>
        <time>2019-04-03T12:19:48Z</time>
      </trkpt>
      <trkpt lat="60.35527" lon="7.73945">
        <ele>1259.94</ele>
        <time>2019-04-03T12:19:49Z</time>
      </trkpt>
      <trkpt lat="60.35511" lon="7.73917">
        <ele>1261.39</ele>
        <time>2019-04-03T12:19:54Z</time>
      </trkpt>
      <trkpt lat="60.355" lon="7.73894">
        <ele>1261.87</ele>
        <time>2019-04-03T12:20:02Z</time>
      </trkpt>
      <trkpt lat="60.35489" lon="7.73854">
        <ele>1262.35</ele>
        <time>2019-04-03T12:20:09Z</time>
      </trkpt>
      <trkpt lat="60.35483" lon="7.73839">
        <ele>1262.35</ele>
        <time>2019-04-03T12:20:12Z</time>
      </trkpt>
      <trkpt lat="60.35471" lon="7.73813">
        <ele>1262.35</ele>
        <time>2019-04-03T12:20:19Z</time>
      </trkpt>
      <trkpt lat="60.35471" lon="7.73811">
        <ele>1262.35</ele>
        <time>2019-04-03T12:20:21Z</time>
      </trkpt>
      <trkpt lat="60.35457" lon="7.73795">
        <ele>1262.83</ele>
        <time>2019-04-03T12:20:28Z</time>
      </trkpt>
      <trkpt lat="60.35442" lon="7.73767">
        <ele>1263.79</ele>
        <time>2019-04-03T12:20:34Z</time>
      </trkpt>
      <trkpt lat="60.35437" lon="7.73751">
        <ele>1264.27</ele>
        <time>2019-04-03T12:20:44Z</time>
      </trkpt>
      <trkpt lat="60.35424" lon="7.73746">
        <ele>1264.27</ele>
        <time>2019-04-03T12:20:50Z</time>
      </trkpt>
      <trkpt lat="60.35422" lon="7.73739">
        <ele>1264.27</ele>
        <time>2019-04-03T12:20:52Z</time>
      </trkpt>
      <trkpt lat="60.35421" lon="7.73719">
        <ele>1263.79</ele>
        <time>2019-04-03T12:20:56Z</time>
      </trkpt>
      <trkpt lat="60.35416" lon="7.73712">
        <ele>1263.79</ele>
        <time>2019-04-03T12:20:58Z</time>
      </trkpt>
      <trkpt lat="60.35398" lon="7.73706">
        <ele>1261.39</ele>
        <time>2019-04-03T12:21:02Z</time>
      </trkpt>
      <trkpt lat="60.35384" lon="7.73674">
        <ele>1260.43</ele>
        <time>2019-04-03T12:21:06Z</time>
      </trkpt>
      <trkpt lat="60.35382" lon="7.73647">
        <ele>1260.43</ele>
        <time>2019-04-03T12:21:10Z</time>
      </trkpt>
      <trkpt lat="60.35386" lon="7.73634">
        <ele>1260.43</ele>
        <time>2019-04-03T12:21:12Z</time>
      </trkpt>
      <trkpt lat="60.35392" lon="7.73616">
        <ele>1261.87</ele>
        <time>2019-04-03T12:21:15Z</time>
      </trkpt>
      <trkpt lat="60.35396" lon="7.73597">
        <ele>1262.35</ele>
        <time>2019-04-03T12:21:18Z</time>
      </trkpt>
      <trkpt lat="60.354" lon="7.73575">
        <ele>1263.79</ele>
        <time>2019-04-03T12:21:22Z</time>
      </trkpt>
      <trkpt lat="60.35414" lon="7.73536">
        <ele>1265.23</ele>
        <time>2019-04-03T12:21:29Z</time>
      </trkpt>
      <trkpt lat="60.35415" lon="7.73511">
        <ele>1265.23</ele>
        <time>2019-04-03T12:21:33Z</time>
      </trkpt>
      <trkpt lat="60.35413" lon="7.73506">
        <ele>1265.23</ele>
        <time>2019-04-03T12:21:34Z</time>
      </trkpt>
      <trkpt lat="60.35399" lon="7.73471">
        <ele>1265.23</ele>
        <time>2019-04-03T12:21:40Z</time>
      </trkpt>
      <trkpt lat="60.35378" lon="7.73447">
        <ele>1263.79</ele>
        <time>2019-04-03T12:21:46Z</time>
      </trkpt>
      <trkpt lat="60.35371" lon="7.73438">
        <ele>1263.79</ele>
        <time>2019-04-03T12:21:48Z</time>
      </trkpt>
      <trkpt lat="60.35358" lon="7.73425">
        <ele>1262.83</ele>
        <time>2019-04-03T12:21:51Z</time>
      </trkpt>
      <trkpt lat="60.35338" lon="7.73416">
        <ele>1261.39</ele>
        <time>2019-04-03T12:21:55Z</time>
      </trkpt>
      <trkpt lat="60.35317" lon="7.73418">
        <ele>1258.5</ele>
        <time>2019-04-03T12:21:59Z</time>
      </trkpt>
      <trkpt lat="60.35307" lon="7.73423">
        <ele>1256.1</ele>
        <time>2019-04-03T12:22:01Z</time>
      </trkpt>
      <trkpt lat="60.35296" lon="7.73428">
        <ele>1255.14</ele>
        <time>2019-04-03T12:22:03Z</time>
      </trkpt>
      <trkpt lat="60.35277" lon="7.73414">
        <ele>1254.66</ele>
        <time>2019-04-03T12:22:07Z</time>
      </trkpt>
      <trkpt lat="60.35261" lon="7.73389">
        <ele>1254.18</ele>
        <time>2019-04-03T12:22:11Z</time>
      </trkpt>
      <trkpt lat="60.35248" lon="7.7339">
        <ele>1248.89</ele>
        <time>2019-04-03T12:22:14Z</time>
      </trkpt>
      <trkpt lat="60.35245" lon="7.73391">
        <ele>1243.12</ele>
        <time>2019-04-03T12:22:17Z</time>
      </trkpt>
      <trkpt lat="60.35245" lon="7.73388">
        <ele>1245.04</ele>
        <time>2019-04-03T12:22:33Z</time>
      </trkpt>
      <trkpt lat="60.35245" lon="7.73388">
        <ele>1243.6</ele>
        <time>2019-04-03T12:22:34Z</time>
      </trkpt>
      <trkpt lat="60.35243" lon="7.7339">
        <ele>1251.29</ele>
        <time>2019-04-03T12:22:36Z</time>
      </trkpt>
      <trkpt lat="60.35241" lon="7.73393">
        <ele>1245.04</ele>
        <time>2019-04-03T12:22:37Z</time>
      </trkpt>
      <trkpt lat="60.35236" lon="7.73406">
        <ele>1241.2</ele>
        <time>2019-04-03T12:22:40Z</time>
      </trkpt>
      <trkpt lat="60.35231" lon="7.73421">
        <ele>1240.24</ele>
        <time>2019-04-03T12:22:42Z</time>
      </trkpt>
      <trkpt lat="60.35219" lon="7.73433">
        <ele>1240.24</ele>
        <time>2019-04-03T12:22:46Z</time>
      </trkpt>
      <trkpt lat="60.35201" lon="7.73426">
        <ele>1241.68</ele>
        <time>2019-04-03T12:22:54Z</time>
      </trkpt>
      <trkpt lat="60.35185" lon="7.73392">
        <ele>1241.68</ele>
        <time>2019-04-03T12:23:02Z</time>
      </trkpt>
      <trkpt lat="60.35176" lon="7.73378">
        <ele>1243.12</ele>
        <time>2019-04-03T12:23:07Z</time>
      </trkpt>
      <trkpt lat="60.35168" lon="7.73367">
        <ele>1243.12</ele>
        <time>2019-04-03T12:23:11Z</time>
      </trkpt>
      <trkpt lat="60.3515" lon="7.73348">
        <ele>1244.56</ele>
        <time>2019-04-03T12:23:16Z</time>
      </trkpt>
      <trkpt lat="60.35116" lon="7.73337">
        <ele>1244.08</ele>
        <time>2019-04-03T12:23:26Z</time>
      </trkpt>
      <trkpt lat="60.35102" lon="7.73335">
        <ele>1241.68</ele>
        <time>2019-04-03T12:23:29Z</time>
      </trkpt>
      <trkpt lat="60.35079" lon="7.73333">
        <ele>1240.24</ele>
        <time>2019-04-03T12:23:34Z</time>
      </trkpt>
      <trkpt lat="60.35056" lon="7.73328">
        <ele>1235.43</ele>
        <time>2019-04-03T12:23:38Z</time>
      </trkpt>
      <trkpt lat="60.35049" lon="7.73329">
        <ele>1235.43</ele>
        <time>2019-04-03T12:23:39Z</time>
      </trkpt>
      <trkpt lat="60.35021" lon="7.73327">
        <ele>1232.07</ele>
        <time>2019-04-03T12:23:43Z</time>
      </trkpt>
      <trkpt lat="60.35013" lon="7.73325">
        <ele>1232.07</ele>
        <time>2019-04-03T12:23:44Z</time>
      </trkpt>
      <trkpt lat="60.3499" lon="7.73316">
        <ele>1227.74</ele>
        <time>2019-04-03T12:23:47Z</time>
      </trkpt>
      <trkpt lat="60.34974" lon="7.7331">
        <ele>1226.3</ele>
        <time>2019-04-03T12:23:49Z</time>
      </trkpt>
      <trkpt lat="60.34957" lon="7.73309">
        <ele>1224.86</ele>
        <time>2019-04-03T12:23:51Z</time>
      </trkpt>
      <trkpt lat="60.34936" lon="7.73309">
        <ele>1224.38</ele>
        <time>2019-04-03T12:23:54Z</time>
      </trkpt>
      <trkpt lat="60.34911" lon="7.7331">
        <ele>1225.82</ele>
        <time>2019-04-03T12:23:58Z</time>
      </trkpt>
      <trkpt lat="60.34886" lon="7.7331">
        <ele>1226.3</ele>
        <time>2019-04-03T12:24:05Z</time>
      </trkpt>
      <trkpt lat="60.34878" lon="7.73303">
        <ele>1226.3</ele>
        <time>2019-04-03T12:24:07Z</time>
      </trkpt>
      <trkpt lat="60.34853" lon="7.73293">
        <ele>1225.34</ele>
        <time>2019-04-03T12:24:12Z</time>
      </trkpt>
      <trkpt lat="60.34826" lon="7.73294">
        <ele>1225.34</ele>
        <time>2019-04-03T12:24:17Z</time>
      </trkpt>
      <trkpt lat="60.34815" lon="7.73292">
        <ele>1225.34</ele>
        <time>2019-04-03T12:24:19Z</time>
      </trkpt>
      <trkpt lat="60.3479" lon="7.73286">
        <ele>1225.82</ele>
        <time>2019-04-03T12:24:24Z</time>
      </trkpt>
      <trkpt lat="60.34763" lon="7.7328">
        <ele>1225.82</ele>
        <time>2019-04-03T12:24:29Z</time>
      </trkpt>
      <trkpt lat="60.34727" lon="7.73288">
        <ele>1224.38</ele>
        <time>2019-04-03T12:24:35Z</time>
      </trkpt>
      <trkpt lat="60.3472" lon="7.7329">
        <ele>1223.9</ele>
        <time>2019-04-03T12:24:36Z</time>
      </trkpt>
      <trkpt lat="60.34704" lon="7.73302">
        <ele>1225.82</ele>
        <time>2019-04-03T12:24:40Z</time>
      </trkpt>
      <trkpt lat="60.34689" lon="7.73292">
        <ele>1227.26</ele>
        <time>2019-04-03T12:24:47Z</time>
      </trkpt>
      <trkpt lat="60.34664" lon="7.7327">
        <ele>1227.26</ele>
        <time>2019-04-03T12:24:54Z</time>
      </trkpt>
      <trkpt lat="60.34655" lon="7.73256">
        <ele>1226.78</ele>
        <time>2019-04-03T12:24:58Z</time>
      </trkpt>
      <trkpt lat="60.34641" lon="7.73247">
        <ele>1225.34</ele>
        <time>2019-04-03T12:25:03Z</time>
      </trkpt>
      <trkpt lat="60.34644" lon="7.73209">
        <ele>1225.34</ele>
        <time>2019-04-03T12:25:11Z</time>
      </trkpt>
      <trkpt lat="60.34647" lon="7.732">
        <ele>1225.34</ele>
        <time>2019-04-03T12:25:14Z</time>
      </trkpt>
      <trkpt lat="60.34657" lon="7.7318">
        <ele>1226.78</ele>
        <time>2019-04-03T12:25:18Z</time>
      </trkpt>
      <trkpt lat="60.34663" lon="7.73133">
        <ele>1226.78</ele>
        <time>2019-04-03T12:25:25Z</time>
      </trkpt>
      <trkpt lat="60.34659" lon="7.73114">
        <ele>1226.78</ele>
        <time>2019-04-03T12:25:28Z</time>
      </trkpt>
      <trkpt lat="60.34648" lon="7.73072">
        <ele>1227.26</ele>
        <time>2019-04-03T12:25:36Z</time>
      </trkpt>
      <trkpt lat="60.34658" lon="7.73035">
        <ele>1227.74</ele>
        <time>2019-04-03T12:25:42Z</time>
      </trkpt>
      <trkpt lat="60.34659" lon="7.73012">
        <ele>1225.82</ele>
        <time>2019-04-03T12:25:45Z</time>
      </trkpt>
      <trkpt lat="60.34648" lon="7.72988">
        <ele>1227.26</ele>
        <time>2019-04-03T12:25:50Z</time>
      </trkpt>
      <trkpt lat="60.34647" lon="7.72982">
        <ele>1227.26</ele>
        <time>2019-04-03T12:25:51Z</time>
      </trkpt>
      <trkpt lat="60.34643" lon="7.72956">
        <ele>1229.18</ele>
        <time>2019-04-03T12:25:56Z</time>
      </trkpt>
      <trkpt lat="60.34641" lon="7.72917">
        <ele>1231.59</ele>
        <time>2019-04-03T12:26:04Z</time>
      </trkpt>
      <trkpt lat="60.34639" lon="7.72907">
        <ele>1233.03</ele>
        <time>2019-04-03T12:26:06Z</time>
      </trkpt>
      <trkpt lat="60.34639" lon="7.72864">
        <ele>1234.95</ele>
        <time>2019-04-03T12:26:13Z</time>
      </trkpt>
      <trkpt lat="60.34638" lon="7.72858">
        <ele>1234.95</ele>
        <time>2019-04-03T12:26:14Z</time>
      </trkpt>
      <trkpt lat="60.34645" lon="7.72821">
        <ele>1234.47</ele>
        <time>2019-04-03T12:26:22Z</time>
      </trkpt>
      <trkpt lat="60.34645" lon="7.72817">
        <ele>1234.47</ele>
        <time>2019-04-03T12:26:24Z</time>
      </trkpt>
      <trkpt lat="60.34645" lon="7.72809">
        <ele>1232.55</ele>
        <time>2019-04-03T12:26:27Z</time>
      </trkpt>
      <trkpt lat="60.34639" lon="7.72775">
        <ele>1232.55</ele>
        <time>2019-04-03T12:26:33Z</time>
      </trkpt>
      <trkpt lat="60.34636" lon="7.72761">
        <ele>1232.07</ele>
        <time>2019-04-03T12:26:35Z</time>
      </trkpt>
      <trkpt lat="60.34628" lon="7.72743">
        <ele>1230.62</ele>
        <time>2019-04-03T12:26:38Z</time>
      </trkpt>
      <trkpt lat="60.34622" lon="7.7273">
        <ele>1230.62</ele>
        <time>2019-04-03T12:26:40Z</time>
      </trkpt>
      <trkpt lat="60.3461" lon="7.72708">
        <ele>1228.7</ele>
        <time>2019-04-03T12:26:43Z</time>
      </trkpt>
      <trkpt lat="60.34596" lon="7.72689">
        <ele>1225.82</ele>
        <time>2019-04-03T12:26:46Z</time>
      </trkpt>
      <trkpt lat="60.34591" lon="7.72684">
        <ele>1224.86</ele>
        <time>2019-04-03T12:26:47Z</time>
      </trkpt>
      <trkpt lat="60.34581" lon="7.72673">
        <ele>1224.86</ele>
        <time>2019-04-03T12:26:49Z</time>
      </trkpt>
      <trkpt lat="60.34571" lon="7.72662">
        <ele>1222.93</ele>
        <time>2019-04-03T12:26:51Z</time>
      </trkpt>
      <trkpt lat="60.34565" lon="7.72658">
        <ele>1222.93</ele>
        <time>2019-04-03T12:26:52Z</time>
      </trkpt>
      <trkpt lat="60.34552" lon="7.72653">
        <ele>1221.97</ele>
        <time>2019-04-03T12:26:55Z</time>
      </trkpt>
      <trkpt lat="60.34536" lon="7.72651">
        <ele>1219.57</ele>
        <time>2019-04-03T12:27:00Z</time>
      </trkpt>
      <trkpt lat="60.3452" lon="7.72645">
        <ele>1217.17</ele>
        <time>2019-04-03T12:27:04Z</time>
      </trkpt>
      <trkpt lat="60.34516" lon="7.72644">
        <ele>1215.72</ele>
        <time>2019-04-03T12:27:05Z</time>
      </trkpt>
      <trkpt lat="60.34502" lon="7.72645">
        <ele>1213.8</ele>
        <time>2019-04-03T12:27:08Z</time>
      </trkpt>
      <trkpt lat="60.34491" lon="7.72634">
        <ele>1212.36</ele>
        <time>2019-04-03T12:27:12Z</time>
      </trkpt>
      <trkpt lat="60.34472" lon="7.72618">
        <ele>1208.51</ele>
        <time>2019-04-03T12:27:16Z</time>
      </trkpt>
      <trkpt lat="60.3446" lon="7.72625">
        <ele>1204.67</ele>
        <time>2019-04-03T12:27:19Z</time>
      </trkpt>
      <trkpt lat="60.34454" lon="7.72635">
        <ele>1203.71</ele>
        <time>2019-04-03T12:27:21Z</time>
      </trkpt>
      <trkpt lat="60.34449" lon="7.72645">
        <ele>1202.75</ele>
        <time>2019-04-03T12:27:23Z</time>
      </trkpt>
      <trkpt lat="60.34443" lon="7.72653">
        <ele>1201.3</ele>
        <time>2019-04-03T12:27:25Z</time>
      </trkpt>
      <trkpt lat="60.34436" lon="7.72646">
        <ele>1200.82</ele>
        <time>2019-04-03T12:27:30Z</time>
      </trkpt>
      <trkpt lat="60.34423" lon="7.72641">
        <ele>1198.9</ele>
        <time>2019-04-03T12:27:34Z</time>
      </trkpt>
      <trkpt lat="60.34414" lon="7.72624">
        <ele>1196.5</ele>
        <time>2019-04-03T12:27:38Z</time>
      </trkpt>
      <trkpt lat="60.34415" lon="7.72608">
        <ele>1196.5</ele>
        <time>2019-04-03T12:27:41Z</time>
      </trkpt>
      <trkpt lat="60.34408" lon="7.72581">
        <ele>1194.58</ele>
        <time>2019-04-03T12:27:46Z</time>
      </trkpt>
      <trkpt lat="60.34393" lon="7.72561">
        <ele>1190.25</ele>
        <time>2019-04-03T12:27:49Z</time>
      </trkpt>
      <trkpt lat="60.34381" lon="7.7255">
        <ele>1188.81</ele>
        <time>2019-04-03T12:27:52Z</time>
      </trkpt>
      <trkpt lat="60.34378" lon="7.72545">
        <ele>1188.81</ele>
        <time>2019-04-03T12:27:53Z</time>
      </trkpt>
      <trkpt lat="60.34359" lon="7.72527">
        <ele>1186.4</ele>
        <time>2019-04-03T12:27:57Z</time>
      </trkpt>
      <trkpt lat="60.34343" lon="7.72513">
        <ele>1184</ele>
        <time>2019-04-03T12:28:00Z</time>
      </trkpt>
      <trkpt lat="60.34331" lon="7.72501">
        <ele>1180.64</ele>
        <time>2019-04-03T12:28:02Z</time>
      </trkpt>
      <trkpt lat="60.34325" lon="7.72496">
        <ele>1177.75</ele>
        <time>2019-04-03T12:28:03Z</time>
      </trkpt>
      <trkpt lat="60.34307" lon="7.72478">
        <ele>1173.91</ele>
        <time>2019-04-03T12:28:06Z</time>
      </trkpt>
      <trkpt lat="60.34294" lon="7.72463">
        <ele>1171.5</ele>
        <time>2019-04-03T12:28:08Z</time>
      </trkpt>
      <trkpt lat="60.34267" lon="7.72444">
        <ele>1167.18</ele>
        <time>2019-04-03T12:28:12Z</time>
      </trkpt>
      <trkpt lat="60.34251" lon="7.72437">
        <ele>1163.33</ele>
        <time>2019-04-03T12:28:14Z</time>
      </trkpt>
      <trkpt lat="60.34234" lon="7.72429">
        <ele>1160.93</ele>
        <time>2019-04-03T12:28:16Z</time>
      </trkpt>
      <trkpt lat="60.34207" lon="7.72414">
        <ele>1157.56</ele>
        <time>2019-04-03T12:28:19Z</time>
      </trkpt>
      <trkpt lat="60.34187" lon="7.72404">
        <ele>1156.6</ele>
        <time>2019-04-03T12:28:21Z</time>
      </trkpt>
      <trkpt lat="60.34142" lon="7.72374">
        <ele>1152.76</ele>
        <time>2019-04-03T12:28:26Z</time>
      </trkpt>
      <trkpt lat="60.34054" lon="7.72319">
        <ele>1151.32</ele>
        <time>2019-04-03T12:28:37Z</time>
      </trkpt>
      <trkpt lat="60.33995" lon="7.72274">
        <ele>1150.35</ele>
        <time>2019-04-03T12:28:46Z</time>
      </trkpt>
      <trkpt lat="60.3399" lon="7.72271">
        <ele>1150.35</ele>
        <time>2019-04-03T12:28:47Z</time>
      </trkpt>
      <trkpt lat="60.33964" lon="7.72226">
        <ele>1152.76</ele>
        <time>2019-04-03T12:28:54Z</time>
      </trkpt>
      <trkpt lat="60.33955" lon="7.72215">
        <ele>1152.76</ele>
        <time>2019-04-03T12:28:56Z</time>
      </trkpt>
      <trkpt lat="60.33945" lon="7.72205">
        <ele>1150.35</ele>
        <time>2019-04-03T12:28:58Z</time>
      </trkpt>
      <trkpt lat="60.33909" lon="7.72182">
        <ele>1152.28</ele>
        <time>2019-04-03T12:29:04Z</time>
      </trkpt>
      <trkpt lat="60.33899" lon="7.72174">
        <ele>1152.28</ele>
        <time>2019-04-03T12:29:06Z</time>
      </trkpt>
      <trkpt lat="60.33879" lon="7.72162">
        <ele>1152.28</ele>
        <time>2019-04-03T12:29:10Z</time>
      </trkpt>
      <trkpt lat="60.33865" lon="7.72147">
        <ele>1152.28</ele>
        <time>2019-04-03T12:29:13Z</time>
      </trkpt>
      <trkpt lat="60.33855" lon="7.72138">
        <ele>1150.84</ele>
        <time>2019-04-03T12:29:15Z</time>
      </trkpt>
      <trkpt lat="60.33844" lon="7.72131">
        <ele>1152.28</ele>
        <time>2019-04-03T12:29:17Z</time>
      </trkpt>
      <trkpt lat="60.33828" lon="7.72099">
        <ele>1152.28</ele>
        <time>2019-04-03T12:29:21Z</time>
      </trkpt>
      <trkpt lat="60.33813" lon="7.72081">
        <ele>1151.8</ele>
        <time>2019-04-03T12:29:24Z</time>
      </trkpt>
      <trkpt lat="60.33801" lon="7.72074">
        <ele>1151.8</ele>
        <time>2019-04-03T12:29:26Z</time>
      </trkpt>
      <trkpt lat="60.33777" lon="7.72047">
        <ele>1151.8</ele>
        <time>2019-04-03T12:29:32Z</time>
      </trkpt>
      <trkpt lat="60.33752" lon="7.7201">
        <ele>1152.28</ele>
        <time>2019-04-03T12:29:40Z</time>
      </trkpt>
      <trkpt lat="60.33749" lon="7.72005">
        <ele>1152.28</ele>
        <time>2019-04-03T12:29:41Z</time>
      </trkpt>
      <trkpt lat="60.33744" lon="7.71979">
        <ele>1152.28</ele>
        <time>2019-04-03T12:29:46Z</time>
      </trkpt>
      <trkpt lat="60.33742" lon="7.71964">
        <ele>1152.28</ele>
        <time>2019-04-03T12:29:49Z</time>
      </trkpt>
      <trkpt lat="60.33739" lon="7.71952">
        <ele>1152.28</ele>
        <time>2019-04-03T12:29:52Z</time>
      </trkpt>
      <trkpt lat="60.33737" lon="7.7194">
        <ele>1152.76</ele>
        <time>2019-04-03T12:29:56Z</time>
      </trkpt>
      <trkpt lat="60.33728" lon="7.71917">
        <ele>1154.68</ele>
        <time>2019-04-03T12:30:03Z</time>
      </trkpt>
      <trkpt lat="60.33726" lon="7.71915">
        <ele>1155.16</ele>
        <time>2019-04-03T12:30:04Z</time>
      </trkpt>
      <trkpt lat="60.33717" lon="7.71906">
        <ele>1156.6</ele>
        <time>2019-04-03T12:30:11Z</time>
      </trkpt>
      <trkpt lat="60.33714" lon="7.71901">
        <ele>1157.08</ele>
        <time>2019-04-03T12:30:21Z</time>
      </trkpt>
      <trkpt lat="60.33714" lon="7.71898">
        <ele>1157.08</ele>
        <time>2019-04-03T12:30:31Z</time>
      </trkpt>
      <trkpt lat="60.33713" lon="7.71897">
        <ele>1157.08</ele>
        <time>2019-04-03T12:30:35Z</time>
      </trkpt>
      <trkpt lat="60.33705" lon="7.71885">
        <ele>1157.08</ele>
        <time>2019-04-03T12:30:40Z</time>
      </trkpt>
      <trkpt lat="60.33702" lon="7.71877">
        <ele>1157.08</ele>
        <time>2019-04-03T12:30:43Z</time>
      </trkpt>
      <trkpt lat="60.337" lon="7.71861">
        <ele>1157.08</ele>
        <time>2019-04-03T12:30:51Z</time>
      </trkpt>
      <trkpt lat="60.337" lon="7.71863">
        <ele>1157.08</ele>
        <time>2019-04-03T12:31:08Z</time>
      </trkpt>
      <trkpt lat="60.337" lon="7.71861">
        <ele>1157.08</ele>
        <time>2019-04-03T12:31:25Z</time>
      </trkpt>
      <trkpt lat="60.33698" lon="7.71857">
        <ele>1157.08</ele>
        <time>2019-04-03T12:31:37Z</time>
      </trkpt>
      <trkpt lat="60.33697" lon="7.71854">
        <ele>1157.08</ele>
        <time>2019-04-03T12:31:47Z</time>
      </trkpt>
      <trkpt lat="60.33698" lon="7.71848">
        <ele>1157.08</ele>
        <time>2019-04-03T12:31:57Z</time>
      </trkpt>
      <trkpt lat="60.33697" lon="7.71847">
        <ele>1157.08</ele>
        <time>2019-04-03T12:32:04Z</time>
      </trkpt>
      <trkpt lat="60.33689" lon="7.71847">
        <ele>1155.64</ele>
        <time>2019-04-03T12:32:07Z</time>
      </trkpt>
      <trkpt lat="60.33668" lon="7.7186">
        <ele>1151.32</ele>
        <time>2019-04-03T12:32:11Z</time>
      </trkpt>
      <trkpt lat="60.33658" lon="7.71865">
        <ele>1151.32</ele>
        <time>2019-04-03T12:32:13Z</time>
      </trkpt>
      <trkpt lat="60.33631" lon="7.71866">
        <ele>1150.84</ele>
        <time>2019-04-03T12:32:21Z</time>
      </trkpt>
      <trkpt lat="60.33619" lon="7.71858">
        <ele>1151.32</ele>
        <time>2019-04-03T12:32:25Z</time>
      </trkpt>
      <trkpt lat="60.3361" lon="7.71851">
        <ele>1151.32</ele>
        <time>2019-04-03T12:32:27Z</time>
      </trkpt>
      <trkpt lat="60.33589" lon="7.71849">
        <ele>1148.91</ele>
        <time>2019-04-03T12:32:31Z</time>
      </trkpt>
      <trkpt lat="60.33583" lon="7.71849">
        <ele>1150.35</ele>
        <time>2019-04-03T12:32:32Z</time>
      </trkpt>
      <trkpt lat="60.33574" lon="7.71843">
        <ele>1151.8</ele>
        <time>2019-04-03T12:32:34Z</time>
      </trkpt>
      <trkpt lat="60.33559" lon="7.71819">
        <ele>1151.8</ele>
        <time>2019-04-03T12:32:38Z</time>
      </trkpt>
      <trkpt lat="60.33528" lon="7.718">
        <ele>1152.76</ele>
        <time>2019-04-03T12:32:47Z</time>
      </trkpt>
      <trkpt lat="60.33522" lon="7.71801">
        <ele>1152.76</ele>
        <time>2019-04-03T12:32:52Z</time>
      </trkpt>
      <trkpt lat="60.33502" lon="7.71795">
        <ele>1152.76</ele>
        <time>2019-04-03T12:33:00Z</time>
      </trkpt>
      <trkpt lat="60.3348" lon="7.71769">
        <ele>1152.76</ele>
        <time>2019-04-03T12:33:08Z</time>
      </trkpt>
      <trkpt lat="60.33477" lon="7.71764">
        <ele>1152.76</ele>
        <time>2019-04-03T12:33:09Z</time>
      </trkpt>
      <trkpt lat="60.33457" lon="7.71743">
        <ele>1151.8</ele>
        <time>2019-04-03T12:33:15Z</time>
      </trkpt>
      <trkpt lat="60.33432" lon="7.71727">
        <ele>1152.76</ele>
        <time>2019-04-03T12:33:23Z</time>
      </trkpt>
      <trkpt lat="60.33427" lon="7.71712">
        <ele>1153.24</ele>
        <time>2019-04-03T12:33:28Z</time>
      </trkpt>
      <trkpt lat="60.33421" lon="7.71694">
        <ele>1154.2</ele>
        <time>2019-04-03T12:33:36Z</time>
      </trkpt>
      <trkpt lat="60.33412" lon="7.71685">
        <ele>1155.16</ele>
        <time>2019-04-03T12:33:42Z</time>
      </trkpt>
      <trkpt lat="60.33407" lon="7.71676">
        <ele>1155.16</ele>
        <time>2019-04-03T12:33:44Z</time>
      </trkpt>
      <trkpt lat="60.33397" lon="7.71662">
        <ele>1155.16</ele>
        <time>2019-04-03T12:33:47Z</time>
      </trkpt>
      <trkpt lat="60.33374" lon="7.7165">
        <ele>1150.84</ele>
        <time>2019-04-03T12:33:51Z</time>
      </trkpt>
      <trkpt lat="60.33356" lon="7.71654">
        <ele>1150.84</ele>
        <time>2019-04-03T12:33:55Z</time>
      </trkpt>
      <trkpt lat="60.3335" lon="7.71653">
        <ele>1152.28</ele>
        <time>2019-04-03T12:33:59Z</time>
      </trkpt>
      <trkpt lat="60.3335" lon="7.71651">
        <ele>1152.28</ele>
        <time>2019-04-03T12:34:07Z</time>
      </trkpt>
      <trkpt lat="60.3335" lon="7.71651">
        <ele>1152.28</ele>
        <time>2019-04-03T12:34:08Z</time>
      </trkpt>
      <trkpt lat="60.33342" lon="7.71643">
        <ele>1152.76</ele>
        <time>2019-04-03T12:34:15Z</time>
      </trkpt>
      <trkpt lat="60.33333" lon="7.71638">
        <ele>1152.76</ele>
        <time>2019-04-03T12:34:19Z</time>
      </trkpt>
      <trkpt lat="60.33317" lon="7.71628">
        <ele>1153.24</ele>
        <time>2019-04-03T12:34:28Z</time>
      </trkpt>
      <trkpt lat="60.33301" lon="7.71622">
        <ele>1153.72</ele>
        <time>2019-04-03T12:34:34Z</time>
      </trkpt>
      <trkpt lat="60.33293" lon="7.71616">
        <ele>1152.28</ele>
        <time>2019-04-03T12:34:36Z</time>
      </trkpt>
      <trkpt lat="60.33278" lon="7.71612">
        <ele>1152.28</ele>
        <time>2019-04-03T12:34:39Z</time>
      </trkpt>
      <trkpt lat="60.33259" lon="7.71609">
        <ele>1151.8</ele>
        <time>2019-04-03T12:34:45Z</time>
      </trkpt>
      <trkpt lat="60.33243" lon="7.71596">
        <ele>1153.72</ele>
        <time>2019-04-03T12:34:56Z</time>
      </trkpt>
      <trkpt lat="60.33232" lon="7.71576">
        <ele>1154.68</ele>
        <time>2019-04-03T12:35:05Z</time>
      </trkpt>
      <trkpt lat="60.33231" lon="7.71574">
        <ele>1154.68</ele>
        <time>2019-04-03T12:35:06Z</time>
      </trkpt>
      <trkpt lat="60.33228" lon="7.7157">
        <ele>1155.16</ele>
        <time>2019-04-03T12:35:10Z</time>
      </trkpt>
      <trkpt lat="60.33223" lon="7.71562">
        <ele>1155.64</ele>
        <time>2019-04-03T12:35:15Z</time>
      </trkpt>
      <trkpt lat="60.33217" lon="7.71549">
        <ele>1155.64</ele>
        <time>2019-04-03T12:35:21Z</time>
      </trkpt>
      <trkpt lat="60.332" lon="7.71534">
        <ele>1155.64</ele>
        <time>2019-04-03T12:35:32Z</time>
      </trkpt>
      <trkpt lat="60.33196" lon="7.71529">
        <ele>1155.64</ele>
        <time>2019-04-03T12:35:34Z</time>
      </trkpt>
      <trkpt lat="60.33191" lon="7.71527">
        <ele>1154.2</ele>
        <time>2019-04-03T12:35:36Z</time>
      </trkpt>
      <trkpt lat="60.33176" lon="7.71512">
        <ele>1154.2</ele>
        <time>2019-04-03T12:35:42Z</time>
      </trkpt>
      <trkpt lat="60.33144" lon="7.71513">
        <ele>1153.24</ele>
        <time>2019-04-03T12:35:51Z</time>
      </trkpt>
      <trkpt lat="60.33123" lon="7.71516">
        <ele>1153.24</ele>
        <time>2019-04-03T12:35:58Z</time>
      </trkpt>
      <trkpt lat="60.33114" lon="7.71513">
        <ele>1153.24</ele>
        <time>2019-04-03T12:36:01Z</time>
      </trkpt>
      <trkpt lat="60.33095" lon="7.71523">
        <ele>1153.24</ele>
        <time>2019-04-03T12:36:06Z</time>
      </trkpt>
      <trkpt lat="60.33075" lon="7.7154">
        <ele>1154.2</ele>
        <time>2019-04-03T12:36:13Z</time>
      </trkpt>
      <trkpt lat="60.33073" lon="7.71541">
        <ele>1154.2</ele>
        <time>2019-04-03T12:36:14Z</time>
      </trkpt>
      <trkpt lat="60.33065" lon="7.71547">
        <ele>1154.68</ele>
        <time>2019-04-03T12:36:20Z</time>
      </trkpt>
      <trkpt lat="60.33062" lon="7.71546">
        <ele>1155.16</ele>
        <time>2019-04-03T12:36:24Z</time>
      </trkpt>
      <trkpt lat="60.33059" lon="7.71552">
        <ele>1155.16</ele>
        <time>2019-04-03T12:36:32Z</time>
      </trkpt>
      <trkpt lat="60.33058" lon="7.71553">
        <ele>1155.16</ele>
        <time>2019-04-03T12:36:38Z</time>
      </trkpt>
      <trkpt lat="60.33054" lon="7.7155">
        <ele>1156.12</ele>
        <time>2019-04-03T12:36:46Z</time>
      </trkpt>
      <trkpt lat="60.33053" lon="7.71549">
        <ele>1156.6</ele>
        <time>2019-04-03T12:36:54Z</time>
      </trkpt>
      <trkpt lat="60.33051" lon="7.71549">
        <ele>1156.6</ele>
        <time>2019-04-03T12:37:03Z</time>
      </trkpt>
      <trkpt lat="60.33051" lon="7.7155">
        <ele>1156.6</ele>
        <time>2019-04-03T12:37:05Z</time>
      </trkpt>
      <trkpt lat="60.33049" lon="7.71551">
        <ele>1156.6</ele>
        <time>2019-04-03T12:37:14Z</time>
      </trkpt>
      <trkpt lat="60.33046" lon="7.71555">
        <ele>1156.6</ele>
        <time>2019-04-03T12:37:17Z</time>
      </trkpt>
      <trkpt lat="60.33043" lon="7.71558">
        <ele>1156.6</ele>
        <time>2019-04-03T12:37:22Z</time>
      </trkpt>
      <trkpt lat="60.33034" lon="7.71561">
        <ele>1155.64</ele>
        <time>2019-04-03T12:37:30Z</time>
      </trkpt>
      <trkpt lat="60.33034" lon="7.71561">
        <ele>1155.16</ele>
        <time>2019-04-03T12:37:34Z</time>
      </trkpt>
      <trkpt lat="60.33031" lon="7.71569">
        <ele>1155.16</ele>
        <time>2019-04-03T12:37:44Z</time>
      </trkpt>
      <trkpt lat="60.33031" lon="7.71569">
        <ele>1155.16</ele>
        <time>2019-04-03T12:37:48Z</time>
      </trkpt>
      <trkpt lat="60.33028" lon="7.71568">
        <ele>1156.6</ele>
        <time>2019-04-03T12:37:56Z</time>
      </trkpt>
      <trkpt lat="60.33025" lon="7.71567">
        <ele>1157.56</ele>
        <time>2019-04-03T12:38:05Z</time>
      </trkpt>
      <trkpt lat="60.33019" lon="7.71563">
        <ele>1158.53</ele>
        <time>2019-04-03T12:38:13Z</time>
      </trkpt>
      <trkpt lat="60.33013" lon="7.71559">
        <ele>1158.53</ele>
        <time>2019-04-03T12:38:16Z</time>
      </trkpt>
      <trkpt lat="60.32994" lon="7.71559">
        <ele>1159.01</ele>
        <time>2019-04-03T12:38:23Z</time>
      </trkpt>
      <trkpt lat="60.32984" lon="7.71559">
        <ele>1157.08</ele>
        <time>2019-04-03T12:38:26Z</time>
      </trkpt>
      <trkpt lat="60.32971" lon="7.71551">
        <ele>1155.64</ele>
        <time>2019-04-03T12:38:30Z</time>
      </trkpt>
      <trkpt lat="60.3296" lon="7.71531">
        <ele>1155.64</ele>
        <time>2019-04-03T12:38:34Z</time>
      </trkpt>
      <trkpt lat="60.32944" lon="7.71517">
        <ele>1155.64</ele>
        <time>2019-04-03T12:38:39Z</time>
      </trkpt>
      <trkpt lat="60.32936" lon="7.71495">
        <ele>1155.64</ele>
        <time>2019-04-03T12:38:48Z</time>
      </trkpt>
      <trkpt lat="60.32934" lon="7.71484">
        <ele>1155.64</ele>
        <time>2019-04-03T12:38:52Z</time>
      </trkpt>
      <trkpt lat="60.3293" lon="7.71472">
        <ele>1157.08</ele>
        <time>2019-04-03T12:39:00Z</time>
      </trkpt>
      <trkpt lat="60.32928" lon="7.71468">
        <ele>1157.08</ele>
        <time>2019-04-03T12:39:03Z</time>
      </trkpt>
      <trkpt lat="60.32919" lon="7.71447">
        <ele>1157.56</ele>
        <time>2019-04-03T12:39:14Z</time>
      </trkpt>
      <trkpt lat="60.32911" lon="7.7143">
        <ele>1158.53</ele>
        <time>2019-04-03T12:39:22Z</time>
      </trkpt>
      <trkpt lat="60.32905" lon="7.71411">
        <ele>1159.49</ele>
        <time>2019-04-03T12:39:32Z</time>
      </trkpt>
      <trkpt lat="60.32902" lon="7.71402">
        <ele>1159.97</ele>
        <time>2019-04-03T12:39:37Z</time>
      </trkpt>
      <trkpt lat="60.32901" lon="7.71394">
        <ele>1159.97</ele>
        <time>2019-04-03T12:39:42Z</time>
      </trkpt>
      <trkpt lat="60.32898" lon="7.71384">
        <ele>1160.45</ele>
        <time>2019-04-03T12:39:47Z</time>
      </trkpt>
      <trkpt lat="60.32895" lon="7.71371">
        <ele>1162.37</ele>
        <time>2019-04-03T12:39:56Z</time>
      </trkpt>
      <trkpt lat="60.32895" lon="7.71369">
        <ele>1162.37</ele>
        <time>2019-04-03T12:39:57Z</time>
      </trkpt>
      <trkpt lat="60.32893" lon="7.71357">
        <ele>1162.37</ele>
        <time>2019-04-03T12:40:06Z</time>
      </trkpt>
      <trkpt lat="60.32891" lon="7.71344">
        <ele>1162.85</ele>
        <time>2019-04-03T12:40:15Z</time>
      </trkpt>
      <trkpt lat="60.3289" lon="7.7134">
        <ele>1163.33</ele>
        <time>2019-04-03T12:40:19Z</time>
      </trkpt>
      <trkpt lat="60.32888" lon="7.71335">
        <ele>1164.29</ele>
        <time>2019-04-03T12:40:24Z</time>
      </trkpt>
      <trkpt lat="60.32885" lon="7.71326">
        <ele>1164.77</ele>
        <time>2019-04-03T12:40:33Z</time>
      </trkpt>
      <trkpt lat="60.32883" lon="7.71322">
        <ele>1164.77</ele>
        <time>2019-04-03T12:40:38Z</time>
      </trkpt>
      <trkpt lat="60.32879" lon="7.71316">
        <ele>1165.74</ele>
        <time>2019-04-03T12:40:44Z</time>
      </trkpt>
      <trkpt lat="60.32869" lon="7.71317">
        <ele>1163.81</ele>
        <time>2019-04-03T12:40:48Z</time>
      </trkpt>
      <trkpt lat="60.32856" lon="7.71315">
        <ele>1162.37</ele>
        <time>2019-04-03T12:40:51Z</time>
      </trkpt>
      <trkpt lat="60.32844" lon="7.71297">
        <ele>1162.37</ele>
        <time>2019-04-03T12:40:57Z</time>
      </trkpt>
      <trkpt lat="60.32841" lon="7.71281">
        <ele>1163.81</ele>
        <time>2019-04-03T12:41:02Z</time>
      </trkpt>
      <trkpt lat="60.32841" lon="7.71278">
        <ele>1163.81</ele>
        <time>2019-04-03T12:41:03Z</time>
      </trkpt>
      <trkpt lat="60.3284" lon="7.71258">
        <ele>1164.77</ele>
        <time>2019-04-03T12:41:13Z</time>
      </trkpt>
      <trkpt lat="60.32839" lon="7.71255">
        <ele>1165.26</ele>
        <time>2019-04-03T12:41:15Z</time>
      </trkpt>
      <trkpt lat="60.32837" lon="7.71234">
        <ele>1165.74</ele>
        <time>2019-04-03T12:41:24Z</time>
      </trkpt>
      <trkpt lat="60.32837" lon="7.71227">
        <ele>1165.74</ele>
        <time>2019-04-03T12:41:27Z</time>
      </trkpt>
      <trkpt lat="60.32834" lon="7.71219">
        <ele>1166.22</ele>
        <time>2019-04-03T12:41:31Z</time>
      </trkpt>
      <trkpt lat="60.32828" lon="7.71205">
        <ele>1166.7</ele>
        <time>2019-04-03T12:41:38Z</time>
      </trkpt>
      <trkpt lat="60.32822" lon="7.71186">
        <ele>1166.7</ele>
        <time>2019-04-03T12:41:48Z</time>
      </trkpt>
      <trkpt lat="60.32822" lon="7.71185">
        <ele>1166.7</ele>
        <time>2019-04-03T12:41:49Z</time>
      </trkpt>
      <trkpt lat="60.32821" lon="7.71166">
        <ele>1166.7</ele>
        <time>2019-04-03T12:41:56Z</time>
      </trkpt>
      <trkpt lat="60.3282" lon="7.7116">
        <ele>1166.7</ele>
        <time>2019-04-03T12:42:00Z</time>
      </trkpt>
      <trkpt lat="60.32818" lon="7.71153">
        <ele>1166.7</ele>
        <time>2019-04-03T12:42:08Z</time>
      </trkpt>
      <trkpt lat="60.32817" lon="7.7115">
        <ele>1166.7</ele>
        <time>2019-04-03T12:42:11Z</time>
      </trkpt>
      <trkpt lat="60.32816" lon="7.71144">
        <ele>1166.7</ele>
        <time>2019-04-03T12:42:14Z</time>
      </trkpt>
      <trkpt lat="60.3281" lon="7.71131">
        <ele>1166.7</ele>
        <time>2019-04-03T12:42:21Z</time>
      </trkpt>
      <trkpt lat="60.32803" lon="7.71115">
        <ele>1166.7</ele>
        <time>2019-04-03T12:42:30Z</time>
      </trkpt>
      <trkpt lat="60.32796" lon="7.71101">
        <ele>1166.7</ele>
        <time>2019-04-03T12:42:37Z</time>
      </trkpt>
      <trkpt lat="60.32793" lon="7.71092">
        <ele>1166.7</ele>
        <time>2019-04-03T12:42:40Z</time>
      </trkpt>
      <trkpt lat="60.3279" lon="7.71088">
        <ele>1166.7</ele>
        <time>2019-04-03T12:42:43Z</time>
      </trkpt>
      <trkpt lat="60.32785" lon="7.71077">
        <ele>1167.18</ele>
        <time>2019-04-03T12:42:53Z</time>
      </trkpt>
      <trkpt lat="60.32782" lon="7.7107">
        <ele>1167.18</ele>
        <time>2019-04-03T12:43:05Z</time>
      </trkpt>
      <trkpt lat="60.3278" lon="7.71067">
        <ele>1167.66</ele>
        <time>2019-04-03T12:43:12Z</time>
      </trkpt>
      <trkpt lat="60.32776" lon="7.7106">
        <ele>1168.14</ele>
        <time>2019-04-03T12:43:21Z</time>
      </trkpt>
      <trkpt lat="60.32773" lon="7.71054">
        <ele>1168.62</ele>
        <time>2019-04-03T12:43:30Z</time>
      </trkpt>
      <trkpt lat="60.32772" lon="7.71051">
        <ele>1169.58</ele>
        <time>2019-04-03T12:43:38Z</time>
      </trkpt>
      <trkpt lat="60.3277" lon="7.71046">
        <ele>1168.14</ele>
        <time>2019-04-03T12:43:44Z</time>
      </trkpt>
      <trkpt lat="60.32768" lon="7.71039">
        <ele>1170.06</ele>
        <time>2019-04-03T12:43:51Z</time>
      </trkpt>
      <trkpt lat="60.32765" lon="7.71033">
        <ele>1170.54</ele>
        <time>2019-04-03T12:43:57Z</time>
      </trkpt>
      <trkpt lat="60.32762" lon="7.7103">
        <ele>1170.06</ele>
        <time>2019-04-03T12:44:06Z</time>
      </trkpt>
      <trkpt lat="60.32762" lon="7.71031">
        <ele>1170.06</ele>
        <time>2019-04-03T12:44:19Z</time>
      </trkpt>
      <trkpt lat="60.32761" lon="7.71029">
        <ele>1170.06</ele>
        <time>2019-04-03T12:44:34Z</time>
      </trkpt>
      <trkpt lat="60.32757" lon="7.71023">
        <ele>1170.06</ele>
        <time>2019-04-03T12:44:43Z</time>
      </trkpt>
      <trkpt lat="60.32754" lon="7.71019">
        <ele>1170.06</ele>
        <time>2019-04-03T12:44:53Z</time>
      </trkpt>
      <trkpt lat="60.32753" lon="7.71017">
        <ele>1170.06</ele>
        <time>2019-04-03T12:44:57Z</time>
      </trkpt>
      <trkpt lat="60.32751" lon="7.71011">
        <ele>1170.54</ele>
        <time>2019-04-03T12:45:01Z</time>
      </trkpt>
      <trkpt lat="60.32748" lon="7.71006">
        <ele>1171.5</ele>
        <time>2019-04-03T12:45:05Z</time>
      </trkpt>
      <trkpt lat="60.32739" lon="7.70994">
        <ele>1171.5</ele>
        <time>2019-04-03T12:45:16Z</time>
      </trkpt>
      <trkpt lat="60.32739" lon="7.70994">
        <ele>1171.5</ele>
        <time>2019-04-03T12:45:17Z</time>
      </trkpt>
      <trkpt lat="60.32733" lon="7.70983">
        <ele>1171.5</ele>
        <time>2019-04-03T12:45:27Z</time>
      </trkpt>
      <trkpt lat="60.32732" lon="7.70981">
        <ele>1171.5</ele>
        <time>2019-04-03T12:45:29Z</time>
      </trkpt>
      <trkpt lat="60.32729" lon="7.70975">
        <ele>1171.5</ele>
        <time>2019-04-03T12:45:39Z</time>
      </trkpt>
      <trkpt lat="60.32725" lon="7.7097">
        <ele>1171.98</ele>
        <time>2019-04-03T12:45:49Z</time>
      </trkpt>
      <trkpt lat="60.32723" lon="7.70964">
        <ele>1171.98</ele>
        <time>2019-04-03T12:45:54Z</time>
      </trkpt>
      <trkpt lat="60.32721" lon="7.70961">
        <ele>1171.98</ele>
        <time>2019-04-03T12:46:05Z</time>
      </trkpt>
      <trkpt lat="60.3272" lon="7.7096">
        <ele>1172.47</ele>
        <time>2019-04-03T12:46:11Z</time>
      </trkpt>
      <trkpt lat="60.32717" lon="7.70954">
        <ele>1171.98</ele>
        <time>2019-04-03T12:46:17Z</time>
      </trkpt>
      <trkpt lat="60.32714" lon="7.70951">
        <ele>1171.02</ele>
        <time>2019-04-03T12:46:21Z</time>
      </trkpt>
      <trkpt lat="60.32713" lon="7.70951">
        <ele>1171.02</ele>
        <time>2019-04-03T12:46:25Z</time>
      </trkpt>
      <trkpt lat="60.32709" lon="7.70943">
        <ele>1171.02</ele>
        <time>2019-04-03T12:46:31Z</time>
      </trkpt>
      <trkpt lat="60.32707" lon="7.70945">
        <ele>1171.98</ele>
        <time>2019-04-03T12:46:40Z</time>
      </trkpt>
      <trkpt lat="60.32705" lon="7.70941">
        <ele>1171.98</ele>
        <time>2019-04-03T12:46:52Z</time>
      </trkpt>
      <trkpt lat="60.32703" lon="7.7094">
        <ele>1171.98</ele>
        <time>2019-04-03T12:46:54Z</time>
      </trkpt>
      <trkpt lat="60.32696" lon="7.70931">
        <ele>1172.47</ele>
        <time>2019-04-03T12:47:05Z</time>
      </trkpt>
      <trkpt lat="60.32693" lon="7.7093">
        <ele>1173.43</ele>
        <time>2019-04-03T12:47:14Z</time>
      </trkpt>
      <trkpt lat="60.32689" lon="7.70926">
        <ele>1173.43</ele>
        <time>2019-04-03T12:47:23Z</time>
      </trkpt>
      <trkpt lat="60.32683" lon="7.7092">
        <ele>1173.91</ele>
        <time>2019-04-03T12:47:34Z</time>
      </trkpt>
      <trkpt lat="60.3268" lon="7.70915">
        <ele>1174.87</ele>
        <time>2019-04-03T12:47:43Z</time>
      </trkpt>
      <trkpt lat="60.32678" lon="7.7091">
        <ele>1174.87</ele>
        <time>2019-04-03T12:47:50Z</time>
      </trkpt>
      <trkpt lat="60.32673" lon="7.709">
        <ele>1175.35</ele>
        <time>2019-04-03T12:48:01Z</time>
      </trkpt>
      <trkpt lat="60.3267" lon="7.70897">
        <ele>1175.83</ele>
        <time>2019-04-03T12:48:06Z</time>
      </trkpt>
      <trkpt lat="60.32667" lon="7.70892">
        <ele>1173.91</ele>
        <time>2019-04-03T12:48:13Z</time>
      </trkpt>
      <trkpt lat="60.32663" lon="7.70887">
        <ele>1176.31</ele>
        <time>2019-04-03T12:48:19Z</time>
      </trkpt>
      <trkpt lat="60.32657" lon="7.70879">
        <ele>1176.31</ele>
        <time>2019-04-03T12:48:27Z</time>
      </trkpt>
      <trkpt lat="60.32657" lon="7.70877">
        <ele>1176.31</ele>
        <time>2019-04-03T12:48:28Z</time>
      </trkpt>
      <trkpt lat="60.32654" lon="7.70875">
        <ele>1176.31</ele>
        <time>2019-04-03T12:48:30Z</time>
      </trkpt>
      <trkpt lat="60.32652" lon="7.70871">
        <ele>1176.79</ele>
        <time>2019-04-03T12:48:35Z</time>
      </trkpt>
      <trkpt lat="60.32647" lon="7.70865">
        <ele>1177.27</ele>
        <time>2019-04-03T12:48:43Z</time>
      </trkpt>
      <trkpt lat="60.32644" lon="7.70861">
        <ele>1177.27</ele>
        <time>2019-04-03T12:48:48Z</time>
      </trkpt>
      <trkpt lat="60.32641" lon="7.70851">
        <ele>1177.27</ele>
        <time>2019-04-03T12:48:57Z</time>
      </trkpt>
      <trkpt lat="60.3264" lon="7.70848">
        <ele>1177.75</ele>
        <time>2019-04-03T12:49:01Z</time>
      </trkpt>
      <trkpt lat="60.32636" lon="7.70844">
        <ele>1177.75</ele>
        <time>2019-04-03T12:49:09Z</time>
      </trkpt>
      <trkpt lat="60.32633" lon="7.70835">
        <ele>1178.23</ele>
        <time>2019-04-03T12:49:23Z</time>
      </trkpt>
      <trkpt lat="60.3263" lon="7.70831">
        <ele>1178.71</ele>
        <time>2019-04-03T12:49:30Z</time>
      </trkpt>
      <trkpt lat="60.32626" lon="7.7082">
        <ele>1179.19</ele>
        <time>2019-04-03T12:49:40Z</time>
      </trkpt>
      <trkpt lat="60.32625" lon="7.7082">
        <ele>1179.67</ele>
        <time>2019-04-03T12:49:43Z</time>
      </trkpt>
      <trkpt lat="60.32618" lon="7.70821">
        <ele>1179.67</ele>
        <time>2019-04-03T12:49:54Z</time>
      </trkpt>
      <trkpt lat="60.32616" lon="7.70826">
        <ele>1180.16</ele>
        <time>2019-04-03T12:50:02Z</time>
      </trkpt>
      <trkpt lat="60.32616" lon="7.70826">
        <ele>1180.16</ele>
        <time>2019-04-03T12:50:03Z</time>
      </trkpt>
      <trkpt lat="60.32609" lon="7.7083">
        <ele>1180.64</ele>
        <time>2019-04-03T12:50:12Z</time>
      </trkpt>
      <trkpt lat="60.32609" lon="7.70832">
        <ele>1180.64</ele>
        <time>2019-04-03T12:50:23Z</time>
      </trkpt>
      <trkpt lat="60.32607" lon="7.70831">
        <ele>1180.64</ele>
        <time>2019-04-03T12:50:43Z</time>
      </trkpt>
      <trkpt lat="60.32608" lon="7.70831">
        <ele>1180.64</ele>
        <time>2019-04-03T12:51:02Z</time>
      </trkpt>
      <trkpt lat="60.32607" lon="7.70831">
        <ele>1180.64</ele>
        <time>2019-04-03T12:51:28Z</time>
      </trkpt>
      <trkpt lat="60.32608" lon="7.70832">
        <ele>1181.12</ele>
        <time>2019-04-03T12:51:50Z</time>
      </trkpt>
      <trkpt lat="60.32607" lon="7.7083">
        <ele>1181.12</ele>
        <time>2019-04-03T12:52:16Z</time>
      </trkpt>
      <trkpt lat="60.32606" lon="7.7083">
        <ele>1181.12</ele>
        <time>2019-04-03T12:52:38Z</time>
      </trkpt>
      <trkpt lat="60.32605" lon="7.70829">
        <ele>1181.12</ele>
        <time>2019-04-03T12:52:53Z</time>
      </trkpt>
      <trkpt lat="60.32605" lon="7.70828">
        <ele>1181.12</ele>
        <time>2019-04-03T12:52:54Z</time>
      </trkpt>
      <trkpt lat="60.32596" lon="7.70812">
        <ele>1181.12</ele>
        <time>2019-04-03T12:53:02Z</time>
      </trkpt>
      <trkpt lat="60.32579" lon="7.708">
        <ele>1181.6</ele>
        <time>2019-04-03T12:53:10Z</time>
      </trkpt>
      <trkpt lat="60.32577" lon="7.70794">
        <ele>1182.08</ele>
        <time>2019-04-03T12:53:13Z</time>
      </trkpt>
      <trkpt lat="60.32575" lon="7.70792">
        <ele>1182.08</ele>
        <time>2019-04-03T12:53:15Z</time>
      </trkpt>
      <trkpt lat="60.32565" lon="7.70775">
        <ele>1183.52</ele>
        <time>2019-04-03T12:53:25Z</time>
      </trkpt>
      <trkpt lat="60.32556" lon="7.70768">
        <ele>1184.48</ele>
        <time>2019-04-03T12:53:33Z</time>
      </trkpt>
      <trkpt lat="60.32549" lon="7.70759">
        <ele>1184.48</ele>
        <time>2019-04-03T12:53:38Z</time>
      </trkpt>
      <trkpt lat="60.32546" lon="7.70759">
        <ele>1184.48</ele>
        <time>2019-04-03T12:53:40Z</time>
      </trkpt>
      <trkpt lat="60.32531" lon="7.70752">
        <ele>1184.96</ele>
        <time>2019-04-03T12:53:52Z</time>
      </trkpt>
      <trkpt lat="60.32524" lon="7.70748">
        <ele>1184.96</ele>
        <time>2019-04-03T12:53:57Z</time>
      </trkpt>
      <trkpt lat="60.32518" lon="7.7075">
        <ele>1185.44</ele>
        <time>2019-04-03T12:54:02Z</time>
      </trkpt>
      <trkpt lat="60.32511" lon="7.70743">
        <ele>1186.4</ele>
        <time>2019-04-03T12:54:10Z</time>
      </trkpt>
      <trkpt lat="60.325" lon="7.70732">
        <ele>1187.37</ele>
        <time>2019-04-03T12:54:19Z</time>
      </trkpt>
      <trkpt lat="60.32493" lon="7.70723">
        <ele>1188.33</ele>
        <time>2019-04-03T12:54:26Z</time>
      </trkpt>
      <trkpt lat="60.32481" lon="7.70721">
        <ele>1188.81</ele>
        <time>2019-04-03T12:54:34Z</time>
      </trkpt>
      <trkpt lat="60.32473" lon="7.70716">
        <ele>1189.77</ele>
        <time>2019-04-03T12:54:39Z</time>
      </trkpt>
      <trkpt lat="60.32462" lon="7.7071">
        <ele>1191.21</ele>
        <time>2019-04-03T12:54:47Z</time>
      </trkpt>
      <trkpt lat="60.32459" lon="7.70706">
        <ele>1191.21</ele>
        <time>2019-04-03T12:54:50Z</time>
      </trkpt>
      <trkpt lat="60.32452" lon="7.707">
        <ele>1192.65</ele>
        <time>2019-04-03T12:54:58Z</time>
      </trkpt>
      <trkpt lat="60.32447" lon="7.70694">
        <ele>1193.61</ele>
        <time>2019-04-03T12:55:06Z</time>
      </trkpt>
      <trkpt lat="60.32446" lon="7.70687">
        <ele>1194.09</ele>
        <time>2019-04-03T12:55:14Z</time>
      </trkpt>
      <trkpt lat="60.32442" lon="7.70675">
        <ele>1195.54</ele>
        <time>2019-04-03T12:55:25Z</time>
      </trkpt>
      <trkpt lat="60.32437" lon="7.70664">
        <ele>1196.98</ele>
        <time>2019-04-03T12:55:35Z</time>
      </trkpt>
      <trkpt lat="60.32436" lon="7.70664">
        <ele>1198.9</ele>
        <time>2019-04-03T12:55:36Z</time>
      </trkpt>
      <trkpt lat="60.32431" lon="7.70658">
        <ele>1197.94</ele>
        <time>2019-04-03T12:55:45Z</time>
      </trkpt>
      <trkpt lat="60.32425" lon="7.70652">
        <ele>1200.82</ele>
        <time>2019-04-03T12:55:54Z</time>
      </trkpt>
      <trkpt lat="60.32421" lon="7.70649">
        <ele>1201.3</ele>
        <time>2019-04-03T12:56:01Z</time>
      </trkpt>
      <trkpt lat="60.32416" lon="7.70643">
        <ele>1202.27</ele>
        <time>2019-04-03T12:56:07Z</time>
      </trkpt>
      <trkpt lat="60.32409" lon="7.70634">
        <ele>1204.19</ele>
        <time>2019-04-03T12:56:16Z</time>
      </trkpt>
      <trkpt lat="60.32404" lon="7.7063">
        <ele>1204.67</ele>
        <time>2019-04-03T12:56:24Z</time>
      </trkpt>
      <trkpt lat="60.32403" lon="7.70629">
        <ele>1204.67</ele>
        <time>2019-04-03T12:56:25Z</time>
      </trkpt>
      <trkpt lat="60.32396" lon="7.70625">
        <ele>1205.63</ele>
        <time>2019-04-03T12:56:35Z</time>
      </trkpt>
      <trkpt lat="60.32396" lon="7.70626">
        <ele>1206.59</ele>
        <time>2019-04-03T12:56:39Z</time>
      </trkpt>
      <trkpt lat="60.32392" lon="7.70621">
        <ele>1207.07</ele>
        <time>2019-04-03T12:56:45Z</time>
      </trkpt>
      <trkpt lat="60.32389" lon="7.70616">
        <ele>1207.55</ele>
        <time>2019-04-03T12:56:50Z</time>
      </trkpt>
      <trkpt lat="60.32386" lon="7.70612">
        <ele>1208.03</ele>
        <time>2019-04-03T12:56:54Z</time>
      </trkpt>
      <trkpt lat="60.32382" lon="7.70612">
        <ele>1209</ele>
        <time>2019-04-03T12:57:03Z</time>
      </trkpt>
      <trkpt lat="60.32375" lon="7.70606">
        <ele>1209.96</ele>
        <time>2019-04-03T12:57:10Z</time>
      </trkpt>
      <trkpt lat="60.32371" lon="7.70599">
        <ele>1210.44</ele>
        <time>2019-04-03T12:57:15Z</time>
      </trkpt>
      <trkpt lat="60.32366" lon="7.70594">
        <ele>1211.4</ele>
        <time>2019-04-03T12:57:20Z</time>
      </trkpt>
      <trkpt lat="60.32359" lon="7.70596">
        <ele>1211.88</ele>
        <time>2019-04-03T12:57:29Z</time>
      </trkpt>
      <trkpt lat="60.32357" lon="7.70591">
        <ele>1212.36</ele>
        <time>2019-04-03T12:57:40Z</time>
      </trkpt>
      <trkpt lat="60.32359" lon="7.70594">
        <ele>1212.36</ele>
        <time>2019-04-03T12:57:48Z</time>
      </trkpt>
      <trkpt lat="60.32355" lon="7.7059">
        <ele>1212.36</ele>
        <time>2019-04-03T12:57:52Z</time>
      </trkpt>
      <trkpt lat="60.32344" lon="7.70595">
        <ele>1212.84</ele>
        <time>2019-04-03T12:57:59Z</time>
      </trkpt>
      <trkpt lat="60.32343" lon="7.70594">
        <ele>1212.84</ele>
        <time>2019-04-03T12:58:00Z</time>
      </trkpt>
      <trkpt lat="60.32339" lon="7.7059">
        <ele>1212.84</ele>
        <time>2019-04-03T12:58:03Z</time>
      </trkpt>
      <trkpt lat="60.32321" lon="7.70591">
        <ele>1213.32</ele>
        <time>2019-04-03T12:58:13Z</time>
      </trkpt>
      <trkpt lat="60.32316" lon="7.70592">
        <ele>1213.32</ele>
        <time>2019-04-03T12:58:15Z</time>
      </trkpt>
      <trkpt lat="60.32294" lon="7.7059">
        <ele>1213.32</ele>
        <time>2019-04-03T12:58:23Z</time>
      </trkpt>
      <trkpt lat="60.32278" lon="7.70591">
        <ele>1213.32</ele>
        <time>2019-04-03T12:58:29Z</time>
      </trkpt>
      <trkpt lat="60.32264" lon="7.70583">
        <ele>1214.28</ele>
        <time>2019-04-03T12:58:40Z</time>
      </trkpt>
      <trkpt lat="60.32261" lon="7.70579">
        <ele>1214.28</ele>
        <time>2019-04-03T12:58:46Z</time>
      </trkpt>
      <trkpt lat="60.32256" lon="7.70582">
        <ele>1214.28</ele>
        <time>2019-04-03T12:58:54Z</time>
      </trkpt>
      <trkpt lat="60.32256" lon="7.70581">
        <ele>1214.28</ele>
        <time>2019-04-03T12:59:05Z</time>
      </trkpt>
      <trkpt lat="60.32255" lon="7.70575">
        <ele>1214.76</ele>
        <time>2019-04-03T12:59:14Z</time>
      </trkpt>
      <trkpt lat="60.32252" lon="7.70574">
        <ele>1215.24</ele>
        <time>2019-04-03T12:59:25Z</time>
      </trkpt>
      <trkpt lat="60.32251" lon="7.70573">
        <ele>1215.24</ele>
        <time>2019-04-03T12:59:36Z</time>
      </trkpt>
      <trkpt lat="60.3225" lon="7.70571">
        <ele>1215.72</ele>
        <time>2019-04-03T12:59:46Z</time>
      </trkpt>
      <trkpt lat="60.32249" lon="7.7057">
        <ele>1215.72</ele>
        <time>2019-04-03T12:59:47Z</time>
      </trkpt>
      <trkpt lat="60.32246" lon="7.70563">
        <ele>1216.21</ele>
        <time>2019-04-03T12:59:52Z</time>
      </trkpt>
      <trkpt lat="60.32242" lon="7.70556">
        <ele>1217.17</ele>
        <time>2019-04-03T13:00:02Z</time>
      </trkpt>
      <trkpt lat="60.32238" lon="7.70549">
        <ele>1218.13</ele>
        <time>2019-04-03T13:00:12Z</time>
      </trkpt>
      <trkpt lat="60.32233" lon="7.70543">
        <ele>1218.61</ele>
        <time>2019-04-03T13:00:21Z</time>
      </trkpt>
      <trkpt lat="60.32231" lon="7.70536">
        <ele>1219.09</ele>
        <time>2019-04-03T13:00:27Z</time>
      </trkpt>
      <trkpt lat="60.32225" lon="7.70529">
        <ele>1219.57</ele>
        <time>2019-04-03T13:00:38Z</time>
      </trkpt>
      <trkpt lat="60.32224" lon="7.70529">
        <ele>1220.05</ele>
        <time>2019-04-03T13:00:42Z</time>
      </trkpt>
      <trkpt lat="60.32222" lon="7.70528">
        <ele>1220.05</ele>
        <time>2019-04-03T13:00:44Z</time>
      </trkpt>
      <trkpt lat="60.32217" lon="7.7052">
        <ele>1221.01</ele>
        <time>2019-04-03T13:00:54Z</time>
      </trkpt>
      <trkpt lat="60.32216" lon="7.7052">
        <ele>1221.01</ele>
        <time>2019-04-03T13:00:55Z</time>
      </trkpt>
      <trkpt lat="60.32212" lon="7.70515">
        <ele>1221.49</ele>
        <time>2019-04-03T13:00:59Z</time>
      </trkpt>
      <trkpt lat="60.32208" lon="7.70508">
        <ele>1222.45</ele>
        <time>2019-04-03T13:01:05Z</time>
      </trkpt>
      <trkpt lat="60.32205" lon="7.70501">
        <ele>1222.93</ele>
        <time>2019-04-03T13:01:10Z</time>
      </trkpt>
      <trkpt lat="60.32196" lon="7.70494">
        <ele>1224.38</ele>
        <time>2019-04-03T13:01:18Z</time>
      </trkpt>
      <trkpt lat="60.32193" lon="7.70489">
        <ele>1224.38</ele>
        <time>2019-04-03T13:01:22Z</time>
      </trkpt>
      <trkpt lat="60.32185" lon="7.70483">
        <ele>1224.86</ele>
        <time>2019-04-03T13:01:29Z</time>
      </trkpt>
      <trkpt lat="60.32183" lon="7.70483">
        <ele>1224.86</ele>
        <time>2019-04-03T13:01:31Z</time>
      </trkpt>
      <trkpt lat="60.32176" lon="7.70473">
        <ele>1226.3</ele>
        <time>2019-04-03T13:01:38Z</time>
      </trkpt>
      <trkpt lat="60.32174" lon="7.70468">
        <ele>1226.78</ele>
        <time>2019-04-03T13:01:42Z</time>
      </trkpt>
      <trkpt lat="60.32167" lon="7.7046">
        <ele>1227.26</ele>
        <time>2019-04-03T13:01:49Z</time>
      </trkpt>
      <trkpt lat="60.32161" lon="7.70451">
        <ele>1228.22</ele>
        <time>2019-04-03T13:01:56Z</time>
      </trkpt>
      <trkpt lat="60.32157" lon="7.70445">
        <ele>1228.7</ele>
        <time>2019-04-03T13:02:03Z</time>
      </trkpt>
      <trkpt lat="60.32153" lon="7.70438">
        <ele>1229.18</ele>
        <time>2019-04-03T13:02:08Z</time>
      </trkpt>
      <trkpt lat="60.3215" lon="7.70434">
        <ele>1229.66</ele>
        <time>2019-04-03T13:02:13Z</time>
      </trkpt>
      <trkpt lat="60.32146" lon="7.70427">
        <ele>1230.14</ele>
        <time>2019-04-03T13:02:19Z</time>
      </trkpt>
      <trkpt lat="60.3214" lon="7.70422">
        <ele>1230.62</ele>
        <time>2019-04-03T13:02:25Z</time>
      </trkpt>
      <trkpt lat="60.32136" lon="7.70411">
        <ele>1231.11</ele>
        <time>2019-04-03T13:02:33Z</time>
      </trkpt>
      <trkpt lat="60.32133" lon="7.7041">
        <ele>1231.59</ele>
        <time>2019-04-03T13:02:35Z</time>
      </trkpt>
      <trkpt lat="60.3213" lon="7.70403">
        <ele>1232.07</ele>
        <time>2019-04-03T13:02:39Z</time>
      </trkpt>
      <trkpt lat="60.32121" lon="7.70389">
        <ele>1233.03</ele>
        <time>2019-04-03T13:02:48Z</time>
      </trkpt>
      <trkpt lat="60.32119" lon="7.70386">
        <ele>1233.03</ele>
        <time>2019-04-03T13:02:52Z</time>
      </trkpt>
      <trkpt lat="60.32114" lon="7.70378">
        <ele>1233.99</ele>
        <time>2019-04-03T13:02:57Z</time>
      </trkpt>
      <trkpt lat="60.32112" lon="7.70374">
        <ele>1234.47</ele>
        <time>2019-04-03T13:02:59Z</time>
      </trkpt>
      <trkpt lat="60.32102" lon="7.70359">
        <ele>1235.91</ele>
        <time>2019-04-03T13:03:09Z</time>
      </trkpt>
      <trkpt lat="60.32102" lon="7.70357">
        <ele>1235.91</ele>
        <time>2019-04-03T13:03:10Z</time>
      </trkpt>
      <trkpt lat="60.32096" lon="7.70351">
        <ele>1235.91</ele>
        <time>2019-04-03T13:03:15Z</time>
      </trkpt>
      <trkpt lat="60.32091" lon="7.70339">
        <ele>1237.35</ele>
        <time>2019-04-03T13:03:22Z</time>
      </trkpt>
      <trkpt lat="60.32088" lon="7.70335">
        <ele>1237.35</ele>
        <time>2019-04-03T13:03:25Z</time>
      </trkpt>
      <trkpt lat="60.32079" lon="7.70319">
        <ele>1238.8</ele>
        <time>2019-04-03T13:03:35Z</time>
      </trkpt>
      <trkpt lat="60.32076" lon="7.70318">
        <ele>1238.8</ele>
        <time>2019-04-03T13:03:37Z</time>
      </trkpt>
      <trkpt lat="60.32065" lon="7.70304">
        <ele>1239.76</ele>
        <time>2019-04-03T13:03:46Z</time>
      </trkpt>
      <trkpt lat="60.32058" lon="7.70297">
        <ele>1240.72</ele>
        <time>2019-04-03T13:03:51Z</time>
      </trkpt>
      <trkpt lat="60.32047" lon="7.70286">
        <ele>1241.68</ele>
        <time>2019-04-03T13:03:59Z</time>
      </trkpt>
      <trkpt lat="60.3204" lon="7.7028">
        <ele>1242.64</ele>
        <time>2019-04-03T13:04:06Z</time>
      </trkpt>
      <trkpt lat="60.32031" lon="7.70272">
        <ele>1243.6</ele>
        <time>2019-04-03T13:04:13Z</time>
      </trkpt>
      <trkpt lat="60.32031" lon="7.70272">
        <ele>1243.6</ele>
        <time>2019-04-03T13:04:14Z</time>
      </trkpt>
      <trkpt lat="60.32024" lon="7.70269">
        <ele>1244.08</ele>
        <time>2019-04-03T13:04:18Z</time>
      </trkpt>
      <trkpt lat="60.32021" lon="7.70266">
        <ele>1244.08</ele>
        <time>2019-04-03T13:04:21Z</time>
      </trkpt>
      <trkpt lat="60.32011" lon="7.70257">
        <ele>1245.04</ele>
        <time>2019-04-03T13:04:28Z</time>
      </trkpt>
      <trkpt lat="60.32005" lon="7.70252">
        <ele>1245.53</ele>
        <time>2019-04-03T13:04:33Z</time>
      </trkpt>
      <trkpt lat="60.31995" lon="7.70241">
        <ele>1246.49</ele>
        <time>2019-04-03T13:04:42Z</time>
      </trkpt>
      <trkpt lat="60.31989" lon="7.70232">
        <ele>1246.97</ele>
        <time>2019-04-03T13:04:50Z</time>
      </trkpt>
      <trkpt lat="60.31989" lon="7.70231">
        <ele>1246.97</ele>
        <time>2019-04-03T13:04:51Z</time>
      </trkpt>
      <trkpt lat="60.31982" lon="7.70215">
        <ele>1247.45</ele>
        <time>2019-04-03T13:05:02Z</time>
      </trkpt>
      <trkpt lat="60.31981" lon="7.70213">
        <ele>1247.93</ele>
        <time>2019-04-03T13:05:03Z</time>
      </trkpt>
      <trkpt lat="60.31977" lon="7.70205">
        <ele>1248.89</ele>
        <time>2019-04-03T13:05:10Z</time>
      </trkpt>
      <trkpt lat="60.31969" lon="7.70193">
        <ele>1249.85</ele>
        <time>2019-04-03T13:05:18Z</time>
      </trkpt>
      <trkpt lat="60.31964" lon="7.7018">
        <ele>1250.81</ele>
        <time>2019-04-03T13:05:27Z</time>
      </trkpt>
      <trkpt lat="60.31956" lon="7.7017">
        <ele>1251.77</ele>
        <time>2019-04-03T13:05:36Z</time>
      </trkpt>
      <trkpt lat="60.3195" lon="7.70156">
        <ele>1253.22</ele>
        <time>2019-04-03T13:05:46Z</time>
      </trkpt>
      <trkpt lat="60.31945" lon="7.70145">
        <ele>1254.66</ele>
        <time>2019-04-03T13:05:54Z</time>
      </trkpt>
      <trkpt lat="60.31942" lon="7.70137">
        <ele>1255.62</ele>
        <time>2019-04-03T13:06:01Z</time>
      </trkpt>
      <trkpt lat="60.31937" lon="7.70132">
        <ele>1256.58</ele>
        <time>2019-04-03T13:06:10Z</time>
      </trkpt>
      <trkpt lat="60.31934" lon="7.7013">
        <ele>1257.06</ele>
        <time>2019-04-03T13:06:15Z</time>
      </trkpt>
      <trkpt lat="60.31928" lon="7.70125">
        <ele>1258.5</ele>
        <time>2019-04-03T13:06:22Z</time>
      </trkpt>
      <trkpt lat="60.31923" lon="7.70113">
        <ele>1259.46</ele>
        <time>2019-04-03T13:06:32Z</time>
      </trkpt>
      <trkpt lat="60.31918" lon="7.70107">
        <ele>1260.43</ele>
        <time>2019-04-03T13:06:38Z</time>
      </trkpt>
      <trkpt lat="60.31908" lon="7.70101">
        <ele>1261.87</ele>
        <time>2019-04-03T13:06:47Z</time>
      </trkpt>
      <trkpt lat="60.31904" lon="7.70096">
        <ele>1261.87</ele>
        <time>2019-04-03T13:06:51Z</time>
      </trkpt>
      <trkpt lat="60.319" lon="7.70099">
        <ele>1261.87</ele>
        <time>2019-04-03T13:06:54Z</time>
      </trkpt>
      <trkpt lat="60.31895" lon="7.70099">
        <ele>1261.87</ele>
        <time>2019-04-03T13:06:57Z</time>
      </trkpt>
      <trkpt lat="60.31889" lon="7.7009">
        <ele>1262.35</ele>
        <time>2019-04-03T13:07:03Z</time>
      </trkpt>
      <trkpt lat="60.31882" lon="7.70088">
        <ele>1262.35</ele>
        <time>2019-04-03T13:07:07Z</time>
      </trkpt>
      <trkpt lat="60.31873" lon="7.70088">
        <ele>1262.35</ele>
        <time>2019-04-03T13:07:11Z</time>
      </trkpt>
      <trkpt lat="60.31867" lon="7.70081">
        <ele>1263.31</ele>
        <time>2019-04-03T13:07:15Z</time>
      </trkpt>
      <trkpt lat="60.3186" lon="7.70075">
        <ele>1264.27</ele>
        <time>2019-04-03T13:07:21Z</time>
      </trkpt>
      <trkpt lat="60.31856" lon="7.7007">
        <ele>1264.75</ele>
        <time>2019-04-03T13:07:25Z</time>
      </trkpt>
      <trkpt lat="60.31843" lon="7.70058">
        <ele>1265.71</ele>
        <time>2019-04-03T13:07:33Z</time>
      </trkpt>
      <trkpt lat="60.31835" lon="7.70054">
        <ele>1266.19</ele>
        <time>2019-04-03T13:07:37Z</time>
      </trkpt>
      <trkpt lat="60.31832" lon="7.70051">
        <ele>1266.19</ele>
        <time>2019-04-03T13:07:39Z</time>
      </trkpt>
      <trkpt lat="60.3182" lon="7.70042">
        <ele>1267.16</ele>
        <time>2019-04-03T13:07:46Z</time>
      </trkpt>
      <trkpt lat="60.31814" lon="7.70033">
        <ele>1268.12</ele>
        <time>2019-04-03T13:07:53Z</time>
      </trkpt>
      <trkpt lat="60.31806" lon="7.7002">
        <ele>1269.56</ele>
        <time>2019-04-03T13:08:01Z</time>
      </trkpt>
      <trkpt lat="60.31803" lon="7.70014">
        <ele>1270.04</ele>
        <time>2019-04-03T13:08:05Z</time>
      </trkpt>
      <trkpt lat="60.31793" lon="7.7">
        <ele>1271.96</ele>
        <time>2019-04-03T13:08:14Z</time>
      </trkpt>
      <trkpt lat="60.31785" lon="7.69985">
        <ele>1272.92</ele>
        <time>2019-04-03T13:08:22Z</time>
      </trkpt>
      <trkpt lat="60.3178" lon="7.69971">
        <ele>1274.85</ele>
        <time>2019-04-03T13:08:29Z</time>
      </trkpt>
      <trkpt lat="60.31775" lon="7.69963">
        <ele>1275.81</ele>
        <time>2019-04-03T13:08:34Z</time>
      </trkpt>
      <trkpt lat="60.31764" lon="7.69948">
        <ele>1277.73</ele>
        <time>2019-04-03T13:08:43Z</time>
      </trkpt>
      <trkpt lat="60.31764" lon="7.69946">
        <ele>1277.73</ele>
        <time>2019-04-03T13:08:44Z</time>
      </trkpt>
      <trkpt lat="60.31762" lon="7.69942">
        <ele>1277.73</ele>
        <time>2019-04-03T13:08:46Z</time>
      </trkpt>
      <trkpt lat="60.31749" lon="7.6993">
        <ele>1279.65</ele>
        <time>2019-04-03T13:08:55Z</time>
      </trkpt>
      <trkpt lat="60.31748" lon="7.69929">
        <ele>1280.13</ele>
        <time>2019-04-03T13:08:56Z</time>
      </trkpt>
      <trkpt lat="60.31741" lon="7.69921">
        <ele>1281.09</ele>
        <time>2019-04-03T13:09:04Z</time>
      </trkpt>
      <trkpt lat="60.3174" lon="7.69918">
        <ele>1281.57</ele>
        <time>2019-04-03T13:09:06Z</time>
      </trkpt>
      <trkpt lat="60.31732" lon="7.6991">
        <ele>1283.5</ele>
        <time>2019-04-03T13:09:14Z</time>
      </trkpt>
      <trkpt lat="60.31729" lon="7.69905">
        <ele>1284.46</ele>
        <time>2019-04-03T13:09:18Z</time>
      </trkpt>
      <trkpt lat="60.31726" lon="7.69899">
        <ele>1284.94</ele>
        <time>2019-04-03T13:09:21Z</time>
      </trkpt>
      <trkpt lat="60.3172" lon="7.69887">
        <ele>1287.34</ele>
        <time>2019-04-03T13:09:28Z</time>
      </trkpt>
      <trkpt lat="60.31708" lon="7.69873">
        <ele>1289.75</ele>
        <time>2019-04-03T13:09:37Z</time>
      </trkpt>
      <trkpt lat="60.31704" lon="7.69866">
        <ele>1290.71</ele>
        <time>2019-04-03T13:09:46Z</time>
      </trkpt>
      <trkpt lat="60.31703" lon="7.69866">
        <ele>1290.71</ele>
        <time>2019-04-03T13:09:52Z</time>
      </trkpt>
      <trkpt lat="60.31701" lon="7.69864">
        <ele>1291.19</ele>
        <time>2019-04-03T13:10:03Z</time>
      </trkpt>
      <trkpt lat="60.31701" lon="7.69862">
        <ele>1291.67</ele>
        <time>2019-04-03T13:10:15Z</time>
      </trkpt>
      <trkpt lat="60.31702" lon="7.69864">
        <ele>1291.67</ele>
        <time>2019-04-03T13:10:32Z</time>
      </trkpt>
      <trkpt lat="60.31701" lon="7.69861">
        <ele>1290.23</ele>
        <time>2019-04-03T13:10:55Z</time>
      </trkpt>
      <trkpt lat="60.31701" lon="7.69861">
        <ele>1290.23</ele>
        <time>2019-04-03T13:11:28Z</time>
      </trkpt>
      <trkpt lat="60.31701" lon="7.69864">
        <ele>1290.23</ele>
        <time>2019-04-03T13:11:47Z</time>
      </trkpt>
      <trkpt lat="60.31695" lon="7.69865">
        <ele>1291.67</ele>
        <time>2019-04-03T13:11:54Z</time>
      </trkpt>
      <trkpt lat="60.31694" lon="7.69864">
        <ele>1292.15</ele>
        <time>2019-04-03T13:12:01Z</time>
      </trkpt>
      <trkpt lat="60.31697" lon="7.69852">
        <ele>1292.15</ele>
        <time>2019-04-03T13:12:06Z</time>
      </trkpt>
      <trkpt lat="60.31703" lon="7.69828">
        <ele>1292.63</ele>
        <time>2019-04-03T13:12:13Z</time>
      </trkpt>
      <trkpt lat="60.31703" lon="7.69827">
        <ele>1292.63</ele>
        <time>2019-04-03T13:12:15Z</time>
      </trkpt>
      <trkpt lat="60.317" lon="7.69811">
        <ele>1293.59</ele>
        <time>2019-04-03T13:12:23Z</time>
      </trkpt>
      <trkpt lat="60.31699" lon="7.69806">
        <ele>1293.59</ele>
        <time>2019-04-03T13:12:33Z</time>
      </trkpt>
      <trkpt lat="60.317" lon="7.69806">
        <ele>1294.07</ele>
        <time>2019-04-03T13:12:47Z</time>
      </trkpt>
      <trkpt lat="60.31699" lon="7.69806">
        <ele>1294.07</ele>
        <time>2019-04-03T13:13:17Z</time>
      </trkpt>
      <trkpt lat="60.31699" lon="7.69807">
        <ele>1294.07</ele>
        <time>2019-04-03T13:13:42Z</time>
      </trkpt>
      <trkpt lat="60.31698" lon="7.69808">
        <ele>1294.07</ele>
        <time>2019-04-03T13:14:03Z</time>
      </trkpt>
      <trkpt lat="60.31697" lon="7.69803">
        <ele>1294.07</ele>
        <time>2019-04-03T13:14:29Z</time>
      </trkpt>
      <trkpt lat="60.31698" lon="7.69805">
        <ele>1294.07</ele>
        <time>2019-04-03T13:15:01Z</time>
      </trkpt>
      <trkpt lat="60.31698" lon="7.69808">
        <ele>1294.07</ele>
        <time>2019-04-03T13:15:35Z</time>
      </trkpt>
      <trkpt lat="60.31699" lon="7.69808">
        <ele>1294.07</ele>
        <time>2019-04-03T13:15:55Z</time>
      </trkpt>
      <trkpt lat="60.31698" lon="7.69809">
        <ele>1294.07</ele>
        <time>2019-04-03T13:16:20Z</time>
      </trkpt>
      <trkpt lat="60.31698" lon="7.69806">
        <ele>1294.07</ele>
        <time>2019-04-03T13:16:55Z</time>
      </trkpt>
      <trkpt lat="60.31698" lon="7.69806">
        <ele>1293.59</ele>
        <time>2019-04-03T13:17:28Z</time>
      </trkpt>
      <trkpt lat="60.31699" lon="7.6981">
        <ele>1293.59</ele>
        <time>2019-04-03T13:17:51Z</time>
      </trkpt>
      <trkpt lat="60.31699" lon="7.69809">
        <ele>1293.59</ele>
        <time>2019-04-03T13:18:16Z</time>
      </trkpt>
      <trkpt lat="60.31698" lon="7.69808">
        <ele>1293.59</ele>
        <time>2019-04-03T13:18:45Z</time>
      </trkpt>
      <trkpt lat="60.31699" lon="7.69807">
        <ele>1293.59</ele>
        <time>2019-04-03T13:19:17Z</time>
      </trkpt>
      <trkpt lat="60.31699" lon="7.69807">
        <ele>1293.59</ele>
        <time>2019-04-03T13:19:42Z</time>
      </trkpt>
      <trkpt lat="60.31699" lon="7.69808">
        <ele>1293.59</ele>
        <time>2019-04-03T13:20:13Z</time>
      </trkpt>
      <trkpt lat="60.317" lon="7.69808">
        <ele>1293.59</ele>
        <time>2019-04-03T13:20:44Z</time>
      </trkpt>
      <trkpt lat="60.31699" lon="7.69806">
        <ele>1293.59</ele>
        <time>2019-04-03T13:21:01Z</time>
      </trkpt>
      <trkpt lat="60.31699" lon="7.69807">
        <ele>1293.59</ele>
        <time>2019-04-03T13:21:20Z</time>
      </trkpt>
      <trkpt lat="60.31699" lon="7.69805">
        <ele>1293.59</ele>
        <time>2019-04-03T13:21:41Z</time>
      </trkpt>
      <trkpt lat="60.31698" lon="7.69807">
        <ele>1293.59</ele>
        <time>2019-04-03T13:22:04Z</time>
      </trkpt>
      <trkpt lat="60.31698" lon="7.69807">
        <ele>1293.59</ele>
        <time>2019-04-03T13:22:10Z</time>
      </trkpt>
      <trkpt lat="60.31693" lon="7.69807">
        <ele>1293.59</ele>
        <time>2019-04-03T13:22:15Z</time>
      </trkpt>
      <trkpt lat="60.3168" lon="7.69823">
        <ele>1292.15</ele>
        <time>2019-04-03T13:22:20Z</time>
      </trkpt>
      <trkpt lat="60.31672" lon="7.69827">
        <ele>1292.15</ele>
        <time>2019-04-03T13:22:22Z</time>
      </trkpt>
      <trkpt lat="60.31638" lon="7.6983">
        <ele>1290.71</ele>
        <time>2019-04-03T13:22:31Z</time>
      </trkpt>
      <trkpt lat="60.31629" lon="7.6982">
        <ele>1292.15</ele>
        <time>2019-04-03T13:22:36Z</time>
      </trkpt>
      <trkpt lat="60.31626" lon="7.69823">
        <ele>1292.15</ele>
        <time>2019-04-03T13:22:38Z</time>
      </trkpt>
      <trkpt lat="60.3162" lon="7.69818">
        <ele>1292.63</ele>
        <time>2019-04-03T13:22:42Z</time>
      </trkpt>
      <trkpt lat="60.31615" lon="7.69814">
        <ele>1293.59</ele>
        <time>2019-04-03T13:22:52Z</time>
      </trkpt>
      <trkpt lat="60.31615" lon="7.69814">
        <ele>1293.59</ele>
        <time>2019-04-03T13:22:53Z</time>
      </trkpt>
      <trkpt lat="60.31604" lon="7.69809">
        <ele>1294.07</ele>
        <time>2019-04-03T13:23:01Z</time>
      </trkpt>
      <trkpt lat="60.31603" lon="7.69809">
        <ele>1294.07</ele>
        <time>2019-04-03T13:23:03Z</time>
      </trkpt>
      <trkpt lat="60.31591" lon="7.69798">
        <ele>1294.55</ele>
        <time>2019-04-03T13:23:09Z</time>
      </trkpt>
      <trkpt lat="60.31591" lon="7.69798">
        <ele>1295.03</ele>
        <time>2019-04-03T13:23:10Z</time>
      </trkpt>
      <trkpt lat="60.31589" lon="7.6979">
        <ele>1295.03</ele>
        <time>2019-04-03T13:23:15Z</time>
      </trkpt>
      <trkpt lat="60.31585" lon="7.69781">
        <ele>1295.51</ele>
        <time>2019-04-03T13:23:21Z</time>
      </trkpt>
      <trkpt lat="60.31577" lon="7.69772">
        <ele>1295.51</ele>
        <time>2019-04-03T13:23:26Z</time>
      </trkpt>
      <trkpt lat="60.31566" lon="7.69756">
        <ele>1296.48</ele>
        <time>2019-04-03T13:23:34Z</time>
      </trkpt>
      <trkpt lat="60.31555" lon="7.69742">
        <ele>1296.96</ele>
        <time>2019-04-03T13:23:41Z</time>
      </trkpt>
      <trkpt lat="60.3154" lon="7.69727">
        <ele>1297.44</ele>
        <time>2019-04-03T13:23:48Z</time>
      </trkpt>
      <trkpt lat="60.31537" lon="7.69721">
        <ele>1297.92</ele>
        <time>2019-04-03T13:23:54Z</time>
      </trkpt>
      <trkpt lat="60.31527" lon="7.6971">
        <ele>1297.92</ele>
        <time>2019-04-03T13:24:01Z</time>
      </trkpt>
      <trkpt lat="60.31513" lon="7.69695">
        <ele>1297.92</ele>
        <time>2019-04-03T13:24:08Z</time>
      </trkpt>
      <trkpt lat="60.315" lon="7.69684">
        <ele>1297.92</ele>
        <time>2019-04-03T13:24:14Z</time>
      </trkpt>
      <trkpt lat="60.31495" lon="7.69678">
        <ele>1297.92</ele>
        <time>2019-04-03T13:24:17Z</time>
      </trkpt>
      <trkpt lat="60.31472" lon="7.69653">
        <ele>1297.92</ele>
        <time>2019-04-03T13:24:28Z</time>
      </trkpt>
      <trkpt lat="60.3147" lon="7.6965">
        <ele>1297.92</ele>
        <time>2019-04-03T13:24:29Z</time>
      </trkpt>
      <trkpt lat="60.31452" lon="7.6964">
        <ele>1297.92</ele>
        <time>2019-04-03T13:24:35Z</time>
      </trkpt>
      <trkpt lat="60.31434" lon="7.69621">
        <ele>1297.92</ele>
        <time>2019-04-03T13:24:43Z</time>
      </trkpt>
      <trkpt lat="60.31432" lon="7.69617">
        <ele>1297.92</ele>
        <time>2019-04-03T13:24:44Z</time>
      </trkpt>
      <trkpt lat="60.31415" lon="7.69598">
        <ele>1298.88</ele>
        <time>2019-04-03T13:24:52Z</time>
      </trkpt>
      <trkpt lat="60.31409" lon="7.69592">
        <ele>1298.88</ele>
        <time>2019-04-03T13:24:55Z</time>
      </trkpt>
      <trkpt lat="60.31393" lon="7.69571">
        <ele>1298.88</ele>
        <time>2019-04-03T13:25:04Z</time>
      </trkpt>
      <trkpt lat="60.31376" lon="7.69552">
        <ele>1298.88</ele>
        <time>2019-04-03T13:25:11Z</time>
      </trkpt>
      <trkpt lat="60.31373" lon="7.69551">
        <ele>1298.88</ele>
        <time>2019-04-03T13:25:12Z</time>
      </trkpt>
      <trkpt lat="60.31367" lon="7.6955">
        <ele>1298.88</ele>
        <time>2019-04-03T13:25:14Z</time>
      </trkpt>
      <trkpt lat="60.31356" lon="7.69531">
        <ele>1298.88</ele>
        <time>2019-04-03T13:25:21Z</time>
      </trkpt>
      <trkpt lat="60.31356" lon="7.69528">
        <ele>1298.88</ele>
        <time>2019-04-03T13:25:23Z</time>
      </trkpt>
      <trkpt lat="60.31353" lon="7.69505">
        <ele>1299.36</ele>
        <time>2019-04-03T13:25:30Z</time>
      </trkpt>
      <trkpt lat="60.3135" lon="7.69502">
        <ele>1299.36</ele>
        <time>2019-04-03T13:25:32Z</time>
      </trkpt>
      <trkpt lat="60.31348" lon="7.69493">
        <ele>1299.84</ele>
        <time>2019-04-03T13:25:36Z</time>
      </trkpt>
      <trkpt lat="60.31337" lon="7.69476">
        <ele>1299.84</ele>
        <time>2019-04-03T13:25:43Z</time>
      </trkpt>
      <trkpt lat="60.31336" lon="7.69475">
        <ele>1298.4</ele>
        <time>2019-04-03T13:25:49Z</time>
      </trkpt>
      <trkpt lat="60.31326" lon="7.69458">
        <ele>1299.84</ele>
        <time>2019-04-03T13:25:56Z</time>
      </trkpt>
      <trkpt lat="60.31326" lon="7.69454">
        <ele>1299.84</ele>
        <time>2019-04-03T13:25:58Z</time>
      </trkpt>
      <trkpt lat="60.31321" lon="7.6945">
        <ele>1299.84</ele>
        <time>2019-04-03T13:26:01Z</time>
      </trkpt>
      <trkpt lat="60.31313" lon="7.69437">
        <ele>1299.84</ele>
        <time>2019-04-03T13:26:06Z</time>
      </trkpt>
      <trkpt lat="60.31306" lon="7.69426">
        <ele>1300.8</ele>
        <time>2019-04-03T13:26:13Z</time>
      </trkpt>
      <trkpt lat="60.31294" lon="7.69411">
        <ele>1301.28</ele>
        <time>2019-04-03T13:26:22Z</time>
      </trkpt>
      <trkpt lat="60.31291" lon="7.69404">
        <ele>1301.28</ele>
        <time>2019-04-03T13:26:24Z</time>
      </trkpt>
      <trkpt lat="60.31289" lon="7.69396">
        <ele>1301.28</ele>
        <time>2019-04-03T13:26:27Z</time>
      </trkpt>
      <trkpt lat="60.31282" lon="7.69387">
        <ele>1301.76</ele>
        <time>2019-04-03T13:26:33Z</time>
      </trkpt>
      <trkpt lat="60.3128" lon="7.69373">
        <ele>1302.24</ele>
        <time>2019-04-03T13:26:42Z</time>
      </trkpt>
      <trkpt lat="60.31279" lon="7.69375">
        <ele>1302.24</ele>
        <time>2019-04-03T13:26:57Z</time>
      </trkpt>
      <trkpt lat="60.31279" lon="7.69372">
        <ele>1302.24</ele>
        <time>2019-04-03T13:27:10Z</time>
      </trkpt>
      <trkpt lat="60.31277" lon="7.69365">
        <ele>1302.24</ele>
        <time>2019-04-03T13:27:13Z</time>
      </trkpt>
      <trkpt lat="60.3127" lon="7.6936">
        <ele>1303.2</ele>
        <time>2019-04-03T13:27:20Z</time>
      </trkpt>
      <trkpt lat="60.31269" lon="7.69361">
        <ele>1303.2</ele>
        <time>2019-04-03T13:27:23Z</time>
      </trkpt>
      <trkpt lat="60.3126" lon="7.69346">
        <ele>1303.69</ele>
        <time>2019-04-03T13:27:30Z</time>
      </trkpt>
      <trkpt lat="60.3126" lon="7.69346">
        <ele>1304.17</ele>
        <time>2019-04-03T13:27:31Z</time>
      </trkpt>
      <trkpt lat="60.31255" lon="7.69338">
        <ele>1304.17</ele>
        <time>2019-04-03T13:27:36Z</time>
      </trkpt>
      <trkpt lat="60.31252" lon="7.69327">
        <ele>1304.65</ele>
        <time>2019-04-03T13:27:40Z</time>
      </trkpt>
      <trkpt lat="60.31244" lon="7.69305">
        <ele>1305.13</ele>
        <time>2019-04-03T13:27:51Z</time>
      </trkpt>
      <trkpt lat="60.31245" lon="7.69305">
        <ele>1305.13</ele>
        <time>2019-04-03T13:27:53Z</time>
      </trkpt>
      <trkpt lat="60.31236" lon="7.69297">
        <ele>1305.13</ele>
        <time>2019-04-03T13:27:59Z</time>
      </trkpt>
      <trkpt lat="60.3123" lon="7.69289">
        <ele>1305.61</ele>
        <time>2019-04-03T13:28:05Z</time>
      </trkpt>
      <trkpt lat="60.3122" lon="7.69269">
        <ele>1307.05</ele>
        <time>2019-04-03T13:28:15Z</time>
      </trkpt>
      <trkpt lat="60.3122" lon="7.69269">
        <ele>1307.05</ele>
        <time>2019-04-03T13:28:16Z</time>
      </trkpt>
      <trkpt lat="60.31212" lon="7.69255">
        <ele>1307.53</ele>
        <time>2019-04-03T13:28:24Z</time>
      </trkpt>
      <trkpt lat="60.31208" lon="7.6925">
        <ele>1308.01</ele>
        <time>2019-04-03T13:28:26Z</time>
      </trkpt>
      <trkpt lat="60.31206" lon="7.69243">
        <ele>1308.01</ele>
        <time>2019-04-03T13:28:29Z</time>
      </trkpt>
      <trkpt lat="60.312" lon="7.69232">
        <ele>1308.49</ele>
        <time>2019-04-03T13:28:35Z</time>
      </trkpt>
      <trkpt lat="60.31192" lon="7.69218">
        <ele>1308.97</ele>
        <time>2019-04-03T13:28:42Z</time>
      </trkpt>
      <trkpt lat="60.3119" lon="7.69213">
        <ele>1308.97</ele>
        <time>2019-04-03T13:28:44Z</time>
      </trkpt>
      <trkpt lat="60.31181" lon="7.69191">
        <ele>1308.97</ele>
        <time>2019-04-03T13:28:53Z</time>
      </trkpt>
      <trkpt lat="60.3118" lon="7.69189">
        <ele>1308.97</ele>
        <time>2019-04-03T13:28:54Z</time>
      </trkpt>
      <trkpt lat="60.31179" lon="7.69163">
        <ele>1308.97</ele>
        <time>2019-04-03T13:29:00Z</time>
      </trkpt>
      <trkpt lat="60.3117" lon="7.69149">
        <ele>1308.97</ele>
        <time>2019-04-03T13:29:06Z</time>
      </trkpt>
      <trkpt lat="60.31163" lon="7.69136">
        <ele>1308.97</ele>
        <time>2019-04-03T13:29:11Z</time>
      </trkpt>
      <trkpt lat="60.31156" lon="7.69115">
        <ele>1308.97</ele>
        <time>2019-04-03T13:29:18Z</time>
      </trkpt>
      <trkpt lat="60.31155" lon="7.69113">
        <ele>1308.97</ele>
        <time>2019-04-03T13:29:19Z</time>
      </trkpt>
      <trkpt lat="60.31146" lon="7.69105">
        <ele>1309.45</ele>
        <time>2019-04-03T13:29:24Z</time>
      </trkpt>
      <trkpt lat="60.31136" lon="7.69094">
        <ele>1310.41</ele>
        <time>2019-04-03T13:29:29Z</time>
      </trkpt>
      <trkpt lat="60.31122" lon="7.69078">
        <ele>1310.41</ele>
        <time>2019-04-03T13:29:37Z</time>
      </trkpt>
      <trkpt lat="60.31113" lon="7.69074">
        <ele>1310.9</ele>
        <time>2019-04-03T13:29:41Z</time>
      </trkpt>
      <trkpt lat="60.31098" lon="7.69054">
        <ele>1311.38</ele>
        <time>2019-04-03T13:29:50Z</time>
      </trkpt>
      <trkpt lat="60.31082" lon="7.69039">
        <ele>1311.86</ele>
        <time>2019-04-03T13:29:59Z</time>
      </trkpt>
      <trkpt lat="60.31065" lon="7.69022">
        <ele>1312.34</ele>
        <time>2019-04-03T13:30:08Z</time>
      </trkpt>
      <trkpt lat="60.31062" lon="7.69015">
        <ele>1312.34</ele>
        <time>2019-04-03T13:30:12Z</time>
      </trkpt>
      <trkpt lat="60.31055" lon="7.69009">
        <ele>1313.3</ele>
        <time>2019-04-03T13:30:16Z</time>
      </trkpt>
      <trkpt lat="60.31041" lon="7.68986">
        <ele>1313.3</ele>
        <time>2019-04-03T13:30:26Z</time>
      </trkpt>
      <trkpt lat="60.31039" lon="7.68982">
        <ele>1313.3</ele>
        <time>2019-04-03T13:30:28Z</time>
      </trkpt>
      <trkpt lat="60.31024" lon="7.68961">
        <ele>1313.3</ele>
        <time>2019-04-03T13:30:38Z</time>
      </trkpt>
      <trkpt lat="60.31017" lon="7.68951">
        <ele>1313.78</ele>
        <time>2019-04-03T13:30:43Z</time>
      </trkpt>
      <trkpt lat="60.31016" lon="7.68946">
        <ele>1313.3</ele>
        <time>2019-04-03T13:30:45Z</time>
      </trkpt>
      <trkpt lat="60.31009" lon="7.68933">
        <ele>1313.78</ele>
        <time>2019-04-03T13:30:51Z</time>
      </trkpt>
      <trkpt lat="60.31" lon="7.68918">
        <ele>1313.78</ele>
        <time>2019-04-03T13:30:58Z</time>
      </trkpt>
      <trkpt lat="60.30996" lon="7.68908">
        <ele>1314.26</ele>
        <time>2019-04-03T13:31:03Z</time>
      </trkpt>
      <trkpt lat="60.30993" lon="7.68901">
        <ele>1314.26</ele>
        <time>2019-04-03T13:31:05Z</time>
      </trkpt>
      <trkpt lat="60.30979" lon="7.68886">
        <ele>1314.74</ele>
        <time>2019-04-03T13:31:14Z</time>
      </trkpt>
      <trkpt lat="60.30977" lon="7.68886">
        <ele>1314.74</ele>
        <time>2019-04-03T13:31:15Z</time>
      </trkpt>
      <trkpt lat="60.30968" lon="7.68881">
        <ele>1315.22</ele>
        <time>2019-04-03T13:31:19Z</time>
      </trkpt>
      <trkpt lat="60.30957" lon="7.68867">
        <ele>1315.22</ele>
        <time>2019-04-03T13:31:26Z</time>
      </trkpt>
      <trkpt lat="60.30964" lon="7.6882">
        <ele>1315.22</ele>
        <time>2019-04-03T13:31:34Z</time>
      </trkpt>
      <trkpt lat="60.30965" lon="7.68815">
        <ele>1315.22</ele>
        <time>2019-04-03T13:31:35Z</time>
      </trkpt>
      <trkpt lat="60.30961" lon="7.68799">
        <ele>1314.26</ele>
        <time>2019-04-03T13:31:40Z</time>
      </trkpt>
      <trkpt lat="60.30942" lon="7.68785">
        <ele>1314.26</ele>
        <time>2019-04-03T13:31:50Z</time>
      </trkpt>
      <trkpt lat="60.3094" lon="7.68778">
        <ele>1314.74</ele>
        <time>2019-04-03T13:31:54Z</time>
      </trkpt>
      <trkpt lat="60.3093" lon="7.68763">
        <ele>1315.22</ele>
        <time>2019-04-03T13:32:03Z</time>
      </trkpt>
      <trkpt lat="60.3093" lon="7.68762">
        <ele>1315.22</ele>
        <time>2019-04-03T13:32:04Z</time>
      </trkpt>
      <trkpt lat="60.30922" lon="7.68758">
        <ele>1315.7</ele>
        <time>2019-04-03T13:32:08Z</time>
      </trkpt>
      <trkpt lat="60.30918" lon="7.6875">
        <ele>1316.18</ele>
        <time>2019-04-03T13:32:15Z</time>
      </trkpt>
      <trkpt lat="60.3092" lon="7.68723">
        <ele>1316.18</ele>
        <time>2019-04-03T13:32:22Z</time>
      </trkpt>
      <trkpt lat="60.30919" lon="7.68722">
        <ele>1316.18</ele>
        <time>2019-04-03T13:32:23Z</time>
      </trkpt>
      <trkpt lat="60.30908" lon="7.68715">
        <ele>1316.18</ele>
        <time>2019-04-03T13:32:30Z</time>
      </trkpt>
      <trkpt lat="60.30897" lon="7.68708">
        <ele>1316.66</ele>
        <time>2019-04-03T13:32:35Z</time>
      </trkpt>
      <trkpt lat="60.30896" lon="7.68703">
        <ele>1316.66</ele>
        <time>2019-04-03T13:32:36Z</time>
      </trkpt>
      <trkpt lat="60.30895" lon="7.68687">
        <ele>1316.66</ele>
        <time>2019-04-03T13:32:39Z</time>
      </trkpt>
      <trkpt lat="60.30897" lon="7.68675">
        <ele>1316.66</ele>
        <time>2019-04-03T13:32:41Z</time>
      </trkpt>
      <trkpt lat="60.30897" lon="7.68645">
        <ele>1316.66</ele>
        <time>2019-04-03T13:32:47Z</time>
      </trkpt>
      <trkpt lat="60.30878" lon="7.68631">
        <ele>1315.22</ele>
        <time>2019-04-03T13:32:54Z</time>
      </trkpt>
      <trkpt lat="60.30868" lon="7.68629">
        <ele>1316.66</ele>
        <time>2019-04-03T13:32:57Z</time>
      </trkpt>
      <trkpt lat="60.30859" lon="7.68616">
        <ele>1316.66</ele>
        <time>2019-04-03T13:33:01Z</time>
      </trkpt>
      <trkpt lat="60.30853" lon="7.68597">
        <ele>1316.66</ele>
        <time>2019-04-03T13:33:07Z</time>
      </trkpt>
      <trkpt lat="60.30852" lon="7.68575">
        <ele>1316.66</ele>
        <time>2019-04-03T13:33:12Z</time>
      </trkpt>
      <trkpt lat="60.30848" lon="7.68569">
        <ele>1316.66</ele>
        <time>2019-04-03T13:33:14Z</time>
      </trkpt>
      <trkpt lat="60.30836" lon="7.68558">
        <ele>1316.66</ele>
        <time>2019-04-03T13:33:21Z</time>
      </trkpt>
      <trkpt lat="60.30837" lon="7.68535">
        <ele>1317.14</ele>
        <time>2019-04-03T13:33:26Z</time>
      </trkpt>
      <trkpt lat="60.30827" lon="7.68525">
        <ele>1317.62</ele>
        <time>2019-04-03T13:33:32Z</time>
      </trkpt>
      <trkpt lat="60.30824" lon="7.68521">
        <ele>1317.62</ele>
        <time>2019-04-03T13:33:34Z</time>
      </trkpt>
      <trkpt lat="60.3081" lon="7.68499">
        <ele>1318.59</ele>
        <time>2019-04-03T13:33:42Z</time>
      </trkpt>
      <trkpt lat="60.30803" lon="7.68487">
        <ele>1319.55</ele>
        <time>2019-04-03T13:33:48Z</time>
      </trkpt>
      <trkpt lat="60.30803" lon="7.68478">
        <ele>1319.55</ele>
        <time>2019-04-03T13:33:51Z</time>
      </trkpt>
      <trkpt lat="60.30795" lon="7.68453">
        <ele>1320.03</ele>
        <time>2019-04-03T13:34:00Z</time>
      </trkpt>
      <trkpt lat="60.30794" lon="7.68452">
        <ele>1320.03</ele>
        <time>2019-04-03T13:34:08Z</time>
      </trkpt>
      <trkpt lat="60.30782" lon="7.68434">
        <ele>1320.51</ele>
        <time>2019-04-03T13:34:15Z</time>
      </trkpt>
      <trkpt lat="60.30783" lon="7.68418">
        <ele>1320.51</ele>
        <time>2019-04-03T13:34:18Z</time>
      </trkpt>
      <trkpt lat="60.30773" lon="7.68399">
        <ele>1321.47</ele>
        <time>2019-04-03T13:34:27Z</time>
      </trkpt>
      <trkpt lat="60.3075" lon="7.68391">
        <ele>1321.95</ele>
        <time>2019-04-03T13:34:35Z</time>
      </trkpt>
      <trkpt lat="60.30741" lon="7.68398">
        <ele>1322.43</ele>
        <time>2019-04-03T13:34:38Z</time>
      </trkpt>
      <trkpt lat="60.30736" lon="7.6838">
        <ele>1322.43</ele>
        <time>2019-04-03T13:34:43Z</time>
      </trkpt>
      <trkpt lat="60.30736" lon="7.68348">
        <ele>1322.91</ele>
        <time>2019-04-03T13:34:49Z</time>
      </trkpt>
      <trkpt lat="60.30724" lon="7.68333">
        <ele>1322.91</ele>
        <time>2019-04-03T13:34:54Z</time>
      </trkpt>
      <trkpt lat="60.3072" lon="7.6829">
        <ele>1323.39</ele>
        <time>2019-04-03T13:35:01Z</time>
      </trkpt>
      <trkpt lat="60.30718" lon="7.68287">
        <ele>1323.39</ele>
        <time>2019-04-03T13:35:02Z</time>
      </trkpt>
      <trkpt lat="60.30704" lon="7.68281">
        <ele>1323.39</ele>
        <time>2019-04-03T13:35:06Z</time>
      </trkpt>
      <trkpt lat="60.30696" lon="7.68253">
        <ele>1323.39</ele>
        <time>2019-04-03T13:35:11Z</time>
      </trkpt>
      <trkpt lat="60.30696" lon="7.68235">
        <ele>1323.39</ele>
        <time>2019-04-03T13:35:14Z</time>
      </trkpt>
      <trkpt lat="60.30671" lon="7.68227">
        <ele>1323.39</ele>
        <time>2019-04-03T13:35:22Z</time>
      </trkpt>
      <trkpt lat="60.30653" lon="7.68227">
        <ele>1323.39</ele>
        <time>2019-04-03T13:35:26Z</time>
      </trkpt>
      <trkpt lat="60.30625" lon="7.68206">
        <ele>1323.39</ele>
        <time>2019-04-03T13:35:34Z</time>
      </trkpt>
      <trkpt lat="60.30622" lon="7.68162">
        <ele>1323.87</ele>
        <time>2019-04-03T13:35:41Z</time>
      </trkpt>
      <trkpt lat="60.30622" lon="7.68156">
        <ele>1323.87</ele>
        <time>2019-04-03T13:35:42Z</time>
      </trkpt>
      <trkpt lat="60.3062" lon="7.68132">
        <ele>1323.87</ele>
        <time>2019-04-03T13:35:46Z</time>
      </trkpt>
      <trkpt lat="60.30609" lon="7.68103">
        <ele>1323.87</ele>
        <time>2019-04-03T13:35:52Z</time>
      </trkpt>
      <trkpt lat="60.30606" lon="7.68102">
        <ele>1323.87</ele>
        <time>2019-04-03T13:35:53Z</time>
      </trkpt>
      <trkpt lat="60.30598" lon="7.68089">
        <ele>1324.83</ele>
        <time>2019-04-03T13:35:57Z</time>
      </trkpt>
      <trkpt lat="60.30581" lon="7.68063">
        <ele>1324.83</ele>
        <time>2019-04-03T13:36:04Z</time>
      </trkpt>
      <trkpt lat="60.30577" lon="7.68057">
        <ele>1324.83</ele>
        <time>2019-04-03T13:36:06Z</time>
      </trkpt>
      <trkpt lat="60.30563" lon="7.68038">
        <ele>1324.83</ele>
        <time>2019-04-03T13:36:13Z</time>
      </trkpt>
      <trkpt lat="60.30555" lon="7.68022">
        <ele>1324.83</ele>
        <time>2019-04-03T13:36:17Z</time>
      </trkpt>
      <trkpt lat="60.30546" lon="7.68014">
        <ele>1324.83</ele>
        <time>2019-04-03T13:36:21Z</time>
      </trkpt>
      <trkpt lat="60.30526" lon="7.67995">
        <ele>1325.31</ele>
        <time>2019-04-03T13:36:28Z</time>
      </trkpt>
      <trkpt lat="60.30513" lon="7.67975">
        <ele>1325.31</ele>
        <time>2019-04-03T13:36:33Z</time>
      </trkpt>
      <trkpt lat="60.30507" lon="7.67973">
        <ele>1325.31</ele>
        <time>2019-04-03T13:36:35Z</time>
      </trkpt>
      <trkpt lat="60.30498" lon="7.67959">
        <ele>1325.31</ele>
        <time>2019-04-03T13:36:39Z</time>
      </trkpt>
      <trkpt lat="60.30495" lon="7.67931">
        <ele>1325.8</ele>
        <time>2019-04-03T13:36:45Z</time>
      </trkpt>
      <trkpt lat="60.30489" lon="7.67907">
        <ele>1325.8</ele>
        <time>2019-04-03T13:36:49Z</time>
      </trkpt>
      <trkpt lat="60.30469" lon="7.67907">
        <ele>1325.8</ele>
        <time>2019-04-03T13:36:54Z</time>
      </trkpt>
      <trkpt lat="60.30467" lon="7.679">
        <ele>1325.8</ele>
        <time>2019-04-03T13:36:55Z</time>
      </trkpt>
      <trkpt lat="60.30464" lon="7.67886">
        <ele>1325.8</ele>
        <time>2019-04-03T13:36:57Z</time>
      </trkpt>
      <trkpt lat="60.30466" lon="7.67845">
        <ele>1325.8</ele>
        <time>2019-04-03T13:37:02Z</time>
      </trkpt>
      <trkpt lat="60.30473" lon="7.67817">
        <ele>1325.8</ele>
        <time>2019-04-03T13:37:06Z</time>
      </trkpt>
      <trkpt lat="60.3048" lon="7.67774">
        <ele>1324.83</ele>
        <time>2019-04-03T13:37:12Z</time>
      </trkpt>
      <trkpt lat="60.30457" lon="7.67765">
        <ele>1324.35</ele>
        <time>2019-04-03T13:37:17Z</time>
      </trkpt>
      <trkpt lat="60.30447" lon="7.67755">
        <ele>1324.35</ele>
        <time>2019-04-03T13:37:19Z</time>
      </trkpt>
      <trkpt lat="60.30415" lon="7.67731">
        <ele>1323.39</ele>
        <time>2019-04-03T13:37:25Z</time>
      </trkpt>
      <trkpt lat="60.30396" lon="7.67731">
        <ele>1322.91</ele>
        <time>2019-04-03T13:37:28Z</time>
      </trkpt>
      <trkpt lat="60.30362" lon="7.67702">
        <ele>1322.91</ele>
        <time>2019-04-03T13:37:34Z</time>
      </trkpt>
      <trkpt lat="60.30343" lon="7.67681">
        <ele>1322.91</ele>
        <time>2019-04-03T13:37:40Z</time>
      </trkpt>
      <trkpt lat="60.30329" lon="7.67662">
        <ele>1322.91</ele>
        <time>2019-04-03T13:37:44Z</time>
      </trkpt>
      <trkpt lat="60.30323" lon="7.67652">
        <ele>1322.91</ele>
        <time>2019-04-03T13:37:46Z</time>
      </trkpt>
      <trkpt lat="60.303" lon="7.67628">
        <ele>1322.91</ele>
        <time>2019-04-03T13:37:53Z</time>
      </trkpt>
      <trkpt lat="60.30282" lon="7.6763">
        <ele>1322.43</ele>
        <time>2019-04-03T13:37:59Z</time>
      </trkpt>
      <trkpt lat="60.30282" lon="7.67625">
        <ele>1322.43</ele>
        <time>2019-04-03T13:38:06Z</time>
      </trkpt>
      <trkpt lat="60.30283" lon="7.67623">
        <ele>1322.43</ele>
        <time>2019-04-03T13:38:25Z</time>
      </trkpt>
      <trkpt lat="60.30283" lon="7.67623">
        <ele>1322.43</ele>
        <time>2019-04-03T13:38:42Z</time>
      </trkpt>
      <trkpt lat="60.30283" lon="7.67623">
        <ele>1322.43</ele>
        <time>2019-04-03T13:39:00Z</time>
      </trkpt>
      <trkpt lat="60.30282" lon="7.67622">
        <ele>1322.43</ele>
        <time>2019-04-03T13:39:20Z</time>
      </trkpt>
      <trkpt lat="60.30281" lon="7.67622">
        <ele>1322.43</ele>
        <time>2019-04-03T13:39:36Z</time>
      </trkpt>
      <trkpt lat="60.30272" lon="7.67629">
        <ele>1322.43</ele>
        <time>2019-04-03T13:39:40Z</time>
      </trkpt>
      <trkpt lat="60.30265" lon="7.67635">
        <ele>1321.95</ele>
        <time>2019-04-03T13:39:42Z</time>
      </trkpt>
      <trkpt lat="60.30243" lon="7.67641">
        <ele>1321.95</ele>
        <time>2019-04-03T13:39:46Z</time>
      </trkpt>
      <trkpt lat="60.30218" lon="7.67656">
        <ele>1323.39</ele>
        <time>2019-04-03T13:39:51Z</time>
      </trkpt>
      <trkpt lat="60.30222" lon="7.67617">
        <ele>1323.87</ele>
        <time>2019-04-03T13:39:56Z</time>
      </trkpt>
      <trkpt lat="60.30227" lon="7.67609">
        <ele>1323.87</ele>
        <time>2019-04-03T13:39:57Z</time>
      </trkpt>
      <trkpt lat="60.30286" lon="7.67509">
        <ele>1323.39</ele>
        <time>2019-04-03T13:40:07Z</time>
      </trkpt>
      <trkpt lat="60.30292" lon="7.675">
        <ele>1323.39</ele>
        <time>2019-04-03T13:40:08Z</time>
      </trkpt>
      <trkpt lat="60.30305" lon="7.67474">
        <ele>1320.99</ele>
        <time>2019-04-03T13:40:14Z</time>
      </trkpt>
      <trkpt lat="60.30301" lon="7.67475">
        <ele>1320.99</ele>
        <time>2019-04-03T13:40:21Z</time>
      </trkpt>
      <trkpt lat="60.30292" lon="7.6749">
        <ele>1320.03</ele>
        <time>2019-04-03T13:40:26Z</time>
      </trkpt>
      <trkpt lat="60.30271" lon="7.6751">
        <ele>1318.1</ele>
        <time>2019-04-03T13:40:30Z</time>
      </trkpt>
      <trkpt lat="60.30246" lon="7.67586">
        <ele>1319.07</ele>
        <time>2019-04-03T13:40:37Z</time>
      </trkpt>
      <trkpt lat="60.3024" lon="7.67587">
        <ele>1321.47</ele>
        <time>2019-04-03T13:40:41Z</time>
      </trkpt>
      <trkpt lat="60.30259" lon="7.67566">
        <ele>1323.39</ele>
        <time>2019-04-03T13:40:45Z</time>
      </trkpt>
      <trkpt lat="60.30287" lon="7.6755">
        <ele>1324.35</ele>
        <time>2019-04-03T13:40:50Z</time>
      </trkpt>
      <trkpt lat="60.30307" lon="7.67543">
        <ele>1324.35</ele>
        <time>2019-04-03T13:40:54Z</time>
      </trkpt>
      <trkpt lat="60.30331" lon="7.67533">
        <ele>1324.35</ele>
        <time>2019-04-03T13:40:59Z</time>
      </trkpt>
      <trkpt lat="60.30343" lon="7.67517">
        <ele>1321.47</ele>
        <time>2019-04-03T13:41:04Z</time>
      </trkpt>
      <trkpt lat="60.30335" lon="7.67526">
        <ele>1321.47</ele>
        <time>2019-04-03T13:41:07Z</time>
      </trkpt>
      <trkpt lat="60.30316" lon="7.67551">
        <ele>1321.47</ele>
        <time>2019-04-03T13:41:18Z</time>
      </trkpt>
      <trkpt lat="60.30313" lon="7.67553">
        <ele>1321.47</ele>
        <time>2019-04-03T13:41:30Z</time>
      </trkpt>
      <trkpt lat="60.30313" lon="7.67552">
        <ele>1321.47</ele>
        <time>2019-04-03T13:41:50Z</time>
      </trkpt>
      <trkpt lat="60.30313" lon="7.67553">
        <ele>1320.99</ele>
        <time>2019-04-03T13:42:15Z</time>
      </trkpt>
      <trkpt lat="60.30313" lon="7.67552">
        <ele>1320.99</ele>
        <time>2019-04-03T13:42:40Z</time>
      </trkpt>
      <trkpt lat="60.30313" lon="7.67552">
        <ele>1320.99</ele>
        <time>2019-04-03T13:43:01Z</time>
      </trkpt>
      <trkpt lat="60.30313" lon="7.67552">
        <ele>1320.99</ele>
        <time>2019-04-03T13:43:10Z</time>
      </trkpt>
      <trkpt lat="60.30295" lon="7.67546">
        <ele>1320.51</ele>
        <time>2019-04-03T13:43:15Z</time>
      </trkpt>
      <trkpt lat="60.30264" lon="7.6753">
        <ele>1320.03</ele>
        <time>2019-04-03T13:43:21Z</time>
      </trkpt>
      <trkpt lat="60.30263" lon="7.6752">
        <ele>1320.03</ele>
        <time>2019-04-03T13:43:22Z</time>
      </trkpt>
      <trkpt lat="60.30265" lon="7.67447">
        <ele>1319.55</ele>
        <time>2019-04-03T13:43:28Z</time>
      </trkpt>
      <trkpt lat="60.30263" lon="7.67402">
        <ele>1318.1</ele>
        <time>2019-04-03T13:43:33Z</time>
      </trkpt>
      <trkpt lat="60.30258" lon="7.67398">
        <ele>1317.62</ele>
        <time>2019-04-03T13:43:34Z</time>
      </trkpt>
      <trkpt lat="60.30228" lon="7.67376">
        <ele>1315.7</ele>
        <time>2019-04-03T13:43:39Z</time>
      </trkpt>
      <trkpt lat="60.30222" lon="7.67371">
        <ele>1315.22</ele>
        <time>2019-04-03T13:43:40Z</time>
      </trkpt>
      <trkpt lat="60.3019" lon="7.6736">
        <ele>1314.74</ele>
        <time>2019-04-03T13:43:45Z</time>
      </trkpt>
      <trkpt lat="60.30183" lon="7.67309">
        <ele>1313.78</ele>
        <time>2019-04-03T13:43:50Z</time>
      </trkpt>
      <trkpt lat="60.30187" lon="7.67282">
        <ele>1313.78</ele>
        <time>2019-04-03T13:43:52Z</time>
      </trkpt>
      <trkpt lat="60.30193" lon="7.67212">
        <ele>1311.86</ele>
        <time>2019-04-03T13:43:57Z</time>
      </trkpt>
      <trkpt lat="60.30177" lon="7.67157">
        <ele>1310.9</ele>
        <time>2019-04-03T13:44:03Z</time>
      </trkpt>
      <trkpt lat="60.30164" lon="7.67152">
        <ele>1309.93</ele>
        <time>2019-04-03T13:44:05Z</time>
      </trkpt>
      <trkpt lat="60.30144" lon="7.6715">
        <ele>1309.45</ele>
        <time>2019-04-03T13:44:08Z</time>
      </trkpt>
      <trkpt lat="60.30135" lon="7.67108">
        <ele>1308.49</ele>
        <time>2019-04-03T13:44:13Z</time>
      </trkpt>
      <trkpt lat="60.3014" lon="7.6708">
        <ele>1308.49</ele>
        <time>2019-04-03T13:44:15Z</time>
      </trkpt>
      <trkpt lat="60.30156" lon="7.67004">
        <ele>1307.53</ele>
        <time>2019-04-03T13:44:20Z</time>
      </trkpt>
      <trkpt lat="60.30153" lon="7.66962">
        <ele>1303.69</ele>
        <time>2019-04-03T13:44:24Z</time>
      </trkpt>
      <trkpt lat="60.3015" lon="7.66955">
        <ele>1303.69</ele>
        <time>2019-04-03T13:44:25Z</time>
      </trkpt>
      <trkpt lat="60.30098" lon="7.66935">
        <ele>1301.28</ele>
        <time>2019-04-03T13:44:33Z</time>
      </trkpt>
      <trkpt lat="60.30041" lon="7.6693">
        <ele>1299.84</ele>
        <time>2019-04-03T13:44:41Z</time>
      </trkpt>
      <trkpt lat="60.30034" lon="7.66931">
        <ele>1299.84</ele>
        <time>2019-04-03T13:44:42Z</time>
      </trkpt>
      <trkpt lat="60.30012" lon="7.66911">
        <ele>1300.8</ele>
        <time>2019-04-03T13:44:47Z</time>
      </trkpt>
      <trkpt lat="60.30011" lon="7.66884">
        <ele>1300.8</ele>
        <time>2019-04-03T13:44:49Z</time>
      </trkpt>
      <trkpt lat="60.30011" lon="7.66802">
        <ele>1298.88</ele>
        <time>2019-04-03T13:44:54Z</time>
      </trkpt>
      <trkpt lat="60.30012" lon="7.66769">
        <ele>1297.92</ele>
        <time>2019-04-03T13:44:56Z</time>
      </trkpt>
      <trkpt lat="60.30013" lon="7.66751">
        <ele>1296.96</ele>
        <time>2019-04-03T13:44:57Z</time>
      </trkpt>
      <trkpt lat="60.30012" lon="7.6669">
        <ele>1294.07</ele>
        <time>2019-04-03T13:45:01Z</time>
      </trkpt>
      <trkpt lat="60.30005" lon="7.66642">
        <ele>1292.63</ele>
        <time>2019-04-03T13:45:04Z</time>
      </trkpt>
      <trkpt lat="60.30004" lon="7.66605">
        <ele>1291.19</ele>
        <time>2019-04-03T13:45:06Z</time>
      </trkpt>
      <trkpt lat="60.30002" lon="7.66507">
        <ele>1287.82</ele>
        <time>2019-04-03T13:45:11Z</time>
      </trkpt>
      <trkpt lat="60.30004" lon="7.66401">
        <ele>1284.94</ele>
        <time>2019-04-03T13:45:17Z</time>
      </trkpt>
      <trkpt lat="60.30005" lon="7.66357">
        <ele>1284.46</ele>
        <time>2019-04-03T13:45:20Z</time>
      </trkpt>
      <trkpt lat="60.30014" lon="7.66263">
        <ele>1283.02</ele>
        <time>2019-04-03T13:45:27Z</time>
      </trkpt>
      <trkpt lat="60.30009" lon="7.66221">
        <ele>1281.57</ele>
        <time>2019-04-03T13:45:31Z</time>
      </trkpt>
      <trkpt lat="60.29997" lon="7.66207">
        <ele>1280.61</ele>
        <time>2019-04-03T13:45:33Z</time>
      </trkpt>
      <trkpt lat="60.29965" lon="7.66192">
        <ele>1279.17</ele>
        <time>2019-04-03T13:45:38Z</time>
      </trkpt>
      <trkpt lat="60.29943" lon="7.66148">
        <ele>1275.81</ele>
        <time>2019-04-03T13:45:44Z</time>
      </trkpt>
      <trkpt lat="60.29932" lon="7.66107">
        <ele>1272.92</ele>
        <time>2019-04-03T13:45:48Z</time>
      </trkpt>
      <trkpt lat="60.29919" lon="7.66091">
        <ele>1271</ele>
        <time>2019-04-03T13:45:50Z</time>
      </trkpt>
      <trkpt lat="60.29885" lon="7.66073">
        <ele>1265.23</ele>
        <time>2019-04-03T13:45:54Z</time>
      </trkpt>
      <trkpt lat="60.29866" lon="7.66071">
        <ele>1263.79</ele>
        <time>2019-04-03T13:45:56Z</time>
      </trkpt>
      <trkpt lat="60.2985" lon="7.66059">
        <ele>1262.35</ele>
        <time>2019-04-03T13:45:58Z</time>
      </trkpt>
      <trkpt lat="60.29845" lon="7.66033">
        <ele>1261.87</ele>
        <time>2019-04-03T13:46:00Z</time>
      </trkpt>
      <trkpt lat="60.29842" lon="7.65966">
        <ele>1259.94</ele>
        <time>2019-04-03T13:46:04Z</time>
      </trkpt>
      <trkpt lat="60.2985" lon="7.65873">
        <ele>1258.5</ele>
        <time>2019-04-03T13:46:10Z</time>
      </trkpt>
      <trkpt lat="60.2984" lon="7.65833">
        <ele>1256.1</ele>
        <time>2019-04-03T13:46:14Z</time>
      </trkpt>
      <trkpt lat="60.29833" lon="7.65825">
        <ele>1254.66</ele>
        <time>2019-04-03T13:46:15Z</time>
      </trkpt>
      <trkpt lat="60.29798" lon="7.65817">
        <ele>1248.41</ele>
        <time>2019-04-03T13:46:19Z</time>
      </trkpt>
      <trkpt lat="60.29781" lon="7.65795">
        <ele>1247.93</ele>
        <time>2019-04-03T13:46:22Z</time>
      </trkpt>
      <trkpt lat="60.29782" lon="7.65751">
        <ele>1247.45</ele>
        <time>2019-04-03T13:46:25Z</time>
      </trkpt>
      <trkpt lat="60.29796" lon="7.6568">
        <ele>1246.49</ele>
        <time>2019-04-03T13:46:30Z</time>
      </trkpt>
      <trkpt lat="60.29802" lon="7.65644">
        <ele>1246.01</ele>
        <time>2019-04-03T13:46:33Z</time>
      </trkpt>
      <trkpt lat="60.29805" lon="7.65636">
        <ele>1245.53</ele>
        <time>2019-04-03T13:46:34Z</time>
      </trkpt>
      <trkpt lat="60.29806" lon="7.65633">
        <ele>1245.04</ele>
        <time>2019-04-03T13:46:35Z</time>
      </trkpt>
      <trkpt lat="60.29808" lon="7.65621">
        <ele>1245.53</ele>
        <time>2019-04-03T13:46:43Z</time>
      </trkpt>
      <trkpt lat="60.29808" lon="7.656">
        <ele>1244.08</ele>
        <time>2019-04-03T13:46:53Z</time>
      </trkpt>
      <trkpt lat="60.29809" lon="7.65595">
        <ele>1244.08</ele>
        <time>2019-04-03T13:47:04Z</time>
      </trkpt>
      <trkpt lat="60.29809" lon="7.65593">
        <ele>1243.6</ele>
        <time>2019-04-03T13:47:23Z</time>
      </trkpt>
      <trkpt lat="60.2981" lon="7.65586">
        <ele>1243.6</ele>
        <time>2019-04-03T13:47:34Z</time>
      </trkpt>
      <trkpt lat="60.29816" lon="7.65566">
        <ele>1243.6</ele>
        <time>2019-04-03T13:47:43Z</time>
      </trkpt>
      <trkpt lat="60.29815" lon="7.65564">
        <ele>1243.6</ele>
        <time>2019-04-03T13:47:59Z</time>
      </trkpt>
      <trkpt lat="60.29814" lon="7.6556">
        <ele>1243.6</ele>
        <time>2019-04-03T13:48:07Z</time>
      </trkpt>
      <trkpt lat="60.29815" lon="7.65552">
        <ele>1243.6</ele>
        <time>2019-04-03T13:48:18Z</time>
      </trkpt>
      <trkpt lat="60.29815" lon="7.65551">
        <ele>1242.64</ele>
        <time>2019-04-03T13:48:21Z</time>
      </trkpt>
      <trkpt lat="60.29816" lon="7.65549">
        <ele>1242.64</ele>
        <time>2019-04-03T13:48:27Z</time>
      </trkpt>
      <trkpt lat="60.29826" lon="7.65524">
        <ele>1242.64</ele>
        <time>2019-04-03T13:48:33Z</time>
      </trkpt>
      <trkpt lat="60.2983" lon="7.65515">
        <ele>1242.64</ele>
        <time>2019-04-03T13:48:34Z</time>
      </trkpt>
      <trkpt lat="60.29835" lon="7.65508">
        <ele>1244.08</ele>
        <time>2019-04-03T13:48:35Z</time>
      </trkpt>
      <trkpt lat="60.29841" lon="7.65501">
        <ele>1244.08</ele>
        <time>2019-04-03T13:48:36Z</time>
      </trkpt>
      <trkpt lat="60.29852" lon="7.65489">
        <ele>1245.04</ele>
        <time>2019-04-03T13:48:38Z</time>
      </trkpt>
      <trkpt lat="60.29866" lon="7.65481">
        <ele>1245.53</ele>
        <time>2019-04-03T13:48:41Z</time>
      </trkpt>
      <trkpt lat="60.29868" lon="7.65475">
        <ele>1246.01</ele>
        <time>2019-04-03T13:48:42Z</time>
      </trkpt>
      <trkpt lat="60.29868" lon="7.65472">
        <ele>1244.56</ele>
        <time>2019-04-03T13:48:43Z</time>
      </trkpt>
      <trkpt lat="60.29864" lon="7.65479">
        <ele>1243.6</ele>
        <time>2019-04-03T13:48:45Z</time>
      </trkpt>
      <trkpt lat="60.29861" lon="7.65485">
        <ele>1243.12</ele>
        <time>2019-04-03T13:48:46Z</time>
      </trkpt>
      <trkpt lat="60.29859" lon="7.65493">
        <ele>1243.12</ele>
        <time>2019-04-03T13:48:47Z</time>
      </trkpt>
      <trkpt lat="60.29856" lon="7.65502">
        <ele>1242.64</ele>
        <time>2019-04-03T13:48:48Z</time>
      </trkpt>
      <trkpt lat="60.29853" lon="7.65511">
        <ele>1242.64</ele>
        <time>2019-04-03T13:48:49Z</time>
      </trkpt>
      <trkpt lat="60.29848" lon="7.65528">
        <ele>1245.04</ele>
        <time>2019-04-03T13:48:51Z</time>
      </trkpt>
      <trkpt lat="60.29843" lon="7.65545">
        <ele>1245.04</ele>
        <time>2019-04-03T13:48:53Z</time>
      </trkpt>
      <trkpt lat="60.29839" lon="7.65563">
        <ele>1243.12</ele>
        <time>2019-04-03T13:48:55Z</time>
      </trkpt>
      <trkpt lat="60.29834" lon="7.6558">
        <ele>1246.01</ele>
        <time>2019-04-03T13:48:57Z</time>
      </trkpt>
      <trkpt lat="60.29831" lon="7.6559">
        <ele>1244.56</ele>
        <time>2019-04-03T13:48:58Z</time>
      </trkpt>
      <trkpt lat="60.29821" lon="7.65621">
        <ele>1242.64</ele>
        <time>2019-04-03T13:49:01Z</time>
      </trkpt>
      <trkpt lat="60.29794" lon="7.65711">
        <ele>1245.04</ele>
        <time>2019-04-03T13:49:09Z</time>
      </trkpt>
      <trkpt lat="60.2979" lon="7.65724">
        <ele>1243.6</ele>
        <time>2019-04-03T13:49:10Z</time>
      </trkpt>
      <trkpt lat="60.29767" lon="7.65789">
        <ele>1241.68</ele>
        <time>2019-04-03T13:49:15Z</time>
      </trkpt>
      <trkpt lat="60.29752" lon="7.65822">
        <ele>1245.04</ele>
        <time>2019-04-03T13:49:18Z</time>
      </trkpt>
      <trkpt lat="60.29719" lon="7.65928">
        <ele>1248.41</ele>
        <time>2019-04-03T13:49:27Z</time>
      </trkpt>
      <trkpt lat="60.29702" lon="7.65982">
        <ele>1249.37</ele>
        <time>2019-04-03T13:49:32Z</time>
      </trkpt>
      <trkpt lat="60.29681" lon="7.66036">
        <ele>1251.77</ele>
        <time>2019-04-03T13:49:41Z</time>
      </trkpt>
      <trkpt lat="60.29678" lon="7.66042">
        <ele>1252.74</ele>
        <time>2019-04-03T13:49:48Z</time>
      </trkpt>
      <trkpt lat="60.29677" lon="7.66042">
        <ele>1252.74</ele>
        <time>2019-04-03T13:49:49Z</time>
      </trkpt>
      <trkpt lat="60.29667" lon="7.66047">
        <ele>1252.74</ele>
        <time>2019-04-03T13:49:55Z</time>
      </trkpt>
      <trkpt lat="60.29671" lon="7.66035">
        <ele>1253.7</ele>
        <time>2019-04-03T13:50:00Z</time>
      </trkpt>
      <trkpt lat="60.29683" lon="7.66026">
        <ele>1253.7</ele>
        <time>2019-04-03T13:50:03Z</time>
      </trkpt>
      <trkpt lat="60.29697" lon="7.66009">
        <ele>1253.7</ele>
        <time>2019-04-03T13:50:06Z</time>
      </trkpt>
      <trkpt lat="60.29761" lon="7.65929">
        <ele>1256.1</ele>
        <time>2019-04-03T13:50:15Z</time>
      </trkpt>
      <trkpt lat="60.29826" lon="7.65886">
        <ele>1256.1</ele>
        <time>2019-04-03T13:50:24Z</time>
      </trkpt>
      <trkpt lat="60.29865" lon="7.65852">
        <ele>1259.46</ele>
        <time>2019-04-03T13:50:31Z</time>
      </trkpt>
      <trkpt lat="60.2987" lon="7.65848">
        <ele>1260.43</ele>
        <time>2019-04-03T13:50:32Z</time>
      </trkpt>
      <trkpt lat="60.2988" lon="7.65837">
        <ele>1260.91</ele>
        <time>2019-04-03T13:50:34Z</time>
      </trkpt>
      <trkpt lat="60.2989" lon="7.65823">
        <ele>1262.83</ele>
        <time>2019-04-03T13:50:36Z</time>
      </trkpt>
      <trkpt lat="60.29923" lon="7.6578">
        <ele>1265.23</ele>
        <time>2019-04-03T13:50:41Z</time>
      </trkpt>
      <trkpt lat="60.29962" lon="7.65737">
        <ele>1268.6</ele>
        <time>2019-04-03T13:50:46Z</time>
      </trkpt>
      <trkpt lat="60.29971" lon="7.65729">
        <ele>1268.6</ele>
        <time>2019-04-03T13:50:47Z</time>
      </trkpt>
      <trkpt lat="60.3005" lon="7.65676">
        <ele>1269.08</ele>
        <time>2019-04-03T13:50:57Z</time>
      </trkpt>
      <trkpt lat="60.3008" lon="7.65656">
        <ele>1270.52</ele>
        <time>2019-04-03T13:51:01Z</time>
      </trkpt>
      <trkpt lat="60.30092" lon="7.65648">
        <ele>1270.52</ele>
        <time>2019-04-03T13:51:03Z</time>
      </trkpt>
      <trkpt lat="60.30094" lon="7.6564">
        <ele>1266.19</ele>
        <time>2019-04-03T13:51:05Z</time>
      </trkpt>
      <trkpt lat="60.30092" lon="7.65641">
        <ele>1266.19</ele>
        <time>2019-04-03T13:51:06Z</time>
      </trkpt>
      <trkpt lat="60.30088" lon="7.65645">
        <ele>1265.71</ele>
        <time>2019-04-03T13:51:07Z</time>
      </trkpt>
      <trkpt lat="60.30085" lon="7.65651">
        <ele>1265.71</ele>
        <time>2019-04-03T13:51:08Z</time>
      </trkpt>
      <trkpt lat="60.30082" lon="7.65659">
        <ele>1265.23</ele>
        <time>2019-04-03T13:51:09Z</time>
      </trkpt>
      <trkpt lat="60.30079" lon="7.65669">
        <ele>1264.75</ele>
        <time>2019-04-03T13:51:10Z</time>
      </trkpt>
      <trkpt lat="60.30069" lon="7.65706">
        <ele>1265.71</ele>
        <time>2019-04-03T13:51:14Z</time>
      </trkpt>
      <trkpt lat="60.30065" lon="7.65723">
        <ele>1266.67</ele>
        <time>2019-04-03T13:51:16Z</time>
      </trkpt>
      <trkpt lat="60.30053" lon="7.65765">
        <ele>1265.71</ele>
        <time>2019-04-03T13:51:21Z</time>
      </trkpt>
      <trkpt lat="60.30039" lon="7.65812">
        <ele>1269.56</ele>
        <time>2019-04-03T13:51:26Z</time>
      </trkpt>
      <trkpt lat="60.30034" lon="7.65832">
        <ele>1270.04</ele>
        <time>2019-04-03T13:51:28Z</time>
      </trkpt>
      <trkpt lat="60.3003" lon="7.65844">
        <ele>1268.6</ele>
        <time>2019-04-03T13:51:29Z</time>
      </trkpt>
      <trkpt lat="60.30023" lon="7.65873">
        <ele>1270.04</ele>
        <time>2019-04-03T13:51:32Z</time>
      </trkpt>
      <trkpt lat="60.30004" lon="7.65936">
        <ele>1271</ele>
        <time>2019-04-03T13:51:39Z</time>
      </trkpt>
      <trkpt lat="60.29989" lon="7.65971">
        <ele>1271</ele>
        <time>2019-04-03T13:51:43Z</time>
      </trkpt>
      <trkpt lat="60.29957" lon="7.66055">
        <ele>1271</ele>
        <time>2019-04-03T13:51:51Z</time>
      </trkpt>
      <trkpt lat="60.29947" lon="7.66085">
        <ele>1271</ele>
        <time>2019-04-03T13:51:54Z</time>
      </trkpt>
      <trkpt lat="60.29936" lon="7.66127">
        <ele>1271.48</ele>
        <time>2019-04-03T13:51:58Z</time>
      </trkpt>
      <trkpt lat="60.29897" lon="7.66229">
        <ele>1268.6</ele>
        <time>2019-04-03T13:52:08Z</time>
      </trkpt>
      <trkpt lat="60.29864" lon="7.66301">
        <ele>1269.08</ele>
        <time>2019-04-03T13:52:14Z</time>
      </trkpt>
      <trkpt lat="60.2983" lon="7.66395">
        <ele>1271.48</ele>
        <time>2019-04-03T13:52:22Z</time>
      </trkpt>
      <trkpt lat="60.29822" lon="7.66415">
        <ele>1271.48</ele>
        <time>2019-04-03T13:52:24Z</time>
      </trkpt>
      <trkpt lat="60.29805" lon="7.66453">
        <ele>1271.48</ele>
        <time>2019-04-03T13:52:28Z</time>
      </trkpt>
      <trkpt lat="60.2979" lon="7.66498">
        <ele>1273.88</ele>
        <time>2019-04-03T13:52:32Z</time>
      </trkpt>
      <trkpt lat="60.29763" lon="7.66576">
        <ele>1275.33</ele>
        <time>2019-04-03T13:52:39Z</time>
      </trkpt>
      <trkpt lat="60.29754" lon="7.66609">
        <ele>1277.73</ele>
        <time>2019-04-03T13:52:42Z</time>
      </trkpt>
      <trkpt lat="60.29743" lon="7.66641">
        <ele>1277.73</ele>
        <time>2019-04-03T13:52:45Z</time>
      </trkpt>
      <trkpt lat="60.29735" lon="7.66671">
        <ele>1279.65</ele>
        <time>2019-04-03T13:52:49Z</time>
      </trkpt>
      <trkpt lat="60.29745" lon="7.66643">
        <ele>1282.06</ele>
        <time>2019-04-03T13:52:53Z</time>
      </trkpt>
      <trkpt lat="60.29757" lon="7.66633">
        <ele>1281.57</ele>
        <time>2019-04-03T13:52:55Z</time>
      </trkpt>
      <trkpt lat="60.29777" lon="7.66623">
        <ele>1283.98</ele>
        <time>2019-04-03T13:52:58Z</time>
      </trkpt>
      <trkpt lat="60.2985" lon="7.66584">
        <ele>1284.94</ele>
        <time>2019-04-03T13:53:08Z</time>
      </trkpt>
      <trkpt lat="60.29918" lon="7.66564">
        <ele>1287.34</ele>
        <time>2019-04-03T13:53:19Z</time>
      </trkpt>
      <trkpt lat="60.29923" lon="7.66563">
        <ele>1287.34</ele>
        <time>2019-04-03T13:53:20Z</time>
      </trkpt>
      <trkpt lat="60.29974" lon="7.66548">
        <ele>1287.82</ele>
        <time>2019-04-03T13:53:30Z</time>
      </trkpt>
      <trkpt lat="60.30013" lon="7.66504">
        <ele>1287.82</ele>
        <time>2019-04-03T13:53:37Z</time>
      </trkpt>
      <trkpt lat="60.30049" lon="7.66471">
        <ele>1288.78</ele>
        <time>2019-04-03T13:53:42Z</time>
      </trkpt>
      <trkpt lat="60.30094" lon="7.66454">
        <ele>1289.27</ele>
        <time>2019-04-03T13:53:49Z</time>
      </trkpt>
      <trkpt lat="60.30119" lon="7.66443">
        <ele>1291.19</ele>
        <time>2019-04-03T13:53:53Z</time>
      </trkpt>
      <trkpt lat="60.30171" lon="7.6641">
        <ele>1294.07</ele>
        <time>2019-04-03T13:54:01Z</time>
      </trkpt>
      <trkpt lat="60.30182" lon="7.66404">
        <ele>1294.55</ele>
        <time>2019-04-03T13:54:03Z</time>
      </trkpt>
      <trkpt lat="60.30187" lon="7.66402">
        <ele>1295.03</ele>
        <time>2019-04-03T13:54:04Z</time>
      </trkpt>
      <trkpt lat="60.30213" lon="7.66385">
        <ele>1297.92</ele>
        <time>2019-04-03T13:54:09Z</time>
      </trkpt>
      <trkpt lat="60.30224" lon="7.66379">
        <ele>1298.4</ele>
        <time>2019-04-03T13:54:11Z</time>
      </trkpt>
      <trkpt lat="60.30229" lon="7.66376">
        <ele>1297.44</ele>
        <time>2019-04-03T13:54:16Z</time>
      </trkpt>
      <trkpt lat="60.30221" lon="7.66387">
        <ele>1294.07</ele>
        <time>2019-04-03T13:54:18Z</time>
      </trkpt>
      <trkpt lat="60.30218" lon="7.66395">
        <ele>1294.07</ele>
        <time>2019-04-03T13:54:19Z</time>
      </trkpt>
      <trkpt lat="60.30213" lon="7.66414">
        <ele>1295.51</ele>
        <time>2019-04-03T13:54:21Z</time>
      </trkpt>
      <trkpt lat="60.30209" lon="7.66432">
        <ele>1295.51</ele>
        <time>2019-04-03T13:54:23Z</time>
      </trkpt>
      <trkpt lat="60.30201" lon="7.66471">
        <ele>1292.63</ele>
        <time>2019-04-03T13:54:27Z</time>
      </trkpt>
      <trkpt lat="60.30187" lon="7.66528">
        <ele>1295.03</ele>
        <time>2019-04-03T13:54:32Z</time>
      </trkpt>
      <trkpt lat="60.30173" lon="7.66579">
        <ele>1293.11</ele>
        <time>2019-04-03T13:54:36Z</time>
      </trkpt>
      <trkpt lat="60.30156" lon="7.66646">
        <ele>1295.03</ele>
        <time>2019-04-03T13:54:41Z</time>
      </trkpt>
      <trkpt lat="60.30149" lon="7.66672">
        <ele>1293.59</ele>
        <time>2019-04-03T13:54:43Z</time>
      </trkpt>
      <trkpt lat="60.30128" lon="7.66752">
        <ele>1290.23</ele>
        <time>2019-04-03T13:54:49Z</time>
      </trkpt>
      <trkpt lat="60.30125" lon="7.66764">
        <ele>1293.59</ele>
        <time>2019-04-03T13:54:50Z</time>
      </trkpt>
      <trkpt lat="60.30122" lon="7.66776">
        <ele>1293.59</ele>
        <time>2019-04-03T13:54:51Z</time>
      </trkpt>
      <trkpt lat="60.30107" lon="7.66849">
        <ele>1295.03</ele>
        <time>2019-04-03T13:54:58Z</time>
      </trkpt>
      <trkpt lat="60.30102" lon="7.66879">
        <ele>1297.44</ele>
        <time>2019-04-03T13:55:01Z</time>
      </trkpt>
      <trkpt lat="60.30083" lon="7.66981">
        <ele>1297.92</ele>
        <time>2019-04-03T13:55:11Z</time>
      </trkpt>
      <trkpt lat="60.30078" lon="7.67002">
        <ele>1300.32</ele>
        <time>2019-04-03T13:55:13Z</time>
      </trkpt>
      <trkpt lat="60.30069" lon="7.67096">
        <ele>1301.76</ele>
        <time>2019-04-03T13:55:23Z</time>
      </trkpt>
      <trkpt lat="60.30064" lon="7.67179">
        <ele>1302.72</ele>
        <time>2019-04-03T13:55:33Z</time>
      </trkpt>
      <trkpt lat="60.30062" lon="7.67218">
        <ele>1303.69</ele>
        <time>2019-04-03T13:55:37Z</time>
      </trkpt>
      <trkpt lat="60.30055" lon="7.67285">
        <ele>1305.13</ele>
        <time>2019-04-03T13:55:44Z</time>
      </trkpt>
      <trkpt lat="60.30049" lon="7.67348">
        <ele>1307.05</ele>
        <time>2019-04-03T13:55:50Z</time>
      </trkpt>
      <trkpt lat="60.30043" lon="7.67389">
        <ele>1308.49</ele>
        <time>2019-04-03T13:55:54Z</time>
      </trkpt>
      <trkpt lat="60.30043" lon="7.67397">
        <ele>1308.97</ele>
        <time>2019-04-03T13:55:55Z</time>
      </trkpt>
      <trkpt lat="60.30041" lon="7.67401">
        <ele>1309.93</ele>
        <time>2019-04-03T13:55:58Z</time>
      </trkpt>
      <trkpt lat="60.30051" lon="7.67388">
        <ele>1312.34</ele>
        <time>2019-04-03T13:56:01Z</time>
      </trkpt>
      <trkpt lat="60.3011" lon="7.67341">
        <ele>1312.82</ele>
        <time>2019-04-03T13:56:11Z</time>
      </trkpt>
      <trkpt lat="60.30186" lon="7.67298">
        <ele>1314.26</ele>
        <time>2019-04-03T13:56:23Z</time>
      </trkpt>
      <trkpt lat="60.30239" lon="7.6725">
        <ele>1314.26</ele>
        <time>2019-04-03T13:56:31Z</time>
      </trkpt>
      <trkpt lat="60.30267" lon="7.67221">
        <ele>1314.26</ele>
        <time>2019-04-03T13:56:35Z</time>
      </trkpt>
      <trkpt lat="60.30299" lon="7.67196">
        <ele>1315.7</ele>
        <time>2019-04-03T13:56:40Z</time>
      </trkpt>
      <trkpt lat="60.30304" lon="7.67191">
        <ele>1314.26</ele>
        <time>2019-04-03T13:56:45Z</time>
      </trkpt>
      <trkpt lat="60.30296" lon="7.67212">
        <ele>1310.41</ele>
        <time>2019-04-03T13:56:48Z</time>
      </trkpt>
      <trkpt lat="60.3029" lon="7.67252">
        <ele>1311.38</ele>
        <time>2019-04-03T13:56:52Z</time>
      </trkpt>
      <trkpt lat="60.30288" lon="7.67271">
        <ele>1309.45</ele>
        <time>2019-04-03T13:56:54Z</time>
      </trkpt>
      <trkpt lat="60.30286" lon="7.67291">
        <ele>1312.82</ele>
        <time>2019-04-03T13:56:57Z</time>
      </trkpt>
      <trkpt lat="60.30284" lon="7.67302">
        <ele>1313.3</ele>
        <time>2019-04-03T13:56:59Z</time>
      </trkpt>
      <trkpt lat="60.30283" lon="7.67308">
        <ele>1312.34</ele>
        <time>2019-04-03T13:57:00Z</time>
      </trkpt>
      <trkpt lat="60.30272" lon="7.6734">
        <ele>1315.7</ele>
        <time>2019-04-03T13:57:07Z</time>
      </trkpt>
      <trkpt lat="60.3026" lon="7.67377">
        <ele>1313.3</ele>
        <time>2019-04-03T13:57:13Z</time>
      </trkpt>
      <trkpt lat="60.30251" lon="7.67417">
        <ele>1313.3</ele>
        <time>2019-04-03T13:57:17Z</time>
      </trkpt>
      <trkpt lat="60.30244" lon="7.67454">
        <ele>1312.82</ele>
        <time>2019-04-03T13:57:21Z</time>
      </trkpt>
      <trkpt lat="60.30238" lon="7.67482">
        <ele>1315.22</ele>
        <time>2019-04-03T13:57:24Z</time>
      </trkpt>
      <trkpt lat="60.30233" lon="7.67497">
        <ele>1315.22</ele>
        <time>2019-04-03T13:57:26Z</time>
      </trkpt>
      <trkpt lat="60.30215" lon="7.67544">
        <ele>1317.62</ele>
        <time>2019-04-03T13:57:34Z</time>
      </trkpt>
      <trkpt lat="60.30234" lon="7.67537">
        <ele>1318.59</ele>
        <time>2019-04-03T13:57:41Z</time>
      </trkpt>
      <trkpt lat="60.30238" lon="7.67535">
        <ele>1318.59</ele>
        <time>2019-04-03T13:57:42Z</time>
      </trkpt>
      <trkpt lat="60.3026" lon="7.67532">
        <ele>1319.55</ele>
        <time>2019-04-03T13:57:47Z</time>
      </trkpt>
      <trkpt lat="60.30283" lon="7.67535">
        <ele>1319.55</ele>
        <time>2019-04-03T13:57:53Z</time>
      </trkpt>
      <trkpt lat="60.30304" lon="7.67527">
        <ele>1319.55</ele>
        <time>2019-04-03T13:58:01Z</time>
      </trkpt>
      <trkpt lat="60.30307" lon="7.67524">
        <ele>1319.55</ele>
        <time>2019-04-03T13:58:02Z</time>
      </trkpt>
      <trkpt lat="60.30344" lon="7.67513">
        <ele>1320.99</ele>
        <time>2019-04-03T13:58:10Z</time>
      </trkpt>
      <trkpt lat="60.30364" lon="7.67512">
        <ele>1320.99</ele>
        <time>2019-04-03T13:58:14Z</time>
      </trkpt>
      <trkpt lat="60.30399" lon="7.67502">
        <ele>1321.47</ele>
        <time>2019-04-03T13:58:21Z</time>
      </trkpt>
      <trkpt lat="60.30425" lon="7.67496">
        <ele>1323.39</ele>
        <time>2019-04-03T13:58:26Z</time>
      </trkpt>
      <trkpt lat="60.30437" lon="7.67498">
        <ele>1323.39</ele>
        <time>2019-04-03T13:58:29Z</time>
      </trkpt>
      <trkpt lat="60.30441" lon="7.67498">
        <ele>1323.39</ele>
        <time>2019-04-03T13:58:31Z</time>
      </trkpt>
      <trkpt lat="60.30433" lon="7.67505">
        <ele>1320.03</ele>
        <time>2019-04-03T13:58:34Z</time>
      </trkpt>
      <trkpt lat="60.3043" lon="7.67522">
        <ele>1318.59</ele>
        <time>2019-04-03T13:58:36Z</time>
      </trkpt>
      <trkpt lat="60.30428" lon="7.6754">
        <ele>1318.59</ele>
        <time>2019-04-03T13:58:38Z</time>
      </trkpt>
      <trkpt lat="60.30422" lon="7.67585">
        <ele>1317.62</ele>
        <time>2019-04-03T13:58:43Z</time>
      </trkpt>
      <trkpt lat="60.30419" lon="7.676">
        <ele>1318.59</ele>
        <time>2019-04-03T13:58:45Z</time>
      </trkpt>
      <trkpt lat="60.30415" lon="7.67625">
        <ele>1317.14</ele>
        <time>2019-04-03T13:58:48Z</time>
      </trkpt>
      <trkpt lat="60.30413" lon="7.67648">
        <ele>1318.1</ele>
        <time>2019-04-03T13:58:51Z</time>
      </trkpt>
      <trkpt lat="60.30409" lon="7.67704">
        <ele>1320.03</ele>
        <time>2019-04-03T13:59:00Z</time>
      </trkpt>
      <trkpt lat="60.30395" lon="7.6775">
        <ele>1320.99</ele>
        <time>2019-04-03T13:59:08Z</time>
      </trkpt>
      <trkpt lat="60.30387" lon="7.67774">
        <ele>1319.07</ele>
        <time>2019-04-03T13:59:11Z</time>
      </trkpt>
      <trkpt lat="60.30378" lon="7.67798">
        <ele>1320.51</ele>
        <time>2019-04-03T13:59:14Z</time>
      </trkpt>
      <trkpt lat="60.30373" lon="7.67816">
        <ele>1320.51</ele>
        <time>2019-04-03T13:59:16Z</time>
      </trkpt>
      <trkpt lat="60.30367" lon="7.67835">
        <ele>1320.99</ele>
        <time>2019-04-03T13:59:18Z</time>
      </trkpt>
      <trkpt lat="60.30359" lon="7.67896">
        <ele>1322.43</ele>
        <time>2019-04-03T13:59:26Z</time>
      </trkpt>
      <trkpt lat="60.30358" lon="7.67901">
        <ele>1323.39</ele>
        <time>2019-04-03T13:59:27Z</time>
      </trkpt>
      <trkpt lat="60.30364" lon="7.67895">
        <ele>1324.83</ele>
        <time>2019-04-03T13:59:32Z</time>
      </trkpt>
      <trkpt lat="60.30376" lon="7.67896">
        <ele>1324.83</ele>
        <time>2019-04-03T13:59:35Z</time>
      </trkpt>
      <trkpt lat="60.30403" lon="7.67892">
        <ele>1325.31</ele>
        <time>2019-04-03T13:59:42Z</time>
      </trkpt>
      <trkpt lat="60.3045" lon="7.67895">
        <ele>1324.83</ele>
        <time>2019-04-03T13:59:52Z</time>
      </trkpt>
      <trkpt lat="60.30482" lon="7.67898">
        <ele>1324.83</ele>
        <time>2019-04-03T13:59:59Z</time>
      </trkpt>
      <trkpt lat="60.30499" lon="7.67898">
        <ele>1323.39</ele>
        <time>2019-04-03T14:00:03Z</time>
      </trkpt>
      <trkpt lat="60.30506" lon="7.67894">
        <ele>1323.39</ele>
        <time>2019-04-03T14:00:05Z</time>
      </trkpt>
      <trkpt lat="60.30527" lon="7.67894">
        <ele>1324.35</ele>
        <time>2019-04-03T14:00:10Z</time>
      </trkpt>
      <trkpt lat="60.30555" lon="7.67899">
        <ele>1324.35</ele>
        <time>2019-04-03T14:00:17Z</time>
      </trkpt>
      <trkpt lat="60.30577" lon="7.67879">
        <ele>1323.87</ele>
        <time>2019-04-03T14:00:23Z</time>
      </trkpt>
      <trkpt lat="60.30594" lon="7.67879">
        <ele>1321.95</ele>
        <time>2019-04-03T14:00:28Z</time>
      </trkpt>
      <trkpt lat="60.30588" lon="7.67889">
        <ele>1320.03</ele>
        <time>2019-04-03T14:00:32Z</time>
      </trkpt>
      <trkpt lat="60.30573" lon="7.67927">
        <ele>1321.47</ele>
        <time>2019-04-03T14:00:43Z</time>
      </trkpt>
      <trkpt lat="60.3057" lon="7.67945">
        <ele>1320.03</ele>
        <time>2019-04-03T14:00:49Z</time>
      </trkpt>
      <trkpt lat="60.30568" lon="7.67958">
        <ele>1321.47</ele>
        <time>2019-04-03T14:00:57Z</time>
      </trkpt>
      <trkpt lat="60.30566" lon="7.6796">
        <ele>1321.47</ele>
        <time>2019-04-03T14:01:00Z</time>
      </trkpt>
      <trkpt lat="60.3056" lon="7.67968">
        <ele>1321.95</ele>
        <time>2019-04-03T14:01:06Z</time>
      </trkpt>
      <trkpt lat="60.30552" lon="7.67987">
        <ele>1321.47</ele>
        <time>2019-04-03T14:01:11Z</time>
      </trkpt>
      <trkpt lat="60.30547" lon="7.68014">
        <ele>1320.03</ele>
        <time>2019-04-03T14:01:15Z</time>
      </trkpt>
      <trkpt lat="60.30546" lon="7.68023">
        <ele>1321.95</ele>
        <time>2019-04-03T14:01:17Z</time>
      </trkpt>
      <trkpt lat="60.30534" lon="7.68048">
        <ele>1322.43</ele>
        <time>2019-04-03T14:01:23Z</time>
      </trkpt>
      <trkpt lat="60.30533" lon="7.68055">
        <ele>1322.43</ele>
        <time>2019-04-03T14:01:24Z</time>
      </trkpt>
      <trkpt lat="60.30533" lon="7.68082">
        <ele>1322.43</ele>
        <time>2019-04-03T14:01:31Z</time>
      </trkpt>
      <trkpt lat="60.30534" lon="7.68077">
        <ele>1322.43</ele>
        <time>2019-04-03T14:01:35Z</time>
      </trkpt>
      <trkpt lat="60.30546" lon="7.68041">
        <ele>1323.87</ele>
        <time>2019-04-03T14:01:42Z</time>
      </trkpt>
      <trkpt lat="60.30562" lon="7.68022">
        <ele>1323.87</ele>
        <time>2019-04-03T14:01:45Z</time>
      </trkpt>
      <trkpt lat="60.3059" lon="7.68014">
        <ele>1323.87</ele>
        <time>2019-04-03T14:01:50Z</time>
      </trkpt>
      <trkpt lat="60.306" lon="7.68014">
        <ele>1323.87</ele>
        <time>2019-04-03T14:01:52Z</time>
      </trkpt>
      <trkpt lat="60.30616" lon="7.68016">
        <ele>1322.43</ele>
        <time>2019-04-03T14:01:55Z</time>
      </trkpt>
      <trkpt lat="60.3063" lon="7.68014">
        <ele>1322.43</ele>
        <time>2019-04-03T14:01:58Z</time>
      </trkpt>
      <trkpt lat="60.3064" lon="7.68014">
        <ele>1321.47</ele>
        <time>2019-04-03T14:02:00Z</time>
      </trkpt>
      <trkpt lat="60.30696" lon="7.6802">
        <ele>1321.47</ele>
        <time>2019-04-03T14:02:12Z</time>
      </trkpt>
      <trkpt lat="60.30698" lon="7.68022">
        <ele>1321.47</ele>
        <time>2019-04-03T14:02:13Z</time>
      </trkpt>
      <trkpt lat="60.30695" lon="7.68022">
        <ele>1320.03</ele>
        <time>2019-04-03T14:02:17Z</time>
      </trkpt>
      <trkpt lat="60.3069" lon="7.68036">
        <ele>1318.59</ele>
        <time>2019-04-03T14:02:19Z</time>
      </trkpt>
      <trkpt lat="60.30687" lon="7.68043">
        <ele>1318.59</ele>
        <time>2019-04-03T14:02:20Z</time>
      </trkpt>
      <trkpt lat="60.30679" lon="7.68066">
        <ele>1319.55</ele>
        <time>2019-04-03T14:02:23Z</time>
      </trkpt>
      <trkpt lat="60.30671" lon="7.68095">
        <ele>1316.66</ele>
        <time>2019-04-03T14:02:26Z</time>
      </trkpt>
      <trkpt lat="60.30669" lon="7.68112">
        <ele>1319.07</ele>
        <time>2019-04-03T14:02:28Z</time>
      </trkpt>
      <trkpt lat="60.30667" lon="7.68127">
        <ele>1317.14</ele>
        <time>2019-04-03T14:02:30Z</time>
      </trkpt>
      <trkpt lat="60.30659" lon="7.68178">
        <ele>1319.07</ele>
        <time>2019-04-03T14:02:39Z</time>
      </trkpt>
      <trkpt lat="60.30657" lon="7.68182">
        <ele>1319.07</ele>
        <time>2019-04-03T14:02:40Z</time>
      </trkpt>
      <trkpt lat="60.30653" lon="7.68204">
        <ele>1319.07</ele>
        <time>2019-04-03T14:02:45Z</time>
      </trkpt>
      <trkpt lat="60.30645" lon="7.68225">
        <ele>1317.62</ele>
        <time>2019-04-03T14:02:52Z</time>
      </trkpt>
      <trkpt lat="60.3063" lon="7.68248">
        <ele>1317.62</ele>
        <time>2019-04-03T14:02:57Z</time>
      </trkpt>
      <trkpt lat="60.3063" lon="7.68252">
        <ele>1317.62</ele>
        <time>2019-04-03T14:03:01Z</time>
      </trkpt>
      <trkpt lat="60.30637" lon="7.68248">
        <ele>1319.07</ele>
        <time>2019-04-03T14:03:03Z</time>
      </trkpt>
      <trkpt lat="60.30655" lon="7.68236">
        <ele>1319.55</ele>
        <time>2019-04-03T14:03:09Z</time>
      </trkpt>
      <trkpt lat="60.30665" lon="7.6823">
        <ele>1320.03</ele>
        <time>2019-04-03T14:03:11Z</time>
      </trkpt>
      <trkpt lat="60.30681" lon="7.68224">
        <ele>1320.51</ele>
        <time>2019-04-03T14:03:14Z</time>
      </trkpt>
      <trkpt lat="60.30707" lon="7.68221">
        <ele>1320.99</ele>
        <time>2019-04-03T14:03:19Z</time>
      </trkpt>
      <trkpt lat="60.30726" lon="7.68227">
        <ele>1320.99</ele>
        <time>2019-04-03T14:03:23Z</time>
      </trkpt>
      <trkpt lat="60.30754" lon="7.68237">
        <ele>1320.99</ele>
        <time>2019-04-03T14:03:31Z</time>
      </trkpt>
      <trkpt lat="60.30779" lon="7.68247">
        <ele>1320.99</ele>
        <time>2019-04-03T14:03:38Z</time>
      </trkpt>
      <trkpt lat="60.30793" lon="7.6826">
        <ele>1319.55</ele>
        <time>2019-04-03T14:03:42Z</time>
      </trkpt>
      <trkpt lat="60.30817" lon="7.68295">
        <ele>1316.66</ele>
        <time>2019-04-03T14:03:51Z</time>
      </trkpt>
      <trkpt lat="60.30827" lon="7.68303">
        <ele>1315.22</ele>
        <time>2019-04-03T14:03:59Z</time>
      </trkpt>
      <trkpt lat="60.30821" lon="7.68311">
        <ele>1313.78</ele>
        <time>2019-04-03T14:04:03Z</time>
      </trkpt>
      <trkpt lat="60.30813" lon="7.68328">
        <ele>1314.74</ele>
        <time>2019-04-03T14:04:08Z</time>
      </trkpt>
      <trkpt lat="60.30807" lon="7.68351">
        <ele>1315.22</ele>
        <time>2019-04-03T14:04:14Z</time>
      </trkpt>
      <trkpt lat="60.30805" lon="7.68354">
        <ele>1316.66</ele>
        <time>2019-04-03T14:04:16Z</time>
      </trkpt>
      <trkpt lat="60.30803" lon="7.68365">
        <ele>1315.22</ele>
        <time>2019-04-03T14:04:19Z</time>
      </trkpt>
      <trkpt lat="60.30803" lon="7.68382">
        <ele>1315.22</ele>
        <time>2019-04-03T14:04:24Z</time>
      </trkpt>
      <trkpt lat="60.30801" lon="7.68395">
        <ele>1315.22</ele>
        <time>2019-04-03T14:04:30Z</time>
      </trkpt>
      <trkpt lat="60.30796" lon="7.68411">
        <ele>1316.18</ele>
        <time>2019-04-03T14:04:37Z</time>
      </trkpt>
      <trkpt lat="60.30795" lon="7.68413">
        <ele>1316.66</ele>
        <time>2019-04-03T14:04:43Z</time>
      </trkpt>
      <trkpt lat="60.30811" lon="7.68381">
        <ele>1316.66</ele>
        <time>2019-04-03T14:04:49Z</time>
      </trkpt>
      <trkpt lat="60.30824" lon="7.68368">
        <ele>1316.66</ele>
        <time>2019-04-03T14:04:53Z</time>
      </trkpt>
      <trkpt lat="60.30847" lon="7.68369">
        <ele>1317.14</ele>
        <time>2019-04-03T14:04:58Z</time>
      </trkpt>
      <trkpt lat="60.30864" lon="7.68385">
        <ele>1315.7</ele>
        <time>2019-04-03T14:05:02Z</time>
      </trkpt>
      <trkpt lat="60.30868" lon="7.6839">
        <ele>1315.7</ele>
        <time>2019-04-03T14:05:03Z</time>
      </trkpt>
      <trkpt lat="60.30892" lon="7.68423">
        <ele>1312.82</ele>
        <time>2019-04-03T14:05:14Z</time>
      </trkpt>
      <trkpt lat="60.30893" lon="7.68423">
        <ele>1312.82</ele>
        <time>2019-04-03T14:05:16Z</time>
      </trkpt>
      <trkpt lat="60.30884" lon="7.68434">
        <ele>1311.86</ele>
        <time>2019-04-03T14:05:22Z</time>
      </trkpt>
      <trkpt lat="60.30878" lon="7.68439">
        <ele>1313.3</ele>
        <time>2019-04-03T14:05:25Z</time>
      </trkpt>
      <trkpt lat="60.30869" lon="7.68449">
        <ele>1313.3</ele>
        <time>2019-04-03T14:05:28Z</time>
      </trkpt>
      <trkpt lat="60.30863" lon="7.68466">
        <ele>1311.38</ele>
        <time>2019-04-03T14:05:31Z</time>
      </trkpt>
      <trkpt lat="60.30853" lon="7.68501">
        <ele>1312.34</ele>
        <time>2019-04-03T14:05:37Z</time>
      </trkpt>
      <trkpt lat="60.30846" lon="7.68532">
        <ele>1310.9</ele>
        <time>2019-04-03T14:05:45Z</time>
      </trkpt>
      <trkpt lat="60.30845" lon="7.68536">
        <ele>1312.34</ele>
        <time>2019-04-03T14:05:47Z</time>
      </trkpt>
      <trkpt lat="60.30843" lon="7.68551">
        <ele>1310.41</ele>
        <time>2019-04-03T14:05:51Z</time>
      </trkpt>
      <trkpt lat="60.30842" lon="7.68554">
        <ele>1310.41</ele>
        <time>2019-04-03T14:05:52Z</time>
      </trkpt>
      <trkpt lat="60.3084" lon="7.68556">
        <ele>1312.34</ele>
        <time>2019-04-03T14:05:55Z</time>
      </trkpt>
      <trkpt lat="60.30854" lon="7.68547">
        <ele>1313.3</ele>
        <time>2019-04-03T14:06:00Z</time>
      </trkpt>
      <trkpt lat="60.30876" lon="7.68551">
        <ele>1312.34</ele>
        <time>2019-04-03T14:06:06Z</time>
      </trkpt>
      <trkpt lat="60.30897" lon="7.68568">
        <ele>1310.9</ele>
        <time>2019-04-03T14:06:16Z</time>
      </trkpt>
      <trkpt lat="60.30898" lon="7.68569">
        <ele>1310.9</ele>
        <time>2019-04-03T14:06:21Z</time>
      </trkpt>
      <trkpt lat="60.30903" lon="7.68569">
        <ele>1310.9</ele>
        <time>2019-04-03T14:06:25Z</time>
      </trkpt>
      <trkpt lat="60.30909" lon="7.68574">
        <ele>1310.9</ele>
        <time>2019-04-03T14:06:35Z</time>
      </trkpt>
      <trkpt lat="60.309" lon="7.6858">
        <ele>1310.41</ele>
        <time>2019-04-03T14:06:39Z</time>
      </trkpt>
      <trkpt lat="60.30883" lon="7.686">
        <ele>1310.9</ele>
        <time>2019-04-03T14:06:48Z</time>
      </trkpt>
      <trkpt lat="60.30877" lon="7.68615">
        <ele>1310.9</ele>
        <time>2019-04-03T14:06:52Z</time>
      </trkpt>
      <trkpt lat="60.30889" lon="7.68606">
        <ele>1312.34</ele>
        <time>2019-04-03T14:06:58Z</time>
      </trkpt>
      <trkpt lat="60.30893" lon="7.68607">
        <ele>1312.34</ele>
        <time>2019-04-03T14:06:59Z</time>
      </trkpt>
      <trkpt lat="60.30921" lon="7.68615">
        <ele>1312.34</ele>
        <time>2019-04-03T14:07:10Z</time>
      </trkpt>
      <trkpt lat="60.30922" lon="7.68616">
        <ele>1310.9</ele>
        <time>2019-04-03T14:07:12Z</time>
      </trkpt>
      <trkpt lat="60.30921" lon="7.68617">
        <ele>1310.9</ele>
        <time>2019-04-03T14:07:18Z</time>
      </trkpt>
      <trkpt lat="60.30938" lon="7.68624">
        <ele>1310.9</ele>
        <time>2019-04-03T14:07:26Z</time>
      </trkpt>
      <trkpt lat="60.3094" lon="7.68625">
        <ele>1310.41</ele>
        <time>2019-04-03T14:07:27Z</time>
      </trkpt>
      <trkpt lat="60.30953" lon="7.68618">
        <ele>1311.38</ele>
        <time>2019-04-03T14:07:32Z</time>
      </trkpt>
      <trkpt lat="60.30989" lon="7.68636">
        <ele>1309.93</ele>
        <time>2019-04-03T14:07:43Z</time>
      </trkpt>
      <trkpt lat="60.30993" lon="7.68636">
        <ele>1309.45</ele>
        <time>2019-04-03T14:07:46Z</time>
      </trkpt>
      <trkpt lat="60.31001" lon="7.68645">
        <ele>1308.97</ele>
        <time>2019-04-03T14:07:54Z</time>
      </trkpt>
      <trkpt lat="60.30994" lon="7.68646">
        <ele>1308.49</ele>
        <time>2019-04-03T14:07:58Z</time>
      </trkpt>
      <trkpt lat="60.30982" lon="7.68673">
        <ele>1308.97</ele>
        <time>2019-04-03T14:08:04Z</time>
      </trkpt>
      <trkpt lat="60.30971" lon="7.68684">
        <ele>1309.45</ele>
        <time>2019-04-03T14:08:09Z</time>
      </trkpt>
      <trkpt lat="60.30964" lon="7.68696">
        <ele>1308.01</ele>
        <time>2019-04-03T14:08:12Z</time>
      </trkpt>
      <trkpt lat="60.30956" lon="7.68709">
        <ele>1309.45</ele>
        <time>2019-04-03T14:08:16Z</time>
      </trkpt>
      <trkpt lat="60.30953" lon="7.68725">
        <ele>1309.93</ele>
        <time>2019-04-03T14:08:20Z</time>
      </trkpt>
      <trkpt lat="60.30942" lon="7.68735">
        <ele>1309.93</ele>
        <time>2019-04-03T14:08:27Z</time>
      </trkpt>
      <trkpt lat="60.30941" lon="7.68733">
        <ele>1310.41</ele>
        <time>2019-04-03T14:08:29Z</time>
      </trkpt>
      <trkpt lat="60.30955" lon="7.68733">
        <ele>1310.9</ele>
        <time>2019-04-03T14:08:37Z</time>
      </trkpt>
      <trkpt lat="60.30955" lon="7.68735">
        <ele>1310.9</ele>
        <time>2019-04-03T14:08:46Z</time>
      </trkpt>
      <trkpt lat="60.30956" lon="7.68735">
        <ele>1309.45</ele>
        <time>2019-04-03T14:08:55Z</time>
      </trkpt>
      <trkpt lat="60.30956" lon="7.68735">
        <ele>1309.45</ele>
        <time>2019-04-03T14:08:59Z</time>
      </trkpt>
      <trkpt lat="60.3097" lon="7.68737">
        <ele>1309.45</ele>
        <time>2019-04-03T14:09:07Z</time>
      </trkpt>
      <trkpt lat="60.30974" lon="7.68738">
        <ele>1309.45</ele>
        <time>2019-04-03T14:09:16Z</time>
      </trkpt>
      <trkpt lat="60.30979" lon="7.6874">
        <ele>1309.45</ele>
        <time>2019-04-03T14:09:23Z</time>
      </trkpt>
      <trkpt lat="60.30972" lon="7.68747">
        <ele>1308.49</ele>
        <time>2019-04-03T14:09:27Z</time>
      </trkpt>
      <trkpt lat="60.30965" lon="7.68782">
        <ele>1309.45</ele>
        <time>2019-04-03T14:09:36Z</time>
      </trkpt>
      <trkpt lat="60.30966" lon="7.68781">
        <ele>1309.93</ele>
        <time>2019-04-03T14:09:38Z</time>
      </trkpt>
      <trkpt lat="60.30973" lon="7.68773">
        <ele>1309.93</ele>
        <time>2019-04-03T14:09:42Z</time>
      </trkpt>
      <trkpt lat="60.30998" lon="7.68779">
        <ele>1309.93</ele>
        <time>2019-04-03T14:09:52Z</time>
      </trkpt>
      <trkpt lat="60.31002" lon="7.6878">
        <ele>1308.97</ele>
        <time>2019-04-03T14:10:01Z</time>
      </trkpt>
      <trkpt lat="60.31003" lon="7.68782">
        <ele>1308.97</ele>
        <time>2019-04-03T14:10:12Z</time>
      </trkpt>
      <trkpt lat="60.31003" lon="7.68783">
        <ele>1308.97</ele>
        <time>2019-04-03T14:10:17Z</time>
      </trkpt>
      <trkpt lat="60.3102" lon="7.68781">
        <ele>1308.97</ele>
        <time>2019-04-03T14:10:26Z</time>
      </trkpt>
      <trkpt lat="60.31026" lon="7.68787">
        <ele>1308.97</ele>
        <time>2019-04-03T14:10:33Z</time>
      </trkpt>
      <trkpt lat="60.31026" lon="7.68786">
        <ele>1308.97</ele>
        <time>2019-04-03T14:10:35Z</time>
      </trkpt>
      <trkpt lat="60.31013" lon="7.68797">
        <ele>1308.97</ele>
        <time>2019-04-03T14:10:42Z</time>
      </trkpt>
      <trkpt lat="60.31011" lon="7.68797">
        <ele>1308.97</ele>
        <time>2019-04-03T14:10:43Z</time>
      </trkpt>
      <trkpt lat="60.30993" lon="7.68824">
        <ele>1308.97</ele>
        <time>2019-04-03T14:10:52Z</time>
      </trkpt>
      <trkpt lat="60.30992" lon="7.68827">
        <ele>1308.97</ele>
        <time>2019-04-03T14:10:53Z</time>
      </trkpt>
      <trkpt lat="60.30981" lon="7.68839">
        <ele>1309.45</ele>
        <time>2019-04-03T14:11:00Z</time>
      </trkpt>
      <trkpt lat="60.30973" lon="7.68855">
        <ele>1310.41</ele>
        <time>2019-04-03T14:11:08Z</time>
      </trkpt>
      <trkpt lat="60.30987" lon="7.68842">
        <ele>1310.9</ele>
        <time>2019-04-03T14:11:14Z</time>
      </trkpt>
      <trkpt lat="60.3102" lon="7.68839">
        <ele>1309.45</ele>
        <time>2019-04-03T14:11:24Z</time>
      </trkpt>
      <trkpt lat="60.31023" lon="7.68839">
        <ele>1309.45</ele>
        <time>2019-04-03T14:11:25Z</time>
      </trkpt>
      <trkpt lat="60.31038" lon="7.68845">
        <ele>1308.97</ele>
        <time>2019-04-03T14:11:32Z</time>
      </trkpt>
      <trkpt lat="60.31037" lon="7.68848">
        <ele>1308.49</ele>
        <time>2019-04-03T14:11:44Z</time>
      </trkpt>
      <trkpt lat="60.31046" lon="7.68847">
        <ele>1308.49</ele>
        <time>2019-04-03T14:11:52Z</time>
      </trkpt>
      <trkpt lat="60.31044" lon="7.68846">
        <ele>1308.49</ele>
        <time>2019-04-03T14:11:54Z</time>
      </trkpt>
      <trkpt lat="60.31029" lon="7.68858">
        <ele>1308.01</ele>
        <time>2019-04-03T14:12:02Z</time>
      </trkpt>
      <trkpt lat="60.31027" lon="7.68858">
        <ele>1307.53</ele>
        <time>2019-04-03T14:12:04Z</time>
      </trkpt>
      <trkpt lat="60.31017" lon="7.68874">
        <ele>1308.49</ele>
        <time>2019-04-03T14:12:11Z</time>
      </trkpt>
      <trkpt lat="60.3101" lon="7.68878">
        <ele>1309.45</ele>
        <time>2019-04-03T14:12:21Z</time>
      </trkpt>
      <trkpt lat="60.31" lon="7.68879">
        <ele>1309.45</ele>
        <time>2019-04-03T14:12:27Z</time>
      </trkpt>
      <trkpt lat="60.31006" lon="7.68876">
        <ele>1309.93</ele>
        <time>2019-04-03T14:12:33Z</time>
      </trkpt>
      <trkpt lat="60.31017" lon="7.68885">
        <ele>1309.93</ele>
        <time>2019-04-03T14:12:39Z</time>
      </trkpt>
      <trkpt lat="60.31017" lon="7.68886">
        <ele>1309.93</ele>
        <time>2019-04-03T14:12:41Z</time>
      </trkpt>
      <trkpt lat="60.31031" lon="7.68886">
        <ele>1309.93</ele>
        <time>2019-04-03T14:12:48Z</time>
      </trkpt>
      <trkpt lat="60.31035" lon="7.6889">
        <ele>1308.97</ele>
        <time>2019-04-03T14:12:57Z</time>
      </trkpt>
      <trkpt lat="60.31038" lon="7.68893">
        <ele>1308.97</ele>
        <time>2019-04-03T14:13:08Z</time>
      </trkpt>
      <trkpt lat="60.31039" lon="7.68892">
        <ele>1308.97</ele>
        <time>2019-04-03T14:13:10Z</time>
      </trkpt>
      <trkpt lat="60.31048" lon="7.68892">
        <ele>1308.97</ele>
        <time>2019-04-03T14:13:16Z</time>
      </trkpt>
      <trkpt lat="60.31048" lon="7.68891">
        <ele>1308.97</ele>
        <time>2019-04-03T14:13:17Z</time>
      </trkpt>
      <trkpt lat="60.31066" lon="7.68888">
        <ele>1308.97</ele>
        <time>2019-04-03T14:13:25Z</time>
      </trkpt>
      <trkpt lat="60.31069" lon="7.68888">
        <ele>1308.97</ele>
        <time>2019-04-03T14:13:28Z</time>
      </trkpt>
      <trkpt lat="60.3109" lon="7.68892">
        <ele>1308.97</ele>
        <time>2019-04-03T14:13:38Z</time>
      </trkpt>
      <trkpt lat="60.31093" lon="7.68897">
        <ele>1308.49</ele>
        <time>2019-04-03T14:13:46Z</time>
      </trkpt>
      <trkpt lat="60.31092" lon="7.68896">
        <ele>1308.49</ele>
        <time>2019-04-03T14:13:48Z</time>
      </trkpt>
      <trkpt lat="60.31082" lon="7.68913">
        <ele>1307.05</ele>
        <time>2019-04-03T14:13:55Z</time>
      </trkpt>
      <trkpt lat="60.3108" lon="7.68914">
        <ele>1308.49</ele>
        <time>2019-04-03T14:13:57Z</time>
      </trkpt>
      <trkpt lat="60.31074" lon="7.6892">
        <ele>1307.05</ele>
        <time>2019-04-03T14:14:01Z</time>
      </trkpt>
      <trkpt lat="60.31072" lon="7.68923">
        <ele>1307.05</ele>
        <time>2019-04-03T14:14:02Z</time>
      </trkpt>
      <trkpt lat="60.31069" lon="7.68924">
        <ele>1308.49</ele>
        <time>2019-04-03T14:14:04Z</time>
      </trkpt>
      <trkpt lat="60.31053" lon="7.68945">
        <ele>1307.53</ele>
        <time>2019-04-03T14:14:11Z</time>
      </trkpt>
      <trkpt lat="60.31052" lon="7.6895">
        <ele>1307.53</ele>
        <time>2019-04-03T14:14:12Z</time>
      </trkpt>
      <trkpt lat="60.31049" lon="7.68957">
        <ele>1308.97</ele>
        <time>2019-04-03T14:14:16Z</time>
      </trkpt>
      <trkpt lat="60.31042" lon="7.68968">
        <ele>1309.45</ele>
        <time>2019-04-03T14:14:25Z</time>
      </trkpt>
      <trkpt lat="60.31054" lon="7.6896">
        <ele>1309.45</ele>
        <time>2019-04-03T14:14:30Z</time>
      </trkpt>
      <trkpt lat="60.31091" lon="7.68975">
        <ele>1308.97</ele>
        <time>2019-04-03T14:14:42Z</time>
      </trkpt>
      <trkpt lat="60.311" lon="7.68981">
        <ele>1308.01</ele>
        <time>2019-04-03T14:14:51Z</time>
      </trkpt>
      <trkpt lat="60.31104" lon="7.68985">
        <ele>1308.01</ele>
        <time>2019-04-03T14:14:56Z</time>
      </trkpt>
      <trkpt lat="60.31116" lon="7.68982">
        <ele>1308.01</ele>
        <time>2019-04-03T14:15:01Z</time>
      </trkpt>
      <trkpt lat="60.31122" lon="7.68984">
        <ele>1308.01</ele>
        <time>2019-04-03T14:15:03Z</time>
      </trkpt>
      <trkpt lat="60.31156" lon="7.69019">
        <ele>1306.09</ele>
        <time>2019-04-03T14:15:14Z</time>
      </trkpt>
      <trkpt lat="60.31157" lon="7.69021">
        <ele>1305.13</ele>
        <time>2019-04-03T14:15:22Z</time>
      </trkpt>
      <trkpt lat="60.31157" lon="7.6902">
        <ele>1305.13</ele>
        <time>2019-04-03T14:15:24Z</time>
      </trkpt>
      <trkpt lat="60.31143" lon="7.69025">
        <ele>1306.09</ele>
        <time>2019-04-03T14:15:31Z</time>
      </trkpt>
      <trkpt lat="60.31127" lon="7.69031">
        <ele>1306.57</ele>
        <time>2019-04-03T14:15:39Z</time>
      </trkpt>
      <trkpt lat="60.31109" lon="7.69043">
        <ele>1307.05</ele>
        <time>2019-04-03T14:15:47Z</time>
      </trkpt>
      <trkpt lat="60.31108" lon="7.69045">
        <ele>1307.53</ele>
        <time>2019-04-03T14:15:50Z</time>
      </trkpt>
      <trkpt lat="60.3109" lon="7.69051">
        <ele>1307.53</ele>
        <time>2019-04-03T14:15:58Z</time>
      </trkpt>
      <trkpt lat="60.31082" lon="7.69067">
        <ele>1308.49</ele>
        <time>2019-04-03T14:16:02Z</time>
      </trkpt>
      <trkpt lat="60.3108" lon="7.6907">
        <ele>1308.49</ele>
        <time>2019-04-03T14:16:05Z</time>
      </trkpt>
      <trkpt lat="60.31074" lon="7.69072">
        <ele>1309.45</ele>
        <time>2019-04-03T14:16:10Z</time>
      </trkpt>
      <trkpt lat="60.3107" lon="7.69079">
        <ele>1309.45</ele>
        <time>2019-04-03T14:16:13Z</time>
      </trkpt>
      <trkpt lat="60.31078" lon="7.69071">
        <ele>1309.93</ele>
        <time>2019-04-03T14:16:19Z</time>
      </trkpt>
      <trkpt lat="60.31083" lon="7.69073">
        <ele>1309.93</ele>
        <time>2019-04-03T14:16:20Z</time>
      </trkpt>
      <trkpt lat="60.31135" lon="7.69099">
        <ele>1307.53</ele>
        <time>2019-04-03T14:16:33Z</time>
      </trkpt>
      <trkpt lat="60.3117" lon="7.69125">
        <ele>1306.09</ele>
        <time>2019-04-03T14:16:44Z</time>
      </trkpt>
      <trkpt lat="60.31181" lon="7.69131">
        <ele>1305.13</ele>
        <time>2019-04-03T14:16:52Z</time>
      </trkpt>
      <trkpt lat="60.31192" lon="7.6913">
        <ele>1305.13</ele>
        <time>2019-04-03T14:16:56Z</time>
      </trkpt>
      <trkpt lat="60.31242" lon="7.69172">
        <ele>1302.24</ele>
        <time>2019-04-03T14:17:07Z</time>
      </trkpt>
      <trkpt lat="60.31253" lon="7.69189">
        <ele>1300.8</ele>
        <time>2019-04-03T14:17:14Z</time>
      </trkpt>
      <trkpt lat="60.31253" lon="7.6919">
        <ele>1300.8</ele>
        <time>2019-04-03T14:17:15Z</time>
      </trkpt>
      <trkpt lat="60.31257" lon="7.69196">
        <ele>1300.32</ele>
        <time>2019-04-03T14:17:24Z</time>
      </trkpt>
      <trkpt lat="60.31257" lon="7.69196">
        <ele>1300.32</ele>
        <time>2019-04-03T14:17:27Z</time>
      </trkpt>
      <trkpt lat="60.31247" lon="7.69197">
        <ele>1300.32</ele>
        <time>2019-04-03T14:17:32Z</time>
      </trkpt>
      <trkpt lat="60.31244" lon="7.69202">
        <ele>1299.84</ele>
        <time>2019-04-03T14:17:34Z</time>
      </trkpt>
      <trkpt lat="60.31231" lon="7.69204">
        <ele>1301.28</ele>
        <time>2019-04-03T14:17:41Z</time>
      </trkpt>
      <trkpt lat="60.31226" lon="7.69204">
        <ele>1302.24</ele>
        <time>2019-04-03T14:17:45Z</time>
      </trkpt>
      <trkpt lat="60.31212" lon="7.69209">
        <ele>1303.2</ele>
        <time>2019-04-03T14:17:54Z</time>
      </trkpt>
      <trkpt lat="60.31209" lon="7.69209">
        <ele>1303.2</ele>
        <time>2019-04-03T14:17:56Z</time>
      </trkpt>
      <trkpt lat="60.31202" lon="7.69215">
        <ele>1304.17</ele>
        <time>2019-04-03T14:18:00Z</time>
      </trkpt>
      <trkpt lat="60.3119" lon="7.6922">
        <ele>1304.65</ele>
        <time>2019-04-03T14:18:06Z</time>
      </trkpt>
      <trkpt lat="60.31182" lon="7.69234">
        <ele>1306.09</ele>
        <time>2019-04-03T14:18:12Z</time>
      </trkpt>
      <trkpt lat="60.31181" lon="7.69232">
        <ele>1306.09</ele>
        <time>2019-04-03T14:18:14Z</time>
      </trkpt>
      <trkpt lat="60.31192" lon="7.69238">
        <ele>1306.57</ele>
        <time>2019-04-03T14:18:20Z</time>
      </trkpt>
      <trkpt lat="60.31209" lon="7.69257">
        <ele>1304.65</ele>
        <time>2019-04-03T14:18:29Z</time>
      </trkpt>
      <trkpt lat="60.31236" lon="7.69287">
        <ele>1302.72</ele>
        <time>2019-04-03T14:18:39Z</time>
      </trkpt>
      <trkpt lat="60.31261" lon="7.69318">
        <ele>1300.8</ele>
        <time>2019-04-03T14:18:49Z</time>
      </trkpt>
      <trkpt lat="60.31275" lon="7.69339">
        <ele>1299.84</ele>
        <time>2019-04-03T14:18:58Z</time>
      </trkpt>
      <trkpt lat="60.3128" lon="7.69349">
        <ele>1298.4</ele>
        <time>2019-04-03T14:19:07Z</time>
      </trkpt>
      <trkpt lat="60.31283" lon="7.69355">
        <ele>1298.88</ele>
        <time>2019-04-03T14:19:14Z</time>
      </trkpt>
      <trkpt lat="60.31285" lon="7.69357">
        <ele>1298.4</ele>
        <time>2019-04-03T14:19:21Z</time>
      </trkpt>
      <trkpt lat="60.31287" lon="7.69355">
        <ele>1298.88</ele>
        <time>2019-04-03T14:19:24Z</time>
      </trkpt>
      <trkpt lat="60.31303" lon="7.69359">
        <ele>1298.88</ele>
        <time>2019-04-03T14:19:31Z</time>
      </trkpt>
      <trkpt lat="60.31311" lon="7.69361">
        <ele>1297.44</ele>
        <time>2019-04-03T14:19:40Z</time>
      </trkpt>
      <trkpt lat="60.31308" lon="7.69362">
        <ele>1296.96</ele>
        <time>2019-04-03T14:19:50Z</time>
      </trkpt>
      <trkpt lat="60.31307" lon="7.69366">
        <ele>1296.48</ele>
        <time>2019-04-03T14:20:01Z</time>
      </trkpt>
      <trkpt lat="60.31307" lon="7.69367">
        <ele>1296.48</ele>
        <time>2019-04-03T14:20:10Z</time>
      </trkpt>
      <trkpt lat="60.31305" lon="7.69378">
        <ele>1296.48</ele>
        <time>2019-04-03T14:20:20Z</time>
      </trkpt>
      <trkpt lat="60.31305" lon="7.69379">
        <ele>1296.48</ele>
        <time>2019-04-03T14:20:22Z</time>
      </trkpt>
      <trkpt lat="60.31301" lon="7.69387">
        <ele>1296.48</ele>
        <time>2019-04-03T14:20:31Z</time>
      </trkpt>
      <trkpt lat="60.31317" lon="7.69379">
        <ele>1297.92</ele>
        <time>2019-04-03T14:20:37Z</time>
      </trkpt>
      <trkpt lat="60.31327" lon="7.69387">
        <ele>1296.48</ele>
        <time>2019-04-03T14:20:43Z</time>
      </trkpt>
      <trkpt lat="60.31327" lon="7.69386">
        <ele>1296.48</ele>
        <time>2019-04-03T14:20:44Z</time>
      </trkpt>
      <trkpt lat="60.31329" lon="7.69385">
        <ele>1296.48</ele>
        <time>2019-04-03T14:20:47Z</time>
      </trkpt>
      <trkpt lat="60.31336" lon="7.69384">
        <ele>1296.48</ele>
        <time>2019-04-03T14:20:54Z</time>
      </trkpt>
      <trkpt lat="60.31345" lon="7.69379">
        <ele>1296.48</ele>
        <time>2019-04-03T14:21:01Z</time>
      </trkpt>
      <trkpt lat="60.31344" lon="7.6938">
        <ele>1296.48</ele>
        <time>2019-04-03T14:21:07Z</time>
      </trkpt>
      <trkpt lat="60.31332" lon="7.6939">
        <ele>1295.03</ele>
        <time>2019-04-03T14:21:11Z</time>
      </trkpt>
      <trkpt lat="60.31323" lon="7.69408">
        <ele>1295.03</ele>
        <time>2019-04-03T14:21:14Z</time>
      </trkpt>
      <trkpt lat="60.31308" lon="7.69436">
        <ele>1295.03</ele>
        <time>2019-04-03T14:21:21Z</time>
      </trkpt>
      <trkpt lat="60.3129" lon="7.69471">
        <ele>1295.03</ele>
        <time>2019-04-03T14:21:28Z</time>
      </trkpt>
      <trkpt lat="60.31285" lon="7.69476">
        <ele>1295.99</ele>
        <time>2019-04-03T14:21:30Z</time>
      </trkpt>
      <trkpt lat="60.31273" lon="7.69485">
        <ele>1295.99</ele>
        <time>2019-04-03T14:21:35Z</time>
      </trkpt>
      <trkpt lat="60.31262" lon="7.6949">
        <ele>1297.92</ele>
        <time>2019-04-03T14:21:41Z</time>
      </trkpt>
      <trkpt lat="60.31272" lon="7.69483">
        <ele>1298.4</ele>
        <time>2019-04-03T14:21:46Z</time>
      </trkpt>
      <trkpt lat="60.31286" lon="7.6949">
        <ele>1296.96</ele>
        <time>2019-04-03T14:21:50Z</time>
      </trkpt>
      <trkpt lat="60.31304" lon="7.69483">
        <ele>1295.99</ele>
        <time>2019-04-03T14:21:57Z</time>
      </trkpt>
      <trkpt lat="60.31321" lon="7.69489">
        <ele>1295.51</ele>
        <time>2019-04-03T14:22:03Z</time>
      </trkpt>
      <trkpt lat="60.31344" lon="7.69485">
        <ele>1295.03</ele>
        <time>2019-04-03T14:22:10Z</time>
      </trkpt>
      <trkpt lat="60.31347" lon="7.69486">
        <ele>1296.48</ele>
        <time>2019-04-03T14:22:11Z</time>
      </trkpt>
      <trkpt lat="60.31353" lon="7.69489">
        <ele>1296.48</ele>
        <time>2019-04-03T14:22:16Z</time>
      </trkpt>
      <trkpt lat="60.31356" lon="7.69487">
        <ele>1295.03</ele>
        <time>2019-04-03T14:22:18Z</time>
      </trkpt>
      <trkpt lat="60.31365" lon="7.69488">
        <ele>1295.03</ele>
        <time>2019-04-03T14:22:26Z</time>
      </trkpt>
      <trkpt lat="60.31365" lon="7.69489">
        <ele>1295.03</ele>
        <time>2019-04-03T14:22:31Z</time>
      </trkpt>
      <trkpt lat="60.31355" lon="7.69503">
        <ele>1294.07</ele>
        <time>2019-04-03T14:22:37Z</time>
      </trkpt>
      <trkpt lat="60.3134" lon="7.69522">
        <ele>1292.63</ele>
        <time>2019-04-03T14:22:42Z</time>
      </trkpt>
      <trkpt lat="60.3133" lon="7.69542">
        <ele>1294.07</ele>
        <time>2019-04-03T14:22:49Z</time>
      </trkpt>
      <trkpt lat="60.31329" lon="7.69541">
        <ele>1294.07</ele>
        <time>2019-04-03T14:22:50Z</time>
      </trkpt>
      <trkpt lat="60.31319" lon="7.6956">
        <ele>1294.07</ele>
        <time>2019-04-03T14:22:56Z</time>
      </trkpt>
      <trkpt lat="60.31317" lon="7.69568">
        <ele>1294.07</ele>
        <time>2019-04-03T14:23:02Z</time>
      </trkpt>
      <trkpt lat="60.31319" lon="7.69565">
        <ele>1294.07</ele>
        <time>2019-04-03T14:23:04Z</time>
      </trkpt>
      <trkpt lat="60.31331" lon="7.69563">
        <ele>1294.55</ele>
        <time>2019-04-03T14:23:10Z</time>
      </trkpt>
      <trkpt lat="60.31347" lon="7.69562">
        <ele>1294.55</ele>
        <time>2019-04-03T14:23:17Z</time>
      </trkpt>
      <trkpt lat="60.31357" lon="7.69561">
        <ele>1294.55</ele>
        <time>2019-04-03T14:23:24Z</time>
      </trkpt>
      <trkpt lat="60.3136" lon="7.69563">
        <ele>1294.55</ele>
        <time>2019-04-03T14:23:34Z</time>
      </trkpt>
      <trkpt lat="60.31363" lon="7.69563">
        <ele>1294.07</ele>
        <time>2019-04-03T14:23:43Z</time>
      </trkpt>
      <trkpt lat="60.31362" lon="7.69563">
        <ele>1294.55</ele>
        <time>2019-04-03T14:23:45Z</time>
      </trkpt>
      <trkpt lat="60.31355" lon="7.69569">
        <ele>1293.11</ele>
        <time>2019-04-03T14:23:48Z</time>
      </trkpt>
      <trkpt lat="60.31352" lon="7.69576">
        <ele>1293.11</ele>
        <time>2019-04-03T14:23:50Z</time>
      </trkpt>
      <trkpt lat="60.31341" lon="7.69587">
        <ele>1292.63</ele>
        <time>2019-04-03T14:23:56Z</time>
      </trkpt>
      <trkpt lat="60.31336" lon="7.69597">
        <ele>1292.63</ele>
        <time>2019-04-03T14:24:03Z</time>
      </trkpt>
      <trkpt lat="60.31351" lon="7.6959">
        <ele>1292.63</ele>
        <time>2019-04-03T14:24:10Z</time>
      </trkpt>
      <trkpt lat="60.31361" lon="7.69583">
        <ele>1294.07</ele>
        <time>2019-04-03T14:24:15Z</time>
      </trkpt>
      <trkpt lat="60.31364" lon="7.6958">
        <ele>1294.07</ele>
        <time>2019-04-03T14:24:18Z</time>
      </trkpt>
      <trkpt lat="60.31381" lon="7.6957">
        <ele>1294.55</ele>
        <time>2019-04-03T14:24:26Z</time>
      </trkpt>
      <trkpt lat="60.31388" lon="7.69571">
        <ele>1294.55</ele>
        <time>2019-04-03T14:24:35Z</time>
      </trkpt>
      <trkpt lat="60.31393" lon="7.6957">
        <ele>1294.55</ele>
        <time>2019-04-03T14:24:47Z</time>
      </trkpt>
      <trkpt lat="60.31394" lon="7.6957">
        <ele>1294.55</ele>
        <time>2019-04-03T14:24:48Z</time>
      </trkpt>
      <trkpt lat="60.31401" lon="7.69566">
        <ele>1294.55</ele>
        <time>2019-04-03T14:24:53Z</time>
      </trkpt>
      <trkpt lat="60.31404" lon="7.69567">
        <ele>1294.55</ele>
        <time>2019-04-03T14:25:00Z</time>
      </trkpt>
      <trkpt lat="60.31396" lon="7.6957">
        <ele>1294.55</ele>
        <time>2019-04-03T14:25:04Z</time>
      </trkpt>
      <trkpt lat="60.31375" lon="7.69615">
        <ele>1293.11</ele>
        <time>2019-04-03T14:25:14Z</time>
      </trkpt>
      <trkpt lat="60.31366" lon="7.69675">
        <ele>1291.67</ele>
        <time>2019-04-03T14:25:25Z</time>
      </trkpt>
      <trkpt lat="60.31367" lon="7.69677">
        <ele>1292.63</ele>
        <time>2019-04-03T14:25:31Z</time>
      </trkpt>
      <trkpt lat="60.31381" lon="7.69668">
        <ele>1292.63</ele>
        <time>2019-04-03T14:25:38Z</time>
      </trkpt>
      <trkpt lat="60.31381" lon="7.69668">
        <ele>1292.63</ele>
        <time>2019-04-03T14:25:39Z</time>
      </trkpt>
      <trkpt lat="60.31386" lon="7.69665">
        <ele>1292.63</ele>
        <time>2019-04-03T14:25:47Z</time>
      </trkpt>
      <trkpt lat="60.31386" lon="7.69664">
        <ele>1292.63</ele>
        <time>2019-04-03T14:25:48Z</time>
      </trkpt>
      <trkpt lat="60.31387" lon="7.69661">
        <ele>1292.63</ele>
        <time>2019-04-03T14:25:50Z</time>
      </trkpt>
      <trkpt lat="60.31395" lon="7.69657">
        <ele>1293.59</ele>
        <time>2019-04-03T14:25:58Z</time>
      </trkpt>
      <trkpt lat="60.31396" lon="7.69658">
        <ele>1293.59</ele>
        <time>2019-04-03T14:25:59Z</time>
      </trkpt>
      <trkpt lat="60.31403" lon="7.69652">
        <ele>1293.11</ele>
        <time>2019-04-03T14:26:03Z</time>
      </trkpt>
      <trkpt lat="60.31407" lon="7.69651">
        <ele>1293.11</ele>
        <time>2019-04-03T14:26:06Z</time>
      </trkpt>
      <trkpt lat="60.31413" lon="7.69643">
        <ele>1293.11</ele>
        <time>2019-04-03T14:26:13Z</time>
      </trkpt>
      <trkpt lat="60.31423" lon="7.69639">
        <ele>1294.07</ele>
        <time>2019-04-03T14:26:19Z</time>
      </trkpt>
      <trkpt lat="60.31426" lon="7.69633">
        <ele>1293.59</ele>
        <time>2019-04-03T14:26:21Z</time>
      </trkpt>
      <trkpt lat="60.31443" lon="7.69626">
        <ele>1293.59</ele>
        <time>2019-04-03T14:26:26Z</time>
      </trkpt>
      <trkpt lat="60.31464" lon="7.6963">
        <ele>1293.59</ele>
        <time>2019-04-03T14:26:36Z</time>
      </trkpt>
      <trkpt lat="60.31465" lon="7.69628">
        <ele>1293.59</ele>
        <time>2019-04-03T14:26:47Z</time>
      </trkpt>
      <trkpt lat="60.31465" lon="7.69627">
        <ele>1293.59</ele>
        <time>2019-04-03T14:26:48Z</time>
      </trkpt>
      <trkpt lat="60.3147" lon="7.69626">
        <ele>1293.59</ele>
        <time>2019-04-03T14:26:55Z</time>
      </trkpt>
      <trkpt lat="60.31465" lon="7.69631">
        <ele>1292.63</ele>
        <time>2019-04-03T14:26:57Z</time>
      </trkpt>
      <trkpt lat="60.31459" lon="7.69648">
        <ele>1291.19</ele>
        <time>2019-04-03T14:27:00Z</time>
      </trkpt>
      <trkpt lat="60.31457" lon="7.69714">
        <ele>1289.27</ele>
        <time>2019-04-03T14:27:10Z</time>
      </trkpt>
      <trkpt lat="60.31457" lon="7.69718">
        <ele>1289.27</ele>
        <time>2019-04-03T14:27:11Z</time>
      </trkpt>
      <trkpt lat="60.31456" lon="7.69721">
        <ele>1289.27</ele>
        <time>2019-04-03T14:27:20Z</time>
      </trkpt>
      <trkpt lat="60.31456" lon="7.69721">
        <ele>1290.23</ele>
        <time>2019-04-03T14:27:22Z</time>
      </trkpt>
      <trkpt lat="60.31464" lon="7.69713">
        <ele>1290.23</ele>
        <time>2019-04-03T14:27:27Z</time>
      </trkpt>
      <trkpt lat="60.31469" lon="7.69714">
        <ele>1290.23</ele>
        <time>2019-04-03T14:27:34Z</time>
      </trkpt>
      <trkpt lat="60.31471" lon="7.69712">
        <ele>1290.23</ele>
        <time>2019-04-03T14:27:40Z</time>
      </trkpt>
      <trkpt lat="60.31479" lon="7.69708">
        <ele>1291.19</ele>
        <time>2019-04-03T14:27:47Z</time>
      </trkpt>
      <trkpt lat="60.31479" lon="7.69708">
        <ele>1291.19</ele>
        <time>2019-04-03T14:27:48Z</time>
      </trkpt>
      <trkpt lat="60.31485" lon="7.69705">
        <ele>1291.67</ele>
        <time>2019-04-03T14:27:58Z</time>
      </trkpt>
      <trkpt lat="60.31485" lon="7.69704">
        <ele>1291.67</ele>
        <time>2019-04-03T14:27:59Z</time>
      </trkpt>
      <trkpt lat="60.31486" lon="7.69698">
        <ele>1291.67</ele>
        <time>2019-04-03T14:28:08Z</time>
      </trkpt>
      <trkpt lat="60.31495" lon="7.69701">
        <ele>1292.63</ele>
        <time>2019-04-03T14:28:16Z</time>
      </trkpt>
      <trkpt lat="60.31496" lon="7.69703">
        <ele>1292.63</ele>
        <time>2019-04-03T14:28:18Z</time>
      </trkpt>
      <trkpt lat="60.31497" lon="7.697">
        <ele>1292.15</ele>
        <time>2019-04-03T14:28:23Z</time>
      </trkpt>
      <trkpt lat="60.31505" lon="7.69698">
        <ele>1292.15</ele>
        <time>2019-04-03T14:28:31Z</time>
      </trkpt>
      <trkpt lat="60.31512" lon="7.69693">
        <ele>1292.63</ele>
        <time>2019-04-03T14:28:35Z</time>
      </trkpt>
      <trkpt lat="60.3152" lon="7.69695">
        <ele>1292.63</ele>
        <time>2019-04-03T14:28:44Z</time>
      </trkpt>
      <trkpt lat="60.3152" lon="7.69693">
        <ele>1292.63</ele>
        <time>2019-04-03T14:28:53Z</time>
      </trkpt>
      <trkpt lat="60.3151" lon="7.69706">
        <ele>1292.63</ele>
        <time>2019-04-03T14:29:03Z</time>
      </trkpt>
      <trkpt lat="60.31511" lon="7.69706">
        <ele>1292.63</ele>
        <time>2019-04-03T14:29:05Z</time>
      </trkpt>
      <trkpt lat="60.31524" lon="7.69705">
        <ele>1292.63</ele>
        <time>2019-04-03T14:29:13Z</time>
      </trkpt>
      <trkpt lat="60.31528" lon="7.69707">
        <ele>1293.11</ele>
        <time>2019-04-03T14:29:22Z</time>
      </trkpt>
      <trkpt lat="60.31528" lon="7.69712">
        <ele>1293.11</ele>
        <time>2019-04-03T14:29:33Z</time>
      </trkpt>
      <trkpt lat="60.31529" lon="7.69712">
        <ele>1292.63</ele>
        <time>2019-04-03T14:29:47Z</time>
      </trkpt>
      <trkpt lat="60.31532" lon="7.69712">
        <ele>1292.63</ele>
        <time>2019-04-03T14:30:05Z</time>
      </trkpt>
      <trkpt lat="60.31531" lon="7.69711">
        <ele>1292.63</ele>
        <time>2019-04-03T14:30:20Z</time>
      </trkpt>
      <trkpt lat="60.31534" lon="7.6971">
        <ele>1292.63</ele>
        <time>2019-04-03T14:30:35Z</time>
      </trkpt>
      <trkpt lat="60.31535" lon="7.69712">
        <ele>1292.63</ele>
        <time>2019-04-03T14:31:04Z</time>
      </trkpt>
      <trkpt lat="60.31536" lon="7.6971">
        <ele>1292.63</ele>
        <time>2019-04-03T14:31:22Z</time>
      </trkpt>
      <trkpt lat="60.31536" lon="7.69712">
        <ele>1292.63</ele>
        <time>2019-04-03T14:31:41Z</time>
      </trkpt>
      <trkpt lat="60.31536" lon="7.69711">
        <ele>1292.63</ele>
        <time>2019-04-03T14:32:03Z</time>
      </trkpt>
      <trkpt lat="60.31537" lon="7.69712">
        <ele>1292.15</ele>
        <time>2019-04-03T14:32:21Z</time>
      </trkpt>
      <trkpt lat="60.31537" lon="7.69715">
        <ele>1292.15</ele>
        <time>2019-04-03T14:32:35Z</time>
      </trkpt>
      <trkpt lat="60.31538" lon="7.69713">
        <ele>1292.15</ele>
        <time>2019-04-03T14:32:47Z</time>
      </trkpt>
      <trkpt lat="60.31537" lon="7.69712">
        <ele>1292.15</ele>
        <time>2019-04-03T14:32:50Z</time>
      </trkpt>
      <trkpt lat="60.31526" lon="7.6971">
        <ele>1292.15</ele>
        <time>2019-04-03T14:32:59Z</time>
      </trkpt>
      <trkpt lat="60.31523" lon="7.69708">
        <ele>1292.15</ele>
        <time>2019-04-03T14:33:02Z</time>
      </trkpt>
      <trkpt lat="60.31514" lon="7.697">
        <ele>1292.15</ele>
        <time>2019-04-03T14:33:10Z</time>
      </trkpt>
      <trkpt lat="60.31511" lon="7.69701">
        <ele>1292.15</ele>
        <time>2019-04-03T14:33:13Z</time>
      </trkpt>
      <trkpt lat="60.31508" lon="7.69697">
        <ele>1292.15</ele>
        <time>2019-04-03T14:33:17Z</time>
      </trkpt>
      <trkpt lat="60.31499" lon="7.69695">
        <ele>1292.15</ele>
        <time>2019-04-03T14:33:21Z</time>
      </trkpt>
      <trkpt lat="60.31492" lon="7.69692">
        <ele>1292.15</ele>
        <time>2019-04-03T14:33:25Z</time>
      </trkpt>
      <trkpt lat="60.3148" lon="7.69694">
        <ele>1290.71</ele>
        <time>2019-04-03T14:33:29Z</time>
      </trkpt>
      <trkpt lat="60.31461" lon="7.69684">
        <ele>1290.23</ele>
        <time>2019-04-03T14:33:36Z</time>
      </trkpt>
      <trkpt lat="60.31446" lon="7.69679">
        <ele>1290.23</ele>
        <time>2019-04-03T14:33:44Z</time>
      </trkpt>
      <trkpt lat="60.31445" lon="7.69679">
        <ele>1290.23</ele>
        <time>2019-04-03T14:33:45Z</time>
      </trkpt>
      <trkpt lat="60.31443" lon="7.69677">
        <ele>1290.23</ele>
        <time>2019-04-03T14:33:48Z</time>
      </trkpt>
      <trkpt lat="60.3144" lon="7.69667">
        <ele>1290.23</ele>
        <time>2019-04-03T14:33:54Z</time>
      </trkpt>
      <trkpt lat="60.31437" lon="7.69653">
        <ele>1291.19</ele>
        <time>2019-04-03T14:34:02Z</time>
      </trkpt>
      <trkpt lat="60.31423" lon="7.69655">
        <ele>1291.19</ele>
        <time>2019-04-03T14:34:10Z</time>
      </trkpt>
      <trkpt lat="60.31414" lon="7.69652">
        <ele>1291.67</ele>
        <time>2019-04-03T14:34:15Z</time>
      </trkpt>
      <trkpt lat="60.31411" lon="7.69648">
        <ele>1291.67</ele>
        <time>2019-04-03T14:34:19Z</time>
      </trkpt>
      <trkpt lat="60.31406" lon="7.69643">
        <ele>1292.15</ele>
        <time>2019-04-03T14:34:26Z</time>
      </trkpt>
      <trkpt lat="60.31396" lon="7.69635">
        <ele>1292.63</ele>
        <time>2019-04-03T14:34:35Z</time>
      </trkpt>
      <trkpt lat="60.31396" lon="7.69633">
        <ele>1292.63</ele>
        <time>2019-04-03T14:34:38Z</time>
      </trkpt>
      <trkpt lat="60.31389" lon="7.69626">
        <ele>1292.63</ele>
        <time>2019-04-03T14:34:45Z</time>
      </trkpt>
      <trkpt lat="60.31382" lon="7.6962">
        <ele>1292.63</ele>
        <time>2019-04-03T14:34:52Z</time>
      </trkpt>
      <trkpt lat="60.3138" lon="7.69614">
        <ele>1292.63</ele>
        <time>2019-04-03T14:34:55Z</time>
      </trkpt>
      <trkpt lat="60.31378" lon="7.69593">
        <ele>1292.63</ele>
        <time>2019-04-03T14:35:02Z</time>
      </trkpt>
      <trkpt lat="60.31372" lon="7.69592">
        <ele>1292.63</ele>
        <time>2019-04-03T14:35:06Z</time>
      </trkpt>
      <trkpt lat="60.31363" lon="7.6958">
        <ele>1292.63</ele>
        <time>2019-04-03T14:35:14Z</time>
      </trkpt>
      <trkpt lat="60.31355" lon="7.69574">
        <ele>1292.63</ele>
        <time>2019-04-03T14:35:18Z</time>
      </trkpt>
      <trkpt lat="60.31351" lon="7.69574">
        <ele>1292.63</ele>
        <time>2019-04-03T14:35:20Z</time>
      </trkpt>
      <trkpt lat="60.31336" lon="7.69573">
        <ele>1292.63</ele>
        <time>2019-04-03T14:35:28Z</time>
      </trkpt>
      <trkpt lat="60.31333" lon="7.69565">
        <ele>1292.63</ele>
        <time>2019-04-03T14:35:35Z</time>
      </trkpt>
      <trkpt lat="60.31329" lon="7.69554">
        <ele>1292.63</ele>
        <time>2019-04-03T14:35:42Z</time>
      </trkpt>
      <trkpt lat="60.31326" lon="7.69552">
        <ele>1292.63</ele>
        <time>2019-04-03T14:35:47Z</time>
      </trkpt>
      <trkpt lat="60.31324" lon="7.69541">
        <ele>1292.63</ele>
        <time>2019-04-03T14:35:56Z</time>
      </trkpt>
      <trkpt lat="60.31324" lon="7.69535">
        <ele>1292.63</ele>
        <time>2019-04-03T14:35:59Z</time>
      </trkpt>
      <trkpt lat="60.31326" lon="7.6952">
        <ele>1292.63</ele>
        <time>2019-04-03T14:36:03Z</time>
      </trkpt>
      <trkpt lat="60.31311" lon="7.69524">
        <ele>1292.63</ele>
        <time>2019-04-03T14:36:14Z</time>
      </trkpt>
      <trkpt lat="60.31305" lon="7.69519">
        <ele>1293.11</ele>
        <time>2019-04-03T14:36:19Z</time>
      </trkpt>
      <trkpt lat="60.31298" lon="7.69516">
        <ele>1293.59</ele>
        <time>2019-04-03T14:36:28Z</time>
      </trkpt>
      <trkpt lat="60.31293" lon="7.69511">
        <ele>1293.59</ele>
        <time>2019-04-03T14:36:31Z</time>
      </trkpt>
      <trkpt lat="60.31287" lon="7.69508">
        <ele>1293.59</ele>
        <time>2019-04-03T14:36:37Z</time>
      </trkpt>
      <trkpt lat="60.31287" lon="7.69501">
        <ele>1293.59</ele>
        <time>2019-04-03T14:36:40Z</time>
      </trkpt>
      <trkpt lat="60.31277" lon="7.69487">
        <ele>1294.07</ele>
        <time>2019-04-03T14:36:48Z</time>
      </trkpt>
      <trkpt lat="60.3127" lon="7.69484">
        <ele>1295.03</ele>
        <time>2019-04-03T14:36:53Z</time>
      </trkpt>
      <trkpt lat="60.31267" lon="7.69481">
        <ele>1295.03</ele>
        <time>2019-04-03T14:36:59Z</time>
      </trkpt>
      <trkpt lat="60.31264" lon="7.69475">
        <ele>1295.99</ele>
        <time>2019-04-03T14:37:03Z</time>
      </trkpt>
      <trkpt lat="60.31261" lon="7.69465">
        <ele>1295.99</ele>
        <time>2019-04-03T14:37:08Z</time>
      </trkpt>
      <trkpt lat="60.31263" lon="7.69451">
        <ele>1295.51</ele>
        <time>2019-04-03T14:37:13Z</time>
      </trkpt>
      <trkpt lat="60.31259" lon="7.69438">
        <ele>1295.51</ele>
        <time>2019-04-03T14:37:20Z</time>
      </trkpt>
      <trkpt lat="60.31252" lon="7.69429">
        <ele>1295.99</ele>
        <time>2019-04-03T14:37:28Z</time>
      </trkpt>
      <trkpt lat="60.31253" lon="7.69417">
        <ele>1296.96</ele>
        <time>2019-04-03T14:37:32Z</time>
      </trkpt>
      <trkpt lat="60.31252" lon="7.69408">
        <ele>1296.96</ele>
        <time>2019-04-03T14:37:34Z</time>
      </trkpt>
      <trkpt lat="60.31265" lon="7.6936">
        <ele>1297.44</ele>
        <time>2019-04-03T14:37:43Z</time>
      </trkpt>
      <trkpt lat="60.31265" lon="7.69354">
        <ele>1297.44</ele>
        <time>2019-04-03T14:37:45Z</time>
      </trkpt>
      <trkpt lat="60.31262" lon="7.69348">
        <ele>1297.44</ele>
        <time>2019-04-03T14:37:50Z</time>
      </trkpt>
      <trkpt lat="60.31253" lon="7.69338">
        <ele>1297.92</ele>
        <time>2019-04-03T14:37:57Z</time>
      </trkpt>
      <trkpt lat="60.31245" lon="7.69327">
        <ele>1297.92</ele>
        <time>2019-04-03T14:38:05Z</time>
      </trkpt>
      <trkpt lat="60.31244" lon="7.69325">
        <ele>1297.92</ele>
        <time>2019-04-03T14:38:06Z</time>
      </trkpt>
      <trkpt lat="60.3124" lon="7.69321">
        <ele>1298.88</ele>
        <time>2019-04-03T14:38:10Z</time>
      </trkpt>
      <trkpt lat="60.31233" lon="7.69311">
        <ele>1299.36</ele>
        <time>2019-04-03T14:38:17Z</time>
      </trkpt>
      <trkpt lat="60.31232" lon="7.69309">
        <ele>1299.36</ele>
        <time>2019-04-03T14:38:19Z</time>
      </trkpt>
      <trkpt lat="60.31229" lon="7.69305">
        <ele>1299.36</ele>
        <time>2019-04-03T14:38:22Z</time>
      </trkpt>
      <trkpt lat="60.31226" lon="7.69281">
        <ele>1299.36</ele>
        <time>2019-04-03T14:38:29Z</time>
      </trkpt>
      <trkpt lat="60.31228" lon="7.69261">
        <ele>1299.84</ele>
        <time>2019-04-03T14:38:33Z</time>
      </trkpt>
      <trkpt lat="60.31217" lon="7.69255">
        <ele>1299.84</ele>
        <time>2019-04-03T14:38:39Z</time>
      </trkpt>
      <trkpt lat="60.31214" lon="7.69251">
        <ele>1300.32</ele>
        <time>2019-04-03T14:38:43Z</time>
      </trkpt>
      <trkpt lat="60.3121" lon="7.69249">
        <ele>1300.8</ele>
        <time>2019-04-03T14:38:46Z</time>
      </trkpt>
      <trkpt lat="60.31199" lon="7.69232">
        <ele>1301.76</ele>
        <time>2019-04-03T14:38:55Z</time>
      </trkpt>
      <trkpt lat="60.31197" lon="7.69229">
        <ele>1301.28</ele>
        <time>2019-04-03T14:38:59Z</time>
      </trkpt>
      <trkpt lat="60.31192" lon="7.69224">
        <ele>1301.76</ele>
        <time>2019-04-03T14:39:06Z</time>
      </trkpt>
      <trkpt lat="60.31182" lon="7.69217">
        <ele>1302.24</ele>
        <time>2019-04-03T14:39:13Z</time>
      </trkpt>
      <trkpt lat="60.31181" lon="7.69213">
        <ele>1302.24</ele>
        <time>2019-04-03T14:39:14Z</time>
      </trkpt>
      <trkpt lat="60.31185" lon="7.69185">
        <ele>1302.24</ele>
        <time>2019-04-03T14:39:19Z</time>
      </trkpt>
      <trkpt lat="60.31174" lon="7.69162">
        <ele>1302.24</ele>
        <time>2019-04-03T14:39:26Z</time>
      </trkpt>
      <trkpt lat="60.31167" lon="7.69162">
        <ele>1302.24</ele>
        <time>2019-04-03T14:39:31Z</time>
      </trkpt>
      <trkpt lat="60.31156" lon="7.69154">
        <ele>1302.72</ele>
        <time>2019-04-03T14:39:39Z</time>
      </trkpt>
      <trkpt lat="60.31158" lon="7.69125">
        <ele>1302.72</ele>
        <time>2019-04-03T14:39:45Z</time>
      </trkpt>
      <trkpt lat="60.31154" lon="7.69119">
        <ele>1302.72</ele>
        <time>2019-04-03T14:39:47Z</time>
      </trkpt>
      <trkpt lat="60.31138" lon="7.69111">
        <ele>1302.72</ele>
        <time>2019-04-03T14:39:55Z</time>
      </trkpt>
      <trkpt lat="60.31127" lon="7.69096">
        <ele>1303.2</ele>
        <time>2019-04-03T14:40:03Z</time>
      </trkpt>
      <trkpt lat="60.31127" lon="7.69096">
        <ele>1303.2</ele>
        <time>2019-04-03T14:40:05Z</time>
      </trkpt>
      <trkpt lat="60.31116" lon="7.69087">
        <ele>1303.69</ele>
        <time>2019-04-03T14:40:11Z</time>
      </trkpt>
      <trkpt lat="60.31104" lon="7.69072">
        <ele>1304.17</ele>
        <time>2019-04-03T14:40:19Z</time>
      </trkpt>
      <trkpt lat="60.31101" lon="7.69066">
        <ele>1305.13</ele>
        <time>2019-04-03T14:40:23Z</time>
      </trkpt>
      <trkpt lat="60.31098" lon="7.69063">
        <ele>1305.13</ele>
        <time>2019-04-03T14:40:26Z</time>
      </trkpt>
      <trkpt lat="60.31091" lon="7.69044">
        <ele>1305.13</ele>
        <time>2019-04-03T14:40:33Z</time>
      </trkpt>
      <trkpt lat="60.31077" lon="7.69031">
        <ele>1305.13</ele>
        <time>2019-04-03T14:40:41Z</time>
      </trkpt>
      <trkpt lat="60.31067" lon="7.69026">
        <ele>1305.13</ele>
        <time>2019-04-03T14:40:46Z</time>
      </trkpt>
      <trkpt lat="60.31052" lon="7.69005">
        <ele>1305.61</ele>
        <time>2019-04-03T14:40:53Z</time>
      </trkpt>
      <trkpt lat="60.31045" lon="7.68992">
        <ele>1305.61</ele>
        <time>2019-04-03T14:40:57Z</time>
      </trkpt>
      <trkpt lat="60.31039" lon="7.6899">
        <ele>1306.57</ele>
        <time>2019-04-03T14:41:02Z</time>
      </trkpt>
      <trkpt lat="60.31038" lon="7.68988">
        <ele>1306.57</ele>
        <time>2019-04-03T14:41:04Z</time>
      </trkpt>
      <trkpt lat="60.31031" lon="7.68961">
        <ele>1306.57</ele>
        <time>2019-04-03T14:41:13Z</time>
      </trkpt>
      <trkpt lat="60.31023" lon="7.68956">
        <ele>1306.57</ele>
        <time>2019-04-03T14:41:17Z</time>
      </trkpt>
      <trkpt lat="60.31009" lon="7.68941">
        <ele>1306.57</ele>
        <time>2019-04-03T14:41:24Z</time>
      </trkpt>
      <trkpt lat="60.30992" lon="7.68919">
        <ele>1307.05</ele>
        <time>2019-04-03T14:41:32Z</time>
      </trkpt>
      <trkpt lat="60.30986" lon="7.68914">
        <ele>1307.53</ele>
        <time>2019-04-03T14:41:36Z</time>
      </trkpt>
      <trkpt lat="60.30981" lon="7.68903">
        <ele>1307.53</ele>
        <time>2019-04-03T14:41:39Z</time>
      </trkpt>
      <trkpt lat="60.30962" lon="7.68879">
        <ele>1308.01</ele>
        <time>2019-04-03T14:41:48Z</time>
      </trkpt>
      <trkpt lat="60.30955" lon="7.68872">
        <ele>1308.01</ele>
        <time>2019-04-03T14:41:53Z</time>
      </trkpt>
      <trkpt lat="60.30953" lon="7.68865">
        <ele>1308.01</ele>
        <time>2019-04-03T14:42:00Z</time>
      </trkpt>
      <trkpt lat="60.30951" lon="7.68862">
        <ele>1308.01</ele>
        <time>2019-04-03T14:42:03Z</time>
      </trkpt>
      <trkpt lat="60.30958" lon="7.68825">
        <ele>1308.01</ele>
        <time>2019-04-03T14:42:10Z</time>
      </trkpt>
      <trkpt lat="60.30961" lon="7.68808">
        <ele>1307.05</ele>
        <time>2019-04-03T14:42:13Z</time>
      </trkpt>
      <trkpt lat="60.30962" lon="7.68804">
        <ele>1307.05</ele>
        <time>2019-04-03T14:42:14Z</time>
      </trkpt>
      <trkpt lat="60.30969" lon="7.6876">
        <ele>1306.57</ele>
        <time>2019-04-03T14:42:22Z</time>
      </trkpt>
      <trkpt lat="60.30975" lon="7.6875">
        <ele>1306.57</ele>
        <time>2019-04-03T14:42:25Z</time>
      </trkpt>
      <trkpt lat="60.3097" lon="7.68722">
        <ele>1305.13</ele>
        <time>2019-04-03T14:42:32Z</time>
      </trkpt>
      <trkpt lat="60.3095" lon="7.68714">
        <ele>1307.05</ele>
        <time>2019-04-03T14:42:39Z</time>
      </trkpt>
      <trkpt lat="60.30945" lon="7.68714">
        <ele>1307.05</ele>
        <time>2019-04-03T14:42:43Z</time>
      </trkpt>
      <trkpt lat="60.3094" lon="7.6872">
        <ele>1307.05</ele>
        <time>2019-04-03T14:42:48Z</time>
      </trkpt>
      <trkpt lat="60.30927" lon="7.68717">
        <ele>1307.53</ele>
        <time>2019-04-03T14:42:56Z</time>
      </trkpt>
      <trkpt lat="60.30915" lon="7.6871">
        <ele>1308.49</ele>
        <time>2019-04-03T14:43:01Z</time>
      </trkpt>
      <trkpt lat="60.30909" lon="7.68705">
        <ele>1308.49</ele>
        <time>2019-04-03T14:43:04Z</time>
      </trkpt>
      <trkpt lat="60.30893" lon="7.68699">
        <ele>1309.45</ele>
        <time>2019-04-03T14:43:11Z</time>
      </trkpt>
      <trkpt lat="60.30884" lon="7.68688">
        <ele>1309.45</ele>
        <time>2019-04-03T14:43:14Z</time>
      </trkpt>
      <trkpt lat="60.30864" lon="7.68688">
        <ele>1310.41</ele>
        <time>2019-04-03T14:43:20Z</time>
      </trkpt>
      <trkpt lat="60.3086" lon="7.68669">
        <ele>1310.41</ele>
        <time>2019-04-03T14:43:27Z</time>
      </trkpt>
      <trkpt lat="60.3086" lon="7.68652">
        <ele>1310.41</ele>
        <time>2019-04-03T14:43:31Z</time>
      </trkpt>
      <trkpt lat="60.30838" lon="7.68623">
        <ele>1308.97</ele>
        <time>2019-04-03T14:43:40Z</time>
      </trkpt>
      <trkpt lat="60.3083" lon="7.68622">
        <ele>1308.97</ele>
        <time>2019-04-03T14:43:43Z</time>
      </trkpt>
      <trkpt lat="60.30814" lon="7.68606">
        <ele>1308.97</ele>
        <time>2019-04-03T14:43:48Z</time>
      </trkpt>
      <trkpt lat="60.30793" lon="7.68602">
        <ele>1310.41</ele>
        <time>2019-04-03T14:43:56Z</time>
      </trkpt>
      <trkpt lat="60.30789" lon="7.686">
        <ele>1310.9</ele>
        <time>2019-04-03T14:43:58Z</time>
      </trkpt>
      <trkpt lat="60.30788" lon="7.68569">
        <ele>1310.9</ele>
        <time>2019-04-03T14:44:05Z</time>
      </trkpt>
      <trkpt lat="60.30788" lon="7.68564">
        <ele>1310.9</ele>
        <time>2019-04-03T14:44:06Z</time>
      </trkpt>
      <trkpt lat="60.30795" lon="7.68535">
        <ele>1311.38</ele>
        <time>2019-04-03T14:44:13Z</time>
      </trkpt>
      <trkpt lat="60.30796" lon="7.68525">
        <ele>1311.38</ele>
        <time>2019-04-03T14:44:15Z</time>
      </trkpt>
      <trkpt lat="60.30799" lon="7.68484">
        <ele>1311.86</ele>
        <time>2019-04-03T14:44:23Z</time>
      </trkpt>
      <trkpt lat="60.30806" lon="7.68455">
        <ele>1312.34</ele>
        <time>2019-04-03T14:44:30Z</time>
      </trkpt>
      <trkpt lat="60.30807" lon="7.6843">
        <ele>1312.82</ele>
        <time>2019-04-03T14:44:36Z</time>
      </trkpt>
      <trkpt lat="60.308" lon="7.68423">
        <ele>1312.82</ele>
        <time>2019-04-03T14:44:39Z</time>
      </trkpt>
      <trkpt lat="60.30778" lon="7.68427">
        <ele>1313.3</ele>
        <time>2019-04-03T14:44:47Z</time>
      </trkpt>
      <trkpt lat="60.30757" lon="7.68418">
        <ele>1314.26</ele>
        <time>2019-04-03T14:44:55Z</time>
      </trkpt>
      <trkpt lat="60.30754" lon="7.68417">
        <ele>1314.26</ele>
        <time>2019-04-03T14:44:56Z</time>
      </trkpt>
      <trkpt lat="60.30729" lon="7.68395">
        <ele>1314.74</ele>
        <time>2019-04-03T14:45:05Z</time>
      </trkpt>
      <trkpt lat="60.30712" lon="7.68379">
        <ele>1315.22</ele>
        <time>2019-04-03T14:45:13Z</time>
      </trkpt>
      <trkpt lat="60.30707" lon="7.68366">
        <ele>1315.22</ele>
        <time>2019-04-03T14:45:16Z</time>
      </trkpt>
      <trkpt lat="60.30714" lon="7.6833">
        <ele>1315.22</ele>
        <time>2019-04-03T14:45:23Z</time>
      </trkpt>
      <trkpt lat="60.30698" lon="7.68301">
        <ele>1315.22</ele>
        <time>2019-04-03T14:45:31Z</time>
      </trkpt>
      <trkpt lat="60.30672" lon="7.68302">
        <ele>1315.22</ele>
        <time>2019-04-03T14:45:37Z</time>
      </trkpt>
      <trkpt lat="60.30655" lon="7.68297">
        <ele>1315.22</ele>
        <time>2019-04-03T14:45:43Z</time>
      </trkpt>
      <trkpt lat="60.30658" lon="7.68258">
        <ele>1315.22</ele>
        <time>2019-04-03T14:45:50Z</time>
      </trkpt>
      <trkpt lat="60.30639" lon="7.68239">
        <ele>1315.22</ele>
        <time>2019-04-03T14:45:57Z</time>
      </trkpt>
      <trkpt lat="60.30623" lon="7.68238">
        <ele>1315.22</ele>
        <time>2019-04-03T14:46:03Z</time>
      </trkpt>
      <trkpt lat="60.30623" lon="7.68228">
        <ele>1315.22</ele>
        <time>2019-04-03T14:46:05Z</time>
      </trkpt>
      <trkpt lat="60.30627" lon="7.68206">
        <ele>1315.7</ele>
        <time>2019-04-03T14:46:11Z</time>
      </trkpt>
      <trkpt lat="60.3063" lon="7.68192">
        <ele>1315.7</ele>
        <time>2019-04-03T14:46:16Z</time>
      </trkpt>
      <trkpt lat="60.30613" lon="7.68175">
        <ele>1316.18</ele>
        <time>2019-04-03T14:46:23Z</time>
      </trkpt>
      <trkpt lat="60.30596" lon="7.6816">
        <ele>1316.66</ele>
        <time>2019-04-03T14:46:29Z</time>
      </trkpt>
      <trkpt lat="60.30594" lon="7.68157">
        <ele>1316.66</ele>
        <time>2019-04-03T14:46:30Z</time>
      </trkpt>
      <trkpt lat="60.30578" lon="7.68142">
        <ele>1318.1</ele>
        <time>2019-04-03T14:46:36Z</time>
      </trkpt>
      <trkpt lat="60.30575" lon="7.68133">
        <ele>1318.59</ele>
        <time>2019-04-03T14:46:38Z</time>
      </trkpt>
      <trkpt lat="60.30565" lon="7.68123">
        <ele>1318.59</ele>
        <time>2019-04-03T14:46:42Z</time>
      </trkpt>
      <trkpt lat="60.30559" lon="7.68117">
        <ele>1318.59</ele>
        <time>2019-04-03T14:46:45Z</time>
      </trkpt>
      <trkpt lat="60.30554" lon="7.68116">
        <ele>1318.59</ele>
        <time>2019-04-03T14:46:47Z</time>
      </trkpt>
      <trkpt lat="60.30547" lon="7.68098">
        <ele>1319.07</ele>
        <time>2019-04-03T14:46:51Z</time>
      </trkpt>
      <trkpt lat="60.3055" lon="7.68052">
        <ele>1319.07</ele>
        <time>2019-04-03T14:46:56Z</time>
      </trkpt>
      <trkpt lat="60.30557" lon="7.68005">
        <ele>1317.62</ele>
        <time>2019-04-03T14:47:03Z</time>
      </trkpt>
      <trkpt lat="60.30552" lon="7.67978">
        <ele>1317.62</ele>
        <time>2019-04-03T14:47:09Z</time>
      </trkpt>
      <trkpt lat="60.30549" lon="7.67976">
        <ele>1317.62</ele>
        <time>2019-04-03T14:47:10Z</time>
      </trkpt>
      <trkpt lat="60.30528" lon="7.67976">
        <ele>1317.62</ele>
        <time>2019-04-03T14:47:17Z</time>
      </trkpt>
      <trkpt lat="60.30508" lon="7.67965">
        <ele>1317.62</ele>
        <time>2019-04-03T14:47:24Z</time>
      </trkpt>
      <trkpt lat="60.30496" lon="7.67962">
        <ele>1317.62</ele>
        <time>2019-04-03T14:47:31Z</time>
      </trkpt>
      <trkpt lat="60.30491" lon="7.67955">
        <ele>1317.62</ele>
        <time>2019-04-03T14:47:33Z</time>
      </trkpt>
      <trkpt lat="60.30476" lon="7.67942">
        <ele>1317.62</ele>
        <time>2019-04-03T14:47:37Z</time>
      </trkpt>
      <trkpt lat="60.30452" lon="7.67915">
        <ele>1319.07</ele>
        <time>2019-04-03T14:47:46Z</time>
      </trkpt>
      <trkpt lat="60.30447" lon="7.67907">
        <ele>1319.07</ele>
        <time>2019-04-03T14:47:48Z</time>
      </trkpt>
      <trkpt lat="60.30436" lon="7.67885">
        <ele>1319.07</ele>
        <time>2019-04-03T14:47:55Z</time>
      </trkpt>
      <trkpt lat="60.30441" lon="7.67864">
        <ele>1319.07</ele>
        <time>2019-04-03T14:47:58Z</time>
      </trkpt>
      <trkpt lat="60.30449" lon="7.67836">
        <ele>1319.07</ele>
        <time>2019-04-03T14:48:02Z</time>
      </trkpt>
      <trkpt lat="60.30447" lon="7.6783">
        <ele>1317.62</ele>
        <time>2019-04-03T14:48:05Z</time>
      </trkpt>
      <trkpt lat="60.3043" lon="7.67821">
        <ele>1317.62</ele>
        <time>2019-04-03T14:48:11Z</time>
      </trkpt>
      <trkpt lat="60.30405" lon="7.67803">
        <ele>1317.62</ele>
        <time>2019-04-03T14:48:19Z</time>
      </trkpt>
      <trkpt lat="60.30389" lon="7.6778">
        <ele>1317.14</ele>
        <time>2019-04-03T14:48:25Z</time>
      </trkpt>
      <trkpt lat="60.30377" lon="7.67771">
        <ele>1317.14</ele>
        <time>2019-04-03T14:48:28Z</time>
      </trkpt>
      <trkpt lat="60.3036" lon="7.67758">
        <ele>1316.18</ele>
        <time>2019-04-03T14:48:32Z</time>
      </trkpt>
      <trkpt lat="60.30338" lon="7.67758">
        <ele>1316.18</ele>
        <time>2019-04-03T14:48:37Z</time>
      </trkpt>
      <trkpt lat="60.30321" lon="7.67736">
        <ele>1317.62</ele>
        <time>2019-04-03T14:48:44Z</time>
      </trkpt>
      <trkpt lat="60.30318" lon="7.67736">
        <ele>1317.62</ele>
        <time>2019-04-03T14:48:45Z</time>
      </trkpt>
      <trkpt lat="60.3031" lon="7.67693">
        <ele>1317.62</ele>
        <time>2019-04-03T14:48:52Z</time>
      </trkpt>
      <trkpt lat="60.30321" lon="7.67652">
        <ele>1317.62</ele>
        <time>2019-04-03T14:48:56Z</time>
      </trkpt>
      <trkpt lat="60.30324" lon="7.6763">
        <ele>1316.18</ele>
        <time>2019-04-03T14:48:58Z</time>
      </trkpt>
      <trkpt lat="60.30324" lon="7.67606">
        <ele>1315.22</ele>
        <time>2019-04-03T14:49:00Z</time>
      </trkpt>
      <trkpt lat="60.30323" lon="7.67536">
        <ele>1314.74</ele>
        <time>2019-04-03T14:49:08Z</time>
      </trkpt>
      <trkpt lat="60.30316" lon="7.67527">
        <ele>1313.78</ele>
        <time>2019-04-03T14:49:11Z</time>
      </trkpt>
      <trkpt lat="60.30296" lon="7.67527">
        <ele>1313.78</ele>
        <time>2019-04-03T14:49:16Z</time>
      </trkpt>
      <trkpt lat="60.3028" lon="7.67518">
        <ele>1313.3</ele>
        <time>2019-04-03T14:49:22Z</time>
      </trkpt>
      <trkpt lat="60.3029" lon="7.67472">
        <ele>1313.3</ele>
        <time>2019-04-03T14:49:27Z</time>
      </trkpt>
      <trkpt lat="60.30288" lon="7.67454">
        <ele>1313.3</ele>
        <time>2019-04-03T14:49:30Z</time>
      </trkpt>
      <trkpt lat="60.30257" lon="7.67438">
        <ele>1310.9</ele>
        <time>2019-04-03T14:49:36Z</time>
      </trkpt>
      <trkpt lat="60.302" lon="7.67415">
        <ele>1308.97</ele>
        <time>2019-04-03T14:49:46Z</time>
      </trkpt>
      <trkpt lat="60.30183" lon="7.67411">
        <ele>1308.49</ele>
        <time>2019-04-03T14:49:49Z</time>
      </trkpt>
      <trkpt lat="60.30159" lon="7.67393">
        <ele>1308.01</ele>
        <time>2019-04-03T14:49:55Z</time>
      </trkpt>
      <trkpt lat="60.3016" lon="7.6737">
        <ele>1308.01</ele>
        <time>2019-04-03T14:49:57Z</time>
      </trkpt>
      <trkpt lat="60.30171" lon="7.67246">
        <ele>1306.09</ele>
        <time>2019-04-03T14:50:07Z</time>
      </trkpt>
      <trkpt lat="60.30175" lon="7.67219">
        <ele>1305.13</ele>
        <time>2019-04-03T14:50:10Z</time>
      </trkpt>
      <trkpt lat="60.3017" lon="7.67153">
        <ele>1304.17</ele>
        <time>2019-04-03T14:50:17Z</time>
      </trkpt>
      <trkpt lat="60.30173" lon="7.67135">
        <ele>1304.17</ele>
        <time>2019-04-03T14:50:19Z</time>
      </trkpt>
      <trkpt lat="60.30178" lon="7.6708">
        <ele>1302.24</ele>
        <time>2019-04-03T14:50:26Z</time>
      </trkpt>
      <trkpt lat="60.30163" lon="7.67074">
        <ele>1301.28</ele>
        <time>2019-04-03T14:50:29Z</time>
      </trkpt>
      <trkpt lat="60.3015" lon="7.67074">
        <ele>1301.28</ele>
        <time>2019-04-03T14:50:31Z</time>
      </trkpt>
      <trkpt lat="60.30132" lon="7.67074">
        <ele>1300.8</ele>
        <time>2019-04-03T14:50:34Z</time>
      </trkpt>
      <trkpt lat="60.30111" lon="7.67057">
        <ele>1298.88</ele>
        <time>2019-04-03T14:50:37Z</time>
      </trkpt>
      <trkpt lat="60.30061" lon="7.67031">
        <ele>1296.96</ele>
        <time>2019-04-03T14:50:44Z</time>
      </trkpt>
      <trkpt lat="60.30039" lon="7.67026">
        <ele>1295.51</ele>
        <time>2019-04-03T14:50:47Z</time>
      </trkpt>
      <trkpt lat="60.30025" lon="7.6699">
        <ele>1295.51</ele>
        <time>2019-04-03T14:50:52Z</time>
      </trkpt>
      <trkpt lat="60.30026" lon="7.66977">
        <ele>1295.99</ele>
        <time>2019-04-03T14:50:53Z</time>
      </trkpt>
      <trkpt lat="60.30043" lon="7.66831">
        <ele>1293.11</ele>
        <time>2019-04-03T14:51:04Z</time>
      </trkpt>
      <trkpt lat="60.30048" lon="7.6669">
        <ele>1288.78</ele>
        <time>2019-04-03T14:51:12Z</time>
      </trkpt>
      <trkpt lat="60.30048" lon="7.66673">
        <ele>1288.78</ele>
        <time>2019-04-03T14:51:13Z</time>
      </trkpt>
      <trkpt lat="60.30048" lon="7.66612">
        <ele>1285.42</ele>
        <time>2019-04-03T14:51:17Z</time>
      </trkpt>
      <trkpt lat="60.30055" lon="7.66506">
        <ele>1282.06</ele>
        <time>2019-04-03T14:51:24Z</time>
      </trkpt>
      <trkpt lat="60.30062" lon="7.66351">
        <ele>1280.13</ele>
        <time>2019-04-03T14:51:33Z</time>
      </trkpt>
      <trkpt lat="60.3007" lon="7.66242">
        <ele>1279.65</ele>
        <time>2019-04-03T14:51:40Z</time>
      </trkpt>
      <trkpt lat="60.30078" lon="7.66145">
        <ele>1277.25</ele>
        <time>2019-04-03T14:51:46Z</time>
      </trkpt>
      <trkpt lat="60.30075" lon="7.66102">
        <ele>1274.85</ele>
        <time>2019-04-03T14:51:50Z</time>
      </trkpt>
      <trkpt lat="60.30056" lon="7.66085">
        <ele>1272.92</ele>
        <time>2019-04-03T14:51:53Z</time>
      </trkpt>
      <trkpt lat="60.30034" lon="7.66073">
        <ele>1271.48</ele>
        <time>2019-04-03T14:51:56Z</time>
      </trkpt>
      <trkpt lat="60.30003" lon="7.66051">
        <ele>1269.56</ele>
        <time>2019-04-03T14:52:00Z</time>
      </trkpt>
      <trkpt lat="60.29988" lon="7.66042">
        <ele>1268.12</ele>
        <time>2019-04-03T14:52:02Z</time>
      </trkpt>
      <trkpt lat="60.29959" lon="7.6603">
        <ele>1265.23</ele>
        <time>2019-04-03T14:52:06Z</time>
      </trkpt>
      <trkpt lat="60.29927" lon="7.66019">
        <ele>1259.94</ele>
        <time>2019-04-03T14:52:10Z</time>
      </trkpt>
      <trkpt lat="60.29904" lon="7.66017">
        <ele>1258.02</ele>
        <time>2019-04-03T14:52:13Z</time>
      </trkpt>
      <trkpt lat="60.29869" lon="7.66023">
        <ele>1255.62</ele>
        <time>2019-04-03T14:52:18Z</time>
      </trkpt>
      <trkpt lat="60.29854" lon="7.66001">
        <ele>1254.66</ele>
        <time>2019-04-03T14:52:22Z</time>
      </trkpt>
      <trkpt lat="60.29853" lon="7.65989">
        <ele>1254.66</ele>
        <time>2019-04-03T14:52:23Z</time>
      </trkpt>
      <trkpt lat="60.29855" lon="7.65946">
        <ele>1254.18</ele>
        <time>2019-04-03T14:52:26Z</time>
      </trkpt>
      <trkpt lat="60.29852" lon="7.65893">
        <ele>1252.25</ele>
        <time>2019-04-03T14:52:30Z</time>
      </trkpt>
      <trkpt lat="60.29848" lon="7.6584">
        <ele>1250.33</ele>
        <time>2019-04-03T14:52:34Z</time>
      </trkpt>
      <trkpt lat="60.2984" lon="7.6579">
        <ele>1248.41</ele>
        <time>2019-04-03T14:52:38Z</time>
      </trkpt>
      <trkpt lat="60.29839" lon="7.65779">
        <ele>1247.93</ele>
        <time>2019-04-03T14:52:39Z</time>
      </trkpt>
      <trkpt lat="60.29837" lon="7.65758">
        <ele>1246.97</ele>
        <time>2019-04-03T14:52:41Z</time>
      </trkpt>
      <trkpt lat="60.29822" lon="7.65747">
        <ele>1245.04</ele>
        <time>2019-04-03T14:52:45Z</time>
      </trkpt>
      <trkpt lat="60.29814" lon="7.65751">
        <ele>1244.08</ele>
        <time>2019-04-03T14:52:52Z</time>
      </trkpt>
      <trkpt lat="60.29811" lon="7.65732">
        <ele>1243.12</ele>
        <time>2019-04-03T14:53:01Z</time>
      </trkpt>
      <trkpt lat="60.29806" lon="7.65717">
        <ele>1242.16</ele>
        <time>2019-04-03T14:53:05Z</time>
      </trkpt>
      <trkpt lat="60.29806" lon="7.65695">
        <ele>1242.16</ele>
        <time>2019-04-03T14:53:09Z</time>
      </trkpt>
      <trkpt lat="60.29815" lon="7.6561">
        <ele>1239.28</ele>
        <time>2019-04-03T14:53:20Z</time>
      </trkpt>
      <trkpt lat="60.29834" lon="7.65525">
        <ele>1238.8</ele>
        <time>2019-04-03T14:53:27Z</time>
      </trkpt>
      <trkpt lat="60.29861" lon="7.65423">
        <ele>1237.83</ele>
        <time>2019-04-03T14:53:33Z</time>
      </trkpt>
      <trkpt lat="60.29907" lon="7.6529">
        <ele>1238.32</ele>
        <time>2019-04-03T14:53:41Z</time>
      </trkpt>
      <trkpt lat="60.29941" lon="7.65219">
        <ele>1239.76</ele>
        <time>2019-04-03T14:53:46Z</time>
      </trkpt>
      <trkpt lat="60.29947" lon="7.65207">
        <ele>1239.76</ele>
        <time>2019-04-03T14:53:47Z</time>
      </trkpt>
      <trkpt lat="60.29961" lon="7.65185">
        <ele>1238.8</ele>
        <time>2019-04-03T14:53:49Z</time>
      </trkpt>
      <trkpt lat="60.29968" lon="7.65173">
        <ele>1238.8</ele>
        <time>2019-04-03T14:53:50Z</time>
      </trkpt>
      <trkpt lat="60.30027" lon="7.65086">
        <ele>1237.35</ele>
        <time>2019-04-03T14:53:58Z</time>
      </trkpt>
      <trkpt lat="60.30082" lon="7.65001">
        <ele>1238.32</ele>
        <time>2019-04-03T14:54:06Z</time>
      </trkpt>
      <trkpt lat="60.30138" lon="7.64892">
        <ele>1238.32</ele>
        <time>2019-04-03T14:54:15Z</time>
      </trkpt>
      <trkpt lat="60.30204" lon="7.6477">
        <ele>1240.24</ele>
        <time>2019-04-03T14:54:25Z</time>
      </trkpt>
      <trkpt lat="60.3025" lon="7.64665">
        <ele>1238.8</ele>
        <time>2019-04-03T14:54:32Z</time>
      </trkpt>
      <trkpt lat="60.30293" lon="7.64568">
        <ele>1237.35</ele>
        <time>2019-04-03T14:54:39Z</time>
      </trkpt>
      <trkpt lat="60.30359" lon="7.64438">
        <ele>1235.91</ele>
        <time>2019-04-03T14:54:49Z</time>
      </trkpt>
      <trkpt lat="60.30379" lon="7.64394">
        <ele>1235.91</ele>
        <time>2019-04-03T14:54:52Z</time>
      </trkpt>
      <trkpt lat="60.30466" lon="7.6425">
        <ele>1233.51</ele>
        <time>2019-04-03T14:55:04Z</time>
      </trkpt>
      <trkpt lat="60.30474" lon="7.64241">
        <ele>1232.55</ele>
        <time>2019-04-03T14:55:05Z</time>
      </trkpt>
      <trkpt lat="60.30489" lon="7.64219">
        <ele>1231.59</ele>
        <time>2019-04-03T14:55:07Z</time>
      </trkpt>
      <trkpt lat="60.30561" lon="7.64094">
        <ele>1230.62</ele>
        <time>2019-04-03T14:55:17Z</time>
      </trkpt>
      <trkpt lat="60.30597" lon="7.64027">
        <ele>1230.62</ele>
        <time>2019-04-03T14:55:22Z</time>
      </trkpt>
      <trkpt lat="60.3065" lon="7.6391">
        <ele>1231.59</ele>
        <time>2019-04-03T14:55:30Z</time>
      </trkpt>
      <trkpt lat="60.30728" lon="7.63748">
        <ele>1229.18</ele>
        <time>2019-04-03T14:55:41Z</time>
      </trkpt>
      <trkpt lat="60.30781" lon="7.63659">
        <ele>1228.7</ele>
        <time>2019-04-03T14:55:49Z</time>
      </trkpt>
      <trkpt lat="60.30795" lon="7.63635">
        <ele>1230.14</ele>
        <time>2019-04-03T14:55:51Z</time>
      </trkpt>
      <trkpt lat="60.30848" lon="7.63559">
        <ele>1228.7</ele>
        <time>2019-04-03T14:55:58Z</time>
      </trkpt>
      <trkpt lat="60.30942" lon="7.63396">
        <ele>1228.22</ele>
        <time>2019-04-03T14:56:10Z</time>
      </trkpt>
      <trkpt lat="60.31029" lon="7.63232">
        <ele>1227.74</ele>
        <time>2019-04-03T14:56:21Z</time>
      </trkpt>
      <trkpt lat="60.31105" lon="7.63077">
        <ele>1226.3</ele>
        <time>2019-04-03T14:56:32Z</time>
      </trkpt>
      <trkpt lat="60.31118" lon="7.63052">
        <ele>1228.22</ele>
        <time>2019-04-03T14:56:34Z</time>
      </trkpt>
      <trkpt lat="60.31174" lon="7.62914">
        <ele>1228.7</ele>
        <time>2019-04-03T14:56:44Z</time>
      </trkpt>
      <trkpt lat="60.31193" lon="7.62861">
        <ele>1229.66</ele>
        <time>2019-04-03T14:56:48Z</time>
      </trkpt>
      <trkpt lat="60.3122" lon="7.62777">
        <ele>1230.14</ele>
        <time>2019-04-03T14:56:55Z</time>
      </trkpt>
      <trkpt lat="60.31252" lon="7.6266">
        <ele>1230.14</ele>
        <time>2019-04-03T14:57:03Z</time>
      </trkpt>
      <trkpt lat="60.31283" lon="7.6256">
        <ele>1231.11</ele>
        <time>2019-04-03T14:57:11Z</time>
      </trkpt>
      <trkpt lat="60.3129" lon="7.62534">
        <ele>1231.59</ele>
        <time>2019-04-03T14:57:13Z</time>
      </trkpt>
      <trkpt lat="60.31302" lon="7.62503">
        <ele>1232.07</ele>
        <time>2019-04-03T14:57:16Z</time>
      </trkpt>
      <trkpt lat="60.31311" lon="7.62485">
        <ele>1233.03</ele>
        <time>2019-04-03T14:57:18Z</time>
      </trkpt>
      <trkpt lat="60.31319" lon="7.62468">
        <ele>1233.03</ele>
        <time>2019-04-03T14:57:20Z</time>
      </trkpt>
      <trkpt lat="60.31331" lon="7.62429">
        <ele>1231.11</ele>
        <time>2019-04-03T14:57:24Z</time>
      </trkpt>
      <trkpt lat="60.31337" lon="7.62405">
        <ele>1230.62</ele>
        <time>2019-04-03T14:57:26Z</time>
      </trkpt>
      <trkpt lat="60.31344" lon="7.62381">
        <ele>1230.14</ele>
        <time>2019-04-03T14:57:28Z</time>
      </trkpt>
      <trkpt lat="60.31363" lon="7.62297">
        <ele>1225.82</ele>
        <time>2019-04-03T14:57:33Z</time>
      </trkpt>
      <trkpt lat="60.31376" lon="7.62242">
        <ele>1223.9</ele>
        <time>2019-04-03T14:57:36Z</time>
      </trkpt>
      <trkpt lat="60.31393" lon="7.62179">
        <ele>1223.42</ele>
        <time>2019-04-03T14:57:40Z</time>
      </trkpt>
      <trkpt lat="60.31408" lon="7.62141">
        <ele>1223.42</ele>
        <time>2019-04-03T14:57:44Z</time>
      </trkpt>
      <trkpt lat="60.31416" lon="7.62128">
        <ele>1224.38</ele>
        <time>2019-04-03T14:57:47Z</time>
      </trkpt>
      <trkpt lat="60.31402" lon="7.62133">
        <ele>1220.53</ele>
        <time>2019-04-03T14:57:52Z</time>
      </trkpt>
      <trkpt lat="60.3139" lon="7.62147">
        <ele>1217.65</ele>
        <time>2019-04-03T14:57:54Z</time>
      </trkpt>
      <trkpt lat="60.3138" lon="7.62166">
        <ele>1215.72</ele>
        <time>2019-04-03T14:57:56Z</time>
      </trkpt>
      <trkpt lat="60.3136" lon="7.62202">
        <ele>1218.13</ele>
        <time>2019-04-03T14:58:00Z</time>
      </trkpt>
      <trkpt lat="60.31348" lon="7.62227">
        <ele>1220.53</ele>
        <time>2019-04-03T14:58:03Z</time>
      </trkpt>
      <trkpt lat="60.31341" lon="7.62241">
        <ele>1221.49</ele>
        <time>2019-04-03T14:58:05Z</time>
      </trkpt>
      <trkpt lat="60.31337" lon="7.62249">
        <ele>1221.49</ele>
        <time>2019-04-03T14:58:06Z</time>
      </trkpt>
      <trkpt lat="60.31315" lon="7.62293">
        <ele>1224.86</ele>
        <time>2019-04-03T14:58:11Z</time>
      </trkpt>
      <trkpt lat="60.31305" lon="7.62311">
        <ele>1227.26</ele>
        <time>2019-04-03T14:58:13Z</time>
      </trkpt>
      <trkpt lat="60.313" lon="7.6232">
        <ele>1227.26</ele>
        <time>2019-04-03T14:58:14Z</time>
      </trkpt>
      <trkpt lat="60.31292" lon="7.6234">
        <ele>1225.34</ele>
        <time>2019-04-03T14:58:16Z</time>
      </trkpt>
      <trkpt lat="60.31283" lon="7.62369">
        <ele>1229.18</ele>
        <time>2019-04-03T14:58:19Z</time>
      </trkpt>
      <trkpt lat="60.3128" lon="7.62378">
        <ele>1229.66</ele>
        <time>2019-04-03T14:58:20Z</time>
      </trkpt>
      <trkpt lat="60.31263" lon="7.62426">
        <ele>1224.86</ele>
        <time>2019-04-03T14:58:24Z</time>
      </trkpt>
      <trkpt lat="60.31259" lon="7.62439">
        <ele>1224.86</ele>
        <time>2019-04-03T14:58:25Z</time>
      </trkpt>
      <trkpt lat="60.31237" lon="7.62504">
        <ele>1223.9</ele>
        <time>2019-04-03T14:58:30Z</time>
      </trkpt>
      <trkpt lat="60.31232" lon="7.62517">
        <ele>1222.93</ele>
        <time>2019-04-03T14:58:31Z</time>
      </trkpt>
      <trkpt lat="60.31224" lon="7.6254">
        <ele>1221.97</ele>
        <time>2019-04-03T14:58:33Z</time>
      </trkpt>
      <trkpt lat="60.31212" lon="7.6257">
        <ele>1225.34</ele>
        <time>2019-04-03T14:58:36Z</time>
      </trkpt>
      <trkpt lat="60.31209" lon="7.62579">
        <ele>1225.34</ele>
        <time>2019-04-03T14:58:37Z</time>
      </trkpt>
      <trkpt lat="60.31204" lon="7.62594">
        <ele>1226.3</ele>
        <time>2019-04-03T14:58:39Z</time>
      </trkpt>
      <trkpt lat="60.31199" lon="7.6261">
        <ele>1226.78</ele>
        <time>2019-04-03T14:58:41Z</time>
      </trkpt>
      <trkpt lat="60.31194" lon="7.62632">
        <ele>1225.34</ele>
        <time>2019-04-03T14:58:45Z</time>
      </trkpt>
      <trkpt lat="60.31191" lon="7.62639">
        <ele>1226.78</ele>
        <time>2019-04-03T14:58:48Z</time>
      </trkpt>
      <trkpt lat="60.31186" lon="7.6265">
        <ele>1226.78</ele>
        <time>2019-04-03T14:58:51Z</time>
      </trkpt>
      <trkpt lat="60.31175" lon="7.62669">
        <ele>1224.86</ele>
        <time>2019-04-03T14:58:54Z</time>
      </trkpt>
      <trkpt lat="60.31161" lon="7.6271">
        <ele>1222.45</ele>
        <time>2019-04-03T14:58:58Z</time>
      </trkpt>
      <trkpt lat="60.31154" lon="7.62734">
        <ele>1221.97</ele>
        <time>2019-04-03T14:59:00Z</time>
      </trkpt>
      <trkpt lat="60.31142" lon="7.6278">
        <ele>1218.61</ele>
        <time>2019-04-03T14:59:04Z</time>
      </trkpt>
      <trkpt lat="60.31139" lon="7.6279">
        <ele>1218.61</ele>
        <time>2019-04-03T14:59:05Z</time>
      </trkpt>
      <trkpt lat="60.31129" lon="7.62821">
        <ele>1219.57</ele>
        <time>2019-04-03T14:59:08Z</time>
      </trkpt>
      <trkpt lat="60.31118" lon="7.62851">
        <ele>1218.13</ele>
        <time>2019-04-03T14:59:11Z</time>
      </trkpt>
      <trkpt lat="60.31097" lon="7.629">
        <ele>1218.61</ele>
        <time>2019-04-03T14:59:16Z</time>
      </trkpt>
      <trkpt lat="60.3108" lon="7.62933">
        <ele>1219.09</ele>
        <time>2019-04-03T14:59:20Z</time>
      </trkpt>
      <trkpt lat="60.31064" lon="7.62966">
        <ele>1221.49</ele>
        <time>2019-04-03T14:59:24Z</time>
      </trkpt>
      <trkpt lat="60.31056" lon="7.62982">
        <ele>1220.53</ele>
        <time>2019-04-03T14:59:26Z</time>
      </trkpt>
      <trkpt lat="60.31046" lon="7.63007">
        <ele>1221.97</ele>
        <time>2019-04-03T14:59:29Z</time>
      </trkpt>
      <trkpt lat="60.31039" lon="7.63024">
        <ele>1220.05</ele>
        <time>2019-04-03T14:59:31Z</time>
      </trkpt>
      <trkpt lat="60.3102" lon="7.63073">
        <ele>1221.01</ele>
        <time>2019-04-03T14:59:36Z</time>
      </trkpt>
      <trkpt lat="60.30972" lon="7.63187">
        <ele>1221.97</ele>
        <time>2019-04-03T14:59:48Z</time>
      </trkpt>
      <trkpt lat="60.30958" lon="7.63224">
        <ele>1221.01</ele>
        <time>2019-04-03T14:59:52Z</time>
      </trkpt>
      <trkpt lat="60.30944" lon="7.63262">
        <ele>1224.38</ele>
        <time>2019-04-03T14:59:56Z</time>
      </trkpt>
      <trkpt lat="60.30941" lon="7.63271">
        <ele>1222.45</ele>
        <time>2019-04-03T14:59:57Z</time>
      </trkpt>
      <trkpt lat="60.30934" lon="7.63289">
        <ele>1221.49</ele>
        <time>2019-04-03T14:59:59Z</time>
      </trkpt>
      <trkpt lat="60.30931" lon="7.63298">
        <ele>1222.93</ele>
        <time>2019-04-03T15:00:00Z</time>
      </trkpt>
      <trkpt lat="60.30907" lon="7.63362">
        <ele>1223.9</ele>
        <time>2019-04-03T15:00:07Z</time>
      </trkpt>
      <trkpt lat="60.309" lon="7.63381">
        <ele>1222.45</ele>
        <time>2019-04-03T15:00:09Z</time>
      </trkpt>
      <trkpt lat="60.30892" lon="7.63398">
        <ele>1221.97</ele>
        <time>2019-04-03T15:00:11Z</time>
      </trkpt>
      <trkpt lat="60.3088" lon="7.63428">
        <ele>1223.9</ele>
        <time>2019-04-03T15:00:14Z</time>
      </trkpt>
      <trkpt lat="60.30858" lon="7.63476">
        <ele>1221.49</ele>
        <time>2019-04-03T15:00:19Z</time>
      </trkpt>
      <trkpt lat="60.30831" lon="7.63541">
        <ele>1222.45</ele>
        <time>2019-04-03T15:00:25Z</time>
      </trkpt>
      <trkpt lat="60.30812" lon="7.63585">
        <ele>1224.86</ele>
        <time>2019-04-03T15:00:29Z</time>
      </trkpt>
      <trkpt lat="60.30808" lon="7.63596">
        <ele>1224.86</ele>
        <time>2019-04-03T15:00:30Z</time>
      </trkpt>
      <trkpt lat="60.30797" lon="7.63617">
        <ele>1222.93</ele>
        <time>2019-04-03T15:00:32Z</time>
      </trkpt>
      <trkpt lat="60.30779" lon="7.63652">
        <ele>1221.01</ele>
        <time>2019-04-03T15:00:35Z</time>
      </trkpt>
      <trkpt lat="60.30757" lon="7.63696">
        <ele>1226.78</ele>
        <time>2019-04-03T15:00:39Z</time>
      </trkpt>
      <trkpt lat="60.30752" lon="7.63706">
        <ele>1226.78</ele>
        <time>2019-04-03T15:00:40Z</time>
      </trkpt>
      <trkpt lat="60.30741" lon="7.63728">
        <ele>1224.86</ele>
        <time>2019-04-03T15:00:42Z</time>
      </trkpt>
      <trkpt lat="60.30723" lon="7.63761">
        <ele>1224.86</ele>
        <time>2019-04-03T15:00:45Z</time>
      </trkpt>
      <trkpt lat="60.30681" lon="7.6386">
        <ele>1227.26</ele>
        <time>2019-04-03T15:00:53Z</time>
      </trkpt>
      <trkpt lat="60.30676" lon="7.63873">
        <ele>1227.26</ele>
        <time>2019-04-03T15:00:54Z</time>
      </trkpt>
      <trkpt lat="60.30658" lon="7.63922">
        <ele>1223.9</ele>
        <time>2019-04-03T15:00:58Z</time>
      </trkpt>
      <trkpt lat="60.30655" lon="7.63934">
        <ele>1223.9</ele>
        <time>2019-04-03T15:00:59Z</time>
      </trkpt>
      <trkpt lat="60.30651" lon="7.63946">
        <ele>1228.7</ele>
        <time>2019-04-03T15:01:00Z</time>
      </trkpt>
      <trkpt lat="60.30632" lon="7.64017">
        <ele>1226.78</ele>
        <time>2019-04-03T15:01:06Z</time>
      </trkpt>
      <trkpt lat="60.30623" lon="7.64041">
        <ele>1225.82</ele>
        <time>2019-04-03T15:01:08Z</time>
      </trkpt>
      <trkpt lat="60.30613" lon="7.64068">
        <ele>1227.26</ele>
        <time>2019-04-03T15:01:10Z</time>
      </trkpt>
      <trkpt lat="60.30548" lon="7.64199">
        <ele>1227.26</ele>
        <time>2019-04-03T15:01:20Z</time>
      </trkpt>
      <trkpt lat="60.3054" lon="7.64213">
        <ele>1227.26</ele>
        <time>2019-04-03T15:01:21Z</time>
      </trkpt>
      <trkpt lat="60.30467" lon="7.64315">
        <ele>1230.14</ele>
        <time>2019-04-03T15:01:30Z</time>
      </trkpt>
      <trkpt lat="60.30453" lon="7.64333">
        <ele>1227.74</ele>
        <time>2019-04-03T15:01:32Z</time>
      </trkpt>
      <trkpt lat="60.30434" lon="7.64363">
        <ele>1231.11</ele>
        <time>2019-04-03T15:01:35Z</time>
      </trkpt>
      <trkpt lat="60.30429" lon="7.64373">
        <ele>1231.11</ele>
        <time>2019-04-03T15:01:36Z</time>
      </trkpt>
      <trkpt lat="60.30378" lon="7.64464">
        <ele>1233.03</ele>
        <time>2019-04-03T15:01:45Z</time>
      </trkpt>
      <trkpt lat="60.30355" lon="7.64506">
        <ele>1233.99</ele>
        <time>2019-04-03T15:01:49Z</time>
      </trkpt>
      <trkpt lat="60.30339" lon="7.64548">
        <ele>1234.95</ele>
        <time>2019-04-03T15:01:53Z</time>
      </trkpt>
      <trkpt lat="60.30331" lon="7.64558">
        <ele>1235.43</ele>
        <time>2019-04-03T15:01:55Z</time>
      </trkpt>
      <trkpt lat="60.30309" lon="7.64581">
        <ele>1232.07</ele>
        <time>2019-04-03T15:01:59Z</time>
      </trkpt>
      <trkpt lat="60.30298" lon="7.64596">
        <ele>1231.11</ele>
        <time>2019-04-03T15:02:01Z</time>
      </trkpt>
      <trkpt lat="60.30287" lon="7.64618">
        <ele>1233.51</ele>
        <time>2019-04-03T15:02:04Z</time>
      </trkpt>
      <trkpt lat="60.30281" lon="7.6463">
        <ele>1234.47</ele>
        <time>2019-04-03T15:02:06Z</time>
      </trkpt>
      <trkpt lat="60.30274" lon="7.64643">
        <ele>1234.47</ele>
        <time>2019-04-03T15:02:08Z</time>
      </trkpt>
      <trkpt lat="60.30266" lon="7.64657">
        <ele>1234.47</ele>
        <time>2019-04-03T15:02:10Z</time>
      </trkpt>
      <trkpt lat="60.30247" lon="7.64701">
        <ele>1234.47</ele>
        <time>2019-04-03T15:02:15Z</time>
      </trkpt>
      <trkpt lat="60.30235" lon="7.64732">
        <ele>1235.43</ele>
        <time>2019-04-03T15:02:18Z</time>
      </trkpt>
      <trkpt lat="60.30207" lon="7.64802">
        <ele>1235.91</ele>
        <time>2019-04-03T15:02:25Z</time>
      </trkpt>
      <trkpt lat="60.30201" lon="7.64821">
        <ele>1237.35</ele>
        <time>2019-04-03T15:02:27Z</time>
      </trkpt>
      <trkpt lat="60.30192" lon="7.64835">
        <ele>1239.28</ele>
        <time>2019-04-03T15:02:29Z</time>
      </trkpt>
      <trkpt lat="60.30187" lon="7.64844">
        <ele>1239.28</ele>
        <time>2019-04-03T15:02:30Z</time>
      </trkpt>
      <trkpt lat="60.30178" lon="7.64862">
        <ele>1236.87</ele>
        <time>2019-04-03T15:02:32Z</time>
      </trkpt>
      <trkpt lat="60.30161" lon="7.64902">
        <ele>1236.87</ele>
        <time>2019-04-03T15:02:36Z</time>
      </trkpt>
      <trkpt lat="60.30135" lon="7.64965">
        <ele>1238.32</ele>
        <time>2019-04-03T15:02:42Z</time>
      </trkpt>
      <trkpt lat="60.3013" lon="7.64975">
        <ele>1238.32</ele>
        <time>2019-04-03T15:02:43Z</time>
      </trkpt>
      <trkpt lat="60.30121" lon="7.64995">
        <ele>1238.8</ele>
        <time>2019-04-03T15:02:45Z</time>
      </trkpt>
      <trkpt lat="60.3011" lon="7.65015">
        <ele>1236.39</ele>
        <time>2019-04-03T15:02:47Z</time>
      </trkpt>
      <trkpt lat="60.30103" lon="7.65024">
        <ele>1237.83</ele>
        <time>2019-04-03T15:02:48Z</time>
      </trkpt>
      <trkpt lat="60.30097" lon="7.65031">
        <ele>1238.32</ele>
        <time>2019-04-03T15:02:49Z</time>
      </trkpt>
      <trkpt lat="60.3009" lon="7.65038">
        <ele>1235.91</ele>
        <time>2019-04-03T15:02:50Z</time>
      </trkpt>
      <trkpt lat="60.30085" lon="7.65046">
        <ele>1235.43</ele>
        <time>2019-04-03T15:02:51Z</time>
      </trkpt>
      <trkpt lat="60.30079" lon="7.65055">
        <ele>1235.43</ele>
        <time>2019-04-03T15:02:52Z</time>
      </trkpt>
      <trkpt lat="60.3006" lon="7.65088">
        <ele>1236.87</ele>
        <time>2019-04-03T15:02:56Z</time>
      </trkpt>
      <trkpt lat="60.3005" lon="7.65107">
        <ele>1233.99</ele>
        <time>2019-04-03T15:02:58Z</time>
      </trkpt>
      <trkpt lat="60.30045" lon="7.65117">
        <ele>1233.99</ele>
        <time>2019-04-03T15:02:59Z</time>
      </trkpt>
      <trkpt lat="60.30001" lon="7.65209">
        <ele>1236.87</ele>
        <time>2019-04-03T15:03:08Z</time>
      </trkpt>
      <trkpt lat="60.29997" lon="7.65219">
        <ele>1236.87</ele>
        <time>2019-04-03T15:03:09Z</time>
      </trkpt>
      <trkpt lat="60.29979" lon="7.65255">
        <ele>1235.43</ele>
        <time>2019-04-03T15:03:13Z</time>
      </trkpt>
      <trkpt lat="60.29963" lon="7.65293">
        <ele>1236.87</ele>
        <time>2019-04-03T15:03:17Z</time>
      </trkpt>
      <trkpt lat="60.29959" lon="7.65303">
        <ele>1236.87</ele>
        <time>2019-04-03T15:03:18Z</time>
      </trkpt>
      <trkpt lat="60.29955" lon="7.65311">
        <ele>1236.87</ele>
        <time>2019-04-03T15:03:19Z</time>
      </trkpt>
      <trkpt lat="60.29951" lon="7.65319">
        <ele>1237.35</ele>
        <time>2019-04-03T15:03:20Z</time>
      </trkpt>
      <trkpt lat="60.29947" lon="7.65326">
        <ele>1237.35</ele>
        <time>2019-04-03T15:03:21Z</time>
      </trkpt>
      <trkpt lat="60.2993" lon="7.65349">
        <ele>1238.32</ele>
        <time>2019-04-03T15:03:25Z</time>
      </trkpt>
      <trkpt lat="60.29926" lon="7.65356">
        <ele>1238.32</ele>
        <time>2019-04-03T15:03:26Z</time>
      </trkpt>
      <trkpt lat="60.29919" lon="7.65369">
        <ele>1236.87</ele>
        <time>2019-04-03T15:03:28Z</time>
      </trkpt>
      <trkpt lat="60.29911" lon="7.65382">
        <ele>1238.32</ele>
        <time>2019-04-03T15:03:31Z</time>
      </trkpt>
      <trkpt lat="60.29905" lon="7.65392">
        <ele>1237.83</ele>
        <time>2019-04-03T15:03:33Z</time>
      </trkpt>
      <trkpt lat="60.29897" lon="7.65407">
        <ele>1236.39</ele>
        <time>2019-04-03T15:03:35Z</time>
      </trkpt>
      <trkpt lat="60.29884" lon="7.6543">
        <ele>1234.47</ele>
        <time>2019-04-03T15:03:38Z</time>
      </trkpt>
      <trkpt lat="60.29873" lon="7.65447">
        <ele>1235.91</ele>
        <time>2019-04-03T15:03:41Z</time>
      </trkpt>
      <trkpt lat="60.29866" lon="7.65455">
        <ele>1234.95</ele>
        <time>2019-04-03T15:03:43Z</time>
      </trkpt>
      <trkpt lat="60.29841" lon="7.65473">
        <ele>1233.51</ele>
        <time>2019-04-03T15:03:51Z</time>
      </trkpt>
      <trkpt lat="60.29837" lon="7.65471">
        <ele>1232.55</ele>
        <time>2019-04-03T15:03:55Z</time>
      </trkpt>
      <trkpt lat="60.29827" lon="7.65487">
        <ele>1233.99</ele>
        <time>2019-04-03T15:04:02Z</time>
      </trkpt>
      <trkpt lat="60.29825" lon="7.6549">
        <ele>1232.55</ele>
        <time>2019-04-03T15:04:06Z</time>
      </trkpt>
      <trkpt lat="60.29825" lon="7.65491">
        <ele>1234.95</ele>
        <time>2019-04-03T15:04:08Z</time>
      </trkpt>
      <trkpt lat="60.29824" lon="7.65491">
        <ele>1234.95</ele>
        <time>2019-04-03T15:04:11Z</time>
      </trkpt>
      <trkpt lat="60.29823" lon="7.65492">
        <ele>1233.03</ele>
        <time>2019-04-03T15:04:12Z</time>
      </trkpt>
      <trkpt lat="60.29821" lon="7.65494">
        <ele>1232.55</ele>
        <time>2019-04-03T15:04:13Z</time>
      </trkpt>
      <trkpt lat="60.2982" lon="7.65496">
        <ele>1232.55</ele>
        <time>2019-04-03T15:04:14Z</time>
      </trkpt>
      <trkpt lat="60.29818" lon="7.65498">
        <ele>1232.55</ele>
        <time>2019-04-03T15:04:15Z</time>
      </trkpt>
      <trkpt lat="60.29817" lon="7.65499">
        <ele>1234.47</ele>
        <time>2019-04-03T15:04:16Z</time>
      </trkpt>
      <trkpt lat="60.29814" lon="7.65501">
        <ele>1234.47</ele>
        <time>2019-04-03T15:04:17Z</time>
      </trkpt>
      <trkpt lat="60.29807" lon="7.65507">
        <ele>1232.07</ele>
        <time>2019-04-03T15:04:20Z</time>
      </trkpt>
      <trkpt lat="60.29804" lon="7.6551">
        <ele>1233.03</ele>
        <time>2019-04-03T15:04:23Z</time>
      </trkpt>
      <trkpt lat="60.29803" lon="7.65511">
        <ele>1233.51</ele>
        <time>2019-04-03T15:04:37Z</time>
      </trkpt>
      <trkpt lat="60.29804" lon="7.65511">
        <ele>1232.55</ele>
        <time>2019-04-03T15:04:44Z</time>
      </trkpt>
      <trkpt lat="60.29804" lon="7.65512">
        <ele>1229.18</ele>
        <time>2019-04-03T15:04:45Z</time>
      </trkpt>
      <trkpt lat="60.29804" lon="7.65512">
        <ele>1233.51</ele>
        <time>2019-04-03T15:04:46Z</time>
      </trkpt>
      <trkpt lat="60.29803" lon="7.65511">
        <ele>1233.51</ele>
        <time>2019-04-03T15:04:52Z</time>
      </trkpt>
      <trkpt lat="60.29802" lon="7.6551">
        <ele>1233.51</ele>
        <time>2019-04-03T15:04:53Z</time>
      </trkpt>
      <trkpt lat="60.29802" lon="7.65509">
        <ele>1232.07</ele>
        <time>2019-04-03T15:04:55Z</time>
      </trkpt>
      <trkpt lat="60.29801" lon="7.65509">
        <ele>1227.26</ele>
        <time>2019-04-03T15:04:59Z</time>
      </trkpt>
      <trkpt lat="60.29801" lon="7.65509">
        <ele>1236.39</ele>
        <time>2019-04-03T15:05:00Z</time>
      </trkpt>
      <trkpt lat="60.29801" lon="7.65508">
        <ele>1233.03</ele>
        <time>2019-04-03T15:05:01Z</time>
      </trkpt>
      <trkpt lat="60.29801" lon="7.65508">
        <ele>1236.87</ele>
        <time>2019-04-03T15:05:02Z</time>
      </trkpt>
      <trkpt lat="60.29801" lon="7.65508">
        <ele>1232.07</ele>
        <time>2019-04-03T15:05:03Z</time>
      </trkpt>
      <trkpt lat="60.29802" lon="7.65509">
        <ele>1232.07</ele>
        <time>2019-04-03T15:05:32Z</time>
      </trkpt>
      <trkpt lat="60.29803" lon="7.65509">
        <ele>1232.07</ele>
        <time>2019-04-03T15:06:03Z</time>
      </trkpt>
      <trkpt lat="60.29802" lon="7.65509">
        <ele>1232.07</ele>
        <time>2019-04-03T15:06:35Z</time>
      </trkpt>
      <trkpt lat="60.29803" lon="7.65508">
        <ele>1232.07</ele>
        <time>2019-04-03T15:07:08Z</time>
      </trkpt>
      <trkpt lat="60.29803" lon="7.65509">
        <ele>1232.55</ele>
        <time>2019-04-03T15:07:42Z</time>
      </trkpt>
      <trkpt lat="60.29802" lon="7.65509">
        <ele>1233.03</ele>
        <time>2019-04-03T15:08:10Z</time>
      </trkpt>
      <trkpt lat="60.29803" lon="7.65509">
        <ele>1233.03</ele>
        <time>2019-04-03T15:08:39Z</time>
      </trkpt>
      <trkpt lat="60.29803" lon="7.65507">
        <ele>1233.03</ele>
        <time>2019-04-03T15:09:09Z</time>
      </trkpt>
      <trkpt lat="60.29802" lon="7.6551">
        <ele>1233.03</ele>
        <time>2019-04-03T15:09:38Z</time>
      </trkpt>
      <trkpt lat="60.29802" lon="7.65511">
        <ele>1233.03</ele>
        <time>2019-04-03T15:10:11Z</time>
      </trkpt>
      <trkpt lat="60.29802" lon="7.65508">
        <ele>1233.51</ele>
        <time>2019-04-03T15:10:31Z</time>
      </trkpt>
      <trkpt lat="60.29802" lon="7.65507">
        <ele>1233.51</ele>
        <time>2019-04-03T15:10:56Z</time>
      </trkpt>
      <trkpt lat="60.29803" lon="7.65508">
        <ele>1233.51</ele>
        <time>2019-04-03T15:11:18Z</time>
      </trkpt>
      <trkpt lat="60.29803" lon="7.65507">
        <ele>1233.51</ele>
        <time>2019-04-03T15:11:52Z</time>
      </trkpt>
      <trkpt lat="60.29803" lon="7.65508">
        <ele>1234.95</ele>
        <time>2019-04-03T15:12:12Z</time>
      </trkpt>
      <trkpt lat="60.29803" lon="7.65508">
        <ele>1234.95</ele>
        <time>2019-04-03T15:12:24Z</time>
      </trkpt>
    </trkseg>
  </trk>
  <trk>
    <name><![CDATA[BBBB-04-04 11:40:43]]></name>
    <trkseg>
      <trkpt lat="60.2969" lon="7.65136">
        <ele>1222.45</ele>
        <time>2019-04-04T08:22:13Z</time>
      </trkpt>
      <trkpt lat="60.2969" lon="7.65136">
        <ele>1224.38</ele>
        <time>2019-04-04T08:22:36Z</time>
      </trkpt>
      <trkpt lat="60.2969" lon="7.65136">
        <ele>1222.93</ele>
        <time>2019-04-04T08:22:39Z</time>
      </trkpt>
      <trkpt lat="60.29691" lon="7.65138">
        <ele>1222.45</ele>
        <time>2019-04-04T08:22:58Z</time>
      </trkpt>
      <trkpt lat="60.29685" lon="7.65143">
        <ele>1220.05</ele>
        <time>2019-04-04T08:23:11Z</time>
      </trkpt>
      <trkpt lat="60.29681" lon="7.65148">
        <ele>1219.57</ele>
        <time>2019-04-04T08:23:23Z</time>
      </trkpt>
      <trkpt lat="60.29674" lon="7.65154">
        <ele>1221.49</ele>
        <time>2019-04-04T08:23:34Z</time>
      </trkpt>
      <trkpt lat="60.29673" lon="7.65155">
        <ele>1219.57</ele>
        <time>2019-04-04T08:23:36Z</time>
      </trkpt>
      <trkpt lat="60.29669" lon="7.65157">
        <ele>1221.01</ele>
        <time>2019-04-04T08:23:43Z</time>
      </trkpt>
      <trkpt lat="60.29664" lon="7.65156">
        <ele>1221.01</ele>
        <time>2019-04-04T08:23:52Z</time>
      </trkpt>
      <trkpt lat="60.29664" lon="7.65151">
        <ele>1223.9</ele>
        <time>2019-04-04T08:24:01Z</time>
      </trkpt>
      <trkpt lat="60.29664" lon="7.65151">
        <ele>1220.53</ele>
        <time>2019-04-04T08:24:04Z</time>
      </trkpt>
      <trkpt lat="60.29664" lon="7.65151">
        <ele>1223.42</ele>
        <time>2019-04-04T08:24:06Z</time>
      </trkpt>
      <trkpt lat="60.29664" lon="7.65151">
        <ele>1223.42</ele>
        <time>2019-04-04T08:24:07Z</time>
      </trkpt>
      <trkpt lat="60.29664" lon="7.65151">
        <ele>1221.49</ele>
        <time>2019-04-04T08:24:09Z</time>
      </trkpt>
      <trkpt lat="60.29664" lon="7.65151">
        <ele>1223.42</ele>
        <time>2019-04-04T08:24:12Z</time>
      </trkpt>
      <trkpt lat="60.29663" lon="7.65151">
        <ele>1222.45</ele>
        <time>2019-04-04T08:24:31Z</time>
      </trkpt>
      <trkpt lat="60.29659" lon="7.65151">
        <ele>1220.53</ele>
        <time>2019-04-04T08:24:40Z</time>
      </trkpt>
      <trkpt lat="60.29658" lon="7.65145">
        <ele>1221.01</ele>
        <time>2019-04-04T08:24:49Z</time>
      </trkpt>
      <trkpt lat="60.2966" lon="7.65139">
        <ele>1221.01</ele>
        <time>2019-04-04T08:24:50Z</time>
      </trkpt>
      <trkpt lat="60.29663" lon="7.65132">
        <ele>1221.01</ele>
        <time>2019-04-04T08:24:52Z</time>
      </trkpt>
      <trkpt lat="60.29674" lon="7.65125">
        <ele>1222.93</ele>
        <time>2019-04-04T08:24:55Z</time>
      </trkpt>
      <trkpt lat="60.2969" lon="7.65109">
        <ele>1221.49</ele>
        <time>2019-04-04T08:24:58Z</time>
      </trkpt>
      <trkpt lat="60.297" lon="7.65094">
        <ele>1221.49</ele>
        <time>2019-04-04T08:25:00Z</time>
      </trkpt>
      <trkpt lat="60.29726" lon="7.65068">
        <ele>1223.42</ele>
        <time>2019-04-04T08:25:06Z</time>
      </trkpt>
      <trkpt lat="60.29745" lon="7.65044">
        <ele>1224.38</ele>
        <time>2019-04-04T08:25:10Z</time>
      </trkpt>
      <trkpt lat="60.29744" lon="7.65026">
        <ele>1220.53</ele>
        <time>2019-04-04T08:25:13Z</time>
      </trkpt>
      <trkpt lat="60.29738" lon="7.65026">
        <ele>1217.65</ele>
        <time>2019-04-04T08:25:14Z</time>
      </trkpt>
      <trkpt lat="60.29708" lon="7.65036">
        <ele>1218.61</ele>
        <time>2019-04-04T08:25:19Z</time>
      </trkpt>
      <trkpt lat="60.29696" lon="7.65048">
        <ele>1216.21</ele>
        <time>2019-04-04T08:25:21Z</time>
      </trkpt>
      <trkpt lat="60.29687" lon="7.65059">
        <ele>1218.13</ele>
        <time>2019-04-04T08:25:23Z</time>
      </trkpt>
      <trkpt lat="60.29677" lon="7.65045">
        <ele>1220.05</ele>
        <time>2019-04-04T08:25:28Z</time>
      </trkpt>
      <trkpt lat="60.29696" lon="7.65031">
        <ele>1221.97</ele>
        <time>2019-04-04T08:25:32Z</time>
      </trkpt>
      <trkpt lat="60.29718" lon="7.65022">
        <ele>1221.49</ele>
        <time>2019-04-04T08:25:36Z</time>
      </trkpt>
      <trkpt lat="60.29734" lon="7.65024">
        <ele>1222.93</ele>
        <time>2019-04-04T08:25:39Z</time>
      </trkpt>
      <trkpt lat="60.29764" lon="7.65008">
        <ele>1224.86</ele>
        <time>2019-04-04T08:25:45Z</time>
      </trkpt>
      <trkpt lat="60.29819" lon="7.64981">
        <ele>1229.18</ele>
        <time>2019-04-04T08:25:54Z</time>
      </trkpt>
      <trkpt lat="60.29834" lon="7.64974">
        <ele>1228.7</ele>
        <time>2019-04-04T08:25:56Z</time>
      </trkpt>
      <trkpt lat="60.29858" lon="7.64973">
        <ele>1232.55</ele>
        <time>2019-04-04T08:26:00Z</time>
      </trkpt>
      <trkpt lat="60.29875" lon="7.64981">
        <ele>1231.59</ele>
        <time>2019-04-04T08:26:03Z</time>
      </trkpt>
      <trkpt lat="60.29909" lon="7.64974">
        <ele>1231.59</ele>
        <time>2019-04-04T08:26:08Z</time>
      </trkpt>
      <trkpt lat="60.29984" lon="7.64955">
        <ele>1231.59</ele>
        <time>2019-04-04T08:26:16Z</time>
      </trkpt>
      <trkpt lat="60.29993" lon="7.64952">
        <ele>1231.59</ele>
        <time>2019-04-04T08:26:17Z</time>
      </trkpt>
      <trkpt lat="60.30012" lon="7.64944">
        <ele>1233.51</ele>
        <time>2019-04-04T08:26:20Z</time>
      </trkpt>
      <trkpt lat="60.3001" lon="7.64927">
        <ele>1229.66</ele>
        <time>2019-04-04T08:26:22Z</time>
      </trkpt>
      <trkpt lat="60.29992" lon="7.64916">
        <ele>1226.3</ele>
        <time>2019-04-04T08:26:25Z</time>
      </trkpt>
      <trkpt lat="60.29981" lon="7.64918">
        <ele>1225.82</ele>
        <time>2019-04-04T08:26:27Z</time>
      </trkpt>
      <trkpt lat="60.29928" lon="7.64954">
        <ele>1225.34</ele>
        <time>2019-04-04T08:26:38Z</time>
      </trkpt>
      <trkpt lat="60.2992" lon="7.6496">
        <ele>1226.3</ele>
        <time>2019-04-04T08:26:40Z</time>
      </trkpt>
      <trkpt lat="60.29888" lon="7.6498">
        <ele>1225.34</ele>
        <time>2019-04-04T08:26:48Z</time>
      </trkpt>
      <trkpt lat="60.29866" lon="7.64991">
        <ele>1225.34</ele>
        <time>2019-04-04T08:26:55Z</time>
      </trkpt>
      <trkpt lat="60.29856" lon="7.64995">
        <ele>1226.78</ele>
        <time>2019-04-04T08:26:58Z</time>
      </trkpt>
      <trkpt lat="60.29831" lon="7.65005">
        <ele>1225.82</ele>
        <time>2019-04-04T08:27:08Z</time>
      </trkpt>
      <trkpt lat="60.29822" lon="7.65011">
        <ele>1224.38</ele>
        <time>2019-04-04T08:27:10Z</time>
      </trkpt>
      <trkpt lat="60.29813" lon="7.65018">
        <ele>1225.82</ele>
        <time>2019-04-04T08:27:12Z</time>
      </trkpt>
      <trkpt lat="60.29806" lon="7.65026">
        <ele>1223.9</ele>
        <time>2019-04-04T08:27:14Z</time>
      </trkpt>
      <trkpt lat="60.29772" lon="7.65048">
        <ele>1223.9</ele>
        <time>2019-04-04T08:27:25Z</time>
      </trkpt>
      <trkpt lat="60.29771" lon="7.65048">
        <ele>1225.34</ele>
        <time>2019-04-04T08:27:28Z</time>
      </trkpt>
      <trkpt lat="60.29771" lon="7.65047">
        <ele>1223.9</ele>
        <time>2019-04-04T08:27:42Z</time>
      </trkpt>
      <trkpt lat="60.29771" lon="7.65046">
        <ele>1224.86</ele>
        <time>2019-04-04T08:27:50Z</time>
      </trkpt>
      <trkpt lat="60.29771" lon="7.65046">
        <ele>1225.34</ele>
        <time>2019-04-04T08:28:07Z</time>
      </trkpt>
      <trkpt lat="60.2977" lon="7.65045">
        <ele>1223.9</ele>
        <time>2019-04-04T08:28:28Z</time>
      </trkpt>
      <trkpt lat="60.2977" lon="7.65045">
        <ele>1223.9</ele>
        <time>2019-04-04T08:28:33Z</time>
      </trkpt>
      <trkpt lat="60.2975" lon="7.65067">
        <ele>1221.97</ele>
        <time>2019-04-04T08:28:42Z</time>
      </trkpt>
      <trkpt lat="60.29747" lon="7.65074">
        <ele>1221.01</ele>
        <time>2019-04-04T08:28:43Z</time>
      </trkpt>
      <trkpt lat="60.29735" lon="7.65092">
        <ele>1221.01</ele>
        <time>2019-04-04T08:28:47Z</time>
      </trkpt>
      <trkpt lat="60.29721" lon="7.65108">
        <ele>1222.45</ele>
        <time>2019-04-04T08:28:53Z</time>
      </trkpt>
      <trkpt lat="60.2972" lon="7.65109">
        <ele>1221.49</ele>
        <time>2019-04-04T08:29:01Z</time>
      </trkpt>
      <trkpt lat="60.2972" lon="7.65108">
        <ele>1221.97</ele>
        <time>2019-04-04T08:29:10Z</time>
      </trkpt>
      <trkpt lat="60.2972" lon="7.65108">
        <ele>1221.97</ele>
        <time>2019-04-04T08:29:20Z</time>
      </trkpt>
      <trkpt lat="60.29719" lon="7.65105">
        <ele>1223.42</ele>
        <time>2019-04-04T08:29:22Z</time>
      </trkpt>
      <trkpt lat="60.29734" lon="7.65095">
        <ele>1225.34</ele>
        <time>2019-04-04T08:29:28Z</time>
      </trkpt>
      <trkpt lat="60.2974" lon="7.65084">
        <ele>1223.9</ele>
        <time>2019-04-04T08:29:30Z</time>
      </trkpt>
      <trkpt lat="60.29764" lon="7.65058">
        <ele>1226.78</ele>
        <time>2019-04-04T08:29:36Z</time>
      </trkpt>
      <trkpt lat="60.29772" lon="7.65055">
        <ele>1227.74</ele>
        <time>2019-04-04T08:29:39Z</time>
      </trkpt>
      <trkpt lat="60.29775" lon="7.65053">
        <ele>1227.74</ele>
        <time>2019-04-04T08:29:40Z</time>
      </trkpt>
      <trkpt lat="60.29774" lon="7.65041">
        <ele>1225.34</ele>
        <time>2019-04-04T08:29:45Z</time>
      </trkpt>
      <trkpt lat="60.29772" lon="7.65041">
        <ele>1223.9</ele>
        <time>2019-04-04T08:29:58Z</time>
      </trkpt>
      <trkpt lat="60.29771" lon="7.6504">
        <ele>1224.38</ele>
        <time>2019-04-04T08:30:14Z</time>
      </trkpt>
      <trkpt lat="60.2977" lon="7.65039">
        <ele>1225.34</ele>
        <time>2019-04-04T08:30:34Z</time>
      </trkpt>
      <trkpt lat="60.2977" lon="7.6504">
        <ele>1222.93</ele>
        <time>2019-04-04T08:30:48Z</time>
      </trkpt>
      <trkpt lat="60.29769" lon="7.65041">
        <ele>1223.42</ele>
        <time>2019-04-04T08:31:08Z</time>
      </trkpt>
      <trkpt lat="60.29761" lon="7.65042">
        <ele>1224.86</ele>
        <time>2019-04-04T08:31:15Z</time>
      </trkpt>
      <trkpt lat="60.29744" lon="7.65048">
        <ele>1221.49</ele>
        <time>2019-04-04T08:31:18Z</time>
      </trkpt>
      <trkpt lat="60.29712" lon="7.65055">
        <ele>1222.45</ele>
        <time>2019-04-04T08:31:22Z</time>
      </trkpt>
      <trkpt lat="60.2969" lon="7.6507">
        <ele>1219.09</ele>
        <time>2019-04-04T08:31:25Z</time>
      </trkpt>
      <trkpt lat="60.29674" lon="7.65097">
        <ele>1220.53</ele>
        <time>2019-04-04T08:31:29Z</time>
      </trkpt>
      <trkpt lat="60.29673" lon="7.65085">
        <ele>1221.49</ele>
        <time>2019-04-04T08:31:34Z</time>
      </trkpt>
      <trkpt lat="60.29698" lon="7.65065">
        <ele>1223.42</ele>
        <time>2019-04-04T08:31:38Z</time>
      </trkpt>
      <trkpt lat="60.29734" lon="7.65031">
        <ele>1223.42</ele>
        <time>2019-04-04T08:31:48Z</time>
      </trkpt>
      <trkpt lat="60.29742" lon="7.65007">
        <ele>1223.9</ele>
        <time>2019-04-04T08:31:53Z</time>
      </trkpt>
      <trkpt lat="60.2975" lon="7.65">
        <ele>1225.82</ele>
        <time>2019-04-04T08:31:55Z</time>
      </trkpt>
      <trkpt lat="60.2976" lon="7.64994">
        <ele>1225.82</ele>
        <time>2019-04-04T08:31:57Z</time>
      </trkpt>
      <trkpt lat="60.2978" lon="7.64975">
        <ele>1227.26</ele>
        <time>2019-04-04T08:32:01Z</time>
      </trkpt>
      <trkpt lat="60.29799" lon="7.64945">
        <ele>1229.66</ele>
        <time>2019-04-04T08:32:05Z</time>
      </trkpt>
      <trkpt lat="60.29813" lon="7.64906">
        <ele>1228.22</ele>
        <time>2019-04-04T08:32:09Z</time>
      </trkpt>
      <trkpt lat="60.29823" lon="7.64893">
        <ele>1228.22</ele>
        <time>2019-04-04T08:32:11Z</time>
      </trkpt>
      <trkpt lat="60.29832" lon="7.64886">
        <ele>1228.22</ele>
        <time>2019-04-04T08:32:13Z</time>
      </trkpt>
      <trkpt lat="60.29843" lon="7.64876">
        <ele>1227.74</ele>
        <time>2019-04-04T08:32:19Z</time>
      </trkpt>
      <trkpt lat="60.29843" lon="7.64877">
        <ele>1227.74</ele>
        <time>2019-04-04T08:32:36Z</time>
      </trkpt>
      <trkpt lat="60.29843" lon="7.64879">
        <ele>1227.26</ele>
        <time>2019-04-04T08:32:58Z</time>
      </trkpt>
      <trkpt lat="60.29842" lon="7.64878">
        <ele>1227.26</ele>
        <time>2019-04-04T08:33:05Z</time>
      </trkpt>
      <trkpt lat="60.29839" lon="7.64875">
        <ele>1224.86</ele>
        <time>2019-04-04T08:33:15Z</time>
      </trkpt>
      <trkpt lat="60.2984" lon="7.64876">
        <ele>1225.34</ele>
        <time>2019-04-04T08:33:41Z</time>
      </trkpt>
      <trkpt lat="60.2984" lon="7.64877">
        <ele>1224.86</ele>
        <time>2019-04-04T08:34:01Z</time>
      </trkpt>
      <trkpt lat="60.29837" lon="7.64871">
        <ele>1226.3</ele>
        <time>2019-04-04T08:34:04Z</time>
      </trkpt>
      <trkpt lat="60.29844" lon="7.64804">
        <ele>1227.26</ele>
        <time>2019-04-04T08:34:14Z</time>
      </trkpt>
      <trkpt lat="60.29845" lon="7.64799">
        <ele>1225.34</ele>
        <time>2019-04-04T08:34:23Z</time>
      </trkpt>
      <trkpt lat="60.29845" lon="7.64797">
        <ele>1225.34</ele>
        <time>2019-04-04T08:34:25Z</time>
      </trkpt>
      <trkpt lat="60.29848" lon="7.64766">
        <ele>1221.49</ele>
        <time>2019-04-04T08:34:31Z</time>
      </trkpt>
      <trkpt lat="60.29858" lon="7.64744">
        <ele>1222.93</ele>
        <time>2019-04-04T08:34:35Z</time>
      </trkpt>
      <trkpt lat="60.29869" lon="7.6473">
        <ele>1223.9</ele>
        <time>2019-04-04T08:34:38Z</time>
      </trkpt>
      <trkpt lat="60.29889" lon="7.64697">
        <ele>1224.86</ele>
        <time>2019-04-04T08:34:43Z</time>
      </trkpt>
      <trkpt lat="60.29912" lon="7.64673">
        <ele>1226.78</ele>
        <time>2019-04-04T08:34:47Z</time>
      </trkpt>
      <trkpt lat="60.29918" lon="7.64665">
        <ele>1226.78</ele>
        <time>2019-04-04T08:34:48Z</time>
      </trkpt>
      <trkpt lat="60.2993" lon="7.64655">
        <ele>1227.74</ele>
        <time>2019-04-04T08:34:50Z</time>
      </trkpt>
      <trkpt lat="60.29946" lon="7.6463">
        <ele>1227.74</ele>
        <time>2019-04-04T08:34:53Z</time>
      </trkpt>
      <trkpt lat="60.29994" lon="7.64583">
        <ele>1230.14</ele>
        <time>2019-04-04T08:35:01Z</time>
      </trkpt>
      <trkpt lat="60.30012" lon="7.64574">
        <ele>1232.07</ele>
        <time>2019-04-04T08:35:04Z</time>
      </trkpt>
      <trkpt lat="60.30023" lon="7.6457">
        <ele>1232.55</ele>
        <time>2019-04-04T08:35:06Z</time>
      </trkpt>
      <trkpt lat="60.30044" lon="7.64545">
        <ele>1232.55</ele>
        <time>2019-04-04T08:35:11Z</time>
      </trkpt>
      <trkpt lat="60.30062" lon="7.64525">
        <ele>1230.62</ele>
        <time>2019-04-04T08:35:16Z</time>
      </trkpt>
      <trkpt lat="60.3007" lon="7.64517">
        <ele>1230.62</ele>
        <time>2019-04-04T08:35:19Z</time>
      </trkpt>
      <trkpt lat="60.30103" lon="7.64482">
        <ele>1230.62</ele>
        <time>2019-04-04T08:35:28Z</time>
      </trkpt>
      <trkpt lat="60.30108" lon="7.64475">
        <ele>1230.62</ele>
        <time>2019-04-04T08:35:29Z</time>
      </trkpt>
      <trkpt lat="60.3012" lon="7.64466">
        <ele>1230.62</ele>
        <time>2019-04-04T08:35:31Z</time>
      </trkpt>
      <trkpt lat="60.30133" lon="7.64449">
        <ele>1228.7</ele>
        <time>2019-04-04T08:35:34Z</time>
      </trkpt>
      <trkpt lat="60.30138" lon="7.64431">
        <ele>1226.78</ele>
        <time>2019-04-04T08:35:36Z</time>
      </trkpt>
      <trkpt lat="60.30133" lon="7.64403">
        <ele>1224.86</ele>
        <time>2019-04-04T08:35:40Z</time>
      </trkpt>
      <trkpt lat="60.30128" lon="7.64394">
        <ele>1226.3</ele>
        <time>2019-04-04T08:35:46Z</time>
      </trkpt>
      <trkpt lat="60.30132" lon="7.64388">
        <ele>1226.3</ele>
        <time>2019-04-04T08:35:56Z</time>
      </trkpt>
      <trkpt lat="60.30131" lon="7.64389">
        <ele>1226.3</ele>
        <time>2019-04-04T08:36:09Z</time>
      </trkpt>
      <trkpt lat="60.30126" lon="7.64386">
        <ele>1221.97</ele>
        <time>2019-04-04T08:36:11Z</time>
      </trkpt>
      <trkpt lat="60.30122" lon="7.64389">
        <ele>1221.97</ele>
        <time>2019-04-04T08:36:12Z</time>
      </trkpt>
      <trkpt lat="60.30115" lon="7.64397">
        <ele>1222.45</ele>
        <time>2019-04-04T08:36:14Z</time>
      </trkpt>
      <trkpt lat="60.30093" lon="7.64437">
        <ele>1221.97</ele>
        <time>2019-04-04T08:36:23Z</time>
      </trkpt>
      <trkpt lat="60.30084" lon="7.64447">
        <ele>1223.42</ele>
        <time>2019-04-04T08:36:26Z</time>
      </trkpt>
      <trkpt lat="60.3006" lon="7.64471">
        <ele>1223.42</ele>
        <time>2019-04-04T08:36:31Z</time>
      </trkpt>
      <trkpt lat="60.30048" lon="7.64485">
        <ele>1225.34</ele>
        <time>2019-04-04T08:36:33Z</time>
      </trkpt>
      <trkpt lat="60.30033" lon="7.64507">
        <ele>1225.34</ele>
        <time>2019-04-04T08:36:36Z</time>
      </trkpt>
      <trkpt lat="60.30023" lon="7.64521">
        <ele>1223.9</ele>
        <time>2019-04-04T08:36:38Z</time>
      </trkpt>
      <trkpt lat="60.30018" lon="7.64527">
        <ele>1223.9</ele>
        <time>2019-04-04T08:36:39Z</time>
      </trkpt>
      <trkpt lat="60.3001" lon="7.64539">
        <ele>1226.3</ele>
        <time>2019-04-04T08:36:41Z</time>
      </trkpt>
      <trkpt lat="60.30006" lon="7.64546">
        <ele>1224.86</ele>
        <time>2019-04-04T08:36:42Z</time>
      </trkpt>
      <trkpt lat="60.30004" lon="7.64528">
        <ele>1227.26</ele>
        <time>2019-04-04T08:36:46Z</time>
      </trkpt>
      <trkpt lat="60.30032" lon="7.64487">
        <ele>1229.18</ele>
        <time>2019-04-04T08:36:56Z</time>
      </trkpt>
      <trkpt lat="60.30075" lon="7.64474">
        <ele>1230.62</ele>
        <time>2019-04-04T08:37:08Z</time>
      </trkpt>
      <trkpt lat="60.30101" lon="7.64462">
        <ele>1230.62</ele>
        <time>2019-04-04T08:37:19Z</time>
      </trkpt>
      <trkpt lat="60.30104" lon="7.64461">
        <ele>1230.62</ele>
        <time>2019-04-04T08:37:21Z</time>
      </trkpt>
      <trkpt lat="60.30108" lon="7.64455">
        <ele>1229.18</ele>
        <time>2019-04-04T08:37:24Z</time>
      </trkpt>
      <trkpt lat="60.30111" lon="7.64446">
        <ele>1227.74</ele>
        <time>2019-04-04T08:37:33Z</time>
      </trkpt>
      <trkpt lat="60.30111" lon="7.64447">
        <ele>1227.26</ele>
        <time>2019-04-04T08:37:54Z</time>
      </trkpt>
      <trkpt lat="60.30124" lon="7.6443">
        <ele>1228.7</ele>
        <time>2019-04-04T08:37:59Z</time>
      </trkpt>
      <trkpt lat="60.30139" lon="7.64421">
        <ele>1229.66</ele>
        <time>2019-04-04T08:38:01Z</time>
      </trkpt>
      <trkpt lat="60.30154" lon="7.64407">
        <ele>1229.66</ele>
        <time>2019-04-04T08:38:03Z</time>
      </trkpt>
      <trkpt lat="60.30204" lon="7.64329">
        <ele>1227.74</ele>
        <time>2019-04-04T08:38:09Z</time>
      </trkpt>
      <trkpt lat="60.30218" lon="7.64297">
        <ele>1226.78</ele>
        <time>2019-04-04T08:38:11Z</time>
      </trkpt>
      <trkpt lat="60.30239" lon="7.64251">
        <ele>1226.78</ele>
        <time>2019-04-04T08:38:14Z</time>
      </trkpt>
      <trkpt lat="60.30265" lon="7.64185">
        <ele>1225.82</ele>
        <time>2019-04-04T08:38:18Z</time>
      </trkpt>
      <trkpt lat="60.30303" lon="7.64076">
        <ele>1222.93</ele>
        <time>2019-04-04T08:38:24Z</time>
      </trkpt>
      <trkpt lat="60.30309" lon="7.64058">
        <ele>1222.45</ele>
        <time>2019-04-04T08:38:25Z</time>
      </trkpt>
      <trkpt lat="60.30327" lon="7.63994">
        <ele>1222.45</ele>
        <time>2019-04-04T08:38:29Z</time>
      </trkpt>
      <trkpt lat="60.30349" lon="7.6394">
        <ele>1224.38</ele>
        <time>2019-04-04T08:38:33Z</time>
      </trkpt>
      <trkpt lat="60.30359" lon="7.63911">
        <ele>1224.38</ele>
        <time>2019-04-04T08:38:35Z</time>
      </trkpt>
      <trkpt lat="60.304" lon="7.63782">
        <ele>1225.82</ele>
        <time>2019-04-04T08:38:45Z</time>
      </trkpt>
      <trkpt lat="60.3043" lon="7.63687">
        <ele>1227.74</ele>
        <time>2019-04-04T08:38:52Z</time>
      </trkpt>
      <trkpt lat="60.30435" lon="7.63673">
        <ele>1228.7</ele>
        <time>2019-04-04T08:38:53Z</time>
      </trkpt>
      <trkpt lat="60.30438" lon="7.63657">
        <ele>1228.7</ele>
        <time>2019-04-04T08:38:54Z</time>
      </trkpt>
      <trkpt lat="60.30445" lon="7.63625">
        <ele>1229.18</ele>
        <time>2019-04-04T08:38:56Z</time>
      </trkpt>
      <trkpt lat="60.30449" lon="7.63612">
        <ele>1229.18</ele>
        <time>2019-04-04T08:38:57Z</time>
      </trkpt>
      <trkpt lat="60.3046" lon="7.6358">
        <ele>1229.18</ele>
        <time>2019-04-04T08:38:59Z</time>
      </trkpt>
      <trkpt lat="60.30518" lon="7.63446">
        <ele>1227.74</ele>
        <time>2019-04-04T08:39:08Z</time>
      </trkpt>
      <trkpt lat="60.30561" lon="7.6335">
        <ele>1227.26</ele>
        <time>2019-04-04T08:39:15Z</time>
      </trkpt>
      <trkpt lat="60.30599" lon="7.63283">
        <ele>1230.14</ele>
        <time>2019-04-04T08:39:21Z</time>
      </trkpt>
      <trkpt lat="60.30646" lon="7.63197">
        <ele>1230.62</ele>
        <time>2019-04-04T08:39:28Z</time>
      </trkpt>
      <trkpt lat="60.30666" lon="7.63156">
        <ele>1232.55</ele>
        <time>2019-04-04T08:39:31Z</time>
      </trkpt>
      <trkpt lat="60.30683" lon="7.63114">
        <ele>1232.55</ele>
        <time>2019-04-04T08:39:34Z</time>
      </trkpt>
      <trkpt lat="60.30698" lon="7.6308">
        <ele>1232.55</ele>
        <time>2019-04-04T08:39:37Z</time>
      </trkpt>
      <trkpt lat="60.30707" lon="7.63049">
        <ele>1232.55</ele>
        <time>2019-04-04T08:39:41Z</time>
      </trkpt>
      <trkpt lat="60.30721" lon="7.63009">
        <ele>1233.51</ele>
        <time>2019-04-04T08:39:51Z</time>
      </trkpt>
      <trkpt lat="60.30728" lon="7.62994">
        <ele>1233.51</ele>
        <time>2019-04-04T08:39:54Z</time>
      </trkpt>
      <trkpt lat="60.30734" lon="7.62975">
        <ele>1231.59</ele>
        <time>2019-04-04T08:39:58Z</time>
      </trkpt>
      <trkpt lat="60.30747" lon="7.62961">
        <ele>1233.51</ele>
        <time>2019-04-04T08:40:01Z</time>
      </trkpt>
      <trkpt lat="60.30799" lon="7.62917">
        <ele>1233.99</ele>
        <time>2019-04-04T08:40:08Z</time>
      </trkpt>
      <trkpt lat="60.30816" lon="7.62906">
        <ele>1235.43</ele>
        <time>2019-04-04T08:40:10Z</time>
      </trkpt>
      <trkpt lat="60.30881" lon="7.62873">
        <ele>1236.39</ele>
        <time>2019-04-04T08:40:18Z</time>
      </trkpt>
      <trkpt lat="60.30925" lon="7.62856">
        <ele>1236.39</ele>
        <time>2019-04-04T08:40:24Z</time>
      </trkpt>
      <trkpt lat="60.30964" lon="7.62846">
        <ele>1237.83</ele>
        <time>2019-04-04T08:40:30Z</time>
      </trkpt>
      <trkpt lat="60.3097" lon="7.62845">
        <ele>1237.83</ele>
        <time>2019-04-04T08:40:31Z</time>
      </trkpt>
      <trkpt lat="60.30984" lon="7.62846">
        <ele>1237.35</ele>
        <time>2019-04-04T08:40:36Z</time>
      </trkpt>
      <trkpt lat="60.31004" lon="7.62837">
        <ele>1237.35</ele>
        <time>2019-04-04T08:40:46Z</time>
      </trkpt>
      <trkpt lat="60.31023" lon="7.62797">
        <ele>1234.47</ele>
        <time>2019-04-04T08:40:53Z</time>
      </trkpt>
      <trkpt lat="60.31027" lon="7.62776">
        <ele>1233.51</ele>
        <time>2019-04-04T08:40:55Z</time>
      </trkpt>
      <trkpt lat="60.31041" lon="7.62676">
        <ele>1231.59</ele>
        <time>2019-04-04T08:41:03Z</time>
      </trkpt>
      <trkpt lat="60.31057" lon="7.62639">
        <ele>1231.59</ele>
        <time>2019-04-04T08:41:07Z</time>
      </trkpt>
      <trkpt lat="60.31056" lon="7.62624">
        <ele>1226.78</ele>
        <time>2019-04-04T08:41:10Z</time>
      </trkpt>
      <trkpt lat="60.31051" lon="7.62623">
        <ele>1225.82</ele>
        <time>2019-04-04T08:41:12Z</time>
      </trkpt>
      <trkpt lat="60.31045" lon="7.62626">
        <ele>1225.34</ele>
        <time>2019-04-04T08:41:21Z</time>
      </trkpt>
      <trkpt lat="60.31042" lon="7.62626">
        <ele>1227.26</ele>
        <time>2019-04-04T08:41:28Z</time>
      </trkpt>
      <trkpt lat="60.31041" lon="7.62626">
        <ele>1225.82</ele>
        <time>2019-04-04T08:41:33Z</time>
      </trkpt>
      <trkpt lat="60.3104" lon="7.62625">
        <ele>1225.82</ele>
        <time>2019-04-04T08:41:36Z</time>
      </trkpt>
      <trkpt lat="60.31038" lon="7.62621">
        <ele>1230.14</ele>
        <time>2019-04-04T08:41:39Z</time>
      </trkpt>
      <trkpt lat="60.31038" lon="7.62618">
        <ele>1230.14</ele>
        <time>2019-04-04T08:41:40Z</time>
      </trkpt>
      <trkpt lat="60.31041" lon="7.62608">
        <ele>1230.14</ele>
        <time>2019-04-04T08:41:43Z</time>
      </trkpt>
      <trkpt lat="60.31045" lon="7.62601">
        <ele>1231.11</ele>
        <time>2019-04-04T08:41:45Z</time>
      </trkpt>
      <trkpt lat="60.31065" lon="7.62565">
        <ele>1229.66</ele>
        <time>2019-04-04T08:41:50Z</time>
      </trkpt>
      <trkpt lat="60.31078" lon="7.62528">
        <ele>1229.66</ele>
        <time>2019-04-04T08:41:53Z</time>
      </trkpt>
      <trkpt lat="60.311" lon="7.62459">
        <ele>1228.7</ele>
        <time>2019-04-04T08:41:58Z</time>
      </trkpt>
      <trkpt lat="60.31105" lon="7.62443">
        <ele>1228.7</ele>
        <time>2019-04-04T08:41:59Z</time>
      </trkpt>
      <trkpt lat="60.31116" lon="7.62411">
        <ele>1227.74</ele>
        <time>2019-04-04T08:42:01Z</time>
      </trkpt>
      <trkpt lat="60.31129" lon="7.62357">
        <ele>1225.82</ele>
        <time>2019-04-04T08:42:04Z</time>
      </trkpt>
      <trkpt lat="60.31165" lon="7.62234">
        <ele>1221.97</ele>
        <time>2019-04-04T08:42:11Z</time>
      </trkpt>
      <trkpt lat="60.31189" lon="7.62154">
        <ele>1224.38</ele>
        <time>2019-04-04T08:42:17Z</time>
      </trkpt>
      <trkpt lat="60.312" lon="7.62111">
        <ele>1224.38</ele>
        <time>2019-04-04T08:42:20Z</time>
      </trkpt>
      <trkpt lat="60.31249" lon="7.61951">
        <ele>1221.49</ele>
        <time>2019-04-04T08:42:30Z</time>
      </trkpt>
      <trkpt lat="60.31254" lon="7.61932">
        <ele>1221.01</ele>
        <time>2019-04-04T08:42:31Z</time>
      </trkpt>
      <trkpt lat="60.31272" lon="7.61886">
        <ele>1220.53</ele>
        <time>2019-04-04T08:42:34Z</time>
      </trkpt>
      <trkpt lat="60.31294" lon="7.61808">
        <ele>1220.53</ele>
        <time>2019-04-04T08:42:40Z</time>
      </trkpt>
      <trkpt lat="60.31291" lon="7.61768">
        <ele>1220.53</ele>
        <time>2019-04-04T08:42:43Z</time>
      </trkpt>
      <trkpt lat="60.31293" lon="7.61757">
        <ele>1220.53</ele>
        <time>2019-04-04T08:42:44Z</time>
      </trkpt>
      <trkpt lat="60.31295" lon="7.61749">
        <ele>1220.53</ele>
        <time>2019-04-04T08:42:45Z</time>
      </trkpt>
      <trkpt lat="60.31299" lon="7.61742">
        <ele>1220.53</ele>
        <time>2019-04-04T08:42:46Z</time>
      </trkpt>
      <trkpt lat="60.31304" lon="7.61735">
        <ele>1221.97</ele>
        <time>2019-04-04T08:42:47Z</time>
      </trkpt>
      <trkpt lat="60.31309" lon="7.61726">
        <ele>1221.97</ele>
        <time>2019-04-04T08:42:48Z</time>
      </trkpt>
      <trkpt lat="60.31313" lon="7.61716">
        <ele>1221.97</ele>
        <time>2019-04-04T08:42:49Z</time>
      </trkpt>
      <trkpt lat="60.31317" lon="7.61703">
        <ele>1221.01</ele>
        <time>2019-04-04T08:42:50Z</time>
      </trkpt>
      <trkpt lat="60.31319" lon="7.61688">
        <ele>1219.57</ele>
        <time>2019-04-04T08:42:51Z</time>
      </trkpt>
      <trkpt lat="60.31319" lon="7.61671">
        <ele>1219.09</ele>
        <time>2019-04-04T08:42:52Z</time>
      </trkpt>
      <trkpt lat="60.31321" lon="7.61652">
        <ele>1219.09</ele>
        <time>2019-04-04T08:42:53Z</time>
      </trkpt>
      <trkpt lat="60.31345" lon="7.6156">
        <ele>1217.65</ele>
        <time>2019-04-04T08:42:58Z</time>
      </trkpt>
      <trkpt lat="60.31387" lon="7.6143">
        <ele>1214.76</ele>
        <time>2019-04-04T08:43:05Z</time>
      </trkpt>
      <trkpt lat="60.31402" lon="7.61372">
        <ele>1214.76</ele>
        <time>2019-04-04T08:43:08Z</time>
      </trkpt>
      <trkpt lat="60.3143" lon="7.61302">
        <ele>1216.21</ele>
        <time>2019-04-04T08:43:13Z</time>
      </trkpt>
      <trkpt lat="60.31476" lon="7.61219">
        <ele>1216.69</ele>
        <time>2019-04-04T08:43:22Z</time>
      </trkpt>
      <trkpt lat="60.31497" lon="7.61184">
        <ele>1217.17</ele>
        <time>2019-04-04T08:43:26Z</time>
      </trkpt>
      <trkpt lat="60.31522" lon="7.61153">
        <ele>1217.17</ele>
        <time>2019-04-04T08:43:30Z</time>
      </trkpt>
      <trkpt lat="60.31555" lon="7.61083">
        <ele>1217.65</ele>
        <time>2019-04-04T08:43:35Z</time>
      </trkpt>
      <trkpt lat="60.3158" lon="7.61038">
        <ele>1217.65</ele>
        <time>2019-04-04T08:43:39Z</time>
      </trkpt>
      <trkpt lat="60.31592" lon="7.61021">
        <ele>1217.65</ele>
        <time>2019-04-04T08:43:41Z</time>
      </trkpt>
      <trkpt lat="60.31597" lon="7.61017">
        <ele>1216.21</ele>
        <time>2019-04-04T08:43:42Z</time>
      </trkpt>
      <trkpt lat="60.316" lon="7.61015">
        <ele>1216.21</ele>
        <time>2019-04-04T08:43:43Z</time>
      </trkpt>
      <trkpt lat="60.31603" lon="7.61011">
        <ele>1215.24</ele>
        <time>2019-04-04T08:43:44Z</time>
      </trkpt>
      <trkpt lat="60.31605" lon="7.61006">
        <ele>1214.76</ele>
        <time>2019-04-04T08:43:45Z</time>
      </trkpt>
      <trkpt lat="60.31607" lon="7.61">
        <ele>1214.28</ele>
        <time>2019-04-04T08:43:46Z</time>
      </trkpt>
      <trkpt lat="60.31609" lon="7.60994">
        <ele>1214.28</ele>
        <time>2019-04-04T08:43:47Z</time>
      </trkpt>
      <trkpt lat="60.31613" lon="7.60973">
        <ele>1214.28</ele>
        <time>2019-04-04T08:43:51Z</time>
      </trkpt>
      <trkpt lat="60.31615" lon="7.6097">
        <ele>1214.28</ele>
        <time>2019-04-04T08:43:52Z</time>
      </trkpt>
      <trkpt lat="60.31616" lon="7.60968">
        <ele>1214.28</ele>
        <time>2019-04-04T08:43:53Z</time>
      </trkpt>
      <trkpt lat="60.3164" lon="7.6094">
        <ele>1214.28</ele>
        <time>2019-04-04T08:44:05Z</time>
      </trkpt>
      <trkpt lat="60.3165" lon="7.60926">
        <ele>1215.72</ele>
        <time>2019-04-04T08:44:09Z</time>
      </trkpt>
      <trkpt lat="60.31666" lon="7.60908">
        <ele>1217.17</ele>
        <time>2019-04-04T08:44:15Z</time>
      </trkpt>
      <trkpt lat="60.31667" lon="7.60907">
        <ele>1215.24</ele>
        <time>2019-04-04T08:44:20Z</time>
      </trkpt>
      <trkpt lat="60.31668" lon="7.60904">
        <ele>1215.24</ele>
        <time>2019-04-04T08:44:21Z</time>
      </trkpt>
      <trkpt lat="60.31669" lon="7.609">
        <ele>1215.24</ele>
        <time>2019-04-04T08:44:22Z</time>
      </trkpt>
      <trkpt lat="60.3167" lon="7.60895">
        <ele>1214.76</ele>
        <time>2019-04-04T08:44:23Z</time>
      </trkpt>
      <trkpt lat="60.31671" lon="7.60888">
        <ele>1214.76</ele>
        <time>2019-04-04T08:44:24Z</time>
      </trkpt>
      <trkpt lat="60.31673" lon="7.60881">
        <ele>1214.28</ele>
        <time>2019-04-04T08:44:25Z</time>
      </trkpt>
      <trkpt lat="60.31675" lon="7.60874">
        <ele>1214.28</ele>
        <time>2019-04-04T08:44:26Z</time>
      </trkpt>
      <trkpt lat="60.31677" lon="7.60869">
        <ele>1214.28</ele>
        <time>2019-04-04T08:44:27Z</time>
      </trkpt>
      <trkpt lat="60.3168" lon="7.60865">
        <ele>1214.28</ele>
        <time>2019-04-04T08:44:28Z</time>
      </trkpt>
      <trkpt lat="60.31682" lon="7.60859">
        <ele>1214.28</ele>
        <time>2019-04-04T08:44:29Z</time>
      </trkpt>
      <trkpt lat="60.31682" lon="7.60853">
        <ele>1211.4</ele>
        <time>2019-04-04T08:44:30Z</time>
      </trkpt>
      <trkpt lat="60.31693" lon="7.6081">
        <ele>1212.84</ele>
        <time>2019-04-04T08:44:37Z</time>
      </trkpt>
      <trkpt lat="60.31705" lon="7.60794">
        <ele>1213.32</ele>
        <time>2019-04-04T08:44:42Z</time>
      </trkpt>
      <trkpt lat="60.31726" lon="7.60775">
        <ele>1212.36</ele>
        <time>2019-04-04T08:44:50Z</time>
      </trkpt>
      <trkpt lat="60.31728" lon="7.60768">
        <ele>1210.44</ele>
        <time>2019-04-04T08:44:51Z</time>
      </trkpt>
      <trkpt lat="60.31728" lon="7.60761">
        <ele>1210.44</ele>
        <time>2019-04-04T08:44:52Z</time>
      </trkpt>
      <trkpt lat="60.31729" lon="7.60753">
        <ele>1210.44</ele>
        <time>2019-04-04T08:44:53Z</time>
      </trkpt>
      <trkpt lat="60.31731" lon="7.60745">
        <ele>1210.44</ele>
        <time>2019-04-04T08:44:54Z</time>
      </trkpt>
      <trkpt lat="60.31734" lon="7.60737">
        <ele>1210.44</ele>
        <time>2019-04-04T08:44:55Z</time>
      </trkpt>
      <trkpt lat="60.31739" lon="7.60731">
        <ele>1210.44</ele>
        <time>2019-04-04T08:44:56Z</time>
      </trkpt>
      <trkpt lat="60.31745" lon="7.60725">
        <ele>1210.44</ele>
        <time>2019-04-04T08:44:57Z</time>
      </trkpt>
      <trkpt lat="60.31751" lon="7.60721">
        <ele>1211.88</ele>
        <time>2019-04-04T08:44:58Z</time>
      </trkpt>
      <trkpt lat="60.31805" lon="7.60686">
        <ele>1209.48</ele>
        <time>2019-04-04T08:45:05Z</time>
      </trkpt>
      <trkpt lat="60.31812" lon="7.6068">
        <ele>1209</ele>
        <time>2019-04-04T08:45:06Z</time>
      </trkpt>
      <trkpt lat="60.31819" lon="7.60671">
        <ele>1209</ele>
        <time>2019-04-04T08:45:07Z</time>
      </trkpt>
      <trkpt lat="60.31826" lon="7.60662">
        <ele>1208.03</ele>
        <time>2019-04-04T08:45:08Z</time>
      </trkpt>
      <trkpt lat="60.31833" lon="7.6065">
        <ele>1208.03</ele>
        <time>2019-04-04T08:45:09Z</time>
      </trkpt>
      <trkpt lat="60.3184" lon="7.60638">
        <ele>1208.03</ele>
        <time>2019-04-04T08:45:10Z</time>
      </trkpt>
      <trkpt lat="60.31855" lon="7.60616">
        <ele>1208.03</ele>
        <time>2019-04-04T08:45:12Z</time>
      </trkpt>
      <trkpt lat="60.3189" lon="7.60578">
        <ele>1206.11</ele>
        <time>2019-04-04T08:45:17Z</time>
      </trkpt>
      <trkpt lat="60.31895" lon="7.60568">
        <ele>1204.19</ele>
        <time>2019-04-04T08:45:18Z</time>
      </trkpt>
      <trkpt lat="60.31897" lon="7.60556">
        <ele>1202.27</ele>
        <time>2019-04-04T08:45:19Z</time>
      </trkpt>
      <trkpt lat="60.31897" lon="7.60545">
        <ele>1202.27</ele>
        <time>2019-04-04T08:45:20Z</time>
      </trkpt>
      <trkpt lat="60.31889" lon="7.60524">
        <ele>1200.34</ele>
        <time>2019-04-04T08:45:23Z</time>
      </trkpt>
      <trkpt lat="60.31877" lon="7.60505">
        <ele>1202.27</ele>
        <time>2019-04-04T08:45:27Z</time>
      </trkpt>
      <trkpt lat="60.31875" lon="7.60497">
        <ele>1202.27</ele>
        <time>2019-04-04T08:45:28Z</time>
      </trkpt>
      <trkpt lat="60.31875" lon="7.6049">
        <ele>1202.75</ele>
        <time>2019-04-04T08:45:29Z</time>
      </trkpt>
      <trkpt lat="60.31875" lon="7.60482">
        <ele>1202.75</ele>
        <time>2019-04-04T08:45:30Z</time>
      </trkpt>
      <trkpt lat="60.31877" lon="7.60475">
        <ele>1202.75</ele>
        <time>2019-04-04T08:45:31Z</time>
      </trkpt>
      <trkpt lat="60.3188" lon="7.60469">
        <ele>1203.23</ele>
        <time>2019-04-04T08:45:32Z</time>
      </trkpt>
      <trkpt lat="60.31884" lon="7.60462">
        <ele>1203.71</ele>
        <time>2019-04-04T08:45:33Z</time>
      </trkpt>
      <trkpt lat="60.31889" lon="7.60455">
        <ele>1203.71</ele>
        <time>2019-04-04T08:45:34Z</time>
      </trkpt>
      <trkpt lat="60.31932" lon="7.60381">
        <ele>1201.3</ele>
        <time>2019-04-04T08:45:41Z</time>
      </trkpt>
      <trkpt lat="60.3196" lon="7.60322">
        <ele>1197.94</ele>
        <time>2019-04-04T08:45:45Z</time>
      </trkpt>
      <trkpt lat="60.31974" lon="7.60294">
        <ele>1196.98</ele>
        <time>2019-04-04T08:45:47Z</time>
      </trkpt>
      <trkpt lat="60.31988" lon="7.6027">
        <ele>1196.02</ele>
        <time>2019-04-04T08:45:49Z</time>
      </trkpt>
      <trkpt lat="60.31996" lon="7.60261">
        <ele>1196.02</ele>
        <time>2019-04-04T08:45:50Z</time>
      </trkpt>
      <trkpt lat="60.32002" lon="7.60253">
        <ele>1195.06</ele>
        <time>2019-04-04T08:45:51Z</time>
      </trkpt>
      <trkpt lat="60.32008" lon="7.60242">
        <ele>1194.09</ele>
        <time>2019-04-04T08:45:52Z</time>
      </trkpt>
      <trkpt lat="60.32011" lon="7.60229">
        <ele>1192.65</ele>
        <time>2019-04-04T08:45:53Z</time>
      </trkpt>
      <trkpt lat="60.32008" lon="7.60203">
        <ele>1188.81</ele>
        <time>2019-04-04T08:45:55Z</time>
      </trkpt>
      <trkpt lat="60.31988" lon="7.60165">
        <ele>1191.21</ele>
        <time>2019-04-04T08:46:00Z</time>
      </trkpt>
      <trkpt lat="60.31985" lon="7.60147">
        <ele>1192.17</ele>
        <time>2019-04-04T08:46:02Z</time>
      </trkpt>
      <trkpt lat="60.31983" lon="7.60134">
        <ele>1193.13</ele>
        <time>2019-04-04T08:46:04Z</time>
      </trkpt>
      <trkpt lat="60.31979" lon="7.6012">
        <ele>1193.61</ele>
        <time>2019-04-04T08:46:11Z</time>
      </trkpt>
      <trkpt lat="60.31978" lon="7.60117">
        <ele>1194.58</ele>
        <time>2019-04-04T08:46:21Z</time>
      </trkpt>
      <trkpt lat="60.31985" lon="7.60078">
        <ele>1196.02</ele>
        <time>2019-04-04T08:46:26Z</time>
      </trkpt>
      <trkpt lat="60.31994" lon="7.60023">
        <ele>1196.98</ele>
        <time>2019-04-04T08:46:30Z</time>
      </trkpt>
      <trkpt lat="60.32" lon="7.59999">
        <ele>1197.46</ele>
        <time>2019-04-04T08:46:32Z</time>
      </trkpt>
      <trkpt lat="60.32004" lon="7.59968">
        <ele>1197.46</ele>
        <time>2019-04-04T08:46:39Z</time>
      </trkpt>
      <trkpt lat="60.32004" lon="7.59962">
        <ele>1197.94</ele>
        <time>2019-04-04T08:46:49Z</time>
      </trkpt>
      <trkpt lat="60.32004" lon="7.5996">
        <ele>1197.94</ele>
        <time>2019-04-04T08:46:58Z</time>
      </trkpt>
      <trkpt lat="60.32002" lon="7.59952">
        <ele>1197.94</ele>
        <time>2019-04-04T08:47:10Z</time>
      </trkpt>
      <trkpt lat="60.31998" lon="7.59941">
        <ele>1196.98</ele>
        <time>2019-04-04T08:47:22Z</time>
      </trkpt>
      <trkpt lat="60.31998" lon="7.59917">
        <ele>1199.86</ele>
        <time>2019-04-04T08:47:32Z</time>
      </trkpt>
      <trkpt lat="60.31997" lon="7.59914">
        <ele>1198.42</ele>
        <time>2019-04-04T08:47:51Z</time>
      </trkpt>
      <trkpt lat="60.31995" lon="7.59877">
        <ele>1197.94</ele>
        <time>2019-04-04T08:48:00Z</time>
      </trkpt>
      <trkpt lat="60.32008" lon="7.59845">
        <ele>1199.38</ele>
        <time>2019-04-04T08:48:04Z</time>
      </trkpt>
      <trkpt lat="60.32014" lon="7.59836">
        <ele>1199.38</ele>
        <time>2019-04-04T08:48:05Z</time>
      </trkpt>
      <trkpt lat="60.32039" lon="7.59777">
        <ele>1196.5</ele>
        <time>2019-04-04T08:48:10Z</time>
      </trkpt>
      <trkpt lat="60.32036" lon="7.59734">
        <ele>1195.06</ele>
        <time>2019-04-04T08:48:13Z</time>
      </trkpt>
      <trkpt lat="60.3203" lon="7.59707">
        <ele>1195.06</ele>
        <time>2019-04-04T08:48:15Z</time>
      </trkpt>
      <trkpt lat="60.32025" lon="7.59679">
        <ele>1195.06</ele>
        <time>2019-04-04T08:48:17Z</time>
      </trkpt>
      <trkpt lat="60.32035" lon="7.59612">
        <ele>1196.5</ele>
        <time>2019-04-04T08:48:22Z</time>
      </trkpt>
      <trkpt lat="60.32039" lon="7.59581">
        <ele>1196.02</ele>
        <time>2019-04-04T08:48:24Z</time>
      </trkpt>
      <trkpt lat="60.3205" lon="7.59457">
        <ele>1192.65</ele>
        <time>2019-04-04T08:48:31Z</time>
      </trkpt>
      <trkpt lat="60.32054" lon="7.59422">
        <ele>1192.17</ele>
        <time>2019-04-04T08:48:33Z</time>
      </trkpt>
      <trkpt lat="60.32059" lon="7.59387">
        <ele>1192.17</ele>
        <time>2019-04-04T08:48:35Z</time>
      </trkpt>
      <trkpt lat="60.3207" lon="7.59311">
        <ele>1191.69</ele>
        <time>2019-04-04T08:48:39Z</time>
      </trkpt>
      <trkpt lat="60.32109" lon="7.59182">
        <ele>1190.25</ele>
        <time>2019-04-04T08:48:46Z</time>
      </trkpt>
      <trkpt lat="60.32126" lon="7.5912">
        <ele>1189.29</ele>
        <time>2019-04-04T08:48:49Z</time>
      </trkpt>
      <trkpt lat="60.32149" lon="7.59035">
        <ele>1185.44</ele>
        <time>2019-04-04T08:48:53Z</time>
      </trkpt>
      <trkpt lat="60.32155" lon="7.59016">
        <ele>1185.44</ele>
        <time>2019-04-04T08:48:54Z</time>
      </trkpt>
      <trkpt lat="60.32182" lon="7.5894">
        <ele>1184</ele>
        <time>2019-04-04T08:48:58Z</time>
      </trkpt>
      <trkpt lat="60.32225" lon="7.58854">
        <ele>1184</ele>
        <time>2019-04-04T08:49:05Z</time>
      </trkpt>
      <trkpt lat="60.32238" lon="7.58836">
        <ele>1183.52</ele>
        <time>2019-04-04T08:49:07Z</time>
      </trkpt>
      <trkpt lat="60.3225" lon="7.58816">
        <ele>1182.56</ele>
        <time>2019-04-04T08:49:09Z</time>
      </trkpt>
      <trkpt lat="60.3226" lon="7.5879">
        <ele>1181.6</ele>
        <time>2019-04-04T08:49:11Z</time>
      </trkpt>
      <trkpt lat="60.32284" lon="7.58713">
        <ele>1179.19</ele>
        <time>2019-04-04T08:49:17Z</time>
      </trkpt>
      <trkpt lat="60.32301" lon="7.5864">
        <ele>1177.75</ele>
        <time>2019-04-04T08:49:24Z</time>
      </trkpt>
      <trkpt lat="60.3232" lon="7.58565">
        <ele>1177.27</ele>
        <time>2019-04-04T08:49:32Z</time>
      </trkpt>
      <trkpt lat="60.32327" lon="7.58553">
        <ele>1178.71</ele>
        <time>2019-04-04T08:49:34Z</time>
      </trkpt>
      <trkpt lat="60.3234" lon="7.5854">
        <ele>1178.71</ele>
        <time>2019-04-04T08:49:37Z</time>
      </trkpt>
      <trkpt lat="60.32351" lon="7.58525">
        <ele>1177.27</ele>
        <time>2019-04-04T08:49:39Z</time>
      </trkpt>
      <trkpt lat="60.32358" lon="7.58516">
        <ele>1176.31</ele>
        <time>2019-04-04T08:49:40Z</time>
      </trkpt>
      <trkpt lat="60.32374" lon="7.58499">
        <ele>1175.35</ele>
        <time>2019-04-04T08:49:42Z</time>
      </trkpt>
      <trkpt lat="60.3239" lon="7.58471">
        <ele>1172.95</ele>
        <time>2019-04-04T08:49:44Z</time>
      </trkpt>
      <trkpt lat="60.32453" lon="7.58382">
        <ele>1173.43</ele>
        <time>2019-04-04T08:49:51Z</time>
      </trkpt>
      <trkpt lat="60.3248" lon="7.58353">
        <ele>1171.98</ele>
        <time>2019-04-04T08:49:54Z</time>
      </trkpt>
      <trkpt lat="60.32514" lon="7.58318">
        <ele>1171.98</ele>
        <time>2019-04-04T08:49:58Z</time>
      </trkpt>
      <trkpt lat="60.32527" lon="7.58304">
        <ele>1171.02</ele>
        <time>2019-04-04T08:50:00Z</time>
      </trkpt>
      <trkpt lat="60.3255" lon="7.58294">
        <ele>1171.98</ele>
        <time>2019-04-04T08:50:04Z</time>
      </trkpt>
      <trkpt lat="60.32557" lon="7.58296">
        <ele>1174.39</ele>
        <time>2019-04-04T08:50:06Z</time>
      </trkpt>
      <trkpt lat="60.32561" lon="7.58298">
        <ele>1175.35</ele>
        <time>2019-04-04T08:50:10Z</time>
      </trkpt>
      <trkpt lat="60.32564" lon="7.58289">
        <ele>1174.39</ele>
        <time>2019-04-04T08:50:13Z</time>
      </trkpt>
      <trkpt lat="60.32567" lon="7.58278">
        <ele>1172.47</ele>
        <time>2019-04-04T08:50:15Z</time>
      </trkpt>
      <trkpt lat="60.3258" lon="7.58217">
        <ele>1171.98</ele>
        <time>2019-04-04T08:50:27Z</time>
      </trkpt>
      <trkpt lat="60.3259" lon="7.58194">
        <ele>1170.06</ele>
        <time>2019-04-04T08:50:30Z</time>
      </trkpt>
      <trkpt lat="60.32609" lon="7.58172">
        <ele>1164.29</ele>
        <time>2019-04-04T08:50:33Z</time>
      </trkpt>
      <trkpt lat="60.32618" lon="7.58169">
        <ele>1164.29</ele>
        <time>2019-04-04T08:50:34Z</time>
      </trkpt>
      <trkpt lat="60.32626" lon="7.58166">
        <ele>1163.81</ele>
        <time>2019-04-04T08:50:35Z</time>
      </trkpt>
      <trkpt lat="60.32657" lon="7.58153">
        <ele>1166.22</ele>
        <time>2019-04-04T08:50:40Z</time>
      </trkpt>
      <trkpt lat="60.32672" lon="7.58151">
        <ele>1167.66</ele>
        <time>2019-04-04T08:50:43Z</time>
      </trkpt>
      <trkpt lat="60.32678" lon="7.5815">
        <ele>1168.14</ele>
        <time>2019-04-04T08:50:44Z</time>
      </trkpt>
      <trkpt lat="60.32688" lon="7.58147">
        <ele>1168.62</ele>
        <time>2019-04-04T08:50:46Z</time>
      </trkpt>
      <trkpt lat="60.32714" lon="7.58146">
        <ele>1170.54</ele>
        <time>2019-04-04T08:50:51Z</time>
      </trkpt>
      <trkpt lat="60.32738" lon="7.58128">
        <ele>1168.14</ele>
        <time>2019-04-04T08:50:55Z</time>
      </trkpt>
      <trkpt lat="60.3276" lon="7.58104">
        <ele>1169.58</ele>
        <time>2019-04-04T08:51:00Z</time>
      </trkpt>
      <trkpt lat="60.32788" lon="7.58091">
        <ele>1172.47</ele>
        <time>2019-04-04T08:51:06Z</time>
      </trkpt>
      <trkpt lat="60.32801" lon="7.58085">
        <ele>1172.47</ele>
        <time>2019-04-04T08:51:09Z</time>
      </trkpt>
      <trkpt lat="60.3282" lon="7.58075">
        <ele>1172.95</ele>
        <time>2019-04-04T08:51:13Z</time>
      </trkpt>
      <trkpt lat="60.32834" lon="7.58069">
        <ele>1175.35</ele>
        <time>2019-04-04T08:51:16Z</time>
      </trkpt>
      <trkpt lat="60.32856" lon="7.58068">
        <ele>1176.79</ele>
        <time>2019-04-04T08:51:20Z</time>
      </trkpt>
      <trkpt lat="60.32873" lon="7.58059">
        <ele>1177.75</ele>
        <time>2019-04-04T08:51:23Z</time>
      </trkpt>
      <trkpt lat="60.32889" lon="7.58048">
        <ele>1178.71</ele>
        <time>2019-04-04T08:51:26Z</time>
      </trkpt>
      <trkpt lat="60.32946" lon="7.58036">
        <ele>1176.79</ele>
        <time>2019-04-04T08:51:34Z</time>
      </trkpt>
      <trkpt lat="60.3297" lon="7.58028">
        <ele>1175.35</ele>
        <time>2019-04-04T08:51:37Z</time>
      </trkpt>
      <trkpt lat="60.32978" lon="7.58024">
        <ele>1175.35</ele>
        <time>2019-04-04T08:51:38Z</time>
      </trkpt>
      <trkpt lat="60.33036" lon="7.58009">
        <ele>1177.75</ele>
        <time>2019-04-04T08:51:46Z</time>
      </trkpt>
      <trkpt lat="60.33049" lon="7.58008">
        <ele>1178.23</ele>
        <time>2019-04-04T08:51:48Z</time>
      </trkpt>
      <trkpt lat="60.33075" lon="7.57992">
        <ele>1180.16</ele>
        <time>2019-04-04T08:51:52Z</time>
      </trkpt>
      <trkpt lat="60.33101" lon="7.57958">
        <ele>1182.08</ele>
        <time>2019-04-04T08:51:56Z</time>
      </trkpt>
      <trkpt lat="60.33121" lon="7.57931">
        <ele>1183.52</ele>
        <time>2019-04-04T08:51:59Z</time>
      </trkpt>
      <trkpt lat="60.33134" lon="7.57913">
        <ele>1184.96</ele>
        <time>2019-04-04T08:52:01Z</time>
      </trkpt>
      <trkpt lat="60.33146" lon="7.57895">
        <ele>1186.4</ele>
        <time>2019-04-04T08:52:03Z</time>
      </trkpt>
      <trkpt lat="60.33168" lon="7.57854">
        <ele>1187.85</ele>
        <time>2019-04-04T08:52:07Z</time>
      </trkpt>
      <trkpt lat="60.33191" lon="7.57806">
        <ele>1189.77</ele>
        <time>2019-04-04T08:52:11Z</time>
      </trkpt>
      <trkpt lat="60.33252" lon="7.57685">
        <ele>1191.69</ele>
        <time>2019-04-04T08:52:21Z</time>
      </trkpt>
      <trkpt lat="60.33296" lon="7.57601">
        <ele>1195.06</ele>
        <time>2019-04-04T08:52:29Z</time>
      </trkpt>
      <trkpt lat="60.333" lon="7.57595">
        <ele>1195.06</ele>
        <time>2019-04-04T08:52:30Z</time>
      </trkpt>
      <trkpt lat="60.33304" lon="7.57589">
        <ele>1196.5</ele>
        <time>2019-04-04T08:52:31Z</time>
      </trkpt>
      <trkpt lat="60.33338" lon="7.57546">
        <ele>1199.38</ele>
        <time>2019-04-04T08:52:38Z</time>
      </trkpt>
      <trkpt lat="60.33351" lon="7.5753">
        <ele>1200.82</ele>
        <time>2019-04-04T08:52:40Z</time>
      </trkpt>
      <trkpt lat="60.33366" lon="7.57509">
        <ele>1200.82</ele>
        <time>2019-04-04T08:52:42Z</time>
      </trkpt>
      <trkpt lat="60.3342" lon="7.57412">
        <ele>1201.79</ele>
        <time>2019-04-04T08:52:50Z</time>
      </trkpt>
      <trkpt lat="60.3346" lon="7.57325">
        <ele>1203.71</ele>
        <time>2019-04-04T08:52:58Z</time>
      </trkpt>
      <trkpt lat="60.33465" lon="7.57315">
        <ele>1204.67</ele>
        <time>2019-04-04T08:52:59Z</time>
      </trkpt>
      <trkpt lat="60.33471" lon="7.57306">
        <ele>1204.67</ele>
        <time>2019-04-04T08:53:00Z</time>
      </trkpt>
      <trkpt lat="60.33545" lon="7.57206">
        <ele>1206.59</ele>
        <time>2019-04-04T08:53:12Z</time>
      </trkpt>
      <trkpt lat="60.33598" lon="7.5714">
        <ele>1207.55</ele>
        <time>2019-04-04T08:53:21Z</time>
      </trkpt>
      <trkpt lat="60.33648" lon="7.57096">
        <ele>1208.03</ele>
        <time>2019-04-04T08:53:29Z</time>
      </trkpt>
      <trkpt lat="60.33663" lon="7.57086">
        <ele>1209.48</ele>
        <time>2019-04-04T08:53:32Z</time>
      </trkpt>
      <trkpt lat="60.33673" lon="7.57054">
        <ele>1208.51</ele>
        <time>2019-04-04T08:53:39Z</time>
      </trkpt>
      <trkpt lat="60.33688" lon="7.57013">
        <ele>1208.51</ele>
        <time>2019-04-04T08:53:50Z</time>
      </trkpt>
      <trkpt lat="60.33706" lon="7.56982">
        <ele>1209.48</ele>
        <time>2019-04-04T08:53:57Z</time>
      </trkpt>
      <trkpt lat="60.33729" lon="7.56949">
        <ele>1209.48</ele>
        <time>2019-04-04T08:54:03Z</time>
      </trkpt>
      <trkpt lat="60.33739" lon="7.56928">
        <ele>1209.48</ele>
        <time>2019-04-04T08:54:05Z</time>
      </trkpt>
      <trkpt lat="60.33758" lon="7.56895">
        <ele>1209.48</ele>
        <time>2019-04-04T08:54:08Z</time>
      </trkpt>
      <trkpt lat="60.33777" lon="7.5686">
        <ele>1208.51</ele>
        <time>2019-04-04T08:54:11Z</time>
      </trkpt>
      <trkpt lat="60.338" lon="7.56816">
        <ele>1207.07</ele>
        <time>2019-04-04T08:54:15Z</time>
      </trkpt>
      <trkpt lat="60.33826" lon="7.56789">
        <ele>1208.51</ele>
        <time>2019-04-04T08:54:19Z</time>
      </trkpt>
      <trkpt lat="60.33862" lon="7.56766">
        <ele>1205.63</ele>
        <time>2019-04-04T08:54:24Z</time>
      </trkpt>
      <trkpt lat="60.33896" lon="7.56741">
        <ele>1207.07</ele>
        <time>2019-04-04T08:54:29Z</time>
      </trkpt>
      <trkpt lat="60.33921" lon="7.56727">
        <ele>1208.51</ele>
        <time>2019-04-04T08:54:33Z</time>
      </trkpt>
      <trkpt lat="60.33983" lon="7.56679">
        <ele>1205.63</ele>
        <time>2019-04-04T08:54:41Z</time>
      </trkpt>
      <trkpt lat="60.34021" lon="7.5663">
        <ele>1202.75</ele>
        <time>2019-04-04T08:54:45Z</time>
      </trkpt>
      <trkpt lat="60.34074" lon="7.56546">
        <ele>1202.27</ele>
        <time>2019-04-04T08:54:52Z</time>
      </trkpt>
      <trkpt lat="60.34148" lon="7.56432">
        <ele>1202.75</ele>
        <time>2019-04-04T08:55:01Z</time>
      </trkpt>
      <trkpt lat="60.34242" lon="7.56274">
        <ele>1200.34</ele>
        <time>2019-04-04T08:55:13Z</time>
      </trkpt>
      <trkpt lat="60.34258" lon="7.56248">
        <ele>1199.38</ele>
        <time>2019-04-04T08:55:15Z</time>
      </trkpt>
      <trkpt lat="60.3433" lon="7.5615">
        <ele>1201.79</ele>
        <time>2019-04-04T08:55:25Z</time>
      </trkpt>
      <trkpt lat="60.34382" lon="7.56066">
        <ele>1204.67</ele>
        <time>2019-04-04T08:55:33Z</time>
      </trkpt>
      <trkpt lat="60.34401" lon="7.56041">
        <ele>1208.03</ele>
        <time>2019-04-04T08:55:36Z</time>
      </trkpt>
      <trkpt lat="60.34419" lon="7.56013">
        <ele>1213.32</ele>
        <time>2019-04-04T08:55:40Z</time>
      </trkpt>
      <trkpt lat="60.34427" lon="7.55999">
        <ele>1214.76</ele>
        <time>2019-04-04T08:55:42Z</time>
      </trkpt>
      <trkpt lat="60.3443" lon="7.55992">
        <ele>1216.21</ele>
        <time>2019-04-04T08:55:43Z</time>
      </trkpt>
      <trkpt lat="60.3444" lon="7.55975">
        <ele>1218.61</ele>
        <time>2019-04-04T08:55:46Z</time>
      </trkpt>
      <trkpt lat="60.34445" lon="7.55965">
        <ele>1220.05</ele>
        <time>2019-04-04T08:55:48Z</time>
      </trkpt>
      <trkpt lat="60.34453" lon="7.55928">
        <ele>1219.09</ele>
        <time>2019-04-04T08:55:56Z</time>
      </trkpt>
      <trkpt lat="60.34451" lon="7.55909">
        <ele>1217.17</ele>
        <time>2019-04-04T08:56:04Z</time>
      </trkpt>
      <trkpt lat="60.34451" lon="7.55906">
        <ele>1217.17</ele>
        <time>2019-04-04T08:56:06Z</time>
      </trkpt>
      <trkpt lat="60.3445" lon="7.55898">
        <ele>1216.69</ele>
        <time>2019-04-04T08:56:10Z</time>
      </trkpt>
      <trkpt lat="60.34448" lon="7.55885">
        <ele>1217.17</ele>
        <time>2019-04-04T08:56:19Z</time>
      </trkpt>
      <trkpt lat="60.34448" lon="7.55885">
        <ele>1216.21</ele>
        <time>2019-04-04T08:56:21Z</time>
      </trkpt>
      <trkpt lat="60.34446" lon="7.55884">
        <ele>1213.8</ele>
        <time>2019-04-04T08:56:25Z</time>
      </trkpt>
      <trkpt lat="60.34445" lon="7.55883">
        <ele>1214.28</ele>
        <time>2019-04-04T08:56:35Z</time>
      </trkpt>
      <trkpt lat="60.34444" lon="7.55881">
        <ele>1217.17</ele>
        <time>2019-04-04T08:56:48Z</time>
      </trkpt>
      <trkpt lat="60.34444" lon="7.55881">
        <ele>1217.17</ele>
        <time>2019-04-04T08:56:49Z</time>
      </trkpt>
      <trkpt lat="60.34443" lon="7.55881">
        <ele>1217.17</ele>
        <time>2019-04-04T08:56:52Z</time>
      </trkpt>
      <trkpt lat="60.34442" lon="7.55876">
        <ele>1215.24</ele>
        <time>2019-04-04T08:56:59Z</time>
      </trkpt>
      <trkpt lat="60.34442" lon="7.55876">
        <ele>1216.69</ele>
        <time>2019-04-04T08:57:04Z</time>
      </trkpt>
      <trkpt lat="60.34442" lon="7.55877">
        <ele>1216.69</ele>
        <time>2019-04-04T08:57:09Z</time>
      </trkpt>
      <trkpt lat="60.34441" lon="7.55875">
        <ele>1215.24</ele>
        <time>2019-04-04T08:57:11Z</time>
      </trkpt>
      <trkpt lat="60.34438" lon="7.55869">
        <ele>1216.69</ele>
        <time>2019-04-04T08:57:22Z</time>
      </trkpt>
      <trkpt lat="60.34437" lon="7.55866">
        <ele>1216.69</ele>
        <time>2019-04-04T08:57:39Z</time>
      </trkpt>
      <trkpt lat="60.34436" lon="7.55859">
        <ele>1215.72</ele>
        <time>2019-04-04T08:57:50Z</time>
      </trkpt>
      <trkpt lat="60.34435" lon="7.55851">
        <ele>1215.24</ele>
        <time>2019-04-04T08:58:00Z</time>
      </trkpt>
      <trkpt lat="60.34434" lon="7.55849">
        <ele>1215.24</ele>
        <time>2019-04-04T08:58:12Z</time>
      </trkpt>
      <trkpt lat="60.34432" lon="7.55841">
        <ele>1216.21</ele>
        <time>2019-04-04T08:58:16Z</time>
      </trkpt>
      <trkpt lat="60.34431" lon="7.55828">
        <ele>1215.24</ele>
        <time>2019-04-04T08:58:23Z</time>
      </trkpt>
      <trkpt lat="60.34445" lon="7.55795">
        <ele>1221.01</ele>
        <time>2019-04-04T08:58:28Z</time>
      </trkpt>
      <trkpt lat="60.34448" lon="7.55789">
        <ele>1221.01</ele>
        <time>2019-04-04T08:58:29Z</time>
      </trkpt>
      <trkpt lat="60.34465" lon="7.55754">
        <ele>1224.38</ele>
        <time>2019-04-04T08:58:37Z</time>
      </trkpt>
      <trkpt lat="60.34472" lon="7.55741">
        <ele>1225.34</ele>
        <time>2019-04-04T08:58:40Z</time>
      </trkpt>
      <trkpt lat="60.34474" lon="7.55735">
        <ele>1225.34</ele>
        <time>2019-04-04T08:58:41Z</time>
      </trkpt>
      <trkpt lat="60.34511" lon="7.55675">
        <ele>1228.7</ele>
        <time>2019-04-04T08:58:50Z</time>
      </trkpt>
      <trkpt lat="60.3455" lon="7.55608">
        <ele>1232.07</ele>
        <time>2019-04-04T08:59:01Z</time>
      </trkpt>
      <trkpt lat="60.3457" lon="7.55576">
        <ele>1234.95</ele>
        <time>2019-04-04T08:59:10Z</time>
      </trkpt>
      <trkpt lat="60.34571" lon="7.55572">
        <ele>1233.99</ele>
        <time>2019-04-04T08:59:22Z</time>
      </trkpt>
      <trkpt lat="60.34571" lon="7.55572">
        <ele>1233.99</ele>
        <time>2019-04-04T08:59:23Z</time>
      </trkpt>
      <trkpt lat="60.3457" lon="7.55572">
        <ele>1233.51</ele>
        <time>2019-04-04T08:59:31Z</time>
      </trkpt>
      <trkpt lat="60.34561" lon="7.55571">
        <ele>1228.7</ele>
        <time>2019-04-04T08:59:35Z</time>
      </trkpt>
      <trkpt lat="60.34554" lon="7.55577">
        <ele>1227.74</ele>
        <time>2019-04-04T08:59:37Z</time>
      </trkpt>
      <trkpt lat="60.34533" lon="7.55605">
        <ele>1223.9</ele>
        <time>2019-04-04T08:59:42Z</time>
      </trkpt>
      <trkpt lat="60.345" lon="7.55656">
        <ele>1221.01</ele>
        <time>2019-04-04T08:59:49Z</time>
      </trkpt>
      <trkpt lat="60.34489" lon="7.55669">
        <ele>1220.05</ele>
        <time>2019-04-04T08:59:51Z</time>
      </trkpt>
      <trkpt lat="60.3446" lon="7.55698">
        <ele>1217.65</ele>
        <time>2019-04-04T08:59:56Z</time>
      </trkpt>
      <trkpt lat="60.34437" lon="7.55716">
        <ele>1213.8</ele>
        <time>2019-04-04T08:59:59Z</time>
      </trkpt>
      <trkpt lat="60.34415" lon="7.55738">
        <ele>1209.96</ele>
        <time>2019-04-04T09:00:02Z</time>
      </trkpt>
      <trkpt lat="60.34408" lon="7.55743">
        <ele>1209.96</ele>
        <time>2019-04-04T09:00:03Z</time>
      </trkpt>
      <trkpt lat="60.34376" lon="7.55766">
        <ele>1207.07</ele>
        <time>2019-04-04T09:00:07Z</time>
      </trkpt>
      <trkpt lat="60.34359" lon="7.55773">
        <ele>1203.71</ele>
        <time>2019-04-04T09:00:09Z</time>
      </trkpt>
      <trkpt lat="60.34302" lon="7.55812">
        <ele>1203.23</ele>
        <time>2019-04-04T09:00:17Z</time>
      </trkpt>
      <trkpt lat="60.34296" lon="7.55815">
        <ele>1203.23</ele>
        <time>2019-04-04T09:00:18Z</time>
      </trkpt>
      <trkpt lat="60.34291" lon="7.5582">
        <ele>1203.23</ele>
        <time>2019-04-04T09:00:19Z</time>
      </trkpt>
      <trkpt lat="60.34286" lon="7.55826">
        <ele>1203.23</ele>
        <time>2019-04-04T09:00:20Z</time>
      </trkpt>
      <trkpt lat="60.3428" lon="7.55832">
        <ele>1201.3</ele>
        <time>2019-04-04T09:00:21Z</time>
      </trkpt>
      <trkpt lat="60.34275" lon="7.55839">
        <ele>1201.3</ele>
        <time>2019-04-04T09:00:22Z</time>
      </trkpt>
      <trkpt lat="60.34241" lon="7.55889">
        <ele>1197.94</ele>
        <time>2019-04-04T09:00:29Z</time>
      </trkpt>
      <trkpt lat="60.34236" lon="7.55896">
        <ele>1197.94</ele>
        <time>2019-04-04T09:00:30Z</time>
      </trkpt>
      <trkpt lat="60.34212" lon="7.55935">
        <ele>1195.54</ele>
        <time>2019-04-04T09:00:35Z</time>
      </trkpt>
      <trkpt lat="60.34207" lon="7.55942">
        <ele>1195.54</ele>
        <time>2019-04-04T09:00:36Z</time>
      </trkpt>
      <trkpt lat="60.34201" lon="7.55949">
        <ele>1195.54</ele>
        <time>2019-04-04T09:00:37Z</time>
      </trkpt>
      <trkpt lat="60.34174" lon="7.55991">
        <ele>1193.61</ele>
        <time>2019-04-04T09:00:42Z</time>
      </trkpt>
      <trkpt lat="60.34154" lon="7.56022">
        <ele>1192.17</ele>
        <time>2019-04-04T09:00:46Z</time>
      </trkpt>
      <trkpt lat="60.34137" lon="7.56039">
        <ele>1190.25</ele>
        <time>2019-04-04T09:00:49Z</time>
      </trkpt>
      <trkpt lat="60.34085" lon="7.56087">
        <ele>1188.81</ele>
        <time>2019-04-04T09:00:58Z</time>
      </trkpt>
      <trkpt lat="60.34079" lon="7.56092">
        <ele>1188.81</ele>
        <time>2019-04-04T09:00:59Z</time>
      </trkpt>
      <trkpt lat="60.34073" lon="7.56096">
        <ele>1188.81</ele>
        <time>2019-04-04T09:01:00Z</time>
      </trkpt>
      <trkpt lat="60.34067" lon="7.56102">
        <ele>1188.81</ele>
        <time>2019-04-04T09:01:01Z</time>
      </trkpt>
      <trkpt lat="60.34062" lon="7.56106">
        <ele>1188.81</ele>
        <time>2019-04-04T09:01:02Z</time>
      </trkpt>
      <trkpt lat="60.34056" lon="7.5611">
        <ele>1188.81</ele>
        <time>2019-04-04T09:01:03Z</time>
      </trkpt>
      <trkpt lat="60.34044" lon="7.56118">
        <ele>1190.25</ele>
        <time>2019-04-04T09:01:05Z</time>
      </trkpt>
      <trkpt lat="60.34039" lon="7.56123">
        <ele>1189.29</ele>
        <time>2019-04-04T09:01:06Z</time>
      </trkpt>
      <trkpt lat="60.34034" lon="7.56128">
        <ele>1189.29</ele>
        <time>2019-04-04T09:01:07Z</time>
      </trkpt>
      <trkpt lat="60.34028" lon="7.56131">
        <ele>1189.29</ele>
        <time>2019-04-04T09:01:08Z</time>
      </trkpt>
      <trkpt lat="60.34022" lon="7.56133">
        <ele>1190.25</ele>
        <time>2019-04-04T09:01:09Z</time>
      </trkpt>
      <trkpt lat="60.33987" lon="7.5616">
        <ele>1193.13</ele>
        <time>2019-04-04T09:01:16Z</time>
      </trkpt>
      <trkpt lat="60.33979" lon="7.56166">
        <ele>1194.58</ele>
        <time>2019-04-04T09:01:18Z</time>
      </trkpt>
      <trkpt lat="60.33975" lon="7.56168">
        <ele>1195.06</ele>
        <time>2019-04-04T09:01:19Z</time>
      </trkpt>
      <trkpt lat="60.33967" lon="7.56172">
        <ele>1195.06</ele>
        <time>2019-04-04T09:01:21Z</time>
      </trkpt>
      <trkpt lat="60.33962" lon="7.56174">
        <ele>1195.54</ele>
        <time>2019-04-04T09:01:22Z</time>
      </trkpt>
      <trkpt lat="60.33951" lon="7.56178">
        <ele>1196.5</ele>
        <time>2019-04-04T09:01:24Z</time>
      </trkpt>
      <trkpt lat="60.3394" lon="7.56183">
        <ele>1197.46</ele>
        <time>2019-04-04T09:01:26Z</time>
      </trkpt>
      <trkpt lat="60.33917" lon="7.56186">
        <ele>1197.94</ele>
        <time>2019-04-04T09:01:30Z</time>
      </trkpt>
      <trkpt lat="60.33901" lon="7.56186">
        <ele>1196.02</ele>
        <time>2019-04-04T09:01:33Z</time>
      </trkpt>
      <trkpt lat="60.33884" lon="7.56186">
        <ele>1195.54</ele>
        <time>2019-04-04T09:01:36Z</time>
      </trkpt>
      <trkpt lat="60.33863" lon="7.56187">
        <ele>1195.06</ele>
        <time>2019-04-04T09:01:39Z</time>
      </trkpt>
      <trkpt lat="60.33816" lon="7.56221">
        <ele>1194.09</ele>
        <time>2019-04-04T09:01:46Z</time>
      </trkpt>
      <trkpt lat="60.33803" lon="7.56231">
        <ele>1192.17</ele>
        <time>2019-04-04T09:01:48Z</time>
      </trkpt>
      <trkpt lat="60.33797" lon="7.56238">
        <ele>1192.17</ele>
        <time>2019-04-04T09:01:49Z</time>
      </trkpt>
      <trkpt lat="60.33786" lon="7.56251">
        <ele>1190.73</ele>
        <time>2019-04-04T09:01:51Z</time>
      </trkpt>
      <trkpt lat="60.3378" lon="7.56257">
        <ele>1189.29</ele>
        <time>2019-04-04T09:01:52Z</time>
      </trkpt>
      <trkpt lat="60.33774" lon="7.56262">
        <ele>1189.29</ele>
        <time>2019-04-04T09:01:53Z</time>
      </trkpt>
      <trkpt lat="60.33761" lon="7.56271">
        <ele>1190.73</ele>
        <time>2019-04-04T09:01:55Z</time>
      </trkpt>
      <trkpt lat="60.3373" lon="7.56297">
        <ele>1189.29</ele>
        <time>2019-04-04T09:02:00Z</time>
      </trkpt>
      <trkpt lat="60.33697" lon="7.56328">
        <ele>1189.29</ele>
        <time>2019-04-04T09:02:06Z</time>
      </trkpt>
      <trkpt lat="60.33692" lon="7.56332">
        <ele>1189.29</ele>
        <time>2019-04-04T09:02:07Z</time>
      </trkpt>
      <trkpt lat="60.33667" lon="7.56347">
        <ele>1185.92</ele>
        <time>2019-04-04T09:02:11Z</time>
      </trkpt>
      <trkpt lat="60.33621" lon="7.5638">
        <ele>1183.04</ele>
        <time>2019-04-04T09:02:18Z</time>
      </trkpt>
      <trkpt lat="60.33606" lon="7.56391">
        <ele>1184.48</ele>
        <time>2019-04-04T09:02:20Z</time>
      </trkpt>
      <trkpt lat="60.33598" lon="7.56397">
        <ele>1184.48</ele>
        <time>2019-04-04T09:02:21Z</time>
      </trkpt>
      <trkpt lat="60.33583" lon="7.56411">
        <ele>1181.12</ele>
        <time>2019-04-04T09:02:23Z</time>
      </trkpt>
      <trkpt lat="60.33576" lon="7.56416">
        <ele>1181.12</ele>
        <time>2019-04-04T09:02:24Z</time>
      </trkpt>
      <trkpt lat="60.33556" lon="7.56432">
        <ele>1177.27</ele>
        <time>2019-04-04T09:02:27Z</time>
      </trkpt>
      <trkpt lat="60.33549" lon="7.56436">
        <ele>1177.27</ele>
        <time>2019-04-04T09:02:28Z</time>
      </trkpt>
      <trkpt lat="60.335" lon="7.56463">
        <ele>1179.67</ele>
        <time>2019-04-04T09:02:35Z</time>
      </trkpt>
      <trkpt lat="60.33487" lon="7.56472">
        <ele>1176.79</ele>
        <time>2019-04-04T09:02:37Z</time>
      </trkpt>
      <trkpt lat="60.3344" lon="7.56496">
        <ele>1174.87</ele>
        <time>2019-04-04T09:02:44Z</time>
      </trkpt>
      <trkpt lat="60.33388" lon="7.56525">
        <ele>1174.87</ele>
        <time>2019-04-04T09:02:53Z</time>
      </trkpt>
      <trkpt lat="60.33366" lon="7.56529">
        <ele>1176.79</ele>
        <time>2019-04-04T09:02:58Z</time>
      </trkpt>
      <trkpt lat="60.33339" lon="7.56532">
        <ele>1175.83</ele>
        <time>2019-04-04T09:03:04Z</time>
      </trkpt>
      <trkpt lat="60.33288" lon="7.56573">
        <ele>1175.83</ele>
        <time>2019-04-04T09:03:15Z</time>
      </trkpt>
      <trkpt lat="60.33275" lon="7.56587">
        <ele>1175.35</ele>
        <time>2019-04-04T09:03:18Z</time>
      </trkpt>
      <trkpt lat="60.33261" lon="7.56594">
        <ele>1173.43</ele>
        <time>2019-04-04T09:03:21Z</time>
      </trkpt>
      <trkpt lat="60.3324" lon="7.56611">
        <ele>1171.98</ele>
        <time>2019-04-04T09:03:25Z</time>
      </trkpt>
      <trkpt lat="60.33224" lon="7.56624">
        <ele>1169.58</ele>
        <time>2019-04-04T09:03:28Z</time>
      </trkpt>
      <trkpt lat="60.33212" lon="7.5663">
        <ele>1169.1</ele>
        <time>2019-04-04T09:03:30Z</time>
      </trkpt>
      <trkpt lat="60.33199" lon="7.56638">
        <ele>1168.14</ele>
        <time>2019-04-04T09:03:32Z</time>
      </trkpt>
      <trkpt lat="60.33164" lon="7.5667">
        <ele>1163.81</ele>
        <time>2019-04-04T09:03:38Z</time>
      </trkpt>
      <trkpt lat="60.33158" lon="7.56676">
        <ele>1163.81</ele>
        <time>2019-04-04T09:03:39Z</time>
      </trkpt>
      <trkpt lat="60.33147" lon="7.56685">
        <ele>1159.97</ele>
        <time>2019-04-04T09:03:41Z</time>
      </trkpt>
      <trkpt lat="60.3314" lon="7.56689">
        <ele>1159.97</ele>
        <time>2019-04-04T09:03:42Z</time>
      </trkpt>
      <trkpt lat="60.33092" lon="7.56711">
        <ele>1159.01</ele>
        <time>2019-04-04T09:03:49Z</time>
      </trkpt>
      <trkpt lat="60.33065" lon="7.56733">
        <ele>1159.97</ele>
        <time>2019-04-04T09:03:54Z</time>
      </trkpt>
      <trkpt lat="60.33052" lon="7.56738">
        <ele>1164.29</ele>
        <time>2019-04-04T09:03:59Z</time>
      </trkpt>
      <trkpt lat="60.33048" lon="7.56731">
        <ele>1161.89</ele>
        <time>2019-04-04T09:04:07Z</time>
      </trkpt>
      <trkpt lat="60.33047" lon="7.56728">
        <ele>1162.37</ele>
        <time>2019-04-04T09:04:11Z</time>
      </trkpt>
      <trkpt lat="60.33056" lon="7.56728">
        <ele>1164.29</ele>
        <time>2019-04-04T09:04:17Z</time>
      </trkpt>
      <trkpt lat="60.3306" lon="7.56735">
        <ele>1164.29</ele>
        <time>2019-04-04T09:04:25Z</time>
      </trkpt>
      <trkpt lat="60.33061" lon="7.56737">
        <ele>1164.29</ele>
        <time>2019-04-04T09:04:51Z</time>
      </trkpt>
      <trkpt lat="60.33061" lon="7.56737">
        <ele>1164.29</ele>
        <time>2019-04-04T09:05:11Z</time>
      </trkpt>
      <trkpt lat="60.33057" lon="7.56731">
        <ele>1159.01</ele>
        <time>2019-04-04T09:05:15Z</time>
      </trkpt>
      <trkpt lat="60.33054" lon="7.56733">
        <ele>1160.45</ele>
        <time>2019-04-04T09:05:16Z</time>
      </trkpt>
      <trkpt lat="60.33045" lon="7.56738">
        <ele>1160.45</ele>
        <time>2019-04-04T09:05:19Z</time>
      </trkpt>
      <trkpt lat="60.33027" lon="7.56758">
        <ele>1162.37</ele>
        <time>2019-04-04T09:05:24Z</time>
      </trkpt>
      <trkpt lat="60.33012" lon="7.56779">
        <ele>1162.37</ele>
        <time>2019-04-04T09:05:29Z</time>
      </trkpt>
      <trkpt lat="60.32992" lon="7.56813">
        <ele>1160.45</ele>
        <time>2019-04-04T09:05:36Z</time>
      </trkpt>
      <trkpt lat="60.32982" lon="7.56821">
        <ele>1159.97</ele>
        <time>2019-04-04T09:05:39Z</time>
      </trkpt>
      <trkpt lat="60.32968" lon="7.56845">
        <ele>1161.41</ele>
        <time>2019-04-04T09:05:46Z</time>
      </trkpt>
      <trkpt lat="60.32965" lon="7.5684">
        <ele>1161.41</ele>
        <time>2019-04-04T09:05:48Z</time>
      </trkpt>
      <trkpt lat="60.32966" lon="7.56836">
        <ele>1161.41</ele>
        <time>2019-04-04T09:05:49Z</time>
      </trkpt>
      <trkpt lat="60.32969" lon="7.56834">
        <ele>1162.37</ele>
        <time>2019-04-04T09:05:50Z</time>
      </trkpt>
      <trkpt lat="60.32977" lon="7.56836">
        <ele>1163.81</ele>
        <time>2019-04-04T09:05:52Z</time>
      </trkpt>
      <trkpt lat="60.32993" lon="7.56842">
        <ele>1164.77</ele>
        <time>2019-04-04T09:05:58Z</time>
      </trkpt>
      <trkpt lat="60.33006" lon="7.56839">
        <ele>1165.26</ele>
        <time>2019-04-04T09:06:02Z</time>
      </trkpt>
      <trkpt lat="60.33012" lon="7.56841">
        <ele>1165.26</ele>
        <time>2019-04-04T09:06:04Z</time>
      </trkpt>
      <trkpt lat="60.33035" lon="7.56831">
        <ele>1165.74</ele>
        <time>2019-04-04T09:06:12Z</time>
      </trkpt>
      <trkpt lat="60.33063" lon="7.56825">
        <ele>1165.74</ele>
        <time>2019-04-04T09:06:18Z</time>
      </trkpt>
      <trkpt lat="60.33092" lon="7.56838">
        <ele>1166.22</ele>
        <time>2019-04-04T09:06:24Z</time>
      </trkpt>
      <trkpt lat="60.33113" lon="7.56847">
        <ele>1165.74</ele>
        <time>2019-04-04T09:06:30Z</time>
      </trkpt>
      <trkpt lat="60.33136" lon="7.56853">
        <ele>1166.7</ele>
        <time>2019-04-04T09:06:36Z</time>
      </trkpt>
      <trkpt lat="60.33162" lon="7.56853">
        <ele>1167.66</ele>
        <time>2019-04-04T09:06:43Z</time>
      </trkpt>
      <trkpt lat="60.33182" lon="7.5684">
        <ele>1169.58</ele>
        <time>2019-04-04T09:06:48Z</time>
      </trkpt>
      <trkpt lat="60.33201" lon="7.56819">
        <ele>1171.98</ele>
        <time>2019-04-04T09:06:53Z</time>
      </trkpt>
      <trkpt lat="60.33226" lon="7.56802">
        <ele>1175.35</ele>
        <time>2019-04-04T09:06:58Z</time>
      </trkpt>
      <trkpt lat="60.3324" lon="7.56793">
        <ele>1176.79</ele>
        <time>2019-04-04T09:07:01Z</time>
      </trkpt>
      <trkpt lat="60.33265" lon="7.56776">
        <ele>1178.23</ele>
        <time>2019-04-04T09:07:08Z</time>
      </trkpt>
      <trkpt lat="60.33287" lon="7.56762">
        <ele>1179.19</ele>
        <time>2019-04-04T09:07:15Z</time>
      </trkpt>
      <trkpt lat="60.33304" lon="7.56753">
        <ele>1180.64</ele>
        <time>2019-04-04T09:07:20Z</time>
      </trkpt>
      <trkpt lat="60.3332" lon="7.56735">
        <ele>1180.64</ele>
        <time>2019-04-04T09:07:24Z</time>
      </trkpt>
      <trkpt lat="60.3333" lon="7.5673">
        <ele>1181.12</ele>
        <time>2019-04-04T09:07:26Z</time>
      </trkpt>
      <trkpt lat="60.33372" lon="7.56714">
        <ele>1183.04</ele>
        <time>2019-04-04T09:07:34Z</time>
      </trkpt>
      <trkpt lat="60.33378" lon="7.56714">
        <ele>1183.52</ele>
        <time>2019-04-04T09:07:35Z</time>
      </trkpt>
      <trkpt lat="60.33406" lon="7.56715">
        <ele>1184</ele>
        <time>2019-04-04T09:07:40Z</time>
      </trkpt>
      <trkpt lat="60.33419" lon="7.56711">
        <ele>1184</ele>
        <time>2019-04-04T09:07:43Z</time>
      </trkpt>
      <trkpt lat="60.33442" lon="7.56705">
        <ele>1185.44</ele>
        <time>2019-04-04T09:07:48Z</time>
      </trkpt>
      <trkpt lat="60.33455" lon="7.56702">
        <ele>1185.44</ele>
        <time>2019-04-04T09:07:51Z</time>
      </trkpt>
      <trkpt lat="60.33465" lon="7.56702">
        <ele>1185.92</ele>
        <time>2019-04-04T09:07:53Z</time>
      </trkpt>
      <trkpt lat="60.33506" lon="7.56685">
        <ele>1187.85</ele>
        <time>2019-04-04T09:08:01Z</time>
      </trkpt>
      <trkpt lat="60.33523" lon="7.56683">
        <ele>1187.85</ele>
        <time>2019-04-04T09:08:05Z</time>
      </trkpt>
      <trkpt lat="60.33539" lon="7.56674">
        <ele>1189.29</ele>
        <time>2019-04-04T09:08:09Z</time>
      </trkpt>
      <trkpt lat="60.33546" lon="7.56671">
        <ele>1189.29</ele>
        <time>2019-04-04T09:08:11Z</time>
      </trkpt>
      <trkpt lat="60.33562" lon="7.56662">
        <ele>1189.77</ele>
        <time>2019-04-04T09:08:15Z</time>
      </trkpt>
      <trkpt lat="60.33576" lon="7.56655">
        <ele>1189.77</ele>
        <time>2019-04-04T09:08:18Z</time>
      </trkpt>
      <trkpt lat="60.33585" lon="7.56652">
        <ele>1190.73</ele>
        <time>2019-04-04T09:08:20Z</time>
      </trkpt>
      <trkpt lat="60.33603" lon="7.5664">
        <ele>1193.13</ele>
        <time>2019-04-04T09:08:24Z</time>
      </trkpt>
      <trkpt lat="60.33619" lon="7.56635">
        <ele>1195.06</ele>
        <time>2019-04-04T09:08:27Z</time>
      </trkpt>
      <trkpt lat="60.33629" lon="7.56632">
        <ele>1195.06</ele>
        <time>2019-04-04T09:08:29Z</time>
      </trkpt>
      <trkpt lat="60.3364" lon="7.56629">
        <ele>1196.02</ele>
        <time>2019-04-04T09:08:31Z</time>
      </trkpt>
      <trkpt lat="60.33661" lon="7.56621">
        <ele>1196.98</ele>
        <time>2019-04-04T09:08:35Z</time>
      </trkpt>
      <trkpt lat="60.33697" lon="7.566">
        <ele>1198.9</ele>
        <time>2019-04-04T09:08:45Z</time>
      </trkpt>
      <trkpt lat="60.33722" lon="7.56589">
        <ele>1199.86</ele>
        <time>2019-04-04T09:08:52Z</time>
      </trkpt>
      <trkpt lat="60.33749" lon="7.56581">
        <ele>1200.82</ele>
        <time>2019-04-04T09:08:59Z</time>
      </trkpt>
      <trkpt lat="60.33772" lon="7.5658">
        <ele>1201.3</ele>
        <time>2019-04-04T09:09:06Z</time>
      </trkpt>
      <trkpt lat="60.33771" lon="7.5657">
        <ele>1196.98</ele>
        <time>2019-04-04T09:09:10Z</time>
      </trkpt>
      <trkpt lat="60.33771" lon="7.56571">
        <ele>1196.98</ele>
        <time>2019-04-04T09:09:11Z</time>
      </trkpt>
      <trkpt lat="60.33771" lon="7.5657">
        <ele>1197.94</ele>
        <time>2019-04-04T09:09:16Z</time>
      </trkpt>
      <trkpt lat="60.33771" lon="7.56569">
        <ele>1196.5</ele>
        <time>2019-04-04T09:09:25Z</time>
      </trkpt>
      <trkpt lat="60.33771" lon="7.56569">
        <ele>1199.38</ele>
        <time>2019-04-04T09:09:27Z</time>
      </trkpt>
      <trkpt lat="60.33772" lon="7.56569">
        <ele>1197.94</ele>
        <time>2019-04-04T09:09:30Z</time>
      </trkpt>
      <trkpt lat="60.33772" lon="7.56567">
        <ele>1199.38</ele>
        <time>2019-04-04T09:09:52Z</time>
      </trkpt>
      <trkpt lat="60.33772" lon="7.56563">
        <ele>1200.34</ele>
        <time>2019-04-04T09:09:54Z</time>
      </trkpt>
      <trkpt lat="60.33776" lon="7.5653">
        <ele>1199.38</ele>
        <time>2019-04-04T09:10:02Z</time>
      </trkpt>
      <trkpt lat="60.33782" lon="7.56512">
        <ele>1200.34</ele>
        <time>2019-04-04T09:10:06Z</time>
      </trkpt>
      <trkpt lat="60.33786" lon="7.56512">
        <ele>1200.34</ele>
        <time>2019-04-04T09:10:07Z</time>
      </trkpt>
      <trkpt lat="60.33797" lon="7.56511">
        <ele>1201.3</ele>
        <time>2019-04-04T09:10:10Z</time>
      </trkpt>
      <trkpt lat="60.33837" lon="7.56508">
        <ele>1201.3</ele>
        <time>2019-04-04T09:10:18Z</time>
      </trkpt>
      <trkpt lat="60.33853" lon="7.56506">
        <ele>1199.86</ele>
        <time>2019-04-04T09:10:21Z</time>
      </trkpt>
      <trkpt lat="60.33874" lon="7.56496">
        <ele>1199.38</ele>
        <time>2019-04-04T09:10:25Z</time>
      </trkpt>
      <trkpt lat="60.33903" lon="7.56483">
        <ele>1199.38</ele>
        <time>2019-04-04T09:10:30Z</time>
      </trkpt>
      <trkpt lat="60.33928" lon="7.5646">
        <ele>1201.3</ele>
        <time>2019-04-04T09:10:34Z</time>
      </trkpt>
      <trkpt lat="60.33942" lon="7.56441">
        <ele>1199.86</ele>
        <time>2019-04-04T09:10:36Z</time>
      </trkpt>
      <trkpt lat="60.33964" lon="7.56417">
        <ele>1198.9</ele>
        <time>2019-04-04T09:10:39Z</time>
      </trkpt>
      <trkpt lat="60.33976" lon="7.56405">
        <ele>1201.3</ele>
        <time>2019-04-04T09:10:41Z</time>
      </trkpt>
      <trkpt lat="60.33981" lon="7.56402">
        <ele>1201.3</ele>
        <time>2019-04-04T09:10:42Z</time>
      </trkpt>
      <trkpt lat="60.34024" lon="7.56363">
        <ele>1199.86</ele>
        <time>2019-04-04T09:10:51Z</time>
      </trkpt>
      <trkpt lat="60.34048" lon="7.56345">
        <ele>1198.9</ele>
        <time>2019-04-04T09:10:55Z</time>
      </trkpt>
      <trkpt lat="60.34104" lon="7.56259">
        <ele>1197.46</ele>
        <time>2019-04-04T09:11:04Z</time>
      </trkpt>
      <trkpt lat="60.34115" lon="7.56233">
        <ele>1197.46</ele>
        <time>2019-04-04T09:11:06Z</time>
      </trkpt>
      <trkpt lat="60.34131" lon="7.56172">
        <ele>1194.09</ele>
        <time>2019-04-04T09:11:10Z</time>
      </trkpt>
      <trkpt lat="60.34142" lon="7.56127">
        <ele>1192.65</ele>
        <time>2019-04-04T09:11:13Z</time>
      </trkpt>
      <trkpt lat="60.34156" lon="7.56093">
        <ele>1194.58</ele>
        <time>2019-04-04T09:11:16Z</time>
      </trkpt>
      <trkpt lat="60.34162" lon="7.56083">
        <ele>1195.06</ele>
        <time>2019-04-04T09:11:17Z</time>
      </trkpt>
      <trkpt lat="60.3417" lon="7.56063">
        <ele>1195.06</ele>
        <time>2019-04-04T09:11:19Z</time>
      </trkpt>
      <trkpt lat="60.34178" lon="7.56046">
        <ele>1195.06</ele>
        <time>2019-04-04T09:11:21Z</time>
      </trkpt>
      <trkpt lat="60.34207" lon="7.55993">
        <ele>1197.46</ele>
        <time>2019-04-04T09:11:28Z</time>
      </trkpt>
      <trkpt lat="60.3421" lon="7.55985">
        <ele>1197.94</ele>
        <time>2019-04-04T09:11:29Z</time>
      </trkpt>
      <trkpt lat="60.34213" lon="7.55976">
        <ele>1197.94</ele>
        <time>2019-04-04T09:11:30Z</time>
      </trkpt>
      <trkpt lat="60.34217" lon="7.55968">
        <ele>1198.9</ele>
        <time>2019-04-04T09:11:31Z</time>
      </trkpt>
      <trkpt lat="60.34221" lon="7.55961">
        <ele>1199.38</ele>
        <time>2019-04-04T09:11:32Z</time>
      </trkpt>
      <trkpt lat="60.34242" lon="7.55925">
        <ele>1199.38</ele>
        <time>2019-04-04T09:11:37Z</time>
      </trkpt>
      <trkpt lat="60.34246" lon="7.55918">
        <ele>1199.86</ele>
        <time>2019-04-04T09:11:38Z</time>
      </trkpt>
      <trkpt lat="60.3425" lon="7.55911">
        <ele>1199.86</ele>
        <time>2019-04-04T09:11:39Z</time>
      </trkpt>
      <trkpt lat="60.34253" lon="7.55904">
        <ele>1200.34</ele>
        <time>2019-04-04T09:11:40Z</time>
      </trkpt>
      <trkpt lat="60.34257" lon="7.55897">
        <ele>1200.34</ele>
        <time>2019-04-04T09:11:41Z</time>
      </trkpt>
      <trkpt lat="60.34261" lon="7.5589">
        <ele>1200.34</ele>
        <time>2019-04-04T09:11:42Z</time>
      </trkpt>
      <trkpt lat="60.34269" lon="7.55878">
        <ele>1201.3</ele>
        <time>2019-04-04T09:11:44Z</time>
      </trkpt>
      <trkpt lat="60.34275" lon="7.55865">
        <ele>1202.75</ele>
        <time>2019-04-04T09:11:46Z</time>
      </trkpt>
      <trkpt lat="60.34279" lon="7.55859">
        <ele>1202.75</ele>
        <time>2019-04-04T09:11:47Z</time>
      </trkpt>
      <trkpt lat="60.34288" lon="7.55843">
        <ele>1204.19</ele>
        <time>2019-04-04T09:11:50Z</time>
      </trkpt>
      <trkpt lat="60.34291" lon="7.55837">
        <ele>1204.67</ele>
        <time>2019-04-04T09:11:51Z</time>
      </trkpt>
      <trkpt lat="60.34295" lon="7.55831">
        <ele>1205.15</ele>
        <time>2019-04-04T09:11:52Z</time>
      </trkpt>
      <trkpt lat="60.34305" lon="7.55814">
        <ele>1206.11</ele>
        <time>2019-04-04T09:11:55Z</time>
      </trkpt>
      <trkpt lat="60.34311" lon="7.558">
        <ele>1206.11</ele>
        <time>2019-04-04T09:11:57Z</time>
      </trkpt>
      <trkpt lat="60.34319" lon="7.55789">
        <ele>1206.59</ele>
        <time>2019-04-04T09:11:59Z</time>
      </trkpt>
      <trkpt lat="60.34326" lon="7.55775">
        <ele>1206.59</ele>
        <time>2019-04-04T09:12:01Z</time>
      </trkpt>
      <trkpt lat="60.3433" lon="7.5577">
        <ele>1207.55</ele>
        <time>2019-04-04T09:12:02Z</time>
      </trkpt>
      <trkpt lat="60.34336" lon="7.55766">
        <ele>1208.03</ele>
        <time>2019-04-04T09:12:03Z</time>
      </trkpt>
      <trkpt lat="60.34342" lon="7.55765">
        <ele>1208.03</ele>
        <time>2019-04-04T09:12:04Z</time>
      </trkpt>
      <trkpt lat="60.34348" lon="7.55764">
        <ele>1208.03</ele>
        <time>2019-04-04T09:12:05Z</time>
      </trkpt>
      <trkpt lat="60.34355" lon="7.55763">
        <ele>1207.55</ele>
        <time>2019-04-04T09:12:06Z</time>
      </trkpt>
      <trkpt lat="60.34362" lon="7.55762">
        <ele>1208.51</ele>
        <time>2019-04-04T09:12:07Z</time>
      </trkpt>
      <trkpt lat="60.34368" lon="7.55757">
        <ele>1209</ele>
        <time>2019-04-04T09:12:08Z</time>
      </trkpt>
      <trkpt lat="60.34374" lon="7.55749">
        <ele>1209</ele>
        <time>2019-04-04T09:12:09Z</time>
      </trkpt>
      <trkpt lat="60.34379" lon="7.55741">
        <ele>1209.48</ele>
        <time>2019-04-04T09:12:10Z</time>
      </trkpt>
      <trkpt lat="60.34385" lon="7.55736">
        <ele>1210.92</ele>
        <time>2019-04-04T09:12:11Z</time>
      </trkpt>
      <trkpt lat="60.34391" lon="7.55731">
        <ele>1210.92</ele>
        <time>2019-04-04T09:12:12Z</time>
      </trkpt>
      <trkpt lat="60.34397" lon="7.55723">
        <ele>1210.92</ele>
        <time>2019-04-04T09:12:13Z</time>
      </trkpt>
      <trkpt lat="60.34402" lon="7.55713">
        <ele>1210.92</ele>
        <time>2019-04-04T09:12:14Z</time>
      </trkpt>
      <trkpt lat="60.34408" lon="7.55703">
        <ele>1211.88</ele>
        <time>2019-04-04T09:12:15Z</time>
      </trkpt>
      <trkpt lat="60.34414" lon="7.55694">
        <ele>1213.32</ele>
        <time>2019-04-04T09:12:16Z</time>
      </trkpt>
      <trkpt lat="60.34422" lon="7.55687">
        <ele>1213.8</ele>
        <time>2019-04-04T09:12:17Z</time>
      </trkpt>
      <trkpt lat="60.34453" lon="7.5566">
        <ele>1217.17</ele>
        <time>2019-04-04T09:12:22Z</time>
      </trkpt>
      <trkpt lat="60.34457" lon="7.5565">
        <ele>1217.17</ele>
        <time>2019-04-04T09:12:23Z</time>
      </trkpt>
      <trkpt lat="60.34461" lon="7.55641">
        <ele>1217.17</ele>
        <time>2019-04-04T09:12:24Z</time>
      </trkpt>
      <trkpt lat="60.34466" lon="7.55634">
        <ele>1218.13</ele>
        <time>2019-04-04T09:12:25Z</time>
      </trkpt>
      <trkpt lat="60.3447" lon="7.55629">
        <ele>1219.57</ele>
        <time>2019-04-04T09:12:26Z</time>
      </trkpt>
      <trkpt lat="60.34475" lon="7.55623">
        <ele>1220.53</ele>
        <time>2019-04-04T09:12:27Z</time>
      </trkpt>
      <trkpt lat="60.34479" lon="7.55614">
        <ele>1221.01</ele>
        <time>2019-04-04T09:12:28Z</time>
      </trkpt>
      <trkpt lat="60.34483" lon="7.55604">
        <ele>1221.01</ele>
        <time>2019-04-04T09:12:29Z</time>
      </trkpt>
      <trkpt lat="60.34488" lon="7.55595">
        <ele>1222.45</ele>
        <time>2019-04-04T09:12:30Z</time>
      </trkpt>
      <trkpt lat="60.34494" lon="7.55587">
        <ele>1223.42</ele>
        <time>2019-04-04T09:12:31Z</time>
      </trkpt>
      <trkpt lat="60.34503" lon="7.55571">
        <ele>1224.38</ele>
        <time>2019-04-04T09:12:33Z</time>
      </trkpt>
      <trkpt lat="60.34512" lon="7.55545">
        <ele>1225.34</ele>
        <time>2019-04-04T09:12:35Z</time>
      </trkpt>
      <trkpt lat="60.34517" lon="7.55534">
        <ele>1226.78</ele>
        <time>2019-04-04T09:12:36Z</time>
      </trkpt>
      <trkpt lat="60.34522" lon="7.55525">
        <ele>1226.78</ele>
        <time>2019-04-04T09:12:37Z</time>
      </trkpt>
      <trkpt lat="60.34537" lon="7.55502">
        <ele>1229.18</ele>
        <time>2019-04-04T09:12:40Z</time>
      </trkpt>
      <trkpt lat="60.34542" lon="7.55497">
        <ele>1229.66</ele>
        <time>2019-04-04T09:12:41Z</time>
      </trkpt>
      <trkpt lat="60.34546" lon="7.5549">
        <ele>1230.14</ele>
        <time>2019-04-04T09:12:42Z</time>
      </trkpt>
      <trkpt lat="60.34551" lon="7.55483">
        <ele>1230.14</ele>
        <time>2019-04-04T09:12:43Z</time>
      </trkpt>
      <trkpt lat="60.34564" lon="7.55461">
        <ele>1230.62</ele>
        <time>2019-04-04T09:12:46Z</time>
      </trkpt>
      <trkpt lat="60.34567" lon="7.55452">
        <ele>1231.59</ele>
        <time>2019-04-04T09:12:47Z</time>
      </trkpt>
      <trkpt lat="60.3457" lon="7.55444">
        <ele>1231.59</ele>
        <time>2019-04-04T09:12:48Z</time>
      </trkpt>
      <trkpt lat="60.34583" lon="7.55417">
        <ele>1233.03</ele>
        <time>2019-04-04T09:12:52Z</time>
      </trkpt>
      <trkpt lat="60.34585" lon="7.55409">
        <ele>1232.55</ele>
        <time>2019-04-04T09:12:53Z</time>
      </trkpt>
      <trkpt lat="60.34603" lon="7.55356">
        <ele>1233.51</ele>
        <time>2019-04-04T09:12:58Z</time>
      </trkpt>
      <trkpt lat="60.34615" lon="7.55333">
        <ele>1233.99</ele>
        <time>2019-04-04T09:13:01Z</time>
      </trkpt>
      <trkpt lat="60.34622" lon="7.55312">
        <ele>1233.99</ele>
        <time>2019-04-04T09:13:03Z</time>
      </trkpt>
      <trkpt lat="60.34645" lon="7.5527">
        <ele>1234.47</ele>
        <time>2019-04-04T09:13:08Z</time>
      </trkpt>
      <trkpt lat="60.34661" lon="7.55234">
        <ele>1234.47</ele>
        <time>2019-04-04T09:13:12Z</time>
      </trkpt>
      <trkpt lat="60.34681" lon="7.55205">
        <ele>1235.43</ele>
        <time>2019-04-04T09:13:16Z</time>
      </trkpt>
      <trkpt lat="60.34692" lon="7.55189">
        <ele>1236.39</ele>
        <time>2019-04-04T09:13:19Z</time>
      </trkpt>
      <trkpt lat="60.34716" lon="7.55153">
        <ele>1236.87</ele>
        <time>2019-04-04T09:13:25Z</time>
      </trkpt>
      <trkpt lat="60.34727" lon="7.55133">
        <ele>1236.87</ele>
        <time>2019-04-04T09:13:28Z</time>
      </trkpt>
      <trkpt lat="60.3473" lon="7.55124">
        <ele>1236.87</ele>
        <time>2019-04-04T09:13:29Z</time>
      </trkpt>
      <trkpt lat="60.34733" lon="7.55117">
        <ele>1236.87</ele>
        <time>2019-04-04T09:13:30Z</time>
      </trkpt>
      <trkpt lat="60.34738" lon="7.55111">
        <ele>1236.87</ele>
        <time>2019-04-04T09:13:31Z</time>
      </trkpt>
      <trkpt lat="60.34742" lon="7.55106">
        <ele>1236.87</ele>
        <time>2019-04-04T09:13:32Z</time>
      </trkpt>
      <trkpt lat="60.34746" lon="7.551">
        <ele>1236.87</ele>
        <time>2019-04-04T09:13:33Z</time>
      </trkpt>
      <trkpt lat="60.34748" lon="7.55093">
        <ele>1236.87</ele>
        <time>2019-04-04T09:13:34Z</time>
      </trkpt>
      <trkpt lat="60.34751" lon="7.55085">
        <ele>1236.87</ele>
        <time>2019-04-04T09:13:35Z</time>
      </trkpt>
      <trkpt lat="60.34753" lon="7.55078">
        <ele>1236.87</ele>
        <time>2019-04-04T09:13:36Z</time>
      </trkpt>
      <trkpt lat="60.34757" lon="7.55072">
        <ele>1236.87</ele>
        <time>2019-04-04T09:13:37Z</time>
      </trkpt>
      <trkpt lat="60.34767" lon="7.55054">
        <ele>1236.87</ele>
        <time>2019-04-04T09:13:40Z</time>
      </trkpt>
      <trkpt lat="60.3477" lon="7.55045">
        <ele>1236.87</ele>
        <time>2019-04-04T09:13:41Z</time>
      </trkpt>
      <trkpt lat="60.34773" lon="7.55038">
        <ele>1236.87</ele>
        <time>2019-04-04T09:13:42Z</time>
      </trkpt>
      <trkpt lat="60.34777" lon="7.55032">
        <ele>1236.87</ele>
        <time>2019-04-04T09:13:43Z</time>
      </trkpt>
      <trkpt lat="60.34782" lon="7.55026">
        <ele>1236.87</ele>
        <time>2019-04-04T09:13:44Z</time>
      </trkpt>
      <trkpt lat="60.34785" lon="7.5502">
        <ele>1236.87</ele>
        <time>2019-04-04T09:13:45Z</time>
      </trkpt>
      <trkpt lat="60.34788" lon="7.55011">
        <ele>1236.87</ele>
        <time>2019-04-04T09:13:46Z</time>
      </trkpt>
      <trkpt lat="60.34791" lon="7.55002">
        <ele>1236.87</ele>
        <time>2019-04-04T09:13:47Z</time>
      </trkpt>
      <trkpt lat="60.34796" lon="7.54994">
        <ele>1236.87</ele>
        <time>2019-04-04T09:13:48Z</time>
      </trkpt>
      <trkpt lat="60.34801" lon="7.54988">
        <ele>1236.87</ele>
        <time>2019-04-04T09:13:49Z</time>
      </trkpt>
      <trkpt lat="60.34807" lon="7.54981">
        <ele>1236.87</ele>
        <time>2019-04-04T09:13:50Z</time>
      </trkpt>
      <trkpt lat="60.34813" lon="7.54974">
        <ele>1236.87</ele>
        <time>2019-04-04T09:13:51Z</time>
      </trkpt>
      <trkpt lat="60.34834" lon="7.54945">
        <ele>1235.43</ele>
        <time>2019-04-04T09:13:54Z</time>
      </trkpt>
      <trkpt lat="60.34889" lon="7.54874">
        <ele>1232.55</ele>
        <time>2019-04-04T09:14:01Z</time>
      </trkpt>
      <trkpt lat="60.34939" lon="7.54793">
        <ele>1232.07</ele>
        <time>2019-04-04T09:14:09Z</time>
      </trkpt>
      <trkpt lat="60.34944" lon="7.54781">
        <ele>1232.07</ele>
        <time>2019-04-04T09:14:10Z</time>
      </trkpt>
      <trkpt lat="60.3496" lon="7.54755">
        <ele>1232.07</ele>
        <time>2019-04-04T09:14:13Z</time>
      </trkpt>
      <trkpt lat="60.34975" lon="7.54738">
        <ele>1233.99</ele>
        <time>2019-04-04T09:14:16Z</time>
      </trkpt>
      <trkpt lat="60.3498" lon="7.5473">
        <ele>1233.99</ele>
        <time>2019-04-04T09:14:17Z</time>
      </trkpt>
      <trkpt lat="60.34983" lon="7.5472">
        <ele>1233.99</ele>
        <time>2019-04-04T09:14:18Z</time>
      </trkpt>
      <trkpt lat="60.35" lon="7.5468">
        <ele>1235.91</ele>
        <time>2019-04-04T09:14:22Z</time>
      </trkpt>
      <trkpt lat="60.35008" lon="7.54664">
        <ele>1236.87</ele>
        <time>2019-04-04T09:14:24Z</time>
      </trkpt>
      <trkpt lat="60.35012" lon="7.54655">
        <ele>1236.87</ele>
        <time>2019-04-04T09:14:25Z</time>
      </trkpt>
      <trkpt lat="60.35014" lon="7.54647">
        <ele>1236.87</ele>
        <time>2019-04-04T09:14:26Z</time>
      </trkpt>
      <trkpt lat="60.35016" lon="7.54638">
        <ele>1236.87</ele>
        <time>2019-04-04T09:14:27Z</time>
      </trkpt>
      <trkpt lat="60.35018" lon="7.54629">
        <ele>1236.87</ele>
        <time>2019-04-04T09:14:28Z</time>
      </trkpt>
      <trkpt lat="60.35023" lon="7.54613">
        <ele>1236.87</ele>
        <time>2019-04-04T09:14:30Z</time>
      </trkpt>
      <trkpt lat="60.35026" lon="7.54606">
        <ele>1237.35</ele>
        <time>2019-04-04T09:14:31Z</time>
      </trkpt>
      <trkpt lat="60.35031" lon="7.54599">
        <ele>1238.32</ele>
        <time>2019-04-04T09:14:32Z</time>
      </trkpt>
      <trkpt lat="60.35035" lon="7.5459">
        <ele>1238.32</ele>
        <time>2019-04-04T09:14:33Z</time>
      </trkpt>
      <trkpt lat="60.35039" lon="7.54579">
        <ele>1237.83</ele>
        <time>2019-04-04T09:14:34Z</time>
      </trkpt>
      <trkpt lat="60.35044" lon="7.54568">
        <ele>1237.83</ele>
        <time>2019-04-04T09:14:35Z</time>
      </trkpt>
      <trkpt lat="60.3505" lon="7.54557">
        <ele>1237.83</ele>
        <time>2019-04-04T09:14:36Z</time>
      </trkpt>
      <trkpt lat="60.35062" lon="7.54538">
        <ele>1237.83</ele>
        <time>2019-04-04T09:14:38Z</time>
      </trkpt>
      <trkpt lat="60.35067" lon="7.54528">
        <ele>1237.83</ele>
        <time>2019-04-04T09:14:39Z</time>
      </trkpt>
      <trkpt lat="60.35072" lon="7.54517">
        <ele>1237.83</ele>
        <time>2019-04-04T09:14:40Z</time>
      </trkpt>
      <trkpt lat="60.3508" lon="7.54498">
        <ele>1237.83</ele>
        <time>2019-04-04T09:14:42Z</time>
      </trkpt>
      <trkpt lat="60.35084" lon="7.54489">
        <ele>1238.32</ele>
        <time>2019-04-04T09:14:43Z</time>
      </trkpt>
      <trkpt lat="60.35087" lon="7.5448">
        <ele>1238.32</ele>
        <time>2019-04-04T09:14:44Z</time>
      </trkpt>
      <trkpt lat="60.35093" lon="7.54463">
        <ele>1238.32</ele>
        <time>2019-04-04T09:14:46Z</time>
      </trkpt>
      <trkpt lat="60.35098" lon="7.54456">
        <ele>1238.32</ele>
        <time>2019-04-04T09:14:47Z</time>
      </trkpt>
      <trkpt lat="60.35133" lon="7.54407">
        <ele>1239.28</ele>
        <time>2019-04-04T09:14:55Z</time>
      </trkpt>
      <trkpt lat="60.35154" lon="7.54387">
        <ele>1240.72</ele>
        <time>2019-04-04T09:14:59Z</time>
      </trkpt>
      <trkpt lat="60.35159" lon="7.54379">
        <ele>1240.72</ele>
        <time>2019-04-04T09:15:00Z</time>
      </trkpt>
      <trkpt lat="60.35163" lon="7.54371">
        <ele>1240.72</ele>
        <time>2019-04-04T09:15:01Z</time>
      </trkpt>
      <trkpt lat="60.35167" lon="7.54363">
        <ele>1239.28</ele>
        <time>2019-04-04T09:15:02Z</time>
      </trkpt>
      <trkpt lat="60.35174" lon="7.54346">
        <ele>1239.28</ele>
        <time>2019-04-04T09:15:04Z</time>
      </trkpt>
      <trkpt lat="60.35185" lon="7.54333">
        <ele>1239.28</ele>
        <time>2019-04-04T09:15:07Z</time>
      </trkpt>
      <trkpt lat="60.35201" lon="7.54315">
        <ele>1238.8</ele>
        <time>2019-04-04T09:15:11Z</time>
      </trkpt>
      <trkpt lat="60.35218" lon="7.54276">
        <ele>1235.91</ele>
        <time>2019-04-04T09:15:16Z</time>
      </trkpt>
      <trkpt lat="60.35222" lon="7.54266">
        <ele>1234.47</ele>
        <time>2019-04-04T09:15:17Z</time>
      </trkpt>
      <trkpt lat="60.35226" lon="7.5422">
        <ele>1231.11</ele>
        <time>2019-04-04T09:15:21Z</time>
      </trkpt>
      <trkpt lat="60.35232" lon="7.54177">
        <ele>1229.66</ele>
        <time>2019-04-04T09:15:26Z</time>
      </trkpt>
      <trkpt lat="60.35247" lon="7.54137">
        <ele>1226.3</ele>
        <time>2019-04-04T09:15:30Z</time>
      </trkpt>
      <trkpt lat="60.35259" lon="7.54109">
        <ele>1221.97</ele>
        <time>2019-04-04T09:15:34Z</time>
      </trkpt>
      <trkpt lat="60.35257" lon="7.54088">
        <ele>1221.01</ele>
        <time>2019-04-04T09:15:36Z</time>
      </trkpt>
      <trkpt lat="60.35261" lon="7.54039">
        <ele>1217.65</ele>
        <time>2019-04-04T09:15:40Z</time>
      </trkpt>
      <trkpt lat="60.35284" lon="7.53977">
        <ele>1212.84</ele>
        <time>2019-04-04T09:15:44Z</time>
      </trkpt>
      <trkpt lat="60.35301" lon="7.53941">
        <ele>1209</ele>
        <time>2019-04-04T09:15:46Z</time>
      </trkpt>
      <trkpt lat="60.35331" lon="7.53887">
        <ele>1205.15</ele>
        <time>2019-04-04T09:15:50Z</time>
      </trkpt>
      <trkpt lat="60.35356" lon="7.53847">
        <ele>1201.79</ele>
        <time>2019-04-04T09:15:53Z</time>
      </trkpt>
      <trkpt lat="60.35381" lon="7.5381">
        <ele>1199.38</ele>
        <time>2019-04-04T09:15:56Z</time>
      </trkpt>
      <trkpt lat="60.35429" lon="7.53755">
        <ele>1198.9</ele>
        <time>2019-04-04T09:16:03Z</time>
      </trkpt>
      <trkpt lat="60.35455" lon="7.53709">
        <ele>1198.42</ele>
        <time>2019-04-04T09:16:08Z</time>
      </trkpt>
      <trkpt lat="60.35463" lon="7.53699">
        <ele>1198.42</ele>
        <time>2019-04-04T09:16:09Z</time>
      </trkpt>
      <trkpt lat="60.35543" lon="7.53606">
        <ele>1196.02</ele>
        <time>2019-04-04T09:16:21Z</time>
      </trkpt>
      <trkpt lat="60.35586" lon="7.53565">
        <ele>1196.02</ele>
        <time>2019-04-04T09:16:28Z</time>
      </trkpt>
      <trkpt lat="60.35616" lon="7.53508">
        <ele>1194.58</ele>
        <time>2019-04-04T09:16:35Z</time>
      </trkpt>
      <trkpt lat="60.35617" lon="7.53498">
        <ele>1193.61</ele>
        <time>2019-04-04T09:16:37Z</time>
      </trkpt>
      <trkpt lat="60.35618" lon="7.53493">
        <ele>1195.06</ele>
        <time>2019-04-04T09:16:39Z</time>
      </trkpt>
      <trkpt lat="60.35617" lon="7.53494">
        <ele>1195.54</ele>
        <time>2019-04-04T09:16:51Z</time>
      </trkpt>
      <trkpt lat="60.35617" lon="7.53495">
        <ele>1196.02</ele>
        <time>2019-04-04T09:17:13Z</time>
      </trkpt>
      <trkpt lat="60.35617" lon="7.53493">
        <ele>1196.02</ele>
        <time>2019-04-04T09:17:31Z</time>
      </trkpt>
      <trkpt lat="60.35617" lon="7.53493">
        <ele>1194.58</ele>
        <time>2019-04-04T09:17:39Z</time>
      </trkpt>
      <trkpt lat="60.35617" lon="7.53493">
        <ele>1195.54</ele>
        <time>2019-04-04T09:17:46Z</time>
      </trkpt>
      <trkpt lat="60.35617" lon="7.53493">
        <ele>1194.58</ele>
        <time>2019-04-04T09:17:51Z</time>
      </trkpt>
      <trkpt lat="60.35615" lon="7.53486">
        <ele>1192.65</ele>
        <time>2019-04-04T09:18:02Z</time>
      </trkpt>
      <trkpt lat="60.35615" lon="7.53485">
        <ele>1192.65</ele>
        <time>2019-04-04T09:18:24Z</time>
      </trkpt>
      <trkpt lat="60.35615" lon="7.53484">
        <ele>1194.09</ele>
        <time>2019-04-04T09:18:26Z</time>
      </trkpt>
      <trkpt lat="60.35615" lon="7.53484">
        <ele>1193.13</ele>
        <time>2019-04-04T09:18:34Z</time>
      </trkpt>
      <trkpt lat="60.35613" lon="7.53459">
        <ele>1194.09</ele>
        <time>2019-04-04T09:18:37Z</time>
      </trkpt>
      <trkpt lat="60.35632" lon="7.53393">
        <ele>1196.98</ele>
        <time>2019-04-04T09:18:43Z</time>
      </trkpt>
      <trkpt lat="60.35644" lon="7.53358">
        <ele>1196.98</ele>
        <time>2019-04-04T09:18:46Z</time>
      </trkpt>
      <trkpt lat="60.35687" lon="7.53285">
        <ele>1198.42</ele>
        <time>2019-04-04T09:18:53Z</time>
      </trkpt>
      <trkpt lat="60.357" lon="7.53259">
        <ele>1196.98</ele>
        <time>2019-04-04T09:18:56Z</time>
      </trkpt>
      <trkpt lat="60.35721" lon="7.53225">
        <ele>1199.86</ele>
        <time>2019-04-04T09:19:00Z</time>
      </trkpt>
      <trkpt lat="60.35732" lon="7.53213">
        <ele>1201.3</ele>
        <time>2019-04-04T09:19:02Z</time>
      </trkpt>
      <trkpt lat="60.35749" lon="7.5319">
        <ele>1203.23</ele>
        <time>2019-04-04T09:19:06Z</time>
      </trkpt>
      <trkpt lat="60.35758" lon="7.53179">
        <ele>1204.67</ele>
        <time>2019-04-04T09:19:08Z</time>
      </trkpt>
      <trkpt lat="60.35777" lon="7.5316">
        <ele>1208.03</ele>
        <time>2019-04-04T09:19:12Z</time>
      </trkpt>
      <trkpt lat="60.3579" lon="7.5315">
        <ele>1209.48</ele>
        <time>2019-04-04T09:19:15Z</time>
      </trkpt>
      <trkpt lat="60.35809" lon="7.53133">
        <ele>1210.92</ele>
        <time>2019-04-04T09:19:19Z</time>
      </trkpt>
      <trkpt lat="60.3582" lon="7.53122">
        <ele>1211.4</ele>
        <time>2019-04-04T09:19:21Z</time>
      </trkpt>
      <trkpt lat="60.3584" lon="7.53085">
        <ele>1209.48</ele>
        <time>2019-04-04T09:19:25Z</time>
      </trkpt>
      <trkpt lat="60.35869" lon="7.53031">
        <ele>1207.07</ele>
        <time>2019-04-04T09:19:30Z</time>
      </trkpt>
      <trkpt lat="60.35895" lon="7.53">
        <ele>1205.63</ele>
        <time>2019-04-04T09:19:34Z</time>
      </trkpt>
      <trkpt lat="60.35919" lon="7.52957">
        <ele>1203.23</ele>
        <time>2019-04-04T09:19:38Z</time>
      </trkpt>
      <trkpt lat="60.35931" lon="7.52938">
        <ele>1203.23</ele>
        <time>2019-04-04T09:19:40Z</time>
      </trkpt>
      <trkpt lat="60.3595" lon="7.52922">
        <ele>1205.15</ele>
        <time>2019-04-04T09:19:43Z</time>
      </trkpt>
      <trkpt lat="60.35959" lon="7.52908">
        <ele>1204.67</ele>
        <time>2019-04-04T09:19:45Z</time>
      </trkpt>
      <trkpt lat="60.35971" lon="7.52888">
        <ele>1205.63</ele>
        <time>2019-04-04T09:19:48Z</time>
      </trkpt>
      <trkpt lat="60.36" lon="7.52841">
        <ele>1206.11</ele>
        <time>2019-04-04T09:19:54Z</time>
      </trkpt>
      <trkpt lat="60.36033" lon="7.5278">
        <ele>1208.51</ele>
        <time>2019-04-04T09:20:01Z</time>
      </trkpt>
      <trkpt lat="60.36045" lon="7.52759">
        <ele>1209.96</ele>
        <time>2019-04-04T09:20:04Z</time>
      </trkpt>
      <trkpt lat="60.3606" lon="7.52734">
        <ele>1213.8</ele>
        <time>2019-04-04T09:20:08Z</time>
      </trkpt>
      <trkpt lat="60.36065" lon="7.52733">
        <ele>1214.76</ele>
        <time>2019-04-04T09:20:09Z</time>
      </trkpt>
      <trkpt lat="60.36083" lon="7.52728">
        <ele>1214.76</ele>
        <time>2019-04-04T09:20:12Z</time>
      </trkpt>
      <trkpt lat="60.36101" lon="7.52719">
        <ele>1214.76</ele>
        <time>2019-04-04T09:20:15Z</time>
      </trkpt>
      <trkpt lat="60.36119" lon="7.52685">
        <ele>1214.76</ele>
        <time>2019-04-04T09:20:20Z</time>
      </trkpt>
      <trkpt lat="60.36134" lon="7.52655">
        <ele>1215.24</ele>
        <time>2019-04-04T09:20:24Z</time>
      </trkpt>
      <trkpt lat="60.36152" lon="7.52615">
        <ele>1215.24</ele>
        <time>2019-04-04T09:20:28Z</time>
      </trkpt>
      <trkpt lat="60.36177" lon="7.52563">
        <ele>1214.28</ele>
        <time>2019-04-04T09:20:34Z</time>
      </trkpt>
      <trkpt lat="60.36201" lon="7.52504">
        <ele>1214.28</ele>
        <time>2019-04-04T09:20:41Z</time>
      </trkpt>
      <trkpt lat="60.36227" lon="7.52454">
        <ele>1216.21</ele>
        <time>2019-04-04T09:20:47Z</time>
      </trkpt>
      <trkpt lat="60.36246" lon="7.52414">
        <ele>1217.17</ele>
        <time>2019-04-04T09:20:51Z</time>
      </trkpt>
      <trkpt lat="60.36259" lon="7.52369">
        <ele>1217.17</ele>
        <time>2019-04-04T09:20:55Z</time>
      </trkpt>
      <trkpt lat="60.36265" lon="7.52347">
        <ele>1218.61</ele>
        <time>2019-04-04T09:20:57Z</time>
      </trkpt>
      <trkpt lat="60.3627" lon="7.52325">
        <ele>1219.57</ele>
        <time>2019-04-04T09:20:59Z</time>
      </trkpt>
      <trkpt lat="60.36281" lon="7.52297">
        <ele>1221.49</ele>
        <time>2019-04-04T09:21:02Z</time>
      </trkpt>
      <trkpt lat="60.36292" lon="7.5226">
        <ele>1221.97</ele>
        <time>2019-04-04T09:21:06Z</time>
      </trkpt>
      <trkpt lat="60.36304" lon="7.5223">
        <ele>1223.42</ele>
        <time>2019-04-04T09:21:10Z</time>
      </trkpt>
      <trkpt lat="60.36327" lon="7.52185">
        <ele>1223.42</ele>
        <time>2019-04-04T09:21:15Z</time>
      </trkpt>
      <trkpt lat="60.36338" lon="7.52163">
        <ele>1223.42</ele>
        <time>2019-04-04T09:21:17Z</time>
      </trkpt>
      <trkpt lat="60.36369" lon="7.52123">
        <ele>1221.97</ele>
        <time>2019-04-04T09:21:21Z</time>
      </trkpt>
      <trkpt lat="60.3638" lon="7.52102">
        <ele>1220.53</ele>
        <time>2019-04-04T09:21:23Z</time>
      </trkpt>
      <trkpt lat="60.36392" lon="7.52075">
        <ele>1220.05</ele>
        <time>2019-04-04T09:21:26Z</time>
      </trkpt>
      <trkpt lat="60.36405" lon="7.52056">
        <ele>1221.49</ele>
        <time>2019-04-04T09:21:29Z</time>
      </trkpt>
      <trkpt lat="60.3642" lon="7.52028">
        <ele>1222.93</ele>
        <time>2019-04-04T09:21:33Z</time>
      </trkpt>
      <trkpt lat="60.36438" lon="7.5201">
        <ele>1223.42</ele>
        <time>2019-04-04T09:21:36Z</time>
      </trkpt>
      <trkpt lat="60.36476" lon="7.51982">
        <ele>1219.57</ele>
        <time>2019-04-04T09:21:41Z</time>
      </trkpt>
      <trkpt lat="60.365" lon="7.51938">
        <ele>1218.13</ele>
        <time>2019-04-04T09:21:46Z</time>
      </trkpt>
      <trkpt lat="60.36504" lon="7.51929">
        <ele>1218.13</ele>
        <time>2019-04-04T09:21:47Z</time>
      </trkpt>
      <trkpt lat="60.36512" lon="7.51891">
        <ele>1217.17</ele>
        <time>2019-04-04T09:21:51Z</time>
      </trkpt>
      <trkpt lat="60.36529" lon="7.51812">
        <ele>1217.17</ele>
        <time>2019-04-04T09:21:58Z</time>
      </trkpt>
      <trkpt lat="60.3654" lon="7.51763">
        <ele>1216.69</ele>
        <time>2019-04-04T09:22:02Z</time>
      </trkpt>
      <trkpt lat="60.36548" lon="7.51728">
        <ele>1216.69</ele>
        <time>2019-04-04T09:22:05Z</time>
      </trkpt>
      <trkpt lat="60.36554" lon="7.51711">
        <ele>1218.13</ele>
        <time>2019-04-04T09:22:07Z</time>
      </trkpt>
      <trkpt lat="60.36556" lon="7.51702">
        <ele>1218.13</ele>
        <time>2019-04-04T09:22:08Z</time>
      </trkpt>
      <trkpt lat="60.36564" lon="7.51679">
        <ele>1219.57</ele>
        <time>2019-04-04T09:22:11Z</time>
      </trkpt>
      <trkpt lat="60.3657" lon="7.51666">
        <ele>1219.57</ele>
        <time>2019-04-04T09:22:13Z</time>
      </trkpt>
      <trkpt lat="60.36575" lon="7.51642">
        <ele>1219.57</ele>
        <time>2019-04-04T09:22:16Z</time>
      </trkpt>
      <trkpt lat="60.36583" lon="7.51618">
        <ele>1220.53</ele>
        <time>2019-04-04T09:22:19Z</time>
      </trkpt>
      <trkpt lat="60.3659" lon="7.51593">
        <ele>1220.53</ele>
        <time>2019-04-04T09:22:22Z</time>
      </trkpt>
      <trkpt lat="60.36599" lon="7.51564">
        <ele>1220.53</ele>
        <time>2019-04-04T09:22:25Z</time>
      </trkpt>
      <trkpt lat="60.36614" lon="7.51509">
        <ele>1220.53</ele>
        <time>2019-04-04T09:22:31Z</time>
      </trkpt>
      <trkpt lat="60.36619" lon="7.51491">
        <ele>1220.53</ele>
        <time>2019-04-04T09:22:33Z</time>
      </trkpt>
      <trkpt lat="60.36625" lon="7.51461">
        <ele>1219.09</ele>
        <time>2019-04-04T09:22:36Z</time>
      </trkpt>
      <trkpt lat="60.36633" lon="7.51422">
        <ele>1219.09</ele>
        <time>2019-04-04T09:22:40Z</time>
      </trkpt>
      <trkpt lat="60.36636" lon="7.51402">
        <ele>1218.61</ele>
        <time>2019-04-04T09:22:42Z</time>
      </trkpt>
      <trkpt lat="60.36646" lon="7.5137">
        <ele>1218.61</ele>
        <time>2019-04-04T09:22:46Z</time>
      </trkpt>
      <trkpt lat="60.36657" lon="7.51335">
        <ele>1218.61</ele>
        <time>2019-04-04T09:22:51Z</time>
      </trkpt>
      <trkpt lat="60.3667" lon="7.51291">
        <ele>1221.01</ele>
        <time>2019-04-04T09:22:57Z</time>
      </trkpt>
      <trkpt lat="60.36675" lon="7.51264">
        <ele>1221.01</ele>
        <time>2019-04-04T09:23:00Z</time>
      </trkpt>
      <trkpt lat="60.36678" lon="7.51243">
        <ele>1221.01</ele>
        <time>2019-04-04T09:23:02Z</time>
      </trkpt>
      <trkpt lat="60.36688" lon="7.5118">
        <ele>1222.93</ele>
        <time>2019-04-04T09:23:08Z</time>
      </trkpt>
      <trkpt lat="60.36695" lon="7.51147">
        <ele>1224.38</ele>
        <time>2019-04-04T09:23:12Z</time>
      </trkpt>
      <trkpt lat="60.36704" lon="7.51087">
        <ele>1226.3</ele>
        <time>2019-04-04T09:23:19Z</time>
      </trkpt>
      <trkpt lat="60.367" lon="7.51041">
        <ele>1226.3</ele>
        <time>2019-04-04T09:23:24Z</time>
      </trkpt>
      <trkpt lat="60.36696" lon="7.51033">
        <ele>1224.86</ele>
        <time>2019-04-04T09:23:25Z</time>
      </trkpt>
      <trkpt lat="60.3669" lon="7.50997">
        <ele>1221.01</ele>
        <time>2019-04-04T09:23:29Z</time>
      </trkpt>
      <trkpt lat="60.36691" lon="7.50986">
        <ele>1226.3</ele>
        <time>2019-04-04T09:23:30Z</time>
      </trkpt>
      <trkpt lat="60.36693" lon="7.50974">
        <ele>1226.3</ele>
        <time>2019-04-04T09:23:31Z</time>
      </trkpt>
      <trkpt lat="60.36693" lon="7.50963">
        <ele>1226.3</ele>
        <time>2019-04-04T09:23:32Z</time>
      </trkpt>
      <trkpt lat="60.367" lon="7.50936">
        <ele>1227.26</ele>
        <time>2019-04-04T09:23:35Z</time>
      </trkpt>
      <trkpt lat="60.36709" lon="7.50885">
        <ele>1226.78</ele>
        <time>2019-04-04T09:23:40Z</time>
      </trkpt>
      <trkpt lat="60.36716" lon="7.50838">
        <ele>1227.26</ele>
        <time>2019-04-04T09:23:45Z</time>
      </trkpt>
      <trkpt lat="60.36721" lon="7.50822">
        <ele>1228.22</ele>
        <time>2019-04-04T09:23:47Z</time>
      </trkpt>
      <trkpt lat="60.3673" lon="7.5076">
        <ele>1228.22</ele>
        <time>2019-04-04T09:23:54Z</time>
      </trkpt>
      <trkpt lat="60.36731" lon="7.50742">
        <ele>1228.22</ele>
        <time>2019-04-04T09:23:56Z</time>
      </trkpt>
      <trkpt lat="60.3674" lon="7.5069">
        <ele>1228.22</ele>
        <time>2019-04-04T09:24:03Z</time>
      </trkpt>
      <trkpt lat="60.36747" lon="7.50664">
        <ele>1230.14</ele>
        <time>2019-04-04T09:24:07Z</time>
      </trkpt>
      <trkpt lat="60.36749" lon="7.50659">
        <ele>1230.14</ele>
        <time>2019-04-04T09:24:08Z</time>
      </trkpt>
      <trkpt lat="60.3675" lon="7.50654">
        <ele>1230.14</ele>
        <time>2019-04-04T09:24:09Z</time>
      </trkpt>
      <trkpt lat="60.3675" lon="7.50646">
        <ele>1230.62</ele>
        <time>2019-04-04T09:24:10Z</time>
      </trkpt>
      <trkpt lat="60.36752" lon="7.50639">
        <ele>1230.62</ele>
        <time>2019-04-04T09:24:11Z</time>
      </trkpt>
      <trkpt lat="60.36754" lon="7.50634">
        <ele>1231.59</ele>
        <time>2019-04-04T09:24:12Z</time>
      </trkpt>
      <trkpt lat="60.36756" lon="7.50629">
        <ele>1232.07</ele>
        <time>2019-04-04T09:24:13Z</time>
      </trkpt>
      <trkpt lat="60.36757" lon="7.50624">
        <ele>1232.07</ele>
        <time>2019-04-04T09:24:14Z</time>
      </trkpt>
      <trkpt lat="60.36758" lon="7.50618">
        <ele>1232.07</ele>
        <time>2019-04-04T09:24:15Z</time>
      </trkpt>
      <trkpt lat="60.3676" lon="7.5061">
        <ele>1232.07</ele>
        <time>2019-04-04T09:24:16Z</time>
      </trkpt>
      <trkpt lat="60.36761" lon="7.50602">
        <ele>1232.07</ele>
        <time>2019-04-04T09:24:17Z</time>
      </trkpt>
      <trkpt lat="60.36764" lon="7.50596">
        <ele>1233.03</ele>
        <time>2019-04-04T09:24:18Z</time>
      </trkpt>
      <trkpt lat="60.36765" lon="7.50593">
        <ele>1233.51</ele>
        <time>2019-04-04T09:24:19Z</time>
      </trkpt>
      <trkpt lat="60.36767" lon="7.50589">
        <ele>1233.51</ele>
        <time>2019-04-04T09:24:20Z</time>
      </trkpt>
      <trkpt lat="60.36768" lon="7.50585">
        <ele>1233.51</ele>
        <time>2019-04-04T09:24:21Z</time>
      </trkpt>
      <trkpt lat="60.36769" lon="7.50581">
        <ele>1233.99</ele>
        <time>2019-04-04T09:24:22Z</time>
      </trkpt>
      <trkpt lat="60.36769" lon="7.50579">
        <ele>1233.99</ele>
        <time>2019-04-04T09:24:23Z</time>
      </trkpt>
      <trkpt lat="60.3677" lon="7.50576">
        <ele>1233.99</ele>
        <time>2019-04-04T09:24:24Z</time>
      </trkpt>
      <trkpt lat="60.36774" lon="7.50555">
        <ele>1234.95</ele>
        <time>2019-04-04T09:24:35Z</time>
      </trkpt>
      <trkpt lat="60.36774" lon="7.50556">
        <ele>1232.07</ele>
        <time>2019-04-04T09:24:36Z</time>
      </trkpt>
      <trkpt lat="60.36775" lon="7.50555">
        <ele>1233.51</ele>
        <time>2019-04-04T09:24:42Z</time>
      </trkpt>
      <trkpt lat="60.36775" lon="7.50555">
        <ele>1234.95</ele>
        <time>2019-04-04T09:24:49Z</time>
      </trkpt>
      <trkpt lat="60.36775" lon="7.50555">
        <ele>1233.03</ele>
        <time>2019-04-04T09:24:52Z</time>
      </trkpt>
      <trkpt lat="60.36775" lon="7.50554">
        <ele>1233.99</ele>
        <time>2019-04-04T09:25:01Z</time>
      </trkpt>
      <trkpt lat="60.36775" lon="7.50554">
        <ele>1234.95</ele>
        <time>2019-04-04T09:25:11Z</time>
      </trkpt>
      <trkpt lat="60.36775" lon="7.50555">
        <ele>1233.51</ele>
        <time>2019-04-04T09:25:13Z</time>
      </trkpt>
      <trkpt lat="60.36774" lon="7.50554">
        <ele>1234.95</ele>
        <time>2019-04-04T09:25:30Z</time>
      </trkpt>
      <trkpt lat="60.36776" lon="7.50555">
        <ele>1231.11</ele>
        <time>2019-04-04T09:25:43Z</time>
      </trkpt>
      <trkpt lat="60.36775" lon="7.50555">
        <ele>1235.91</ele>
        <time>2019-04-04T09:25:44Z</time>
      </trkpt>
      <trkpt lat="60.36775" lon="7.50553">
        <ele>1235.91</ele>
        <time>2019-04-04T09:25:47Z</time>
      </trkpt>
      <trkpt lat="60.36775" lon="7.50554">
        <ele>1231.11</ele>
        <time>2019-04-04T09:25:52Z</time>
      </trkpt>
      <trkpt lat="60.36775" lon="7.50554">
        <ele>1234.47</ele>
        <time>2019-04-04T09:25:54Z</time>
      </trkpt>
      <trkpt lat="60.36775" lon="7.50554">
        <ele>1234.47</ele>
        <time>2019-04-04T09:26:23Z</time>
      </trkpt>
      <trkpt lat="60.36775" lon="7.50555">
        <ele>1234.95</ele>
        <time>2019-04-04T09:26:58Z</time>
      </trkpt>
      <trkpt lat="60.36775" lon="7.50555">
        <ele>1234.95</ele>
        <time>2019-04-04T09:27:23Z</time>
      </trkpt>
      <trkpt lat="60.36775" lon="7.50555">
        <ele>1234.95</ele>
        <time>2019-04-04T09:27:50Z</time>
      </trkpt>
      <trkpt lat="60.36775" lon="7.50555">
        <ele>1234.95</ele>
        <time>2019-04-04T09:28:13Z</time>
      </trkpt>
      <trkpt lat="60.36775" lon="7.50554">
        <ele>1233.99</ele>
        <time>2019-04-04T09:28:48Z</time>
      </trkpt>
      <trkpt lat="60.36775" lon="7.50554">
        <ele>1233.99</ele>
        <time>2019-04-04T09:29:17Z</time>
      </trkpt>
      <trkpt lat="60.36775" lon="7.50554">
        <ele>1233.99</ele>
        <time>2019-04-04T09:29:55Z</time>
      </trkpt>
      <trkpt lat="60.36774" lon="7.50553">
        <ele>1233.99</ele>
        <time>2019-04-04T09:30:26Z</time>
      </trkpt>
      <trkpt lat="60.36774" lon="7.50553">
        <ele>1233.99</ele>
        <time>2019-04-04T09:31:01Z</time>
      </trkpt>
      <trkpt lat="60.36774" lon="7.50553">
        <ele>1236.39</ele>
        <time>2019-04-04T09:31:07Z</time>
      </trkpt>
      <trkpt lat="60.36775" lon="7.50553">
        <ele>1233.03</ele>
        <time>2019-04-04T09:31:08Z</time>
      </trkpt>
      <trkpt lat="60.36774" lon="7.50549">
        <ele>1233.99</ele>
        <time>2019-04-04T09:31:17Z</time>
      </trkpt>
      <trkpt lat="60.36774" lon="7.50547">
        <ele>1233.99</ele>
        <time>2019-04-04T09:31:18Z</time>
      </trkpt>
      <trkpt lat="60.36774" lon="7.50547">
        <ele>1233.99</ele>
        <time>2019-04-04T09:31:26Z</time>
      </trkpt>
      <trkpt lat="60.36774" lon="7.50547">
        <ele>1233.99</ele>
        <time>2019-04-04T09:31:47Z</time>
      </trkpt>
      <trkpt lat="60.36775" lon="7.50548">
        <ele>1234.47</ele>
        <time>2019-04-04T09:31:53Z</time>
      </trkpt>
      <trkpt lat="60.36775" lon="7.50552">
        <ele>1235.43</ele>
        <time>2019-04-04T09:32:00Z</time>
      </trkpt>
      <trkpt lat="60.36776" lon="7.50549">
        <ele>1234.47</ele>
        <time>2019-04-04T09:32:05Z</time>
      </trkpt>
      <trkpt lat="60.36777" lon="7.50539">
        <ele>1234.47</ele>
        <time>2019-04-04T09:32:10Z</time>
      </trkpt>
      <trkpt lat="60.3678" lon="7.5053">
        <ele>1235.43</ele>
        <time>2019-04-04T09:32:16Z</time>
      </trkpt>
      <trkpt lat="60.36781" lon="7.50529">
        <ele>1235.43</ele>
        <time>2019-04-04T09:32:17Z</time>
      </trkpt>
      <trkpt lat="60.36781" lon="7.50524">
        <ele>1235.43</ele>
        <time>2019-04-04T09:32:20Z</time>
      </trkpt>
      <trkpt lat="60.3678" lon="7.50522">
        <ele>1235.43</ele>
        <time>2019-04-04T09:32:21Z</time>
      </trkpt>
      <trkpt lat="60.3678" lon="7.5052">
        <ele>1235.43</ele>
        <time>2019-04-04T09:32:22Z</time>
      </trkpt>
      <trkpt lat="60.36781" lon="7.50518">
        <ele>1235.43</ele>
        <time>2019-04-04T09:32:23Z</time>
      </trkpt>
      <trkpt lat="60.36783" lon="7.50506">
        <ele>1235.43</ele>
        <time>2019-04-04T09:32:31Z</time>
      </trkpt>
      <trkpt lat="60.36783" lon="7.50503">
        <ele>1235.43</ele>
        <time>2019-04-04T09:32:32Z</time>
      </trkpt>
      <trkpt lat="60.36783" lon="7.505">
        <ele>1235.43</ele>
        <time>2019-04-04T09:32:33Z</time>
      </trkpt>
      <trkpt lat="60.36783" lon="7.50498">
        <ele>1235.43</ele>
        <time>2019-04-04T09:32:34Z</time>
      </trkpt>
      <trkpt lat="60.36784" lon="7.50496">
        <ele>1235.43</ele>
        <time>2019-04-04T09:32:35Z</time>
      </trkpt>
      <trkpt lat="60.36784" lon="7.50495">
        <ele>1235.43</ele>
        <time>2019-04-04T09:32:36Z</time>
      </trkpt>
      <trkpt lat="60.36785" lon="7.50492">
        <ele>1236.39</ele>
        <time>2019-04-04T09:32:38Z</time>
      </trkpt>
      <trkpt lat="60.36786" lon="7.5049">
        <ele>1236.39</ele>
        <time>2019-04-04T09:32:39Z</time>
      </trkpt>
      <trkpt lat="60.36789" lon="7.50483">
        <ele>1237.35</ele>
        <time>2019-04-04T09:32:45Z</time>
      </trkpt>
      <trkpt lat="60.3679" lon="7.5048">
        <ele>1237.35</ele>
        <time>2019-04-04T09:32:46Z</time>
      </trkpt>
      <trkpt lat="60.36793" lon="7.5047">
        <ele>1237.83</ele>
        <time>2019-04-04T09:32:53Z</time>
      </trkpt>
      <trkpt lat="60.36793" lon="7.50462">
        <ele>1237.83</ele>
        <time>2019-04-04T09:32:59Z</time>
      </trkpt>
      <trkpt lat="60.36792" lon="7.5046">
        <ele>1237.83</ele>
        <time>2019-04-04T09:33:00Z</time>
      </trkpt>
      <trkpt lat="60.3679" lon="7.50455">
        <ele>1238.32</ele>
        <time>2019-04-04T09:33:09Z</time>
      </trkpt>
      <trkpt lat="60.3679" lon="7.50456">
        <ele>1239.28</ele>
        <time>2019-04-04T09:33:11Z</time>
      </trkpt>
      <trkpt lat="60.36791" lon="7.50454">
        <ele>1238.8</ele>
        <time>2019-04-04T09:33:21Z</time>
      </trkpt>
      <trkpt lat="60.36791" lon="7.50456">
        <ele>1239.28</ele>
        <time>2019-04-04T09:33:44Z</time>
      </trkpt>
      <trkpt lat="60.36791" lon="7.50456">
        <ele>1239.28</ele>
        <time>2019-04-04T09:33:59Z</time>
      </trkpt>
      <trkpt lat="60.36791" lon="7.50456">
        <ele>1230.14</ele>
        <time>2019-04-04T09:34:00Z</time>
      </trkpt>
      <trkpt lat="60.36792" lon="7.50456">
        <ele>1230.14</ele>
        <time>2019-04-04T09:34:01Z</time>
      </trkpt>
      <trkpt lat="60.36792" lon="7.50456">
        <ele>1237.35</ele>
        <time>2019-04-04T09:34:02Z</time>
      </trkpt>
      <trkpt lat="60.36793" lon="7.50456">
        <ele>1237.83</ele>
        <time>2019-04-04T09:34:33Z</time>
      </trkpt>
      <trkpt lat="60.36793" lon="7.50456">
        <ele>1237.83</ele>
        <time>2019-04-04T09:35:09Z</time>
      </trkpt>
      <trkpt lat="60.36793" lon="7.50457">
        <ele>1237.83</ele>
        <time>2019-04-04T09:35:44Z</time>
      </trkpt>
      <trkpt lat="60.36793" lon="7.50456">
        <ele>1237.83</ele>
        <time>2019-04-04T09:36:15Z</time>
      </trkpt>
      <trkpt lat="60.36792" lon="7.50455">
        <ele>1238.32</ele>
        <time>2019-04-04T09:36:46Z</time>
      </trkpt>
      <trkpt lat="60.36792" lon="7.50454">
        <ele>1238.32</ele>
        <time>2019-04-04T09:37:11Z</time>
      </trkpt>
      <trkpt lat="60.3679" lon="7.50454">
        <ele>1238.8</ele>
        <time>2019-04-04T09:37:50Z</time>
      </trkpt>
      <trkpt lat="60.36789" lon="7.50455">
        <ele>1238.8</ele>
        <time>2019-04-04T09:38:20Z</time>
      </trkpt>
      <trkpt lat="60.36789" lon="7.50457">
        <ele>1237.83</ele>
        <time>2019-04-04T09:38:50Z</time>
      </trkpt>
      <trkpt lat="60.36789" lon="7.50456">
        <ele>1237.83</ele>
        <time>2019-04-04T09:39:22Z</time>
      </trkpt>
      <trkpt lat="60.3679" lon="7.50456">
        <ele>1237.83</ele>
        <time>2019-04-04T09:39:51Z</time>
      </trkpt>
      <trkpt lat="60.36791" lon="7.50456">
        <ele>1240.72</ele>
        <time>2019-04-04T09:40:14Z</time>
      </trkpt>
      <trkpt lat="60.36791" lon="7.50457">
        <ele>1241.2</ele>
        <time>2019-04-04T09:40:28Z</time>
      </trkpt>
      <trkpt lat="60.36789" lon="7.50457">
        <ele>1241.68</ele>
        <time>2019-04-04T09:40:41Z</time>
      </trkpt>
    </trkseg>
  </trk>
  <trk>
    <name><![CDATA[CCCCC04-04 17:18:01]]></name>
    <trkseg>
      <trkpt lat="60.36789" lon="7.50461">
        <ele>1238.32</ele>
        <time>2019-04-04T10:55:16Z</time>
      </trkpt>
      <trkpt lat="60.36789" lon="7.50462">
        <ele>1238.32</ele>
        <time>2019-04-04T10:55:18Z</time>
      </trkpt>
      <trkpt lat="60.36788" lon="7.50462">
        <ele>1234.95</ele>
        <time>2019-04-04T10:55:30Z</time>
      </trkpt>
      <trkpt lat="60.36787" lon="7.50463">
        <ele>1236.87</ele>
        <time>2019-04-04T10:55:33Z</time>
      </trkpt>
      <trkpt lat="60.36777" lon="7.50488">
        <ele>1234.95</ele>
        <time>2019-04-04T10:55:47Z</time>
      </trkpt>
      <trkpt lat="60.36773" lon="7.50509">
        <ele>1234.47</ele>
        <time>2019-04-04T10:55:58Z</time>
      </trkpt>
      <trkpt lat="60.36772" lon="7.50509">
        <ele>1226.78</ele>
        <time>2019-04-04T10:56:01Z</time>
      </trkpt>
      <trkpt lat="60.36772" lon="7.5051">
        <ele>1238.32</ele>
        <time>2019-04-04T10:56:02Z</time>
      </trkpt>
      <trkpt lat="60.36772" lon="7.5051">
        <ele>1236.39</ele>
        <time>2019-04-04T10:56:03Z</time>
      </trkpt>
      <trkpt lat="60.36772" lon="7.5051">
        <ele>1233.51</ele>
        <time>2019-04-04T10:56:05Z</time>
      </trkpt>
      <trkpt lat="60.36772" lon="7.50511">
        <ele>1230.14</ele>
        <time>2019-04-04T10:56:15Z</time>
      </trkpt>
      <trkpt lat="60.36772" lon="7.50511">
        <ele>1237.35</ele>
        <time>2019-04-04T10:56:16Z</time>
      </trkpt>
      <trkpt lat="60.36772" lon="7.5051">
        <ele>1229.18</ele>
        <time>2019-04-04T10:56:17Z</time>
      </trkpt>
      <trkpt lat="60.36772" lon="7.50511">
        <ele>1233.51</ele>
        <time>2019-04-04T10:56:18Z</time>
      </trkpt>
      <trkpt lat="60.36772" lon="7.50511">
        <ele>1233.99</ele>
        <time>2019-04-04T10:56:22Z</time>
      </trkpt>
      <trkpt lat="60.36772" lon="7.5051">
        <ele>1229.66</ele>
        <time>2019-04-04T10:56:25Z</time>
      </trkpt>
      <trkpt lat="60.36772" lon="7.5051">
        <ele>1232.07</ele>
        <time>2019-04-04T10:56:26Z</time>
      </trkpt>
      <trkpt lat="60.36772" lon="7.50509">
        <ele>1236.39</ele>
        <time>2019-04-04T10:56:28Z</time>
      </trkpt>
      <trkpt lat="60.36772" lon="7.50509">
        <ele>1232.55</ele>
        <time>2019-04-04T10:56:29Z</time>
      </trkpt>
      <trkpt lat="60.36772" lon="7.50509">
        <ele>1233.99</ele>
        <time>2019-04-04T10:56:34Z</time>
      </trkpt>
      <trkpt lat="60.36772" lon="7.50509">
        <ele>1232.07</ele>
        <time>2019-04-04T10:56:42Z</time>
      </trkpt>
      <trkpt lat="60.36772" lon="7.50509">
        <ele>1234.47</ele>
        <time>2019-04-04T10:56:50Z</time>
      </trkpt>
      <trkpt lat="60.36771" lon="7.50509">
        <ele>1233.03</ele>
        <time>2019-04-04T10:56:54Z</time>
      </trkpt>
      <trkpt lat="60.36771" lon="7.5051">
        <ele>1234.47</ele>
        <time>2019-04-04T10:56:56Z</time>
      </trkpt>
      <trkpt lat="60.3677" lon="7.5051">
        <ele>1227.74</ele>
        <time>2019-04-04T10:57:17Z</time>
      </trkpt>
      <trkpt lat="60.3677" lon="7.5051">
        <ele>1232.55</ele>
        <time>2019-04-04T10:57:18Z</time>
      </trkpt>
      <trkpt lat="60.3677" lon="7.5051">
        <ele>1233.99</ele>
        <time>2019-04-04T10:57:21Z</time>
      </trkpt>
      <trkpt lat="60.3677" lon="7.5051">
        <ele>1235.43</ele>
        <time>2019-04-04T10:57:24Z</time>
      </trkpt>
      <trkpt lat="60.36771" lon="7.5051">
        <ele>1232.55</ele>
        <time>2019-04-04T10:57:29Z</time>
      </trkpt>
      <trkpt lat="60.36771" lon="7.50511">
        <ele>1233.51</ele>
        <time>2019-04-04T10:57:41Z</time>
      </trkpt>
      <trkpt lat="60.36771" lon="7.50511">
        <ele>1233.51</ele>
        <time>2019-04-04T10:57:42Z</time>
      </trkpt>
      <trkpt lat="60.36771" lon="7.50511">
        <ele>1233.51</ele>
        <time>2019-04-04T10:58:01Z</time>
      </trkpt>
      <trkpt lat="60.36771" lon="7.50511">
        <ele>1234.47</ele>
        <time>2019-04-04T10:58:03Z</time>
      </trkpt>
      <trkpt lat="60.36771" lon="7.50512">
        <ele>1232.55</ele>
        <time>2019-04-04T10:58:09Z</time>
      </trkpt>
      <trkpt lat="60.36771" lon="7.50512">
        <ele>1236.87</ele>
        <time>2019-04-04T10:58:10Z</time>
      </trkpt>
      <trkpt lat="60.36771" lon="7.50512">
        <ele>1233.99</ele>
        <time>2019-04-04T10:58:11Z</time>
      </trkpt>
      <trkpt lat="60.36771" lon="7.50511">
        <ele>1235.43</ele>
        <time>2019-04-04T10:58:14Z</time>
      </trkpt>
      <trkpt lat="60.36772" lon="7.50511">
        <ele>1233.99</ele>
        <time>2019-04-04T10:58:25Z</time>
      </trkpt>
      <trkpt lat="60.36772" lon="7.50513">
        <ele>1235.91</ele>
        <time>2019-04-04T10:58:36Z</time>
      </trkpt>
      <trkpt lat="60.36771" lon="7.50512">
        <ele>1234.47</ele>
        <time>2019-04-04T10:58:43Z</time>
      </trkpt>
      <trkpt lat="60.36771" lon="7.50512">
        <ele>1234.47</ele>
        <time>2019-04-04T10:58:59Z</time>
      </trkpt>
      <trkpt lat="60.36771" lon="7.5051">
        <ele>1234.47</ele>
        <time>2019-04-04T10:59:19Z</time>
      </trkpt>
      <trkpt lat="60.36771" lon="7.5051">
        <ele>1234.47</ele>
        <time>2019-04-04T10:59:32Z</time>
      </trkpt>
      <trkpt lat="60.36771" lon="7.50511">
        <ele>1233.99</ele>
        <time>2019-04-04T10:59:48Z</time>
      </trkpt>
      <trkpt lat="60.36772" lon="7.50511">
        <ele>1232.07</ele>
        <time>2019-04-04T10:59:50Z</time>
      </trkpt>
      <trkpt lat="60.36772" lon="7.50509">
        <ele>1232.07</ele>
        <time>2019-04-04T11:00:10Z</time>
      </trkpt>
      <trkpt lat="60.36771" lon="7.50508">
        <ele>1232.07</ele>
        <time>2019-04-04T11:00:26Z</time>
      </trkpt>
      <trkpt lat="60.36772" lon="7.50508">
        <ele>1232.07</ele>
        <time>2019-04-04T11:00:43Z</time>
      </trkpt>
      <trkpt lat="60.36772" lon="7.50509">
        <ele>1232.07</ele>
        <time>2019-04-04T11:01:02Z</time>
      </trkpt>
      <trkpt lat="60.36771" lon="7.50511">
        <ele>1232.07</ele>
        <time>2019-04-04T11:01:26Z</time>
      </trkpt>
      <trkpt lat="60.36772" lon="7.5051">
        <ele>1231.59</ele>
        <time>2019-04-04T11:01:45Z</time>
      </trkpt>
      <trkpt lat="60.36772" lon="7.50511">
        <ele>1231.59</ele>
        <time>2019-04-04T11:02:09Z</time>
      </trkpt>
      <trkpt lat="60.36772" lon="7.5051">
        <ele>1231.59</ele>
        <time>2019-04-04T11:02:37Z</time>
      </trkpt>
      <trkpt lat="60.36772" lon="7.5051">
        <ele>1231.59</ele>
        <time>2019-04-04T11:02:58Z</time>
      </trkpt>
      <trkpt lat="60.36772" lon="7.5051">
        <ele>1231.59</ele>
        <time>2019-04-04T11:03:20Z</time>
      </trkpt>
      <trkpt lat="60.36771" lon="7.5051">
        <ele>1231.59</ele>
        <time>2019-04-04T11:03:39Z</time>
      </trkpt>
      <trkpt lat="60.36772" lon="7.50509">
        <ele>1231.59</ele>
        <time>2019-04-04T11:04:02Z</time>
      </trkpt>
      <trkpt lat="60.36772" lon="7.50508">
        <ele>1232.07</ele>
        <time>2019-04-04T11:04:19Z</time>
      </trkpt>
      <trkpt lat="60.36772" lon="7.50509">
        <ele>1231.59</ele>
        <time>2019-04-04T11:04:42Z</time>
      </trkpt>
      <trkpt lat="60.36773" lon="7.50509">
        <ele>1231.59</ele>
        <time>2019-04-04T11:05:02Z</time>
      </trkpt>
      <trkpt lat="60.36771" lon="7.50512">
        <ele>1232.07</ele>
        <time>2019-04-04T11:05:25Z</time>
      </trkpt>
      <trkpt lat="60.3677" lon="7.50513">
        <ele>1232.07</ele>
        <time>2019-04-04T11:05:54Z</time>
      </trkpt>
      <trkpt lat="60.36771" lon="7.50513">
        <ele>1232.07</ele>
        <time>2019-04-04T11:06:29Z</time>
      </trkpt>
      <trkpt lat="60.36771" lon="7.50513">
        <ele>1232.07</ele>
        <time>2019-04-04T11:06:54Z</time>
      </trkpt>
      <trkpt lat="60.36771" lon="7.50514">
        <ele>1232.07</ele>
        <time>2019-04-04T11:07:22Z</time>
      </trkpt>
      <trkpt lat="60.36771" lon="7.50513">
        <ele>1232.07</ele>
        <time>2019-04-04T11:07:38Z</time>
      </trkpt>
      <trkpt lat="60.3677" lon="7.50515">
        <ele>1232.55</ele>
        <time>2019-04-04T11:07:45Z</time>
      </trkpt>
      <trkpt lat="60.36769" lon="7.50512">
        <ele>1232.55</ele>
        <time>2019-04-04T11:08:03Z</time>
      </trkpt>
      <trkpt lat="60.3677" lon="7.50512">
        <ele>1232.55</ele>
        <time>2019-04-04T11:08:26Z</time>
      </trkpt>
      <trkpt lat="60.3677" lon="7.50512">
        <ele>1232.55</ele>
        <time>2019-04-04T11:08:52Z</time>
      </trkpt>
      <trkpt lat="60.3677" lon="7.50511">
        <ele>1232.55</ele>
        <time>2019-04-04T11:09:14Z</time>
      </trkpt>
      <trkpt lat="60.3677" lon="7.50511">
        <ele>1232.55</ele>
        <time>2019-04-04T11:09:17Z</time>
      </trkpt>
      <trkpt lat="60.3677" lon="7.5051">
        <ele>1231.59</ele>
        <time>2019-04-04T11:09:21Z</time>
      </trkpt>
      <trkpt lat="60.36769" lon="7.5051">
        <ele>1234.47</ele>
        <time>2019-04-04T11:09:23Z</time>
      </trkpt>
      <trkpt lat="60.36771" lon="7.50509">
        <ele>1233.03</ele>
        <time>2019-04-04T11:09:26Z</time>
      </trkpt>
      <trkpt lat="60.36771" lon="7.5051">
        <ele>1232.55</ele>
        <time>2019-04-04T11:09:34Z</time>
      </trkpt>
      <trkpt lat="60.36771" lon="7.5051">
        <ele>1234.95</ele>
        <time>2019-04-04T11:09:37Z</time>
      </trkpt>
      <trkpt lat="60.3677" lon="7.50514">
        <ele>1233.51</ele>
        <time>2019-04-04T11:09:54Z</time>
      </trkpt>
      <trkpt lat="60.3677" lon="7.50514">
        <ele>1233.51</ele>
        <time>2019-04-04T11:09:55Z</time>
      </trkpt>
      <trkpt lat="60.36771" lon="7.50515">
        <ele>1233.51</ele>
        <time>2019-04-04T11:10:09Z</time>
      </trkpt>
      <trkpt lat="60.36771" lon="7.50514">
        <ele>1233.51</ele>
        <time>2019-04-04T11:10:19Z</time>
      </trkpt>
      <trkpt lat="60.36771" lon="7.50513">
        <ele>1234.47</ele>
        <time>2019-04-04T11:10:30Z</time>
      </trkpt>
      <trkpt lat="60.36767" lon="7.50519">
        <ele>1233.51</ele>
        <time>2019-04-04T11:10:37Z</time>
      </trkpt>
      <trkpt lat="60.36765" lon="7.50526">
        <ele>1233.51</ele>
        <time>2019-04-04T11:10:47Z</time>
      </trkpt>
      <trkpt lat="60.3676" lon="7.50531">
        <ele>1233.03</ele>
        <time>2019-04-04T11:10:58Z</time>
      </trkpt>
      <trkpt lat="60.3676" lon="7.50534">
        <ele>1234.47</ele>
        <time>2019-04-04T11:11:08Z</time>
      </trkpt>
      <trkpt lat="60.36758" lon="7.5054">
        <ele>1233.03</ele>
        <time>2019-04-04T11:11:21Z</time>
      </trkpt>
      <trkpt lat="60.36758" lon="7.50541">
        <ele>1227.26</ele>
        <time>2019-04-04T11:11:24Z</time>
      </trkpt>
      <trkpt lat="60.36758" lon="7.5054">
        <ele>1236.39</ele>
        <time>2019-04-04T11:11:25Z</time>
      </trkpt>
      <trkpt lat="60.36758" lon="7.5054">
        <ele>1232.55</ele>
        <time>2019-04-04T11:11:26Z</time>
      </trkpt>
      <trkpt lat="60.36757" lon="7.5054">
        <ele>1228.22</ele>
        <time>2019-04-04T11:11:39Z</time>
      </trkpt>
      <trkpt lat="60.36757" lon="7.5054">
        <ele>1233.99</ele>
        <time>2019-04-04T11:11:40Z</time>
      </trkpt>
      <trkpt lat="60.36757" lon="7.50539">
        <ele>1232.07</ele>
        <time>2019-04-04T11:11:45Z</time>
      </trkpt>
      <trkpt lat="60.36758" lon="7.50541">
        <ele>1233.51</ele>
        <time>2019-04-04T11:12:06Z</time>
      </trkpt>
      <trkpt lat="60.36758" lon="7.50542">
        <ele>1232.07</ele>
        <time>2019-04-04T11:12:08Z</time>
      </trkpt>
      <trkpt lat="60.36758" lon="7.50541">
        <ele>1232.55</ele>
        <time>2019-04-04T11:12:18Z</time>
      </trkpt>
      <trkpt lat="60.36755" lon="7.50546">
        <ele>1231.59</ele>
        <time>2019-04-04T11:12:31Z</time>
      </trkpt>
      <trkpt lat="60.36755" lon="7.50547">
        <ele>1233.03</ele>
        <time>2019-04-04T11:12:33Z</time>
      </trkpt>
      <trkpt lat="60.36754" lon="7.50549">
        <ele>1231.11</ele>
        <time>2019-04-04T11:12:39Z</time>
      </trkpt>
      <trkpt lat="60.36754" lon="7.5055">
        <ele>1231.11</ele>
        <time>2019-04-04T11:12:45Z</time>
      </trkpt>
      <trkpt lat="60.3676" lon="7.5053">
        <ele>1231.11</ele>
        <time>2019-04-04T11:12:55Z</time>
      </trkpt>
      <trkpt lat="60.3676" lon="7.50521">
        <ele>1231.11</ele>
        <time>2019-04-04T11:13:02Z</time>
      </trkpt>
      <trkpt lat="60.36759" lon="7.50516">
        <ele>1230.14</ele>
        <time>2019-04-04T11:13:08Z</time>
      </trkpt>
      <trkpt lat="60.36752" lon="7.50522">
        <ele>1228.22</ele>
        <time>2019-04-04T11:13:12Z</time>
      </trkpt>
      <trkpt lat="60.36743" lon="7.50533">
        <ele>1227.26</ele>
        <time>2019-04-04T11:13:14Z</time>
      </trkpt>
      <trkpt lat="60.3673" lon="7.5055">
        <ele>1228.7</ele>
        <time>2019-04-04T11:13:17Z</time>
      </trkpt>
      <trkpt lat="60.36726" lon="7.50557">
        <ele>1227.26</ele>
        <time>2019-04-04T11:13:19Z</time>
      </trkpt>
      <trkpt lat="60.36721" lon="7.50557">
        <ele>1228.7</ele>
        <time>2019-04-04T11:13:22Z</time>
      </trkpt>
      <trkpt lat="60.36727" lon="7.5055">
        <ele>1229.18</ele>
        <time>2019-04-04T11:13:27Z</time>
      </trkpt>
      <trkpt lat="60.3674" lon="7.50541">
        <ele>1231.11</ele>
        <time>2019-04-04T11:13:30Z</time>
      </trkpt>
      <trkpt lat="60.36767" lon="7.50504">
        <ele>1233.03</ele>
        <time>2019-04-04T11:13:34Z</time>
      </trkpt>
      <trkpt lat="60.36787" lon="7.50477">
        <ele>1234.95</ele>
        <time>2019-04-04T11:13:39Z</time>
      </trkpt>
      <trkpt lat="60.36793" lon="7.50463">
        <ele>1234.95</ele>
        <time>2019-04-04T11:13:43Z</time>
      </trkpt>
      <trkpt lat="60.36789" lon="7.50467">
        <ele>1232.07</ele>
        <time>2019-04-04T11:13:50Z</time>
      </trkpt>
      <trkpt lat="60.36789" lon="7.50467">
        <ele>1232.07</ele>
        <time>2019-04-04T11:13:51Z</time>
      </trkpt>
      <trkpt lat="60.36789" lon="7.50467">
        <ele>1233.99</ele>
        <time>2019-04-04T11:13:53Z</time>
      </trkpt>
      <trkpt lat="60.36787" lon="7.50466">
        <ele>1234.95</ele>
        <time>2019-04-04T11:14:04Z</time>
      </trkpt>
      <trkpt lat="60.36788" lon="7.50467">
        <ele>1234.47</ele>
        <time>2019-04-04T11:14:16Z</time>
      </trkpt>
      <trkpt lat="60.36788" lon="7.50467">
        <ele>1235.43</ele>
        <time>2019-04-04T11:14:29Z</time>
      </trkpt>
      <trkpt lat="60.36788" lon="7.50467">
        <ele>1235.43</ele>
        <time>2019-04-04T11:14:48Z</time>
      </trkpt>
      <trkpt lat="60.36788" lon="7.50467">
        <ele>1234.47</ele>
        <time>2019-04-04T11:15:08Z</time>
      </trkpt>
      <trkpt lat="60.36787" lon="7.50462">
        <ele>1235.91</ele>
        <time>2019-04-04T11:15:18Z</time>
      </trkpt>
      <trkpt lat="60.36787" lon="7.50461">
        <ele>1236.39</ele>
        <time>2019-04-04T11:15:20Z</time>
      </trkpt>
      <trkpt lat="60.36787" lon="7.50458">
        <ele>1236.39</ele>
        <time>2019-04-04T11:15:21Z</time>
      </trkpt>
      <trkpt lat="60.36788" lon="7.50456">
        <ele>1236.39</ele>
        <time>2019-04-04T11:15:22Z</time>
      </trkpt>
      <trkpt lat="60.3679" lon="7.50455">
        <ele>1236.39</ele>
        <time>2019-04-04T11:15:30Z</time>
      </trkpt>
      <trkpt lat="60.36789" lon="7.50455">
        <ele>1236.39</ele>
        <time>2019-04-04T11:15:36Z</time>
      </trkpt>
      <trkpt lat="60.36787" lon="7.50453">
        <ele>1234.95</ele>
        <time>2019-04-04T11:15:38Z</time>
      </trkpt>
      <trkpt lat="60.36785" lon="7.50451">
        <ele>1234.47</ele>
        <time>2019-04-04T11:15:46Z</time>
      </trkpt>
      <trkpt lat="60.36781" lon="7.50453">
        <ele>1235.43</ele>
        <time>2019-04-04T11:15:57Z</time>
      </trkpt>
      <trkpt lat="60.3678" lon="7.50454">
        <ele>1235.43</ele>
        <time>2019-04-04T11:16:08Z</time>
      </trkpt>
      <trkpt lat="60.36769" lon="7.50476">
        <ele>1230.14</ele>
        <time>2019-04-04T11:16:14Z</time>
      </trkpt>
      <trkpt lat="60.36767" lon="7.50482">
        <ele>1230.14</ele>
        <time>2019-04-04T11:16:15Z</time>
      </trkpt>
      <trkpt lat="60.3676" lon="7.50511">
        <ele>1229.18</ele>
        <time>2019-04-04T11:16:20Z</time>
      </trkpt>
      <trkpt lat="60.36754" lon="7.50515">
        <ele>1230.14</ele>
        <time>2019-04-04T11:16:24Z</time>
      </trkpt>
      <trkpt lat="60.36753" lon="7.50513">
        <ele>1230.62</ele>
        <time>2019-04-04T11:16:28Z</time>
      </trkpt>
      <trkpt lat="60.36749" lon="7.50514">
        <ele>1225.34</ele>
        <time>2019-04-04T11:16:34Z</time>
      </trkpt>
      <trkpt lat="60.36749" lon="7.50514">
        <ele>1231.59</ele>
        <time>2019-04-04T11:16:35Z</time>
      </trkpt>
      <trkpt lat="60.36749" lon="7.50515">
        <ele>1230.14</ele>
        <time>2019-04-04T11:16:40Z</time>
      </trkpt>
      <trkpt lat="60.36742" lon="7.5052">
        <ele>1221.97</ele>
        <time>2019-04-04T11:16:48Z</time>
      </trkpt>
      <trkpt lat="60.36742" lon="7.5052">
        <ele>1229.66</ele>
        <time>2019-04-04T11:16:49Z</time>
      </trkpt>
      <trkpt lat="60.36742" lon="7.50519">
        <ele>1230.62</ele>
        <time>2019-04-04T11:16:51Z</time>
      </trkpt>
      <trkpt lat="60.36725" lon="7.50541">
        <ele>1224.86</ele>
        <time>2019-04-04T11:16:57Z</time>
      </trkpt>
      <trkpt lat="60.36709" lon="7.50563">
        <ele>1221.01</ele>
        <time>2019-04-04T11:17:00Z</time>
      </trkpt>
      <trkpt lat="60.36678" lon="7.5061">
        <ele>1220.53</ele>
        <time>2019-04-04T11:17:07Z</time>
      </trkpt>
      <trkpt lat="60.36676" lon="7.5061">
        <ele>1223.9</ele>
        <time>2019-04-04T11:17:09Z</time>
      </trkpt>
      <trkpt lat="60.36675" lon="7.50607">
        <ele>1224.38</ele>
        <time>2019-04-04T11:17:11Z</time>
      </trkpt>
      <trkpt lat="60.36675" lon="7.50606">
        <ele>1221.01</ele>
        <time>2019-04-04T11:17:12Z</time>
      </trkpt>
      <trkpt lat="60.36675" lon="7.50605">
        <ele>1224.86</ele>
        <time>2019-04-04T11:17:13Z</time>
      </trkpt>
      <trkpt lat="60.36673" lon="7.50603">
        <ele>1215.72</ele>
        <time>2019-04-04T11:17:16Z</time>
      </trkpt>
      <trkpt lat="60.36674" lon="7.50603">
        <ele>1226.3</ele>
        <time>2019-04-04T11:17:17Z</time>
      </trkpt>
      <trkpt lat="60.36674" lon="7.50603">
        <ele>1226.3</ele>
        <time>2019-04-04T11:17:18Z</time>
      </trkpt>
      <trkpt lat="60.36673" lon="7.50603">
        <ele>1224.38</ele>
        <time>2019-04-04T11:17:21Z</time>
      </trkpt>
      <trkpt lat="60.36671" lon="7.50602">
        <ele>1223.42</ele>
        <time>2019-04-04T11:17:23Z</time>
      </trkpt>
      <trkpt lat="60.3667" lon="7.506">
        <ele>1225.34</ele>
        <time>2019-04-04T11:17:27Z</time>
      </trkpt>
      <trkpt lat="60.3667" lon="7.506">
        <ele>1223.9</ele>
        <time>2019-04-04T11:17:31Z</time>
      </trkpt>
      <trkpt lat="60.36667" lon="7.50598">
        <ele>1217.17</ele>
        <time>2019-04-04T11:17:34Z</time>
      </trkpt>
      <trkpt lat="60.36666" lon="7.50597">
        <ele>1225.34</ele>
        <time>2019-04-04T11:17:35Z</time>
      </trkpt>
      <trkpt lat="60.36665" lon="7.50595">
        <ele>1223.9</ele>
        <time>2019-04-04T11:17:44Z</time>
      </trkpt>
      <trkpt lat="60.36656" lon="7.50606">
        <ele>1220.53</ele>
        <time>2019-04-04T11:17:49Z</time>
      </trkpt>
      <trkpt lat="60.36648" lon="7.5062">
        <ele>1219.57</ele>
        <time>2019-04-04T11:17:51Z</time>
      </trkpt>
      <trkpt lat="60.36644" lon="7.50627">
        <ele>1219.57</ele>
        <time>2019-04-04T11:17:52Z</time>
      </trkpt>
      <trkpt lat="60.3662" lon="7.5067">
        <ele>1218.13</ele>
        <time>2019-04-04T11:17:58Z</time>
      </trkpt>
      <trkpt lat="60.36607" lon="7.5071">
        <ele>1219.09</ele>
        <time>2019-04-04T11:18:05Z</time>
      </trkpt>
      <trkpt lat="60.36604" lon="7.50715">
        <ele>1222.45</ele>
        <time>2019-04-04T11:18:09Z</time>
      </trkpt>
      <trkpt lat="60.36604" lon="7.50715">
        <ele>1222.45</ele>
        <time>2019-04-04T11:18:10Z</time>
      </trkpt>
      <trkpt lat="60.36603" lon="7.50713">
        <ele>1221.97</ele>
        <time>2019-04-04T11:18:16Z</time>
      </trkpt>
      <trkpt lat="60.36599" lon="7.50716">
        <ele>1220.05</ele>
        <time>2019-04-04T11:18:19Z</time>
      </trkpt>
      <trkpt lat="60.36591" lon="7.5073">
        <ele>1219.09</ele>
        <time>2019-04-04T11:18:23Z</time>
      </trkpt>
      <trkpt lat="60.36586" lon="7.50741">
        <ele>1217.65</ele>
        <time>2019-04-04T11:18:25Z</time>
      </trkpt>
      <trkpt lat="60.36572" lon="7.50771">
        <ele>1216.69</ele>
        <time>2019-04-04T11:18:30Z</time>
      </trkpt>
      <trkpt lat="60.36564" lon="7.50791">
        <ele>1215.72</ele>
        <time>2019-04-04T11:18:33Z</time>
      </trkpt>
      <trkpt lat="60.36545" lon="7.50838">
        <ele>1216.21</ele>
        <time>2019-04-04T11:18:42Z</time>
      </trkpt>
      <trkpt lat="60.36542" lon="7.50839">
        <ele>1217.65</ele>
        <time>2019-04-04T11:18:45Z</time>
      </trkpt>
      <trkpt lat="60.3654" lon="7.50836">
        <ele>1216.69</ele>
        <time>2019-04-04T11:18:56Z</time>
      </trkpt>
      <trkpt lat="60.3654" lon="7.50836">
        <ele>1217.65</ele>
        <time>2019-04-04T11:19:06Z</time>
      </trkpt>
      <trkpt lat="60.36531" lon="7.50848">
        <ele>1213.8</ele>
        <time>2019-04-04T11:19:10Z</time>
      </trkpt>
      <trkpt lat="60.36524" lon="7.50864">
        <ele>1211.4</ele>
        <time>2019-04-04T11:19:12Z</time>
      </trkpt>
      <trkpt lat="60.36511" lon="7.50898">
        <ele>1210.44</ele>
        <time>2019-04-04T11:19:16Z</time>
      </trkpt>
      <trkpt lat="60.36501" lon="7.50913">
        <ele>1210.44</ele>
        <time>2019-04-04T11:19:18Z</time>
      </trkpt>
      <trkpt lat="60.36493" lon="7.50929">
        <ele>1211.88</ele>
        <time>2019-04-04T11:19:20Z</time>
      </trkpt>
      <trkpt lat="60.36486" lon="7.50944">
        <ele>1211.88</ele>
        <time>2019-04-04T11:19:22Z</time>
      </trkpt>
      <trkpt lat="60.36477" lon="7.50966">
        <ele>1209.96</ele>
        <time>2019-04-04T11:19:25Z</time>
      </trkpt>
      <trkpt lat="60.36473" lon="7.50972">
        <ele>1211.88</ele>
        <time>2019-04-04T11:19:26Z</time>
      </trkpt>
      <trkpt lat="60.36453" lon="7.51007">
        <ele>1215.24</ele>
        <time>2019-04-04T11:19:35Z</time>
      </trkpt>
      <trkpt lat="60.36453" lon="7.51006">
        <ele>1215.24</ele>
        <time>2019-04-04T11:19:36Z</time>
      </trkpt>
      <trkpt lat="60.36452" lon="7.51004">
        <ele>1215.72</ele>
        <time>2019-04-04T11:19:51Z</time>
      </trkpt>
      <trkpt lat="60.36448" lon="7.51">
        <ele>1215.72</ele>
        <time>2019-04-04T11:20:04Z</time>
      </trkpt>
      <trkpt lat="60.36448" lon="7.50999">
        <ele>1215.72</ele>
        <time>2019-04-04T11:20:21Z</time>
      </trkpt>
      <trkpt lat="60.36442" lon="7.51004">
        <ele>1211.4</ele>
        <time>2019-04-04T11:20:24Z</time>
      </trkpt>
      <trkpt lat="60.36438" lon="7.51009">
        <ele>1212.84</ele>
        <time>2019-04-04T11:20:25Z</time>
      </trkpt>
      <trkpt lat="60.36433" lon="7.51015">
        <ele>1212.84</ele>
        <time>2019-04-04T11:20:26Z</time>
      </trkpt>
      <trkpt lat="60.36415" lon="7.51029">
        <ele>1210.92</ele>
        <time>2019-04-04T11:20:29Z</time>
      </trkpt>
      <trkpt lat="60.364" lon="7.51032">
        <ele>1210.92</ele>
        <time>2019-04-04T11:20:31Z</time>
      </trkpt>
      <trkpt lat="60.36386" lon="7.5104">
        <ele>1212.36</ele>
        <time>2019-04-04T11:20:33Z</time>
      </trkpt>
      <trkpt lat="60.36336" lon="7.51101">
        <ele>1209.48</ele>
        <time>2019-04-04T11:20:42Z</time>
      </trkpt>
      <trkpt lat="60.36301" lon="7.51148">
        <ele>1211.88</ele>
        <time>2019-04-04T11:20:49Z</time>
      </trkpt>
      <trkpt lat="60.36259" lon="7.51208">
        <ele>1212.84</ele>
        <time>2019-04-04T11:20:58Z</time>
      </trkpt>
      <trkpt lat="60.36254" lon="7.51213">
        <ele>1212.84</ele>
        <time>2019-04-04T11:20:59Z</time>
      </trkpt>
      <trkpt lat="60.3624" lon="7.5123">
        <ele>1210.92</ele>
        <time>2019-04-04T11:21:02Z</time>
      </trkpt>
      <trkpt lat="60.36218" lon="7.51255">
        <ele>1214.28</ele>
        <time>2019-04-04T11:21:07Z</time>
      </trkpt>
      <trkpt lat="60.36205" lon="7.5127">
        <ele>1214.76</ele>
        <time>2019-04-04T11:21:10Z</time>
      </trkpt>
      <trkpt lat="60.36198" lon="7.51281">
        <ele>1216.69</ele>
        <time>2019-04-04T11:21:12Z</time>
      </trkpt>
      <trkpt lat="60.36168" lon="7.51321">
        <ele>1213.8</ele>
        <time>2019-04-04T11:21:20Z</time>
      </trkpt>
      <trkpt lat="60.36163" lon="7.51326">
        <ele>1213.8</ele>
        <time>2019-04-04T11:21:21Z</time>
      </trkpt>
      <trkpt lat="60.3615" lon="7.51345">
        <ele>1215.24</ele>
        <time>2019-04-04T11:21:24Z</time>
      </trkpt>
      <trkpt lat="60.36146" lon="7.51351">
        <ele>1215.24</ele>
        <time>2019-04-04T11:21:25Z</time>
      </trkpt>
      <trkpt lat="60.36107" lon="7.51407">
        <ele>1218.61</ele>
        <time>2019-04-04T11:21:34Z</time>
      </trkpt>
      <trkpt lat="60.36099" lon="7.51418">
        <ele>1215.72</ele>
        <time>2019-04-04T11:21:36Z</time>
      </trkpt>
      <trkpt lat="60.36089" lon="7.5143">
        <ele>1214.76</ele>
        <time>2019-04-04T11:21:38Z</time>
      </trkpt>
      <trkpt lat="60.36079" lon="7.51442">
        <ele>1216.21</ele>
        <time>2019-04-04T11:21:40Z</time>
      </trkpt>
      <trkpt lat="60.36069" lon="7.51454">
        <ele>1214.76</ele>
        <time>2019-04-04T11:21:42Z</time>
      </trkpt>
      <trkpt lat="60.3606" lon="7.51468">
        <ele>1216.21</ele>
        <time>2019-04-04T11:21:44Z</time>
      </trkpt>
      <trkpt lat="60.36036" lon="7.515">
        <ele>1214.28</ele>
        <time>2019-04-04T11:21:49Z</time>
      </trkpt>
      <trkpt lat="60.3602" lon="7.51527">
        <ele>1216.21</ele>
        <time>2019-04-04T11:21:53Z</time>
      </trkpt>
      <trkpt lat="60.36004" lon="7.5155">
        <ele>1214.76</ele>
        <time>2019-04-04T11:21:57Z</time>
      </trkpt>
      <trkpt lat="60.35994" lon="7.51572">
        <ele>1213.8</ele>
        <time>2019-04-04T11:22:00Z</time>
      </trkpt>
      <trkpt lat="60.35975" lon="7.51618">
        <ele>1213.32</ele>
        <time>2019-04-04T11:22:06Z</time>
      </trkpt>
      <trkpt lat="60.35947" lon="7.51655">
        <ele>1210.92</ele>
        <time>2019-04-04T11:22:12Z</time>
      </trkpt>
      <trkpt lat="60.35935" lon="7.51667">
        <ele>1209.96</ele>
        <time>2019-04-04T11:22:14Z</time>
      </trkpt>
      <trkpt lat="60.35916" lon="7.51682">
        <ele>1207.07</ele>
        <time>2019-04-04T11:22:17Z</time>
      </trkpt>
      <trkpt lat="60.35889" lon="7.51715">
        <ele>1205.63</ele>
        <time>2019-04-04T11:22:22Z</time>
      </trkpt>
      <trkpt lat="60.35877" lon="7.51723">
        <ele>1204.67</ele>
        <time>2019-04-04T11:22:24Z</time>
      </trkpt>
      <trkpt lat="60.35865" lon="7.5173">
        <ele>1204.19</ele>
        <time>2019-04-04T11:22:26Z</time>
      </trkpt>
      <trkpt lat="60.3584" lon="7.5174">
        <ele>1204.19</ele>
        <time>2019-04-04T11:22:30Z</time>
      </trkpt>
      <trkpt lat="60.35822" lon="7.51772">
        <ele>1203.71</ele>
        <time>2019-04-04T11:22:35Z</time>
      </trkpt>
      <trkpt lat="60.35808" lon="7.51799">
        <ele>1201.79</ele>
        <time>2019-04-04T11:22:39Z</time>
      </trkpt>
      <trkpt lat="60.3579" lon="7.5184">
        <ele>1200.34</ele>
        <time>2019-04-04T11:22:44Z</time>
      </trkpt>
      <trkpt lat="60.35781" lon="7.51855">
        <ele>1198.9</ele>
        <time>2019-04-04T11:22:46Z</time>
      </trkpt>
      <trkpt lat="60.35771" lon="7.51872">
        <ele>1196.5</ele>
        <time>2019-04-04T11:22:48Z</time>
      </trkpt>
      <trkpt lat="60.35762" lon="7.51891">
        <ele>1193.13</ele>
        <time>2019-04-04T11:22:50Z</time>
      </trkpt>
      <trkpt lat="60.35738" lon="7.51934">
        <ele>1191.21</ele>
        <time>2019-04-04T11:22:55Z</time>
      </trkpt>
      <trkpt lat="60.35728" lon="7.51951">
        <ele>1189.29</ele>
        <time>2019-04-04T11:22:57Z</time>
      </trkpt>
      <trkpt lat="60.35719" lon="7.51967">
        <ele>1188.33</ele>
        <time>2019-04-04T11:22:59Z</time>
      </trkpt>
      <trkpt lat="60.35704" lon="7.51988">
        <ele>1187.37</ele>
        <time>2019-04-04T11:23:02Z</time>
      </trkpt>
      <trkpt lat="60.35678" lon="7.52022">
        <ele>1187.85</ele>
        <time>2019-04-04T11:23:07Z</time>
      </trkpt>
      <trkpt lat="60.35666" lon="7.52036">
        <ele>1185.92</ele>
        <time>2019-04-04T11:23:09Z</time>
      </trkpt>
      <trkpt lat="60.35653" lon="7.5205">
        <ele>1184</ele>
        <time>2019-04-04T11:23:11Z</time>
      </trkpt>
      <trkpt lat="60.35647" lon="7.52057">
        <ele>1183.04</ele>
        <time>2019-04-04T11:23:12Z</time>
      </trkpt>
      <trkpt lat="60.35631" lon="7.5208">
        <ele>1181.6</ele>
        <time>2019-04-04T11:23:15Z</time>
      </trkpt>
      <trkpt lat="60.35626" lon="7.52087">
        <ele>1181.6</ele>
        <time>2019-04-04T11:23:16Z</time>
      </trkpt>
      <trkpt lat="60.35618" lon="7.52101">
        <ele>1181.12</ele>
        <time>2019-04-04T11:23:19Z</time>
      </trkpt>
      <trkpt lat="60.35615" lon="7.52098">
        <ele>1184.96</ele>
        <time>2019-04-04T11:23:26Z</time>
      </trkpt>
      <trkpt lat="60.35614" lon="7.52097">
        <ele>1185.44</ele>
        <time>2019-04-04T11:23:28Z</time>
      </trkpt>
      <trkpt lat="60.35601" lon="7.52093">
        <ele>1183.52</ele>
        <time>2019-04-04T11:23:34Z</time>
      </trkpt>
      <trkpt lat="60.35585" lon="7.52107">
        <ele>1178.71</ele>
        <time>2019-04-04T11:23:37Z</time>
      </trkpt>
      <trkpt lat="60.35574" lon="7.52122">
        <ele>1178.71</ele>
        <time>2019-04-04T11:23:39Z</time>
      </trkpt>
      <trkpt lat="60.35553" lon="7.5215">
        <ele>1178.23</ele>
        <time>2019-04-04T11:23:43Z</time>
      </trkpt>
      <trkpt lat="60.35532" lon="7.52169">
        <ele>1177.27</ele>
        <time>2019-04-04T11:23:47Z</time>
      </trkpt>
      <trkpt lat="60.35523" lon="7.52182">
        <ele>1177.27</ele>
        <time>2019-04-04T11:23:49Z</time>
      </trkpt>
      <trkpt lat="60.35506" lon="7.52211">
        <ele>1176.31</ele>
        <time>2019-04-04T11:23:53Z</time>
      </trkpt>
      <trkpt lat="60.35501" lon="7.52217">
        <ele>1175.35</ele>
        <time>2019-04-04T11:23:54Z</time>
      </trkpt>
      <trkpt lat="60.35492" lon="7.52227">
        <ele>1174.87</ele>
        <time>2019-04-04T11:23:56Z</time>
      </trkpt>
      <trkpt lat="60.35466" lon="7.52258">
        <ele>1171.02</ele>
        <time>2019-04-04T11:24:01Z</time>
      </trkpt>
      <trkpt lat="60.35436" lon="7.5229">
        <ele>1167.66</ele>
        <time>2019-04-04T11:24:06Z</time>
      </trkpt>
      <trkpt lat="60.35415" lon="7.52309">
        <ele>1165.26</ele>
        <time>2019-04-04T11:24:09Z</time>
      </trkpt>
      <trkpt lat="60.35359" lon="7.52351">
        <ele>1164.29</ele>
        <time>2019-04-04T11:24:18Z</time>
      </trkpt>
      <trkpt lat="60.35323" lon="7.52367">
        <ele>1161.41</ele>
        <time>2019-04-04T11:24:23Z</time>
      </trkpt>
      <trkpt lat="60.35316" lon="7.52371">
        <ele>1160.45</ele>
        <time>2019-04-04T11:24:24Z</time>
      </trkpt>
      <trkpt lat="60.35302" lon="7.52382">
        <ele>1159.97</ele>
        <time>2019-04-04T11:24:26Z</time>
      </trkpt>
      <trkpt lat="60.35265" lon="7.52409">
        <ele>1158.53</ele>
        <time>2019-04-04T11:24:31Z</time>
      </trkpt>
      <trkpt lat="60.35255" lon="7.52418">
        <ele>1163.33</ele>
        <time>2019-04-04T11:24:33Z</time>
      </trkpt>
      <trkpt lat="60.35235" lon="7.52434">
        <ele>1167.66</ele>
        <time>2019-04-04T11:24:39Z</time>
      </trkpt>
      <trkpt lat="60.35232" lon="7.52435">
        <ele>1167.66</ele>
        <time>2019-04-04T11:24:40Z</time>
      </trkpt>
      <trkpt lat="60.35198" lon="7.52449">
        <ele>1163.81</ele>
        <time>2019-04-04T11:24:46Z</time>
      </trkpt>
      <trkpt lat="60.35147" lon="7.52468">
        <ele>1166.7</ele>
        <time>2019-04-04T11:24:53Z</time>
      </trkpt>
      <trkpt lat="60.35132" lon="7.52476">
        <ele>1170.54</ele>
        <time>2019-04-04T11:24:58Z</time>
      </trkpt>
      <trkpt lat="60.35122" lon="7.52463">
        <ele>1171.98</ele>
        <time>2019-04-04T11:25:07Z</time>
      </trkpt>
      <trkpt lat="60.35122" lon="7.52464">
        <ele>1171.98</ele>
        <time>2019-04-04T11:25:34Z</time>
      </trkpt>
      <trkpt lat="60.3512" lon="7.52464">
        <ele>1170.06</ele>
        <time>2019-04-04T11:25:48Z</time>
      </trkpt>
      <trkpt lat="60.35118" lon="7.52465">
        <ele>1171.5</ele>
        <time>2019-04-04T11:25:52Z</time>
      </trkpt>
      <trkpt lat="60.35118" lon="7.52465">
        <ele>1170.54</ele>
        <time>2019-04-04T11:25:55Z</time>
      </trkpt>
      <trkpt lat="60.35095" lon="7.52477">
        <ele>1167.66</ele>
        <time>2019-04-04T11:26:00Z</time>
      </trkpt>
      <trkpt lat="60.35087" lon="7.52482">
        <ele>1164.77</ele>
        <time>2019-04-04T11:26:01Z</time>
      </trkpt>
      <trkpt lat="60.35068" lon="7.52486">
        <ele>1161.41</ele>
        <time>2019-04-04T11:26:03Z</time>
      </trkpt>
      <trkpt lat="60.35059" lon="7.52487">
        <ele>1160.45</ele>
        <time>2019-04-04T11:26:04Z</time>
      </trkpt>
      <trkpt lat="60.35041" lon="7.52487">
        <ele>1159.49</ele>
        <time>2019-04-04T11:26:06Z</time>
      </trkpt>
      <trkpt lat="60.35019" lon="7.5249">
        <ele>1162.85</ele>
        <time>2019-04-04T11:26:09Z</time>
      </trkpt>
      <trkpt lat="60.3501" lon="7.52494">
        <ele>1166.22</ele>
        <time>2019-04-04T11:26:11Z</time>
      </trkpt>
      <trkpt lat="60.35002" lon="7.52498">
        <ele>1168.14</ele>
        <time>2019-04-04T11:26:14Z</time>
      </trkpt>
      <trkpt lat="60.35" lon="7.52498">
        <ele>1169.1</ele>
        <time>2019-04-04T11:26:15Z</time>
      </trkpt>
      <trkpt lat="60.34997" lon="7.52494">
        <ele>1170.54</ele>
        <time>2019-04-04T11:26:19Z</time>
      </trkpt>
      <trkpt lat="60.34997" lon="7.52495">
        <ele>1170.54</ele>
        <time>2019-04-04T11:26:21Z</time>
      </trkpt>
      <trkpt lat="60.34984" lon="7.52499">
        <ele>1167.66</ele>
        <time>2019-04-04T11:26:25Z</time>
      </trkpt>
      <trkpt lat="60.34915" lon="7.52529">
        <ele>1162.37</ele>
        <time>2019-04-04T11:26:35Z</time>
      </trkpt>
      <trkpt lat="60.34898" lon="7.52533">
        <ele>1161.41</ele>
        <time>2019-04-04T11:26:37Z</time>
      </trkpt>
      <trkpt lat="60.34867" lon="7.52544">
        <ele>1161.41</ele>
        <time>2019-04-04T11:26:41Z</time>
      </trkpt>
      <trkpt lat="60.34835" lon="7.52562">
        <ele>1162.85</ele>
        <time>2019-04-04T11:26:46Z</time>
      </trkpt>
      <trkpt lat="60.34817" lon="7.52566">
        <ele>1167.66</ele>
        <time>2019-04-04T11:26:49Z</time>
      </trkpt>
      <trkpt lat="60.34802" lon="7.5257">
        <ele>1169.1</ele>
        <time>2019-04-04T11:26:52Z</time>
      </trkpt>
      <trkpt lat="60.34756" lon="7.52587">
        <ele>1169.1</ele>
        <time>2019-04-04T11:27:00Z</time>
      </trkpt>
      <trkpt lat="60.34745" lon="7.52592">
        <ele>1170.54</ele>
        <time>2019-04-04T11:27:03Z</time>
      </trkpt>
      <trkpt lat="60.3473" lon="7.5259">
        <ele>1171.5</ele>
        <time>2019-04-04T11:27:07Z</time>
      </trkpt>
      <trkpt lat="60.34717" lon="7.52584">
        <ele>1171.98</ele>
        <time>2019-04-04T11:27:10Z</time>
      </trkpt>
      <trkpt lat="60.34703" lon="7.52584">
        <ele>1172.47</ele>
        <time>2019-04-04T11:27:13Z</time>
      </trkpt>
      <trkpt lat="60.34696" lon="7.52582">
        <ele>1173.43</ele>
        <time>2019-04-04T11:27:15Z</time>
      </trkpt>
      <trkpt lat="60.34677" lon="7.52574">
        <ele>1174.39</ele>
        <time>2019-04-04T11:27:20Z</time>
      </trkpt>
      <trkpt lat="60.34647" lon="7.52566">
        <ele>1174.87</ele>
        <time>2019-04-04T11:27:26Z</time>
      </trkpt>
      <trkpt lat="60.34622" lon="7.5257">
        <ele>1174.39</ele>
        <time>2019-04-04T11:27:31Z</time>
      </trkpt>
      <trkpt lat="60.34617" lon="7.5257">
        <ele>1174.39</ele>
        <time>2019-04-04T11:27:32Z</time>
      </trkpt>
      <trkpt lat="60.34575" lon="7.52574">
        <ele>1174.39</ele>
        <time>2019-04-04T11:27:40Z</time>
      </trkpt>
      <trkpt lat="60.34566" lon="7.52578">
        <ele>1174.39</ele>
        <time>2019-04-04T11:27:42Z</time>
      </trkpt>
      <trkpt lat="60.34557" lon="7.52585">
        <ele>1174.39</ele>
        <time>2019-04-04T11:27:44Z</time>
      </trkpt>
      <trkpt lat="60.34546" lon="7.52595">
        <ele>1175.83</ele>
        <time>2019-04-04T11:27:47Z</time>
      </trkpt>
      <trkpt lat="60.34525" lon="7.52608">
        <ele>1175.83</ele>
        <time>2019-04-04T11:27:53Z</time>
      </trkpt>
      <trkpt lat="60.34516" lon="7.52614">
        <ele>1174.39</ele>
        <time>2019-04-04T11:27:56Z</time>
      </trkpt>
      <trkpt lat="60.34509" lon="7.5262">
        <ele>1174.39</ele>
        <time>2019-04-04T11:27:58Z</time>
      </trkpt>
      <trkpt lat="60.34504" lon="7.52626">
        <ele>1173.91</ele>
        <time>2019-04-04T11:28:00Z</time>
      </trkpt>
      <trkpt lat="60.34497" lon="7.52629">
        <ele>1176.31</ele>
        <time>2019-04-04T11:28:03Z</time>
      </trkpt>
      <trkpt lat="60.34485" lon="7.52636">
        <ele>1174.39</ele>
        <time>2019-04-04T11:28:07Z</time>
      </trkpt>
      <trkpt lat="60.3446" lon="7.52656">
        <ele>1171.5</ele>
        <time>2019-04-04T11:28:12Z</time>
      </trkpt>
      <trkpt lat="60.3442" lon="7.52686">
        <ele>1168.14</ele>
        <time>2019-04-04T11:28:19Z</time>
      </trkpt>
      <trkpt lat="60.34386" lon="7.52701">
        <ele>1167.18</ele>
        <time>2019-04-04T11:28:24Z</time>
      </trkpt>
      <trkpt lat="60.34372" lon="7.52707">
        <ele>1165.74</ele>
        <time>2019-04-04T11:28:26Z</time>
      </trkpt>
      <trkpt lat="60.34359" lon="7.52717">
        <ele>1164.77</ele>
        <time>2019-04-04T11:28:28Z</time>
      </trkpt>
      <trkpt lat="60.34354" lon="7.52722">
        <ele>1163.81</ele>
        <time>2019-04-04T11:28:29Z</time>
      </trkpt>
      <trkpt lat="60.34329" lon="7.52738">
        <ele>1162.37</ele>
        <time>2019-04-04T11:28:33Z</time>
      </trkpt>
      <trkpt lat="60.34304" lon="7.52758">
        <ele>1162.85</ele>
        <time>2019-04-04T11:28:38Z</time>
      </trkpt>
      <trkpt lat="60.34296" lon="7.52764">
        <ele>1159.01</ele>
        <time>2019-04-04T11:28:40Z</time>
      </trkpt>
      <trkpt lat="60.34293" lon="7.52768">
        <ele>1159.01</ele>
        <time>2019-04-04T11:28:41Z</time>
      </trkpt>
      <trkpt lat="60.34282" lon="7.52781">
        <ele>1157.56</ele>
        <time>2019-04-04T11:28:44Z</time>
      </trkpt>
      <trkpt lat="60.34269" lon="7.52798">
        <ele>1155.64</ele>
        <time>2019-04-04T11:28:47Z</time>
      </trkpt>
      <trkpt lat="60.34261" lon="7.52809">
        <ele>1154.68</ele>
        <time>2019-04-04T11:28:49Z</time>
      </trkpt>
      <trkpt lat="60.34238" lon="7.52835">
        <ele>1151.32</ele>
        <time>2019-04-04T11:28:54Z</time>
      </trkpt>
      <trkpt lat="60.34233" lon="7.5284">
        <ele>1151.32</ele>
        <time>2019-04-04T11:28:55Z</time>
      </trkpt>
      <trkpt lat="60.34184" lon="7.52906">
        <ele>1148.43</ele>
        <time>2019-04-04T11:29:06Z</time>
      </trkpt>
      <trkpt lat="60.34148" lon="7.52956">
        <ele>1145.07</ele>
        <time>2019-04-04T11:29:14Z</time>
      </trkpt>
      <trkpt lat="60.34144" lon="7.52962">
        <ele>1145.07</ele>
        <time>2019-04-04T11:29:15Z</time>
      </trkpt>
      <trkpt lat="60.34118" lon="7.52994">
        <ele>1146.99</ele>
        <time>2019-04-04T11:29:20Z</time>
      </trkpt>
      <trkpt lat="60.34104" lon="7.53011">
        <ele>1145.55</ele>
        <time>2019-04-04T11:29:23Z</time>
      </trkpt>
      <trkpt lat="60.34095" lon="7.53026">
        <ele>1147.95</ele>
        <time>2019-04-04T11:29:26Z</time>
      </trkpt>
      <trkpt lat="60.34092" lon="7.53028">
        <ele>1147.95</ele>
        <time>2019-04-04T11:29:27Z</time>
      </trkpt>
      <trkpt lat="60.34076" lon="7.53045">
        <ele>1143.14</ele>
        <time>2019-04-04T11:29:31Z</time>
      </trkpt>
      <trkpt lat="60.3407" lon="7.53058">
        <ele>1142.18</ele>
        <time>2019-04-04T11:29:33Z</time>
      </trkpt>
      <trkpt lat="60.34067" lon="7.53066">
        <ele>1142.18</ele>
        <time>2019-04-04T11:29:34Z</time>
      </trkpt>
      <trkpt lat="60.3406" lon="7.53076">
        <ele>1144.11</ele>
        <time>2019-04-04T11:29:36Z</time>
      </trkpt>
      <trkpt lat="60.34039" lon="7.53106">
        <ele>1142.18</ele>
        <time>2019-04-04T11:29:42Z</time>
      </trkpt>
      <trkpt lat="60.34032" lon="7.53117">
        <ele>1143.14</ele>
        <time>2019-04-04T11:29:44Z</time>
      </trkpt>
      <trkpt lat="60.34019" lon="7.53145">
        <ele>1141.22</ele>
        <time>2019-04-04T11:29:48Z</time>
      </trkpt>
      <trkpt lat="60.34008" lon="7.53176">
        <ele>1140.26</ele>
        <time>2019-04-04T11:29:52Z</time>
      </trkpt>
      <trkpt lat="60.34002" lon="7.53191">
        <ele>1142.18</ele>
        <time>2019-04-04T11:29:54Z</time>
      </trkpt>
      <trkpt lat="60.33995" lon="7.53205">
        <ele>1141.22</ele>
        <time>2019-04-04T11:29:56Z</time>
      </trkpt>
      <trkpt lat="60.33989" lon="7.53221">
        <ele>1139.78</ele>
        <time>2019-04-04T11:29:58Z</time>
      </trkpt>
      <trkpt lat="60.33979" lon="7.53244">
        <ele>1137.38</ele>
        <time>2019-04-04T11:30:01Z</time>
      </trkpt>
      <trkpt lat="60.33974" lon="7.53259">
        <ele>1138.82</ele>
        <time>2019-04-04T11:30:03Z</time>
      </trkpt>
      <trkpt lat="60.33961" lon="7.5329">
        <ele>1138.82</ele>
        <time>2019-04-04T11:30:07Z</time>
      </trkpt>
      <trkpt lat="60.33942" lon="7.53335">
        <ele>1136.42</ele>
        <time>2019-04-04T11:30:13Z</time>
      </trkpt>
      <trkpt lat="60.33935" lon="7.53351">
        <ele>1135.45</ele>
        <time>2019-04-04T11:30:15Z</time>
      </trkpt>
      <trkpt lat="60.33927" lon="7.53373">
        <ele>1137.86</ele>
        <time>2019-04-04T11:30:18Z</time>
      </trkpt>
      <trkpt lat="60.33918" lon="7.53393">
        <ele>1135.45</ele>
        <time>2019-04-04T11:30:21Z</time>
      </trkpt>
      <trkpt lat="60.33908" lon="7.53415">
        <ele>1137.38</ele>
        <time>2019-04-04T11:30:24Z</time>
      </trkpt>
      <trkpt lat="60.33897" lon="7.53444">
        <ele>1135.94</ele>
        <time>2019-04-04T11:30:28Z</time>
      </trkpt>
      <trkpt lat="60.33883" lon="7.53485">
        <ele>1135.45</ele>
        <time>2019-04-04T11:30:34Z</time>
      </trkpt>
      <trkpt lat="60.33874" lon="7.53512">
        <ele>1135.45</ele>
        <time>2019-04-04T11:30:38Z</time>
      </trkpt>
      <trkpt lat="60.33865" lon="7.53528">
        <ele>1133.05</ele>
        <time>2019-04-04T11:30:41Z</time>
      </trkpt>
      <trkpt lat="60.33848" lon="7.5355">
        <ele>1132.09</ele>
        <time>2019-04-04T11:30:45Z</time>
      </trkpt>
      <trkpt lat="60.33838" lon="7.53563">
        <ele>1129.69</ele>
        <time>2019-04-04T11:30:47Z</time>
      </trkpt>
      <trkpt lat="60.33828" lon="7.53578">
        <ele>1128.24</ele>
        <time>2019-04-04T11:30:49Z</time>
      </trkpt>
      <trkpt lat="60.33815" lon="7.5359">
        <ele>1127.28</ele>
        <time>2019-04-04T11:30:51Z</time>
      </trkpt>
      <trkpt lat="60.33804" lon="7.53599">
        <ele>1126.32</ele>
        <time>2019-04-04T11:30:53Z</time>
      </trkpt>
      <trkpt lat="60.33796" lon="7.53608">
        <ele>1126.32</ele>
        <time>2019-04-04T11:30:55Z</time>
      </trkpt>
      <trkpt lat="60.33787" lon="7.53614">
        <ele>1124.4</ele>
        <time>2019-04-04T11:30:57Z</time>
      </trkpt>
      <trkpt lat="60.33776" lon="7.53619">
        <ele>1123.92</ele>
        <time>2019-04-04T11:30:59Z</time>
      </trkpt>
      <trkpt lat="60.33766" lon="7.53627">
        <ele>1125.84</ele>
        <time>2019-04-04T11:31:01Z</time>
      </trkpt>
      <trkpt lat="60.33748" lon="7.53632">
        <ele>1121.52</ele>
        <time>2019-04-04T11:31:04Z</time>
      </trkpt>
      <trkpt lat="60.33739" lon="7.53631">
        <ele>1122.96</ele>
        <time>2019-04-04T11:31:06Z</time>
      </trkpt>
      <trkpt lat="60.3373" lon="7.53633">
        <ele>1121.52</ele>
        <time>2019-04-04T11:31:08Z</time>
      </trkpt>
      <trkpt lat="60.33722" lon="7.53641">
        <ele>1120.55</ele>
        <time>2019-04-04T11:31:10Z</time>
      </trkpt>
      <trkpt lat="60.33714" lon="7.53651">
        <ele>1119.11</ele>
        <time>2019-04-04T11:31:12Z</time>
      </trkpt>
      <trkpt lat="60.33705" lon="7.53661">
        <ele>1121.52</ele>
        <time>2019-04-04T11:31:14Z</time>
      </trkpt>
      <trkpt lat="60.33686" lon="7.53671">
        <ele>1120.55</ele>
        <time>2019-04-04T11:31:17Z</time>
      </trkpt>
      <trkpt lat="60.33674" lon="7.53676">
        <ele>1119.59</ele>
        <time>2019-04-04T11:31:19Z</time>
      </trkpt>
      <trkpt lat="60.33664" lon="7.53678">
        <ele>1120.07</ele>
        <time>2019-04-04T11:31:21Z</time>
      </trkpt>
      <trkpt lat="60.33649" lon="7.5368">
        <ele>1126.8</ele>
        <time>2019-04-04T11:31:24Z</time>
      </trkpt>
      <trkpt lat="60.33644" lon="7.53681">
        <ele>1126.8</ele>
        <time>2019-04-04T11:31:25Z</time>
      </trkpt>
      <trkpt lat="60.33628" lon="7.5368">
        <ele>1128.73</ele>
        <time>2019-04-04T11:31:29Z</time>
      </trkpt>
      <trkpt lat="60.33616" lon="7.53679">
        <ele>1127.28</ele>
        <time>2019-04-04T11:31:32Z</time>
      </trkpt>
      <trkpt lat="60.33585" lon="7.537">
        <ele>1129.21</ele>
        <time>2019-04-04T11:31:41Z</time>
      </trkpt>
      <trkpt lat="60.33582" lon="7.53704">
        <ele>1127.76</ele>
        <time>2019-04-04T11:31:42Z</time>
      </trkpt>
      <trkpt lat="60.33567" lon="7.53723">
        <ele>1126.32</ele>
        <time>2019-04-04T11:31:46Z</time>
      </trkpt>
      <trkpt lat="60.33553" lon="7.53745">
        <ele>1126.32</ele>
        <time>2019-04-04T11:31:50Z</time>
      </trkpt>
      <trkpt lat="60.33535" lon="7.53772">
        <ele>1124.88</ele>
        <time>2019-04-04T11:31:55Z</time>
      </trkpt>
      <trkpt lat="60.33528" lon="7.53782">
        <ele>1126.32</ele>
        <time>2019-04-04T11:31:57Z</time>
      </trkpt>
      <trkpt lat="60.33516" lon="7.538">
        <ele>1125.84</ele>
        <time>2019-04-04T11:32:01Z</time>
      </trkpt>
      <trkpt lat="60.33511" lon="7.53808">
        <ele>1124.88</ele>
        <time>2019-04-04T11:32:03Z</time>
      </trkpt>
      <trkpt lat="60.33503" lon="7.53815">
        <ele>1122.96</ele>
        <time>2019-04-04T11:32:05Z</time>
      </trkpt>
      <trkpt lat="60.33494" lon="7.53825">
        <ele>1122</ele>
        <time>2019-04-04T11:32:07Z</time>
      </trkpt>
      <trkpt lat="60.3348" lon="7.53841">
        <ele>1121.03</ele>
        <time>2019-04-04T11:32:10Z</time>
      </trkpt>
      <trkpt lat="60.33467" lon="7.53847">
        <ele>1120.07</ele>
        <time>2019-04-04T11:32:12Z</time>
      </trkpt>
      <trkpt lat="60.33435" lon="7.53859">
        <ele>1119.11</ele>
        <time>2019-04-04T11:32:18Z</time>
      </trkpt>
      <trkpt lat="60.33416" lon="7.53864">
        <ele>1119.11</ele>
        <time>2019-04-04T11:32:22Z</time>
      </trkpt>
      <trkpt lat="60.33395" lon="7.53875">
        <ele>1117.19</ele>
        <time>2019-04-04T11:32:26Z</time>
      </trkpt>
      <trkpt lat="60.33378" lon="7.53884">
        <ele>1118.15</ele>
        <time>2019-04-04T11:32:30Z</time>
      </trkpt>
      <trkpt lat="60.33375" lon="7.53888">
        <ele>1120.07</ele>
        <time>2019-04-04T11:32:32Z</time>
      </trkpt>
      <trkpt lat="60.33371" lon="7.53877">
        <ele>1121.52</ele>
        <time>2019-04-04T11:32:38Z</time>
      </trkpt>
      <trkpt lat="60.33374" lon="7.53874">
        <ele>1121.52</ele>
        <time>2019-04-04T11:32:49Z</time>
      </trkpt>
      <trkpt lat="60.33377" lon="7.53874">
        <ele>1122</ele>
        <time>2019-04-04T11:32:59Z</time>
      </trkpt>
      <trkpt lat="60.33378" lon="7.5387">
        <ele>1122</ele>
        <time>2019-04-04T11:33:09Z</time>
      </trkpt>
      <trkpt lat="60.33372" lon="7.53864">
        <ele>1118.15</ele>
        <time>2019-04-04T11:33:13Z</time>
      </trkpt>
      <trkpt lat="60.33369" lon="7.53866">
        <ele>1118.15</ele>
        <time>2019-04-04T11:33:14Z</time>
      </trkpt>
      <trkpt lat="60.33363" lon="7.53874">
        <ele>1118.15</ele>
        <time>2019-04-04T11:33:17Z</time>
      </trkpt>
      <trkpt lat="60.33358" lon="7.53879">
        <ele>1120.07</ele>
        <time>2019-04-04T11:33:20Z</time>
      </trkpt>
      <trkpt lat="60.33354" lon="7.53881">
        <ele>1121.03</ele>
        <time>2019-04-04T11:33:23Z</time>
      </trkpt>
      <trkpt lat="60.3335" lon="7.53885">
        <ele>1119.59</ele>
        <time>2019-04-04T11:33:25Z</time>
      </trkpt>
      <trkpt lat="60.33346" lon="7.53888">
        <ele>1121.52</ele>
        <time>2019-04-04T11:33:27Z</time>
      </trkpt>
      <trkpt lat="60.3334" lon="7.53891">
        <ele>1121.52</ele>
        <time>2019-04-04T11:33:29Z</time>
      </trkpt>
      <trkpt lat="60.33325" lon="7.53902">
        <ele>1121.52</ele>
        <time>2019-04-04T11:33:34Z</time>
      </trkpt>
      <trkpt lat="60.33304" lon="7.53913">
        <ele>1119.59</ele>
        <time>2019-04-04T11:33:38Z</time>
      </trkpt>
      <trkpt lat="60.33293" lon="7.53919">
        <ele>1119.11</ele>
        <time>2019-04-04T11:33:40Z</time>
      </trkpt>
      <trkpt lat="60.33284" lon="7.53923">
        <ele>1120.55</ele>
        <time>2019-04-04T11:33:42Z</time>
      </trkpt>
      <trkpt lat="60.33268" lon="7.53931">
        <ele>1120.55</ele>
        <time>2019-04-04T11:33:46Z</time>
      </trkpt>
      <trkpt lat="60.33258" lon="7.53946">
        <ele>1117.19</ele>
        <time>2019-04-04T11:33:49Z</time>
      </trkpt>
      <trkpt lat="60.33226" lon="7.53989">
        <ele>1118.15</ele>
        <time>2019-04-04T11:33:56Z</time>
      </trkpt>
      <trkpt lat="60.33213" lon="7.54012">
        <ele>1118.63</ele>
        <time>2019-04-04T11:33:59Z</time>
      </trkpt>
      <trkpt lat="60.33201" lon="7.54028">
        <ele>1115.75</ele>
        <time>2019-04-04T11:34:02Z</time>
      </trkpt>
      <trkpt lat="60.33193" lon="7.54038">
        <ele>1117.19</ele>
        <time>2019-04-04T11:34:04Z</time>
      </trkpt>
      <trkpt lat="60.33168" lon="7.54064">
        <ele>1115.75</ele>
        <time>2019-04-04T11:34:09Z</time>
      </trkpt>
      <trkpt lat="60.33146" lon="7.54085">
        <ele>1114.79</ele>
        <time>2019-04-04T11:34:13Z</time>
      </trkpt>
      <trkpt lat="60.33127" lon="7.54111">
        <ele>1116.71</ele>
        <time>2019-04-04T11:34:17Z</time>
      </trkpt>
      <trkpt lat="60.33077" lon="7.54174">
        <ele>1117.19</ele>
        <time>2019-04-04T11:34:28Z</time>
      </trkpt>
      <trkpt lat="60.33064" lon="7.54191">
        <ele>1117.19</ele>
        <time>2019-04-04T11:34:31Z</time>
      </trkpt>
      <trkpt lat="60.33036" lon="7.54225">
        <ele>1117.67</ele>
        <time>2019-04-04T11:34:41Z</time>
      </trkpt>
      <trkpt lat="60.33021" lon="7.54241">
        <ele>1117.67</ele>
        <time>2019-04-04T11:34:46Z</time>
      </trkpt>
      <trkpt lat="60.33005" lon="7.54264">
        <ele>1119.11</ele>
        <time>2019-04-04T11:34:51Z</time>
      </trkpt>
      <trkpt lat="60.32992" lon="7.54272">
        <ele>1118.15</ele>
        <time>2019-04-04T11:34:55Z</time>
      </trkpt>
      <trkpt lat="60.32985" lon="7.54274">
        <ele>1119.59</ele>
        <time>2019-04-04T11:34:58Z</time>
      </trkpt>
      <trkpt lat="60.32976" lon="7.54271">
        <ele>1122</ele>
        <time>2019-04-04T11:35:06Z</time>
      </trkpt>
      <trkpt lat="60.32976" lon="7.54268">
        <ele>1122</ele>
        <time>2019-04-04T11:35:10Z</time>
      </trkpt>
      <trkpt lat="60.32983" lon="7.54256">
        <ele>1118.63</ele>
        <time>2019-04-04T11:35:17Z</time>
      </trkpt>
      <trkpt lat="60.32983" lon="7.54256">
        <ele>1123.44</ele>
        <time>2019-04-04T11:35:19Z</time>
      </trkpt>
      <trkpt lat="60.32983" lon="7.54256">
        <ele>1118.15</ele>
        <time>2019-04-04T11:35:20Z</time>
      </trkpt>
      <trkpt lat="60.32983" lon="7.54255">
        <ele>1118.15</ele>
        <time>2019-04-04T11:35:21Z</time>
      </trkpt>
      <trkpt lat="60.32983" lon="7.54255">
        <ele>1121.52</ele>
        <time>2019-04-04T11:35:22Z</time>
      </trkpt>
      <trkpt lat="60.32983" lon="7.54254">
        <ele>1124.4</ele>
        <time>2019-04-04T11:35:24Z</time>
      </trkpt>
      <trkpt lat="60.32983" lon="7.54254">
        <ele>1123.44</ele>
        <time>2019-04-04T11:35:25Z</time>
      </trkpt>
      <trkpt lat="60.32984" lon="7.54253">
        <ele>1121.52</ele>
        <time>2019-04-04T11:35:27Z</time>
      </trkpt>
      <trkpt lat="60.32984" lon="7.54253">
        <ele>1117.19</ele>
        <time>2019-04-04T11:35:28Z</time>
      </trkpt>
      <trkpt lat="60.32984" lon="7.54253">
        <ele>1122.48</ele>
        <time>2019-04-04T11:35:29Z</time>
      </trkpt>
      <trkpt lat="60.32984" lon="7.54253">
        <ele>1122</ele>
        <time>2019-04-04T11:35:33Z</time>
      </trkpt>
      <trkpt lat="60.32984" lon="7.54253">
        <ele>1121.52</ele>
        <time>2019-04-04T11:35:49Z</time>
      </trkpt>
      <trkpt lat="60.32984" lon="7.54253">
        <ele>1117.19</ele>
        <time>2019-04-04T11:35:57Z</time>
      </trkpt>
      <trkpt lat="60.32984" lon="7.54252">
        <ele>1117.19</ele>
        <time>2019-04-04T11:35:58Z</time>
      </trkpt>
      <trkpt lat="60.32984" lon="7.54253">
        <ele>1121.03</ele>
        <time>2019-04-04T11:35:59Z</time>
      </trkpt>
      <trkpt lat="60.32984" lon="7.54253">
        <ele>1125.84</ele>
        <time>2019-04-04T11:36:01Z</time>
      </trkpt>
      <trkpt lat="60.32984" lon="7.54253">
        <ele>1122.96</ele>
        <time>2019-04-04T11:36:02Z</time>
      </trkpt>
      <trkpt lat="60.32984" lon="7.54253">
        <ele>1115.75</ele>
        <time>2019-04-04T11:36:04Z</time>
      </trkpt>
      <trkpt lat="60.32983" lon="7.54253">
        <ele>1117.19</ele>
        <time>2019-04-04T11:36:05Z</time>
      </trkpt>
      <trkpt lat="60.32983" lon="7.54252">
        <ele>1121.03</ele>
        <time>2019-04-04T11:36:06Z</time>
      </trkpt>
      <trkpt lat="60.32983" lon="7.54251">
        <ele>1118.63</ele>
        <time>2019-04-04T11:36:12Z</time>
      </trkpt>
      <trkpt lat="60.32983" lon="7.54251">
        <ele>1122.48</ele>
        <time>2019-04-04T11:36:13Z</time>
      </trkpt>
      <trkpt lat="60.32983" lon="7.54251">
        <ele>1121.03</ele>
        <time>2019-04-04T11:36:16Z</time>
      </trkpt>
      <trkpt lat="60.32983" lon="7.54252">
        <ele>1124.4</ele>
        <time>2019-04-04T11:36:23Z</time>
      </trkpt>
      <trkpt lat="60.32983" lon="7.54253">
        <ele>1121.03</ele>
        <time>2019-04-04T11:36:35Z</time>
      </trkpt>
      <trkpt lat="60.32983" lon="7.54254">
        <ele>1117.67</ele>
        <time>2019-04-04T11:36:40Z</time>
      </trkpt>
      <trkpt lat="60.32983" lon="7.54254">
        <ele>1121.52</ele>
        <time>2019-04-04T11:36:41Z</time>
      </trkpt>
      <trkpt lat="60.32983" lon="7.54254">
        <ele>1121.52</ele>
        <time>2019-04-04T11:36:42Z</time>
      </trkpt>
      <trkpt lat="60.32983" lon="7.54254">
        <ele>1120.07</ele>
        <time>2019-04-04T11:36:44Z</time>
      </trkpt>
      <trkpt lat="60.32982" lon="7.54254">
        <ele>1114.79</ele>
        <time>2019-04-04T11:36:46Z</time>
      </trkpt>
      <trkpt lat="60.32982" lon="7.54254">
        <ele>1128.73</ele>
        <time>2019-04-04T11:36:47Z</time>
      </trkpt>
      <trkpt lat="60.32982" lon="7.54254">
        <ele>1120.07</ele>
        <time>2019-04-04T11:36:48Z</time>
      </trkpt>
      <trkpt lat="60.32982" lon="7.54254">
        <ele>1115.27</ele>
        <time>2019-04-04T11:37:08Z</time>
      </trkpt>
      <trkpt lat="60.32982" lon="7.54254">
        <ele>1117.19</ele>
        <time>2019-04-04T11:37:09Z</time>
      </trkpt>
      <trkpt lat="60.32982" lon="7.54254">
        <ele>1122.96</ele>
        <time>2019-04-04T11:37:10Z</time>
      </trkpt>
      <trkpt lat="60.32982" lon="7.54254">
        <ele>1121.03</ele>
        <time>2019-04-04T11:37:11Z</time>
      </trkpt>
      <trkpt lat="60.32982" lon="7.54253">
        <ele>1125.84</ele>
        <time>2019-04-04T11:37:16Z</time>
      </trkpt>
      <trkpt lat="60.32982" lon="7.54253">
        <ele>1118.63</ele>
        <time>2019-04-04T11:37:17Z</time>
      </trkpt>
      <trkpt lat="60.32982" lon="7.54253">
        <ele>1125.36</ele>
        <time>2019-04-04T11:37:23Z</time>
      </trkpt>
      <trkpt lat="60.32982" lon="7.54253">
        <ele>1109.5</ele>
        <time>2019-04-04T11:37:24Z</time>
      </trkpt>
      <trkpt lat="60.32982" lon="7.54253">
        <ele>1133.53</ele>
        <time>2019-04-04T11:37:25Z</time>
      </trkpt>
      <trkpt lat="60.32981" lon="7.54252">
        <ele>1119.11</ele>
        <time>2019-04-04T11:37:26Z</time>
      </trkpt>
      <trkpt lat="60.32981" lon="7.54252">
        <ele>1125.84</ele>
        <time>2019-04-04T11:37:28Z</time>
      </trkpt>
      <trkpt lat="60.32981" lon="7.54247">
        <ele>1120.07</ele>
        <time>2019-04-04T11:37:37Z</time>
      </trkpt>
      <trkpt lat="60.3298" lon="7.54241">
        <ele>1122</ele>
        <time>2019-04-04T11:37:40Z</time>
      </trkpt>
      <trkpt lat="60.3298" lon="7.54237">
        <ele>1116.71</ele>
        <time>2019-04-04T11:37:42Z</time>
      </trkpt>
      <trkpt lat="60.32979" lon="7.54235">
        <ele>1117.67</ele>
        <time>2019-04-04T11:37:43Z</time>
      </trkpt>
      <trkpt lat="60.32979" lon="7.54234">
        <ele>1122</ele>
        <time>2019-04-04T11:37:44Z</time>
      </trkpt>
      <trkpt lat="60.32979" lon="7.54232">
        <ele>1122.48</ele>
        <time>2019-04-04T11:37:45Z</time>
      </trkpt>
      <trkpt lat="60.32978" lon="7.54228">
        <ele>1118.63</ele>
        <time>2019-04-04T11:37:47Z</time>
      </trkpt>
      <trkpt lat="60.32977" lon="7.54225">
        <ele>1122.96</ele>
        <time>2019-04-04T11:37:49Z</time>
      </trkpt>
      <trkpt lat="60.32976" lon="7.54222">
        <ele>1115.27</ele>
        <time>2019-04-04T11:37:51Z</time>
      </trkpt>
      <trkpt lat="60.32976" lon="7.54221">
        <ele>1116.71</ele>
        <time>2019-04-04T11:37:52Z</time>
      </trkpt>
      <trkpt lat="60.32976" lon="7.5422">
        <ele>1123.92</ele>
        <time>2019-04-04T11:37:53Z</time>
      </trkpt>
      <trkpt lat="60.32976" lon="7.54219">
        <ele>1118.15</ele>
        <time>2019-04-04T11:37:54Z</time>
      </trkpt>
      <trkpt lat="60.32976" lon="7.54217">
        <ele>1122.48</ele>
        <time>2019-04-04T11:37:55Z</time>
      </trkpt>
      <trkpt lat="60.32975" lon="7.54215">
        <ele>1119.59</ele>
        <time>2019-04-04T11:37:56Z</time>
      </trkpt>
      <trkpt lat="60.32975" lon="7.54214">
        <ele>1121.52</ele>
        <time>2019-04-04T11:38:05Z</time>
      </trkpt>
      <trkpt lat="60.32975" lon="7.54214">
        <ele>1120.55</ele>
        <time>2019-04-04T11:38:09Z</time>
      </trkpt>
      <trkpt lat="60.32974" lon="7.5422">
        <ele>1122</ele>
        <time>2019-04-04T11:38:16Z</time>
      </trkpt>
      <trkpt lat="60.32975" lon="7.54224">
        <ele>1120.55</ele>
        <time>2019-04-04T11:38:19Z</time>
      </trkpt>
      <trkpt lat="60.32975" lon="7.54225">
        <ele>1117.67</ele>
        <time>2019-04-04T11:38:23Z</time>
      </trkpt>
      <trkpt lat="60.32975" lon="7.54224">
        <ele>1122</ele>
        <time>2019-04-04T11:38:24Z</time>
      </trkpt>
      <trkpt lat="60.32975" lon="7.54224">
        <ele>1118.63</ele>
        <time>2019-04-04T11:38:29Z</time>
      </trkpt>
      <trkpt lat="60.32976" lon="7.54225">
        <ele>1120.55</ele>
        <time>2019-04-04T11:38:33Z</time>
      </trkpt>
      <trkpt lat="60.32976" lon="7.54224">
        <ele>1119.11</ele>
        <time>2019-04-04T11:38:46Z</time>
      </trkpt>
      <trkpt lat="60.32977" lon="7.54224">
        <ele>1119.11</ele>
        <time>2019-04-04T11:39:03Z</time>
      </trkpt>
      <trkpt lat="60.32977" lon="7.54224">
        <ele>1118.63</ele>
        <time>2019-04-04T11:39:33Z</time>
      </trkpt>
      <trkpt lat="60.32977" lon="7.54224">
        <ele>1118.63</ele>
        <time>2019-04-04T11:39:58Z</time>
      </trkpt>
      <trkpt lat="60.32977" lon="7.54224">
        <ele>1118.63</ele>
        <time>2019-04-04T11:40:30Z</time>
      </trkpt>
      <trkpt lat="60.32977" lon="7.54224">
        <ele>1118.15</ele>
        <time>2019-04-04T11:40:58Z</time>
      </trkpt>
      <trkpt lat="60.32977" lon="7.54224">
        <ele>1118.15</ele>
        <time>2019-04-04T11:41:19Z</time>
      </trkpt>
      <trkpt lat="60.32977" lon="7.54224">
        <ele>1117.67</ele>
        <time>2019-04-04T11:41:38Z</time>
      </trkpt>
      <trkpt lat="60.32977" lon="7.54223">
        <ele>1117.67</ele>
        <time>2019-04-04T11:42:04Z</time>
      </trkpt>
      <trkpt lat="60.32977" lon="7.54224">
        <ele>1117.67</ele>
        <time>2019-04-04T11:42:24Z</time>
      </trkpt>
      <trkpt lat="60.32977" lon="7.54229">
        <ele>1117.67</ele>
        <time>2019-04-04T11:42:48Z</time>
      </trkpt>
      <trkpt lat="60.32978" lon="7.54231">
        <ele>1115.27</ele>
        <time>2019-04-04T11:43:09Z</time>
      </trkpt>
      <trkpt lat="60.32978" lon="7.5423">
        <ele>1118.63</ele>
        <time>2019-04-04T11:43:10Z</time>
      </trkpt>
      <trkpt lat="60.32977" lon="7.54229">
        <ele>1118.63</ele>
        <time>2019-04-04T11:43:11Z</time>
      </trkpt>
      <trkpt lat="60.32976" lon="7.54227">
        <ele>1118.63</ele>
        <time>2019-04-04T11:43:34Z</time>
      </trkpt>
      <trkpt lat="60.32976" lon="7.54226">
        <ele>1119.11</ele>
        <time>2019-04-04T11:44:01Z</time>
      </trkpt>
      <trkpt lat="60.32978" lon="7.54234">
        <ele>1121.03</ele>
        <time>2019-04-04T11:44:14Z</time>
      </trkpt>
      <trkpt lat="60.32979" lon="7.54238">
        <ele>1119.59</ele>
        <time>2019-04-04T11:44:16Z</time>
      </trkpt>
      <trkpt lat="60.32981" lon="7.54247">
        <ele>1120.07</ele>
        <time>2019-04-04T11:44:21Z</time>
      </trkpt>
      <trkpt lat="60.32982" lon="7.54251">
        <ele>1121.03</ele>
        <time>2019-04-04T11:44:24Z</time>
      </trkpt>
      <trkpt lat="60.32984" lon="7.54256">
        <ele>1120.55</ele>
        <time>2019-04-04T11:44:34Z</time>
      </trkpt>
      <trkpt lat="60.32984" lon="7.54258">
        <ele>1119.11</ele>
        <time>2019-04-04T11:44:40Z</time>
      </trkpt>
      <trkpt lat="60.32984" lon="7.54258">
        <ele>1116.23</ele>
        <time>2019-04-04T11:44:41Z</time>
      </trkpt>
      <trkpt lat="60.32984" lon="7.54259">
        <ele>1121.52</ele>
        <time>2019-04-04T11:44:42Z</time>
      </trkpt>
      <trkpt lat="60.32984" lon="7.54262">
        <ele>1120.55</ele>
        <time>2019-04-04T11:44:55Z</time>
      </trkpt>
      <trkpt lat="60.32982" lon="7.54268">
        <ele>1117.19</ele>
        <time>2019-04-04T11:44:59Z</time>
      </trkpt>
      <trkpt lat="60.3298" lon="7.54259">
        <ele>1120.07</ele>
        <time>2019-04-04T11:45:05Z</time>
      </trkpt>
      <trkpt lat="60.32984" lon="7.54251">
        <ele>1116.23</ele>
        <time>2019-04-04T11:45:13Z</time>
      </trkpt>
      <trkpt lat="60.32984" lon="7.54251">
        <ele>1116.23</ele>
        <time>2019-04-04T11:45:14Z</time>
      </trkpt>
      <trkpt lat="60.32984" lon="7.54252">
        <ele>1119.59</ele>
        <time>2019-04-04T11:45:17Z</time>
      </trkpt>
      <trkpt lat="60.32984" lon="7.54252">
        <ele>1119.59</ele>
        <time>2019-04-04T11:45:18Z</time>
      </trkpt>
      <trkpt lat="60.32984" lon="7.54254">
        <ele>1123.44</ele>
        <time>2019-04-04T11:45:39Z</time>
      </trkpt>
      <trkpt lat="60.32984" lon="7.54253">
        <ele>1121.52</ele>
        <time>2019-04-04T11:45:40Z</time>
      </trkpt>
      <trkpt lat="60.32984" lon="7.54252">
        <ele>1120.55</ele>
        <time>2019-04-04T11:45:51Z</time>
      </trkpt>
      <trkpt lat="60.32983" lon="7.54252">
        <ele>1118.63</ele>
        <time>2019-04-04T11:46:00Z</time>
      </trkpt>
      <trkpt lat="60.32984" lon="7.54254">
        <ele>1118.15</ele>
        <time>2019-04-04T11:46:17Z</time>
      </trkpt>
      <trkpt lat="60.32984" lon="7.54255">
        <ele>1117.67</ele>
        <time>2019-04-04T11:46:41Z</time>
      </trkpt>
      <trkpt lat="60.32983" lon="7.54254">
        <ele>1117.67</ele>
        <time>2019-04-04T11:47:02Z</time>
      </trkpt>
      <trkpt lat="60.32984" lon="7.54254">
        <ele>1117.67</ele>
        <time>2019-04-04T11:47:26Z</time>
      </trkpt>
      <trkpt lat="60.32984" lon="7.54254">
        <ele>1118.63</ele>
        <time>2019-04-04T11:47:40Z</time>
      </trkpt>
      <trkpt lat="60.32983" lon="7.54254">
        <ele>1116.71</ele>
        <time>2019-04-04T11:47:45Z</time>
      </trkpt>
      <trkpt lat="60.32983" lon="7.54254">
        <ele>1118.15</ele>
        <time>2019-04-04T11:47:54Z</time>
      </trkpt>
      <trkpt lat="60.32984" lon="7.54255">
        <ele>1116.71</ele>
        <time>2019-04-04T11:47:56Z</time>
      </trkpt>
      <trkpt lat="60.32982" lon="7.54256">
        <ele>1120.55</ele>
        <time>2019-04-04T11:48:06Z</time>
      </trkpt>
      <trkpt lat="60.32982" lon="7.54257">
        <ele>1120.55</ele>
        <time>2019-04-04T11:48:07Z</time>
      </trkpt>
      <trkpt lat="60.32983" lon="7.54256">
        <ele>1119.11</ele>
        <time>2019-04-04T11:48:10Z</time>
      </trkpt>
      <trkpt lat="60.32983" lon="7.54255">
        <ele>1120.07</ele>
        <time>2019-04-04T11:48:16Z</time>
      </trkpt>
      <trkpt lat="60.32984" lon="7.54254">
        <ele>1116.71</ele>
        <time>2019-04-04T11:48:25Z</time>
      </trkpt>
      <trkpt lat="60.32984" lon="7.54253">
        <ele>1121.52</ele>
        <time>2019-04-04T11:48:26Z</time>
      </trkpt>
      <trkpt lat="60.32985" lon="7.54255">
        <ele>1117.67</ele>
        <time>2019-04-04T11:48:46Z</time>
      </trkpt>
      <trkpt lat="60.32985" lon="7.54255">
        <ele>1121.52</ele>
        <time>2019-04-04T11:48:47Z</time>
      </trkpt>
      <trkpt lat="60.3299" lon="7.54258">
        <ele>1118.63</ele>
        <time>2019-04-04T11:48:56Z</time>
      </trkpt>
      <trkpt lat="60.32993" lon="7.54259">
        <ele>1118.15</ele>
        <time>2019-04-04T11:49:03Z</time>
      </trkpt>
      <trkpt lat="60.32993" lon="7.54252">
        <ele>1118.15</ele>
        <time>2019-04-04T11:49:13Z</time>
      </trkpt>
      <trkpt lat="60.32998" lon="7.54234">
        <ele>1118.63</ele>
        <time>2019-04-04T11:49:23Z</time>
      </trkpt>
      <trkpt lat="60.33006" lon="7.54226">
        <ele>1118.63</ele>
        <time>2019-04-04T11:49:31Z</time>
      </trkpt>
      <trkpt lat="60.33005" lon="7.54225">
        <ele>1117.19</ele>
        <time>2019-04-04T11:49:36Z</time>
      </trkpt>
      <trkpt lat="60.33005" lon="7.54209">
        <ele>1117.19</ele>
        <time>2019-04-04T11:49:42Z</time>
      </trkpt>
      <trkpt lat="60.33004" lon="7.54205">
        <ele>1116.71</ele>
        <time>2019-04-04T11:49:54Z</time>
      </trkpt>
      <trkpt lat="60.33004" lon="7.54203">
        <ele>1116.23</ele>
        <time>2019-04-04T11:50:09Z</time>
      </trkpt>
      <trkpt lat="60.33004" lon="7.54202">
        <ele>1117.19</ele>
        <time>2019-04-04T11:50:15Z</time>
      </trkpt>
      <trkpt lat="60.33009" lon="7.54197">
        <ele>1119.11</ele>
        <time>2019-04-04T11:50:18Z</time>
      </trkpt>
      <trkpt lat="60.33013" lon="7.54198">
        <ele>1119.11</ele>
        <time>2019-04-04T11:50:19Z</time>
      </trkpt>
      <trkpt lat="60.33016" lon="7.54199">
        <ele>1119.11</ele>
        <time>2019-04-04T11:50:20Z</time>
      </trkpt>
      <trkpt lat="60.3302" lon="7.54199">
        <ele>1119.11</ele>
        <time>2019-04-04T11:50:21Z</time>
      </trkpt>
      <trkpt lat="60.33024" lon="7.54198">
        <ele>1119.11</ele>
        <time>2019-04-04T11:50:22Z</time>
      </trkpt>
      <trkpt lat="60.33028" lon="7.54197">
        <ele>1119.11</ele>
        <time>2019-04-04T11:50:23Z</time>
      </trkpt>
      <trkpt lat="60.33033" lon="7.54196">
        <ele>1119.11</ele>
        <time>2019-04-04T11:50:24Z</time>
      </trkpt>
      <trkpt lat="60.33037" lon="7.54198">
        <ele>1119.11</ele>
        <time>2019-04-04T11:50:25Z</time>
      </trkpt>
      <trkpt lat="60.33044" lon="7.54201">
        <ele>1119.11</ele>
        <time>2019-04-04T11:50:27Z</time>
      </trkpt>
      <trkpt lat="60.33046" lon="7.54203">
        <ele>1119.59</ele>
        <time>2019-04-04T11:50:28Z</time>
      </trkpt>
      <trkpt lat="60.33048" lon="7.54205">
        <ele>1119.59</ele>
        <time>2019-04-04T11:50:29Z</time>
      </trkpt>
      <trkpt lat="60.3305" lon="7.54205">
        <ele>1119.59</ele>
        <time>2019-04-04T11:50:30Z</time>
      </trkpt>
      <trkpt lat="60.33051" lon="7.54205">
        <ele>1119.59</ele>
        <time>2019-04-04T11:50:31Z</time>
      </trkpt>
      <trkpt lat="60.33052" lon="7.54204">
        <ele>1118.15</ele>
        <time>2019-04-04T11:50:37Z</time>
      </trkpt>
      <trkpt lat="60.33054" lon="7.54203">
        <ele>1118.15</ele>
        <time>2019-04-04T11:50:40Z</time>
      </trkpt>
      <trkpt lat="60.3307" lon="7.54213">
        <ele>1119.59</ele>
        <time>2019-04-04T11:50:44Z</time>
      </trkpt>
      <trkpt lat="60.33083" lon="7.54228">
        <ele>1120.07</ele>
        <time>2019-04-04T11:50:47Z</time>
      </trkpt>
      <trkpt lat="60.33088" lon="7.54232">
        <ele>1120.07</ele>
        <time>2019-04-04T11:50:48Z</time>
      </trkpt>
      <trkpt lat="60.33093" lon="7.54234">
        <ele>1120.07</ele>
        <time>2019-04-04T11:50:49Z</time>
      </trkpt>
      <trkpt lat="60.33098" lon="7.54236">
        <ele>1120.07</ele>
        <time>2019-04-04T11:50:50Z</time>
      </trkpt>
      <trkpt lat="60.33102" lon="7.54238">
        <ele>1120.07</ele>
        <time>2019-04-04T11:50:51Z</time>
      </trkpt>
      <trkpt lat="60.33106" lon="7.54239">
        <ele>1118.63</ele>
        <time>2019-04-04T11:50:52Z</time>
      </trkpt>
      <trkpt lat="60.33108" lon="7.54239">
        <ele>1118.63</ele>
        <time>2019-04-04T11:50:53Z</time>
      </trkpt>
      <trkpt lat="60.3311" lon="7.54237">
        <ele>1117.67</ele>
        <time>2019-04-04T11:50:54Z</time>
      </trkpt>
      <trkpt lat="60.33108" lon="7.54234">
        <ele>1116.23</ele>
        <time>2019-04-04T11:50:58Z</time>
      </trkpt>
      <trkpt lat="60.33106" lon="7.54235">
        <ele>1115.75</ele>
        <time>2019-04-04T11:51:00Z</time>
      </trkpt>
      <trkpt lat="60.3309" lon="7.54239">
        <ele>1118.63</ele>
        <time>2019-04-04T11:51:05Z</time>
      </trkpt>
      <trkpt lat="60.33065" lon="7.54246">
        <ele>1117.67</ele>
        <time>2019-04-04T11:51:10Z</time>
      </trkpt>
      <trkpt lat="60.3306" lon="7.54249">
        <ele>1120.07</ele>
        <time>2019-04-04T11:51:11Z</time>
      </trkpt>
      <trkpt lat="60.33054" lon="7.54253">
        <ele>1117.19</ele>
        <time>2019-04-04T11:51:12Z</time>
      </trkpt>
      <trkpt lat="60.3305" lon="7.54259">
        <ele>1119.11</ele>
        <time>2019-04-04T11:51:13Z</time>
      </trkpt>
      <trkpt lat="60.33047" lon="7.54264">
        <ele>1118.15</ele>
        <time>2019-04-04T11:51:14Z</time>
      </trkpt>
      <trkpt lat="60.33043" lon="7.54268">
        <ele>1118.15</ele>
        <time>2019-04-04T11:51:15Z</time>
      </trkpt>
      <trkpt lat="60.33032" lon="7.54284">
        <ele>1118.15</ele>
        <time>2019-04-04T11:51:21Z</time>
      </trkpt>
      <trkpt lat="60.33022" lon="7.54297">
        <ele>1117.67</ele>
        <time>2019-04-04T11:51:26Z</time>
      </trkpt>
      <trkpt lat="60.33021" lon="7.54299">
        <ele>1116.23</ele>
        <time>2019-04-04T11:51:39Z</time>
      </trkpt>
      <trkpt lat="60.33019" lon="7.54297">
        <ele>1116.23</ele>
        <time>2019-04-04T11:52:00Z</time>
      </trkpt>
      <trkpt lat="60.33017" lon="7.54268">
        <ele>1117.67</ele>
        <time>2019-04-04T11:52:11Z</time>
      </trkpt>
      <trkpt lat="60.33017" lon="7.54267">
        <ele>1116.23</ele>
        <time>2019-04-04T11:52:25Z</time>
      </trkpt>
      <trkpt lat="60.33017" lon="7.54266">
        <ele>1116.23</ele>
        <time>2019-04-04T11:52:26Z</time>
      </trkpt>
      <trkpt lat="60.33" lon="7.54279">
        <ele>1117.67</ele>
        <time>2019-04-04T11:52:33Z</time>
      </trkpt>
      <trkpt lat="60.32992" lon="7.54286">
        <ele>1117.19</ele>
        <time>2019-04-04T11:52:35Z</time>
      </trkpt>
      <trkpt lat="60.3296" lon="7.5432">
        <ele>1117.67</ele>
        <time>2019-04-04T11:52:42Z</time>
      </trkpt>
      <trkpt lat="60.32934" lon="7.5435">
        <ele>1118.63</ele>
        <time>2019-04-04T11:52:47Z</time>
      </trkpt>
      <trkpt lat="60.32914" lon="7.5438">
        <ele>1120.55</ele>
        <time>2019-04-04T11:52:52Z</time>
      </trkpt>
      <trkpt lat="60.32893" lon="7.54407">
        <ele>1120.55</ele>
        <time>2019-04-04T11:52:57Z</time>
      </trkpt>
      <trkpt lat="60.32873" lon="7.54426">
        <ele>1121.52</ele>
        <time>2019-04-04T11:53:01Z</time>
      </trkpt>
      <trkpt lat="60.32863" lon="7.54438">
        <ele>1122.48</ele>
        <time>2019-04-04T11:53:03Z</time>
      </trkpt>
      <trkpt lat="60.32852" lon="7.54448">
        <ele>1122.48</ele>
        <time>2019-04-04T11:53:05Z</time>
      </trkpt>
      <trkpt lat="60.32826" lon="7.54475">
        <ele>1123.92</ele>
        <time>2019-04-04T11:53:10Z</time>
      </trkpt>
      <trkpt lat="60.3281" lon="7.54473">
        <ele>1125.36</ele>
        <time>2019-04-04T11:53:15Z</time>
      </trkpt>
      <trkpt lat="60.32821" lon="7.54453">
        <ele>1126.32</ele>
        <time>2019-04-04T11:53:18Z</time>
      </trkpt>
      <trkpt lat="60.32845" lon="7.54446">
        <ele>1126.32</ele>
        <time>2019-04-04T11:53:22Z</time>
      </trkpt>
      <trkpt lat="60.32878" lon="7.54425">
        <ele>1126.8</ele>
        <time>2019-04-04T11:53:26Z</time>
      </trkpt>
      <trkpt lat="60.32917" lon="7.54378">
        <ele>1122.96</ele>
        <time>2019-04-04T11:53:31Z</time>
      </trkpt>
      <trkpt lat="60.32942" lon="7.5435">
        <ele>1122.48</ele>
        <time>2019-04-04T11:53:34Z</time>
      </trkpt>
      <trkpt lat="60.33028" lon="7.54281">
        <ele>1120.07</ele>
        <time>2019-04-04T11:53:44Z</time>
      </trkpt>
      <trkpt lat="60.33036" lon="7.54274">
        <ele>1120.07</ele>
        <time>2019-04-04T11:53:45Z</time>
      </trkpt>
      <trkpt lat="60.33061" lon="7.54252">
        <ele>1120.07</ele>
        <time>2019-04-04T11:53:48Z</time>
      </trkpt>
      <trkpt lat="60.33067" lon="7.54247">
        <ele>1120.07</ele>
        <time>2019-04-04T11:53:49Z</time>
      </trkpt>
      <trkpt lat="60.33084" lon="7.54235">
        <ele>1120.07</ele>
        <time>2019-04-04T11:53:51Z</time>
      </trkpt>
      <trkpt lat="60.33099" lon="7.54224">
        <ele>1120.07</ele>
        <time>2019-04-04T11:53:53Z</time>
      </trkpt>
      <trkpt lat="60.33105" lon="7.54215">
        <ele>1119.11</ele>
        <time>2019-04-04T11:53:54Z</time>
      </trkpt>
      <trkpt lat="60.33112" lon="7.54207">
        <ele>1118.63</ele>
        <time>2019-04-04T11:53:55Z</time>
      </trkpt>
      <trkpt lat="60.33133" lon="7.54183">
        <ele>1118.15</ele>
        <time>2019-04-04T11:53:58Z</time>
      </trkpt>
      <trkpt lat="60.33157" lon="7.54166">
        <ele>1118.15</ele>
        <time>2019-04-04T11:54:01Z</time>
      </trkpt>
      <trkpt lat="60.33177" lon="7.54151">
        <ele>1118.15</ele>
        <time>2019-04-04T11:54:04Z</time>
      </trkpt>
      <trkpt lat="60.33192" lon="7.54144">
        <ele>1120.07</ele>
        <time>2019-04-04T11:54:07Z</time>
      </trkpt>
      <trkpt lat="60.332" lon="7.54138">
        <ele>1122</ele>
        <time>2019-04-04T11:54:13Z</time>
      </trkpt>
      <trkpt lat="60.33199" lon="7.54137">
        <ele>1122</ele>
        <time>2019-04-04T11:54:14Z</time>
      </trkpt>
      <trkpt lat="60.33198" lon="7.54132">
        <ele>1122</ele>
        <time>2019-04-04T11:54:16Z</time>
      </trkpt>
      <trkpt lat="60.33195" lon="7.54129">
        <ele>1120.07</ele>
        <time>2019-04-04T11:54:17Z</time>
      </trkpt>
      <trkpt lat="60.33192" lon="7.5413">
        <ele>1120.07</ele>
        <time>2019-04-04T11:54:18Z</time>
      </trkpt>
      <trkpt lat="60.33166" lon="7.54165">
        <ele>1117.67</ele>
        <time>2019-04-04T11:54:27Z</time>
      </trkpt>
      <trkpt lat="60.33162" lon="7.54167">
        <ele>1117.67</ele>
        <time>2019-04-04T11:54:28Z</time>
      </trkpt>
      <trkpt lat="60.33147" lon="7.54181">
        <ele>1115.75</ele>
        <time>2019-04-04T11:54:32Z</time>
      </trkpt>
      <trkpt lat="60.33134" lon="7.5419">
        <ele>1115.75</ele>
        <time>2019-04-04T11:54:35Z</time>
      </trkpt>
      <trkpt lat="60.33092" lon="7.54213">
        <ele>1116.23</ele>
        <time>2019-04-04T11:54:44Z</time>
      </trkpt>
      <trkpt lat="60.33083" lon="7.54221">
        <ele>1116.23</ele>
        <time>2019-04-04T11:54:46Z</time>
      </trkpt>
      <trkpt lat="60.33073" lon="7.54222">
        <ele>1118.15</ele>
        <time>2019-04-04T11:54:48Z</time>
      </trkpt>
      <trkpt lat="60.33077" lon="7.54205">
        <ele>1118.15</ele>
        <time>2019-04-04T11:54:51Z</time>
      </trkpt>
      <trkpt lat="60.33086" lon="7.54202">
        <ele>1118.15</ele>
        <time>2019-04-04T11:54:53Z</time>
      </trkpt>
      <trkpt lat="60.33095" lon="7.54197">
        <ele>1118.15</ele>
        <time>2019-04-04T11:54:55Z</time>
      </trkpt>
      <trkpt lat="60.33106" lon="7.54189">
        <ele>1118.15</ele>
        <time>2019-04-04T11:54:57Z</time>
      </trkpt>
      <trkpt lat="60.33123" lon="7.54182">
        <ele>1118.15</ele>
        <time>2019-04-04T11:55:00Z</time>
      </trkpt>
      <trkpt lat="60.33134" lon="7.5418">
        <ele>1118.15</ele>
        <time>2019-04-04T11:55:02Z</time>
      </trkpt>
      <trkpt lat="60.33157" lon="7.54174">
        <ele>1118.15</ele>
        <time>2019-04-04T11:55:10Z</time>
      </trkpt>
      <trkpt lat="60.33158" lon="7.54173">
        <ele>1118.15</ele>
        <time>2019-04-04T11:55:15Z</time>
      </trkpt>
      <trkpt lat="60.33162" lon="7.54169">
        <ele>1118.15</ele>
        <time>2019-04-04T11:55:22Z</time>
      </trkpt>
      <trkpt lat="60.33152" lon="7.54138">
        <ele>1116.71</ele>
        <time>2019-04-04T11:55:27Z</time>
      </trkpt>
      <trkpt lat="60.33133" lon="7.54149">
        <ele>1115.27</ele>
        <time>2019-04-04T11:55:32Z</time>
      </trkpt>
      <trkpt lat="60.33129" lon="7.54153">
        <ele>1115.27</ele>
        <time>2019-04-04T11:55:33Z</time>
      </trkpt>
      <trkpt lat="60.33122" lon="7.54162">
        <ele>1115.75</ele>
        <time>2019-04-04T11:55:35Z</time>
      </trkpt>
      <trkpt lat="60.331" lon="7.54191">
        <ele>1115.75</ele>
        <time>2019-04-04T11:55:41Z</time>
      </trkpt>
      <trkpt lat="60.33084" lon="7.54216">
        <ele>1115.75</ele>
        <time>2019-04-04T11:55:45Z</time>
      </trkpt>
      <trkpt lat="60.33065" lon="7.54248">
        <ele>1118.15</ele>
        <time>2019-04-04T11:55:50Z</time>
      </trkpt>
      <trkpt lat="60.33062" lon="7.54253">
        <ele>1117.19</ele>
        <time>2019-04-04T11:55:51Z</time>
      </trkpt>
      <trkpt lat="60.33056" lon="7.54267">
        <ele>1117.19</ele>
        <time>2019-04-04T11:55:53Z</time>
      </trkpt>
      <trkpt lat="60.33053" lon="7.54274">
        <ele>1117.19</ele>
        <time>2019-04-04T11:55:54Z</time>
      </trkpt>
      <trkpt lat="60.33049" lon="7.5428">
        <ele>1116.71</ele>
        <time>2019-04-04T11:55:55Z</time>
      </trkpt>
      <trkpt lat="60.33029" lon="7.54312">
        <ele>1116.71</ele>
        <time>2019-04-04T11:56:00Z</time>
      </trkpt>
      <trkpt lat="60.33014" lon="7.54337">
        <ele>1116.71</ele>
        <time>2019-04-04T11:56:04Z</time>
      </trkpt>
      <trkpt lat="60.33" lon="7.54355">
        <ele>1116.71</ele>
        <time>2019-04-04T11:56:07Z</time>
      </trkpt>
      <trkpt lat="60.32982" lon="7.5438">
        <ele>1116.71</ele>
        <time>2019-04-04T11:56:11Z</time>
      </trkpt>
      <trkpt lat="60.32969" lon="7.54398">
        <ele>1119.11</ele>
        <time>2019-04-04T11:56:14Z</time>
      </trkpt>
      <trkpt lat="60.32961" lon="7.5441">
        <ele>1119.11</ele>
        <time>2019-04-04T11:56:16Z</time>
      </trkpt>
      <trkpt lat="60.3294" lon="7.54435">
        <ele>1118.15</ele>
        <time>2019-04-04T11:56:20Z</time>
      </trkpt>
      <trkpt lat="60.32918" lon="7.54472">
        <ele>1119.11</ele>
        <time>2019-04-04T11:56:25Z</time>
      </trkpt>
      <trkpt lat="60.32897" lon="7.54503">
        <ele>1120.55</ele>
        <time>2019-04-04T11:56:30Z</time>
      </trkpt>
      <trkpt lat="60.32882" lon="7.5453">
        <ele>1122.48</ele>
        <time>2019-04-04T11:56:34Z</time>
      </trkpt>
      <trkpt lat="60.32875" lon="7.54543">
        <ele>1122.48</ele>
        <time>2019-04-04T11:56:36Z</time>
      </trkpt>
      <trkpt lat="60.32844" lon="7.54577">
        <ele>1124.4</ele>
        <time>2019-04-04T11:56:43Z</time>
      </trkpt>
      <trkpt lat="60.32839" lon="7.54582">
        <ele>1124.4</ele>
        <time>2019-04-04T11:56:44Z</time>
      </trkpt>
      <trkpt lat="60.32826" lon="7.54586">
        <ele>1125.36</ele>
        <time>2019-04-04T11:56:49Z</time>
      </trkpt>
      <trkpt lat="60.32839" lon="7.54553">
        <ele>1125.84</ele>
        <time>2019-04-04T11:56:55Z</time>
      </trkpt>
      <trkpt lat="60.32855" lon="7.5451">
        <ele>1124.88</ele>
        <time>2019-04-04T11:57:00Z</time>
      </trkpt>
      <trkpt lat="60.32875" lon="7.54458">
        <ele>1124.88</ele>
        <time>2019-04-04T11:57:04Z</time>
      </trkpt>
      <trkpt lat="60.32922" lon="7.54369">
        <ele>1122</ele>
        <time>2019-04-04T11:57:11Z</time>
      </trkpt>
      <trkpt lat="60.32943" lon="7.54333">
        <ele>1122</ele>
        <time>2019-04-04T11:57:14Z</time>
      </trkpt>
      <trkpt lat="60.32976" lon="7.5429">
        <ele>1121.03</ele>
        <time>2019-04-04T11:57:18Z</time>
      </trkpt>
      <trkpt lat="60.33048" lon="7.54257">
        <ele>1119.59</ele>
        <time>2019-04-04T11:57:26Z</time>
      </trkpt>
      <trkpt lat="60.33086" lon="7.54239">
        <ele>1119.11</ele>
        <time>2019-04-04T11:57:31Z</time>
      </trkpt>
      <trkpt lat="60.33092" lon="7.54238">
        <ele>1119.11</ele>
        <time>2019-04-04T11:57:32Z</time>
      </trkpt>
      <trkpt lat="60.33096" lon="7.54234">
        <ele>1118.63</ele>
        <time>2019-04-04T11:57:33Z</time>
      </trkpt>
      <trkpt lat="60.33097" lon="7.54223">
        <ele>1117.67</ele>
        <time>2019-04-04T11:57:35Z</time>
      </trkpt>
      <trkpt lat="60.3309" lon="7.54222">
        <ele>1116.71</ele>
        <time>2019-04-04T11:57:37Z</time>
      </trkpt>
      <trkpt lat="60.33086" lon="7.54225">
        <ele>1117.19</ele>
        <time>2019-04-04T11:57:38Z</time>
      </trkpt>
      <trkpt lat="60.33083" lon="7.54228">
        <ele>1116.71</ele>
        <time>2019-04-04T11:57:39Z</time>
      </trkpt>
      <trkpt lat="60.33075" lon="7.5424">
        <ele>1118.63</ele>
        <time>2019-04-04T11:57:42Z</time>
      </trkpt>
      <trkpt lat="60.33069" lon="7.54247">
        <ele>1117.19</ele>
        <time>2019-04-04T11:57:44Z</time>
      </trkpt>
      <trkpt lat="60.33058" lon="7.54265">
        <ele>1118.63</ele>
        <time>2019-04-04T11:57:48Z</time>
      </trkpt>
      <trkpt lat="60.33034" lon="7.54298">
        <ele>1118.15</ele>
        <time>2019-04-04T11:57:57Z</time>
      </trkpt>
      <trkpt lat="60.33014" lon="7.54326">
        <ele>1117.19</ele>
        <time>2019-04-04T11:58:04Z</time>
      </trkpt>
      <trkpt lat="60.32991" lon="7.54362">
        <ele>1117.19</ele>
        <time>2019-04-04T11:58:13Z</time>
      </trkpt>
      <trkpt lat="60.32987" lon="7.54369">
        <ele>1118.63</ele>
        <time>2019-04-04T11:58:15Z</time>
      </trkpt>
      <trkpt lat="60.32975" lon="7.54386">
        <ele>1119.11</ele>
        <time>2019-04-04T11:58:24Z</time>
      </trkpt>
      <trkpt lat="60.32956" lon="7.54396">
        <ele>1118.63</ele>
        <time>2019-04-04T11:58:33Z</time>
      </trkpt>
      <trkpt lat="60.32928" lon="7.54431">
        <ele>1118.63</ele>
        <time>2019-04-04T11:58:43Z</time>
      </trkpt>
      <trkpt lat="60.32906" lon="7.54447">
        <ele>1120.07</ele>
        <time>2019-04-04T11:58:50Z</time>
      </trkpt>
      <trkpt lat="60.32886" lon="7.54467">
        <ele>1122.48</ele>
        <time>2019-04-04T11:58:58Z</time>
      </trkpt>
      <trkpt lat="60.32861" lon="7.54482">
        <ele>1122.48</ele>
        <time>2019-04-04T11:59:06Z</time>
      </trkpt>
      <trkpt lat="60.32832" lon="7.5452">
        <ele>1124.4</ele>
        <time>2019-04-04T11:59:15Z</time>
      </trkpt>
      <trkpt lat="60.32818" lon="7.54535">
        <ele>1124.88</ele>
        <time>2019-04-04T11:59:19Z</time>
      </trkpt>
      <trkpt lat="60.32769" lon="7.5457">
        <ele>1126.32</ele>
        <time>2019-04-04T11:59:31Z</time>
      </trkpt>
      <trkpt lat="60.32754" lon="7.54579">
        <ele>1126.32</ele>
        <time>2019-04-04T11:59:34Z</time>
      </trkpt>
      <trkpt lat="60.32732" lon="7.54593">
        <ele>1127.28</ele>
        <time>2019-04-04T11:59:39Z</time>
      </trkpt>
      <trkpt lat="60.3271" lon="7.54617">
        <ele>1127.76</ele>
        <time>2019-04-04T11:59:45Z</time>
      </trkpt>
      <trkpt lat="60.32697" lon="7.5463">
        <ele>1127.76</ele>
        <time>2019-04-04T11:59:48Z</time>
      </trkpt>
      <trkpt lat="60.32678" lon="7.54647">
        <ele>1128.73</ele>
        <time>2019-04-04T11:59:53Z</time>
      </trkpt>
      <trkpt lat="60.32673" lon="7.54628">
        <ele>1128.73</ele>
        <time>2019-04-04T11:59:58Z</time>
      </trkpt>
      <trkpt lat="60.32691" lon="7.54621">
        <ele>1129.69</ele>
        <time>2019-04-04T12:00:02Z</time>
      </trkpt>
      <trkpt lat="60.32702" lon="7.54624">
        <ele>1130.17</ele>
        <time>2019-04-04T12:00:04Z</time>
      </trkpt>
      <trkpt lat="60.32739" lon="7.54631">
        <ele>1130.17</ele>
        <time>2019-04-04T12:00:10Z</time>
      </trkpt>
      <trkpt lat="60.32778" lon="7.54637">
        <ele>1128.73</ele>
        <time>2019-04-04T12:00:16Z</time>
      </trkpt>
      <trkpt lat="60.32797" lon="7.54644">
        <ele>1128.73</ele>
        <time>2019-04-04T12:00:19Z</time>
      </trkpt>
      <trkpt lat="60.3282" lon="7.54651">
        <ele>1128.73</ele>
        <time>2019-04-04T12:00:25Z</time>
      </trkpt>
      <trkpt lat="60.32828" lon="7.54655">
        <ele>1128.73</ele>
        <time>2019-04-04T12:00:27Z</time>
      </trkpt>
      <trkpt lat="60.3285" lon="7.54665">
        <ele>1128.24</ele>
        <time>2019-04-04T12:00:31Z</time>
      </trkpt>
      <trkpt lat="60.32878" lon="7.54665">
        <ele>1126.8</ele>
        <time>2019-04-04T12:00:35Z</time>
      </trkpt>
      <trkpt lat="60.32938" lon="7.54663">
        <ele>1127.76</ele>
        <time>2019-04-04T12:00:44Z</time>
      </trkpt>
      <trkpt lat="60.32959" lon="7.54669">
        <ele>1131.13</ele>
        <time>2019-04-04T12:00:51Z</time>
      </trkpt>
      <trkpt lat="60.32961" lon="7.5467">
        <ele>1132.09</ele>
        <time>2019-04-04T12:00:53Z</time>
      </trkpt>
      <trkpt lat="60.32962" lon="7.54669">
        <ele>1132.09</ele>
        <time>2019-04-04T12:00:54Z</time>
      </trkpt>
      <trkpt lat="60.32973" lon="7.5467">
        <ele>1133.05</ele>
        <time>2019-04-04T12:01:03Z</time>
      </trkpt>
      <trkpt lat="60.32978" lon="7.54673">
        <ele>1134.01</ele>
        <time>2019-04-04T12:01:05Z</time>
      </trkpt>
      <trkpt lat="60.32997" lon="7.54679">
        <ele>1134.01</ele>
        <time>2019-04-04T12:01:11Z</time>
      </trkpt>
      <trkpt lat="60.33014" lon="7.54694">
        <ele>1130.17</ele>
        <time>2019-04-04T12:01:15Z</time>
      </trkpt>
      <trkpt lat="60.33026" lon="7.54703">
        <ele>1127.76</ele>
        <time>2019-04-04T12:01:17Z</time>
      </trkpt>
      <trkpt lat="60.33045" lon="7.54711">
        <ele>1125.84</ele>
        <time>2019-04-04T12:01:20Z</time>
      </trkpt>
      <trkpt lat="60.33073" lon="7.54716">
        <ele>1125.36</ele>
        <time>2019-04-04T12:01:26Z</time>
      </trkpt>
      <trkpt lat="60.33099" lon="7.54715">
        <ele>1128.73</ele>
        <time>2019-04-04T12:01:32Z</time>
      </trkpt>
      <trkpt lat="60.33113" lon="7.54715">
        <ele>1130.65</ele>
        <time>2019-04-04T12:01:35Z</time>
      </trkpt>
      <trkpt lat="60.33117" lon="7.54715">
        <ele>1131.61</ele>
        <time>2019-04-04T12:01:36Z</time>
      </trkpt>
      <trkpt lat="60.33138" lon="7.54712">
        <ele>1133.53</ele>
        <time>2019-04-04T12:01:44Z</time>
      </trkpt>
      <trkpt lat="60.33138" lon="7.54709">
        <ele>1132.09</ele>
        <time>2019-04-04T12:01:59Z</time>
      </trkpt>
      <trkpt lat="60.33137" lon="7.54708">
        <ele>1132.09</ele>
        <time>2019-04-04T12:02:12Z</time>
      </trkpt>
      <trkpt lat="60.33136" lon="7.54708">
        <ele>1132.09</ele>
        <time>2019-04-04T12:02:32Z</time>
      </trkpt>
      <trkpt lat="60.33136" lon="7.54708">
        <ele>1132.09</ele>
        <time>2019-04-04T12:02:50Z</time>
      </trkpt>
      <trkpt lat="60.33136" lon="7.54708">
        <ele>1131.61</ele>
        <time>2019-04-04T12:03:06Z</time>
      </trkpt>
      <trkpt lat="60.33129" lon="7.54711">
        <ele>1131.61</ele>
        <time>2019-04-04T12:03:10Z</time>
      </trkpt>
      <trkpt lat="60.33117" lon="7.54724">
        <ele>1130.65</ele>
        <time>2019-04-04T12:03:13Z</time>
      </trkpt>
      <trkpt lat="60.33088" lon="7.54749">
        <ele>1126.32</ele>
        <time>2019-04-04T12:03:18Z</time>
      </trkpt>
      <trkpt lat="60.33053" lon="7.54774">
        <ele>1123.92</ele>
        <time>2019-04-04T12:03:23Z</time>
      </trkpt>
      <trkpt lat="60.33022" lon="7.54791">
        <ele>1123.92</ele>
        <time>2019-04-04T12:03:28Z</time>
      </trkpt>
      <trkpt lat="60.3301" lon="7.54794">
        <ele>1125.36</ele>
        <time>2019-04-04T12:03:30Z</time>
      </trkpt>
      <trkpt lat="60.33004" lon="7.54795">
        <ele>1126.32</ele>
        <time>2019-04-04T12:03:31Z</time>
      </trkpt>
      <trkpt lat="60.32993" lon="7.54799">
        <ele>1127.28</ele>
        <time>2019-04-04T12:03:33Z</time>
      </trkpt>
      <trkpt lat="60.32978" lon="7.54802">
        <ele>1129.69</ele>
        <time>2019-04-04T12:03:37Z</time>
      </trkpt>
      <trkpt lat="60.32964" lon="7.54814">
        <ele>1132.09</ele>
        <time>2019-04-04T12:03:41Z</time>
      </trkpt>
      <trkpt lat="60.32936" lon="7.54827">
        <ele>1132.57</ele>
        <time>2019-04-04T12:03:46Z</time>
      </trkpt>
      <trkpt lat="60.32925" lon="7.5484">
        <ele>1131.13</ele>
        <time>2019-04-04T12:03:48Z</time>
      </trkpt>
      <trkpt lat="60.32903" lon="7.54856">
        <ele>1130.65</ele>
        <time>2019-04-04T12:03:52Z</time>
      </trkpt>
      <trkpt lat="60.32847" lon="7.5487">
        <ele>1128.73</ele>
        <time>2019-04-04T12:03:59Z</time>
      </trkpt>
      <trkpt lat="60.32815" lon="7.5488">
        <ele>1128.73</ele>
        <time>2019-04-04T12:04:03Z</time>
      </trkpt>
      <trkpt lat="60.32793" lon="7.54884">
        <ele>1128.73</ele>
        <time>2019-04-04T12:04:06Z</time>
      </trkpt>
      <trkpt lat="60.32763" lon="7.54891">
        <ele>1128.73</ele>
        <time>2019-04-04T12:04:10Z</time>
      </trkpt>
      <trkpt lat="60.32727" lon="7.5491">
        <ele>1130.17</ele>
        <time>2019-04-04T12:04:16Z</time>
      </trkpt>
      <trkpt lat="60.32705" lon="7.54925">
        <ele>1131.13</ele>
        <time>2019-04-04T12:04:20Z</time>
      </trkpt>
      <trkpt lat="60.32685" lon="7.54932">
        <ele>1132.57</ele>
        <time>2019-04-04T12:04:24Z</time>
      </trkpt>
      <trkpt lat="60.32669" lon="7.54923">
        <ele>1137.38</ele>
        <time>2019-04-04T12:04:29Z</time>
      </trkpt>
      <trkpt lat="60.32667" lon="7.5492">
        <ele>1137.38</ele>
        <time>2019-04-04T12:04:30Z</time>
      </trkpt>
      <trkpt lat="60.32654" lon="7.54911">
        <ele>1140.74</ele>
        <time>2019-04-04T12:04:37Z</time>
      </trkpt>
      <trkpt lat="60.32636" lon="7.54902">
        <ele>1142.18</ele>
        <time>2019-04-04T12:04:48Z</time>
      </trkpt>
      <trkpt lat="60.32627" lon="7.549">
        <ele>1142.18</ele>
        <time>2019-04-04T12:04:54Z</time>
      </trkpt>
      <trkpt lat="60.32621" lon="7.54903">
        <ele>1143.14</ele>
        <time>2019-04-04T12:04:58Z</time>
      </trkpt>
      <trkpt lat="60.32608" lon="7.54902">
        <ele>1143.14</ele>
        <time>2019-04-04T12:05:08Z</time>
      </trkpt>
      <trkpt lat="60.32586" lon="7.54904">
        <ele>1143.63</ele>
        <time>2019-04-04T12:05:17Z</time>
      </trkpt>
      <trkpt lat="60.32577" lon="7.5491">
        <ele>1144.11</ele>
        <time>2019-04-04T12:05:20Z</time>
      </trkpt>
      <trkpt lat="60.32578" lon="7.54893">
        <ele>1144.11</ele>
        <time>2019-04-04T12:05:25Z</time>
      </trkpt>
      <trkpt lat="60.32594" lon="7.54897">
        <ele>1144.11</ele>
        <time>2019-04-04T12:05:29Z</time>
      </trkpt>
      <trkpt lat="60.32602" lon="7.54902">
        <ele>1145.07</ele>
        <time>2019-04-04T12:05:31Z</time>
      </trkpt>
      <trkpt lat="60.32626" lon="7.54919">
        <ele>1145.55</ele>
        <time>2019-04-04T12:05:38Z</time>
      </trkpt>
      <trkpt lat="60.32628" lon="7.54918">
        <ele>1144.11</ele>
        <time>2019-04-04T12:05:40Z</time>
      </trkpt>
      <trkpt lat="60.32616" lon="7.54904">
        <ele>1143.14</ele>
        <time>2019-04-04T12:05:46Z</time>
      </trkpt>
      <trkpt lat="60.32606" lon="7.54905">
        <ele>1142.18</ele>
        <time>2019-04-04T12:05:54Z</time>
      </trkpt>
      <trkpt lat="60.32606" lon="7.54905">
        <ele>1143.63</ele>
        <time>2019-04-04T12:06:12Z</time>
      </trkpt>
      <trkpt lat="60.32605" lon="7.54903">
        <ele>1143.63</ele>
        <time>2019-04-04T12:06:27Z</time>
      </trkpt>
      <trkpt lat="60.32605" lon="7.54902">
        <ele>1143.63</ele>
        <time>2019-04-04T12:06:48Z</time>
      </trkpt>
      <trkpt lat="60.32604" lon="7.549">
        <ele>1143.63</ele>
        <time>2019-04-04T12:07:04Z</time>
      </trkpt>
      <trkpt lat="60.32592" lon="7.549">
        <ele>1143.63</ele>
        <time>2019-04-04T12:07:13Z</time>
      </trkpt>
      <trkpt lat="60.32574" lon="7.54897">
        <ele>1143.63</ele>
        <time>2019-04-04T12:07:20Z</time>
      </trkpt>
      <trkpt lat="60.32539" lon="7.5492">
        <ele>1140.26</ele>
        <time>2019-04-04T12:07:27Z</time>
      </trkpt>
      <trkpt lat="60.32512" lon="7.54926">
        <ele>1136.9</ele>
        <time>2019-04-04T12:07:31Z</time>
      </trkpt>
      <trkpt lat="60.32505" lon="7.54927">
        <ele>1136.9</ele>
        <time>2019-04-04T12:07:32Z</time>
      </trkpt>
      <trkpt lat="60.32493" lon="7.5493">
        <ele>1136.9</ele>
        <time>2019-04-04T12:07:34Z</time>
      </trkpt>
      <trkpt lat="60.3248" lon="7.54927">
        <ele>1138.34</ele>
        <time>2019-04-04T12:07:37Z</time>
      </trkpt>
      <trkpt lat="60.3247" lon="7.54923">
        <ele>1141.22</ele>
        <time>2019-04-04T12:07:41Z</time>
      </trkpt>
      <trkpt lat="60.32466" lon="7.54916">
        <ele>1141.7</ele>
        <time>2019-04-04T12:07:44Z</time>
      </trkpt>
      <trkpt lat="60.32451" lon="7.54908">
        <ele>1142.66</ele>
        <time>2019-04-04T12:07:48Z</time>
      </trkpt>
      <trkpt lat="60.32432" lon="7.54914">
        <ele>1144.59</ele>
        <time>2019-04-04T12:07:52Z</time>
      </trkpt>
      <trkpt lat="60.32413" lon="7.54916">
        <ele>1146.51</ele>
        <time>2019-04-04T12:07:59Z</time>
      </trkpt>
      <trkpt lat="60.3241" lon="7.54915">
        <ele>1146.99</ele>
        <time>2019-04-04T12:08:01Z</time>
      </trkpt>
      <trkpt lat="60.32408" lon="7.54911">
        <ele>1146.99</ele>
        <time>2019-04-04T12:08:04Z</time>
      </trkpt>
      <trkpt lat="60.32403" lon="7.54908">
        <ele>1147.95</ele>
        <time>2019-04-04T12:08:08Z</time>
      </trkpt>
      <trkpt lat="60.32398" lon="7.54906">
        <ele>1146.51</ele>
        <time>2019-04-04T12:08:14Z</time>
      </trkpt>
      <trkpt lat="60.3239" lon="7.54898">
        <ele>1148.43</ele>
        <time>2019-04-04T12:08:20Z</time>
      </trkpt>
      <trkpt lat="60.32381" lon="7.54894">
        <ele>1147.47</ele>
        <time>2019-04-04T12:08:30Z</time>
      </trkpt>
      <trkpt lat="60.3238" lon="7.54893">
        <ele>1147.47</ele>
        <time>2019-04-04T12:08:31Z</time>
      </trkpt>
      <trkpt lat="60.32369" lon="7.54883">
        <ele>1144.59</ele>
        <time>2019-04-04T12:08:35Z</time>
      </trkpt>
      <trkpt lat="60.32345" lon="7.54875">
        <ele>1144.11</ele>
        <time>2019-04-04T12:08:40Z</time>
      </trkpt>
      <trkpt lat="60.32314" lon="7.54863">
        <ele>1145.55</ele>
        <time>2019-04-04T12:08:47Z</time>
      </trkpt>
      <trkpt lat="60.32287" lon="7.54844">
        <ele>1145.55</ele>
        <time>2019-04-04T12:08:52Z</time>
      </trkpt>
      <trkpt lat="60.32275" lon="7.54843">
        <ele>1147.95</ele>
        <time>2019-04-04T12:08:54Z</time>
      </trkpt>
      <trkpt lat="60.32227" lon="7.54859">
        <ele>1151.32</ele>
        <time>2019-04-04T12:09:05Z</time>
      </trkpt>
      <trkpt lat="60.32224" lon="7.5486">
        <ele>1151.32</ele>
        <time>2019-04-04T12:09:06Z</time>
      </trkpt>
      <trkpt lat="60.32208" lon="7.5486">
        <ele>1151.32</ele>
        <time>2019-04-04T12:09:11Z</time>
      </trkpt>
      <trkpt lat="60.32162" lon="7.54854">
        <ele>1152.76</ele>
        <time>2019-04-04T12:09:21Z</time>
      </trkpt>
      <trkpt lat="60.32147" lon="7.54855">
        <ele>1153.72</ele>
        <time>2019-04-04T12:09:24Z</time>
      </trkpt>
      <trkpt lat="60.32119" lon="7.54852">
        <ele>1152.76</ele>
        <time>2019-04-04T12:09:29Z</time>
      </trkpt>
      <trkpt lat="60.32094" lon="7.54841">
        <ele>1154.2</ele>
        <time>2019-04-04T12:09:33Z</time>
      </trkpt>
      <trkpt lat="60.32079" lon="7.54832">
        <ele>1157.56</ele>
        <time>2019-04-04T12:09:36Z</time>
      </trkpt>
      <trkpt lat="60.3207" lon="7.5483">
        <ele>1158.05</ele>
        <time>2019-04-04T12:09:38Z</time>
      </trkpt>
      <trkpt lat="60.32059" lon="7.54826">
        <ele>1159.49</ele>
        <time>2019-04-04T12:09:40Z</time>
      </trkpt>
      <trkpt lat="60.32027" lon="7.5482">
        <ele>1163.33</ele>
        <time>2019-04-04T12:09:45Z</time>
      </trkpt>
      <trkpt lat="60.32021" lon="7.54819">
        <ele>1163.33</ele>
        <time>2019-04-04T12:09:46Z</time>
      </trkpt>
      <trkpt lat="60.32" lon="7.54825">
        <ele>1165.26</ele>
        <time>2019-04-04T12:09:49Z</time>
      </trkpt>
      <trkpt lat="60.31947" lon="7.54856">
        <ele>1167.66</ele>
        <time>2019-04-04T12:09:58Z</time>
      </trkpt>
      <trkpt lat="60.31922" lon="7.54857">
        <ele>1169.1</ele>
        <time>2019-04-04T12:10:02Z</time>
      </trkpt>
      <trkpt lat="60.31886" lon="7.54856">
        <ele>1169.1</ele>
        <time>2019-04-04T12:10:07Z</time>
      </trkpt>
      <trkpt lat="60.31873" lon="7.5486">
        <ele>1170.54</ele>
        <time>2019-04-04T12:10:09Z</time>
      </trkpt>
      <trkpt lat="60.31853" lon="7.54869">
        <ele>1169.1</ele>
        <time>2019-04-04T12:10:12Z</time>
      </trkpt>
      <trkpt lat="60.31799" lon="7.54897">
        <ele>1169.1</ele>
        <time>2019-04-04T12:10:21Z</time>
      </trkpt>
      <trkpt lat="60.31748" lon="7.54919">
        <ele>1169.1</ele>
        <time>2019-04-04T12:10:29Z</time>
      </trkpt>
      <trkpt lat="60.31731" lon="7.54928">
        <ele>1171.5</ele>
        <time>2019-04-04T12:10:32Z</time>
      </trkpt>
      <trkpt lat="60.31704" lon="7.54928">
        <ele>1174.87</ele>
        <time>2019-04-04T12:10:41Z</time>
      </trkpt>
      <trkpt lat="60.31691" lon="7.54927">
        <ele>1175.83</ele>
        <time>2019-04-04T12:10:50Z</time>
      </trkpt>
      <trkpt lat="60.31678" lon="7.5491">
        <ele>1176.79</ele>
        <time>2019-04-04T12:10:56Z</time>
      </trkpt>
      <trkpt lat="60.31656" lon="7.54894">
        <ele>1177.75</ele>
        <time>2019-04-04T12:11:00Z</time>
      </trkpt>
      <trkpt lat="60.31644" lon="7.54893">
        <ele>1179.67</ele>
        <time>2019-04-04T12:11:02Z</time>
      </trkpt>
      <trkpt lat="60.31632" lon="7.54894">
        <ele>1180.64</ele>
        <time>2019-04-04T12:11:04Z</time>
      </trkpt>
      <trkpt lat="60.31573" lon="7.54916">
        <ele>1184</ele>
        <time>2019-04-04T12:11:14Z</time>
      </trkpt>
      <trkpt lat="60.31556" lon="7.54925">
        <ele>1185.92</ele>
        <time>2019-04-04T12:11:17Z</time>
      </trkpt>
      <trkpt lat="60.31545" lon="7.54931">
        <ele>1184.48</ele>
        <time>2019-04-04T12:11:19Z</time>
      </trkpt>
      <trkpt lat="60.31512" lon="7.54952">
        <ele>1185.44</ele>
        <time>2019-04-04T12:11:25Z</time>
      </trkpt>
      <trkpt lat="60.31472" lon="7.54978">
        <ele>1188.81</ele>
        <time>2019-04-04T12:11:32Z</time>
      </trkpt>
      <trkpt lat="60.31454" lon="7.54989">
        <ele>1187.37</ele>
        <time>2019-04-04T12:11:36Z</time>
      </trkpt>
      <trkpt lat="60.31438" lon="7.5499">
        <ele>1187.37</ele>
        <time>2019-04-04T12:11:39Z</time>
      </trkpt>
      <trkpt lat="60.31412" lon="7.54991">
        <ele>1189.77</ele>
        <time>2019-04-04T12:11:46Z</time>
      </trkpt>
      <trkpt lat="60.31389" lon="7.54979">
        <ele>1191.21</ele>
        <time>2019-04-04T12:11:51Z</time>
      </trkpt>
      <trkpt lat="60.31367" lon="7.54978">
        <ele>1193.61</ele>
        <time>2019-04-04T12:11:56Z</time>
      </trkpt>
      <trkpt lat="60.31354" lon="7.54974">
        <ele>1195.06</ele>
        <time>2019-04-04T12:11:59Z</time>
      </trkpt>
      <trkpt lat="60.3134" lon="7.54972">
        <ele>1196.02</ele>
        <time>2019-04-04T12:12:02Z</time>
      </trkpt>
      <trkpt lat="60.3133" lon="7.54973">
        <ele>1196.5</ele>
        <time>2019-04-04T12:12:04Z</time>
      </trkpt>
      <trkpt lat="60.31305" lon="7.54974">
        <ele>1198.9</ele>
        <time>2019-04-04T12:12:09Z</time>
      </trkpt>
      <trkpt lat="60.31295" lon="7.54975">
        <ele>1199.38</ele>
        <time>2019-04-04T12:12:11Z</time>
      </trkpt>
      <trkpt lat="60.31241" lon="7.54973">
        <ele>1201.79</ele>
        <time>2019-04-04T12:12:22Z</time>
      </trkpt>
      <trkpt lat="60.31232" lon="7.54975">
        <ele>1202.75</ele>
        <time>2019-04-04T12:12:24Z</time>
      </trkpt>
      <trkpt lat="60.31188" lon="7.54962">
        <ele>1206.11</ele>
        <time>2019-04-04T12:12:32Z</time>
      </trkpt>
      <trkpt lat="60.31154" lon="7.54958">
        <ele>1206.59</ele>
        <time>2019-04-04T12:12:38Z</time>
      </trkpt>
      <trkpt lat="60.31146" lon="7.54959">
        <ele>1208.03</ele>
        <time>2019-04-04T12:12:40Z</time>
      </trkpt>
      <trkpt lat="60.31135" lon="7.5496">
        <ele>1209</ele>
        <time>2019-04-04T12:12:44Z</time>
      </trkpt>
      <trkpt lat="60.31133" lon="7.54951">
        <ele>1209.96</ele>
        <time>2019-04-04T12:12:56Z</time>
      </trkpt>
      <trkpt lat="60.31147" lon="7.54963">
        <ele>1209.96</ele>
        <time>2019-04-04T12:13:02Z</time>
      </trkpt>
      <trkpt lat="60.31151" lon="7.54972">
        <ele>1209.96</ele>
        <time>2019-04-04T12:13:04Z</time>
      </trkpt>
      <trkpt lat="60.31163" lon="7.54992">
        <ele>1208.51</ele>
        <time>2019-04-04T12:13:09Z</time>
      </trkpt>
      <trkpt lat="60.31167" lon="7.54996">
        <ele>1207.55</ele>
        <time>2019-04-04T12:13:17Z</time>
      </trkpt>
      <trkpt lat="60.31168" lon="7.54997">
        <ele>1207.55</ele>
        <time>2019-04-04T12:13:21Z</time>
      </trkpt>
      <trkpt lat="60.31174" lon="7.55003">
        <ele>1207.55</ele>
        <time>2019-04-04T12:13:30Z</time>
      </trkpt>
      <trkpt lat="60.3118" lon="7.55013">
        <ele>1207.55</ele>
        <time>2019-04-04T12:13:42Z</time>
      </trkpt>
      <trkpt lat="60.31182" lon="7.55017">
        <ele>1207.55</ele>
        <time>2019-04-04T12:13:43Z</time>
      </trkpt>
      <trkpt lat="60.31202" lon="7.55007">
        <ele>1206.59</ele>
        <time>2019-04-04T12:13:48Z</time>
      </trkpt>
      <trkpt lat="60.31227" lon="7.55016">
        <ele>1206.59</ele>
        <time>2019-04-04T12:13:52Z</time>
      </trkpt>
      <trkpt lat="60.31247" lon="7.55044">
        <ele>1206.59</ele>
        <time>2019-04-04T12:13:56Z</time>
      </trkpt>
      <trkpt lat="60.31261" lon="7.55064">
        <ele>1206.59</ele>
        <time>2019-04-04T12:13:59Z</time>
      </trkpt>
      <trkpt lat="60.31298" lon="7.55118">
        <ele>1205.63</ele>
        <time>2019-04-04T12:14:07Z</time>
      </trkpt>
      <trkpt lat="60.31313" lon="7.55141">
        <ele>1205.15</ele>
        <time>2019-04-04T12:14:10Z</time>
      </trkpt>
      <trkpt lat="60.31328" lon="7.55172">
        <ele>1204.67</ele>
        <time>2019-04-04T12:14:14Z</time>
      </trkpt>
      <trkpt lat="60.3135" lon="7.5521">
        <ele>1204.19</ele>
        <time>2019-04-04T12:14:22Z</time>
      </trkpt>
      <trkpt lat="60.31352" lon="7.55207">
        <ele>1203.23</ele>
        <time>2019-04-04T12:14:29Z</time>
      </trkpt>
      <trkpt lat="60.31339" lon="7.55192">
        <ele>1202.75</ele>
        <time>2019-04-04T12:14:38Z</time>
      </trkpt>
      <trkpt lat="60.31292" lon="7.5519">
        <ele>1204.19</ele>
        <time>2019-04-04T12:14:48Z</time>
      </trkpt>
      <trkpt lat="60.31275" lon="7.55189">
        <ele>1206.11</ele>
        <time>2019-04-04T12:14:52Z</time>
      </trkpt>
      <trkpt lat="60.31247" lon="7.55181">
        <ele>1207.07</ele>
        <time>2019-04-04T12:14:59Z</time>
      </trkpt>
      <trkpt lat="60.3122" lon="7.55181">
        <ele>1207.55</ele>
        <time>2019-04-04T12:15:05Z</time>
      </trkpt>
      <trkpt lat="60.31189" lon="7.55195">
        <ele>1209</ele>
        <time>2019-04-04T12:15:12Z</time>
      </trkpt>
      <trkpt lat="60.31184" lon="7.55195">
        <ele>1209.48</ele>
        <time>2019-04-04T12:15:13Z</time>
      </trkpt>
      <trkpt lat="60.31168" lon="7.55196">
        <ele>1209.48</ele>
        <time>2019-04-04T12:15:16Z</time>
      </trkpt>
      <trkpt lat="60.31146" lon="7.55195">
        <ele>1210.92</ele>
        <time>2019-04-04T12:15:20Z</time>
      </trkpt>
      <trkpt lat="60.31134" lon="7.55199">
        <ele>1213.32</ele>
        <time>2019-04-04T12:15:23Z</time>
      </trkpt>
      <trkpt lat="60.3113" lon="7.55196">
        <ele>1213.32</ele>
        <time>2019-04-04T12:15:24Z</time>
      </trkpt>
      <trkpt lat="60.31121" lon="7.55183">
        <ele>1213.8</ele>
        <time>2019-04-04T12:15:27Z</time>
      </trkpt>
      <trkpt lat="60.31102" lon="7.55174">
        <ele>1216.21</ele>
        <time>2019-04-04T12:15:31Z</time>
      </trkpt>
      <trkpt lat="60.31093" lon="7.55168">
        <ele>1216.21</ele>
        <time>2019-04-04T12:15:33Z</time>
      </trkpt>
      <trkpt lat="60.31073" lon="7.55161">
        <ele>1218.61</ele>
        <time>2019-04-04T12:15:37Z</time>
      </trkpt>
      <trkpt lat="60.31059" lon="7.55157">
        <ele>1220.05</ele>
        <time>2019-04-04T12:15:40Z</time>
      </trkpt>
      <trkpt lat="60.3105" lon="7.55157">
        <ele>1221.01</ele>
        <time>2019-04-04T12:15:42Z</time>
      </trkpt>
      <trkpt lat="60.31021" lon="7.55143">
        <ele>1223.9</ele>
        <time>2019-04-04T12:15:48Z</time>
      </trkpt>
      <trkpt lat="60.30967" lon="7.55118">
        <ele>1226.78</ele>
        <time>2019-04-04T12:15:59Z</time>
      </trkpt>
      <trkpt lat="60.30941" lon="7.55106">
        <ele>1227.26</ele>
        <time>2019-04-04T12:16:04Z</time>
      </trkpt>
      <trkpt lat="60.30918" lon="7.55105">
        <ele>1227.74</ele>
        <time>2019-04-04T12:16:08Z</time>
      </trkpt>
      <trkpt lat="60.30873" lon="7.55113">
        <ele>1230.14</ele>
        <time>2019-04-04T12:16:16Z</time>
      </trkpt>
      <trkpt lat="60.30862" lon="7.55117">
        <ele>1231.59</ele>
        <time>2019-04-04T12:16:18Z</time>
      </trkpt>
      <trkpt lat="60.3083" lon="7.55129">
        <ele>1231.59</ele>
        <time>2019-04-04T12:16:24Z</time>
      </trkpt>
      <trkpt lat="60.30814" lon="7.5513">
        <ele>1231.59</ele>
        <time>2019-04-04T12:16:27Z</time>
      </trkpt>
      <trkpt lat="60.30752" lon="7.55149">
        <ele>1228.7</ele>
        <time>2019-04-04T12:16:37Z</time>
      </trkpt>
      <trkpt lat="60.30723" lon="7.55153">
        <ele>1229.18</ele>
        <time>2019-04-04T12:16:42Z</time>
      </trkpt>
      <trkpt lat="60.30711" lon="7.55156">
        <ele>1230.14</ele>
        <time>2019-04-04T12:16:44Z</time>
      </trkpt>
      <trkpt lat="60.3068" lon="7.55159">
        <ele>1227.26</ele>
        <time>2019-04-04T12:16:49Z</time>
      </trkpt>
      <trkpt lat="60.30668" lon="7.55158">
        <ele>1226.3</ele>
        <time>2019-04-04T12:16:51Z</time>
      </trkpt>
      <trkpt lat="60.30648" lon="7.55154">
        <ele>1226.3</ele>
        <time>2019-04-04T12:16:54Z</time>
      </trkpt>
      <trkpt lat="60.30607" lon="7.55155">
        <ele>1227.74</ele>
        <time>2019-04-04T12:17:00Z</time>
      </trkpt>
      <trkpt lat="60.30592" lon="7.5516">
        <ele>1225.82</ele>
        <time>2019-04-04T12:17:03Z</time>
      </trkpt>
      <trkpt lat="60.30576" lon="7.55161">
        <ele>1225.82</ele>
        <time>2019-04-04T12:17:06Z</time>
      </trkpt>
      <trkpt lat="60.30562" lon="7.55165">
        <ele>1226.78</ele>
        <time>2019-04-04T12:17:09Z</time>
      </trkpt>
      <trkpt lat="60.30544" lon="7.55173">
        <ele>1229.66</ele>
        <time>2019-04-04T12:17:14Z</time>
      </trkpt>
      <trkpt lat="60.30526" lon="7.55167">
        <ele>1229.66</ele>
        <time>2019-04-04T12:17:19Z</time>
      </trkpt>
      <trkpt lat="60.30517" lon="7.55168">
        <ele>1230.62</ele>
        <time>2019-04-04T12:17:21Z</time>
      </trkpt>
      <trkpt lat="60.30502" lon="7.55167">
        <ele>1230.62</ele>
        <time>2019-04-04T12:17:24Z</time>
      </trkpt>
      <trkpt lat="60.30478" lon="7.55168">
        <ele>1233.51</ele>
        <time>2019-04-04T12:17:30Z</time>
      </trkpt>
      <trkpt lat="60.30447" lon="7.55168">
        <ele>1235.91</ele>
        <time>2019-04-04T12:17:40Z</time>
      </trkpt>
      <trkpt lat="60.30433" lon="7.55167">
        <ele>1236.39</ele>
        <time>2019-04-04T12:17:44Z</time>
      </trkpt>
      <trkpt lat="60.30424" lon="7.55169">
        <ele>1236.39</ele>
        <time>2019-04-04T12:17:46Z</time>
      </trkpt>
      <trkpt lat="60.30389" lon="7.55169">
        <ele>1238.8</ele>
        <time>2019-04-04T12:17:52Z</time>
      </trkpt>
      <trkpt lat="60.30382" lon="7.55171">
        <ele>1239.28</ele>
        <time>2019-04-04T12:17:53Z</time>
      </trkpt>
      <trkpt lat="60.30362" lon="7.55172">
        <ele>1239.28</ele>
        <time>2019-04-04T12:17:56Z</time>
      </trkpt>
      <trkpt lat="60.30319" lon="7.55171">
        <ele>1240.72</ele>
        <time>2019-04-04T12:18:03Z</time>
      </trkpt>
      <trkpt lat="60.30249" lon="7.55167">
        <ele>1243.6</ele>
        <time>2019-04-04T12:18:15Z</time>
      </trkpt>
      <trkpt lat="60.30237" lon="7.55169">
        <ele>1243.6</ele>
        <time>2019-04-04T12:18:17Z</time>
      </trkpt>
      <trkpt lat="60.30213" lon="7.55166">
        <ele>1245.04</ele>
        <time>2019-04-04T12:18:21Z</time>
      </trkpt>
      <trkpt lat="60.30185" lon="7.55166">
        <ele>1245.53</ele>
        <time>2019-04-04T12:18:26Z</time>
      </trkpt>
      <trkpt lat="60.30164" lon="7.55162">
        <ele>1247.45</ele>
        <time>2019-04-04T12:18:30Z</time>
      </trkpt>
      <trkpt lat="60.30117" lon="7.55151">
        <ele>1250.81</ele>
        <time>2019-04-04T12:18:39Z</time>
      </trkpt>
      <trkpt lat="60.30094" lon="7.55155">
        <ele>1252.74</ele>
        <time>2019-04-04T12:18:44Z</time>
      </trkpt>
      <trkpt lat="60.30086" lon="7.55156">
        <ele>1253.22</ele>
        <time>2019-04-04T12:18:46Z</time>
      </trkpt>
      <trkpt lat="60.3006" lon="7.55175">
        <ele>1254.18</ele>
        <time>2019-04-04T12:18:55Z</time>
      </trkpt>
      <trkpt lat="60.30049" lon="7.55178">
        <ele>1254.66</ele>
        <time>2019-04-04T12:19:03Z</time>
      </trkpt>
      <trkpt lat="60.30026" lon="7.55179">
        <ele>1254.66</ele>
        <time>2019-04-04T12:19:12Z</time>
      </trkpt>
      <trkpt lat="60.30014" lon="7.55181">
        <ele>1254.66</ele>
        <time>2019-04-04T12:19:15Z</time>
      </trkpt>
      <trkpt lat="60.30006" lon="7.55184">
        <ele>1253.7</ele>
        <time>2019-04-04T12:19:17Z</time>
      </trkpt>
      <trkpt lat="60.29969" lon="7.55207">
        <ele>1253.7</ele>
        <time>2019-04-04T12:19:27Z</time>
      </trkpt>
      <trkpt lat="60.29938" lon="7.55232">
        <ele>1254.18</ele>
        <time>2019-04-04T12:19:37Z</time>
      </trkpt>
      <trkpt lat="60.29914" lon="7.55237">
        <ele>1255.14</ele>
        <time>2019-04-04T12:19:49Z</time>
      </trkpt>
      <trkpt lat="60.29909" lon="7.55234">
        <ele>1255.14</ele>
        <time>2019-04-04T12:19:55Z</time>
      </trkpt>
      <trkpt lat="60.29906" lon="7.55234">
        <ele>1255.62</ele>
        <time>2019-04-04T12:19:58Z</time>
      </trkpt>
      <trkpt lat="60.29901" lon="7.55233">
        <ele>1256.1</ele>
        <time>2019-04-04T12:20:07Z</time>
      </trkpt>
      <trkpt lat="60.29901" lon="7.55232">
        <ele>1256.1</ele>
        <time>2019-04-04T12:20:31Z</time>
      </trkpt>
      <trkpt lat="60.29899" lon="7.5523">
        <ele>1256.1</ele>
        <time>2019-04-04T12:20:46Z</time>
      </trkpt>
      <trkpt lat="60.29897" lon="7.55228">
        <ele>1256.1</ele>
        <time>2019-04-04T12:21:01Z</time>
      </trkpt>
      <trkpt lat="60.29896" lon="7.55228">
        <ele>1256.1</ele>
        <time>2019-04-04T12:21:23Z</time>
      </trkpt>
      <trkpt lat="60.29893" lon="7.55224">
        <ele>1256.1</ele>
        <time>2019-04-04T12:21:37Z</time>
      </trkpt>
      <trkpt lat="60.29892" lon="7.55225">
        <ele>1256.1</ele>
        <time>2019-04-04T12:21:55Z</time>
      </trkpt>
      <trkpt lat="60.29892" lon="7.55223">
        <ele>1256.1</ele>
        <time>2019-04-04T12:22:10Z</time>
      </trkpt>
      <trkpt lat="60.29892" lon="7.55221">
        <ele>1256.58</ele>
        <time>2019-04-04T12:22:32Z</time>
      </trkpt>
      <trkpt lat="60.2989" lon="7.55219">
        <ele>1255.14</ele>
        <time>2019-04-04T12:22:51Z</time>
      </trkpt>
      <trkpt lat="60.29889" lon="7.55214">
        <ele>1254.18</ele>
        <time>2019-04-04T12:23:06Z</time>
      </trkpt>
      <trkpt lat="60.29889" lon="7.55214">
        <ele>1255.62</ele>
        <time>2019-04-04T12:23:09Z</time>
      </trkpt>
      <trkpt lat="60.29888" lon="7.55212">
        <ele>1255.62</ele>
        <time>2019-04-04T12:23:14Z</time>
      </trkpt>
      <trkpt lat="60.29879" lon="7.55185">
        <ele>1255.62</ele>
        <time>2019-04-04T12:23:18Z</time>
      </trkpt>
      <trkpt lat="60.29866" lon="7.55164">
        <ele>1255.62</ele>
        <time>2019-04-04T12:23:21Z</time>
      </trkpt>
      <trkpt lat="60.29826" lon="7.55114">
        <ele>1254.18</ele>
        <time>2019-04-04T12:23:29Z</time>
      </trkpt>
      <trkpt lat="60.29814" lon="7.55106">
        <ele>1254.18</ele>
        <time>2019-04-04T12:23:31Z</time>
      </trkpt>
      <trkpt lat="60.29782" lon="7.55094">
        <ele>1255.62</ele>
        <time>2019-04-04T12:23:36Z</time>
      </trkpt>
      <trkpt lat="60.29745" lon="7.55078">
        <ele>1257.06</ele>
        <time>2019-04-04T12:23:42Z</time>
      </trkpt>
      <trkpt lat="60.29718" lon="7.55075">
        <ele>1258.02</ele>
        <time>2019-04-04T12:23:46Z</time>
      </trkpt>
      <trkpt lat="60.29705" lon="7.55075">
        <ele>1256.58</ele>
        <time>2019-04-04T12:23:48Z</time>
      </trkpt>
      <trkpt lat="60.29673" lon="7.55082">
        <ele>1256.58</ele>
        <time>2019-04-04T12:23:53Z</time>
      </trkpt>
      <trkpt lat="60.29661" lon="7.55088">
        <ele>1257.06</ele>
        <time>2019-04-04T12:23:55Z</time>
      </trkpt>
      <trkpt lat="60.29647" lon="7.551">
        <ele>1258.5</ele>
        <time>2019-04-04T12:23:58Z</time>
      </trkpt>
      <trkpt lat="60.29608" lon="7.55144">
        <ele>1260.43</ele>
        <time>2019-04-04T12:24:06Z</time>
      </trkpt>
      <trkpt lat="60.29587" lon="7.55169">
        <ele>1258.5</ele>
        <time>2019-04-04T12:24:10Z</time>
      </trkpt>
      <trkpt lat="60.29562" lon="7.55204">
        <ele>1258.98</ele>
        <time>2019-04-04T12:24:15Z</time>
      </trkpt>
      <trkpt lat="60.29552" lon="7.55215">
        <ele>1257.54</ele>
        <time>2019-04-04T12:24:17Z</time>
      </trkpt>
      <trkpt lat="60.29542" lon="7.55227">
        <ele>1256.1</ele>
        <time>2019-04-04T12:24:19Z</time>
      </trkpt>
      <trkpt lat="60.29533" lon="7.55239">
        <ele>1258.5</ele>
        <time>2019-04-04T12:24:21Z</time>
      </trkpt>
      <trkpt lat="60.29508" lon="7.5527">
        <ele>1255.14</ele>
        <time>2019-04-04T12:24:26Z</time>
      </trkpt>
      <trkpt lat="60.29503" lon="7.55276">
        <ele>1255.62</ele>
        <time>2019-04-04T12:24:27Z</time>
      </trkpt>
      <trkpt lat="60.29493" lon="7.55289">
        <ele>1257.06</ele>
        <time>2019-04-04T12:24:29Z</time>
      </trkpt>
      <trkpt lat="60.29483" lon="7.55301">
        <ele>1257.06</ele>
        <time>2019-04-04T12:24:31Z</time>
      </trkpt>
      <trkpt lat="60.29467" lon="7.55318">
        <ele>1256.58</ele>
        <time>2019-04-04T12:24:34Z</time>
      </trkpt>
      <trkpt lat="60.29456" lon="7.55328">
        <ele>1255.62</ele>
        <time>2019-04-04T12:24:36Z</time>
      </trkpt>
      <trkpt lat="60.29424" lon="7.55362">
        <ele>1253.7</ele>
        <time>2019-04-04T12:24:42Z</time>
      </trkpt>
      <trkpt lat="60.29387" lon="7.55415">
        <ele>1251.29</ele>
        <time>2019-04-04T12:24:50Z</time>
      </trkpt>
      <trkpt lat="60.29373" lon="7.55432">
        <ele>1251.29</ele>
        <time>2019-04-04T12:24:53Z</time>
      </trkpt>
      <trkpt lat="60.29332" lon="7.555">
        <ele>1250.33</ele>
        <time>2019-04-04T12:25:03Z</time>
      </trkpt>
      <trkpt lat="60.29295" lon="7.55557">
        <ele>1247.45</ele>
        <time>2019-04-04T12:25:11Z</time>
      </trkpt>
      <trkpt lat="60.29286" lon="7.55572">
        <ele>1246.01</ele>
        <time>2019-04-04T12:25:13Z</time>
      </trkpt>
      <trkpt lat="60.29257" lon="7.55616">
        <ele>1242.64</ele>
        <time>2019-04-04T12:25:19Z</time>
      </trkpt>
      <trkpt lat="60.29252" lon="7.55624">
        <ele>1242.64</ele>
        <time>2019-04-04T12:25:20Z</time>
      </trkpt>
      <trkpt lat="60.29217" lon="7.55679">
        <ele>1241.68</ele>
        <time>2019-04-04T12:25:28Z</time>
      </trkpt>
      <trkpt lat="60.29208" lon="7.55692">
        <ele>1240.72</ele>
        <time>2019-04-04T12:25:30Z</time>
      </trkpt>
      <trkpt lat="60.29185" lon="7.55727">
        <ele>1238.8</ele>
        <time>2019-04-04T12:25:35Z</time>
      </trkpt>
      <trkpt lat="60.29175" lon="7.55743">
        <ele>1238.32</ele>
        <time>2019-04-04T12:25:37Z</time>
      </trkpt>
      <trkpt lat="60.29164" lon="7.55757">
        <ele>1237.35</ele>
        <time>2019-04-04T12:25:39Z</time>
      </trkpt>
      <trkpt lat="60.29123" lon="7.55831">
        <ele>1234.47</ele>
        <time>2019-04-04T12:25:49Z</time>
      </trkpt>
      <trkpt lat="60.29088" lon="7.55899">
        <ele>1231.59</ele>
        <time>2019-04-04T12:25:58Z</time>
      </trkpt>
      <trkpt lat="60.29085" lon="7.55906">
        <ele>1230.14</ele>
        <time>2019-04-04T12:25:59Z</time>
      </trkpt>
      <trkpt lat="60.29065" lon="7.5593">
        <ele>1228.7</ele>
        <time>2019-04-04T12:26:04Z</time>
      </trkpt>
      <trkpt lat="60.29051" lon="7.5595">
        <ele>1227.26</ele>
        <time>2019-04-04T12:26:07Z</time>
      </trkpt>
      <trkpt lat="60.29037" lon="7.55973">
        <ele>1225.82</ele>
        <time>2019-04-04T12:26:10Z</time>
      </trkpt>
      <trkpt lat="60.28997" lon="7.56025">
        <ele>1223.42</ele>
        <time>2019-04-04T12:26:17Z</time>
      </trkpt>
      <trkpt lat="60.28984" lon="7.56041">
        <ele>1222.45</ele>
        <time>2019-04-04T12:26:19Z</time>
      </trkpt>
      <trkpt lat="60.28962" lon="7.5607">
        <ele>1221.01</ele>
        <time>2019-04-04T12:26:23Z</time>
      </trkpt>
      <trkpt lat="60.28947" lon="7.56091">
        <ele>1219.57</ele>
        <time>2019-04-04T12:26:26Z</time>
      </trkpt>
      <trkpt lat="60.28899" lon="7.56146">
        <ele>1217.65</ele>
        <time>2019-04-04T12:26:34Z</time>
      </trkpt>
      <trkpt lat="60.28887" lon="7.5616">
        <ele>1218.61</ele>
        <time>2019-04-04T12:26:36Z</time>
      </trkpt>
      <trkpt lat="60.28876" lon="7.56171">
        <ele>1216.69</ele>
        <time>2019-04-04T12:26:38Z</time>
      </trkpt>
      <trkpt lat="60.28859" lon="7.56185">
        <ele>1216.69</ele>
        <time>2019-04-04T12:26:41Z</time>
      </trkpt>
      <trkpt lat="60.28847" lon="7.56194">
        <ele>1215.72</ele>
        <time>2019-04-04T12:26:43Z</time>
      </trkpt>
      <trkpt lat="60.288" lon="7.56245">
        <ele>1210.92</ele>
        <time>2019-04-04T12:26:52Z</time>
      </trkpt>
      <trkpt lat="60.28796" lon="7.56251">
        <ele>1210.92</ele>
        <time>2019-04-04T12:26:53Z</time>
      </trkpt>
      <trkpt lat="60.28787" lon="7.56263">
        <ele>1210.44</ele>
        <time>2019-04-04T12:26:55Z</time>
      </trkpt>
      <trkpt lat="60.28748" lon="7.56306">
        <ele>1209</ele>
        <time>2019-04-04T12:27:06Z</time>
      </trkpt>
      <trkpt lat="60.28743" lon="7.56313">
        <ele>1209</ele>
        <time>2019-04-04T12:27:08Z</time>
      </trkpt>
      <trkpt lat="60.28733" lon="7.56329">
        <ele>1208.51</ele>
        <time>2019-04-04T12:27:11Z</time>
      </trkpt>
      <trkpt lat="60.28711" lon="7.56361">
        <ele>1209</ele>
        <time>2019-04-04T12:27:16Z</time>
      </trkpt>
      <trkpt lat="60.28664" lon="7.56418">
        <ele>1206.59</ele>
        <time>2019-04-04T12:27:26Z</time>
      </trkpt>
      <trkpt lat="60.28639" lon="7.56442">
        <ele>1207.07</ele>
        <time>2019-04-04T12:27:31Z</time>
      </trkpt>
      <trkpt lat="60.28605" lon="7.56464">
        <ele>1209</ele>
        <time>2019-04-04T12:27:37Z</time>
      </trkpt>
      <trkpt lat="60.28578" lon="7.56478">
        <ele>1208.03</ele>
        <time>2019-04-04T12:27:41Z</time>
      </trkpt>
      <trkpt lat="60.28549" lon="7.56485">
        <ele>1208.03</ele>
        <time>2019-04-04T12:27:45Z</time>
      </trkpt>
      <trkpt lat="60.285" lon="7.5651">
        <ele>1207.55</ele>
        <time>2019-04-04T12:27:53Z</time>
      </trkpt>
      <trkpt lat="60.28462" lon="7.56538">
        <ele>1208.51</ele>
        <time>2019-04-04T12:27:59Z</time>
      </trkpt>
      <trkpt lat="60.28407" lon="7.56576">
        <ele>1209</ele>
        <time>2019-04-04T12:28:08Z</time>
      </trkpt>
      <trkpt lat="60.28401" lon="7.56582">
        <ele>1209.96</ele>
        <time>2019-04-04T12:28:09Z</time>
      </trkpt>
      <trkpt lat="60.28386" lon="7.56595">
        <ele>1208.51</ele>
        <time>2019-04-04T12:28:12Z</time>
      </trkpt>
      <trkpt lat="60.28342" lon="7.56624">
        <ele>1208.51</ele>
        <time>2019-04-04T12:28:20Z</time>
      </trkpt>
      <trkpt lat="60.28324" lon="7.5664">
        <ele>1206.11</ele>
        <time>2019-04-04T12:28:24Z</time>
      </trkpt>
      <trkpt lat="60.28309" lon="7.56647">
        <ele>1207.55</ele>
        <time>2019-04-04T12:28:27Z</time>
      </trkpt>
      <trkpt lat="60.283" lon="7.56656">
        <ele>1208.03</ele>
        <time>2019-04-04T12:28:29Z</time>
      </trkpt>
      <trkpt lat="60.2829" lon="7.56662">
        <ele>1208.03</ele>
        <time>2019-04-04T12:28:31Z</time>
      </trkpt>
      <trkpt lat="60.28275" lon="7.56674">
        <ele>1208.03</ele>
        <time>2019-04-04T12:28:34Z</time>
      </trkpt>
      <trkpt lat="60.28255" lon="7.56709">
        <ele>1208.03</ele>
        <time>2019-04-04T12:28:42Z</time>
      </trkpt>
      <trkpt lat="60.28254" lon="7.56708">
        <ele>1208.03</ele>
        <time>2019-04-04T12:28:52Z</time>
      </trkpt>
      <trkpt lat="60.28255" lon="7.56707">
        <ele>1208.03</ele>
        <time>2019-04-04T12:29:18Z</time>
      </trkpt>
      <trkpt lat="60.28253" lon="7.56709">
        <ele>1208.03</ele>
        <time>2019-04-04T12:29:20Z</time>
      </trkpt>
      <trkpt lat="60.28249" lon="7.56716">
        <ele>1206.59</ele>
        <time>2019-04-04T12:29:29Z</time>
      </trkpt>
      <trkpt lat="60.28241" lon="7.56726">
        <ele>1208.03</ele>
        <time>2019-04-04T12:29:36Z</time>
      </trkpt>
      <trkpt lat="60.28239" lon="7.56724">
        <ele>1208.03</ele>
        <time>2019-04-04T12:29:47Z</time>
      </trkpt>
      <trkpt lat="60.28239" lon="7.56722">
        <ele>1208.03</ele>
        <time>2019-04-04T12:30:14Z</time>
      </trkpt>
      <trkpt lat="60.28238" lon="7.56721">
        <ele>1208.03</ele>
        <time>2019-04-04T12:30:36Z</time>
      </trkpt>
      <trkpt lat="60.28235" lon="7.56722">
        <ele>1206.59</ele>
        <time>2019-04-04T12:30:52Z</time>
      </trkpt>
      <trkpt lat="60.28235" lon="7.56722">
        <ele>1206.59</ele>
        <time>2019-04-04T12:30:53Z</time>
      </trkpt>
      <trkpt lat="60.28235" lon="7.56722">
        <ele>1206.59</ele>
        <time>2019-04-04T12:30:56Z</time>
      </trkpt>
      <trkpt lat="60.28229" lon="7.56721">
        <ele>1206.59</ele>
        <time>2019-04-04T12:31:08Z</time>
      </trkpt>
      <trkpt lat="60.28227" lon="7.5672">
        <ele>1206.59</ele>
        <time>2019-04-04T12:31:22Z</time>
      </trkpt>
      <trkpt lat="60.28226" lon="7.56717">
        <ele>1206.59</ele>
        <time>2019-04-04T12:31:37Z</time>
      </trkpt>
      <trkpt lat="60.28225" lon="7.56715">
        <ele>1207.07</ele>
        <time>2019-04-04T12:32:00Z</time>
      </trkpt>
      <trkpt lat="60.28223" lon="7.56714">
        <ele>1206.59</ele>
        <time>2019-04-04T12:32:13Z</time>
      </trkpt>
      <trkpt lat="60.28223" lon="7.56714">
        <ele>1206.59</ele>
        <time>2019-04-04T12:32:29Z</time>
      </trkpt>
      <trkpt lat="60.28223" lon="7.56715">
        <ele>1207.55</ele>
        <time>2019-04-04T12:32:55Z</time>
      </trkpt>
      <trkpt lat="60.28223" lon="7.56715">
        <ele>1207.55</ele>
        <time>2019-04-04T12:33:11Z</time>
      </trkpt>
      <trkpt lat="60.28208" lon="7.56727">
        <ele>1207.55</ele>
        <time>2019-04-04T12:33:17Z</time>
      </trkpt>
      <trkpt lat="60.28182" lon="7.5671">
        <ele>1208.03</ele>
        <time>2019-04-04T12:33:22Z</time>
      </trkpt>
      <trkpt lat="60.28113" lon="7.56708">
        <ele>1209</ele>
        <time>2019-04-04T12:33:33Z</time>
      </trkpt>
      <trkpt lat="60.28044" lon="7.5672">
        <ele>1207.07</ele>
        <time>2019-04-04T12:33:43Z</time>
      </trkpt>
      <trkpt lat="60.27992" lon="7.56732">
        <ele>1207.07</ele>
        <time>2019-04-04T12:33:51Z</time>
      </trkpt>
      <trkpt lat="60.27968" lon="7.56737">
        <ele>1207.07</ele>
        <time>2019-04-04T12:33:55Z</time>
      </trkpt>
      <trkpt lat="60.27895" lon="7.56743">
        <ele>1209</ele>
        <time>2019-04-04T12:34:05Z</time>
      </trkpt>
      <trkpt lat="60.27887" lon="7.56743">
        <ele>1209</ele>
        <time>2019-04-04T12:34:06Z</time>
      </trkpt>
      <trkpt lat="60.27829" lon="7.56751">
        <ele>1208.51</ele>
        <time>2019-04-04T12:34:14Z</time>
      </trkpt>
      <trkpt lat="60.27806" lon="7.56753">
        <ele>1208.51</ele>
        <time>2019-04-04T12:34:17Z</time>
      </trkpt>
      <trkpt lat="60.27718" lon="7.56751">
        <ele>1208.51</ele>
        <time>2019-04-04T12:34:28Z</time>
      </trkpt>
      <trkpt lat="60.27681" lon="7.5675">
        <ele>1208.51</ele>
        <time>2019-04-04T12:34:33Z</time>
      </trkpt>
      <trkpt lat="60.27668" lon="7.56752">
        <ele>1208.51</ele>
        <time>2019-04-04T12:34:35Z</time>
      </trkpt>
      <trkpt lat="60.2762" lon="7.56761">
        <ele>1208.51</ele>
        <time>2019-04-04T12:34:42Z</time>
      </trkpt>
      <trkpt lat="60.27546" lon="7.56767">
        <ele>1208.51</ele>
        <time>2019-04-04T12:34:52Z</time>
      </trkpt>
      <trkpt lat="60.27478" lon="7.56777">
        <ele>1209.48</ele>
        <time>2019-04-04T12:35:01Z</time>
      </trkpt>
      <trkpt lat="60.27464" lon="7.56776">
        <ele>1207.07</ele>
        <time>2019-04-04T12:35:03Z</time>
      </trkpt>
      <trkpt lat="60.27399" lon="7.56777">
        <ele>1206.59</ele>
        <time>2019-04-04T12:35:14Z</time>
      </trkpt>
      <trkpt lat="60.27387" lon="7.56775">
        <ele>1208.51</ele>
        <time>2019-04-04T12:35:16Z</time>
      </trkpt>
      <trkpt lat="60.27381" lon="7.56775">
        <ele>1208.51</ele>
        <time>2019-04-04T12:35:17Z</time>
      </trkpt>
      <trkpt lat="60.27352" lon="7.56771">
        <ele>1208.51</ele>
        <time>2019-04-04T12:35:22Z</time>
      </trkpt>
      <trkpt lat="60.27306" lon="7.56767">
        <ele>1207.07</ele>
        <time>2019-04-04T12:35:29Z</time>
      </trkpt>
      <trkpt lat="60.27279" lon="7.56763">
        <ele>1207.07</ele>
        <time>2019-04-04T12:35:33Z</time>
      </trkpt>
      <trkpt lat="60.27223" lon="7.56775">
        <ele>1207.07</ele>
        <time>2019-04-04T12:35:42Z</time>
      </trkpt>
      <trkpt lat="60.272" lon="7.56772">
        <ele>1207.07</ele>
        <time>2019-04-04T12:35:46Z</time>
      </trkpt>
      <trkpt lat="60.27178" lon="7.56773">
        <ele>1207.07</ele>
        <time>2019-04-04T12:35:50Z</time>
      </trkpt>
      <trkpt lat="60.27168" lon="7.56773">
        <ele>1207.07</ele>
        <time>2019-04-04T12:35:52Z</time>
      </trkpt>
      <trkpt lat="60.27147" lon="7.56774">
        <ele>1209</ele>
        <time>2019-04-04T12:35:56Z</time>
      </trkpt>
      <trkpt lat="60.27124" lon="7.5677">
        <ele>1210.44</ele>
        <time>2019-04-04T12:36:01Z</time>
      </trkpt>
      <trkpt lat="60.27107" lon="7.56772">
        <ele>1212.36</ele>
        <time>2019-04-04T12:36:05Z</time>
      </trkpt>
      <trkpt lat="60.27103" lon="7.56771">
        <ele>1212.36</ele>
        <time>2019-04-04T12:36:06Z</time>
      </trkpt>
      <trkpt lat="60.2708" lon="7.56761">
        <ele>1214.28</ele>
        <time>2019-04-04T12:36:17Z</time>
      </trkpt>
      <trkpt lat="60.27065" lon="7.56756">
        <ele>1212.84</ele>
        <time>2019-04-04T12:36:24Z</time>
      </trkpt>
      <trkpt lat="60.27042" lon="7.56747">
        <ele>1210.92</ele>
        <time>2019-04-04T12:36:29Z</time>
      </trkpt>
      <trkpt lat="60.27037" lon="7.56746">
        <ele>1210.92</ele>
        <time>2019-04-04T12:36:30Z</time>
      </trkpt>
      <trkpt lat="60.27019" lon="7.56744">
        <ele>1209.96</ele>
        <time>2019-04-04T12:36:33Z</time>
      </trkpt>
      <trkpt lat="60.2699" lon="7.56732">
        <ele>1211.4</ele>
        <time>2019-04-04T12:36:38Z</time>
      </trkpt>
      <trkpt lat="60.26978" lon="7.56726">
        <ele>1211.4</ele>
        <time>2019-04-04T12:36:40Z</time>
      </trkpt>
      <trkpt lat="60.26968" lon="7.56717">
        <ele>1212.36</ele>
        <time>2019-04-04T12:36:42Z</time>
      </trkpt>
      <trkpt lat="60.26963" lon="7.56714">
        <ele>1212.36</ele>
        <time>2019-04-04T12:36:43Z</time>
      </trkpt>
      <trkpt lat="60.26951" lon="7.56708">
        <ele>1212.84</ele>
        <time>2019-04-04T12:36:45Z</time>
      </trkpt>
      <trkpt lat="60.26939" lon="7.56699">
        <ele>1212.84</ele>
        <time>2019-04-04T12:36:47Z</time>
      </trkpt>
      <trkpt lat="60.26908" lon="7.56687">
        <ele>1213.8</ele>
        <time>2019-04-04T12:36:52Z</time>
      </trkpt>
      <trkpt lat="60.26886" lon="7.56687">
        <ele>1214.28</ele>
        <time>2019-04-04T12:36:56Z</time>
      </trkpt>
      <trkpt lat="60.26864" lon="7.56682">
        <ele>1216.21</ele>
        <time>2019-04-04T12:37:01Z</time>
      </trkpt>
      <trkpt lat="60.2685" lon="7.56683">
        <ele>1217.65</ele>
        <time>2019-04-04T12:37:04Z</time>
      </trkpt>
      <trkpt lat="60.26817" lon="7.56684">
        <ele>1219.09</ele>
        <time>2019-04-04T12:37:11Z</time>
      </trkpt>
      <trkpt lat="60.26784" lon="7.56688">
        <ele>1220.05</ele>
        <time>2019-04-04T12:37:17Z</time>
      </trkpt>
      <trkpt lat="60.26778" lon="7.56687">
        <ele>1220.05</ele>
        <time>2019-04-04T12:37:18Z</time>
      </trkpt>
      <trkpt lat="60.26761" lon="7.56683">
        <ele>1221.49</ele>
        <time>2019-04-04T12:37:21Z</time>
      </trkpt>
      <trkpt lat="60.26735" lon="7.56688">
        <ele>1221.97</ele>
        <time>2019-04-04T12:37:26Z</time>
      </trkpt>
      <trkpt lat="60.26722" lon="7.56689">
        <ele>1222.93</ele>
        <time>2019-04-04T12:37:29Z</time>
      </trkpt>
      <trkpt lat="60.26699" lon="7.56665">
        <ele>1225.82</ele>
        <time>2019-04-04T12:37:35Z</time>
      </trkpt>
      <trkpt lat="60.26694" lon="7.56662">
        <ele>1225.82</ele>
        <time>2019-04-04T12:37:36Z</time>
      </trkpt>
      <trkpt lat="60.2667" lon="7.56652">
        <ele>1228.22</ele>
        <time>2019-04-04T12:37:41Z</time>
      </trkpt>
      <trkpt lat="60.2666" lon="7.56653">
        <ele>1229.18</ele>
        <time>2019-04-04T12:37:43Z</time>
      </trkpt>
      <trkpt lat="60.26634" lon="7.56653">
        <ele>1231.11</ele>
        <time>2019-04-04T12:37:48Z</time>
      </trkpt>
      <trkpt lat="60.26627" lon="7.56641">
        <ele>1232.07</ele>
        <time>2019-04-04T12:37:53Z</time>
      </trkpt>
      <trkpt lat="60.26626" lon="7.56637">
        <ele>1232.07</ele>
        <time>2019-04-04T12:38:05Z</time>
      </trkpt>
      <trkpt lat="60.26626" lon="7.56636">
        <ele>1232.07</ele>
        <time>2019-04-04T12:38:26Z</time>
      </trkpt>
      <trkpt lat="60.26611" lon="7.56605">
        <ele>1232.55</ele>
        <time>2019-04-04T12:38:32Z</time>
      </trkpt>
      <trkpt lat="60.26593" lon="7.56583">
        <ele>1233.51</ele>
        <time>2019-04-04T12:38:37Z</time>
      </trkpt>
      <trkpt lat="60.26573" lon="7.56577">
        <ele>1233.51</ele>
        <time>2019-04-04T12:38:42Z</time>
      </trkpt>
      <trkpt lat="60.2656" lon="7.56571">
        <ele>1233.51</ele>
        <time>2019-04-04T12:38:47Z</time>
      </trkpt>
      <trkpt lat="60.26545" lon="7.56562">
        <ele>1233.99</ele>
        <time>2019-04-04T12:38:53Z</time>
      </trkpt>
      <trkpt lat="60.2653" lon="7.56559">
        <ele>1233.99</ele>
        <time>2019-04-04T12:38:59Z</time>
      </trkpt>
      <trkpt lat="60.2652" lon="7.56569">
        <ele>1235.43</ele>
        <time>2019-04-04T12:39:02Z</time>
      </trkpt>
      <trkpt lat="60.26504" lon="7.56584">
        <ele>1235.43</ele>
        <time>2019-04-04T12:39:08Z</time>
      </trkpt>
      <trkpt lat="60.2649" lon="7.56598">
        <ele>1235.91</ele>
        <time>2019-04-04T12:39:13Z</time>
      </trkpt>
      <trkpt lat="60.26468" lon="7.56607">
        <ele>1235.91</ele>
        <time>2019-04-04T12:39:20Z</time>
      </trkpt>
      <trkpt lat="60.26441" lon="7.56611">
        <ele>1236.39</ele>
        <time>2019-04-04T12:39:27Z</time>
      </trkpt>
      <trkpt lat="60.26433" lon="7.56614">
        <ele>1237.35</ele>
        <time>2019-04-04T12:39:29Z</time>
      </trkpt>
      <trkpt lat="60.26424" lon="7.56616">
        <ele>1237.35</ele>
        <time>2019-04-04T12:39:31Z</time>
      </trkpt>
      <trkpt lat="60.26396" lon="7.56621">
        <ele>1237.35</ele>
        <time>2019-04-04T12:39:39Z</time>
      </trkpt>
      <trkpt lat="60.2639" lon="7.56618">
        <ele>1237.35</ele>
        <time>2019-04-04T12:39:41Z</time>
      </trkpt>
      <trkpt lat="60.2637" lon="7.5662">
        <ele>1237.83</ele>
        <time>2019-04-04T12:39:47Z</time>
      </trkpt>
      <trkpt lat="60.26354" lon="7.56622">
        <ele>1236.39</ele>
        <time>2019-04-04T12:39:54Z</time>
      </trkpt>
      <trkpt lat="60.26354" lon="7.56621">
        <ele>1236.39</ele>
        <time>2019-04-04T12:40:01Z</time>
      </trkpt>
      <trkpt lat="60.26344" lon="7.56599">
        <ele>1236.39</ele>
        <time>2019-04-04T12:40:06Z</time>
      </trkpt>
      <trkpt lat="60.26341" lon="7.56595">
        <ele>1236.39</ele>
        <time>2019-04-04T12:40:07Z</time>
      </trkpt>
      <trkpt lat="60.26334" lon="7.56589">
        <ele>1236.39</ele>
        <time>2019-04-04T12:40:09Z</time>
      </trkpt>
      <trkpt lat="60.26313" lon="7.5655">
        <ele>1237.83</ele>
        <time>2019-04-04T12:40:15Z</time>
      </trkpt>
      <trkpt lat="60.26308" lon="7.56546">
        <ele>1237.83</ele>
        <time>2019-04-04T12:40:16Z</time>
      </trkpt>
      <trkpt lat="60.26274" lon="7.56507">
        <ele>1238.32</ele>
        <time>2019-04-04T12:40:24Z</time>
      </trkpt>
      <trkpt lat="60.2626" lon="7.56478">
        <ele>1238.8</ele>
        <time>2019-04-04T12:40:29Z</time>
      </trkpt>
      <trkpt lat="60.2624" lon="7.56463">
        <ele>1238.8</ele>
        <time>2019-04-04T12:40:38Z</time>
      </trkpt>
      <trkpt lat="60.26236" lon="7.56459">
        <ele>1238.8</ele>
        <time>2019-04-04T12:40:43Z</time>
      </trkpt>
      <trkpt lat="60.26227" lon="7.56451">
        <ele>1237.35</ele>
        <time>2019-04-04T12:40:47Z</time>
      </trkpt>
      <trkpt lat="60.26214" lon="7.56443">
        <ele>1237.35</ele>
        <time>2019-04-04T12:40:52Z</time>
      </trkpt>
      <trkpt lat="60.26204" lon="7.56431">
        <ele>1237.35</ele>
        <time>2019-04-04T12:40:55Z</time>
      </trkpt>
      <trkpt lat="60.26174" lon="7.56425">
        <ele>1237.35</ele>
        <time>2019-04-04T12:41:01Z</time>
      </trkpt>
      <trkpt lat="60.26155" lon="7.5643">
        <ele>1235.91</ele>
        <time>2019-04-04T12:41:05Z</time>
      </trkpt>
      <trkpt lat="60.26127" lon="7.56448">
        <ele>1233.99</ele>
        <time>2019-04-04T12:41:11Z</time>
      </trkpt>
      <trkpt lat="60.26097" lon="7.56468">
        <ele>1231.11</ele>
        <time>2019-04-04T12:41:16Z</time>
      </trkpt>
      <trkpt lat="60.26076" lon="7.56478">
        <ele>1229.66</ele>
        <time>2019-04-04T12:41:19Z</time>
      </trkpt>
      <trkpt lat="60.26041" lon="7.56494">
        <ele>1226.3</ele>
        <time>2019-04-04T12:41:24Z</time>
      </trkpt>
      <trkpt lat="60.26004" lon="7.56514">
        <ele>1222.45</ele>
        <time>2019-04-04T12:41:29Z</time>
      </trkpt>
      <trkpt lat="60.25974" lon="7.5653">
        <ele>1220.53</ele>
        <time>2019-04-04T12:41:33Z</time>
      </trkpt>
      <trkpt lat="60.25915" lon="7.56573">
        <ele>1218.13</ele>
        <time>2019-04-04T12:41:42Z</time>
      </trkpt>
      <trkpt lat="60.25892" lon="7.56606">
        <ele>1218.13</ele>
        <time>2019-04-04T12:41:48Z</time>
      </trkpt>
      <trkpt lat="60.25879" lon="7.5662">
        <ele>1218.13</ele>
        <time>2019-04-04T12:41:51Z</time>
      </trkpt>
      <trkpt lat="60.25847" lon="7.56648">
        <ele>1216.69</ele>
        <time>2019-04-04T12:41:59Z</time>
      </trkpt>
      <trkpt lat="60.2583" lon="7.56644">
        <ele>1216.21</ele>
        <time>2019-04-04T12:42:04Z</time>
      </trkpt>
      <trkpt lat="60.25805" lon="7.56637">
        <ele>1216.21</ele>
        <time>2019-04-04T12:42:12Z</time>
      </trkpt>
      <trkpt lat="60.25787" lon="7.56625">
        <ele>1216.69</ele>
        <time>2019-04-04T12:42:18Z</time>
      </trkpt>
      <trkpt lat="60.25774" lon="7.56622">
        <ele>1216.21</ele>
        <time>2019-04-04T12:42:22Z</time>
      </trkpt>
      <trkpt lat="60.25749" lon="7.56603">
        <ele>1216.21</ele>
        <time>2019-04-04T12:42:29Z</time>
      </trkpt>
      <trkpt lat="60.25739" lon="7.56607">
        <ele>1217.65</ele>
        <time>2019-04-04T12:42:32Z</time>
      </trkpt>
      <trkpt lat="60.25724" lon="7.56588">
        <ele>1218.13</ele>
        <time>2019-04-04T12:42:39Z</time>
      </trkpt>
      <trkpt lat="60.25718" lon="7.56582">
        <ele>1218.61</ele>
        <time>2019-04-04T12:42:43Z</time>
      </trkpt>
      <trkpt lat="60.25708" lon="7.56561">
        <ele>1219.57</ele>
        <time>2019-04-04T12:42:48Z</time>
      </trkpt>
      <trkpt lat="60.25707" lon="7.56557">
        <ele>1219.57</ele>
        <time>2019-04-04T12:43:00Z</time>
      </trkpt>
      <trkpt lat="60.25707" lon="7.56558">
        <ele>1219.57</ele>
        <time>2019-04-04T12:43:25Z</time>
      </trkpt>
      <trkpt lat="60.25706" lon="7.56548">
        <ele>1219.57</ele>
        <time>2019-04-04T12:43:36Z</time>
      </trkpt>
      <trkpt lat="60.25706" lon="7.56544">
        <ele>1219.57</ele>
        <time>2019-04-04T12:43:47Z</time>
      </trkpt>
      <trkpt lat="60.25706" lon="7.56544">
        <ele>1220.05</ele>
        <time>2019-04-04T12:43:55Z</time>
      </trkpt>
      <trkpt lat="60.25706" lon="7.56542">
        <ele>1220.53</ele>
        <time>2019-04-04T12:44:15Z</time>
      </trkpt>
      <trkpt lat="60.25702" lon="7.56544">
        <ele>1219.09</ele>
        <time>2019-04-04T12:44:17Z</time>
      </trkpt>
      <trkpt lat="60.25694" lon="7.56554">
        <ele>1219.09</ele>
        <time>2019-04-04T12:44:22Z</time>
      </trkpt>
      <trkpt lat="60.25674" lon="7.56554">
        <ele>1219.09</ele>
        <time>2019-04-04T12:44:27Z</time>
      </trkpt>
      <trkpt lat="60.25657" lon="7.56575">
        <ele>1219.09</ele>
        <time>2019-04-04T12:44:33Z</time>
      </trkpt>
      <trkpt lat="60.25634" lon="7.56568">
        <ele>1220.05</ele>
        <time>2019-04-04T12:44:39Z</time>
      </trkpt>
      <trkpt lat="60.25606" lon="7.56578">
        <ele>1221.49</ele>
        <time>2019-04-04T12:44:46Z</time>
      </trkpt>
      <trkpt lat="60.25589" lon="7.56572">
        <ele>1221.97</ele>
        <time>2019-04-04T12:44:51Z</time>
      </trkpt>
      <trkpt lat="60.25577" lon="7.56569">
        <ele>1222.45</ele>
        <time>2019-04-04T12:44:55Z</time>
      </trkpt>
      <trkpt lat="60.25563" lon="7.56579">
        <ele>1222.45</ele>
        <time>2019-04-04T12:45:00Z</time>
      </trkpt>
      <trkpt lat="60.25539" lon="7.56578">
        <ele>1223.42</ele>
        <time>2019-04-04T12:45:08Z</time>
      </trkpt>
      <trkpt lat="60.25536" lon="7.56579">
        <ele>1223.42</ele>
        <time>2019-04-04T12:45:09Z</time>
      </trkpt>
      <trkpt lat="60.25517" lon="7.56568">
        <ele>1223.42</ele>
        <time>2019-04-04T12:45:14Z</time>
      </trkpt>
      <trkpt lat="60.25501" lon="7.5656">
        <ele>1223.42</ele>
        <time>2019-04-04T12:45:18Z</time>
      </trkpt>
      <trkpt lat="60.25483" lon="7.5657">
        <ele>1221.97</ele>
        <time>2019-04-04T12:45:22Z</time>
      </trkpt>
      <trkpt lat="60.25477" lon="7.56571">
        <ele>1221.97</ele>
        <time>2019-04-04T12:45:24Z</time>
      </trkpt>
      <trkpt lat="60.25472" lon="7.5657">
        <ele>1221.97</ele>
        <time>2019-04-04T12:45:26Z</time>
      </trkpt>
      <trkpt lat="60.25455" lon="7.56575">
        <ele>1222.93</ele>
        <time>2019-04-04T12:45:30Z</time>
      </trkpt>
      <trkpt lat="60.25447" lon="7.56576">
        <ele>1222.93</ele>
        <time>2019-04-04T12:45:32Z</time>
      </trkpt>
      <trkpt lat="60.25416" lon="7.56585">
        <ele>1222.93</ele>
        <time>2019-04-04T12:45:39Z</time>
      </trkpt>
      <trkpt lat="60.25412" lon="7.56588">
        <ele>1222.93</ele>
        <time>2019-04-04T12:45:40Z</time>
      </trkpt>
      <trkpt lat="60.25391" lon="7.56606">
        <ele>1222.93</ele>
        <time>2019-04-04T12:45:45Z</time>
      </trkpt>
      <trkpt lat="60.25366" lon="7.56615">
        <ele>1222.93</ele>
        <time>2019-04-04T12:45:50Z</time>
      </trkpt>
      <trkpt lat="60.25344" lon="7.56615">
        <ele>1222.93</ele>
        <time>2019-04-04T12:45:54Z</time>
      </trkpt>
      <trkpt lat="60.25319" lon="7.56611">
        <ele>1223.42</ele>
        <time>2019-04-04T12:45:58Z</time>
      </trkpt>
      <trkpt lat="60.25293" lon="7.56608">
        <ele>1223.42</ele>
        <time>2019-04-04T12:46:02Z</time>
      </trkpt>
      <trkpt lat="60.25269" lon="7.5662">
        <ele>1221.97</ele>
        <time>2019-04-04T12:46:06Z</time>
      </trkpt>
      <trkpt lat="60.25264" lon="7.56625">
        <ele>1221.97</ele>
        <time>2019-04-04T12:46:07Z</time>
      </trkpt>
      <trkpt lat="60.25218" lon="7.56663">
        <ele>1223.42</ele>
        <time>2019-04-04T12:46:17Z</time>
      </trkpt>
      <trkpt lat="60.25214" lon="7.56665">
        <ele>1223.42</ele>
        <time>2019-04-04T12:46:18Z</time>
      </trkpt>
      <trkpt lat="60.25179" lon="7.56698">
        <ele>1220.53</ele>
        <time>2019-04-04T12:46:25Z</time>
      </trkpt>
      <trkpt lat="60.25152" lon="7.56725">
        <ele>1217.17</ele>
        <time>2019-04-04T12:46:29Z</time>
      </trkpt>
      <trkpt lat="60.25139" lon="7.56737">
        <ele>1216.21</ele>
        <time>2019-04-04T12:46:31Z</time>
      </trkpt>
      <trkpt lat="60.25116" lon="7.56762">
        <ele>1214.28</ele>
        <time>2019-04-04T12:46:35Z</time>
      </trkpt>
      <trkpt lat="60.25059" lon="7.56805">
        <ele>1213.8</ele>
        <time>2019-04-04T12:46:45Z</time>
      </trkpt>
      <trkpt lat="60.25011" lon="7.5684">
        <ele>1213.8</ele>
        <time>2019-04-04T12:46:54Z</time>
      </trkpt>
      <trkpt lat="60.25007" lon="7.56841">
        <ele>1215.24</ele>
        <time>2019-04-04T12:46:55Z</time>
      </trkpt>
      <trkpt lat="60.25003" lon="7.56842">
        <ele>1215.24</ele>
        <time>2019-04-04T12:46:56Z</time>
      </trkpt>
      <trkpt lat="60.25" lon="7.56843">
        <ele>1215.24</ele>
        <time>2019-04-04T12:46:57Z</time>
      </trkpt>
      <trkpt lat="60.24996" lon="7.56844">
        <ele>1215.72</ele>
        <time>2019-04-04T12:46:58Z</time>
      </trkpt>
      <trkpt lat="60.24993" lon="7.56846">
        <ele>1215.72</ele>
        <time>2019-04-04T12:46:59Z</time>
      </trkpt>
      <trkpt lat="60.2499" lon="7.56849">
        <ele>1217.17</ele>
        <time>2019-04-04T12:47:00Z</time>
      </trkpt>
      <trkpt lat="60.24987" lon="7.56852">
        <ele>1217.17</ele>
        <time>2019-04-04T12:47:01Z</time>
      </trkpt>
      <trkpt lat="60.24983" lon="7.56851">
        <ele>1217.17</ele>
        <time>2019-04-04T12:47:02Z</time>
      </trkpt>
      <trkpt lat="60.24976" lon="7.56847">
        <ele>1217.65</ele>
        <time>2019-04-04T12:47:04Z</time>
      </trkpt>
      <trkpt lat="60.24973" lon="7.56846">
        <ele>1217.65</ele>
        <time>2019-04-04T12:47:05Z</time>
      </trkpt>
      <trkpt lat="60.24969" lon="7.56847">
        <ele>1217.65</ele>
        <time>2019-04-04T12:47:06Z</time>
      </trkpt>
      <trkpt lat="60.2496" lon="7.56849">
        <ele>1217.65</ele>
        <time>2019-04-04T12:47:08Z</time>
      </trkpt>
      <trkpt lat="60.24939" lon="7.56856">
        <ele>1214.76</ele>
        <time>2019-04-04T12:47:12Z</time>
      </trkpt>
      <trkpt lat="60.24928" lon="7.56861">
        <ele>1214.28</ele>
        <time>2019-04-04T12:47:14Z</time>
      </trkpt>
      <trkpt lat="60.24891" lon="7.56899">
        <ele>1212.36</ele>
        <time>2019-04-04T12:47:21Z</time>
      </trkpt>
      <trkpt lat="60.24869" lon="7.56921">
        <ele>1211.88</ele>
        <time>2019-04-04T12:47:25Z</time>
      </trkpt>
      <trkpt lat="60.2484" lon="7.56956">
        <ele>1211.88</ele>
        <time>2019-04-04T12:47:31Z</time>
      </trkpt>
      <trkpt lat="60.24799" lon="7.57006">
        <ele>1211.4</ele>
        <time>2019-04-04T12:47:40Z</time>
      </trkpt>
      <trkpt lat="60.2475" lon="7.57067">
        <ele>1211.4</ele>
        <time>2019-04-04T12:47:53Z</time>
      </trkpt>
      <trkpt lat="60.24723" lon="7.57101">
        <ele>1211.4</ele>
        <time>2019-04-04T12:48:02Z</time>
      </trkpt>
      <trkpt lat="60.24702" lon="7.57124">
        <ele>1211.4</ele>
        <time>2019-04-04T12:48:10Z</time>
      </trkpt>
      <trkpt lat="60.24662" lon="7.57184">
        <ele>1210.92</ele>
        <time>2019-04-04T12:48:21Z</time>
      </trkpt>
      <trkpt lat="60.24649" lon="7.57209">
        <ele>1210.92</ele>
        <time>2019-04-04T12:48:25Z</time>
      </trkpt>
      <trkpt lat="60.24608" lon="7.57264">
        <ele>1209.96</ele>
        <time>2019-04-04T12:48:37Z</time>
      </trkpt>
      <trkpt lat="60.24591" lon="7.57282">
        <ele>1211.88</ele>
        <time>2019-04-04T12:48:43Z</time>
      </trkpt>
      <trkpt lat="60.24588" lon="7.57284">
        <ele>1212.36</ele>
        <time>2019-04-04T12:48:52Z</time>
      </trkpt>
      <trkpt lat="60.24588" lon="7.57285">
        <ele>1212.36</ele>
        <time>2019-04-04T12:49:16Z</time>
      </trkpt>
      <trkpt lat="60.24587" lon="7.57286">
        <ele>1211.4</ele>
        <time>2019-04-04T12:49:20Z</time>
      </trkpt>
      <trkpt lat="60.24585" lon="7.57285">
        <ele>1211.4</ele>
        <time>2019-04-04T12:49:35Z</time>
      </trkpt>
      <trkpt lat="60.24584" lon="7.57285">
        <ele>1211.4</ele>
        <time>2019-04-04T12:49:50Z</time>
      </trkpt>
      <trkpt lat="60.24583" lon="7.57286">
        <ele>1211.4</ele>
        <time>2019-04-04T12:50:11Z</time>
      </trkpt>
      <trkpt lat="60.24582" lon="7.57286">
        <ele>1211.4</ele>
        <time>2019-04-04T12:50:27Z</time>
      </trkpt>
      <trkpt lat="60.24581" lon="7.57285">
        <ele>1211.4</ele>
        <time>2019-04-04T12:50:46Z</time>
      </trkpt>
      <trkpt lat="60.24581" lon="7.57286">
        <ele>1211.4</ele>
        <time>2019-04-04T12:51:05Z</time>
      </trkpt>
      <trkpt lat="60.2458" lon="7.57285">
        <ele>1211.4</ele>
        <time>2019-04-04T12:51:21Z</time>
      </trkpt>
      <trkpt lat="60.2458" lon="7.57285">
        <ele>1211.4</ele>
        <time>2019-04-04T12:51:41Z</time>
      </trkpt>
      <trkpt lat="60.2458" lon="7.57286">
        <ele>1211.4</ele>
        <time>2019-04-04T12:51:59Z</time>
      </trkpt>
      <trkpt lat="60.24576" lon="7.5729">
        <ele>1211.4</ele>
        <time>2019-04-04T12:52:05Z</time>
      </trkpt>
      <trkpt lat="60.24563" lon="7.57314">
        <ele>1210.92</ele>
        <time>2019-04-04T12:52:12Z</time>
      </trkpt>
      <trkpt lat="60.24551" lon="7.57326">
        <ele>1211.88</ele>
        <time>2019-04-04T12:52:16Z</time>
      </trkpt>
      <trkpt lat="60.24547" lon="7.57333">
        <ele>1211.88</ele>
        <time>2019-04-04T12:52:25Z</time>
      </trkpt>
      <trkpt lat="60.24547" lon="7.57332">
        <ele>1211.88</ele>
        <time>2019-04-04T12:52:32Z</time>
      </trkpt>
      <trkpt lat="60.24532" lon="7.57362">
        <ele>1212.36</ele>
        <time>2019-04-04T12:52:39Z</time>
      </trkpt>
      <trkpt lat="60.24528" lon="7.57364">
        <ele>1212.36</ele>
        <time>2019-04-04T12:52:40Z</time>
      </trkpt>
      <trkpt lat="60.24517" lon="7.57374">
        <ele>1212.36</ele>
        <time>2019-04-04T12:52:43Z</time>
      </trkpt>
      <trkpt lat="60.24497" lon="7.57396">
        <ele>1212.36</ele>
        <time>2019-04-04T12:52:48Z</time>
      </trkpt>
      <trkpt lat="60.24479" lon="7.57416">
        <ele>1212.36</ele>
        <time>2019-04-04T12:52:52Z</time>
      </trkpt>
      <trkpt lat="60.24461" lon="7.57435">
        <ele>1212.36</ele>
        <time>2019-04-04T12:52:56Z</time>
      </trkpt>
      <trkpt lat="60.244" lon="7.57466">
        <ele>1212.36</ele>
        <time>2019-04-04T12:53:07Z</time>
      </trkpt>
      <trkpt lat="60.24384" lon="7.57474">
        <ele>1212.36</ele>
        <time>2019-04-04T12:53:10Z</time>
      </trkpt>
      <trkpt lat="60.24368" lon="7.57487">
        <ele>1212.36</ele>
        <time>2019-04-04T12:53:13Z</time>
      </trkpt>
      <trkpt lat="60.24349" lon="7.575">
        <ele>1212.84</ele>
        <time>2019-04-04T12:53:17Z</time>
      </trkpt>
      <trkpt lat="60.24323" lon="7.57524">
        <ele>1214.76</ele>
        <time>2019-04-04T12:53:23Z</time>
      </trkpt>
      <trkpt lat="60.24317" lon="7.57534">
        <ele>1215.72</ele>
        <time>2019-04-04T12:53:25Z</time>
      </trkpt>
      <trkpt lat="60.24304" lon="7.57542">
        <ele>1216.21</ele>
        <time>2019-04-04T12:53:29Z</time>
      </trkpt>
      <trkpt lat="60.24282" lon="7.5756">
        <ele>1216.21</ele>
        <time>2019-04-04T12:53:35Z</time>
      </trkpt>
      <trkpt lat="60.24268" lon="7.57568">
        <ele>1216.21</ele>
        <time>2019-04-04T12:53:38Z</time>
      </trkpt>
      <trkpt lat="60.24258" lon="7.57578">
        <ele>1216.21</ele>
        <time>2019-04-04T12:53:40Z</time>
      </trkpt>
      <trkpt lat="60.24235" lon="7.5761">
        <ele>1216.21</ele>
        <time>2019-04-04T12:53:46Z</time>
      </trkpt>
      <trkpt lat="60.24208" lon="7.57663">
        <ele>1216.21</ele>
        <time>2019-04-04T12:53:57Z</time>
      </trkpt>
      <trkpt lat="60.24192" lon="7.57693">
        <ele>1216.69</ele>
        <time>2019-04-04T12:54:05Z</time>
      </trkpt>
      <trkpt lat="60.24185" lon="7.57701">
        <ele>1216.69</ele>
        <time>2019-04-04T12:54:13Z</time>
      </trkpt>
      <trkpt lat="60.24185" lon="7.577">
        <ele>1216.69</ele>
        <time>2019-04-04T12:54:28Z</time>
      </trkpt>
      <trkpt lat="60.2417" lon="7.57691">
        <ele>1217.65</ele>
        <time>2019-04-04T12:54:35Z</time>
      </trkpt>
      <trkpt lat="60.24167" lon="7.57695">
        <ele>1218.61</ele>
        <time>2019-04-04T12:54:38Z</time>
      </trkpt>
      <trkpt lat="60.2416" lon="7.57692">
        <ele>1218.61</ele>
        <time>2019-04-04T12:54:42Z</time>
      </trkpt>
      <trkpt lat="60.24135" lon="7.57701">
        <ele>1220.53</ele>
        <time>2019-04-04T12:54:48Z</time>
      </trkpt>
      <trkpt lat="60.24101" lon="7.57691">
        <ele>1223.42</ele>
        <time>2019-04-04T12:54:55Z</time>
      </trkpt>
      <trkpt lat="60.2408" lon="7.57704">
        <ele>1224.86</ele>
        <time>2019-04-04T12:54:59Z</time>
      </trkpt>
      <trkpt lat="60.24071" lon="7.57708">
        <ele>1224.38</ele>
        <time>2019-04-04T12:55:01Z</time>
      </trkpt>
      <trkpt lat="60.24035" lon="7.57732">
        <ele>1225.82</ele>
        <time>2019-04-04T12:55:09Z</time>
      </trkpt>
      <trkpt lat="60.24029" lon="7.57734">
        <ele>1225.82</ele>
        <time>2019-04-04T12:55:10Z</time>
      </trkpt>
      <trkpt lat="60.23989" lon="7.57723">
        <ele>1226.3</ele>
        <time>2019-04-04T12:55:17Z</time>
      </trkpt>
      <trkpt lat="60.23978" lon="7.57727">
        <ele>1226.3</ele>
        <time>2019-04-04T12:55:19Z</time>
      </trkpt>
      <trkpt lat="60.23969" lon="7.57733">
        <ele>1226.78</ele>
        <time>2019-04-04T12:55:21Z</time>
      </trkpt>
      <trkpt lat="60.2395" lon="7.57752">
        <ele>1228.22</ele>
        <time>2019-04-04T12:55:26Z</time>
      </trkpt>
      <trkpt lat="60.23935" lon="7.57745">
        <ele>1228.22</ele>
        <time>2019-04-04T12:55:29Z</time>
      </trkpt>
      <trkpt lat="60.23904" lon="7.57745">
        <ele>1229.18</ele>
        <time>2019-04-04T12:55:34Z</time>
      </trkpt>
      <trkpt lat="60.23888" lon="7.57756">
        <ele>1229.18</ele>
        <time>2019-04-04T12:55:37Z</time>
      </trkpt>
      <trkpt lat="60.23879" lon="7.57764">
        <ele>1229.18</ele>
        <time>2019-04-04T12:55:39Z</time>
      </trkpt>
      <trkpt lat="60.23872" lon="7.57771">
        <ele>1229.18</ele>
        <time>2019-04-04T12:55:41Z</time>
      </trkpt>
      <trkpt lat="60.2386" lon="7.57767">
        <ele>1229.66</ele>
        <time>2019-04-04T12:55:44Z</time>
      </trkpt>
      <trkpt lat="60.23833" lon="7.5778">
        <ele>1230.62</ele>
        <time>2019-04-04T12:55:50Z</time>
      </trkpt>
      <trkpt lat="60.2381" lon="7.57775">
        <ele>1231.11</ele>
        <time>2019-04-04T12:55:55Z</time>
      </trkpt>
      <trkpt lat="60.23798" lon="7.57787">
        <ele>1231.59</ele>
        <time>2019-04-04T12:55:58Z</time>
      </trkpt>
      <trkpt lat="60.23778" lon="7.57787">
        <ele>1232.07</ele>
        <time>2019-04-04T12:56:04Z</time>
      </trkpt>
      <trkpt lat="60.23759" lon="7.57806">
        <ele>1232.55</ele>
        <time>2019-04-04T12:56:09Z</time>
      </trkpt>
      <trkpt lat="60.23743" lon="7.57807">
        <ele>1233.51</ele>
        <time>2019-04-04T12:56:14Z</time>
      </trkpt>
      <trkpt lat="60.23711" lon="7.578">
        <ele>1236.39</ele>
        <time>2019-04-04T12:56:22Z</time>
      </trkpt>
      <trkpt lat="60.23682" lon="7.57787">
        <ele>1238.32</ele>
        <time>2019-04-04T12:56:29Z</time>
      </trkpt>
      <trkpt lat="60.23677" lon="7.57789">
        <ele>1238.32</ele>
        <time>2019-04-04T12:56:30Z</time>
      </trkpt>
      <trkpt lat="60.23668" lon="7.57794">
        <ele>1239.28</ele>
        <time>2019-04-04T12:56:32Z</time>
      </trkpt>
      <trkpt lat="60.23647" lon="7.57811">
        <ele>1241.2</ele>
        <time>2019-04-04T12:56:38Z</time>
      </trkpt>
      <trkpt lat="60.23639" lon="7.57815">
        <ele>1241.2</ele>
        <time>2019-04-04T12:56:42Z</time>
      </trkpt>
      <trkpt lat="60.23615" lon="7.57799">
        <ele>1243.6</ele>
        <time>2019-04-04T12:56:48Z</time>
      </trkpt>
      <trkpt lat="60.23605" lon="7.578">
        <ele>1244.56</ele>
        <time>2019-04-04T12:56:50Z</time>
      </trkpt>
      <trkpt lat="60.23587" lon="7.57814">
        <ele>1245.53</ele>
        <time>2019-04-04T12:56:54Z</time>
      </trkpt>
      <trkpt lat="60.23575" lon="7.57808">
        <ele>1246.01</ele>
        <time>2019-04-04T12:56:57Z</time>
      </trkpt>
      <trkpt lat="60.23555" lon="7.57799">
        <ele>1246.97</ele>
        <time>2019-04-04T12:57:01Z</time>
      </trkpt>
      <trkpt lat="60.23544" lon="7.57801">
        <ele>1247.45</ele>
        <time>2019-04-04T12:57:03Z</time>
      </trkpt>
      <trkpt lat="60.23517" lon="7.57816">
        <ele>1247.93</ele>
        <time>2019-04-04T12:57:10Z</time>
      </trkpt>
      <trkpt lat="60.23495" lon="7.57831">
        <ele>1249.85</ele>
        <time>2019-04-04T12:57:16Z</time>
      </trkpt>
      <trkpt lat="60.23487" lon="7.57831">
        <ele>1249.85</ele>
        <time>2019-04-04T12:57:18Z</time>
      </trkpt>
      <trkpt lat="60.23456" lon="7.57846">
        <ele>1252.74</ele>
        <time>2019-04-04T12:57:26Z</time>
      </trkpt>
      <trkpt lat="60.23444" lon="7.57853">
        <ele>1253.22</ele>
        <time>2019-04-04T12:57:29Z</time>
      </trkpt>
      <trkpt lat="60.23437" lon="7.57853">
        <ele>1253.22</ele>
        <time>2019-04-04T12:57:31Z</time>
      </trkpt>
      <trkpt lat="60.23403" lon="7.57854">
        <ele>1254.66</ele>
        <time>2019-04-04T12:57:39Z</time>
      </trkpt>
      <trkpt lat="60.234" lon="7.57854">
        <ele>1254.66</ele>
        <time>2019-04-04T12:57:40Z</time>
      </trkpt>
      <trkpt lat="60.23388" lon="7.57859">
        <ele>1254.66</ele>
        <time>2019-04-04T12:57:43Z</time>
      </trkpt>
      <trkpt lat="60.23373" lon="7.57868">
        <ele>1254.66</ele>
        <time>2019-04-04T12:57:47Z</time>
      </trkpt>
      <trkpt lat="60.23358" lon="7.5786">
        <ele>1255.62</ele>
        <time>2019-04-04T12:57:50Z</time>
      </trkpt>
      <trkpt lat="60.23326" lon="7.57846">
        <ele>1255.14</ele>
        <time>2019-04-04T12:57:55Z</time>
      </trkpt>
      <trkpt lat="60.23299" lon="7.57836">
        <ele>1255.62</ele>
        <time>2019-04-04T12:58:00Z</time>
      </trkpt>
      <trkpt lat="60.23263" lon="7.57837">
        <ele>1256.1</ele>
        <time>2019-04-04T12:58:08Z</time>
      </trkpt>
      <trkpt lat="60.23248" lon="7.57824">
        <ele>1256.1</ele>
        <time>2019-04-04T12:58:11Z</time>
      </trkpt>
      <trkpt lat="60.23238" lon="7.5782">
        <ele>1256.1</ele>
        <time>2019-04-04T12:58:13Z</time>
      </trkpt>
      <trkpt lat="60.23223" lon="7.57822">
        <ele>1256.1</ele>
        <time>2019-04-04T12:58:16Z</time>
      </trkpt>
      <trkpt lat="60.23192" lon="7.57787">
        <ele>1258.5</ele>
        <time>2019-04-04T12:58:22Z</time>
      </trkpt>
      <trkpt lat="60.23185" lon="7.57783">
        <ele>1258.5</ele>
        <time>2019-04-04T12:58:23Z</time>
      </trkpt>
      <trkpt lat="60.23146" lon="7.57759">
        <ele>1258.5</ele>
        <time>2019-04-04T12:58:29Z</time>
      </trkpt>
      <trkpt lat="60.23133" lon="7.57753">
        <ele>1257.06</ele>
        <time>2019-04-04T12:58:31Z</time>
      </trkpt>
      <trkpt lat="60.23126" lon="7.57749">
        <ele>1256.1</ele>
        <time>2019-04-04T12:58:32Z</time>
      </trkpt>
      <trkpt lat="60.23099" lon="7.57737">
        <ele>1255.14</ele>
        <time>2019-04-04T12:58:36Z</time>
      </trkpt>
      <trkpt lat="60.23019" lon="7.57698">
        <ele>1252.25</ele>
        <time>2019-04-04T12:58:47Z</time>
      </trkpt>
      <trkpt lat="60.22988" lon="7.5768">
        <ele>1251.29</ele>
        <time>2019-04-04T12:58:52Z</time>
      </trkpt>
      <trkpt lat="60.2297" lon="7.57672">
        <ele>1251.29</ele>
        <time>2019-04-04T12:58:55Z</time>
      </trkpt>
      <trkpt lat="60.22929" lon="7.57657">
        <ele>1250.81</ele>
        <time>2019-04-04T12:59:03Z</time>
      </trkpt>
      <trkpt lat="60.22889" lon="7.57627">
        <ele>1250.33</ele>
        <time>2019-04-04T12:59:14Z</time>
      </trkpt>
      <trkpt lat="60.22871" lon="7.57609">
        <ele>1248.89</ele>
        <time>2019-04-04T12:59:18Z</time>
      </trkpt>
      <trkpt lat="60.22826" lon="7.57564">
        <ele>1246.49</ele>
        <time>2019-04-04T12:59:25Z</time>
      </trkpt>
      <trkpt lat="60.22807" lon="7.57551">
        <ele>1246.49</ele>
        <time>2019-04-04T12:59:28Z</time>
      </trkpt>
      <trkpt lat="60.22788" lon="7.57547">
        <ele>1246.49</ele>
        <time>2019-04-04T12:59:31Z</time>
      </trkpt>
      <trkpt lat="60.2277" lon="7.57521">
        <ele>1246.97</ele>
        <time>2019-04-04T12:59:35Z</time>
      </trkpt>
      <trkpt lat="60.22761" lon="7.57505">
        <ele>1246.97</ele>
        <time>2019-04-04T12:59:37Z</time>
      </trkpt>
      <trkpt lat="60.22736" lon="7.57478">
        <ele>1247.93</ele>
        <time>2019-04-04T12:59:42Z</time>
      </trkpt>
      <trkpt lat="60.22703" lon="7.57468">
        <ele>1248.41</ele>
        <time>2019-04-04T12:59:48Z</time>
      </trkpt>
      <trkpt lat="60.2268" lon="7.57464">
        <ele>1249.37</ele>
        <time>2019-04-04T12:59:52Z</time>
      </trkpt>
      <trkpt lat="60.22647" lon="7.57427">
        <ele>1249.85</ele>
        <time>2019-04-04T12:59:59Z</time>
      </trkpt>
      <trkpt lat="60.22625" lon="7.57404">
        <ele>1249.85</ele>
        <time>2019-04-04T13:00:03Z</time>
      </trkpt>
      <trkpt lat="60.22613" lon="7.57399">
        <ele>1249.85</ele>
        <time>2019-04-04T13:00:05Z</time>
      </trkpt>
      <trkpt lat="60.22586" lon="7.57394">
        <ele>1252.25</ele>
        <time>2019-04-04T13:00:10Z</time>
      </trkpt>
      <trkpt lat="60.22583" lon="7.57386">
        <ele>1252.25</ele>
        <time>2019-04-04T13:00:11Z</time>
      </trkpt>
      <trkpt lat="60.22553" lon="7.57342">
        <ele>1253.7</ele>
        <time>2019-04-04T13:00:18Z</time>
      </trkpt>
      <trkpt lat="60.22533" lon="7.57324">
        <ele>1253.7</ele>
        <time>2019-04-04T13:00:23Z</time>
      </trkpt>
      <trkpt lat="60.22524" lon="7.57322">
        <ele>1253.7</ele>
        <time>2019-04-04T13:00:25Z</time>
      </trkpt>
      <trkpt lat="60.225" lon="7.57282">
        <ele>1250.81</ele>
        <time>2019-04-04T13:00:30Z</time>
      </trkpt>
      <trkpt lat="60.22482" lon="7.57262">
        <ele>1250.33</ele>
        <time>2019-04-04T13:00:33Z</time>
      </trkpt>
      <trkpt lat="60.22462" lon="7.5725">
        <ele>1249.85</ele>
        <time>2019-04-04T13:00:36Z</time>
      </trkpt>
      <trkpt lat="60.22439" lon="7.57237">
        <ele>1249.37</ele>
        <time>2019-04-04T13:00:40Z</time>
      </trkpt>
      <trkpt lat="60.22427" lon="7.57231">
        <ele>1249.37</ele>
        <time>2019-04-04T13:00:42Z</time>
      </trkpt>
      <trkpt lat="60.22391" lon="7.57204">
        <ele>1249.37</ele>
        <time>2019-04-04T13:00:48Z</time>
      </trkpt>
      <trkpt lat="60.22367" lon="7.57196">
        <ele>1248.89</ele>
        <time>2019-04-04T13:00:52Z</time>
      </trkpt>
      <trkpt lat="60.22362" lon="7.57192">
        <ele>1248.41</ele>
        <time>2019-04-04T13:00:53Z</time>
      </trkpt>
      <trkpt lat="60.22358" lon="7.57188">
        <ele>1248.41</ele>
        <time>2019-04-04T13:00:54Z</time>
      </trkpt>
      <trkpt lat="60.2233" lon="7.57174">
        <ele>1247.93</ele>
        <time>2019-04-04T13:00:59Z</time>
      </trkpt>
      <trkpt lat="60.22316" lon="7.57151">
        <ele>1247.93</ele>
        <time>2019-04-04T13:01:02Z</time>
      </trkpt>
      <trkpt lat="60.22297" lon="7.57133">
        <ele>1247.93</ele>
        <time>2019-04-04T13:01:05Z</time>
      </trkpt>
      <trkpt lat="60.22276" lon="7.57124">
        <ele>1247.93</ele>
        <time>2019-04-04T13:01:08Z</time>
      </trkpt>
      <trkpt lat="60.22247" lon="7.57107">
        <ele>1247.93</ele>
        <time>2019-04-04T13:01:12Z</time>
      </trkpt>
      <trkpt lat="60.2222" lon="7.57094">
        <ele>1247.93</ele>
        <time>2019-04-04T13:01:16Z</time>
      </trkpt>
      <trkpt lat="60.2221" lon="7.57074">
        <ele>1248.89</ele>
        <time>2019-04-04T13:01:19Z</time>
      </trkpt>
      <trkpt lat="60.22216" lon="7.57029">
        <ele>1249.85</ele>
        <time>2019-04-04T13:01:25Z</time>
      </trkpt>
      <trkpt lat="60.22218" lon="7.57022">
        <ele>1249.85</ele>
        <time>2019-04-04T13:01:26Z</time>
      </trkpt>
      <trkpt lat="60.22223" lon="7.56997">
        <ele>1249.85</ele>
        <time>2019-04-04T13:01:33Z</time>
      </trkpt>
      <trkpt lat="60.2222" lon="7.5699">
        <ele>1249.85</ele>
        <time>2019-04-04T13:01:46Z</time>
      </trkpt>
      <trkpt lat="60.22219" lon="7.56987">
        <ele>1249.85</ele>
        <time>2019-04-04T13:02:00Z</time>
      </trkpt>
      <trkpt lat="60.22218" lon="7.5698">
        <ele>1249.85</ele>
        <time>2019-04-04T13:02:14Z</time>
      </trkpt>
      <trkpt lat="60.22218" lon="7.56975">
        <ele>1249.85</ele>
        <time>2019-04-04T13:02:20Z</time>
      </trkpt>
      <trkpt lat="60.22218" lon="7.56968">
        <ele>1249.85</ele>
        <time>2019-04-04T13:02:29Z</time>
      </trkpt>
      <trkpt lat="60.22218" lon="7.56967">
        <ele>1249.85</ele>
        <time>2019-04-04T13:02:52Z</time>
      </trkpt>
      <trkpt lat="60.22218" lon="7.56967">
        <ele>1249.37</ele>
        <time>2019-04-04T13:03:13Z</time>
      </trkpt>
      <trkpt lat="60.22217" lon="7.56967">
        <ele>1249.37</ele>
        <time>2019-04-04T13:03:35Z</time>
      </trkpt>
      <trkpt lat="60.22217" lon="7.56966">
        <ele>1249.37</ele>
        <time>2019-04-04T13:03:42Z</time>
      </trkpt>
      <trkpt lat="60.22208" lon="7.56939">
        <ele>1248.41</ele>
        <time>2019-04-04T13:03:47Z</time>
      </trkpt>
      <trkpt lat="60.22203" lon="7.56935">
        <ele>1247.45</ele>
        <time>2019-04-04T13:03:48Z</time>
      </trkpt>
      <trkpt lat="60.22167" lon="7.56907">
        <ele>1243.12</ele>
        <time>2019-04-04T13:03:53Z</time>
      </trkpt>
      <trkpt lat="60.22133" lon="7.56892">
        <ele>1241.2</ele>
        <time>2019-04-04T13:03:57Z</time>
      </trkpt>
      <trkpt lat="60.22098" lon="7.5688">
        <ele>1238.32</ele>
        <time>2019-04-04T13:04:01Z</time>
      </trkpt>
      <trkpt lat="60.22014" lon="7.56839">
        <ele>1236.87</ele>
        <time>2019-04-04T13:04:11Z</time>
      </trkpt>
      <trkpt lat="60.21943" lon="7.56807">
        <ele>1236.39</ele>
        <time>2019-04-04T13:04:20Z</time>
      </trkpt>
      <trkpt lat="60.21878" lon="7.56778">
        <ele>1236.39</ele>
        <time>2019-04-04T13:04:29Z</time>
      </trkpt>
      <trkpt lat="60.21836" lon="7.56764">
        <ele>1236.39</ele>
        <time>2019-04-04T13:04:35Z</time>
      </trkpt>
      <trkpt lat="60.21823" lon="7.56762">
        <ele>1238.32</ele>
        <time>2019-04-04T13:04:37Z</time>
      </trkpt>
      <trkpt lat="60.218" lon="7.56751">
        <ele>1238.8</ele>
        <time>2019-04-04T13:04:41Z</time>
      </trkpt>
      <trkpt lat="60.21778" lon="7.56742">
        <ele>1239.28</ele>
        <time>2019-04-04T13:04:45Z</time>
      </trkpt>
      <trkpt lat="60.21749" lon="7.56712">
        <ele>1239.76</ele>
        <time>2019-04-04T13:04:50Z</time>
      </trkpt>
      <trkpt lat="60.21728" lon="7.56696">
        <ele>1239.76</ele>
        <time>2019-04-04T13:04:53Z</time>
      </trkpt>
      <trkpt lat="60.21693" lon="7.5668">
        <ele>1241.2</ele>
        <time>2019-04-04T13:04:58Z</time>
      </trkpt>
      <trkpt lat="60.21665" lon="7.56665">
        <ele>1243.12</ele>
        <time>2019-04-04T13:05:03Z</time>
      </trkpt>
      <trkpt lat="60.21646" lon="7.56635">
        <ele>1243.6</ele>
        <time>2019-04-04T13:05:08Z</time>
      </trkpt>
      <trkpt lat="60.21641" lon="7.56629">
        <ele>1243.6</ele>
        <time>2019-04-04T13:05:09Z</time>
      </trkpt>
      <trkpt lat="60.21611" lon="7.56611">
        <ele>1242.64</ele>
        <time>2019-04-04T13:05:13Z</time>
      </trkpt>
      <trkpt lat="60.21567" lon="7.56603">
        <ele>1242.64</ele>
        <time>2019-04-04T13:05:19Z</time>
      </trkpt>
      <trkpt lat="60.21532" lon="7.56587">
        <ele>1243.6</ele>
        <time>2019-04-04T13:05:25Z</time>
      </trkpt>
      <trkpt lat="60.21518" lon="7.56584">
        <ele>1244.56</ele>
        <time>2019-04-04T13:05:27Z</time>
      </trkpt>
      <trkpt lat="60.21491" lon="7.56574">
        <ele>1245.04</ele>
        <time>2019-04-04T13:05:31Z</time>
      </trkpt>
      <trkpt lat="60.21431" lon="7.56565">
        <ele>1248.89</ele>
        <time>2019-04-04T13:05:40Z</time>
      </trkpt>
      <trkpt lat="60.21392" lon="7.56558">
        <ele>1250.81</ele>
        <time>2019-04-04T13:05:47Z</time>
      </trkpt>
      <trkpt lat="60.21372" lon="7.56559">
        <ele>1250.81</ele>
        <time>2019-04-04T13:05:51Z</time>
      </trkpt>
      <trkpt lat="60.21357" lon="7.5654">
        <ele>1252.25</ele>
        <time>2019-04-04T13:05:54Z</time>
      </trkpt>
      <trkpt lat="60.21352" lon="7.56533">
        <ele>1252.25</ele>
        <time>2019-04-04T13:05:55Z</time>
      </trkpt>
      <trkpt lat="60.21322" lon="7.56508">
        <ele>1255.14</ele>
        <time>2019-04-04T13:06:00Z</time>
      </trkpt>
      <trkpt lat="60.2131" lon="7.56499">
        <ele>1255.14</ele>
        <time>2019-04-04T13:06:02Z</time>
      </trkpt>
      <trkpt lat="60.21256" lon="7.56474">
        <ele>1256.1</ele>
        <time>2019-04-04T13:06:10Z</time>
      </trkpt>
      <trkpt lat="60.21242" lon="7.5647">
        <ele>1256.58</ele>
        <time>2019-04-04T13:06:12Z</time>
      </trkpt>
      <trkpt lat="60.21204" lon="7.56458">
        <ele>1258.5</ele>
        <time>2019-04-04T13:06:18Z</time>
      </trkpt>
      <trkpt lat="60.2118" lon="7.56457">
        <ele>1259.46</ele>
        <time>2019-04-04T13:06:22Z</time>
      </trkpt>
      <trkpt lat="60.21161" lon="7.56453">
        <ele>1259.46</ele>
        <time>2019-04-04T13:06:25Z</time>
      </trkpt>
      <trkpt lat="60.21147" lon="7.56447">
        <ele>1259.94</ele>
        <time>2019-04-04T13:06:27Z</time>
      </trkpt>
      <trkpt lat="60.21127" lon="7.56442">
        <ele>1259.94</ele>
        <time>2019-04-04T13:06:30Z</time>
      </trkpt>
      <trkpt lat="60.21086" lon="7.56415">
        <ele>1260.91</ele>
        <time>2019-04-04T13:06:36Z</time>
      </trkpt>
      <trkpt lat="60.21046" lon="7.56385">
        <ele>1261.39</ele>
        <time>2019-04-04T13:06:42Z</time>
      </trkpt>
      <trkpt lat="60.20994" lon="7.56321">
        <ele>1262.35</ele>
        <time>2019-04-04T13:06:51Z</time>
      </trkpt>
      <trkpt lat="60.20981" lon="7.56315">
        <ele>1262.83</ele>
        <time>2019-04-04T13:06:53Z</time>
      </trkpt>
      <trkpt lat="60.20961" lon="7.56301">
        <ele>1263.31</ele>
        <time>2019-04-04T13:06:56Z</time>
      </trkpt>
      <trkpt lat="60.20924" lon="7.56286">
        <ele>1264.27</ele>
        <time>2019-04-04T13:07:02Z</time>
      </trkpt>
      <trkpt lat="60.20892" lon="7.56262">
        <ele>1264.27</ele>
        <time>2019-04-04T13:07:07Z</time>
      </trkpt>
      <trkpt lat="60.20815" lon="7.56209">
        <ele>1264.27</ele>
        <time>2019-04-04T13:07:18Z</time>
      </trkpt>
      <trkpt lat="60.20762" lon="7.56189">
        <ele>1265.23</ele>
        <time>2019-04-04T13:07:27Z</time>
      </trkpt>
      <trkpt lat="60.2072" lon="7.56187">
        <ele>1265.23</ele>
        <time>2019-04-04T13:07:34Z</time>
      </trkpt>
      <trkpt lat="60.20705" lon="7.5618">
        <ele>1265.23</ele>
        <time>2019-04-04T13:07:37Z</time>
      </trkpt>
      <trkpt lat="60.20684" lon="7.56158">
        <ele>1263.31</ele>
        <time>2019-04-04T13:07:42Z</time>
      </trkpt>
      <trkpt lat="60.20653" lon="7.56146">
        <ele>1262.83</ele>
        <time>2019-04-04T13:07:48Z</time>
      </trkpt>
      <trkpt lat="60.20645" lon="7.5613">
        <ele>1261.87</ele>
        <time>2019-04-04T13:07:53Z</time>
      </trkpt>
      <trkpt lat="60.20645" lon="7.5613">
        <ele>1261.39</ele>
        <time>2019-04-04T13:08:07Z</time>
      </trkpt>
      <trkpt lat="60.20645" lon="7.56129">
        <ele>1261.39</ele>
        <time>2019-04-04T13:08:29Z</time>
      </trkpt>
      <trkpt lat="60.20645" lon="7.56128">
        <ele>1261.39</ele>
        <time>2019-04-04T13:08:48Z</time>
      </trkpt>
      <trkpt lat="60.20644" lon="7.56124">
        <ele>1261.39</ele>
        <time>2019-04-04T13:09:07Z</time>
      </trkpt>
      <trkpt lat="60.20646" lon="7.56115">
        <ele>1261.39</ele>
        <time>2019-04-04T13:09:20Z</time>
      </trkpt>
      <trkpt lat="60.20649" lon="7.56102">
        <ele>1260.91</ele>
        <time>2019-04-04T13:09:40Z</time>
      </trkpt>
      <trkpt lat="60.20661" lon="7.56063">
        <ele>1259.94</ele>
        <time>2019-04-04T13:09:49Z</time>
      </trkpt>
      <trkpt lat="60.20655" lon="7.56016">
        <ele>1258.02</ele>
        <time>2019-04-04T13:09:55Z</time>
      </trkpt>
      <trkpt lat="60.20623" lon="7.55978">
        <ele>1255.14</ele>
        <time>2019-04-04T13:10:00Z</time>
      </trkpt>
      <trkpt lat="60.20596" lon="7.55929">
        <ele>1252.74</ele>
        <time>2019-04-04T13:10:05Z</time>
      </trkpt>
      <trkpt lat="60.20584" lon="7.55913">
        <ele>1252.25</ele>
        <time>2019-04-04T13:10:07Z</time>
      </trkpt>
      <trkpt lat="60.20574" lon="7.55893">
        <ele>1251.29</ele>
        <time>2019-04-04T13:10:09Z</time>
      </trkpt>
      <trkpt lat="60.2056" lon="7.55857">
        <ele>1251.29</ele>
        <time>2019-04-04T13:10:13Z</time>
      </trkpt>
      <trkpt lat="60.20551" lon="7.55842">
        <ele>1250.81</ele>
        <time>2019-04-04T13:10:15Z</time>
      </trkpt>
      <trkpt lat="60.20536" lon="7.55803">
        <ele>1250.33</ele>
        <time>2019-04-04T13:10:19Z</time>
      </trkpt>
      <trkpt lat="60.20518" lon="7.5577">
        <ele>1249.37</ele>
        <time>2019-04-04T13:10:23Z</time>
      </trkpt>
      <trkpt lat="60.20505" lon="7.55731">
        <ele>1248.41</ele>
        <time>2019-04-04T13:10:27Z</time>
      </trkpt>
      <trkpt lat="60.20471" lon="7.55691">
        <ele>1243.6</ele>
        <time>2019-04-04T13:10:32Z</time>
      </trkpt>
      <trkpt lat="60.20463" lon="7.55681">
        <ele>1243.12</ele>
        <time>2019-04-04T13:10:33Z</time>
      </trkpt>
      <trkpt lat="60.20429" lon="7.55627">
        <ele>1238.8</ele>
        <time>2019-04-04T13:10:38Z</time>
      </trkpt>
      <trkpt lat="60.20408" lon="7.55606">
        <ele>1236.87</ele>
        <time>2019-04-04T13:10:41Z</time>
      </trkpt>
      <trkpt lat="60.2039" lon="7.55571">
        <ele>1236.87</ele>
        <time>2019-04-04T13:10:45Z</time>
      </trkpt>
      <trkpt lat="60.2038" lon="7.55559">
        <ele>1236.87</ele>
        <time>2019-04-04T13:10:47Z</time>
      </trkpt>
      <trkpt lat="60.20352" lon="7.55518">
        <ele>1237.35</ele>
        <time>2019-04-04T13:10:53Z</time>
      </trkpt>
      <trkpt lat="60.20343" lon="7.55506">
        <ele>1237.35</ele>
        <time>2019-04-04T13:10:55Z</time>
      </trkpt>
      <trkpt lat="60.20317" lon="7.55469">
        <ele>1238.8</ele>
        <time>2019-04-04T13:11:00Z</time>
      </trkpt>
      <trkpt lat="60.20306" lon="7.55456">
        <ele>1239.76</ele>
        <time>2019-04-04T13:11:02Z</time>
      </trkpt>
      <trkpt lat="60.2028" lon="7.55407">
        <ele>1240.72</ele>
        <time>2019-04-04T13:11:08Z</time>
      </trkpt>
      <trkpt lat="60.20258" lon="7.55367">
        <ele>1240.72</ele>
        <time>2019-04-04T13:11:13Z</time>
      </trkpt>
      <trkpt lat="60.20244" lon="7.55323">
        <ele>1240.72</ele>
        <time>2019-04-04T13:11:18Z</time>
      </trkpt>
      <trkpt lat="60.20232" lon="7.55288">
        <ele>1239.28</ele>
        <time>2019-04-04T13:11:22Z</time>
      </trkpt>
      <trkpt lat="60.20204" lon="7.5525">
        <ele>1237.83</ele>
        <time>2019-04-04T13:11:27Z</time>
      </trkpt>
      <trkpt lat="60.20176" lon="7.55181">
        <ele>1236.87</ele>
        <time>2019-04-04T13:11:35Z</time>
      </trkpt>
      <trkpt lat="60.2017" lon="7.55164">
        <ele>1236.87</ele>
        <time>2019-04-04T13:11:37Z</time>
      </trkpt>
      <trkpt lat="60.20152" lon="7.55125">
        <ele>1238.32</ele>
        <time>2019-04-04T13:11:42Z</time>
      </trkpt>
      <trkpt lat="60.20135" lon="7.55096">
        <ele>1238.8</ele>
        <time>2019-04-04T13:11:46Z</time>
      </trkpt>
      <trkpt lat="60.2011" lon="7.55051">
        <ele>1240.24</ele>
        <time>2019-04-04T13:11:52Z</time>
      </trkpt>
      <trkpt lat="60.20105" lon="7.55042">
        <ele>1240.24</ele>
        <time>2019-04-04T13:11:53Z</time>
      </trkpt>
      <trkpt lat="60.20097" lon="7.55016">
        <ele>1241.2</ele>
        <time>2019-04-04T13:11:56Z</time>
      </trkpt>
      <trkpt lat="60.2009" lon="7.55001">
        <ele>1241.2</ele>
        <time>2019-04-04T13:11:58Z</time>
      </trkpt>
      <trkpt lat="60.20083" lon="7.54974">
        <ele>1242.64</ele>
        <time>2019-04-04T13:12:02Z</time>
      </trkpt>
      <trkpt lat="60.20069" lon="7.54926">
        <ele>1244.56</ele>
        <time>2019-04-04T13:12:09Z</time>
      </trkpt>
      <trkpt lat="60.20065" lon="7.54912">
        <ele>1244.56</ele>
        <time>2019-04-04T13:12:12Z</time>
      </trkpt>
      <trkpt lat="60.20058" lon="7.5489">
        <ele>1245.53</ele>
        <time>2019-04-04T13:12:15Z</time>
      </trkpt>
      <trkpt lat="60.20045" lon="7.54862">
        <ele>1246.49</ele>
        <time>2019-04-04T13:12:19Z</time>
      </trkpt>
      <trkpt lat="60.20037" lon="7.5484">
        <ele>1246.97</ele>
        <time>2019-04-04T13:12:22Z</time>
      </trkpt>
      <trkpt lat="60.20024" lon="7.54806">
        <ele>1248.41</ele>
        <time>2019-04-04T13:12:27Z</time>
      </trkpt>
      <trkpt lat="60.20015" lon="7.54785">
        <ele>1250.33</ele>
        <time>2019-04-04T13:12:30Z</time>
      </trkpt>
      <trkpt lat="60.20009" lon="7.54761">
        <ele>1250.81</ele>
        <time>2019-04-04T13:12:33Z</time>
      </trkpt>
      <trkpt lat="60.19995" lon="7.54713">
        <ele>1251.29</ele>
        <time>2019-04-04T13:12:39Z</time>
      </trkpt>
      <trkpt lat="60.19992" lon="7.54691">
        <ele>1251.29</ele>
        <time>2019-04-04T13:12:42Z</time>
      </trkpt>
      <trkpt lat="60.19983" lon="7.54656">
        <ele>1251.29</ele>
        <time>2019-04-04T13:12:47Z</time>
      </trkpt>
      <trkpt lat="60.1997" lon="7.54609">
        <ele>1253.7</ele>
        <time>2019-04-04T13:12:54Z</time>
      </trkpt>
      <trkpt lat="60.19968" lon="7.54596">
        <ele>1253.7</ele>
        <time>2019-04-04T13:12:57Z</time>
      </trkpt>
      <trkpt lat="60.1996" lon="7.54576">
        <ele>1255.62</ele>
        <time>2019-04-04T13:13:00Z</time>
      </trkpt>
      <trkpt lat="60.19951" lon="7.54534">
        <ele>1258.02</ele>
        <time>2019-04-04T13:13:06Z</time>
      </trkpt>
      <trkpt lat="60.1996" lon="7.54495">
        <ele>1258.5</ele>
        <time>2019-04-04T13:13:11Z</time>
      </trkpt>
      <trkpt lat="60.1996" lon="7.54486">
        <ele>1258.5</ele>
        <time>2019-04-04T13:13:12Z</time>
      </trkpt>
      <trkpt lat="60.19957" lon="7.54468">
        <ele>1258.5</ele>
        <time>2019-04-04T13:13:14Z</time>
      </trkpt>
      <trkpt lat="60.19939" lon="7.54441">
        <ele>1256.58</ele>
        <time>2019-04-04T13:13:19Z</time>
      </trkpt>
      <trkpt lat="60.19935" lon="7.54432">
        <ele>1256.58</ele>
        <time>2019-04-04T13:13:20Z</time>
      </trkpt>
      <trkpt lat="60.19924" lon="7.54402">
        <ele>1257.06</ele>
        <time>2019-04-04T13:13:24Z</time>
      </trkpt>
      <trkpt lat="60.19913" lon="7.54362">
        <ele>1258.98</ele>
        <time>2019-04-04T13:13:31Z</time>
      </trkpt>
      <trkpt lat="60.19911" lon="7.54356">
        <ele>1258.98</ele>
        <time>2019-04-04T13:13:32Z</time>
      </trkpt>
      <trkpt lat="60.1991" lon="7.5435">
        <ele>1259.46</ele>
        <time>2019-04-04T13:13:33Z</time>
      </trkpt>
      <trkpt lat="60.19903" lon="7.54323">
        <ele>1261.39</ele>
        <time>2019-04-04T13:13:38Z</time>
      </trkpt>
      <trkpt lat="60.19895" lon="7.54298">
        <ele>1263.79</ele>
        <time>2019-04-04T13:13:43Z</time>
      </trkpt>
      <trkpt lat="60.1989" lon="7.54266">
        <ele>1266.67</ele>
        <time>2019-04-04T13:13:49Z</time>
      </trkpt>
      <trkpt lat="60.19889" lon="7.54255">
        <ele>1267.16</ele>
        <time>2019-04-04T13:13:51Z</time>
      </trkpt>
      <trkpt lat="60.19883" lon="7.54219">
        <ele>1270.52</ele>
        <time>2019-04-04T13:13:58Z</time>
      </trkpt>
      <trkpt lat="60.19878" lon="7.54194">
        <ele>1272.44</ele>
        <time>2019-04-04T13:14:02Z</time>
      </trkpt>
      <trkpt lat="60.19872" lon="7.54179">
        <ele>1273.4</ele>
        <time>2019-04-04T13:14:05Z</time>
      </trkpt>
      <trkpt lat="60.19869" lon="7.54168">
        <ele>1274.85</ele>
        <time>2019-04-04T13:14:07Z</time>
      </trkpt>
      <trkpt lat="60.19869" lon="7.54162">
        <ele>1275.81</ele>
        <time>2019-04-04T13:14:10Z</time>
      </trkpt>
      <trkpt lat="60.19864" lon="7.54154">
        <ele>1276.29</ele>
        <time>2019-04-04T13:14:13Z</time>
      </trkpt>
      <trkpt lat="60.1986" lon="7.54132">
        <ele>1278.69</ele>
        <time>2019-04-04T13:14:20Z</time>
      </trkpt>
      <trkpt lat="60.19859" lon="7.54133">
        <ele>1283.5</ele>
        <time>2019-04-04T13:14:40Z</time>
      </trkpt>
      <trkpt lat="60.19859" lon="7.54133">
        <ele>1276.77</ele>
        <time>2019-04-04T13:14:41Z</time>
      </trkpt>
      <trkpt lat="60.19859" lon="7.54133">
        <ele>1278.21</ele>
        <time>2019-04-04T13:14:53Z</time>
      </trkpt>
      <trkpt lat="60.19858" lon="7.54131">
        <ele>1277.73</ele>
        <time>2019-04-04T13:15:06Z</time>
      </trkpt>
      <trkpt lat="60.19857" lon="7.54119">
        <ele>1278.69</ele>
        <time>2019-04-04T13:15:08Z</time>
      </trkpt>
      <trkpt lat="60.19858" lon="7.54093">
        <ele>1280.13</ele>
        <time>2019-04-04T13:15:15Z</time>
      </trkpt>
      <trkpt lat="60.19852" lon="7.54067">
        <ele>1282.06</ele>
        <time>2019-04-04T13:15:20Z</time>
      </trkpt>
      <trkpt lat="60.19837" lon="7.54034">
        <ele>1285.42</ele>
        <time>2019-04-04T13:15:28Z</time>
      </trkpt>
      <trkpt lat="60.19823" lon="7.54031">
        <ele>1286.86</ele>
        <time>2019-04-04T13:15:32Z</time>
      </trkpt>
      <trkpt lat="60.19816" lon="7.54027">
        <ele>1287.82</ele>
        <time>2019-04-04T13:15:34Z</time>
      </trkpt>
      <trkpt lat="60.19813" lon="7.54023">
        <ele>1287.82</ele>
        <time>2019-04-04T13:15:35Z</time>
      </trkpt>
      <trkpt lat="60.19787" lon="7.54008">
        <ele>1290.23</ele>
        <time>2019-04-04T13:15:41Z</time>
      </trkpt>
      <trkpt lat="60.1977" lon="7.54021">
        <ele>1292.15</ele>
        <time>2019-04-04T13:15:45Z</time>
      </trkpt>
      <trkpt lat="60.19757" lon="7.54026">
        <ele>1292.15</ele>
        <time>2019-04-04T13:15:48Z</time>
      </trkpt>
      <trkpt lat="60.19749" lon="7.54031">
        <ele>1293.59</ele>
        <time>2019-04-04T13:15:50Z</time>
      </trkpt>
      <trkpt lat="60.1973" lon="7.5403">
        <ele>1294.07</ele>
        <time>2019-04-04T13:15:55Z</time>
      </trkpt>
      <trkpt lat="60.19719" lon="7.54036">
        <ele>1295.03</ele>
        <time>2019-04-04T13:15:58Z</time>
      </trkpt>
      <trkpt lat="60.19704" lon="7.54038">
        <ele>1295.03</ele>
        <time>2019-04-04T13:16:03Z</time>
      </trkpt>
      <trkpt lat="60.19698" lon="7.54035">
        <ele>1295.03</ele>
        <time>2019-04-04T13:16:05Z</time>
      </trkpt>
      <trkpt lat="60.19693" lon="7.54025">
        <ele>1296.48</ele>
        <time>2019-04-04T13:16:07Z</time>
      </trkpt>
      <trkpt lat="60.19684" lon="7.5401">
        <ele>1295.51</ele>
        <time>2019-04-04T13:16:12Z</time>
      </trkpt>
      <trkpt lat="60.19665" lon="7.54">
        <ele>1297.92</ele>
        <time>2019-04-04T13:16:18Z</time>
      </trkpt>
      <trkpt lat="60.19661" lon="7.53994">
        <ele>1297.92</ele>
        <time>2019-04-04T13:16:24Z</time>
      </trkpt>
      <trkpt lat="60.19658" lon="7.53965">
        <ele>1298.4</ele>
        <time>2019-04-04T13:16:32Z</time>
      </trkpt>
      <trkpt lat="60.19658" lon="7.53966">
        <ele>1298.4</ele>
        <time>2019-04-04T13:16:39Z</time>
      </trkpt>
      <trkpt lat="60.19643" lon="7.53942">
        <ele>1299.36</ele>
        <time>2019-04-04T13:16:45Z</time>
      </trkpt>
      <trkpt lat="60.19625" lon="7.53939">
        <ele>1301.28</ele>
        <time>2019-04-04T13:16:50Z</time>
      </trkpt>
      <trkpt lat="60.19611" lon="7.53911">
        <ele>1299.84</ele>
        <time>2019-04-04T13:16:55Z</time>
      </trkpt>
      <trkpt lat="60.19603" lon="7.53907">
        <ele>1302.72</ele>
        <time>2019-04-04T13:16:57Z</time>
      </trkpt>
      <trkpt lat="60.19598" lon="7.53905">
        <ele>1302.72</ele>
        <time>2019-04-04T13:16:58Z</time>
      </trkpt>
      <trkpt lat="60.19568" lon="7.53896">
        <ele>1303.69</ele>
        <time>2019-04-04T13:17:07Z</time>
      </trkpt>
      <trkpt lat="60.19563" lon="7.53876">
        <ele>1303.69</ele>
        <time>2019-04-04T13:17:11Z</time>
      </trkpt>
      <trkpt lat="60.19565" lon="7.53852">
        <ele>1303.69</ele>
        <time>2019-04-04T13:17:15Z</time>
      </trkpt>
      <trkpt lat="60.19558" lon="7.53834">
        <ele>1303.69</ele>
        <time>2019-04-04T13:17:19Z</time>
      </trkpt>
      <trkpt lat="60.1954" lon="7.53826">
        <ele>1304.17</ele>
        <time>2019-04-04T13:17:23Z</time>
      </trkpt>
      <trkpt lat="60.19508" lon="7.53827">
        <ele>1305.13</ele>
        <time>2019-04-04T13:17:29Z</time>
      </trkpt>
      <trkpt lat="60.19478" lon="7.53826">
        <ele>1305.13</ele>
        <time>2019-04-04T13:17:34Z</time>
      </trkpt>
      <trkpt lat="60.19457" lon="7.53827">
        <ele>1305.61</ele>
        <time>2019-04-04T13:17:38Z</time>
      </trkpt>
      <trkpt lat="60.19437" lon="7.5383">
        <ele>1305.61</ele>
        <time>2019-04-04T13:17:42Z</time>
      </trkpt>
      <trkpt lat="60.1941" lon="7.53841">
        <ele>1305.61</ele>
        <time>2019-04-04T13:17:47Z</time>
      </trkpt>
      <trkpt lat="60.19397" lon="7.53841">
        <ele>1305.61</ele>
        <time>2019-04-04T13:17:50Z</time>
      </trkpt>
      <trkpt lat="60.19367" lon="7.5384">
        <ele>1305.61</ele>
        <time>2019-04-04T13:17:57Z</time>
      </trkpt>
      <trkpt lat="60.19341" lon="7.53844">
        <ele>1305.61</ele>
        <time>2019-04-04T13:18:03Z</time>
      </trkpt>
      <trkpt lat="60.19337" lon="7.53843">
        <ele>1305.61</ele>
        <time>2019-04-04T13:18:04Z</time>
      </trkpt>
      <trkpt lat="60.19322" lon="7.53843">
        <ele>1306.57</ele>
        <time>2019-04-04T13:18:08Z</time>
      </trkpt>
      <trkpt lat="60.19303" lon="7.53837">
        <ele>1306.57</ele>
        <time>2019-04-04T13:18:13Z</time>
      </trkpt>
      <trkpt lat="60.19278" lon="7.53837">
        <ele>1306.09</ele>
        <time>2019-04-04T13:18:19Z</time>
      </trkpt>
      <trkpt lat="60.1925" lon="7.53822">
        <ele>1306.09</ele>
        <time>2019-04-04T13:18:25Z</time>
      </trkpt>
      <trkpt lat="60.1924" lon="7.53813">
        <ele>1306.09</ele>
        <time>2019-04-04T13:18:27Z</time>
      </trkpt>
      <trkpt lat="60.19222" lon="7.53809">
        <ele>1307.05</ele>
        <time>2019-04-04T13:18:30Z</time>
      </trkpt>
      <trkpt lat="60.1921" lon="7.53806">
        <ele>1305.61</ele>
        <time>2019-04-04T13:18:32Z</time>
      </trkpt>
      <trkpt lat="60.192" lon="7.53803">
        <ele>1305.61</ele>
        <time>2019-04-04T13:18:34Z</time>
      </trkpt>
      <trkpt lat="60.19187" lon="7.53802">
        <ele>1305.61</ele>
        <time>2019-04-04T13:18:37Z</time>
      </trkpt>
      <trkpt lat="60.19166" lon="7.53799">
        <ele>1305.61</ele>
        <time>2019-04-04T13:18:41Z</time>
      </trkpt>
      <trkpt lat="60.19154" lon="7.53793">
        <ele>1305.61</ele>
        <time>2019-04-04T13:18:43Z</time>
      </trkpt>
      <trkpt lat="60.19127" lon="7.53751">
        <ele>1303.2</ele>
        <time>2019-04-04T13:18:49Z</time>
      </trkpt>
      <trkpt lat="60.19115" lon="7.53743">
        <ele>1305.61</ele>
        <time>2019-04-04T13:18:51Z</time>
      </trkpt>
      <trkpt lat="60.19102" lon="7.53737">
        <ele>1304.17</ele>
        <time>2019-04-04T13:18:53Z</time>
      </trkpt>
      <trkpt lat="60.19052" lon="7.53711">
        <ele>1302.72</ele>
        <time>2019-04-04T13:19:01Z</time>
      </trkpt>
      <trkpt lat="60.19034" lon="7.53706">
        <ele>1302.72</ele>
        <time>2019-04-04T13:19:04Z</time>
      </trkpt>
      <trkpt lat="60.19017" lon="7.53696">
        <ele>1302.72</ele>
        <time>2019-04-04T13:19:07Z</time>
      </trkpt>
      <trkpt lat="60.18997" lon="7.53681">
        <ele>1302.72</ele>
        <time>2019-04-04T13:19:11Z</time>
      </trkpt>
      <trkpt lat="60.18987" lon="7.53678">
        <ele>1302.72</ele>
        <time>2019-04-04T13:19:13Z</time>
      </trkpt>
      <trkpt lat="60.18962" lon="7.53657">
        <ele>1302.72</ele>
        <time>2019-04-04T13:19:18Z</time>
      </trkpt>
      <trkpt lat="60.18949" lon="7.5363">
        <ele>1302.24</ele>
        <time>2019-04-04T13:19:22Z</time>
      </trkpt>
      <trkpt lat="60.1892" lon="7.53604">
        <ele>1302.24</ele>
        <time>2019-04-04T13:19:29Z</time>
      </trkpt>
      <trkpt lat="60.18912" lon="7.53571">
        <ele>1302.24</ele>
        <time>2019-04-04T13:19:34Z</time>
      </trkpt>
      <trkpt lat="60.18914" lon="7.53557">
        <ele>1303.2</ele>
        <time>2019-04-04T13:19:38Z</time>
      </trkpt>
      <trkpt lat="60.18915" lon="7.53529">
        <ele>1304.65</ele>
        <time>2019-04-04T13:19:44Z</time>
      </trkpt>
      <trkpt lat="60.18913" lon="7.53512">
        <ele>1304.17</ele>
        <time>2019-04-04T13:19:53Z</time>
      </trkpt>
      <trkpt lat="60.18913" lon="7.53512">
        <ele>1304.17</ele>
        <time>2019-04-04T13:20:18Z</time>
      </trkpt>
      <trkpt lat="60.18913" lon="7.53512">
        <ele>1304.17</ele>
        <time>2019-04-04T13:20:39Z</time>
      </trkpt>
      <trkpt lat="60.18913" lon="7.53511">
        <ele>1304.65</ele>
        <time>2019-04-04T13:20:56Z</time>
      </trkpt>
      <trkpt lat="60.18913" lon="7.53501">
        <ele>1304.65</ele>
        <time>2019-04-04T13:21:03Z</time>
      </trkpt>
      <trkpt lat="60.18922" lon="7.53463">
        <ele>1304.65</ele>
        <time>2019-04-04T13:21:08Z</time>
      </trkpt>
      <trkpt lat="60.18927" lon="7.53437">
        <ele>1304.65</ele>
        <time>2019-04-04T13:21:12Z</time>
      </trkpt>
      <trkpt lat="60.18944" lon="7.53399">
        <ele>1304.65</ele>
        <time>2019-04-04T13:21:18Z</time>
      </trkpt>
      <trkpt lat="60.18952" lon="7.53364">
        <ele>1304.65</ele>
        <time>2019-04-04T13:21:22Z</time>
      </trkpt>
      <trkpt lat="60.18971" lon="7.53339">
        <ele>1304.65</ele>
        <time>2019-04-04T13:21:26Z</time>
      </trkpt>
      <trkpt lat="60.18989" lon="7.53299">
        <ele>1304.65</ele>
        <time>2019-04-04T13:21:31Z</time>
      </trkpt>
      <trkpt lat="60.18997" lon="7.53248">
        <ele>1304.65</ele>
        <time>2019-04-04T13:21:36Z</time>
      </trkpt>
      <trkpt lat="60.19007" lon="7.53215">
        <ele>1304.65</ele>
        <time>2019-04-04T13:21:40Z</time>
      </trkpt>
      <trkpt lat="60.19017" lon="7.53156">
        <ele>1304.65</ele>
        <time>2019-04-04T13:21:47Z</time>
      </trkpt>
      <trkpt lat="60.19021" lon="7.53129">
        <ele>1304.65</ele>
        <time>2019-04-04T13:21:50Z</time>
      </trkpt>
      <trkpt lat="60.19032" lon="7.53086">
        <ele>1304.65</ele>
        <time>2019-04-04T13:21:55Z</time>
      </trkpt>
      <trkpt lat="60.19051" lon="7.53046">
        <ele>1304.65</ele>
        <time>2019-04-04T13:22:03Z</time>
      </trkpt>
      <trkpt lat="60.19052" lon="7.53011">
        <ele>1302.72</ele>
        <time>2019-04-04T13:22:08Z</time>
      </trkpt>
      <trkpt lat="60.19034" lon="7.52981">
        <ele>1300.8</ele>
        <time>2019-04-04T13:22:13Z</time>
      </trkpt>
      <trkpt lat="60.19021" lon="7.52936">
        <ele>1297.92</ele>
        <time>2019-04-04T13:22:18Z</time>
      </trkpt>
      <trkpt lat="60.19008" lon="7.52905">
        <ele>1295.99</ele>
        <time>2019-04-04T13:22:22Z</time>
      </trkpt>
      <trkpt lat="60.19002" lon="7.52888">
        <ele>1295.51</ele>
        <time>2019-04-04T13:22:24Z</time>
      </trkpt>
      <trkpt lat="60.18996" lon="7.52876">
        <ele>1295.03</ele>
        <time>2019-04-04T13:22:26Z</time>
      </trkpt>
      <trkpt lat="60.1898" lon="7.52822">
        <ele>1294.07</ele>
        <time>2019-04-04T13:22:34Z</time>
      </trkpt>
      <trkpt lat="60.18976" lon="7.52806">
        <ele>1294.07</ele>
        <time>2019-04-04T13:22:37Z</time>
      </trkpt>
      <trkpt lat="60.18975" lon="7.52796">
        <ele>1294.07</ele>
        <time>2019-04-04T13:22:39Z</time>
      </trkpt>
      <trkpt lat="60.18964" lon="7.52754">
        <ele>1294.07</ele>
        <time>2019-04-04T13:22:46Z</time>
      </trkpt>
      <trkpt lat="60.18957" lon="7.52728">
        <ele>1294.07</ele>
        <time>2019-04-04T13:22:52Z</time>
      </trkpt>
      <trkpt lat="60.18957" lon="7.52719">
        <ele>1294.07</ele>
        <time>2019-04-04T13:22:54Z</time>
      </trkpt>
      <trkpt lat="60.18951" lon="7.52704">
        <ele>1294.07</ele>
        <time>2019-04-04T13:22:57Z</time>
      </trkpt>
      <trkpt lat="60.18945" lon="7.52673">
        <ele>1294.07</ele>
        <time>2019-04-04T13:23:01Z</time>
      </trkpt>
      <trkpt lat="60.18944" lon="7.52665">
        <ele>1294.07</ele>
        <time>2019-04-04T13:23:03Z</time>
      </trkpt>
      <trkpt lat="60.18946" lon="7.5265">
        <ele>1294.07</ele>
        <time>2019-04-04T13:23:06Z</time>
      </trkpt>
      <trkpt lat="60.18949" lon="7.52619">
        <ele>1294.07</ele>
        <time>2019-04-04T13:23:09Z</time>
      </trkpt>
      <trkpt lat="60.18961" lon="7.52558">
        <ele>1294.07</ele>
        <time>2019-04-04T13:23:16Z</time>
      </trkpt>
      <trkpt lat="60.18943" lon="7.52524">
        <ele>1293.59</ele>
        <time>2019-04-04T13:23:22Z</time>
      </trkpt>
      <trkpt lat="60.18944" lon="7.52467">
        <ele>1293.59</ele>
        <time>2019-04-04T13:23:30Z</time>
      </trkpt>
      <trkpt lat="60.18931" lon="7.5243">
        <ele>1293.11</ele>
        <time>2019-04-04T13:23:36Z</time>
      </trkpt>
      <trkpt lat="60.18927" lon="7.5238">
        <ele>1292.63</ele>
        <time>2019-04-04T13:23:42Z</time>
      </trkpt>
      <trkpt lat="60.1894" lon="7.52342">
        <ele>1292.63</ele>
        <time>2019-04-04T13:23:47Z</time>
      </trkpt>
      <trkpt lat="60.18931" lon="7.52301">
        <ele>1291.19</ele>
        <time>2019-04-04T13:23:52Z</time>
      </trkpt>
      <trkpt lat="60.18928" lon="7.5225">
        <ele>1290.23</ele>
        <time>2019-04-04T13:23:59Z</time>
      </trkpt>
      <trkpt lat="60.18931" lon="7.52229">
        <ele>1289.27</ele>
        <time>2019-04-04T13:24:01Z</time>
      </trkpt>
      <trkpt lat="60.18936" lon="7.52208">
        <ele>1288.78</ele>
        <time>2019-04-04T13:24:03Z</time>
      </trkpt>
      <trkpt lat="60.18945" lon="7.52139">
        <ele>1286.86</ele>
        <time>2019-04-04T13:24:09Z</time>
      </trkpt>
      <trkpt lat="60.18957" lon="7.52072">
        <ele>1284.46</ele>
        <time>2019-04-04T13:24:15Z</time>
      </trkpt>
      <trkpt lat="60.18957" lon="7.52059">
        <ele>1283.5</ele>
        <time>2019-04-04T13:24:16Z</time>
      </trkpt>
      <trkpt lat="60.18959" lon="7.52007">
        <ele>1281.57</ele>
        <time>2019-04-04T13:24:20Z</time>
      </trkpt>
      <trkpt lat="60.18974" lon="7.51948">
        <ele>1280.61</ele>
        <time>2019-04-04T13:24:25Z</time>
      </trkpt>
      <trkpt lat="60.18981" lon="7.5193">
        <ele>1280.61</ele>
        <time>2019-04-04T13:24:27Z</time>
      </trkpt>
      <trkpt lat="60.18985" lon="7.51891">
        <ele>1279.65</ele>
        <time>2019-04-04T13:24:31Z</time>
      </trkpt>
      <trkpt lat="60.1899" lon="7.51867">
        <ele>1279.17</ele>
        <time>2019-04-04T13:24:33Z</time>
      </trkpt>
      <trkpt lat="60.18998" lon="7.51845">
        <ele>1279.17</ele>
        <time>2019-04-04T13:24:35Z</time>
      </trkpt>
      <trkpt lat="60.19008" lon="7.51826">
        <ele>1279.17</ele>
        <time>2019-04-04T13:24:37Z</time>
      </trkpt>
      <trkpt lat="60.19028" lon="7.51801">
        <ele>1278.69</ele>
        <time>2019-04-04T13:24:41Z</time>
      </trkpt>
      <trkpt lat="60.19034" lon="7.51774">
        <ele>1277.73</ele>
        <time>2019-04-04T13:24:46Z</time>
      </trkpt>
      <trkpt lat="60.19019" lon="7.51742">
        <ele>1277.25</ele>
        <time>2019-04-04T13:24:52Z</time>
      </trkpt>
      <trkpt lat="60.19005" lon="7.51697">
        <ele>1277.25</ele>
        <time>2019-04-04T13:24:59Z</time>
      </trkpt>
      <trkpt lat="60.18988" lon="7.51655">
        <ele>1277.25</ele>
        <time>2019-04-04T13:25:05Z</time>
      </trkpt>
      <trkpt lat="60.18976" lon="7.51614">
        <ele>1276.77</ele>
        <time>2019-04-04T13:25:11Z</time>
      </trkpt>
      <trkpt lat="60.1897" lon="7.51605">
        <ele>1276.29</ele>
        <time>2019-04-04T13:25:13Z</time>
      </trkpt>
      <trkpt lat="60.18956" lon="7.51558">
        <ele>1276.29</ele>
        <time>2019-04-04T13:25:21Z</time>
      </trkpt>
      <trkpt lat="60.1896" lon="7.51543">
        <ele>1276.29</ele>
        <time>2019-04-04T13:25:29Z</time>
      </trkpt>
      <trkpt lat="60.1896" lon="7.51543">
        <ele>1277.25</ele>
        <time>2019-04-04T13:25:50Z</time>
      </trkpt>
      <trkpt lat="60.1896" lon="7.51543">
        <ele>1275.81</ele>
        <time>2019-04-04T13:25:52Z</time>
      </trkpt>
      <trkpt lat="60.1896" lon="7.51542">
        <ele>1277.25</ele>
        <time>2019-04-04T13:25:55Z</time>
      </trkpt>
      <trkpt lat="60.18959" lon="7.51541">
        <ele>1277.25</ele>
        <time>2019-04-04T13:25:56Z</time>
      </trkpt>
      <trkpt lat="60.18956" lon="7.51503">
        <ele>1277.25</ele>
        <time>2019-04-04T13:26:04Z</time>
      </trkpt>
      <trkpt lat="60.18956" lon="7.51497">
        <ele>1277.25</ele>
        <time>2019-04-04T13:26:07Z</time>
      </trkpt>
      <trkpt lat="60.18951" lon="7.51471">
        <ele>1277.25</ele>
        <time>2019-04-04T13:26:14Z</time>
      </trkpt>
      <trkpt lat="60.18945" lon="7.51461">
        <ele>1275.33</ele>
        <time>2019-04-04T13:26:16Z</time>
      </trkpt>
      <trkpt lat="60.18941" lon="7.51455">
        <ele>1275.33</ele>
        <time>2019-04-04T13:26:17Z</time>
      </trkpt>
      <trkpt lat="60.18934" lon="7.51438">
        <ele>1276.77</ele>
        <time>2019-04-04T13:26:19Z</time>
      </trkpt>
      <trkpt lat="60.1894" lon="7.51399">
        <ele>1276.77</ele>
        <time>2019-04-04T13:26:23Z</time>
      </trkpt>
      <trkpt lat="60.18941" lon="7.51346">
        <ele>1277.73</ele>
        <time>2019-04-04T13:26:29Z</time>
      </trkpt>
      <trkpt lat="60.18918" lon="7.51302">
        <ele>1277.73</ele>
        <time>2019-04-04T13:26:36Z</time>
      </trkpt>
      <trkpt lat="60.18914" lon="7.5129">
        <ele>1277.73</ele>
        <time>2019-04-04T13:26:38Z</time>
      </trkpt>
      <trkpt lat="60.18901" lon="7.51274">
        <ele>1277.73</ele>
        <time>2019-04-04T13:26:41Z</time>
      </trkpt>
      <trkpt lat="60.1889" lon="7.51251">
        <ele>1277.73</ele>
        <time>2019-04-04T13:26:44Z</time>
      </trkpt>
      <trkpt lat="60.1888" lon="7.51205">
        <ele>1278.69</ele>
        <time>2019-04-04T13:26:50Z</time>
      </trkpt>
      <trkpt lat="60.18887" lon="7.51155">
        <ele>1280.61</ele>
        <time>2019-04-04T13:26:55Z</time>
      </trkpt>
      <trkpt lat="60.18888" lon="7.51122">
        <ele>1281.09</ele>
        <time>2019-04-04T13:26:58Z</time>
      </trkpt>
      <trkpt lat="60.18896" lon="7.51055">
        <ele>1282.06</ele>
        <time>2019-04-04T13:27:05Z</time>
      </trkpt>
      <trkpt lat="60.18897" lon="7.50973">
        <ele>1279.65</ele>
        <time>2019-04-04T13:27:13Z</time>
      </trkpt>
      <trkpt lat="60.18869" lon="7.50931">
        <ele>1278.69</ele>
        <time>2019-04-04T13:27:19Z</time>
      </trkpt>
      <trkpt lat="60.18853" lon="7.50893">
        <ele>1278.21</ele>
        <time>2019-04-04T13:27:23Z</time>
      </trkpt>
      <trkpt lat="60.18846" lon="7.50846">
        <ele>1278.21</ele>
        <time>2019-04-04T13:27:29Z</time>
      </trkpt>
      <trkpt lat="60.18858" lon="7.5079">
        <ele>1278.21</ele>
        <time>2019-04-04T13:27:34Z</time>
      </trkpt>
      <trkpt lat="60.18873" lon="7.50758">
        <ele>1278.21</ele>
        <time>2019-04-04T13:27:37Z</time>
      </trkpt>
      <trkpt lat="60.18873" lon="7.50721">
        <ele>1277.73</ele>
        <time>2019-04-04T13:27:41Z</time>
      </trkpt>
      <trkpt lat="60.18844" lon="7.50704">
        <ele>1277.73</ele>
        <time>2019-04-04T13:27:46Z</time>
      </trkpt>
      <trkpt lat="60.18829" lon="7.50682">
        <ele>1279.17</ele>
        <time>2019-04-04T13:27:50Z</time>
      </trkpt>
      <trkpt lat="60.18829" lon="7.50673">
        <ele>1279.17</ele>
        <time>2019-04-04T13:27:51Z</time>
      </trkpt>
      <trkpt lat="60.1883" lon="7.50664">
        <ele>1279.65</ele>
        <time>2019-04-04T13:27:52Z</time>
      </trkpt>
      <trkpt lat="60.18834" lon="7.50646">
        <ele>1280.13</ele>
        <time>2019-04-04T13:27:54Z</time>
      </trkpt>
      <trkpt lat="60.18825" lon="7.50599">
        <ele>1281.09</ele>
        <time>2019-04-04T13:28:00Z</time>
      </trkpt>
      <trkpt lat="60.18809" lon="7.50573">
        <ele>1282.54</ele>
        <time>2019-04-04T13:28:05Z</time>
      </trkpt>
      <trkpt lat="60.18806" lon="7.50513">
        <ele>1283.02</ele>
        <time>2019-04-04T13:28:12Z</time>
      </trkpt>
      <trkpt lat="60.188" lon="7.50499">
        <ele>1283.98</ele>
        <time>2019-04-04T13:28:14Z</time>
      </trkpt>
      <trkpt lat="60.18794" lon="7.50449">
        <ele>1285.42</ele>
        <time>2019-04-04T13:28:20Z</time>
      </trkpt>
      <trkpt lat="60.18796" lon="7.50407">
        <ele>1285.9</ele>
        <time>2019-04-04T13:28:24Z</time>
      </trkpt>
      <trkpt lat="60.18792" lon="7.50392">
        <ele>1286.38</ele>
        <time>2019-04-04T13:28:26Z</time>
      </trkpt>
      <trkpt lat="60.18776" lon="7.5037">
        <ele>1287.34</ele>
        <time>2019-04-04T13:28:30Z</time>
      </trkpt>
      <trkpt lat="60.18766" lon="7.50357">
        <ele>1288.3</ele>
        <time>2019-04-04T13:28:32Z</time>
      </trkpt>
      <trkpt lat="60.18762" lon="7.50348">
        <ele>1288.3</ele>
        <time>2019-04-04T13:28:33Z</time>
      </trkpt>
      <trkpt lat="60.18734" lon="7.50315">
        <ele>1287.82</ele>
        <time>2019-04-04T13:28:38Z</time>
      </trkpt>
      <trkpt lat="60.18713" lon="7.50301">
        <ele>1286.38</ele>
        <time>2019-04-04T13:28:41Z</time>
      </trkpt>
      <trkpt lat="60.18701" lon="7.50295">
        <ele>1285.42</ele>
        <time>2019-04-04T13:28:43Z</time>
      </trkpt>
      <trkpt lat="60.18682" lon="7.50293">
        <ele>1283.98</ele>
        <time>2019-04-04T13:28:46Z</time>
      </trkpt>
      <trkpt lat="60.18676" lon="7.50292">
        <ele>1285.42</ele>
        <time>2019-04-04T13:28:47Z</time>
      </trkpt>
      <trkpt lat="60.18664" lon="7.50262">
        <ele>1283.98</ele>
        <time>2019-04-04T13:28:51Z</time>
      </trkpt>
      <trkpt lat="60.18652" lon="7.50225">
        <ele>1283.98</ele>
        <time>2019-04-04T13:28:56Z</time>
      </trkpt>
      <trkpt lat="60.1865" lon="7.50217">
        <ele>1283.98</ele>
        <time>2019-04-04T13:28:57Z</time>
      </trkpt>
      <trkpt lat="60.18643" lon="7.50197">
        <ele>1285.9</ele>
        <time>2019-04-04T13:29:00Z</time>
      </trkpt>
      <trkpt lat="60.18633" lon="7.50169">
        <ele>1286.86</ele>
        <time>2019-04-04T13:29:04Z</time>
      </trkpt>
      <trkpt lat="60.18621" lon="7.5015">
        <ele>1286.86</ele>
        <time>2019-04-04T13:29:07Z</time>
      </trkpt>
      <trkpt lat="60.18606" lon="7.50112">
        <ele>1286.86</ele>
        <time>2019-04-04T13:29:11Z</time>
      </trkpt>
      <trkpt lat="60.18602" lon="7.50067">
        <ele>1288.78</ele>
        <time>2019-04-04T13:29:16Z</time>
      </trkpt>
      <trkpt lat="60.18607" lon="7.50036">
        <ele>1289.75</ele>
        <time>2019-04-04T13:29:19Z</time>
      </trkpt>
      <trkpt lat="60.18619" lon="7.49992">
        <ele>1292.15</ele>
        <time>2019-04-04T13:29:24Z</time>
      </trkpt>
      <trkpt lat="60.1862" lon="7.49968">
        <ele>1292.15</ele>
        <time>2019-04-04T13:29:26Z</time>
      </trkpt>
      <trkpt lat="60.18627" lon="7.49884">
        <ele>1293.11</ele>
        <time>2019-04-04T13:29:34Z</time>
      </trkpt>
      <trkpt lat="60.18616" lon="7.49851">
        <ele>1293.11</ele>
        <time>2019-04-04T13:29:41Z</time>
      </trkpt>
      <trkpt lat="60.18607" lon="7.49836">
        <ele>1293.11</ele>
        <time>2019-04-04T13:29:43Z</time>
      </trkpt>
      <trkpt lat="60.18595" lon="7.49822">
        <ele>1291.67</ele>
        <time>2019-04-04T13:29:45Z</time>
      </trkpt>
      <trkpt lat="60.18589" lon="7.49816">
        <ele>1293.59</ele>
        <time>2019-04-04T13:29:46Z</time>
      </trkpt>
      <trkpt lat="60.18574" lon="7.49807">
        <ele>1293.59</ele>
        <time>2019-04-04T13:29:48Z</time>
      </trkpt>
      <trkpt lat="60.18561" lon="7.49797">
        <ele>1290.71</ele>
        <time>2019-04-04T13:29:50Z</time>
      </trkpt>
      <trkpt lat="60.18555" lon="7.49791">
        <ele>1290.71</ele>
        <time>2019-04-04T13:29:51Z</time>
      </trkpt>
      <trkpt lat="60.18549" lon="7.49759">
        <ele>1290.23</ele>
        <time>2019-04-04T13:29:56Z</time>
      </trkpt>
      <trkpt lat="60.18545" lon="7.49734">
        <ele>1291.67</ele>
        <time>2019-04-04T13:29:59Z</time>
      </trkpt>
      <trkpt lat="60.18548" lon="7.49713">
        <ele>1292.15</ele>
        <time>2019-04-04T13:30:03Z</time>
      </trkpt>
      <trkpt lat="60.1855" lon="7.49694">
        <ele>1292.15</ele>
        <time>2019-04-04T13:30:07Z</time>
      </trkpt>
      <trkpt lat="60.1854" lon="7.49659">
        <ele>1288.78</ele>
        <time>2019-04-04T13:30:11Z</time>
      </trkpt>
      <trkpt lat="60.18535" lon="7.49653">
        <ele>1288.78</ele>
        <time>2019-04-04T13:30:12Z</time>
      </trkpt>
      <trkpt lat="60.18519" lon="7.49637">
        <ele>1286.38</ele>
        <time>2019-04-04T13:30:15Z</time>
      </trkpt>
      <trkpt lat="60.18501" lon="7.49623">
        <ele>1284.46</ele>
        <time>2019-04-04T13:30:18Z</time>
      </trkpt>
      <trkpt lat="60.18456" lon="7.49595">
        <ele>1282.54</ele>
        <time>2019-04-04T13:30:26Z</time>
      </trkpt>
      <trkpt lat="60.18452" lon="7.4955">
        <ele>1282.54</ele>
        <time>2019-04-04T13:30:31Z</time>
      </trkpt>
      <trkpt lat="60.18439" lon="7.49514">
        <ele>1283.5</ele>
        <time>2019-04-04T13:30:36Z</time>
      </trkpt>
      <trkpt lat="60.18434" lon="7.49463">
        <ele>1283.5</ele>
        <time>2019-04-04T13:30:41Z</time>
      </trkpt>
      <trkpt lat="60.18435" lon="7.49454">
        <ele>1283.98</ele>
        <time>2019-04-04T13:30:42Z</time>
      </trkpt>
      <trkpt lat="60.18431" lon="7.49413">
        <ele>1283.02</ele>
        <time>2019-04-04T13:30:47Z</time>
      </trkpt>
      <trkpt lat="60.18423" lon="7.49379">
        <ele>1283.02</ele>
        <time>2019-04-04T13:30:51Z</time>
      </trkpt>
      <trkpt lat="60.18415" lon="7.49351">
        <ele>1281.57</ele>
        <time>2019-04-04T13:30:54Z</time>
      </trkpt>
      <trkpt lat="60.18409" lon="7.49327">
        <ele>1281.09</ele>
        <time>2019-04-04T13:30:57Z</time>
      </trkpt>
      <trkpt lat="60.1841" lon="7.49289">
        <ele>1281.09</ele>
        <time>2019-04-04T13:31:02Z</time>
      </trkpt>
      <trkpt lat="60.18422" lon="7.49235">
        <ele>1278.21</ele>
        <time>2019-04-04T13:31:07Z</time>
      </trkpt>
      <trkpt lat="60.18439" lon="7.49183">
        <ele>1275.33</ele>
        <time>2019-04-04T13:31:11Z</time>
      </trkpt>
      <trkpt lat="60.18458" lon="7.49108">
        <ele>1273.88</ele>
        <time>2019-04-04T13:31:17Z</time>
      </trkpt>
      <trkpt lat="60.1846" lon="7.49094">
        <ele>1273.4</ele>
        <time>2019-04-04T13:31:18Z</time>
      </trkpt>
      <trkpt lat="60.1846" lon="7.4908">
        <ele>1272.44</ele>
        <time>2019-04-04T13:31:19Z</time>
      </trkpt>
      <trkpt lat="60.18459" lon="7.49064">
        <ele>1271.48</ele>
        <time>2019-04-04T13:31:20Z</time>
      </trkpt>
      <trkpt lat="60.1846" lon="7.49048">
        <ele>1271</ele>
        <time>2019-04-04T13:31:21Z</time>
      </trkpt>
      <trkpt lat="60.18478" lon="7.48906">
        <ele>1266.67</ele>
        <time>2019-04-04T13:31:29Z</time>
      </trkpt>
      <trkpt lat="60.18481" lon="7.48887">
        <ele>1265.71</ele>
        <time>2019-04-04T13:31:30Z</time>
      </trkpt>
      <trkpt lat="60.18488" lon="7.48854">
        <ele>1265.23</ele>
        <time>2019-04-04T13:31:32Z</time>
      </trkpt>
      <trkpt lat="60.18499" lon="7.48812">
        <ele>1265.23</ele>
        <time>2019-04-04T13:31:35Z</time>
      </trkpt>
      <trkpt lat="60.18499" lon="7.48764">
        <ele>1263.31</ele>
        <time>2019-04-04T13:31:39Z</time>
      </trkpt>
      <trkpt lat="60.18499" lon="7.48708">
        <ele>1261.39</ele>
        <time>2019-04-04T13:31:43Z</time>
      </trkpt>
      <trkpt lat="60.18499" lon="7.48676">
        <ele>1259.94</ele>
        <time>2019-04-04T13:31:45Z</time>
      </trkpt>
      <trkpt lat="60.18518" lon="7.4855">
        <ele>1258.02</ele>
        <time>2019-04-04T13:31:52Z</time>
      </trkpt>
      <trkpt lat="60.18545" lon="7.48465">
        <ele>1261.87</ele>
        <time>2019-04-04T13:31:58Z</time>
      </trkpt>
      <trkpt lat="60.18548" lon="7.48448">
        <ele>1262.83</ele>
        <time>2019-04-04T13:32:00Z</time>
      </trkpt>
      <trkpt lat="60.18548" lon="7.48443">
        <ele>1263.79</ele>
        <time>2019-04-04T13:32:01Z</time>
      </trkpt>
      <trkpt lat="60.18546" lon="7.48432">
        <ele>1263.79</ele>
        <time>2019-04-04T13:32:05Z</time>
      </trkpt>
      <trkpt lat="60.18545" lon="7.4843">
        <ele>1263.79</ele>
        <time>2019-04-04T13:32:06Z</time>
      </trkpt>
      <trkpt lat="60.18541" lon="7.48413">
        <ele>1261.87</ele>
        <time>2019-04-04T13:32:10Z</time>
      </trkpt>
      <trkpt lat="60.18541" lon="7.48406">
        <ele>1261.87</ele>
        <time>2019-04-04T13:32:11Z</time>
      </trkpt>
      <trkpt lat="60.18544" lon="7.4839">
        <ele>1261.39</ele>
        <time>2019-04-04T13:32:13Z</time>
      </trkpt>
      <trkpt lat="60.18562" lon="7.48346">
        <ele>1260.43</ele>
        <time>2019-04-04T13:32:19Z</time>
      </trkpt>
      <trkpt lat="60.18569" lon="7.48305">
        <ele>1259.94</ele>
        <time>2019-04-04T13:32:24Z</time>
      </trkpt>
      <trkpt lat="60.18543" lon="7.48281">
        <ele>1257.54</ele>
        <time>2019-04-04T13:32:29Z</time>
      </trkpt>
      <trkpt lat="60.18538" lon="7.48285">
        <ele>1256.58</ele>
        <time>2019-04-04T13:32:30Z</time>
      </trkpt>
      <trkpt lat="60.18519" lon="7.48283">
        <ele>1254.66</ele>
        <time>2019-04-04T13:32:34Z</time>
      </trkpt>
      <trkpt lat="60.1851" lon="7.48233">
        <ele>1253.22</ele>
        <time>2019-04-04T13:32:39Z</time>
      </trkpt>
      <trkpt lat="60.18489" lon="7.48226">
        <ele>1250.81</ele>
        <time>2019-04-04T13:32:44Z</time>
      </trkpt>
      <trkpt lat="60.18482" lon="7.48223">
        <ele>1250.33</ele>
        <time>2019-04-04T13:32:46Z</time>
      </trkpt>
      <trkpt lat="60.18467" lon="7.48199">
        <ele>1248.89</ele>
        <time>2019-04-04T13:32:57Z</time>
      </trkpt>
      <trkpt lat="60.18465" lon="7.48197">
        <ele>1248.89</ele>
        <time>2019-04-04T13:32:58Z</time>
      </trkpt>
      <trkpt lat="60.18459" lon="7.48196">
        <ele>1248.41</ele>
        <time>2019-04-04T13:33:08Z</time>
      </trkpt>
      <trkpt lat="60.18457" lon="7.48195">
        <ele>1249.37</ele>
        <time>2019-04-04T13:33:22Z</time>
      </trkpt>
      <trkpt lat="60.18453" lon="7.48187">
        <ele>1248.89</ele>
        <time>2019-04-04T13:33:33Z</time>
      </trkpt>
      <trkpt lat="60.18452" lon="7.48186">
        <ele>1248.89</ele>
        <time>2019-04-04T13:33:34Z</time>
      </trkpt>
      <trkpt lat="60.18451" lon="7.48182">
        <ele>1249.37</ele>
        <time>2019-04-04T13:33:44Z</time>
      </trkpt>
      <trkpt lat="60.18451" lon="7.48176">
        <ele>1248.41</ele>
        <time>2019-04-04T13:33:50Z</time>
      </trkpt>
      <trkpt lat="60.18456" lon="7.4814">
        <ele>1246.49</ele>
        <time>2019-04-04T13:33:56Z</time>
      </trkpt>
      <trkpt lat="60.1846" lon="7.48134">
        <ele>1246.01</ele>
        <time>2019-04-04T13:33:57Z</time>
      </trkpt>
      <trkpt lat="60.18465" lon="7.4813">
        <ele>1246.01</ele>
        <time>2019-04-04T13:33:58Z</time>
      </trkpt>
      <trkpt lat="60.18479" lon="7.48119">
        <ele>1247.93</ele>
        <time>2019-04-04T13:34:00Z</time>
      </trkpt>
      <trkpt lat="60.18496" lon="7.48101">
        <ele>1248.41</ele>
        <time>2019-04-04T13:34:02Z</time>
      </trkpt>
      <trkpt lat="60.18564" lon="7.47989">
        <ele>1250.33</ele>
        <time>2019-04-04T13:34:10Z</time>
      </trkpt>
      <trkpt lat="60.18627" lon="7.47898">
        <ele>1254.18</ele>
        <time>2019-04-04T13:34:18Z</time>
      </trkpt>
      <trkpt lat="60.18641" lon="7.47879">
        <ele>1254.66</ele>
        <time>2019-04-04T13:34:20Z</time>
      </trkpt>
      <trkpt lat="60.18677" lon="7.47816">
        <ele>1249.85</ele>
        <time>2019-04-04T13:34:25Z</time>
      </trkpt>
      <trkpt lat="60.18684" lon="7.47801">
        <ele>1249.37</ele>
        <time>2019-04-04T13:34:26Z</time>
      </trkpt>
      <trkpt lat="60.18707" lon="7.47754">
        <ele>1250.81</ele>
        <time>2019-04-04T13:34:29Z</time>
      </trkpt>
      <trkpt lat="60.18752" lon="7.47688">
        <ele>1248.41</ele>
        <time>2019-04-04T13:34:34Z</time>
      </trkpt>
      <trkpt lat="60.18822" lon="7.47601">
        <ele>1249.85</ele>
        <time>2019-04-04T13:34:42Z</time>
      </trkpt>
      <trkpt lat="60.18839" lon="7.47582">
        <ele>1251.29</ele>
        <time>2019-04-04T13:34:44Z</time>
      </trkpt>
      <trkpt lat="60.18888" lon="7.47541">
        <ele>1254.66</ele>
        <time>2019-04-04T13:34:50Z</time>
      </trkpt>
      <trkpt lat="60.18896" lon="7.47535">
        <ele>1255.14</ele>
        <time>2019-04-04T13:34:51Z</time>
      </trkpt>
      <trkpt lat="60.1892" lon="7.47498">
        <ele>1256.1</ele>
        <time>2019-04-04T13:34:56Z</time>
      </trkpt>
      <trkpt lat="60.18969" lon="7.47434">
        <ele>1258.02</ele>
        <time>2019-04-04T13:35:03Z</time>
      </trkpt>
      <trkpt lat="60.18978" lon="7.47427">
        <ele>1258.02</ele>
        <time>2019-04-04T13:35:04Z</time>
      </trkpt>
      <trkpt lat="60.18995" lon="7.47414">
        <ele>1258.02</ele>
        <time>2019-04-04T13:35:07Z</time>
      </trkpt>
      <trkpt lat="60.19" lon="7.47403">
        <ele>1256.1</ele>
        <time>2019-04-04T13:35:10Z</time>
      </trkpt>
      <trkpt lat="60.18997" lon="7.47405">
        <ele>1255.14</ele>
        <time>2019-04-04T13:35:12Z</time>
      </trkpt>
      <trkpt lat="60.18991" lon="7.47412">
        <ele>1255.14</ele>
        <time>2019-04-04T13:35:14Z</time>
      </trkpt>
      <trkpt lat="60.18974" lon="7.47458">
        <ele>1257.06</ele>
        <time>2019-04-04T13:35:21Z</time>
      </trkpt>
      <trkpt lat="60.18972" lon="7.47464">
        <ele>1254.18</ele>
        <time>2019-04-04T13:35:22Z</time>
      </trkpt>
      <trkpt lat="60.18964" lon="7.47483">
        <ele>1256.58</ele>
        <time>2019-04-04T13:35:25Z</time>
      </trkpt>
      <trkpt lat="60.18951" lon="7.47518">
        <ele>1257.54</ele>
        <time>2019-04-04T13:35:29Z</time>
      </trkpt>
      <trkpt lat="60.18944" lon="7.47534">
        <ele>1255.14</ele>
        <time>2019-04-04T13:35:31Z</time>
      </trkpt>
      <trkpt lat="60.18919" lon="7.47588">
        <ele>1256.58</ele>
        <time>2019-04-04T13:35:37Z</time>
      </trkpt>
      <trkpt lat="60.18911" lon="7.47609">
        <ele>1257.06</ele>
        <time>2019-04-04T13:35:39Z</time>
      </trkpt>
      <trkpt lat="60.18898" lon="7.47636">
        <ele>1257.06</ele>
        <time>2019-04-04T13:35:42Z</time>
      </trkpt>
      <trkpt lat="60.18882" lon="7.47668">
        <ele>1253.7</ele>
        <time>2019-04-04T13:35:45Z</time>
      </trkpt>
      <trkpt lat="60.1887" lon="7.47689">
        <ele>1253.7</ele>
        <time>2019-04-04T13:35:47Z</time>
      </trkpt>
      <trkpt lat="60.18852" lon="7.47716">
        <ele>1257.06</ele>
        <time>2019-04-04T13:35:50Z</time>
      </trkpt>
      <trkpt lat="60.18847" lon="7.47726">
        <ele>1257.06</ele>
        <time>2019-04-04T13:35:51Z</time>
      </trkpt>
      <trkpt lat="60.18837" lon="7.47744">
        <ele>1253.7</ele>
        <time>2019-04-04T13:35:53Z</time>
      </trkpt>
      <trkpt lat="60.18833" lon="7.47752">
        <ele>1253.7</ele>
        <time>2019-04-04T13:35:54Z</time>
      </trkpt>
      <trkpt lat="60.18824" lon="7.47767">
        <ele>1255.62</ele>
        <time>2019-04-04T13:35:56Z</time>
      </trkpt>
      <trkpt lat="60.18809" lon="7.47794">
        <ele>1257.54</ele>
        <time>2019-04-04T13:35:59Z</time>
      </trkpt>
      <trkpt lat="60.18805" lon="7.47803">
        <ele>1257.54</ele>
        <time>2019-04-04T13:36:00Z</time>
      </trkpt>
      <trkpt lat="60.18799" lon="7.47822">
        <ele>1258.5</ele>
        <time>2019-04-04T13:36:02Z</time>
      </trkpt>
      <trkpt lat="60.18793" lon="7.47848">
        <ele>1259.46</ele>
        <time>2019-04-04T13:36:06Z</time>
      </trkpt>
      <trkpt lat="60.18792" lon="7.47838">
        <ele>1260.43</ele>
        <time>2019-04-04T13:36:10Z</time>
      </trkpt>
      <trkpt lat="60.18803" lon="7.47831">
        <ele>1262.35</ele>
        <time>2019-04-04T13:36:12Z</time>
      </trkpt>
      <trkpt lat="60.18826" lon="7.47819">
        <ele>1263.31</ele>
        <time>2019-04-04T13:36:15Z</time>
      </trkpt>
      <trkpt lat="60.18842" lon="7.47809">
        <ele>1264.27</ele>
        <time>2019-04-04T13:36:17Z</time>
      </trkpt>
      <trkpt lat="60.18917" lon="7.47766">
        <ele>1266.19</ele>
        <time>2019-04-04T13:36:26Z</time>
      </trkpt>
      <trkpt lat="60.18949" lon="7.47748">
        <ele>1269.56</ele>
        <time>2019-04-04T13:36:31Z</time>
      </trkpt>
      <trkpt lat="60.18955" lon="7.47745">
        <ele>1270.52</ele>
        <time>2019-04-04T13:36:32Z</time>
      </trkpt>
      <trkpt lat="60.19029" lon="7.47723">
        <ele>1272.92</ele>
        <time>2019-04-04T13:36:42Z</time>
      </trkpt>
      <trkpt lat="60.19062" lon="7.47714">
        <ele>1276.29</ele>
        <time>2019-04-04T13:36:47Z</time>
      </trkpt>
      <trkpt lat="60.19085" lon="7.47708">
        <ele>1280.13</ele>
        <time>2019-04-04T13:36:52Z</time>
      </trkpt>
      <trkpt lat="60.19107" lon="7.47699">
        <ele>1283.02</ele>
        <time>2019-04-04T13:36:56Z</time>
      </trkpt>
      <trkpt lat="60.19118" lon="7.47694">
        <ele>1283.5</ele>
        <time>2019-04-04T13:36:58Z</time>
      </trkpt>
      <trkpt lat="60.1916" lon="7.47678">
        <ele>1287.34</ele>
        <time>2019-04-04T13:37:04Z</time>
      </trkpt>
      <trkpt lat="60.19167" lon="7.47676">
        <ele>1287.82</ele>
        <time>2019-04-04T13:37:05Z</time>
      </trkpt>
      <trkpt lat="60.19181" lon="7.47673">
        <ele>1288.78</ele>
        <time>2019-04-04T13:37:07Z</time>
      </trkpt>
      <trkpt lat="60.19253" lon="7.4766">
        <ele>1291.19</ele>
        <time>2019-04-04T13:37:17Z</time>
      </trkpt>
      <trkpt lat="60.19329" lon="7.47622">
        <ele>1292.15</ele>
        <time>2019-04-04T13:37:26Z</time>
      </trkpt>
      <trkpt lat="60.19338" lon="7.47614">
        <ele>1292.15</ele>
        <time>2019-04-04T13:37:27Z</time>
      </trkpt>
      <trkpt lat="60.19372" lon="7.47593">
        <ele>1292.15</ele>
        <time>2019-04-04T13:37:31Z</time>
      </trkpt>
      <trkpt lat="60.19421" lon="7.47575">
        <ele>1294.07</ele>
        <time>2019-04-04T13:37:37Z</time>
      </trkpt>
      <trkpt lat="60.19428" lon="7.47572">
        <ele>1294.07</ele>
        <time>2019-04-04T13:37:38Z</time>
      </trkpt>
      <trkpt lat="60.19434" lon="7.47547">
        <ele>1290.23</ele>
        <time>2019-04-04T13:37:41Z</time>
      </trkpt>
      <trkpt lat="60.19415" lon="7.47541">
        <ele>1289.27</ele>
        <time>2019-04-04T13:37:44Z</time>
      </trkpt>
      <trkpt lat="60.19408" lon="7.47543">
        <ele>1288.3</ele>
        <time>2019-04-04T13:37:45Z</time>
      </trkpt>
      <trkpt lat="60.19392" lon="7.47551">
        <ele>1287.34</ele>
        <time>2019-04-04T13:37:47Z</time>
      </trkpt>
      <trkpt lat="60.19354" lon="7.47578">
        <ele>1288.3</ele>
        <time>2019-04-04T13:37:52Z</time>
      </trkpt>
      <trkpt lat="60.19348" lon="7.47581">
        <ele>1288.3</ele>
        <time>2019-04-04T13:37:53Z</time>
      </trkpt>
      <trkpt lat="60.19329" lon="7.47595">
        <ele>1285.42</ele>
        <time>2019-04-04T13:37:56Z</time>
      </trkpt>
      <trkpt lat="60.19286" lon="7.47637">
        <ele>1285.9</ele>
        <time>2019-04-04T13:38:03Z</time>
      </trkpt>
      <trkpt lat="60.19244" lon="7.47676">
        <ele>1288.78</ele>
        <time>2019-04-04T13:38:10Z</time>
      </trkpt>
      <trkpt lat="60.19232" lon="7.47684">
        <ele>1289.27</ele>
        <time>2019-04-04T13:38:12Z</time>
      </trkpt>
      <trkpt lat="60.192" lon="7.47711">
        <ele>1291.67</ele>
        <time>2019-04-04T13:38:18Z</time>
      </trkpt>
      <trkpt lat="60.19174" lon="7.4773">
        <ele>1293.11</ele>
        <time>2019-04-04T13:38:23Z</time>
      </trkpt>
      <trkpt lat="60.19163" lon="7.47739">
        <ele>1291.19</ele>
        <time>2019-04-04T13:38:26Z</time>
      </trkpt>
      <trkpt lat="60.19149" lon="7.47752">
        <ele>1293.11</ele>
        <time>2019-04-04T13:38:33Z</time>
      </trkpt>
      <trkpt lat="60.19139" lon="7.47761">
        <ele>1292.63</ele>
        <time>2019-04-04T13:38:42Z</time>
      </trkpt>
      <trkpt lat="60.19133" lon="7.47761">
        <ele>1291.67</ele>
        <time>2019-04-04T13:38:54Z</time>
      </trkpt>
      <trkpt lat="60.19133" lon="7.47761">
        <ele>1291.19</ele>
        <time>2019-04-04T13:38:56Z</time>
      </trkpt>
      <trkpt lat="60.19127" lon="7.47759">
        <ele>1289.75</ele>
        <time>2019-04-04T13:39:06Z</time>
      </trkpt>
      <trkpt lat="60.19127" lon="7.47759">
        <ele>1289.75</ele>
        <time>2019-04-04T13:39:25Z</time>
      </trkpt>
      <trkpt lat="60.19127" lon="7.47759">
        <ele>1289.75</ele>
        <time>2019-04-04T13:39:42Z</time>
      </trkpt>
      <trkpt lat="60.19127" lon="7.47759">
        <ele>1289.75</ele>
        <time>2019-04-04T13:40:03Z</time>
      </trkpt>
      <trkpt lat="60.19127" lon="7.47759">
        <ele>1289.75</ele>
        <time>2019-04-04T13:40:26Z</time>
      </trkpt>
      <trkpt lat="60.19127" lon="7.47759">
        <ele>1292.63</ele>
        <time>2019-04-04T13:40:35Z</time>
      </trkpt>
      <trkpt lat="60.19124" lon="7.47758">
        <ele>1290.71</ele>
        <time>2019-04-04T13:40:37Z</time>
      </trkpt>
      <trkpt lat="60.19106" lon="7.47756">
        <ele>1287.34</ele>
        <time>2019-04-04T13:40:42Z</time>
      </trkpt>
      <trkpt lat="60.19092" lon="7.47757">
        <ele>1284.94</ele>
        <time>2019-04-04T13:40:46Z</time>
      </trkpt>
      <trkpt lat="60.1907" lon="7.47768">
        <ele>1282.54</ele>
        <time>2019-04-04T13:40:50Z</time>
      </trkpt>
      <trkpt lat="60.19044" lon="7.47777">
        <ele>1278.21</ele>
        <time>2019-04-04T13:40:53Z</time>
      </trkpt>
      <trkpt lat="60.19013" lon="7.478">
        <ele>1274.85</ele>
        <time>2019-04-04T13:40:57Z</time>
      </trkpt>
      <trkpt lat="60.18999" lon="7.47811">
        <ele>1272.44</ele>
        <time>2019-04-04T13:40:59Z</time>
      </trkpt>
      <trkpt lat="60.18962" lon="7.47826">
        <ele>1271</ele>
        <time>2019-04-04T13:41:04Z</time>
      </trkpt>
      <trkpt lat="60.18932" lon="7.47858">
        <ele>1271.96</ele>
        <time>2019-04-04T13:41:09Z</time>
      </trkpt>
      <trkpt lat="60.1892" lon="7.47873">
        <ele>1273.4</ele>
        <time>2019-04-04T13:41:11Z</time>
      </trkpt>
      <trkpt lat="60.18897" lon="7.47904">
        <ele>1273.88</ele>
        <time>2019-04-04T13:41:15Z</time>
      </trkpt>
      <trkpt lat="60.18887" lon="7.47918">
        <ele>1275.81</ele>
        <time>2019-04-04T13:41:17Z</time>
      </trkpt>
      <trkpt lat="60.18865" lon="7.47955">
        <ele>1275.33</ele>
        <time>2019-04-04T13:41:23Z</time>
      </trkpt>
      <trkpt lat="60.18859" lon="7.47964">
        <ele>1277.25</ele>
        <time>2019-04-04T13:41:25Z</time>
      </trkpt>
      <trkpt lat="60.18851" lon="7.4798">
        <ele>1277.73</ele>
        <time>2019-04-04T13:41:28Z</time>
      </trkpt>
      <trkpt lat="60.18827" lon="7.48018">
        <ele>1275.33</ele>
        <time>2019-04-04T13:41:34Z</time>
      </trkpt>
      <trkpt lat="60.18818" lon="7.48044">
        <ele>1271.48</ele>
        <time>2019-04-04T13:41:37Z</time>
      </trkpt>
      <trkpt lat="60.18804" lon="7.4808">
        <ele>1274.36</ele>
        <time>2019-04-04T13:41:41Z</time>
      </trkpt>
      <trkpt lat="60.18792" lon="7.48104">
        <ele>1273.4</ele>
        <time>2019-04-04T13:41:44Z</time>
      </trkpt>
      <trkpt lat="60.18782" lon="7.48119">
        <ele>1272.44</ele>
        <time>2019-04-04T13:41:46Z</time>
      </trkpt>
      <trkpt lat="60.18751" lon="7.48154">
        <ele>1271</ele>
        <time>2019-04-04T13:41:51Z</time>
      </trkpt>
      <trkpt lat="60.18737" lon="7.48166">
        <ele>1271.96</ele>
        <time>2019-04-04T13:41:53Z</time>
      </trkpt>
      <trkpt lat="60.18724" lon="7.48179">
        <ele>1270.52</ele>
        <time>2019-04-04T13:41:55Z</time>
      </trkpt>
      <trkpt lat="60.18684" lon="7.48221">
        <ele>1268.6</ele>
        <time>2019-04-04T13:42:02Z</time>
      </trkpt>
      <trkpt lat="60.1867" lon="7.48243">
        <ele>1266.67</ele>
        <time>2019-04-04T13:42:05Z</time>
      </trkpt>
      <trkpt lat="60.18654" lon="7.48267">
        <ele>1268.6</ele>
        <time>2019-04-04T13:42:08Z</time>
      </trkpt>
      <trkpt lat="60.18631" lon="7.48306">
        <ele>1267.16</ele>
        <time>2019-04-04T13:42:12Z</time>
      </trkpt>
      <trkpt lat="60.18622" lon="7.48325">
        <ele>1265.23</ele>
        <time>2019-04-04T13:42:14Z</time>
      </trkpt>
      <trkpt lat="60.18609" lon="7.48357">
        <ele>1263.79</ele>
        <time>2019-04-04T13:42:17Z</time>
      </trkpt>
      <trkpt lat="60.186" lon="7.48378">
        <ele>1262.83</ele>
        <time>2019-04-04T13:42:19Z</time>
      </trkpt>
      <trkpt lat="60.18591" lon="7.48395">
        <ele>1265.23</ele>
        <time>2019-04-04T13:42:21Z</time>
      </trkpt>
      <trkpt lat="60.18579" lon="7.48418">
        <ele>1264.27</ele>
        <time>2019-04-04T13:42:24Z</time>
      </trkpt>
      <trkpt lat="60.18568" lon="7.48431">
        <ele>1263.31</ele>
        <time>2019-04-04T13:42:26Z</time>
      </trkpt>
      <trkpt lat="60.18558" lon="7.48441">
        <ele>1265.23</ele>
        <time>2019-04-04T13:42:28Z</time>
      </trkpt>
      <trkpt lat="60.1855" lon="7.48453">
        <ele>1260.43</ele>
        <time>2019-04-04T13:42:30Z</time>
      </trkpt>
      <trkpt lat="60.18546" lon="7.4846">
        <ele>1260.43</ele>
        <time>2019-04-04T13:42:31Z</time>
      </trkpt>
      <trkpt lat="60.18542" lon="7.48468">
        <ele>1260.43</ele>
        <time>2019-04-04T13:42:32Z</time>
      </trkpt>
      <trkpt lat="60.18525" lon="7.48499">
        <ele>1255.62</ele>
        <time>2019-04-04T13:42:35Z</time>
      </trkpt>
      <trkpt lat="60.1852" lon="7.48509">
        <ele>1258.98</ele>
        <time>2019-04-04T13:42:36Z</time>
      </trkpt>
      <trkpt lat="60.18497" lon="7.48545">
        <ele>1254.66</ele>
        <time>2019-04-04T13:42:39Z</time>
      </trkpt>
      <trkpt lat="60.18482" lon="7.48568">
        <ele>1253.7</ele>
        <time>2019-04-04T13:42:41Z</time>
      </trkpt>
      <trkpt lat="60.18468" lon="7.48586">
        <ele>1255.62</ele>
        <time>2019-04-04T13:42:43Z</time>
      </trkpt>
      <trkpt lat="60.18439" lon="7.48625">
        <ele>1258.5</ele>
        <time>2019-04-04T13:42:48Z</time>
      </trkpt>
      <trkpt lat="60.18427" lon="7.48639">
        <ele>1260.43</ele>
        <time>2019-04-04T13:42:50Z</time>
      </trkpt>
      <trkpt lat="60.18408" lon="7.48657">
        <ele>1260.43</ele>
        <time>2019-04-04T13:42:53Z</time>
      </trkpt>
      <trkpt lat="60.18379" lon="7.48679">
        <ele>1258.02</ele>
        <time>2019-04-04T13:42:57Z</time>
      </trkpt>
      <trkpt lat="60.18364" lon="7.4869">
        <ele>1257.06</ele>
        <time>2019-04-04T13:42:59Z</time>
      </trkpt>
      <trkpt lat="60.18331" lon="7.48716">
        <ele>1258.02</ele>
        <time>2019-04-04T13:43:04Z</time>
      </trkpt>
      <trkpt lat="60.18314" lon="7.48733">
        <ele>1254.18</ele>
        <time>2019-04-04T13:43:07Z</time>
      </trkpt>
      <trkpt lat="60.18309" lon="7.48741">
        <ele>1254.18</ele>
        <time>2019-04-04T13:43:08Z</time>
      </trkpt>
      <trkpt lat="60.18299" lon="7.48758">
        <ele>1253.7</ele>
        <time>2019-04-04T13:43:10Z</time>
      </trkpt>
      <trkpt lat="60.18256" lon="7.48853">
        <ele>1248.41</ele>
        <time>2019-04-04T13:43:19Z</time>
      </trkpt>
      <trkpt lat="60.18251" lon="7.48863">
        <ele>1248.41</ele>
        <time>2019-04-04T13:43:20Z</time>
      </trkpt>
      <trkpt lat="60.18224" lon="7.48919">
        <ele>1250.81</ele>
        <time>2019-04-04T13:43:25Z</time>
      </trkpt>
      <trkpt lat="60.18212" lon="7.4894">
        <ele>1251.77</ele>
        <time>2019-04-04T13:43:27Z</time>
      </trkpt>
      <trkpt lat="60.18189" lon="7.48976">
        <ele>1250.33</ele>
        <time>2019-04-04T13:43:31Z</time>
      </trkpt>
      <trkpt lat="60.18167" lon="7.49013">
        <ele>1248.41</ele>
        <time>2019-04-04T13:43:35Z</time>
      </trkpt>
      <trkpt lat="60.18155" lon="7.49032">
        <ele>1250.81</ele>
        <time>2019-04-04T13:43:37Z</time>
      </trkpt>
      <trkpt lat="60.1815" lon="7.49042">
        <ele>1250.81</ele>
        <time>2019-04-04T13:43:38Z</time>
      </trkpt>
      <trkpt lat="60.18107" lon="7.4911">
        <ele>1249.85</ele>
        <time>2019-04-04T13:43:45Z</time>
      </trkpt>
      <trkpt lat="60.18076" lon="7.49169">
        <ele>1251.77</ele>
        <time>2019-04-04T13:43:51Z</time>
      </trkpt>
      <trkpt lat="60.18071" lon="7.49178">
        <ele>1251.77</ele>
        <time>2019-04-04T13:43:52Z</time>
      </trkpt>
      <trkpt lat="60.18067" lon="7.49187">
        <ele>1251.77</ele>
        <time>2019-04-04T13:43:53Z</time>
      </trkpt>
      <trkpt lat="60.18056" lon="7.49213">
        <ele>1250.81</ele>
        <time>2019-04-04T13:43:56Z</time>
      </trkpt>
      <trkpt lat="60.18005" lon="7.49304">
        <ele>1247.45</ele>
        <time>2019-04-04T13:44:06Z</time>
      </trkpt>
      <trkpt lat="60.18" lon="7.49314">
        <ele>1247.45</ele>
        <time>2019-04-04T13:44:07Z</time>
      </trkpt>
      <trkpt lat="60.17932" lon="7.49405">
        <ele>1245.04</ele>
        <time>2019-04-04T13:44:17Z</time>
      </trkpt>
      <trkpt lat="60.17889" lon="7.49453">
        <ele>1246.01</ele>
        <time>2019-04-04T13:44:23Z</time>
      </trkpt>
      <trkpt lat="60.17876" lon="7.4947">
        <ele>1245.04</ele>
        <time>2019-04-04T13:44:25Z</time>
      </trkpt>
      <trkpt lat="60.17869" lon="7.49478">
        <ele>1245.04</ele>
        <time>2019-04-04T13:44:26Z</time>
      </trkpt>
      <trkpt lat="60.17835" lon="7.49533">
        <ele>1243.12</ele>
        <time>2019-04-04T13:44:32Z</time>
      </trkpt>
      <trkpt lat="60.17814" lon="7.49568">
        <ele>1245.53</ele>
        <time>2019-04-04T13:44:36Z</time>
      </trkpt>
      <trkpt lat="60.17787" lon="7.49618">
        <ele>1244.08</ele>
        <time>2019-04-04T13:44:42Z</time>
      </trkpt>
      <trkpt lat="60.17781" lon="7.49626">
        <ele>1244.08</ele>
        <time>2019-04-04T13:44:43Z</time>
      </trkpt>
      <trkpt lat="60.17759" lon="7.49658">
        <ele>1244.56</ele>
        <time>2019-04-04T13:44:47Z</time>
      </trkpt>
      <trkpt lat="60.17746" lon="7.49675">
        <ele>1243.12</ele>
        <time>2019-04-04T13:44:49Z</time>
      </trkpt>
      <trkpt lat="60.17734" lon="7.49693">
        <ele>1246.49</ele>
        <time>2019-04-04T13:44:51Z</time>
      </trkpt>
      <trkpt lat="60.17728" lon="7.49703">
        <ele>1246.49</ele>
        <time>2019-04-04T13:44:52Z</time>
      </trkpt>
      <trkpt lat="60.17673" lon="7.49798">
        <ele>1246.01</ele>
        <time>2019-04-04T13:45:02Z</time>
      </trkpt>
      <trkpt lat="60.17639" lon="7.49871">
        <ele>1246.97</ele>
        <time>2019-04-04T13:45:09Z</time>
      </trkpt>
      <trkpt lat="60.17627" lon="7.49892">
        <ele>1242.64</ele>
        <time>2019-04-04T13:45:11Z</time>
      </trkpt>
      <trkpt lat="60.17595" lon="7.49938">
        <ele>1246.97</ele>
        <time>2019-04-04T13:45:16Z</time>
      </trkpt>
      <trkpt lat="60.17584" lon="7.49955">
        <ele>1247.45</ele>
        <time>2019-04-04T13:45:18Z</time>
      </trkpt>
      <trkpt lat="60.17567" lon="7.49981">
        <ele>1248.89</ele>
        <time>2019-04-04T13:45:21Z</time>
      </trkpt>
      <trkpt lat="60.1753" lon="7.50042">
        <ele>1251.29</ele>
        <time>2019-04-04T13:45:28Z</time>
      </trkpt>
      <trkpt lat="60.17483" lon="7.50154">
        <ele>1251.29</ele>
        <time>2019-04-04T13:45:39Z</time>
      </trkpt>
      <trkpt lat="60.17467" lon="7.50194">
        <ele>1248.89</ele>
        <time>2019-04-04T13:45:43Z</time>
      </trkpt>
      <trkpt lat="60.17431" lon="7.50303">
        <ele>1246.49</ele>
        <time>2019-04-04T13:45:53Z</time>
      </trkpt>
      <trkpt lat="60.17421" lon="7.5034">
        <ele>1245.53</ele>
        <time>2019-04-04T13:45:56Z</time>
      </trkpt>
      <trkpt lat="60.1741" lon="7.50371">
        <ele>1242.64</ele>
        <time>2019-04-04T13:45:59Z</time>
      </trkpt>
      <trkpt lat="60.17392" lon="7.50406">
        <ele>1246.49</ele>
        <time>2019-04-04T13:46:03Z</time>
      </trkpt>
      <trkpt lat="60.1738" lon="7.50435">
        <ele>1246.49</ele>
        <time>2019-04-04T13:46:06Z</time>
      </trkpt>
      <trkpt lat="60.17372" lon="7.50452">
        <ele>1244.56</ele>
        <time>2019-04-04T13:46:08Z</time>
      </trkpt>
      <trkpt lat="60.17362" lon="7.5047">
        <ele>1246.49</ele>
        <time>2019-04-04T13:46:10Z</time>
      </trkpt>
      <trkpt lat="60.17329" lon="7.50522">
        <ele>1245.04</ele>
        <time>2019-04-04T13:46:16Z</time>
      </trkpt>
      <trkpt lat="60.17277" lon="7.50594">
        <ele>1244.08</ele>
        <time>2019-04-04T13:46:24Z</time>
      </trkpt>
      <trkpt lat="60.17253" lon="7.50632">
        <ele>1243.6</ele>
        <time>2019-04-04T13:46:28Z</time>
      </trkpt>
      <trkpt lat="60.17206" lon="7.50706">
        <ele>1241.68</ele>
        <time>2019-04-04T13:46:36Z</time>
      </trkpt>
      <trkpt lat="60.17144" lon="7.50815">
        <ele>1239.76</ele>
        <time>2019-04-04T13:46:47Z</time>
      </trkpt>
      <trkpt lat="60.17082" lon="7.50913">
        <ele>1240.72</ele>
        <time>2019-04-04T13:46:57Z</time>
      </trkpt>
      <trkpt lat="60.17033" lon="7.50986">
        <ele>1241.2</ele>
        <time>2019-04-04T13:47:05Z</time>
      </trkpt>
      <trkpt lat="60.17006" lon="7.51022">
        <ele>1242.64</ele>
        <time>2019-04-04T13:47:09Z</time>
      </trkpt>
      <trkpt lat="60.16971" lon="7.51073">
        <ele>1239.76</ele>
        <time>2019-04-04T13:47:14Z</time>
      </trkpt>
      <trkpt lat="60.16955" lon="7.51092">
        <ele>1237.83</ele>
        <time>2019-04-04T13:47:16Z</time>
      </trkpt>
      <trkpt lat="60.16883" lon="7.51156">
        <ele>1236.87</ele>
        <time>2019-04-04T13:47:24Z</time>
      </trkpt>
      <trkpt lat="60.16799" lon="7.51226">
        <ele>1236.39</ele>
        <time>2019-04-04T13:47:34Z</time>
      </trkpt>
      <trkpt lat="60.16783" lon="7.51241">
        <ele>1237.83</ele>
        <time>2019-04-04T13:47:36Z</time>
      </trkpt>
      <trkpt lat="60.16701" lon="7.5133">
        <ele>1238.32</ele>
        <time>2019-04-04T13:47:47Z</time>
      </trkpt>
      <trkpt lat="60.16673" lon="7.51363">
        <ele>1236.87</ele>
        <time>2019-04-04T13:47:51Z</time>
      </trkpt>
      <trkpt lat="60.16658" lon="7.5138">
        <ele>1237.83</ele>
        <time>2019-04-04T13:47:53Z</time>
      </trkpt>
      <trkpt lat="60.16644" lon="7.51396">
        <ele>1236.87</ele>
        <time>2019-04-04T13:47:55Z</time>
      </trkpt>
      <trkpt lat="60.16636" lon="7.51404">
        <ele>1236.87</ele>
        <time>2019-04-04T13:47:56Z</time>
      </trkpt>
      <trkpt lat="60.16621" lon="7.51419">
        <ele>1238.32</ele>
        <time>2019-04-04T13:47:58Z</time>
      </trkpt>
      <trkpt lat="60.16548" lon="7.51503">
        <ele>1238.32</ele>
        <time>2019-04-04T13:48:08Z</time>
      </trkpt>
      <trkpt lat="60.16505" lon="7.51555">
        <ele>1236.39</ele>
        <time>2019-04-04T13:48:15Z</time>
      </trkpt>
      <trkpt lat="60.16497" lon="7.51563">
        <ele>1235.91</ele>
        <time>2019-04-04T13:48:17Z</time>
      </trkpt>
      <trkpt lat="60.16475" lon="7.51589">
        <ele>1236.39</ele>
        <time>2019-04-04T13:48:22Z</time>
      </trkpt>
      <trkpt lat="60.16447" lon="7.51642">
        <ele>1234.95</ele>
        <time>2019-04-04T13:48:28Z</time>
      </trkpt>
      <trkpt lat="60.16429" lon="7.51662">
        <ele>1236.39</ele>
        <time>2019-04-04T13:48:31Z</time>
      </trkpt>
      <trkpt lat="60.16398" lon="7.51703">
        <ele>1238.32</ele>
        <time>2019-04-04T13:48:36Z</time>
      </trkpt>
      <trkpt lat="60.16351" lon="7.51754">
        <ele>1237.83</ele>
        <time>2019-04-04T13:48:43Z</time>
      </trkpt>
      <trkpt lat="60.16338" lon="7.51769">
        <ele>1239.76</ele>
        <time>2019-04-04T13:48:45Z</time>
      </trkpt>
      <trkpt lat="60.16285" lon="7.51833">
        <ele>1238.32</ele>
        <time>2019-04-04T13:48:53Z</time>
      </trkpt>
      <trkpt lat="60.16279" lon="7.51841">
        <ele>1240.24</ele>
        <time>2019-04-04T13:48:54Z</time>
      </trkpt>
      <trkpt lat="60.16261" lon="7.51863">
        <ele>1239.28</ele>
        <time>2019-04-04T13:48:57Z</time>
      </trkpt>
      <trkpt lat="60.16241" lon="7.51889">
        <ele>1239.28</ele>
        <time>2019-04-04T13:49:01Z</time>
      </trkpt>
      <trkpt lat="60.16234" lon="7.51902">
        <ele>1239.28</ele>
        <time>2019-04-04T13:49:03Z</time>
      </trkpt>
      <trkpt lat="60.16228" lon="7.51914">
        <ele>1241.68</ele>
        <time>2019-04-04T13:49:05Z</time>
      </trkpt>
      <trkpt lat="60.16223" lon="7.51924">
        <ele>1240.24</ele>
        <time>2019-04-04T13:49:07Z</time>
      </trkpt>
      <trkpt lat="60.16224" lon="7.51922">
        <ele>1242.64</ele>
        <time>2019-04-04T13:49:11Z</time>
      </trkpt>
      <trkpt lat="60.16236" lon="7.51929">
        <ele>1243.12</ele>
        <time>2019-04-04T13:49:14Z</time>
      </trkpt>
      <trkpt lat="60.16247" lon="7.51933">
        <ele>1243.12</ele>
        <time>2019-04-04T13:49:16Z</time>
      </trkpt>
      <trkpt lat="60.16261" lon="7.51934">
        <ele>1243.12</ele>
        <time>2019-04-04T13:49:18Z</time>
      </trkpt>
      <trkpt lat="60.16344" lon="7.51946">
        <ele>1243.12</ele>
        <time>2019-04-04T13:49:29Z</time>
      </trkpt>
      <trkpt lat="60.16364" lon="7.5196">
        <ele>1243.12</ele>
        <time>2019-04-04T13:49:32Z</time>
      </trkpt>
      <trkpt lat="60.16404" lon="7.5199">
        <ele>1241.68</ele>
        <time>2019-04-04T13:49:38Z</time>
      </trkpt>
      <trkpt lat="60.16431" lon="7.52026">
        <ele>1240.72</ele>
        <time>2019-04-04T13:49:44Z</time>
      </trkpt>
      <trkpt lat="60.16435" lon="7.52025">
        <ele>1237.35</ele>
        <time>2019-04-04T13:49:49Z</time>
      </trkpt>
      <trkpt lat="60.16435" lon="7.52027">
        <ele>1236.87</ele>
        <time>2019-04-04T13:49:58Z</time>
      </trkpt>
      <trkpt lat="60.16435" lon="7.52027">
        <ele>1238.32</ele>
        <time>2019-04-04T13:50:01Z</time>
      </trkpt>
      <trkpt lat="60.16435" lon="7.52027">
        <ele>1238.32</ele>
        <time>2019-04-04T13:50:06Z</time>
      </trkpt>
      <trkpt lat="60.16429" lon="7.52024">
        <ele>1238.32</ele>
        <time>2019-04-04T13:50:18Z</time>
      </trkpt>
      <trkpt lat="60.16417" lon="7.52023">
        <ele>1237.35</ele>
        <time>2019-04-04T13:50:26Z</time>
      </trkpt>
      <trkpt lat="60.16415" lon="7.52025">
        <ele>1238.32</ele>
        <time>2019-04-04T13:50:29Z</time>
      </trkpt>
      <trkpt lat="60.16414" lon="7.52024">
        <ele>1237.83</ele>
        <time>2019-04-04T13:50:40Z</time>
      </trkpt>
      <trkpt lat="60.16412" lon="7.52017">
        <ele>1237.83</ele>
        <time>2019-04-04T13:50:48Z</time>
      </trkpt>
      <trkpt lat="60.16412" lon="7.52016">
        <ele>1237.83</ele>
        <time>2019-04-04T13:50:54Z</time>
      </trkpt>
      <trkpt lat="60.16419" lon="7.51997">
        <ele>1237.83</ele>
        <time>2019-04-04T13:51:00Z</time>
      </trkpt>
      <trkpt lat="60.1643" lon="7.51983">
        <ele>1239.76</ele>
        <time>2019-04-04T13:51:02Z</time>
      </trkpt>
      <trkpt lat="60.16463" lon="7.51971">
        <ele>1241.68</ele>
        <time>2019-04-04T13:51:06Z</time>
      </trkpt>
      <trkpt lat="60.16553" lon="7.51947">
        <ele>1242.16</ele>
        <time>2019-04-04T13:51:15Z</time>
      </trkpt>
      <trkpt lat="60.16635" lon="7.5192">
        <ele>1240.24</ele>
        <time>2019-04-04T13:51:23Z</time>
      </trkpt>
      <trkpt lat="60.16744" lon="7.51878">
        <ele>1241.68</ele>
        <time>2019-04-04T13:51:34Z</time>
      </trkpt>
      <trkpt lat="60.16822" lon="7.5186">
        <ele>1241.68</ele>
        <time>2019-04-04T13:51:42Z</time>
      </trkpt>
      <trkpt lat="60.169" lon="7.51844">
        <ele>1240.72</ele>
        <time>2019-04-04T13:51:50Z</time>
      </trkpt>
      <trkpt lat="60.16974" lon="7.51834">
        <ele>1242.16</ele>
        <time>2019-04-04T13:51:58Z</time>
      </trkpt>
      <trkpt lat="60.17049" lon="7.51847">
        <ele>1240.72</ele>
        <time>2019-04-04T13:52:07Z</time>
      </trkpt>
      <trkpt lat="60.17065" lon="7.51849">
        <ele>1242.16</ele>
        <time>2019-04-04T13:52:09Z</time>
      </trkpt>
      <trkpt lat="60.17081" lon="7.51853">
        <ele>1243.6</ele>
        <time>2019-04-04T13:52:11Z</time>
      </trkpt>
      <trkpt lat="60.17149" lon="7.5187">
        <ele>1241.2</ele>
        <time>2019-04-04T13:52:19Z</time>
      </trkpt>
      <trkpt lat="60.17193" lon="7.51887">
        <ele>1242.64</ele>
        <time>2019-04-04T13:52:25Z</time>
      </trkpt>
      <trkpt lat="60.17268" lon="7.51915">
        <ele>1245.04</ele>
        <time>2019-04-04T13:52:35Z</time>
      </trkpt>
      <trkpt lat="60.17284" lon="7.51921">
        <ele>1245.53</ele>
        <time>2019-04-04T13:52:37Z</time>
      </trkpt>
      <trkpt lat="60.17338" lon="7.51938">
        <ele>1246.97</ele>
        <time>2019-04-04T13:52:44Z</time>
      </trkpt>
      <trkpt lat="60.17356" lon="7.51949">
        <ele>1246.97</ele>
        <time>2019-04-04T13:52:47Z</time>
      </trkpt>
      <trkpt lat="60.1739" lon="7.51962">
        <ele>1248.41</ele>
        <time>2019-04-04T13:52:52Z</time>
      </trkpt>
      <trkpt lat="60.17408" lon="7.51971">
        <ele>1248.89</ele>
        <time>2019-04-04T13:52:55Z</time>
      </trkpt>
      <trkpt lat="60.17421" lon="7.51978">
        <ele>1249.85</ele>
        <time>2019-04-04T13:52:57Z</time>
      </trkpt>
      <trkpt lat="60.17433" lon="7.51982">
        <ele>1247.93</ele>
        <time>2019-04-04T13:53:01Z</time>
      </trkpt>
      <trkpt lat="60.17425" lon="7.52008">
        <ele>1245.53</ele>
        <time>2019-04-04T13:53:07Z</time>
      </trkpt>
      <trkpt lat="60.17418" lon="7.52035">
        <ele>1245.04</ele>
        <time>2019-04-04T13:53:11Z</time>
      </trkpt>
      <trkpt lat="60.17406" lon="7.52073">
        <ele>1244.08</ele>
        <time>2019-04-04T13:53:16Z</time>
      </trkpt>
      <trkpt lat="60.17403" lon="7.52075">
        <ele>1246.01</ele>
        <time>2019-04-04T13:53:17Z</time>
      </trkpt>
      <trkpt lat="60.17403" lon="7.52071">
        <ele>1246.01</ele>
        <time>2019-04-04T13:53:18Z</time>
      </trkpt>
      <trkpt lat="60.17411" lon="7.52066">
        <ele>1248.41</ele>
        <time>2019-04-04T13:53:21Z</time>
      </trkpt>
      <trkpt lat="60.17426" lon="7.52072">
        <ele>1249.37</ele>
        <time>2019-04-04T13:53:25Z</time>
      </trkpt>
      <trkpt lat="60.17437" lon="7.5207">
        <ele>1249.85</ele>
        <time>2019-04-04T13:53:27Z</time>
      </trkpt>
      <trkpt lat="60.17465" lon="7.52071">
        <ele>1251.77</ele>
        <time>2019-04-04T13:53:31Z</time>
      </trkpt>
      <trkpt lat="60.17473" lon="7.52072">
        <ele>1253.22</ele>
        <time>2019-04-04T13:53:32Z</time>
      </trkpt>
      <trkpt lat="60.17489" lon="7.52071">
        <ele>1253.7</ele>
        <time>2019-04-04T13:53:34Z</time>
      </trkpt>
      <trkpt lat="60.17515" lon="7.52065">
        <ele>1255.62</ele>
        <time>2019-04-04T13:53:37Z</time>
      </trkpt>
      <trkpt lat="60.17558" lon="7.52054">
        <ele>1258.02</ele>
        <time>2019-04-04T13:53:42Z</time>
      </trkpt>
      <trkpt lat="60.17582" lon="7.52046">
        <ele>1259.94</ele>
        <time>2019-04-04T13:53:45Z</time>
      </trkpt>
      <trkpt lat="60.17613" lon="7.5204">
        <ele>1263.79</ele>
        <time>2019-04-04T13:53:49Z</time>
      </trkpt>
      <trkpt lat="60.17636" lon="7.52031">
        <ele>1266.67</ele>
        <time>2019-04-04T13:53:52Z</time>
      </trkpt>
      <trkpt lat="60.17644" lon="7.52027">
        <ele>1266.67</ele>
        <time>2019-04-04T13:53:53Z</time>
      </trkpt>
      <trkpt lat="60.17652" lon="7.52022">
        <ele>1266.67</ele>
        <time>2019-04-04T13:53:54Z</time>
      </trkpt>
      <trkpt lat="60.17692" lon="7.52006">
        <ele>1268.6</ele>
        <time>2019-04-04T13:53:59Z</time>
      </trkpt>
      <trkpt lat="60.17714" lon="7.51999">
        <ele>1271</ele>
        <time>2019-04-04T13:54:02Z</time>
      </trkpt>
      <trkpt lat="60.17741" lon="7.51995">
        <ele>1275.33</ele>
        <time>2019-04-04T13:54:06Z</time>
      </trkpt>
      <trkpt lat="60.1777" lon="7.51989">
        <ele>1278.21</ele>
        <time>2019-04-04T13:54:10Z</time>
      </trkpt>
      <trkpt lat="60.17797" lon="7.51983">
        <ele>1282.06</ele>
        <time>2019-04-04T13:54:14Z</time>
      </trkpt>
      <trkpt lat="60.17803" lon="7.51983">
        <ele>1282.54</ele>
        <time>2019-04-04T13:54:15Z</time>
      </trkpt>
      <trkpt lat="60.1782" lon="7.51977">
        <ele>1284.46</ele>
        <time>2019-04-04T13:54:18Z</time>
      </trkpt>
      <trkpt lat="60.17831" lon="7.51973">
        <ele>1285.9</ele>
        <time>2019-04-04T13:54:20Z</time>
      </trkpt>
      <trkpt lat="60.17843" lon="7.51967">
        <ele>1286.86</ele>
        <time>2019-04-04T13:54:22Z</time>
      </trkpt>
      <trkpt lat="60.17876" lon="7.51953">
        <ele>1287.82</ele>
        <time>2019-04-04T13:54:30Z</time>
      </trkpt>
      <trkpt lat="60.17867" lon="7.51916">
        <ele>1287.82</ele>
        <time>2019-04-04T13:54:35Z</time>
      </trkpt>
      <trkpt lat="60.17864" lon="7.5188">
        <ele>1287.82</ele>
        <time>2019-04-04T13:54:39Z</time>
      </trkpt>
      <trkpt lat="60.1788" lon="7.51834">
        <ele>1290.71</ele>
        <time>2019-04-04T13:54:44Z</time>
      </trkpt>
      <trkpt lat="60.17883" lon="7.51817">
        <ele>1292.63</ele>
        <time>2019-04-04T13:54:46Z</time>
      </trkpt>
      <trkpt lat="60.17882" lon="7.51801">
        <ele>1294.55</ele>
        <time>2019-04-04T13:54:48Z</time>
      </trkpt>
      <trkpt lat="60.17882" lon="7.5178">
        <ele>1296.48</ele>
        <time>2019-04-04T13:54:51Z</time>
      </trkpt>
      <trkpt lat="60.17881" lon="7.51746">
        <ele>1299.84</ele>
        <time>2019-04-04T13:54:59Z</time>
      </trkpt>
      <trkpt lat="60.17881" lon="7.51746">
        <ele>1300.32</ele>
        <time>2019-04-04T13:55:06Z</time>
      </trkpt>
      <trkpt lat="60.17881" lon="7.51747">
        <ele>1299.84</ele>
        <time>2019-04-04T13:55:23Z</time>
      </trkpt>
      <trkpt lat="60.17881" lon="7.51746">
        <ele>1298.88</ele>
        <time>2019-04-04T13:55:38Z</time>
      </trkpt>
      <trkpt lat="60.1788" lon="7.51747">
        <ele>1298.88</ele>
        <time>2019-04-04T13:55:59Z</time>
      </trkpt>
      <trkpt lat="60.1788" lon="7.51746">
        <ele>1298.88</ele>
        <time>2019-04-04T13:56:27Z</time>
      </trkpt>
      <trkpt lat="60.1788" lon="7.51746">
        <ele>1298.88</ele>
        <time>2019-04-04T13:56:47Z</time>
      </trkpt>
      <trkpt lat="60.1788" lon="7.51745">
        <ele>1300.8</ele>
        <time>2019-04-04T13:56:55Z</time>
      </trkpt>
      <trkpt lat="60.1788" lon="7.51745">
        <ele>1299.36</ele>
        <time>2019-04-04T13:57:15Z</time>
      </trkpt>
      <trkpt lat="60.17881" lon="7.51742">
        <ele>1301.28</ele>
        <time>2019-04-04T13:57:34Z</time>
      </trkpt>
      <trkpt lat="60.17897" lon="7.51747">
        <ele>1302.24</ele>
        <time>2019-04-04T13:57:40Z</time>
      </trkpt>
      <trkpt lat="60.17939" lon="7.51729">
        <ele>1303.2</ele>
        <time>2019-04-04T13:57:47Z</time>
      </trkpt>
      <trkpt lat="60.17952" lon="7.51729">
        <ele>1303.69</ele>
        <time>2019-04-04T13:57:49Z</time>
      </trkpt>
      <trkpt lat="60.17985" lon="7.51723">
        <ele>1303.69</ele>
        <time>2019-04-04T13:57:53Z</time>
      </trkpt>
      <trkpt lat="60.18023" lon="7.51704">
        <ele>1299.36</ele>
        <time>2019-04-04T13:57:57Z</time>
      </trkpt>
      <trkpt lat="60.18045" lon="7.51693">
        <ele>1297.92</ele>
        <time>2019-04-04T13:57:59Z</time>
      </trkpt>
      <trkpt lat="60.18076" lon="7.51685">
        <ele>1294.55</ele>
        <time>2019-04-04T13:58:02Z</time>
      </trkpt>
      <trkpt lat="60.18135" lon="7.51688">
        <ele>1289.75</ele>
        <time>2019-04-04T13:58:08Z</time>
      </trkpt>
      <trkpt lat="60.18155" lon="7.51688">
        <ele>1289.27</ele>
        <time>2019-04-04T13:58:10Z</time>
      </trkpt>
      <trkpt lat="60.18192" lon="7.51684">
        <ele>1287.34</ele>
        <time>2019-04-04T13:58:14Z</time>
      </trkpt>
      <trkpt lat="60.18286" lon="7.51662">
        <ele>1286.86</ele>
        <time>2019-04-04T13:58:24Z</time>
      </trkpt>
      <trkpt lat="60.18337" lon="7.51654">
        <ele>1283.98</ele>
        <time>2019-04-04T13:58:29Z</time>
      </trkpt>
      <trkpt lat="60.18426" lon="7.51624">
        <ele>1282.06</ele>
        <time>2019-04-04T13:58:38Z</time>
      </trkpt>
      <trkpt lat="60.18479" lon="7.51603">
        <ele>1283.5</ele>
        <time>2019-04-04T13:58:44Z</time>
      </trkpt>
      <trkpt lat="60.18574" lon="7.5159">
        <ele>1283.98</ele>
        <time>2019-04-04T13:58:55Z</time>
      </trkpt>
      <trkpt lat="60.18602" lon="7.51587">
        <ele>1282.54</ele>
        <time>2019-04-04T13:58:58Z</time>
      </trkpt>
      <trkpt lat="60.1868" lon="7.5157">
        <ele>1281.09</ele>
        <time>2019-04-04T13:59:07Z</time>
      </trkpt>
      <trkpt lat="60.18781" lon="7.51533">
        <ele>1280.61</ele>
        <time>2019-04-04T13:59:18Z</time>
      </trkpt>
      <trkpt lat="60.18883" lon="7.51485">
        <ele>1279.65</ele>
        <time>2019-04-04T13:59:29Z</time>
      </trkpt>
      <trkpt lat="60.18976" lon="7.51439">
        <ele>1279.17</ele>
        <time>2019-04-04T13:59:39Z</time>
      </trkpt>
      <trkpt lat="60.19053" lon="7.51374">
        <ele>1281.57</ele>
        <time>2019-04-04T13:59:48Z</time>
      </trkpt>
      <trkpt lat="60.19077" lon="7.51352">
        <ele>1282.54</ele>
        <time>2019-04-04T13:59:51Z</time>
      </trkpt>
      <trkpt lat="60.19097" lon="7.51327">
        <ele>1283.98</ele>
        <time>2019-04-04T13:59:54Z</time>
      </trkpt>
      <trkpt lat="60.19104" lon="7.51319">
        <ele>1283.98</ele>
        <time>2019-04-04T13:59:55Z</time>
      </trkpt>
      <trkpt lat="60.19167" lon="7.51276">
        <ele>1286.86</ele>
        <time>2019-04-04T14:00:04Z</time>
      </trkpt>
      <trkpt lat="60.19175" lon="7.51272">
        <ele>1286.86</ele>
        <time>2019-04-04T14:00:05Z</time>
      </trkpt>
      <trkpt lat="60.19219" lon="7.51236">
        <ele>1285.42</ele>
        <time>2019-04-04T14:00:10Z</time>
      </trkpt>
      <trkpt lat="60.19266" lon="7.51183">
        <ele>1282.06</ele>
        <time>2019-04-04T14:00:15Z</time>
      </trkpt>
      <trkpt lat="60.19351" lon="7.51048">
        <ele>1279.65</ele>
        <time>2019-04-04T14:00:25Z</time>
      </trkpt>
      <trkpt lat="60.19366" lon="7.51022">
        <ele>1279.65</ele>
        <time>2019-04-04T14:00:27Z</time>
      </trkpt>
      <trkpt lat="60.19391" lon="7.50993">
        <ele>1281.09</ele>
        <time>2019-04-04T14:00:30Z</time>
      </trkpt>
      <trkpt lat="60.19469" lon="7.50902">
        <ele>1282.54</ele>
        <time>2019-04-04T14:00:39Z</time>
      </trkpt>
      <trkpt lat="60.19559" lon="7.50802">
        <ele>1283.02</ele>
        <time>2019-04-04T14:00:49Z</time>
      </trkpt>
      <trkpt lat="60.19626" lon="7.50737">
        <ele>1286.38</ele>
        <time>2019-04-04T14:00:57Z</time>
      </trkpt>
      <trkpt lat="60.19692" lon="7.5066">
        <ele>1289.75</ele>
        <time>2019-04-04T14:01:06Z</time>
      </trkpt>
      <trkpt lat="60.19727" lon="7.50616">
        <ele>1291.67</ele>
        <time>2019-04-04T14:01:11Z</time>
      </trkpt>
      <trkpt lat="60.19757" lon="7.50595">
        <ele>1292.15</ele>
        <time>2019-04-04T14:01:15Z</time>
      </trkpt>
      <trkpt lat="60.19757" lon="7.50554">
        <ele>1290.71</ele>
        <time>2019-04-04T14:01:20Z</time>
      </trkpt>
      <trkpt lat="60.19753" lon="7.50548">
        <ele>1290.71</ele>
        <time>2019-04-04T14:01:21Z</time>
      </trkpt>
      <trkpt lat="60.19736" lon="7.50515">
        <ele>1291.67</ele>
        <time>2019-04-04T14:01:25Z</time>
      </trkpt>
      <trkpt lat="60.1973" lon="7.50499">
        <ele>1293.11</ele>
        <time>2019-04-04T14:01:27Z</time>
      </trkpt>
      <trkpt lat="60.1972" lon="7.50486">
        <ele>1294.55</ele>
        <time>2019-04-04T14:01:29Z</time>
      </trkpt>
      <trkpt lat="60.19703" lon="7.50469">
        <ele>1296.48</ele>
        <time>2019-04-04T14:01:32Z</time>
      </trkpt>
      <trkpt lat="60.19685" lon="7.50423">
        <ele>1299.84</ele>
        <time>2019-04-04T14:01:37Z</time>
      </trkpt>
      <trkpt lat="60.19683" lon="7.50414">
        <ele>1300.32</ele>
        <time>2019-04-04T14:01:38Z</time>
      </trkpt>
      <trkpt lat="60.19671" lon="7.50381">
        <ele>1304.17</ele>
        <time>2019-04-04T14:01:42Z</time>
      </trkpt>
      <trkpt lat="60.1967" lon="7.50368">
        <ele>1305.13</ele>
        <time>2019-04-04T14:01:44Z</time>
      </trkpt>
      <trkpt lat="60.19668" lon="7.50352">
        <ele>1308.01</ele>
        <time>2019-04-04T14:01:46Z</time>
      </trkpt>
      <trkpt lat="60.19664" lon="7.50337">
        <ele>1308.97</ele>
        <time>2019-04-04T14:01:48Z</time>
      </trkpt>
      <trkpt lat="60.19655" lon="7.503">
        <ele>1311.86</ele>
        <time>2019-04-04T14:01:55Z</time>
      </trkpt>
      <trkpt lat="60.19669" lon="7.50285">
        <ele>1314.26</ele>
        <time>2019-04-04T14:02:00Z</time>
      </trkpt>
      <trkpt lat="60.19676" lon="7.50275">
        <ele>1314.26</ele>
        <time>2019-04-04T14:02:02Z</time>
      </trkpt>
      <trkpt lat="60.19684" lon="7.50259">
        <ele>1314.26</ele>
        <time>2019-04-04T14:02:04Z</time>
      </trkpt>
      <trkpt lat="60.1971" lon="7.50232">
        <ele>1312.82</ele>
        <time>2019-04-04T14:02:08Z</time>
      </trkpt>
      <trkpt lat="60.19745" lon="7.50198">
        <ele>1308.49</ele>
        <time>2019-04-04T14:02:12Z</time>
      </trkpt>
      <trkpt lat="60.19761" lon="7.50173">
        <ele>1306.09</ele>
        <time>2019-04-04T14:02:14Z</time>
      </trkpt>
      <trkpt lat="60.19779" lon="7.50132">
        <ele>1309.93</ele>
        <time>2019-04-04T14:02:19Z</time>
      </trkpt>
      <trkpt lat="60.19779" lon="7.50126">
        <ele>1309.93</ele>
        <time>2019-04-04T14:02:20Z</time>
      </trkpt>
      <trkpt lat="60.19778" lon="7.50113">
        <ele>1311.86</ele>
        <time>2019-04-04T14:02:22Z</time>
      </trkpt>
      <trkpt lat="60.19779" lon="7.50086">
        <ele>1316.66</ele>
        <time>2019-04-04T14:02:26Z</time>
      </trkpt>
      <trkpt lat="60.19782" lon="7.50063">
        <ele>1320.03</ele>
        <time>2019-04-04T14:02:29Z</time>
      </trkpt>
      <trkpt lat="60.19788" lon="7.50044">
        <ele>1323.39</ele>
        <time>2019-04-04T14:02:32Z</time>
      </trkpt>
      <trkpt lat="60.19793" lon="7.50014">
        <ele>1328.2</ele>
        <time>2019-04-04T14:02:36Z</time>
      </trkpt>
      <trkpt lat="60.19796" lon="7.49977">
        <ele>1331.56</ele>
        <time>2019-04-04T14:02:41Z</time>
      </trkpt>
      <trkpt lat="60.19797" lon="7.49965">
        <ele>1333.01</ele>
        <time>2019-04-04T14:02:44Z</time>
      </trkpt>
      <trkpt lat="60.19797" lon="7.49943">
        <ele>1334.93</ele>
        <time>2019-04-04T14:02:47Z</time>
      </trkpt>
      <trkpt lat="60.19815" lon="7.49914">
        <ele>1335.41</ele>
        <time>2019-04-04T14:02:54Z</time>
      </trkpt>
      <trkpt lat="60.19826" lon="7.4991">
        <ele>1335.41</ele>
        <time>2019-04-04T14:02:57Z</time>
      </trkpt>
      <trkpt lat="60.19838" lon="7.49871">
        <ele>1330.6</ele>
        <time>2019-04-04T14:03:02Z</time>
      </trkpt>
      <trkpt lat="60.19826" lon="7.49845">
        <ele>1332.04</ele>
        <time>2019-04-04T14:03:06Z</time>
      </trkpt>
      <trkpt lat="60.19835" lon="7.49825">
        <ele>1332.04</ele>
        <time>2019-04-04T14:03:09Z</time>
      </trkpt>
      <trkpt lat="60.1984" lon="7.49822">
        <ele>1330.6</ele>
        <time>2019-04-04T14:03:10Z</time>
      </trkpt>
      <trkpt lat="60.19845" lon="7.49808">
        <ele>1328.2</ele>
        <time>2019-04-04T14:03:12Z</time>
      </trkpt>
      <trkpt lat="60.19845" lon="7.49801">
        <ele>1327.72</ele>
        <time>2019-04-04T14:03:13Z</time>
      </trkpt>
      <trkpt lat="60.19843" lon="7.49794">
        <ele>1326.76</ele>
        <time>2019-04-04T14:03:14Z</time>
      </trkpt>
      <trkpt lat="60.19842" lon="7.49786">
        <ele>1326.76</ele>
        <time>2019-04-04T14:03:15Z</time>
      </trkpt>
      <trkpt lat="60.19838" lon="7.49779">
        <ele>1326.76</ele>
        <time>2019-04-04T14:03:16Z</time>
      </trkpt>
      <trkpt lat="60.19835" lon="7.49772">
        <ele>1326.76</ele>
        <time>2019-04-04T14:03:17Z</time>
      </trkpt>
      <trkpt lat="60.19811" lon="7.49721">
        <ele>1323.39</ele>
        <time>2019-04-04T14:03:23Z</time>
      </trkpt>
      <trkpt lat="60.19801" lon="7.49696">
        <ele>1320.99</ele>
        <time>2019-04-04T14:03:25Z</time>
      </trkpt>
      <trkpt lat="60.19795" lon="7.49683">
        <ele>1320.99</ele>
        <time>2019-04-04T14:03:26Z</time>
      </trkpt>
      <trkpt lat="60.19787" lon="7.49672">
        <ele>1318.59</ele>
        <time>2019-04-04T14:03:27Z</time>
      </trkpt>
      <trkpt lat="60.1978" lon="7.49663">
        <ele>1318.1</ele>
        <time>2019-04-04T14:03:28Z</time>
      </trkpt>
      <trkpt lat="60.19773" lon="7.49654">
        <ele>1316.18</ele>
        <time>2019-04-04T14:03:29Z</time>
      </trkpt>
      <trkpt lat="60.19767" lon="7.49642">
        <ele>1318.1</ele>
        <time>2019-04-04T14:03:30Z</time>
      </trkpt>
      <trkpt lat="60.19762" lon="7.4963">
        <ele>1318.1</ele>
        <time>2019-04-04T14:03:31Z</time>
      </trkpt>
      <trkpt lat="60.19755" lon="7.4962">
        <ele>1316.18</ele>
        <time>2019-04-04T14:03:32Z</time>
      </trkpt>
      <trkpt lat="60.19742" lon="7.49596">
        <ele>1314.74</ele>
        <time>2019-04-04T14:03:34Z</time>
      </trkpt>
      <trkpt lat="60.1973" lon="7.49571">
        <ele>1313.3</ele>
        <time>2019-04-04T14:03:36Z</time>
      </trkpt>
      <trkpt lat="60.19716" lon="7.49534">
        <ele>1311.86</ele>
        <time>2019-04-04T14:03:39Z</time>
      </trkpt>
      <trkpt lat="60.19712" lon="7.49522">
        <ele>1310.41</ele>
        <time>2019-04-04T14:03:40Z</time>
      </trkpt>
      <trkpt lat="60.19697" lon="7.49479">
        <ele>1311.86</ele>
        <time>2019-04-04T14:03:44Z</time>
      </trkpt>
      <trkpt lat="60.19695" lon="7.49464">
        <ele>1313.3</ele>
        <time>2019-04-04T14:03:46Z</time>
      </trkpt>
      <trkpt lat="60.19692" lon="7.49446">
        <ele>1315.22</ele>
        <time>2019-04-04T14:03:49Z</time>
      </trkpt>
      <trkpt lat="60.19688" lon="7.4943">
        <ele>1319.07</ele>
        <time>2019-04-04T14:03:52Z</time>
      </trkpt>
      <trkpt lat="60.19682" lon="7.49411">
        <ele>1321.95</ele>
        <time>2019-04-04T14:03:55Z</time>
      </trkpt>
      <trkpt lat="60.19682" lon="7.494">
        <ele>1323.87</ele>
        <time>2019-04-04T14:03:57Z</time>
      </trkpt>
      <trkpt lat="60.19679" lon="7.4937">
        <ele>1328.2</ele>
        <time>2019-04-04T14:04:01Z</time>
      </trkpt>
      <trkpt lat="60.19683" lon="7.49348">
        <ele>1331.08</ele>
        <time>2019-04-04T14:04:05Z</time>
      </trkpt>
      <trkpt lat="60.19685" lon="7.49298">
        <ele>1336.85</ele>
        <time>2019-04-04T14:04:11Z</time>
      </trkpt>
      <trkpt lat="60.19685" lon="7.49289">
        <ele>1336.85</ele>
        <time>2019-04-04T14:04:12Z</time>
      </trkpt>
      <trkpt lat="60.19687" lon="7.49264">
        <ele>1340.7</ele>
        <time>2019-04-04T14:04:15Z</time>
      </trkpt>
      <trkpt lat="60.19687" lon="7.49256">
        <ele>1341.66</ele>
        <time>2019-04-04T14:04:16Z</time>
      </trkpt>
      <trkpt lat="60.19682" lon="7.49233">
        <ele>1343.58</ele>
        <time>2019-04-04T14:04:19Z</time>
      </trkpt>
      <trkpt lat="60.19659" lon="7.49223">
        <ele>1340.22</ele>
        <time>2019-04-04T14:04:23Z</time>
      </trkpt>
      <trkpt lat="60.19654" lon="7.49221">
        <ele>1340.22</ele>
        <time>2019-04-04T14:04:24Z</time>
      </trkpt>
      <trkpt lat="60.1965" lon="7.49192">
        <ele>1342.62</ele>
        <time>2019-04-04T14:04:28Z</time>
      </trkpt>
      <trkpt lat="60.19648" lon="7.49183">
        <ele>1342.62</ele>
        <time>2019-04-04T14:04:29Z</time>
      </trkpt>
      <trkpt lat="60.19629" lon="7.49155">
        <ele>1339.73</ele>
        <time>2019-04-04T14:04:33Z</time>
      </trkpt>
      <trkpt lat="60.19605" lon="7.49147">
        <ele>1339.73</ele>
        <time>2019-04-04T14:04:37Z</time>
      </trkpt>
      <trkpt lat="60.19585" lon="7.49147">
        <ele>1339.73</ele>
        <time>2019-04-04T14:04:41Z</time>
      </trkpt>
      <trkpt lat="60.19566" lon="7.49126">
        <ele>1340.22</ele>
        <time>2019-04-04T14:04:49Z</time>
      </trkpt>
      <trkpt lat="60.19557" lon="7.49101">
        <ele>1342.14</ele>
        <time>2019-04-04T14:04:55Z</time>
      </trkpt>
      <trkpt lat="60.19564" lon="7.49068">
        <ele>1345.98</ele>
        <time>2019-04-04T14:04:59Z</time>
      </trkpt>
      <trkpt lat="60.19568" lon="7.49064">
        <ele>1346.94</ele>
        <time>2019-04-04T14:05:00Z</time>
      </trkpt>
      <trkpt lat="60.19577" lon="7.49049">
        <ele>1350.31</ele>
        <time>2019-04-04T14:05:04Z</time>
      </trkpt>
      <trkpt lat="60.19588" lon="7.4902">
        <ele>1354.63</ele>
        <time>2019-04-04T14:05:08Z</time>
      </trkpt>
      <trkpt lat="60.19589" lon="7.49014">
        <ele>1356.56</ele>
        <time>2019-04-04T14:05:09Z</time>
      </trkpt>
      <trkpt lat="60.19581" lon="7.48996">
        <ele>1355.12</ele>
        <time>2019-04-04T14:05:13Z</time>
      </trkpt>
      <trkpt lat="60.19579" lon="7.48948">
        <ele>1354.15</ele>
        <time>2019-04-04T14:05:22Z</time>
      </trkpt>
      <trkpt lat="60.19579" lon="7.48938">
        <ele>1354.15</ele>
        <time>2019-04-04T14:05:23Z</time>
      </trkpt>
      <trkpt lat="60.19581" lon="7.48901">
        <ele>1351.27</ele>
        <time>2019-04-04T14:05:27Z</time>
      </trkpt>
      <trkpt lat="60.19583" lon="7.48877">
        <ele>1350.79</ele>
        <time>2019-04-04T14:05:31Z</time>
      </trkpt>
      <trkpt lat="60.19577" lon="7.48872">
        <ele>1348.39</ele>
        <time>2019-04-04T14:05:35Z</time>
      </trkpt>
      <trkpt lat="60.1956" lon="7.48902">
        <ele>1349.83</ele>
        <time>2019-04-04T14:05:40Z</time>
      </trkpt>
      <trkpt lat="60.1955" lon="7.48932">
        <ele>1349.83</ele>
        <time>2019-04-04T14:05:44Z</time>
      </trkpt>
      <trkpt lat="60.19543" lon="7.48953">
        <ele>1346.94</ele>
        <time>2019-04-04T14:05:47Z</time>
      </trkpt>
      <trkpt lat="60.1954" lon="7.48967">
        <ele>1348.87</ele>
        <time>2019-04-04T14:05:49Z</time>
      </trkpt>
      <trkpt lat="60.19537" lon="7.4899">
        <ele>1347.43</ele>
        <time>2019-04-04T14:05:52Z</time>
      </trkpt>
      <trkpt lat="60.19529" lon="7.48993">
        <ele>1345.98</ele>
        <time>2019-04-04T14:05:55Z</time>
      </trkpt>
      <trkpt lat="60.19507" lon="7.48999">
        <ele>1343.58</ele>
        <time>2019-04-04T14:06:00Z</time>
      </trkpt>
      <trkpt lat="60.19496" lon="7.49015">
        <ele>1340.22</ele>
        <time>2019-04-04T14:06:03Z</time>
      </trkpt>
      <trkpt lat="60.19493" lon="7.4902">
        <ele>1339.25</ele>
        <time>2019-04-04T14:06:04Z</time>
      </trkpt>
      <trkpt lat="60.1948" lon="7.49036">
        <ele>1335.89</ele>
        <time>2019-04-04T14:06:07Z</time>
      </trkpt>
      <trkpt lat="60.19469" lon="7.49048">
        <ele>1332.04</ele>
        <time>2019-04-04T14:06:09Z</time>
      </trkpt>
      <trkpt lat="60.19458" lon="7.49057">
        <ele>1327.24</ele>
        <time>2019-04-04T14:06:11Z</time>
      </trkpt>
      <trkpt lat="60.19454" lon="7.49057">
        <ele>1327.24</ele>
        <time>2019-04-04T14:06:12Z</time>
      </trkpt>
      <trkpt lat="60.19448" lon="7.49042">
        <ele>1327.24</ele>
        <time>2019-04-04T14:06:16Z</time>
      </trkpt>
      <trkpt lat="60.19446" lon="7.49036">
        <ele>1328.2</ele>
        <time>2019-04-04T14:06:18Z</time>
      </trkpt>
      <trkpt lat="60.19445" lon="7.49016">
        <ele>1329.64</ele>
        <time>2019-04-04T14:06:21Z</time>
      </trkpt>
      <trkpt lat="60.19428" lon="7.48971">
        <ele>1330.6</ele>
        <time>2019-04-04T14:06:26Z</time>
      </trkpt>
      <trkpt lat="60.19395" lon="7.48942">
        <ele>1327.24</ele>
        <time>2019-04-04T14:06:30Z</time>
      </trkpt>
      <trkpt lat="60.19386" lon="7.48938">
        <ele>1326.76</ele>
        <time>2019-04-04T14:06:31Z</time>
      </trkpt>
      <trkpt lat="60.19356" lon="7.48912">
        <ele>1328.68</ele>
        <time>2019-04-04T14:06:37Z</time>
      </trkpt>
      <trkpt lat="60.19354" lon="7.48903">
        <ele>1330.12</ele>
        <time>2019-04-04T14:06:40Z</time>
      </trkpt>
      <trkpt lat="60.19337" lon="7.48879">
        <ele>1329.64</ele>
        <time>2019-04-04T14:06:51Z</time>
      </trkpt>
      <trkpt lat="60.19322" lon="7.48857">
        <ele>1328.68</ele>
        <time>2019-04-04T14:06:57Z</time>
      </trkpt>
      <trkpt lat="60.19303" lon="7.48827">
        <ele>1332.04</ele>
        <time>2019-04-04T14:07:03Z</time>
      </trkpt>
      <trkpt lat="60.193" lon="7.48825">
        <ele>1332.52</ele>
        <time>2019-04-04T14:07:04Z</time>
      </trkpt>
      <trkpt lat="60.19293" lon="7.4882">
        <ele>1332.52</ele>
        <time>2019-04-04T14:07:06Z</time>
      </trkpt>
      <trkpt lat="60.19273" lon="7.48788">
        <ele>1332.52</ele>
        <time>2019-04-04T14:07:14Z</time>
      </trkpt>
      <trkpt lat="60.19259" lon="7.48759">
        <ele>1333.01</ele>
        <time>2019-04-04T14:07:24Z</time>
      </trkpt>
      <trkpt lat="60.19255" lon="7.48755">
        <ele>1333.01</ele>
        <time>2019-04-04T14:07:29Z</time>
      </trkpt>
      <trkpt lat="60.19243" lon="7.48739">
        <ele>1331.56</ele>
        <time>2019-04-04T14:07:38Z</time>
      </trkpt>
      <trkpt lat="60.19238" lon="7.48736">
        <ele>1330.6</ele>
        <time>2019-04-04T14:07:41Z</time>
      </trkpt>
      <trkpt lat="60.19226" lon="7.48738">
        <ele>1326.76</ele>
        <time>2019-04-04T14:07:46Z</time>
      </trkpt>
      <trkpt lat="60.19223" lon="7.48736">
        <ele>1326.76</ele>
        <time>2019-04-04T14:07:47Z</time>
      </trkpt>
      <trkpt lat="60.1922" lon="7.48736">
        <ele>1325.8</ele>
        <time>2019-04-04T14:07:48Z</time>
      </trkpt>
      <trkpt lat="60.19213" lon="7.48741">
        <ele>1325.31</ele>
        <time>2019-04-04T14:07:50Z</time>
      </trkpt>
      <trkpt lat="60.19207" lon="7.48751">
        <ele>1322.43</ele>
        <time>2019-04-04T14:07:52Z</time>
      </trkpt>
      <trkpt lat="60.19204" lon="7.48757">
        <ele>1321.47</ele>
        <time>2019-04-04T14:07:53Z</time>
      </trkpt>
      <trkpt lat="60.19197" lon="7.4877">
        <ele>1315.7</ele>
        <time>2019-04-04T14:07:55Z</time>
      </trkpt>
      <trkpt lat="60.19188" lon="7.48786">
        <ele>1314.26</ele>
        <time>2019-04-04T14:07:57Z</time>
      </trkpt>
      <trkpt lat="60.19182" lon="7.48805">
        <ele>1312.34</ele>
        <time>2019-04-04T14:07:59Z</time>
      </trkpt>
      <trkpt lat="60.19178" lon="7.48814">
        <ele>1304.65</ele>
        <time>2019-04-04T14:08:00Z</time>
      </trkpt>
      <trkpt lat="60.19163" lon="7.48858">
        <ele>1299.36</ele>
        <time>2019-04-04T14:08:04Z</time>
      </trkpt>
      <trkpt lat="60.19156" lon="7.48878">
        <ele>1297.44</ele>
        <time>2019-04-04T14:08:06Z</time>
      </trkpt>
      <trkpt lat="60.19139" lon="7.48905">
        <ele>1294.55</ele>
        <time>2019-04-04T14:08:09Z</time>
      </trkpt>
      <trkpt lat="60.19124" lon="7.4893">
        <ele>1295.03</ele>
        <time>2019-04-04T14:08:14Z</time>
      </trkpt>
      <trkpt lat="60.19123" lon="7.48925">
        <ele>1295.03</ele>
        <time>2019-04-04T14:08:15Z</time>
      </trkpt>
      <trkpt lat="60.19135" lon="7.48887">
        <ele>1297.92</ele>
        <time>2019-04-04T14:08:19Z</time>
      </trkpt>
      <trkpt lat="60.19155" lon="7.48868">
        <ele>1301.76</ele>
        <time>2019-04-04T14:08:22Z</time>
      </trkpt>
      <trkpt lat="60.19169" lon="7.48863">
        <ele>1304.17</ele>
        <time>2019-04-04T14:08:24Z</time>
      </trkpt>
      <trkpt lat="60.19196" lon="7.48856">
        <ele>1308.97</ele>
        <time>2019-04-04T14:08:28Z</time>
      </trkpt>
      <trkpt lat="60.19209" lon="7.48853">
        <ele>1310.9</ele>
        <time>2019-04-04T14:08:30Z</time>
      </trkpt>
      <trkpt lat="60.19238" lon="7.48855">
        <ele>1315.7</ele>
        <time>2019-04-04T14:08:35Z</time>
      </trkpt>
      <trkpt lat="60.19257" lon="7.48865">
        <ele>1317.14</ele>
        <time>2019-04-04T14:08:38Z</time>
      </trkpt>
      <trkpt lat="60.19281" lon="7.48878">
        <ele>1317.14</ele>
        <time>2019-04-04T14:08:43Z</time>
      </trkpt>
      <trkpt lat="60.19289" lon="7.48887">
        <ele>1318.1</ele>
        <time>2019-04-04T14:08:45Z</time>
      </trkpt>
      <trkpt lat="60.19306" lon="7.48915">
        <ele>1318.59</ele>
        <time>2019-04-04T14:08:50Z</time>
      </trkpt>
      <trkpt lat="60.19308" lon="7.48908">
        <ele>1320.03</ele>
        <time>2019-04-04T14:08:55Z</time>
      </trkpt>
      <trkpt lat="60.19298" lon="7.48914">
        <ele>1315.22</ele>
        <time>2019-04-04T14:08:58Z</time>
      </trkpt>
      <trkpt lat="60.19284" lon="7.48943">
        <ele>1311.86</ele>
        <time>2019-04-04T14:09:01Z</time>
      </trkpt>
      <trkpt lat="60.19272" lon="7.48959">
        <ele>1308.01</ele>
        <time>2019-04-04T14:09:03Z</time>
      </trkpt>
      <trkpt lat="60.19266" lon="7.48963">
        <ele>1308.01</ele>
        <time>2019-04-04T14:09:04Z</time>
      </trkpt>
      <trkpt lat="60.19254" lon="7.48976">
        <ele>1303.69</ele>
        <time>2019-04-04T14:09:07Z</time>
      </trkpt>
      <trkpt lat="60.19251" lon="7.48979">
        <ele>1302.72</ele>
        <time>2019-04-04T14:09:09Z</time>
      </trkpt>
      <trkpt lat="60.1925" lon="7.48979">
        <ele>1304.65</ele>
        <time>2019-04-04T14:09:13Z</time>
      </trkpt>
      <trkpt lat="60.19249" lon="7.4898">
        <ele>1304.65</ele>
        <time>2019-04-04T14:09:30Z</time>
      </trkpt>
      <trkpt lat="60.19247" lon="7.48978">
        <ele>1304.65</ele>
        <time>2019-04-04T14:09:57Z</time>
      </trkpt>
      <trkpt lat="60.19247" lon="7.48976">
        <ele>1304.65</ele>
        <time>2019-04-04T14:10:13Z</time>
      </trkpt>
      <trkpt lat="60.19246" lon="7.48976">
        <ele>1304.65</ele>
        <time>2019-04-04T14:10:29Z</time>
      </trkpt>
      <trkpt lat="60.19245" lon="7.48976">
        <ele>1303.2</ele>
        <time>2019-04-04T14:10:31Z</time>
      </trkpt>
      <trkpt lat="60.19244" lon="7.48977">
        <ele>1303.2</ele>
        <time>2019-04-04T14:10:37Z</time>
      </trkpt>
      <trkpt lat="60.19243" lon="7.48972">
        <ele>1303.2</ele>
        <time>2019-04-04T14:10:40Z</time>
      </trkpt>
      <trkpt lat="60.19248" lon="7.48967">
        <ele>1305.13</ele>
        <time>2019-04-04T14:10:44Z</time>
      </trkpt>
      <trkpt lat="60.19252" lon="7.48968">
        <ele>1305.61</ele>
        <time>2019-04-04T14:10:53Z</time>
      </trkpt>
      <trkpt lat="60.19252" lon="7.48968">
        <ele>1305.61</ele>
        <time>2019-04-04T14:10:57Z</time>
      </trkpt>
      <trkpt lat="60.1926" lon="7.48956">
        <ele>1307.05</ele>
        <time>2019-04-04T14:11:04Z</time>
      </trkpt>
      <trkpt lat="60.19265" lon="7.48947">
        <ele>1308.01</ele>
        <time>2019-04-04T14:11:07Z</time>
      </trkpt>
      <trkpt lat="60.19277" lon="7.48945">
        <ele>1309.93</ele>
        <time>2019-04-04T14:11:13Z</time>
      </trkpt>
      <trkpt lat="60.1929" lon="7.48919">
        <ele>1313.3</ele>
        <time>2019-04-04T14:11:17Z</time>
      </trkpt>
      <trkpt lat="60.193" lon="7.48916">
        <ele>1317.14</ele>
        <time>2019-04-04T14:11:19Z</time>
      </trkpt>
      <trkpt lat="60.1931" lon="7.48913">
        <ele>1320.51</ele>
        <time>2019-04-04T14:11:22Z</time>
      </trkpt>
      <trkpt lat="60.19313" lon="7.48912">
        <ele>1320.99</ele>
        <time>2019-04-04T14:11:23Z</time>
      </trkpt>
      <trkpt lat="60.19317" lon="7.48906">
        <ele>1322.91</ele>
        <time>2019-04-04T14:11:26Z</time>
      </trkpt>
      <trkpt lat="60.19303" lon="7.48901">
        <ele>1319.55</ele>
        <time>2019-04-04T14:11:32Z</time>
      </trkpt>
      <trkpt lat="60.19297" lon="7.48907">
        <ele>1316.66</ele>
        <time>2019-04-04T14:11:33Z</time>
      </trkpt>
      <trkpt lat="60.19262" lon="7.48926">
        <ele>1307.53</ele>
        <time>2019-04-04T14:11:37Z</time>
      </trkpt>
      <trkpt lat="60.19252" lon="7.48931">
        <ele>1305.13</ele>
        <time>2019-04-04T14:11:38Z</time>
      </trkpt>
      <trkpt lat="60.19233" lon="7.48941">
        <ele>1301.76</ele>
        <time>2019-04-04T14:11:40Z</time>
      </trkpt>
      <trkpt lat="60.19204" lon="7.48952">
        <ele>1298.88</ele>
        <time>2019-04-04T14:11:43Z</time>
      </trkpt>
      <trkpt lat="60.19185" lon="7.4897">
        <ele>1293.59</ele>
        <time>2019-04-04T14:11:46Z</time>
      </trkpt>
      <trkpt lat="60.19178" lon="7.48973">
        <ele>1293.11</ele>
        <time>2019-04-04T14:11:47Z</time>
      </trkpt>
      <trkpt lat="60.19133" lon="7.48959">
        <ele>1294.07</ele>
        <time>2019-04-04T14:11:55Z</time>
      </trkpt>
      <trkpt lat="60.19118" lon="7.48949">
        <ele>1295.03</ele>
        <time>2019-04-04T14:11:59Z</time>
      </trkpt>
      <trkpt lat="60.1911" lon="7.48951">
        <ele>1295.99</ele>
        <time>2019-04-04T14:12:03Z</time>
      </trkpt>
      <trkpt lat="60.19115" lon="7.48936">
        <ele>1296.96</ele>
        <time>2019-04-04T14:12:10Z</time>
      </trkpt>
      <trkpt lat="60.19117" lon="7.48929">
        <ele>1296.96</ele>
        <time>2019-04-04T14:12:19Z</time>
      </trkpt>
      <trkpt lat="60.19117" lon="7.48926">
        <ele>1296.48</ele>
        <time>2019-04-04T14:12:21Z</time>
      </trkpt>
      <trkpt lat="60.19127" lon="7.4891">
        <ele>1296.96</ele>
        <time>2019-04-04T14:12:26Z</time>
      </trkpt>
      <trkpt lat="60.19134" lon="7.48908">
        <ele>1296.96</ele>
        <time>2019-04-04T14:12:28Z</time>
      </trkpt>
      <trkpt lat="60.19141" lon="7.48891">
        <ele>1297.92</ele>
        <time>2019-04-04T14:12:34Z</time>
      </trkpt>
      <trkpt lat="60.19144" lon="7.48881">
        <ele>1298.88</ele>
        <time>2019-04-04T14:12:41Z</time>
      </trkpt>
      <trkpt lat="60.19155" lon="7.48858">
        <ele>1303.2</ele>
        <time>2019-04-04T14:12:45Z</time>
      </trkpt>
      <trkpt lat="60.19161" lon="7.48854">
        <ele>1304.17</ele>
        <time>2019-04-04T14:12:46Z</time>
      </trkpt>
      <trkpt lat="60.19188" lon="7.48837">
        <ele>1308.97</ele>
        <time>2019-04-04T14:12:50Z</time>
      </trkpt>
      <trkpt lat="60.19202" lon="7.48822">
        <ele>1314.26</ele>
        <time>2019-04-04T14:12:54Z</time>
      </trkpt>
      <trkpt lat="60.19195" lon="7.48795">
        <ele>1315.22</ele>
        <time>2019-04-04T14:13:03Z</time>
      </trkpt>
      <trkpt lat="60.19193" lon="7.48795">
        <ele>1315.22</ele>
        <time>2019-04-04T14:13:04Z</time>
      </trkpt>
      <trkpt lat="60.19189" lon="7.48795">
        <ele>1313.78</ele>
        <time>2019-04-04T14:13:06Z</time>
      </trkpt>
      <trkpt lat="60.19176" lon="7.48801">
        <ele>1310.9</ele>
        <time>2019-04-04T14:13:10Z</time>
      </trkpt>
      <trkpt lat="60.19152" lon="7.48798">
        <ele>1308.97</ele>
        <time>2019-04-04T14:13:17Z</time>
      </trkpt>
      <trkpt lat="60.19138" lon="7.48801">
        <ele>1306.57</ele>
        <time>2019-04-04T14:13:21Z</time>
      </trkpt>
      <trkpt lat="60.1913" lon="7.48798">
        <ele>1307.05</ele>
        <time>2019-04-04T14:13:24Z</time>
      </trkpt>
      <trkpt lat="60.19137" lon="7.48776">
        <ele>1311.38</ele>
        <time>2019-04-04T14:13:28Z</time>
      </trkpt>
      <trkpt lat="60.19151" lon="7.48775">
        <ele>1313.3</ele>
        <time>2019-04-04T14:13:30Z</time>
      </trkpt>
      <trkpt lat="60.19194" lon="7.4878">
        <ele>1317.62</ele>
        <time>2019-04-04T14:13:36Z</time>
      </trkpt>
      <trkpt lat="60.19214" lon="7.4878">
        <ele>1321.95</ele>
        <time>2019-04-04T14:13:40Z</time>
      </trkpt>
      <trkpt lat="60.19233" lon="7.48782">
        <ele>1326.76</ele>
        <time>2019-04-04T14:13:45Z</time>
      </trkpt>
      <trkpt lat="60.19245" lon="7.48789">
        <ele>1327.24</ele>
        <time>2019-04-04T14:13:51Z</time>
      </trkpt>
      <trkpt lat="60.19236" lon="7.48787">
        <ele>1323.39</ele>
        <time>2019-04-04T14:13:56Z</time>
      </trkpt>
      <trkpt lat="60.19233" lon="7.48787">
        <ele>1322.91</ele>
        <time>2019-04-04T14:13:57Z</time>
      </trkpt>
      <trkpt lat="60.1922" lon="7.48784">
        <ele>1322.43</ele>
        <time>2019-04-04T14:14:02Z</time>
      </trkpt>
      <trkpt lat="60.19205" lon="7.48793">
        <ele>1316.66</ele>
        <time>2019-04-04T14:14:05Z</time>
      </trkpt>
      <trkpt lat="60.19199" lon="7.488">
        <ele>1314.26</ele>
        <time>2019-04-04T14:14:06Z</time>
      </trkpt>
      <trkpt lat="60.19181" lon="7.48825">
        <ele>1307.53</ele>
        <time>2019-04-04T14:14:09Z</time>
      </trkpt>
      <trkpt lat="60.19176" lon="7.48836">
        <ele>1307.05</ele>
        <time>2019-04-04T14:14:10Z</time>
      </trkpt>
      <trkpt lat="60.1917" lon="7.48863">
        <ele>1303.2</ele>
        <time>2019-04-04T14:14:12Z</time>
      </trkpt>
      <trkpt lat="60.19165" lon="7.48887">
        <ele>1299.36</ele>
        <time>2019-04-04T14:14:14Z</time>
      </trkpt>
      <trkpt lat="60.19161" lon="7.48909">
        <ele>1298.4</ele>
        <time>2019-04-04T14:14:16Z</time>
      </trkpt>
      <trkpt lat="60.1916" lon="7.48918">
        <ele>1295.03</ele>
        <time>2019-04-04T14:14:17Z</time>
      </trkpt>
      <trkpt lat="60.19153" lon="7.48927">
        <ele>1294.07</ele>
        <time>2019-04-04T14:14:19Z</time>
      </trkpt>
      <trkpt lat="60.19148" lon="7.48921">
        <ele>1295.03</ele>
        <time>2019-04-04T14:14:21Z</time>
      </trkpt>
      <trkpt lat="60.1914" lon="7.48881">
        <ele>1297.92</ele>
        <time>2019-04-04T14:14:28Z</time>
      </trkpt>
      <trkpt lat="60.19141" lon="7.48881">
        <ele>1299.36</ele>
        <time>2019-04-04T14:14:35Z</time>
      </trkpt>
      <trkpt lat="60.1914" lon="7.48881">
        <ele>1299.36</ele>
        <time>2019-04-04T14:14:52Z</time>
      </trkpt>
      <trkpt lat="60.19155" lon="7.48867">
        <ele>1301.28</ele>
        <time>2019-04-04T14:14:57Z</time>
      </trkpt>
      <trkpt lat="60.19159" lon="7.48864">
        <ele>1302.24</ele>
        <time>2019-04-04T14:14:58Z</time>
      </trkpt>
      <trkpt lat="60.19181" lon="7.48855">
        <ele>1306.09</ele>
        <time>2019-04-04T14:15:03Z</time>
      </trkpt>
      <trkpt lat="60.19197" lon="7.48839">
        <ele>1310.41</ele>
        <time>2019-04-04T14:15:08Z</time>
      </trkpt>
      <trkpt lat="60.192" lon="7.48833">
        <ele>1311.38</ele>
        <time>2019-04-04T14:15:09Z</time>
      </trkpt>
      <trkpt lat="60.19213" lon="7.48805">
        <ele>1318.1</ele>
        <time>2019-04-04T14:15:13Z</time>
      </trkpt>
      <trkpt lat="60.19223" lon="7.48797">
        <ele>1321.47</ele>
        <time>2019-04-04T14:15:15Z</time>
      </trkpt>
      <trkpt lat="60.19234" lon="7.48785">
        <ele>1325.31</ele>
        <time>2019-04-04T14:15:18Z</time>
      </trkpt>
      <trkpt lat="60.19236" lon="7.48779">
        <ele>1326.28</ele>
        <time>2019-04-04T14:15:20Z</time>
      </trkpt>
      <trkpt lat="60.1922" lon="7.48789">
        <ele>1320.99</ele>
        <time>2019-04-04T14:15:25Z</time>
      </trkpt>
      <trkpt lat="60.1921" lon="7.48807">
        <ele>1313.78</ele>
        <time>2019-04-04T14:15:27Z</time>
      </trkpt>
      <trkpt lat="60.19194" lon="7.48838">
        <ele>1308.97</ele>
        <time>2019-04-04T14:15:30Z</time>
      </trkpt>
      <trkpt lat="60.19183" lon="7.48859">
        <ele>1304.65</ele>
        <time>2019-04-04T14:15:32Z</time>
      </trkpt>
      <trkpt lat="60.19172" lon="7.48879">
        <ele>1303.2</ele>
        <time>2019-04-04T14:15:34Z</time>
      </trkpt>
      <trkpt lat="60.19158" lon="7.48897">
        <ele>1296.96</ele>
        <time>2019-04-04T14:15:36Z</time>
      </trkpt>
      <trkpt lat="60.19144" lon="7.48912">
        <ele>1292.63</ele>
        <time>2019-04-04T14:15:38Z</time>
      </trkpt>
      <trkpt lat="60.19125" lon="7.48905">
        <ele>1294.55</ele>
        <time>2019-04-04T14:15:42Z</time>
      </trkpt>
      <trkpt lat="60.19135" lon="7.48882">
        <ele>1297.92</ele>
        <time>2019-04-04T14:15:46Z</time>
      </trkpt>
      <trkpt lat="60.19141" lon="7.48867">
        <ele>1300.32</ele>
        <time>2019-04-04T14:15:50Z</time>
      </trkpt>
      <trkpt lat="60.19142" lon="7.4886">
        <ele>1300.8</ele>
        <time>2019-04-04T14:15:52Z</time>
      </trkpt>
      <trkpt lat="60.19139" lon="7.48827">
        <ele>1304.17</ele>
        <time>2019-04-04T14:15:57Z</time>
      </trkpt>
      <trkpt lat="60.19139" lon="7.48817">
        <ele>1306.09</ele>
        <time>2019-04-04T14:16:00Z</time>
      </trkpt>
      <trkpt lat="60.19143" lon="7.48807">
        <ele>1308.01</ele>
        <time>2019-04-04T14:16:07Z</time>
      </trkpt>
      <trkpt lat="60.19142" lon="7.48809">
        <ele>1308.01</ele>
        <time>2019-04-04T14:16:21Z</time>
      </trkpt>
      <trkpt lat="60.19136" lon="7.48806">
        <ele>1306.57</ele>
        <time>2019-04-04T14:16:23Z</time>
      </trkpt>
      <trkpt lat="60.19124" lon="7.48808">
        <ele>1304.65</ele>
        <time>2019-04-04T14:16:25Z</time>
      </trkpt>
      <trkpt lat="60.19112" lon="7.488">
        <ele>1305.13</ele>
        <time>2019-04-04T14:16:28Z</time>
      </trkpt>
      <trkpt lat="60.19123" lon="7.48781">
        <ele>1308.97</ele>
        <time>2019-04-04T14:16:32Z</time>
      </trkpt>
      <trkpt lat="60.19128" lon="7.48774">
        <ele>1310.41</ele>
        <time>2019-04-04T14:16:34Z</time>
      </trkpt>
      <trkpt lat="60.19131" lon="7.48766">
        <ele>1311.38</ele>
        <time>2019-04-04T14:16:38Z</time>
      </trkpt>
      <trkpt lat="60.19131" lon="7.48766">
        <ele>1310.9</ele>
        <time>2019-04-04T14:16:55Z</time>
      </trkpt>
      <trkpt lat="60.19136" lon="7.48764">
        <ele>1311.86</ele>
        <time>2019-04-04T14:17:05Z</time>
      </trkpt>
      <trkpt lat="60.19136" lon="7.48765">
        <ele>1311.86</ele>
        <time>2019-04-04T14:17:07Z</time>
      </trkpt>
      <trkpt lat="60.19149" lon="7.48773">
        <ele>1312.82</ele>
        <time>2019-04-04T14:17:13Z</time>
      </trkpt>
      <trkpt lat="60.1917" lon="7.48771">
        <ele>1315.22</ele>
        <time>2019-04-04T14:17:17Z</time>
      </trkpt>
      <trkpt lat="60.19176" lon="7.48771">
        <ele>1315.22</ele>
        <time>2019-04-04T14:17:18Z</time>
      </trkpt>
      <trkpt lat="60.19196" lon="7.48772">
        <ele>1318.1</ele>
        <time>2019-04-04T14:17:21Z</time>
      </trkpt>
      <trkpt lat="60.19219" lon="7.48769">
        <ele>1324.35</ele>
        <time>2019-04-04T14:17:25Z</time>
      </trkpt>
      <trkpt lat="60.19235" lon="7.48771">
        <ele>1327.72</ele>
        <time>2019-04-04T14:17:29Z</time>
      </trkpt>
      <trkpt lat="60.19235" lon="7.4877">
        <ele>1327.72</ele>
        <time>2019-04-04T14:17:30Z</time>
      </trkpt>
      <trkpt lat="60.19225" lon="7.48785">
        <ele>1319.55</ele>
        <time>2019-04-04T14:17:34Z</time>
      </trkpt>
      <trkpt lat="60.19214" lon="7.48814">
        <ele>1314.26</ele>
        <time>2019-04-04T14:17:37Z</time>
      </trkpt>
      <trkpt lat="60.19199" lon="7.4885">
        <ele>1308.97</ele>
        <time>2019-04-04T14:17:40Z</time>
      </trkpt>
      <trkpt lat="60.19195" lon="7.48862">
        <ele>1305.61</ele>
        <time>2019-04-04T14:17:41Z</time>
      </trkpt>
      <trkpt lat="60.1919" lon="7.48876">
        <ele>1301.76</ele>
        <time>2019-04-04T14:17:42Z</time>
      </trkpt>
      <trkpt lat="60.19183" lon="7.48902">
        <ele>1297.44</ele>
        <time>2019-04-04T14:17:44Z</time>
      </trkpt>
      <trkpt lat="60.19183" lon="7.48912">
        <ele>1262.35</ele>
        <time>2019-04-04T14:17:45Z</time>
      </trkpt>
      <trkpt lat="60.19182" lon="7.48917">
        <ele>1304.65</ele>
        <time>2019-04-04T14:17:46Z</time>
      </trkpt>
      <trkpt lat="60.19182" lon="7.48918">
        <ele>1295.99</ele>
        <time>2019-04-04T14:17:47Z</time>
      </trkpt>
      <trkpt lat="60.19181" lon="7.48917">
        <ele>1300.8</ele>
        <time>2019-04-04T14:17:48Z</time>
      </trkpt>
      <trkpt lat="60.19181" lon="7.48916">
        <ele>1307.05</ele>
        <time>2019-04-04T14:17:49Z</time>
      </trkpt>
      <trkpt lat="60.1918" lon="7.48915">
        <ele>1296.48</ele>
        <time>2019-04-04T14:17:50Z</time>
      </trkpt>
      <trkpt lat="60.1918" lon="7.48915">
        <ele>1295.99</ele>
        <time>2019-04-04T14:17:51Z</time>
      </trkpt>
      <trkpt lat="60.19178" lon="7.48917">
        <ele>1300.32</ele>
        <time>2019-04-04T14:17:53Z</time>
      </trkpt>
      <trkpt lat="60.19177" lon="7.4892">
        <ele>1296.96</ele>
        <time>2019-04-04T14:17:54Z</time>
      </trkpt>
      <trkpt lat="60.19174" lon="7.48931">
        <ele>1295.51</ele>
        <time>2019-04-04T14:17:56Z</time>
      </trkpt>
      <trkpt lat="60.19156" lon="7.48936">
        <ele>1295.51</ele>
        <time>2019-04-04T14:18:03Z</time>
      </trkpt>
      <trkpt lat="60.19156" lon="7.48936">
        <ele>1296.48</ele>
        <time>2019-04-04T14:18:15Z</time>
      </trkpt>
      <trkpt lat="60.19152" lon="7.48934">
        <ele>1296.48</ele>
        <time>2019-04-04T14:18:19Z</time>
      </trkpt>
      <trkpt lat="60.19145" lon="7.48932">
        <ele>1296.48</ele>
        <time>2019-04-04T14:18:25Z</time>
      </trkpt>
      <trkpt lat="60.19154" lon="7.48934">
        <ele>1297.92</ele>
        <time>2019-04-04T14:18:31Z</time>
      </trkpt>
      <trkpt lat="60.19159" lon="7.48941">
        <ele>1297.92</ele>
        <time>2019-04-04T14:18:33Z</time>
      </trkpt>
      <trkpt lat="60.19181" lon="7.48957">
        <ele>1297.92</ele>
        <time>2019-04-04T14:18:41Z</time>
      </trkpt>
      <trkpt lat="60.19184" lon="7.48955">
        <ele>1296.48</ele>
        <time>2019-04-04T14:18:44Z</time>
      </trkpt>
      <trkpt lat="60.19184" lon="7.48957">
        <ele>1296.48</ele>
        <time>2019-04-04T14:18:58Z</time>
      </trkpt>
      <trkpt lat="60.19183" lon="7.48957">
        <ele>1296.48</ele>
        <time>2019-04-04T14:19:02Z</time>
      </trkpt>
      <trkpt lat="60.19179" lon="7.48955">
        <ele>1295.03</ele>
        <time>2019-04-04T14:19:06Z</time>
      </trkpt>
      <trkpt lat="60.19179" lon="7.48956">
        <ele>1295.99</ele>
        <time>2019-04-04T14:19:08Z</time>
      </trkpt>
      <trkpt lat="60.19171" lon="7.48955">
        <ele>1296.48</ele>
        <time>2019-04-04T14:19:17Z</time>
      </trkpt>
      <trkpt lat="60.19161" lon="7.48965">
        <ele>1293.59</ele>
        <time>2019-04-04T14:19:20Z</time>
      </trkpt>
      <trkpt lat="60.19144" lon="7.48961">
        <ele>1293.59</ele>
        <time>2019-04-04T14:19:24Z</time>
      </trkpt>
      <trkpt lat="60.19141" lon="7.48954">
        <ele>1295.03</ele>
        <time>2019-04-04T14:19:25Z</time>
      </trkpt>
      <trkpt lat="60.19136" lon="7.48938">
        <ele>1295.51</ele>
        <time>2019-04-04T14:19:30Z</time>
      </trkpt>
      <trkpt lat="60.19135" lon="7.48921">
        <ele>1296.48</ele>
        <time>2019-04-04T14:19:40Z</time>
      </trkpt>
      <trkpt lat="60.19134" lon="7.4892">
        <ele>1296.48</ele>
        <time>2019-04-04T14:19:46Z</time>
      </trkpt>
      <trkpt lat="60.19134" lon="7.4892">
        <ele>1294.55</ele>
        <time>2019-04-04T14:19:55Z</time>
      </trkpt>
      <trkpt lat="60.19134" lon="7.4892">
        <ele>1296.48</ele>
        <time>2019-04-04T14:19:59Z</time>
      </trkpt>
      <trkpt lat="60.19134" lon="7.48921">
        <ele>1295.03</ele>
        <time>2019-04-04T14:20:01Z</time>
      </trkpt>
      <trkpt lat="60.19137" lon="7.48916">
        <ele>1296.96</ele>
        <time>2019-04-04T14:20:04Z</time>
      </trkpt>
      <trkpt lat="60.19144" lon="7.48913">
        <ele>1297.44</ele>
        <time>2019-04-04T14:20:06Z</time>
      </trkpt>
      <trkpt lat="60.19154" lon="7.48903">
        <ele>1297.92</ele>
        <time>2019-04-04T14:20:09Z</time>
      </trkpt>
      <trkpt lat="60.19141" lon="7.48878">
        <ele>1298.4</ele>
        <time>2019-04-04T14:20:16Z</time>
      </trkpt>
      <trkpt lat="60.19137" lon="7.48856">
        <ele>1300.8</ele>
        <time>2019-04-04T14:20:19Z</time>
      </trkpt>
      <trkpt lat="60.19151" lon="7.48824">
        <ele>1306.09</ele>
        <time>2019-04-04T14:20:24Z</time>
      </trkpt>
      <trkpt lat="60.19166" lon="7.48809">
        <ele>1309.93</ele>
        <time>2019-04-04T14:20:27Z</time>
      </trkpt>
      <trkpt lat="60.19178" lon="7.48798">
        <ele>1312.34</ele>
        <time>2019-04-04T14:20:29Z</time>
      </trkpt>
      <trkpt lat="60.19189" lon="7.48789">
        <ele>1314.74</ele>
        <time>2019-04-04T14:20:31Z</time>
      </trkpt>
      <trkpt lat="60.19209" lon="7.48776">
        <ele>1320.51</ele>
        <time>2019-04-04T14:20:35Z</time>
      </trkpt>
      <trkpt lat="60.19219" lon="7.48768">
        <ele>1323.87</ele>
        <time>2019-04-04T14:20:38Z</time>
      </trkpt>
      <trkpt lat="60.1923" lon="7.48768">
        <ele>1327.24</ele>
        <time>2019-04-04T14:20:42Z</time>
      </trkpt>
      <trkpt lat="60.19239" lon="7.48777">
        <ele>1328.2</ele>
        <time>2019-04-04T14:20:49Z</time>
      </trkpt>
      <trkpt lat="60.19239" lon="7.48779">
        <ele>1327.24</ele>
        <time>2019-04-04T14:20:56Z</time>
      </trkpt>
      <trkpt lat="60.1923" lon="7.48788">
        <ele>1322.43</ele>
        <time>2019-04-04T14:21:00Z</time>
      </trkpt>
      <trkpt lat="60.19218" lon="7.48806">
        <ele>1316.66</ele>
        <time>2019-04-04T14:21:03Z</time>
      </trkpt>
      <trkpt lat="60.19209" lon="7.48823">
        <ele>1312.34</ele>
        <time>2019-04-04T14:21:05Z</time>
      </trkpt>
      <trkpt lat="60.19196" lon="7.4884">
        <ele>1308.97</ele>
        <time>2019-04-04T14:21:07Z</time>
      </trkpt>
      <trkpt lat="60.19185" lon="7.48869">
        <ele>1302.72</ele>
        <time>2019-04-04T14:21:10Z</time>
      </trkpt>
      <trkpt lat="60.19181" lon="7.48889">
        <ele>1297.44</ele>
        <time>2019-04-04T14:21:12Z</time>
      </trkpt>
      <trkpt lat="60.19173" lon="7.48906">
        <ele>1296.48</ele>
        <time>2019-04-04T14:21:14Z</time>
      </trkpt>
      <trkpt lat="60.19166" lon="7.48912">
        <ele>1296.48</ele>
        <time>2019-04-04T14:21:17Z</time>
      </trkpt>
      <trkpt lat="60.19165" lon="7.48911">
        <ele>1297.92</ele>
        <time>2019-04-04T14:21:20Z</time>
      </trkpt>
      <trkpt lat="60.19165" lon="7.48911">
        <ele>1297.92</ele>
        <time>2019-04-04T14:21:21Z</time>
      </trkpt>
      <trkpt lat="60.19155" lon="7.48927">
        <ele>1294.07</ele>
        <time>2019-04-04T14:21:25Z</time>
      </trkpt>
      <trkpt lat="60.1915" lon="7.48933">
        <ele>1293.59</ele>
        <time>2019-04-04T14:21:26Z</time>
      </trkpt>
      <trkpt lat="60.19129" lon="7.48938">
        <ele>1295.51</ele>
        <time>2019-04-04T14:21:31Z</time>
      </trkpt>
      <trkpt lat="60.19128" lon="7.48931">
        <ele>1295.51</ele>
        <time>2019-04-04T14:21:32Z</time>
      </trkpt>
      <trkpt lat="60.19137" lon="7.48884">
        <ele>1297.92</ele>
        <time>2019-04-04T14:21:37Z</time>
      </trkpt>
      <trkpt lat="60.19144" lon="7.48864">
        <ele>1301.28</ele>
        <time>2019-04-04T14:21:40Z</time>
      </trkpt>
      <trkpt lat="60.19154" lon="7.48833">
        <ele>1304.65</ele>
        <time>2019-04-04T14:21:44Z</time>
      </trkpt>
      <trkpt lat="60.19161" lon="7.48815">
        <ele>1307.53</ele>
        <time>2019-04-04T14:21:46Z</time>
      </trkpt>
      <trkpt lat="60.19169" lon="7.488">
        <ele>1310.9</ele>
        <time>2019-04-04T14:21:48Z</time>
      </trkpt>
      <trkpt lat="60.19176" lon="7.48786">
        <ele>1312.34</ele>
        <time>2019-04-04T14:21:50Z</time>
      </trkpt>
      <trkpt lat="60.19195" lon="7.48768">
        <ele>1318.1</ele>
        <time>2019-04-04T14:21:54Z</time>
      </trkpt>
      <trkpt lat="60.1921" lon="7.48764">
        <ele>1321.95</ele>
        <time>2019-04-04T14:21:57Z</time>
      </trkpt>
      <trkpt lat="60.19226" lon="7.48768">
        <ele>1327.24</ele>
        <time>2019-04-04T14:22:01Z</time>
      </trkpt>
      <trkpt lat="60.19229" lon="7.48769">
        <ele>1327.24</ele>
        <time>2019-04-04T14:22:02Z</time>
      </trkpt>
      <trkpt lat="60.19236" lon="7.48767">
        <ele>1328.2</ele>
        <time>2019-04-04T14:22:09Z</time>
      </trkpt>
      <trkpt lat="60.19235" lon="7.48766">
        <ele>1326.28</ele>
        <time>2019-04-04T14:22:21Z</time>
      </trkpt>
      <trkpt lat="60.19234" lon="7.48765">
        <ele>1327.72</ele>
        <time>2019-04-04T14:22:28Z</time>
      </trkpt>
      <trkpt lat="60.19234" lon="7.48766">
        <ele>1327.72</ele>
        <time>2019-04-04T14:22:30Z</time>
      </trkpt>
      <trkpt lat="60.1923" lon="7.48775">
        <ele>1323.87</ele>
        <time>2019-04-04T14:22:33Z</time>
      </trkpt>
      <trkpt lat="60.19228" lon="7.48781">
        <ele>1320.99</ele>
        <time>2019-04-04T14:22:34Z</time>
      </trkpt>
      <trkpt lat="60.1922" lon="7.48795">
        <ele>1317.62</ele>
        <time>2019-04-04T14:22:36Z</time>
      </trkpt>
      <trkpt lat="60.1921" lon="7.48812">
        <ele>1312.34</ele>
        <time>2019-04-04T14:22:38Z</time>
      </trkpt>
      <trkpt lat="60.19205" lon="7.48823">
        <ele>1312.34</ele>
        <time>2019-04-04T14:22:39Z</time>
      </trkpt>
      <trkpt lat="60.1919" lon="7.48847">
        <ele>1307.05</ele>
        <time>2019-04-04T14:22:42Z</time>
      </trkpt>
      <trkpt lat="60.19184" lon="7.48864">
        <ele>1302.72</ele>
        <time>2019-04-04T14:22:44Z</time>
      </trkpt>
      <trkpt lat="60.1918" lon="7.4888">
        <ele>1299.36</ele>
        <time>2019-04-04T14:22:46Z</time>
      </trkpt>
      <trkpt lat="60.19171" lon="7.48896">
        <ele>1295.03</ele>
        <time>2019-04-04T14:22:48Z</time>
      </trkpt>
      <trkpt lat="60.19158" lon="7.48909">
        <ele>1293.59</ele>
        <time>2019-04-04T14:22:50Z</time>
      </trkpt>
      <trkpt lat="60.19126" lon="7.48923">
        <ele>1295.51</ele>
        <time>2019-04-04T14:22:54Z</time>
      </trkpt>
      <trkpt lat="60.19106" lon="7.48911">
        <ele>1295.51</ele>
        <time>2019-04-04T14:22:57Z</time>
      </trkpt>
      <trkpt lat="60.19093" lon="7.48907">
        <ele>1295.51</ele>
        <time>2019-04-04T14:22:59Z</time>
      </trkpt>
      <trkpt lat="60.19088" lon="7.48887">
        <ele>1296.48</ele>
        <time>2019-04-04T14:23:03Z</time>
      </trkpt>
      <trkpt lat="60.19096" lon="7.48857">
        <ele>1298.88</ele>
        <time>2019-04-04T14:23:06Z</time>
      </trkpt>
      <trkpt lat="60.19105" lon="7.48838">
        <ele>1300.32</ele>
        <time>2019-04-04T14:23:08Z</time>
      </trkpt>
      <trkpt lat="60.19112" lon="7.4881">
        <ele>1304.17</ele>
        <time>2019-04-04T14:23:13Z</time>
      </trkpt>
      <trkpt lat="60.19118" lon="7.48793">
        <ele>1307.53</ele>
        <time>2019-04-04T14:23:19Z</time>
      </trkpt>
      <trkpt lat="60.19118" lon="7.48793">
        <ele>1307.05</ele>
        <time>2019-04-04T14:23:20Z</time>
      </trkpt>
      <trkpt lat="60.1912" lon="7.48786">
        <ele>1308.49</ele>
        <time>2019-04-04T14:23:28Z</time>
      </trkpt>
      <trkpt lat="60.19122" lon="7.4877">
        <ele>1309.93</ele>
        <time>2019-04-04T14:23:30Z</time>
      </trkpt>
      <trkpt lat="60.19125" lon="7.48761">
        <ele>1309.93</ele>
        <time>2019-04-04T14:23:31Z</time>
      </trkpt>
      <trkpt lat="60.19136" lon="7.48746">
        <ele>1313.3</ele>
        <time>2019-04-04T14:23:33Z</time>
      </trkpt>
      <trkpt lat="60.19144" lon="7.48741">
        <ele>1314.26</ele>
        <time>2019-04-04T14:23:34Z</time>
      </trkpt>
      <trkpt lat="60.19174" lon="7.48732">
        <ele>1319.07</ele>
        <time>2019-04-04T14:23:38Z</time>
      </trkpt>
      <trkpt lat="60.192" lon="7.48736">
        <ele>1322.43</ele>
        <time>2019-04-04T14:23:42Z</time>
      </trkpt>
      <trkpt lat="60.19211" lon="7.48745">
        <ele>1325.31</ele>
        <time>2019-04-04T14:23:45Z</time>
      </trkpt>
      <trkpt lat="60.19235" lon="7.48761">
        <ele>1328.68</ele>
        <time>2019-04-04T14:23:53Z</time>
      </trkpt>
      <trkpt lat="60.19249" lon="7.48764">
        <ele>1330.6</ele>
        <time>2019-04-04T14:23:57Z</time>
      </trkpt>
      <trkpt lat="60.19245" lon="7.48766">
        <ele>1327.72</ele>
        <time>2019-04-04T14:24:01Z</time>
      </trkpt>
      <trkpt lat="60.19231" lon="7.48774">
        <ele>1325.31</ele>
        <time>2019-04-04T14:24:04Z</time>
      </trkpt>
      <trkpt lat="60.19221" lon="7.48787">
        <ele>1320.03</ele>
        <time>2019-04-04T14:24:06Z</time>
      </trkpt>
      <trkpt lat="60.19194" lon="7.48817">
        <ele>1312.34</ele>
        <time>2019-04-04T14:24:10Z</time>
      </trkpt>
      <trkpt lat="60.19171" lon="7.48836">
        <ele>1306.57</ele>
        <time>2019-04-04T14:24:13Z</time>
      </trkpt>
      <trkpt lat="60.19164" lon="7.48844">
        <ele>1304.17</ele>
        <time>2019-04-04T14:24:14Z</time>
      </trkpt>
      <trkpt lat="60.19144" lon="7.48852">
        <ele>1300.8</ele>
        <time>2019-04-04T14:24:17Z</time>
      </trkpt>
      <trkpt lat="60.1914" lon="7.4885">
        <ele>1300.8</ele>
        <time>2019-04-04T14:24:18Z</time>
      </trkpt>
      <trkpt lat="60.19135" lon="7.48831">
        <ele>1301.76</ele>
        <time>2019-04-04T14:24:21Z</time>
      </trkpt>
      <trkpt lat="60.19137" lon="7.48825">
        <ele>1304.17</ele>
        <time>2019-04-04T14:24:23Z</time>
      </trkpt>
      <trkpt lat="60.19136" lon="7.48809">
        <ele>1307.05</ele>
        <time>2019-04-04T14:24:29Z</time>
      </trkpt>
      <trkpt lat="60.19136" lon="7.48806">
        <ele>1307.53</ele>
        <time>2019-04-04T14:24:38Z</time>
      </trkpt>
      <trkpt lat="60.19137" lon="7.48805">
        <ele>1307.53</ele>
        <time>2019-04-04T14:24:54Z</time>
      </trkpt>
      <trkpt lat="60.19138" lon="7.48805">
        <ele>1308.49</ele>
        <time>2019-04-04T14:25:11Z</time>
      </trkpt>
      <trkpt lat="60.19138" lon="7.48805">
        <ele>1308.49</ele>
        <time>2019-04-04T14:25:12Z</time>
      </trkpt>
      <trkpt lat="60.1914" lon="7.488">
        <ele>1308.97</ele>
        <time>2019-04-04T14:25:16Z</time>
      </trkpt>
      <trkpt lat="60.19155" lon="7.48769">
        <ele>1312.34</ele>
        <time>2019-04-04T14:25:21Z</time>
      </trkpt>
      <trkpt lat="60.19167" lon="7.48763">
        <ele>1315.7</ele>
        <time>2019-04-04T14:25:23Z</time>
      </trkpt>
      <trkpt lat="60.19192" lon="7.48747">
        <ele>1319.55</ele>
        <time>2019-04-04T14:25:27Z</time>
      </trkpt>
      <trkpt lat="60.19201" lon="7.48737">
        <ele>1321.95</ele>
        <time>2019-04-04T14:25:29Z</time>
      </trkpt>
      <trkpt lat="60.19211" lon="7.48729">
        <ele>1325.31</ele>
        <time>2019-04-04T14:25:31Z</time>
      </trkpt>
      <trkpt lat="60.19227" lon="7.4872">
        <ele>1330.6</ele>
        <time>2019-04-04T14:25:34Z</time>
      </trkpt>
      <trkpt lat="60.19233" lon="7.48717">
        <ele>1332.52</ele>
        <time>2019-04-04T14:25:35Z</time>
      </trkpt>
      <trkpt lat="60.1925" lon="7.48714">
        <ele>1337.81</ele>
        <time>2019-04-04T14:25:38Z</time>
      </trkpt>
      <trkpt lat="60.19256" lon="7.48714">
        <ele>1339.73</ele>
        <time>2019-04-04T14:25:39Z</time>
      </trkpt>
      <trkpt lat="60.19272" lon="7.4871">
        <ele>1344.54</ele>
        <time>2019-04-04T14:25:43Z</time>
      </trkpt>
      <trkpt lat="60.19285" lon="7.48704">
        <ele>1346.46</ele>
        <time>2019-04-04T14:25:49Z</time>
      </trkpt>
      <trkpt lat="60.19284" lon="7.48704">
        <ele>1346.94</ele>
        <time>2019-04-04T14:25:51Z</time>
      </trkpt>
      <trkpt lat="60.19292" lon="7.48705">
        <ele>1347.43</ele>
        <time>2019-04-04T14:25:55Z</time>
      </trkpt>
      <trkpt lat="60.1932" lon="7.48701">
        <ele>1347.43</ele>
        <time>2019-04-04T14:26:00Z</time>
      </trkpt>
      <trkpt lat="60.19334" lon="7.48702">
        <ele>1345.98</ele>
        <time>2019-04-04T14:26:03Z</time>
      </trkpt>
      <trkpt lat="60.19319" lon="7.4871">
        <ele>1343.1</ele>
        <time>2019-04-04T14:26:09Z</time>
      </trkpt>
      <trkpt lat="60.19306" lon="7.4872">
        <ele>1341.18</ele>
        <time>2019-04-04T14:26:15Z</time>
      </trkpt>
      <trkpt lat="60.19302" lon="7.48722">
        <ele>1341.18</ele>
        <time>2019-04-04T14:26:16Z</time>
      </trkpt>
      <trkpt lat="60.19284" lon="7.48733">
        <ele>1339.73</ele>
        <time>2019-04-04T14:26:21Z</time>
      </trkpt>
      <trkpt lat="60.19281" lon="7.48733">
        <ele>1339.73</ele>
        <time>2019-04-04T14:26:22Z</time>
      </trkpt>
      <trkpt lat="60.1927" lon="7.48742">
        <ele>1338.29</ele>
        <time>2019-04-04T14:26:25Z</time>
      </trkpt>
      <trkpt lat="60.19258" lon="7.4875">
        <ele>1333.01</ele>
        <time>2019-04-04T14:26:28Z</time>
      </trkpt>
      <trkpt lat="60.19248" lon="7.48753">
        <ele>1330.12</ele>
        <time>2019-04-04T14:26:30Z</time>
      </trkpt>
      <trkpt lat="60.19222" lon="7.48774">
        <ele>1321.47</ele>
        <time>2019-04-04T14:26:34Z</time>
      </trkpt>
      <trkpt lat="60.19216" lon="7.48783">
        <ele>1319.07</ele>
        <time>2019-04-04T14:26:35Z</time>
      </trkpt>
      <trkpt lat="60.19195" lon="7.48802">
        <ele>1313.78</ele>
        <time>2019-04-04T14:26:38Z</time>
      </trkpt>
      <trkpt lat="60.19181" lon="7.48816">
        <ele>1310.9</ele>
        <time>2019-04-04T14:26:40Z</time>
      </trkpt>
      <trkpt lat="60.19175" lon="7.48824">
        <ele>1307.53</ele>
        <time>2019-04-04T14:26:41Z</time>
      </trkpt>
      <trkpt lat="60.19163" lon="7.48838">
        <ele>1302.24</ele>
        <time>2019-04-04T14:26:43Z</time>
      </trkpt>
      <trkpt lat="60.19139" lon="7.48828">
        <ele>1303.69</ele>
        <time>2019-04-04T14:26:48Z</time>
      </trkpt>
      <trkpt lat="60.19138" lon="7.48822">
        <ele>1303.2</ele>
        <time>2019-04-04T14:26:49Z</time>
      </trkpt>
      <trkpt lat="60.19132" lon="7.48801">
        <ele>1307.05</ele>
        <time>2019-04-04T14:26:57Z</time>
      </trkpt>
      <trkpt lat="60.19131" lon="7.48791">
        <ele>1307.53</ele>
        <time>2019-04-04T14:26:59Z</time>
      </trkpt>
      <trkpt lat="60.19131" lon="7.48777">
        <ele>1309.45</ele>
        <time>2019-04-04T14:27:02Z</time>
      </trkpt>
      <trkpt lat="60.19131" lon="7.48772">
        <ele>1310.9</ele>
        <time>2019-04-04T14:27:04Z</time>
      </trkpt>
      <trkpt lat="60.19144" lon="7.4874">
        <ele>1314.74</ele>
        <time>2019-04-04T14:27:09Z</time>
      </trkpt>
      <trkpt lat="60.1915" lon="7.48736">
        <ele>1315.7</ele>
        <time>2019-04-04T14:27:10Z</time>
      </trkpt>
      <trkpt lat="60.19186" lon="7.48728">
        <ele>1321.47</ele>
        <time>2019-04-04T14:27:15Z</time>
      </trkpt>
      <trkpt lat="60.1921" lon="7.48733">
        <ele>1325.31</ele>
        <time>2019-04-04T14:27:19Z</time>
      </trkpt>
      <trkpt lat="60.1922" lon="7.48734">
        <ele>1327.72</ele>
        <time>2019-04-04T14:27:21Z</time>
      </trkpt>
      <trkpt lat="60.19236" lon="7.48739">
        <ele>1331.56</ele>
        <time>2019-04-04T14:27:25Z</time>
      </trkpt>
      <trkpt lat="60.1925" lon="7.48744">
        <ele>1333.49</ele>
        <time>2019-04-04T14:27:29Z</time>
      </trkpt>
      <trkpt lat="60.19253" lon="7.48746">
        <ele>1334.45</ele>
        <time>2019-04-04T14:27:41Z</time>
      </trkpt>
      <trkpt lat="60.19252" lon="7.48746">
        <ele>1332.04</ele>
        <time>2019-04-04T14:27:54Z</time>
      </trkpt>
      <trkpt lat="60.19249" lon="7.48747">
        <ele>1330.6</ele>
        <time>2019-04-04T14:27:59Z</time>
      </trkpt>
      <trkpt lat="60.19239" lon="7.48756">
        <ele>1327.72</ele>
        <time>2019-04-04T14:28:03Z</time>
      </trkpt>
      <trkpt lat="60.19229" lon="7.48769">
        <ele>1322.91</ele>
        <time>2019-04-04T14:28:05Z</time>
      </trkpt>
      <trkpt lat="60.19211" lon="7.48803">
        <ele>1314.74</ele>
        <time>2019-04-04T14:28:09Z</time>
      </trkpt>
      <trkpt lat="60.19191" lon="7.48836">
        <ele>1310.9</ele>
        <time>2019-04-04T14:28:12Z</time>
      </trkpt>
      <trkpt lat="60.19178" lon="7.48853">
        <ele>1307.53</ele>
        <time>2019-04-04T14:28:14Z</time>
      </trkpt>
      <trkpt lat="60.19154" lon="7.48889">
        <ele>1299.36</ele>
        <time>2019-04-04T14:28:18Z</time>
      </trkpt>
      <trkpt lat="60.19142" lon="7.4892">
        <ele>1293.59</ele>
        <time>2019-04-04T14:28:21Z</time>
      </trkpt>
      <trkpt lat="60.19137" lon="7.48932">
        <ele>1295.03</ele>
        <time>2019-04-04T14:28:25Z</time>
      </trkpt>
      <trkpt lat="60.19134" lon="7.48926">
        <ele>1295.51</ele>
        <time>2019-04-04T14:28:29Z</time>
      </trkpt>
      <trkpt lat="60.19133" lon="7.48912">
        <ele>1295.99</ele>
        <time>2019-04-04T14:28:32Z</time>
      </trkpt>
      <trkpt lat="60.19143" lon="7.48871">
        <ele>1299.84</ele>
        <time>2019-04-04T14:28:37Z</time>
      </trkpt>
      <trkpt lat="60.19157" lon="7.48856">
        <ele>1303.69</ele>
        <time>2019-04-04T14:28:40Z</time>
      </trkpt>
      <trkpt lat="60.19176" lon="7.48834">
        <ele>1307.05</ele>
        <time>2019-04-04T14:28:44Z</time>
      </trkpt>
      <trkpt lat="60.19182" lon="7.48815">
        <ele>1309.93</ele>
        <time>2019-04-04T14:28:46Z</time>
      </trkpt>
      <trkpt lat="60.19192" lon="7.48802">
        <ele>1313.78</ele>
        <time>2019-04-04T14:28:48Z</time>
      </trkpt>
      <trkpt lat="60.19209" lon="7.48783">
        <ele>1319.55</ele>
        <time>2019-04-04T14:28:52Z</time>
      </trkpt>
      <trkpt lat="60.19221" lon="7.48772">
        <ele>1323.39</ele>
        <time>2019-04-04T14:28:55Z</time>
      </trkpt>
      <trkpt lat="60.19232" lon="7.4876">
        <ele>1327.24</ele>
        <time>2019-04-04T14:28:58Z</time>
      </trkpt>
      <trkpt lat="60.19244" lon="7.4875">
        <ele>1331.08</ele>
        <time>2019-04-04T14:29:01Z</time>
      </trkpt>
      <trkpt lat="60.19247" lon="7.48745">
        <ele>1331.56</ele>
        <time>2019-04-04T14:29:02Z</time>
      </trkpt>
      <trkpt lat="60.19255" lon="7.48732">
        <ele>1336.37</ele>
        <time>2019-04-04T14:29:06Z</time>
      </trkpt>
      <trkpt lat="60.19265" lon="7.48731">
        <ele>1339.73</ele>
        <time>2019-04-04T14:29:09Z</time>
      </trkpt>
      <trkpt lat="60.19279" lon="7.48745">
        <ele>1341.18</ele>
        <time>2019-04-04T14:29:14Z</time>
      </trkpt>
      <trkpt lat="60.19283" lon="7.48746">
        <ele>1339.73</ele>
        <time>2019-04-04T14:29:17Z</time>
      </trkpt>
      <trkpt lat="60.19282" lon="7.48747">
        <ele>1338.29</ele>
        <time>2019-04-04T14:29:19Z</time>
      </trkpt>
      <trkpt lat="60.19281" lon="7.48748">
        <ele>1337.81</ele>
        <time>2019-04-04T14:29:22Z</time>
      </trkpt>
      <trkpt lat="60.19269" lon="7.4876">
        <ele>1333.97</ele>
        <time>2019-04-04T14:29:27Z</time>
      </trkpt>
      <trkpt lat="60.19259" lon="7.48772">
        <ele>1329.64</ele>
        <time>2019-04-04T14:29:30Z</time>
      </trkpt>
      <trkpt lat="60.19246" lon="7.48784">
        <ele>1324.83</ele>
        <time>2019-04-04T14:29:33Z</time>
      </trkpt>
      <trkpt lat="60.19233" lon="7.48797">
        <ele>1320.51</ele>
        <time>2019-04-04T14:29:35Z</time>
      </trkpt>
      <trkpt lat="60.19223" lon="7.48813">
        <ele>1319.07</ele>
        <time>2019-04-04T14:29:37Z</time>
      </trkpt>
      <trkpt lat="60.19199" lon="7.48854">
        <ele>1308.97</ele>
        <time>2019-04-04T14:29:42Z</time>
      </trkpt>
      <trkpt lat="60.19193" lon="7.48863">
        <ele>1308.01</ele>
        <time>2019-04-04T14:29:43Z</time>
      </trkpt>
      <trkpt lat="60.19182" lon="7.489">
        <ele>1297.92</ele>
        <time>2019-04-04T14:29:46Z</time>
      </trkpt>
      <trkpt lat="60.19178" lon="7.48912">
        <ele>1294.55</ele>
        <time>2019-04-04T14:29:47Z</time>
      </trkpt>
      <trkpt lat="60.19173" lon="7.48924">
        <ele>1294.07</ele>
        <time>2019-04-04T14:29:48Z</time>
      </trkpt>
      <trkpt lat="60.19162" lon="7.48969">
        <ele>1293.59</ele>
        <time>2019-04-04T14:29:52Z</time>
      </trkpt>
      <trkpt lat="60.19157" lon="7.48979">
        <ele>1293.11</ele>
        <time>2019-04-04T14:29:56Z</time>
      </trkpt>
      <trkpt lat="60.19156" lon="7.48965">
        <ele>1295.51</ele>
        <time>2019-04-04T14:29:59Z</time>
      </trkpt>
      <trkpt lat="60.19158" lon="7.48956">
        <ele>1295.51</ele>
        <time>2019-04-04T14:30:00Z</time>
      </trkpt>
      <trkpt lat="60.19165" lon="7.48909">
        <ele>1297.44</ele>
        <time>2019-04-04T14:30:05Z</time>
      </trkpt>
      <trkpt lat="60.19173" lon="7.48863">
        <ele>1302.72</ele>
        <time>2019-04-04T14:30:11Z</time>
      </trkpt>
      <trkpt lat="60.19176" lon="7.48842">
        <ele>1306.09</ele>
        <time>2019-04-04T14:30:15Z</time>
      </trkpt>
      <trkpt lat="60.19184" lon="7.48809">
        <ele>1311.38</ele>
        <time>2019-04-04T14:30:20Z</time>
      </trkpt>
      <trkpt lat="60.19191" lon="7.48787">
        <ele>1315.22</ele>
        <time>2019-04-04T14:30:23Z</time>
      </trkpt>
      <trkpt lat="60.19203" lon="7.48765">
        <ele>1320.03</ele>
        <time>2019-04-04T14:30:29Z</time>
      </trkpt>
      <trkpt lat="60.19205" lon="7.48758">
        <ele>1320.99</ele>
        <time>2019-04-04T14:30:30Z</time>
      </trkpt>
      <trkpt lat="60.19217" lon="7.48736">
        <ele>1326.76</ele>
        <time>2019-04-04T14:30:33Z</time>
      </trkpt>
      <trkpt lat="60.19223" lon="7.4873">
        <ele>1328.68</ele>
        <time>2019-04-04T14:30:34Z</time>
      </trkpt>
      <trkpt lat="60.19241" lon="7.4872">
        <ele>1333.97</ele>
        <time>2019-04-04T14:30:37Z</time>
      </trkpt>
      <trkpt lat="60.19253" lon="7.48717">
        <ele>1338.77</ele>
        <time>2019-04-04T14:30:39Z</time>
      </trkpt>
      <trkpt lat="60.19268" lon="7.48716">
        <ele>1343.58</ele>
        <time>2019-04-04T14:30:42Z</time>
      </trkpt>
      <trkpt lat="60.19277" lon="7.48719">
        <ele>1344.06</ele>
        <time>2019-04-04T14:30:44Z</time>
      </trkpt>
      <trkpt lat="60.19283" lon="7.4872">
        <ele>1343.1</ele>
        <time>2019-04-04T14:30:46Z</time>
      </trkpt>
      <trkpt lat="60.19282" lon="7.48723">
        <ele>1342.14</ele>
        <time>2019-04-04T14:30:48Z</time>
      </trkpt>
      <trkpt lat="60.19276" lon="7.48732">
        <ele>1339.73</ele>
        <time>2019-04-04T14:30:51Z</time>
      </trkpt>
      <trkpt lat="60.19272" lon="7.48734">
        <ele>1338.29</ele>
        <time>2019-04-04T14:30:52Z</time>
      </trkpt>
      <trkpt lat="60.19257" lon="7.4875">
        <ele>1335.41</ele>
        <time>2019-04-04T14:30:55Z</time>
      </trkpt>
      <trkpt lat="60.19245" lon="7.48762">
        <ele>1327.24</ele>
        <time>2019-04-04T14:30:57Z</time>
      </trkpt>
      <trkpt lat="60.19228" lon="7.48788">
        <ele>1323.39</ele>
        <time>2019-04-04T14:31:00Z</time>
      </trkpt>
      <trkpt lat="60.19216" lon="7.48792">
        <ele>1320.03</ele>
        <time>2019-04-04T14:31:02Z</time>
      </trkpt>
      <trkpt lat="60.19211" lon="7.48787">
        <ele>1319.55</ele>
        <time>2019-04-04T14:31:04Z</time>
      </trkpt>
      <trkpt lat="60.19205" lon="7.48795">
        <ele>1316.18</ele>
        <time>2019-04-04T14:31:07Z</time>
      </trkpt>
      <trkpt lat="60.19201" lon="7.48811">
        <ele>1310.9</ele>
        <time>2019-04-04T14:31:09Z</time>
      </trkpt>
      <trkpt lat="60.19194" lon="7.48833">
        <ele>1308.01</ele>
        <time>2019-04-04T14:31:11Z</time>
      </trkpt>
      <trkpt lat="60.19168" lon="7.48861">
        <ele>1304.17</ele>
        <time>2019-04-04T14:31:15Z</time>
      </trkpt>
      <trkpt lat="60.19159" lon="7.48865">
        <ele>1300.8</ele>
        <time>2019-04-04T14:31:17Z</time>
      </trkpt>
      <trkpt lat="60.19156" lon="7.48863">
        <ele>1300.8</ele>
        <time>2019-04-04T14:31:18Z</time>
      </trkpt>
      <trkpt lat="60.19147" lon="7.48882">
        <ele>1296.48</ele>
        <time>2019-04-04T14:31:22Z</time>
      </trkpt>
      <trkpt lat="60.19144" lon="7.48892">
        <ele>1295.03</ele>
        <time>2019-04-04T14:31:23Z</time>
      </trkpt>
      <trkpt lat="60.19139" lon="7.48913">
        <ele>1292.63</ele>
        <time>2019-04-04T14:31:25Z</time>
      </trkpt>
      <trkpt lat="60.19124" lon="7.48936">
        <ele>1292.63</ele>
        <time>2019-04-04T14:31:29Z</time>
      </trkpt>
      <trkpt lat="60.19116" lon="7.4895">
        <ele>1292.63</ele>
        <time>2019-04-04T14:31:31Z</time>
      </trkpt>
      <trkpt lat="60.19106" lon="7.48949">
        <ele>1295.51</ele>
        <time>2019-04-04T14:31:34Z</time>
      </trkpt>
      <trkpt lat="60.19122" lon="7.48932">
        <ele>1297.92</ele>
        <time>2019-04-04T14:31:38Z</time>
      </trkpt>
      <trkpt lat="60.19188" lon="7.48895">
        <ele>1301.76</ele>
        <time>2019-04-04T14:31:46Z</time>
      </trkpt>
      <trkpt lat="60.1921" lon="7.48883">
        <ele>1305.13</ele>
        <time>2019-04-04T14:31:49Z</time>
      </trkpt>
      <trkpt lat="60.19238" lon="7.48879">
        <ele>1309.93</ele>
        <time>2019-04-04T14:31:53Z</time>
      </trkpt>
      <trkpt lat="60.19251" lon="7.48878">
        <ele>1311.86</ele>
        <time>2019-04-04T14:31:55Z</time>
      </trkpt>
      <trkpt lat="60.19259" lon="7.48869">
        <ele>1312.82</ele>
        <time>2019-04-04T14:31:57Z</time>
      </trkpt>
      <trkpt lat="60.19259" lon="7.48858">
        <ele>1316.18</ele>
        <time>2019-04-04T14:31:59Z</time>
      </trkpt>
      <trkpt lat="60.19263" lon="7.48848">
        <ele>1320.03</ele>
        <time>2019-04-04T14:32:01Z</time>
      </trkpt>
      <trkpt lat="60.19266" lon="7.48846">
        <ele>1321.95</ele>
        <time>2019-04-04T14:32:02Z</time>
      </trkpt>
      <trkpt lat="60.19277" lon="7.48849">
        <ele>1324.35</ele>
        <time>2019-04-04T14:32:05Z</time>
      </trkpt>
      <trkpt lat="60.19277" lon="7.48859">
        <ele>1322.43</ele>
        <time>2019-04-04T14:32:10Z</time>
      </trkpt>
      <trkpt lat="60.19273" lon="7.48871">
        <ele>1317.14</ele>
        <time>2019-04-04T14:32:12Z</time>
      </trkpt>
      <trkpt lat="60.19264" lon="7.48892">
        <ele>1311.38</ele>
        <time>2019-04-04T14:32:14Z</time>
      </trkpt>
      <trkpt lat="60.19257" lon="7.48901">
        <ele>1311.38</ele>
        <time>2019-04-04T14:32:15Z</time>
      </trkpt>
      <trkpt lat="60.19249" lon="7.48911">
        <ele>1308.49</ele>
        <time>2019-04-04T14:32:16Z</time>
      </trkpt>
      <trkpt lat="60.19239" lon="7.48918">
        <ele>1307.53</ele>
        <time>2019-04-04T14:32:17Z</time>
      </trkpt>
      <trkpt lat="60.19218" lon="7.48927">
        <ele>1303.2</ele>
        <time>2019-04-04T14:32:19Z</time>
      </trkpt>
      <trkpt lat="60.19208" lon="7.48933">
        <ele>1300.8</ele>
        <time>2019-04-04T14:32:20Z</time>
      </trkpt>
      <trkpt lat="60.19191" lon="7.48946">
        <ele>1296.48</ele>
        <time>2019-04-04T14:32:22Z</time>
      </trkpt>
      <trkpt lat="60.19171" lon="7.48959">
        <ele>1294.55</ele>
        <time>2019-04-04T14:32:25Z</time>
      </trkpt>
      <trkpt lat="60.19169" lon="7.48962">
        <ele>1291.67</ele>
        <time>2019-04-04T14:32:26Z</time>
      </trkpt>
      <trkpt lat="60.19168" lon="7.48963">
        <ele>1295.99</ele>
        <time>2019-04-04T14:32:27Z</time>
      </trkpt>
      <trkpt lat="60.19167" lon="7.48962">
        <ele>1288.78</ele>
        <time>2019-04-04T14:32:29Z</time>
      </trkpt>
      <trkpt lat="60.19166" lon="7.48963">
        <ele>1295.51</ele>
        <time>2019-04-04T14:32:30Z</time>
      </trkpt>
      <trkpt lat="60.19159" lon="7.48981">
        <ele>1292.15</ele>
        <time>2019-04-04T14:32:34Z</time>
      </trkpt>
      <trkpt lat="60.19153" lon="7.48993">
        <ele>1291.67</ele>
        <time>2019-04-04T14:32:36Z</time>
      </trkpt>
      <trkpt lat="60.19144" lon="7.49022">
        <ele>1291.19</ele>
        <time>2019-04-04T14:32:42Z</time>
      </trkpt>
      <trkpt lat="60.19144" lon="7.49022">
        <ele>1291.19</ele>
        <time>2019-04-04T14:32:47Z</time>
      </trkpt>
      <trkpt lat="60.19152" lon="7.49016">
        <ele>1293.59</ele>
        <time>2019-04-04T14:32:51Z</time>
      </trkpt>
      <trkpt lat="60.19172" lon="7.49014">
        <ele>1294.55</ele>
        <time>2019-04-04T14:32:56Z</time>
      </trkpt>
      <trkpt lat="60.1918" lon="7.49005">
        <ele>1295.03</ele>
        <time>2019-04-04T14:32:58Z</time>
      </trkpt>
      <trkpt lat="60.19208" lon="7.4899">
        <ele>1296.48</ele>
        <time>2019-04-04T14:33:03Z</time>
      </trkpt>
      <trkpt lat="60.19219" lon="7.48986">
        <ele>1297.92</ele>
        <time>2019-04-04T14:33:05Z</time>
      </trkpt>
      <trkpt lat="60.19229" lon="7.48986">
        <ele>1299.84</ele>
        <time>2019-04-04T14:33:07Z</time>
      </trkpt>
      <trkpt lat="60.19234" lon="7.48973">
        <ele>1300.32</ele>
        <time>2019-04-04T14:33:13Z</time>
      </trkpt>
      <trkpt lat="60.19232" lon="7.48964">
        <ele>1300.8</ele>
        <time>2019-04-04T14:33:15Z</time>
      </trkpt>
      <trkpt lat="60.19216" lon="7.48929">
        <ele>1300.8</ele>
        <time>2019-04-04T14:33:22Z</time>
      </trkpt>
      <trkpt lat="60.19206" lon="7.48927">
        <ele>1299.36</ele>
        <time>2019-04-04T14:33:24Z</time>
      </trkpt>
      <trkpt lat="60.19189" lon="7.48899">
        <ele>1299.36</ele>
        <time>2019-04-04T14:33:28Z</time>
      </trkpt>
      <trkpt lat="60.19159" lon="7.48906">
        <ele>1295.51</ele>
        <time>2019-04-04T14:33:32Z</time>
      </trkpt>
      <trkpt lat="60.19144" lon="7.48906">
        <ele>1292.63</ele>
        <time>2019-04-04T14:33:34Z</time>
      </trkpt>
      <trkpt lat="60.19137" lon="7.48907">
        <ele>1281.09</ele>
        <time>2019-04-04T14:33:36Z</time>
      </trkpt>
      <trkpt lat="60.19136" lon="7.48907">
        <ele>1299.84</ele>
        <time>2019-04-04T14:33:37Z</time>
      </trkpt>
      <trkpt lat="60.19135" lon="7.48908">
        <ele>1305.13</ele>
        <time>2019-04-04T14:33:38Z</time>
      </trkpt>
      <trkpt lat="60.19137" lon="7.48907">
        <ele>1296.48</ele>
        <time>2019-04-04T14:33:39Z</time>
      </trkpt>
      <trkpt lat="60.19137" lon="7.48907">
        <ele>1289.75</ele>
        <time>2019-04-04T14:33:40Z</time>
      </trkpt>
      <trkpt lat="60.19137" lon="7.48907">
        <ele>1297.92</ele>
        <time>2019-04-04T14:33:41Z</time>
      </trkpt>
      <trkpt lat="60.19137" lon="7.48908">
        <ele>1297.44</ele>
        <time>2019-04-04T14:33:42Z</time>
      </trkpt>
      <trkpt lat="60.19138" lon="7.48912">
        <ele>1299.36</ele>
        <time>2019-04-04T14:33:44Z</time>
      </trkpt>
      <trkpt lat="60.19138" lon="7.48915">
        <ele>1295.99</ele>
        <time>2019-04-04T14:33:45Z</time>
      </trkpt>
      <trkpt lat="60.19138" lon="7.48932">
        <ele>1295.51</ele>
        <time>2019-04-04T14:33:49Z</time>
      </trkpt>
      <trkpt lat="60.19141" lon="7.48953">
        <ele>1295.99</ele>
        <time>2019-04-04T14:33:56Z</time>
      </trkpt>
      <trkpt lat="60.19141" lon="7.48951">
        <ele>1295.51</ele>
        <time>2019-04-04T14:34:09Z</time>
      </trkpt>
      <trkpt lat="60.19142" lon="7.48945">
        <ele>1295.99</ele>
        <time>2019-04-04T14:34:19Z</time>
      </trkpt>
      <trkpt lat="60.19145" lon="7.48948">
        <ele>1295.99</ele>
        <time>2019-04-04T14:34:33Z</time>
      </trkpt>
      <trkpt lat="60.19147" lon="7.48951">
        <ele>1293.11</ele>
        <time>2019-04-04T14:34:36Z</time>
      </trkpt>
      <trkpt lat="60.19148" lon="7.48953">
        <ele>1295.99</ele>
        <time>2019-04-04T14:34:37Z</time>
      </trkpt>
      <trkpt lat="60.19149" lon="7.48956">
        <ele>1296.48</ele>
        <time>2019-04-04T14:34:39Z</time>
      </trkpt>
      <trkpt lat="60.19149" lon="7.48959">
        <ele>1295.03</ele>
        <time>2019-04-04T14:34:41Z</time>
      </trkpt>
      <trkpt lat="60.1915" lon="7.48961">
        <ele>1296.96</ele>
        <time>2019-04-04T14:34:43Z</time>
      </trkpt>
      <trkpt lat="60.19153" lon="7.48973">
        <ele>1294.07</ele>
        <time>2019-04-04T14:34:55Z</time>
      </trkpt>
      <trkpt lat="60.19152" lon="7.48979">
        <ele>1294.07</ele>
        <time>2019-04-04T14:35:04Z</time>
      </trkpt>
      <trkpt lat="60.19146" lon="7.48995">
        <ele>1292.63</ele>
        <time>2019-04-04T14:35:16Z</time>
      </trkpt>
      <trkpt lat="60.19145" lon="7.48999">
        <ele>1293.11</ele>
        <time>2019-04-04T14:35:18Z</time>
      </trkpt>
      <trkpt lat="60.19144" lon="7.49003">
        <ele>1293.59</ele>
        <time>2019-04-04T14:35:30Z</time>
      </trkpt>
      <trkpt lat="60.19144" lon="7.49002">
        <ele>1290.23</ele>
        <time>2019-04-04T14:35:36Z</time>
      </trkpt>
      <trkpt lat="60.19144" lon="7.49002">
        <ele>1294.55</ele>
        <time>2019-04-04T14:35:37Z</time>
      </trkpt>
      <trkpt lat="60.19144" lon="7.49001">
        <ele>1292.63</ele>
        <time>2019-04-04T14:35:42Z</time>
      </trkpt>
      <trkpt lat="60.19144" lon="7.49001">
        <ele>1289.27</ele>
        <time>2019-04-04T14:35:47Z</time>
      </trkpt>
      <trkpt lat="60.19144" lon="7.49001">
        <ele>1294.07</ele>
        <time>2019-04-04T14:35:48Z</time>
      </trkpt>
      <trkpt lat="60.19144" lon="7.49001">
        <ele>1291.67</ele>
        <time>2019-04-04T14:35:51Z</time>
      </trkpt>
      <trkpt lat="60.19144" lon="7.49001">
        <ele>1293.59</ele>
        <time>2019-04-04T14:35:53Z</time>
      </trkpt>
      <trkpt lat="60.19144" lon="7.49">
        <ele>1296.96</ele>
        <time>2019-04-04T14:35:54Z</time>
      </trkpt>
      <trkpt lat="60.19144" lon="7.49">
        <ele>1294.55</ele>
        <time>2019-04-04T14:35:55Z</time>
      </trkpt>
      <trkpt lat="60.19144" lon="7.49">
        <ele>1292.15</ele>
        <time>2019-04-04T14:35:58Z</time>
      </trkpt>
      <trkpt lat="60.19145" lon="7.49002">
        <ele>1296.48</ele>
        <time>2019-04-04T14:36:11Z</time>
      </trkpt>
      <trkpt lat="60.19145" lon="7.49001">
        <ele>1291.67</ele>
        <time>2019-04-04T14:36:12Z</time>
      </trkpt>
      <trkpt lat="60.19144" lon="7.49001">
        <ele>1295.99</ele>
        <time>2019-04-04T14:36:14Z</time>
      </trkpt>
      <trkpt lat="60.19143" lon="7.49">
        <ele>1288.3</ele>
        <time>2019-04-04T14:36:28Z</time>
      </trkpt>
      <trkpt lat="60.19144" lon="7.49">
        <ele>1293.11</ele>
        <time>2019-04-04T14:36:29Z</time>
      </trkpt>
      <trkpt lat="60.19144" lon="7.49">
        <ele>1288.78</ele>
        <time>2019-04-04T14:36:40Z</time>
      </trkpt>
      <trkpt lat="60.19144" lon="7.49">
        <ele>1297.44</ele>
        <time>2019-04-04T14:36:41Z</time>
      </trkpt>
      <trkpt lat="60.19144" lon="7.49">
        <ele>1293.59</ele>
        <time>2019-04-04T14:36:42Z</time>
      </trkpt>
      <trkpt lat="60.19143" lon="7.49">
        <ele>1291.19</ele>
        <time>2019-04-04T14:36:47Z</time>
      </trkpt>
      <trkpt lat="60.19143" lon="7.49">
        <ele>1294.07</ele>
        <time>2019-04-04T14:36:48Z</time>
      </trkpt>
      <trkpt lat="60.19143" lon="7.48999">
        <ele>1294.07</ele>
        <time>2019-04-04T14:36:49Z</time>
      </trkpt>
      <trkpt lat="60.19143" lon="7.49">
        <ele>1292.63</ele>
        <time>2019-04-04T14:36:51Z</time>
      </trkpt>
      <trkpt lat="60.19143" lon="7.48999">
        <ele>1295.51</ele>
        <time>2019-04-04T14:37:06Z</time>
      </trkpt>
      <trkpt lat="60.19143" lon="7.49">
        <ele>1293.11</ele>
        <time>2019-04-04T14:37:19Z</time>
      </trkpt>
      <trkpt lat="60.19142" lon="7.48995">
        <ele>1292.63</ele>
        <time>2019-04-04T14:37:28Z</time>
      </trkpt>
      <trkpt lat="60.19143" lon="7.48999">
        <ele>1294.55</ele>
        <time>2019-04-04T14:37:35Z</time>
      </trkpt>
      <trkpt lat="60.19144" lon="7.48998">
        <ele>1293.11</ele>
        <time>2019-04-04T14:37:40Z</time>
      </trkpt>
      <trkpt lat="60.1914" lon="7.48987">
        <ele>1294.07</ele>
        <time>2019-04-04T14:37:53Z</time>
      </trkpt>
      <trkpt lat="60.19135" lon="7.48973">
        <ele>1294.55</ele>
        <time>2019-04-04T14:38:04Z</time>
      </trkpt>
      <trkpt lat="60.19134" lon="7.48961">
        <ele>1295.99</ele>
        <time>2019-04-04T14:38:15Z</time>
      </trkpt>
      <trkpt lat="60.19132" lon="7.48965">
        <ele>1294.07</ele>
        <time>2019-04-04T14:38:22Z</time>
      </trkpt>
      <trkpt lat="60.19132" lon="7.48967">
        <ele>1294.07</ele>
        <time>2019-04-04T14:38:25Z</time>
      </trkpt>
      <trkpt lat="60.19132" lon="7.48957">
        <ele>1295.51</ele>
        <time>2019-04-04T14:38:31Z</time>
      </trkpt>
      <trkpt lat="60.19135" lon="7.48956">
        <ele>1295.51</ele>
        <time>2019-04-04T14:38:39Z</time>
      </trkpt>
      <trkpt lat="60.19134" lon="7.48955">
        <ele>1295.51</ele>
        <time>2019-04-04T14:38:41Z</time>
      </trkpt>
      <trkpt lat="60.19132" lon="7.48958">
        <ele>1295.51</ele>
        <time>2019-04-04T14:38:49Z</time>
      </trkpt>
      <trkpt lat="60.19131" lon="7.48964">
        <ele>1295.51</ele>
        <time>2019-04-04T14:39:00Z</time>
      </trkpt>
      <trkpt lat="60.1913" lon="7.48964">
        <ele>1295.03</ele>
        <time>2019-04-04T14:39:19Z</time>
      </trkpt>
      <trkpt lat="60.1913" lon="7.48965">
        <ele>1295.51</ele>
        <time>2019-04-04T14:39:27Z</time>
      </trkpt>
      <trkpt lat="60.19136" lon="7.48974">
        <ele>1295.03</ele>
        <time>2019-04-04T14:39:38Z</time>
      </trkpt>
      <trkpt lat="60.19134" lon="7.48968">
        <ele>1295.99</ele>
        <time>2019-04-04T14:39:52Z</time>
      </trkpt>
      <trkpt lat="60.19134" lon="7.48969">
        <ele>1295.99</ele>
        <time>2019-04-04T14:40:05Z</time>
      </trkpt>
      <trkpt lat="60.1914" lon="7.48984">
        <ele>1293.11</ele>
        <time>2019-04-04T14:40:13Z</time>
      </trkpt>
      <trkpt lat="60.19141" lon="7.48987">
        <ele>1295.51</ele>
        <time>2019-04-04T14:40:15Z</time>
      </trkpt>
      <trkpt lat="60.19142" lon="7.48992">
        <ele>1294.07</ele>
        <time>2019-04-04T14:40:17Z</time>
      </trkpt>
      <trkpt lat="60.19143" lon="7.48994">
        <ele>1294.07</ele>
        <time>2019-04-04T14:40:18Z</time>
      </trkpt>
      <trkpt lat="60.19143" lon="7.48998">
        <ele>1293.11</ele>
        <time>2019-04-04T14:40:28Z</time>
      </trkpt>
      <trkpt lat="60.19142" lon="7.48995">
        <ele>1293.11</ele>
        <time>2019-04-04T14:40:35Z</time>
      </trkpt>
      <trkpt lat="60.19136" lon="7.48971">
        <ele>1295.03</ele>
        <time>2019-04-04T14:40:49Z</time>
      </trkpt>
      <trkpt lat="60.19135" lon="7.48969">
        <ele>1295.03</ele>
        <time>2019-04-04T14:40:50Z</time>
      </trkpt>
      <trkpt lat="60.19136" lon="7.48959">
        <ele>1296.48</ele>
        <time>2019-04-04T14:40:57Z</time>
      </trkpt>
      <trkpt lat="60.19132" lon="7.48971">
        <ele>1292.63</ele>
        <time>2019-04-04T14:41:06Z</time>
      </trkpt>
      <trkpt lat="60.19132" lon="7.48971">
        <ele>1292.63</ele>
        <time>2019-04-04T14:41:07Z</time>
      </trkpt>
      <trkpt lat="60.19132" lon="7.48971">
        <ele>1295.03</ele>
        <time>2019-04-04T14:41:09Z</time>
      </trkpt>
      <trkpt lat="60.19132" lon="7.48971">
        <ele>1295.03</ele>
        <time>2019-04-04T14:41:22Z</time>
      </trkpt>
      <trkpt lat="60.19132" lon="7.48971">
        <ele>1294.55</ele>
        <time>2019-04-04T14:41:23Z</time>
      </trkpt>
      <trkpt lat="60.19131" lon="7.48963">
        <ele>1294.55</ele>
        <time>2019-04-04T14:41:31Z</time>
      </trkpt>
      <trkpt lat="60.1913" lon="7.48961">
        <ele>1295.51</ele>
        <time>2019-04-04T14:41:34Z</time>
      </trkpt>
      <trkpt lat="60.19132" lon="7.48958">
        <ele>1295.51</ele>
        <time>2019-04-04T14:41:39Z</time>
      </trkpt>
      <trkpt lat="60.19138" lon="7.48979">
        <ele>1295.99</ele>
        <time>2019-04-04T14:41:49Z</time>
      </trkpt>
      <trkpt lat="60.1914" lon="7.48984">
        <ele>1295.99</ele>
        <time>2019-04-04T14:41:51Z</time>
      </trkpt>
      <trkpt lat="60.19141" lon="7.48991">
        <ele>1294.55</ele>
        <time>2019-04-04T14:41:54Z</time>
      </trkpt>
      <trkpt lat="60.19145" lon="7.49002">
        <ele>1291.19</ele>
        <time>2019-04-04T14:42:01Z</time>
      </trkpt>
      <trkpt lat="60.19145" lon="7.49001">
        <ele>1296.96</ele>
        <time>2019-04-04T14:42:07Z</time>
      </trkpt>
      <trkpt lat="60.19145" lon="7.49">
        <ele>1293.59</ele>
        <time>2019-04-04T14:42:08Z</time>
      </trkpt>
      <trkpt lat="60.19147" lon="7.49">
        <ele>1293.59</ele>
        <time>2019-04-04T14:42:16Z</time>
      </trkpt>
      <trkpt lat="60.19146" lon="7.49001">
        <ele>1292.63</ele>
        <time>2019-04-04T14:42:35Z</time>
      </trkpt>
      <trkpt lat="60.19145" lon="7.48999">
        <ele>1294.55</ele>
        <time>2019-04-04T14:42:37Z</time>
      </trkpt>
      <trkpt lat="60.19145" lon="7.48997">
        <ele>1290.23</ele>
        <time>2019-04-04T14:42:39Z</time>
      </trkpt>
      <trkpt lat="60.19144" lon="7.48996">
        <ele>1296.96</ele>
        <time>2019-04-04T14:42:40Z</time>
      </trkpt>
      <trkpt lat="60.19142" lon="7.4899">
        <ele>1289.27</ele>
        <time>2019-04-04T14:42:44Z</time>
      </trkpt>
      <trkpt lat="60.19142" lon="7.4899">
        <ele>1298.88</ele>
        <time>2019-04-04T14:42:45Z</time>
      </trkpt>
      <trkpt lat="60.19142" lon="7.4899">
        <ele>1294.07</ele>
        <time>2019-04-04T14:42:46Z</time>
      </trkpt>
      <trkpt lat="60.19137" lon="7.48977">
        <ele>1293.59</ele>
        <time>2019-04-04T14:42:58Z</time>
      </trkpt>
      <trkpt lat="60.19136" lon="7.48973">
        <ele>1295.03</ele>
        <time>2019-04-04T14:43:01Z</time>
      </trkpt>
      <trkpt lat="60.19135" lon="7.48972">
        <ele>1295.99</ele>
        <time>2019-04-04T14:43:16Z</time>
      </trkpt>
      <trkpt lat="60.19135" lon="7.48972">
        <ele>1295.99</ele>
        <time>2019-04-04T14:43:17Z</time>
      </trkpt>
      <trkpt lat="60.19134" lon="7.48967">
        <ele>1292.63</ele>
        <time>2019-04-04T14:43:20Z</time>
      </trkpt>
      <trkpt lat="60.19134" lon="7.48967">
        <ele>1296.48</ele>
        <time>2019-04-04T14:43:22Z</time>
      </trkpt>
      <trkpt lat="60.19134" lon="7.48967">
        <ele>1296.48</ele>
        <time>2019-04-04T14:43:23Z</time>
      </trkpt>
      <trkpt lat="60.19136" lon="7.48967">
        <ele>1295.51</ele>
        <time>2019-04-04T14:43:30Z</time>
      </trkpt>
      <trkpt lat="60.19136" lon="7.48967">
        <ele>1295.51</ele>
        <time>2019-04-04T14:43:40Z</time>
      </trkpt>
      <trkpt lat="60.19146" lon="7.48992">
        <ele>1295.03</ele>
        <time>2019-04-04T14:43:53Z</time>
      </trkpt>
      <trkpt lat="60.19146" lon="7.48993">
        <ele>1293.11</ele>
        <time>2019-04-04T14:43:57Z</time>
      </trkpt>
      <trkpt lat="60.19146" lon="7.48993">
        <ele>1294.55</ele>
        <time>2019-04-04T14:43:59Z</time>
      </trkpt>
      <trkpt lat="60.19145" lon="7.48995">
        <ele>1289.27</ele>
        <time>2019-04-04T14:44:06Z</time>
      </trkpt>
      <trkpt lat="60.19145" lon="7.48995">
        <ele>1297.92</ele>
        <time>2019-04-04T14:44:07Z</time>
      </trkpt>
      <trkpt lat="60.19145" lon="7.48995">
        <ele>1294.07</ele>
        <time>2019-04-04T14:44:08Z</time>
      </trkpt>
      <trkpt lat="60.19147" lon="7.48998">
        <ele>1289.27</ele>
        <time>2019-04-04T14:44:13Z</time>
      </trkpt>
      <trkpt lat="60.19146" lon="7.48997">
        <ele>1296.48</ele>
        <time>2019-04-04T14:44:14Z</time>
      </trkpt>
      <trkpt lat="60.19145" lon="7.48994">
        <ele>1293.59</ele>
        <time>2019-04-04T14:44:17Z</time>
      </trkpt>
      <trkpt lat="60.19144" lon="7.48994">
        <ele>1294.55</ele>
        <time>2019-04-04T14:44:23Z</time>
      </trkpt>
      <trkpt lat="60.19145" lon="7.48995">
        <ele>1293.59</ele>
        <time>2019-04-04T14:44:25Z</time>
      </trkpt>
      <trkpt lat="60.19146" lon="7.48996">
        <ele>1293.59</ele>
        <time>2019-04-04T14:44:34Z</time>
      </trkpt>
      <trkpt lat="60.19145" lon="7.48995">
        <ele>1293.59</ele>
        <time>2019-04-04T14:44:43Z</time>
      </trkpt>
      <trkpt lat="60.19145" lon="7.48996">
        <ele>1293.59</ele>
        <time>2019-04-04T14:44:57Z</time>
      </trkpt>
      <trkpt lat="60.19143" lon="7.48993">
        <ele>1295.03</ele>
        <time>2019-04-04T14:45:04Z</time>
      </trkpt>
      <trkpt lat="60.19141" lon="7.48991">
        <ele>1295.03</ele>
        <time>2019-04-04T14:45:12Z</time>
      </trkpt>
      <trkpt lat="60.19135" lon="7.48972">
        <ele>1296.48</ele>
        <time>2019-04-04T14:45:24Z</time>
      </trkpt>
      <trkpt lat="60.19135" lon="7.48972">
        <ele>1296.48</ele>
        <time>2019-04-04T14:45:25Z</time>
      </trkpt>
      <trkpt lat="60.19135" lon="7.48972">
        <ele>1295.03</ele>
        <time>2019-04-04T14:45:27Z</time>
      </trkpt>
      <trkpt lat="60.19135" lon="7.48971">
        <ele>1295.51</ele>
        <time>2019-04-04T14:45:41Z</time>
      </trkpt>
      <trkpt lat="60.19136" lon="7.48972">
        <ele>1295.51</ele>
        <time>2019-04-04T14:45:55Z</time>
      </trkpt>
      <trkpt lat="60.19137" lon="7.48973">
        <ele>1296.96</ele>
        <time>2019-04-04T14:45:57Z</time>
      </trkpt>
      <trkpt lat="60.19142" lon="7.48985">
        <ele>1295.99</ele>
        <time>2019-04-04T14:46:10Z</time>
      </trkpt>
      <trkpt lat="60.19142" lon="7.48986">
        <ele>1294.55</ele>
        <time>2019-04-04T14:46:12Z</time>
      </trkpt>
      <trkpt lat="60.19142" lon="7.48987">
        <ele>1295.99</ele>
        <time>2019-04-04T14:46:22Z</time>
      </trkpt>
      <trkpt lat="60.19141" lon="7.48989">
        <ele>1294.55</ele>
        <time>2019-04-04T14:46:31Z</time>
      </trkpt>
      <trkpt lat="60.19141" lon="7.4899">
        <ele>1295.99</ele>
        <time>2019-04-04T14:46:33Z</time>
      </trkpt>
      <trkpt lat="60.19146" lon="7.48998">
        <ele>1295.99</ele>
        <time>2019-04-04T14:46:41Z</time>
      </trkpt>
      <trkpt lat="60.19146" lon="7.48997">
        <ele>1294.07</ele>
        <time>2019-04-04T14:46:43Z</time>
      </trkpt>
      <trkpt lat="60.19145" lon="7.48996">
        <ele>1294.07</ele>
        <time>2019-04-04T14:47:00Z</time>
      </trkpt>
      <trkpt lat="60.19142" lon="7.4899">
        <ele>1296.96</ele>
        <time>2019-04-04T14:47:05Z</time>
      </trkpt>
      <trkpt lat="60.19145" lon="7.48992">
        <ele>1293.59</ele>
        <time>2019-04-04T14:47:18Z</time>
      </trkpt>
      <trkpt lat="60.19145" lon="7.48993">
        <ele>1296.48</ele>
        <time>2019-04-04T14:47:20Z</time>
      </trkpt>
      <trkpt lat="60.19146" lon="7.48994">
        <ele>1295.51</ele>
        <time>2019-04-04T14:47:34Z</time>
      </trkpt>
      <trkpt lat="60.19147" lon="7.48995">
        <ele>1295.51</ele>
        <time>2019-04-04T14:47:49Z</time>
      </trkpt>
      <trkpt lat="60.19145" lon="7.49">
        <ele>1295.99</ele>
        <time>2019-04-04T14:47:56Z</time>
      </trkpt>
      <trkpt lat="60.19147" lon="7.48997">
        <ele>1295.51</ele>
        <time>2019-04-04T14:48:07Z</time>
      </trkpt>
      <trkpt lat="60.19147" lon="7.48996">
        <ele>1295.51</ele>
        <time>2019-04-04T14:48:23Z</time>
      </trkpt>
      <trkpt lat="60.19147" lon="7.48996">
        <ele>1295.51</ele>
        <time>2019-04-04T14:48:41Z</time>
      </trkpt>
      <trkpt lat="60.19147" lon="7.48997">
        <ele>1294.55</ele>
        <time>2019-04-04T14:48:57Z</time>
      </trkpt>
      <trkpt lat="60.19146" lon="7.48997">
        <ele>1294.55</ele>
        <time>2019-04-04T14:48:58Z</time>
      </trkpt>
      <trkpt lat="60.19146" lon="7.48998">
        <ele>1294.55</ele>
        <time>2019-04-04T14:49:14Z</time>
      </trkpt>
      <trkpt lat="60.19146" lon="7.49">
        <ele>1294.55</ele>
        <time>2019-04-04T14:49:41Z</time>
      </trkpt>
      <trkpt lat="60.19146" lon="7.49002">
        <ele>1294.55</ele>
        <time>2019-04-04T14:49:43Z</time>
      </trkpt>
      <trkpt lat="60.19147" lon="7.49011">
        <ele>1293.59</ele>
        <time>2019-04-04T14:49:54Z</time>
      </trkpt>
      <trkpt lat="60.19147" lon="7.49002">
        <ele>1295.03</ele>
        <time>2019-04-04T14:50:06Z</time>
      </trkpt>
      <trkpt lat="60.19144" lon="7.48997">
        <ele>1295.03</ele>
        <time>2019-04-04T14:50:16Z</time>
      </trkpt>
      <trkpt lat="60.19142" lon="7.48996">
        <ele>1295.03</ele>
        <time>2019-04-04T14:50:28Z</time>
      </trkpt>
      <trkpt lat="60.19141" lon="7.48996">
        <ele>1295.03</ele>
        <time>2019-04-04T14:50:31Z</time>
      </trkpt>
      <trkpt lat="60.19147" lon="7.48976">
        <ele>1296.48</ele>
        <time>2019-04-04T14:50:36Z</time>
      </trkpt>
      <trkpt lat="60.19161" lon="7.48935">
        <ele>1297.44</ele>
        <time>2019-04-04T14:50:40Z</time>
      </trkpt>
      <trkpt lat="60.19171" lon="7.4889">
        <ele>1300.8</ele>
        <time>2019-04-04T14:50:44Z</time>
      </trkpt>
      <trkpt lat="60.19176" lon="7.48872">
        <ele>1302.72</ele>
        <time>2019-04-04T14:50:46Z</time>
      </trkpt>
      <trkpt lat="60.19186" lon="7.48847">
        <ele>1308.01</ele>
        <time>2019-04-04T14:50:50Z</time>
      </trkpt>
      <trkpt lat="60.19188" lon="7.48834">
        <ele>1309.93</ele>
        <time>2019-04-04T14:50:52Z</time>
      </trkpt>
      <trkpt lat="60.19199" lon="7.48813">
        <ele>1315.22</ele>
        <time>2019-04-04T14:50:55Z</time>
      </trkpt>
      <trkpt lat="60.19213" lon="7.488">
        <ele>1320.51</ele>
        <time>2019-04-04T14:50:58Z</time>
      </trkpt>
      <trkpt lat="60.19227" lon="7.48792">
        <ele>1324.83</ele>
        <time>2019-04-04T14:51:01Z</time>
      </trkpt>
      <trkpt lat="60.19245" lon="7.48785">
        <ele>1328.68</ele>
        <time>2019-04-04T14:51:05Z</time>
      </trkpt>
      <trkpt lat="60.19261" lon="7.48784">
        <ele>1332.52</ele>
        <time>2019-04-04T14:51:09Z</time>
      </trkpt>
      <trkpt lat="60.19273" lon="7.48797">
        <ele>1331.56</ele>
        <time>2019-04-04T14:51:16Z</time>
      </trkpt>
      <trkpt lat="60.19273" lon="7.48798">
        <ele>1331.56</ele>
        <time>2019-04-04T14:51:17Z</time>
      </trkpt>
      <trkpt lat="60.19272" lon="7.48799">
        <ele>1330.12</ele>
        <time>2019-04-04T14:51:31Z</time>
      </trkpt>
      <trkpt lat="60.19272" lon="7.48799">
        <ele>1330.12</ele>
        <time>2019-04-04T14:51:32Z</time>
      </trkpt>
      <trkpt lat="60.19263" lon="7.48797">
        <ele>1329.16</ele>
        <time>2019-04-04T14:51:37Z</time>
      </trkpt>
      <trkpt lat="60.19252" lon="7.4881">
        <ele>1324.83</ele>
        <time>2019-04-04T14:51:40Z</time>
      </trkpt>
      <trkpt lat="60.19242" lon="7.48827">
        <ele>1320.51</ele>
        <time>2019-04-04T14:51:42Z</time>
      </trkpt>
      <trkpt lat="60.19224" lon="7.48849">
        <ele>1316.66</ele>
        <time>2019-04-04T14:51:45Z</time>
      </trkpt>
      <trkpt lat="60.19219" lon="7.4887">
        <ele>1312.34</ele>
        <time>2019-04-04T14:51:47Z</time>
      </trkpt>
      <trkpt lat="60.19216" lon="7.4888">
        <ele>1308.49</ele>
        <time>2019-04-04T14:51:48Z</time>
      </trkpt>
      <trkpt lat="60.19211" lon="7.48886">
        <ele>1305.13</ele>
        <time>2019-04-04T14:51:49Z</time>
      </trkpt>
      <trkpt lat="60.19208" lon="7.48886">
        <ele>1305.13</ele>
        <time>2019-04-04T14:51:50Z</time>
      </trkpt>
      <trkpt lat="60.19206" lon="7.48881">
        <ele>1305.61</ele>
        <time>2019-04-04T14:51:56Z</time>
      </trkpt>
      <trkpt lat="60.19206" lon="7.4888">
        <ele>1305.13</ele>
        <time>2019-04-04T14:51:58Z</time>
      </trkpt>
      <trkpt lat="60.19215" lon="7.48864">
        <ele>1309.93</ele>
        <time>2019-04-04T14:52:02Z</time>
      </trkpt>
      <trkpt lat="60.19229" lon="7.48845">
        <ele>1313.78</ele>
        <time>2019-04-04T14:52:06Z</time>
      </trkpt>
      <trkpt lat="60.19237" lon="7.48832">
        <ele>1318.1</ele>
        <time>2019-04-04T14:52:08Z</time>
      </trkpt>
      <trkpt lat="60.19256" lon="7.4882">
        <ele>1324.83</ele>
        <time>2019-04-04T14:52:12Z</time>
      </trkpt>
      <trkpt lat="60.19268" lon="7.48815">
        <ele>1327.72</ele>
        <time>2019-04-04T14:52:15Z</time>
      </trkpt>
      <trkpt lat="60.19262" lon="7.48813">
        <ele>1327.24</ele>
        <time>2019-04-04T14:52:19Z</time>
      </trkpt>
      <trkpt lat="60.19246" lon="7.48828">
        <ele>1321.47</ele>
        <time>2019-04-04T14:52:22Z</time>
      </trkpt>
      <trkpt lat="60.19231" lon="7.48843">
        <ele>1317.62</ele>
        <time>2019-04-04T14:52:24Z</time>
      </trkpt>
      <trkpt lat="60.1921" lon="7.48872">
        <ele>1309.45</ele>
        <time>2019-04-04T14:52:27Z</time>
      </trkpt>
      <trkpt lat="60.19203" lon="7.48882">
        <ele>1308.97</ele>
        <time>2019-04-04T14:52:28Z</time>
      </trkpt>
      <trkpt lat="60.19192" lon="7.48907">
        <ele>1302.24</ele>
        <time>2019-04-04T14:52:30Z</time>
      </trkpt>
      <trkpt lat="60.19185" lon="7.48916">
        <ele>1297.44</ele>
        <time>2019-04-04T14:52:31Z</time>
      </trkpt>
      <trkpt lat="60.19178" lon="7.48924">
        <ele>1297.44</ele>
        <time>2019-04-04T14:52:32Z</time>
      </trkpt>
      <trkpt lat="60.19163" lon="7.48941">
        <ele>1293.59</ele>
        <time>2019-04-04T14:52:34Z</time>
      </trkpt>
      <trkpt lat="60.1915" lon="7.48958">
        <ele>1292.63</ele>
        <time>2019-04-04T14:52:36Z</time>
      </trkpt>
      <trkpt lat="60.19139" lon="7.48961">
        <ele>1295.51</ele>
        <time>2019-04-04T14:52:38Z</time>
      </trkpt>
      <trkpt lat="60.19139" lon="7.48922">
        <ele>1297.44</ele>
        <time>2019-04-04T14:52:43Z</time>
      </trkpt>
      <trkpt lat="60.19135" lon="7.48901">
        <ele>1297.44</ele>
        <time>2019-04-04T14:52:46Z</time>
      </trkpt>
      <trkpt lat="60.19101" lon="7.48862">
        <ele>1297.92</ele>
        <time>2019-04-04T14:52:52Z</time>
      </trkpt>
      <trkpt lat="60.19046" lon="7.48822">
        <ele>1298.88</ele>
        <time>2019-04-04T14:52:58Z</time>
      </trkpt>
      <trkpt lat="60.19021" lon="7.48797">
        <ele>1303.2</ele>
        <time>2019-04-04T14:53:01Z</time>
      </trkpt>
      <trkpt lat="60.18995" lon="7.48771">
        <ele>1309.93</ele>
        <time>2019-04-04T14:53:04Z</time>
      </trkpt>
      <trkpt lat="60.18953" lon="7.48732">
        <ele>1314.74</ele>
        <time>2019-04-04T14:53:09Z</time>
      </trkpt>
      <trkpt lat="60.1893" lon="7.48711">
        <ele>1315.7</ele>
        <time>2019-04-04T14:53:12Z</time>
      </trkpt>
      <trkpt lat="60.18889" lon="7.48678">
        <ele>1312.82</ele>
        <time>2019-04-04T14:53:17Z</time>
      </trkpt>
      <trkpt lat="60.18872" lon="7.48668">
        <ele>1309.93</ele>
        <time>2019-04-04T14:53:19Z</time>
      </trkpt>
      <trkpt lat="60.18862" lon="7.48663">
        <ele>1307.05</ele>
        <time>2019-04-04T14:53:20Z</time>
      </trkpt>
      <trkpt lat="60.18853" lon="7.48658">
        <ele>1307.05</ele>
        <time>2019-04-04T14:53:21Z</time>
      </trkpt>
      <trkpt lat="60.18821" lon="7.48656">
        <ele>1301.28</ele>
        <time>2019-04-04T14:53:25Z</time>
      </trkpt>
      <trkpt lat="60.18814" lon="7.48657">
        <ele>1300.32</ele>
        <time>2019-04-04T14:53:26Z</time>
      </trkpt>
      <trkpt lat="60.18786" lon="7.48642">
        <ele>1301.28</ele>
        <time>2019-04-04T14:53:31Z</time>
      </trkpt>
      <trkpt lat="60.18772" lon="7.4864">
        <ele>1298.4</ele>
        <time>2019-04-04T14:53:34Z</time>
      </trkpt>
      <trkpt lat="60.18766" lon="7.48641">
        <ele>1296.48</ele>
        <time>2019-04-04T14:53:35Z</time>
      </trkpt>
      <trkpt lat="60.18746" lon="7.48644">
        <ele>1291.19</ele>
        <time>2019-04-04T14:53:38Z</time>
      </trkpt>
      <trkpt lat="60.1874" lon="7.48648">
        <ele>1287.34</ele>
        <time>2019-04-04T14:53:39Z</time>
      </trkpt>
      <trkpt lat="60.18726" lon="7.48654">
        <ele>1284.46</ele>
        <time>2019-04-04T14:53:41Z</time>
      </trkpt>
      <trkpt lat="60.18705" lon="7.48655">
        <ele>1275.33</ele>
        <time>2019-04-04T14:53:43Z</time>
      </trkpt>
      <trkpt lat="60.18693" lon="7.48654">
        <ele>1274.85</ele>
        <time>2019-04-04T14:53:44Z</time>
      </trkpt>
      <trkpt lat="60.18681" lon="7.4865">
        <ele>1272.92</ele>
        <time>2019-04-04T14:53:45Z</time>
      </trkpt>
      <trkpt lat="60.18658" lon="7.48645">
        <ele>1272.44</ele>
        <time>2019-04-04T14:53:47Z</time>
      </trkpt>
      <trkpt lat="60.18626" lon="7.48641">
        <ele>1270.04</ele>
        <time>2019-04-04T14:53:50Z</time>
      </trkpt>
      <trkpt lat="60.18606" lon="7.48649">
        <ele>1267.64</ele>
        <time>2019-04-04T14:53:53Z</time>
      </trkpt>
      <trkpt lat="60.18599" lon="7.48654">
        <ele>1264.75</ele>
        <time>2019-04-04T14:53:54Z</time>
      </trkpt>
      <trkpt lat="60.18581" lon="7.4866">
        <ele>1263.31</ele>
        <time>2019-04-04T14:53:56Z</time>
      </trkpt>
      <trkpt lat="60.18554" lon="7.48667">
        <ele>1261.87</ele>
        <time>2019-04-04T14:53:59Z</time>
      </trkpt>
      <trkpt lat="60.18535" lon="7.48677">
        <ele>1257.54</ele>
        <time>2019-04-04T14:54:01Z</time>
      </trkpt>
      <trkpt lat="60.18497" lon="7.48688">
        <ele>1255.62</ele>
        <time>2019-04-04T14:54:05Z</time>
      </trkpt>
      <trkpt lat="60.1848" lon="7.48683">
        <ele>1259.94</ele>
        <time>2019-04-04T14:54:08Z</time>
      </trkpt>
      <trkpt lat="60.18481" lon="7.48661">
        <ele>1260.91</ele>
        <time>2019-04-04T14:54:10Z</time>
      </trkpt>
      <trkpt lat="60.18489" lon="7.48632">
        <ele>1259.46</ele>
        <time>2019-04-04T14:54:12Z</time>
      </trkpt>
      <trkpt lat="60.18503" lon="7.48533">
        <ele>1256.58</ele>
        <time>2019-04-04T14:54:18Z</time>
      </trkpt>
      <trkpt lat="60.18501" lon="7.48484">
        <ele>1256.1</ele>
        <time>2019-04-04T14:54:23Z</time>
      </trkpt>
      <trkpt lat="60.18493" lon="7.48463">
        <ele>1255.62</ele>
        <time>2019-04-04T14:54:25Z</time>
      </trkpt>
      <trkpt lat="60.18461" lon="7.48408">
        <ele>1252.74</ele>
        <time>2019-04-04T14:54:30Z</time>
      </trkpt>
      <trkpt lat="60.18449" lon="7.48382">
        <ele>1253.7</ele>
        <time>2019-04-04T14:54:33Z</time>
      </trkpt>
      <trkpt lat="60.1844" lon="7.4834">
        <ele>1253.7</ele>
        <time>2019-04-04T14:54:37Z</time>
      </trkpt>
      <trkpt lat="60.18441" lon="7.48337">
        <ele>1253.7</ele>
        <time>2019-04-04T14:54:38Z</time>
      </trkpt>
      <trkpt lat="60.18441" lon="7.4833">
        <ele>1253.7</ele>
        <time>2019-04-04T14:54:40Z</time>
      </trkpt>
      <trkpt lat="60.18441" lon="7.48325">
        <ele>1253.7</ele>
        <time>2019-04-04T14:54:41Z</time>
      </trkpt>
      <trkpt lat="60.18442" lon="7.48316">
        <ele>1253.7</ele>
        <time>2019-04-04T14:54:44Z</time>
      </trkpt>
      <trkpt lat="60.18444" lon="7.48304">
        <ele>1254.66</ele>
        <time>2019-04-04T14:54:54Z</time>
      </trkpt>
      <trkpt lat="60.18444" lon="7.48301">
        <ele>1254.66</ele>
        <time>2019-04-04T14:54:56Z</time>
      </trkpt>
      <trkpt lat="60.18444" lon="7.48293">
        <ele>1254.66</ele>
        <time>2019-04-04T14:54:58Z</time>
      </trkpt>
      <trkpt lat="60.18445" lon="7.48289">
        <ele>1254.66</ele>
        <time>2019-04-04T14:54:59Z</time>
      </trkpt>
      <trkpt lat="60.18447" lon="7.4827">
        <ele>1254.66</ele>
        <time>2019-04-04T14:55:03Z</time>
      </trkpt>
      <trkpt lat="60.18448" lon="7.4826">
        <ele>1254.66</ele>
        <time>2019-04-04T14:55:04Z</time>
      </trkpt>
      <trkpt lat="60.18453" lon="7.48234">
        <ele>1252.25</ele>
        <time>2019-04-04T14:55:08Z</time>
      </trkpt>
      <trkpt lat="60.18454" lon="7.48231">
        <ele>1252.25</ele>
        <time>2019-04-04T14:55:09Z</time>
      </trkpt>
      <trkpt lat="60.18463" lon="7.48209">
        <ele>1251.29</ele>
        <time>2019-04-04T14:55:14Z</time>
      </trkpt>
      <trkpt lat="60.18491" lon="7.48161">
        <ele>1250.33</ele>
        <time>2019-04-04T14:55:20Z</time>
      </trkpt>
      <trkpt lat="60.18497" lon="7.48126">
        <ele>1249.85</ele>
        <time>2019-04-04T14:55:22Z</time>
      </trkpt>
      <trkpt lat="60.18549" lon="7.47977">
        <ele>1247.93</ele>
        <time>2019-04-04T14:55:31Z</time>
      </trkpt>
      <trkpt lat="60.18556" lon="7.47964">
        <ele>1248.41</ele>
        <time>2019-04-04T14:55:32Z</time>
      </trkpt>
      <trkpt lat="60.18563" lon="7.47955">
        <ele>1248.41</ele>
        <time>2019-04-04T14:55:33Z</time>
      </trkpt>
      <trkpt lat="60.18576" lon="7.47945">
        <ele>1249.85</ele>
        <time>2019-04-04T14:55:35Z</time>
      </trkpt>
      <trkpt lat="60.18577" lon="7.47936">
        <ele>1246.97</ele>
        <time>2019-04-04T14:55:38Z</time>
      </trkpt>
      <trkpt lat="60.18572" lon="7.47933">
        <ele>1246.97</ele>
        <time>2019-04-04T14:55:39Z</time>
      </trkpt>
      <trkpt lat="60.18551" lon="7.47915">
        <ele>1243.6</ele>
        <time>2019-04-04T14:55:42Z</time>
      </trkpt>
      <trkpt lat="60.18542" lon="7.47913">
        <ele>1243.6</ele>
        <time>2019-04-04T14:55:43Z</time>
      </trkpt>
      <trkpt lat="60.18533" lon="7.47914">
        <ele>1243.6</ele>
        <time>2019-04-04T14:55:44Z</time>
      </trkpt>
      <trkpt lat="60.18502" lon="7.47904">
        <ele>1242.64</ele>
        <time>2019-04-04T14:55:48Z</time>
      </trkpt>
      <trkpt lat="60.18491" lon="7.47904">
        <ele>1241.2</ele>
        <time>2019-04-04T14:55:50Z</time>
      </trkpt>
      <trkpt lat="60.18473" lon="7.47919">
        <ele>1241.2</ele>
        <time>2019-04-04T14:55:55Z</time>
      </trkpt>
      <trkpt lat="60.18486" lon="7.47921">
        <ele>1244.56</ele>
        <time>2019-04-04T14:55:59Z</time>
      </trkpt>
      <trkpt lat="60.18495" lon="7.47928">
        <ele>1245.04</ele>
        <time>2019-04-04T14:56:01Z</time>
      </trkpt>
      <trkpt lat="60.18517" lon="7.47938">
        <ele>1246.01</ele>
        <time>2019-04-04T14:56:05Z</time>
      </trkpt>
      <trkpt lat="60.18569" lon="7.47965">
        <ele>1249.85</ele>
        <time>2019-04-04T14:56:13Z</time>
      </trkpt>
      <trkpt lat="60.18608" lon="7.47965">
        <ele>1253.7</ele>
        <time>2019-04-04T14:56:18Z</time>
      </trkpt>
      <trkpt lat="60.18626" lon="7.4796">
        <ele>1255.14</ele>
        <time>2019-04-04T14:56:20Z</time>
      </trkpt>
      <trkpt lat="60.18667" lon="7.47938">
        <ele>1256.58</ele>
        <time>2019-04-04T14:56:25Z</time>
      </trkpt>
      <trkpt lat="60.18713" lon="7.47945">
        <ele>1258.02</ele>
        <time>2019-04-04T14:56:31Z</time>
      </trkpt>
      <trkpt lat="60.18733" lon="7.47952">
        <ele>1260.91</ele>
        <time>2019-04-04T14:56:34Z</time>
      </trkpt>
      <trkpt lat="60.18751" lon="7.47961">
        <ele>1264.27</ele>
        <time>2019-04-04T14:56:38Z</time>
      </trkpt>
      <trkpt lat="60.18748" lon="7.4796">
        <ele>1263.31</ele>
        <time>2019-04-04T14:56:42Z</time>
      </trkpt>
      <trkpt lat="60.18744" lon="7.47965">
        <ele>1263.31</ele>
        <time>2019-04-04T14:56:43Z</time>
      </trkpt>
      <trkpt lat="60.18722" lon="7.47992">
        <ele>1258.98</ele>
        <time>2019-04-04T14:56:47Z</time>
      </trkpt>
      <trkpt lat="60.18692" lon="7.48019">
        <ele>1256.58</ele>
        <time>2019-04-04T14:56:51Z</time>
      </trkpt>
      <trkpt lat="60.18643" lon="7.48056">
        <ele>1254.66</ele>
        <time>2019-04-04T14:56:58Z</time>
      </trkpt>
      <trkpt lat="60.18618" lon="7.48059">
        <ele>1256.58</ele>
        <time>2019-04-04T14:57:02Z</time>
      </trkpt>
      <trkpt lat="60.18603" lon="7.48066">
        <ele>1254.66</ele>
        <time>2019-04-04T14:57:05Z</time>
      </trkpt>
      <trkpt lat="60.18597" lon="7.48068">
        <ele>1254.66</ele>
        <time>2019-04-04T14:57:06Z</time>
      </trkpt>
      <trkpt lat="60.18585" lon="7.48074">
        <ele>1254.18</ele>
        <time>2019-04-04T14:57:08Z</time>
      </trkpt>
      <trkpt lat="60.18579" lon="7.48061">
        <ele>1253.7</ele>
        <time>2019-04-04T14:57:12Z</time>
      </trkpt>
      <trkpt lat="60.18587" lon="7.48049">
        <ele>1253.7</ele>
        <time>2019-04-04T14:57:14Z</time>
      </trkpt>
      <trkpt lat="60.18592" lon="7.48037">
        <ele>1252.74</ele>
        <time>2019-04-04T14:57:19Z</time>
      </trkpt>
      <trkpt lat="60.18566" lon="7.48059">
        <ele>1249.85</ele>
        <time>2019-04-04T14:57:25Z</time>
      </trkpt>
      <trkpt lat="60.18561" lon="7.48065">
        <ele>1251.29</ele>
        <time>2019-04-04T14:57:26Z</time>
      </trkpt>
      <trkpt lat="60.18549" lon="7.48079">
        <ele>1252.74</ele>
        <time>2019-04-04T14:57:28Z</time>
      </trkpt>
      <trkpt lat="60.18533" lon="7.48099">
        <ele>1250.33</ele>
        <time>2019-04-04T14:57:31Z</time>
      </trkpt>
      <trkpt lat="60.18504" lon="7.48132">
        <ele>1249.85</ele>
        <time>2019-04-04T14:57:36Z</time>
      </trkpt>
      <trkpt lat="60.18488" lon="7.48134">
        <ele>1247.45</ele>
        <time>2019-04-04T14:57:39Z</time>
      </trkpt>
      <trkpt lat="60.18476" lon="7.48159">
        <ele>1247.93</ele>
        <time>2019-04-04T14:57:46Z</time>
      </trkpt>
      <trkpt lat="60.18475" lon="7.48158">
        <ele>1246.97</ele>
        <time>2019-04-04T14:57:58Z</time>
      </trkpt>
      <trkpt lat="60.18474" lon="7.48158">
        <ele>1247.93</ele>
        <time>2019-04-04T14:58:11Z</time>
      </trkpt>
      <trkpt lat="60.1848" lon="7.48136">
        <ele>1248.89</ele>
        <time>2019-04-04T14:58:17Z</time>
      </trkpt>
      <trkpt lat="60.185" lon="7.4808">
        <ele>1248.89</ele>
        <time>2019-04-04T14:58:24Z</time>
      </trkpt>
      <trkpt lat="60.18514" lon="7.48036">
        <ele>1247.93</ele>
        <time>2019-04-04T14:58:29Z</time>
      </trkpt>
      <trkpt lat="60.18516" lon="7.48026">
        <ele>1247.93</ele>
        <time>2019-04-04T14:58:30Z</time>
      </trkpt>
      <trkpt lat="60.18517" lon="7.48017">
        <ele>1247.45</ele>
        <time>2019-04-04T14:58:31Z</time>
      </trkpt>
      <trkpt lat="60.18518" lon="7.48008">
        <ele>1246.97</ele>
        <time>2019-04-04T14:58:32Z</time>
      </trkpt>
      <trkpt lat="60.18519" lon="7.47999">
        <ele>1246.97</ele>
        <time>2019-04-04T14:58:33Z</time>
      </trkpt>
      <trkpt lat="60.1852" lon="7.47991">
        <ele>1246.97</ele>
        <time>2019-04-04T14:58:34Z</time>
      </trkpt>
      <trkpt lat="60.18528" lon="7.47962">
        <ele>1246.49</ele>
        <time>2019-04-04T14:58:39Z</time>
      </trkpt>
      <trkpt lat="60.18528" lon="7.4796">
        <ele>1246.01</ele>
        <time>2019-04-04T14:58:40Z</time>
      </trkpt>
      <trkpt lat="60.18523" lon="7.47959">
        <ele>1244.56</ele>
        <time>2019-04-04T14:58:46Z</time>
      </trkpt>
      <trkpt lat="60.1852" lon="7.47961">
        <ele>1244.56</ele>
        <time>2019-04-04T14:58:48Z</time>
      </trkpt>
      <trkpt lat="60.18517" lon="7.47964">
        <ele>1244.56</ele>
        <time>2019-04-04T14:58:49Z</time>
      </trkpt>
      <trkpt lat="60.18516" lon="7.47967">
        <ele>1244.08</ele>
        <time>2019-04-04T14:58:50Z</time>
      </trkpt>
      <trkpt lat="60.18514" lon="7.4797">
        <ele>1246.01</ele>
        <time>2019-04-04T14:58:51Z</time>
      </trkpt>
      <trkpt lat="60.18513" lon="7.47973">
        <ele>1246.01</ele>
        <time>2019-04-04T14:58:52Z</time>
      </trkpt>
      <trkpt lat="60.18511" lon="7.47976">
        <ele>1246.01</ele>
        <time>2019-04-04T14:59:03Z</time>
      </trkpt>
      <trkpt lat="60.18511" lon="7.47975">
        <ele>1246.01</ele>
        <time>2019-04-04T14:59:08Z</time>
      </trkpt>
      <trkpt lat="60.18513" lon="7.47967">
        <ele>1246.01</ele>
        <time>2019-04-04T14:59:10Z</time>
      </trkpt>
      <trkpt lat="60.18518" lon="7.47961">
        <ele>1246.49</ele>
        <time>2019-04-04T14:59:11Z</time>
      </trkpt>
      <trkpt lat="60.18524" lon="7.47957">
        <ele>1246.49</ele>
        <time>2019-04-04T14:59:12Z</time>
      </trkpt>
      <trkpt lat="60.18532" lon="7.47954">
        <ele>1247.45</ele>
        <time>2019-04-04T14:59:13Z</time>
      </trkpt>
      <trkpt lat="60.18539" lon="7.4795">
        <ele>1247.45</ele>
        <time>2019-04-04T14:59:14Z</time>
      </trkpt>
      <trkpt lat="60.18548" lon="7.47946">
        <ele>1247.93</ele>
        <time>2019-04-04T14:59:15Z</time>
      </trkpt>
      <trkpt lat="60.18584" lon="7.47927">
        <ele>1251.77</ele>
        <time>2019-04-04T14:59:19Z</time>
      </trkpt>
      <trkpt lat="60.18618" lon="7.47907">
        <ele>1254.18</ele>
        <time>2019-04-04T14:59:23Z</time>
      </trkpt>
      <trkpt lat="60.18633" lon="7.479">
        <ele>1255.14</ele>
        <time>2019-04-04T14:59:25Z</time>
      </trkpt>
      <trkpt lat="60.18664" lon="7.47878">
        <ele>1254.18</ele>
        <time>2019-04-04T14:59:29Z</time>
      </trkpt>
      <trkpt lat="60.18727" lon="7.4786">
        <ele>1256.1</ele>
        <time>2019-04-04T14:59:36Z</time>
      </trkpt>
      <trkpt lat="60.18768" lon="7.47849">
        <ele>1259.46</ele>
        <time>2019-04-04T14:59:41Z</time>
      </trkpt>
      <trkpt lat="60.18775" lon="7.47848">
        <ele>1260.43</ele>
        <time>2019-04-04T14:59:42Z</time>
      </trkpt>
      <trkpt lat="60.18801" lon="7.47844">
        <ele>1262.83</ele>
        <time>2019-04-04T14:59:46Z</time>
      </trkpt>
      <trkpt lat="60.18829" lon="7.47848">
        <ele>1264.75</ele>
        <time>2019-04-04T14:59:51Z</time>
      </trkpt>
      <trkpt lat="60.18833" lon="7.47843">
        <ele>1264.75</ele>
        <time>2019-04-04T14:59:59Z</time>
      </trkpt>
      <trkpt lat="60.18831" lon="7.47844">
        <ele>1264.75</ele>
        <time>2019-04-04T15:00:24Z</time>
      </trkpt>
      <trkpt lat="60.18831" lon="7.47844">
        <ele>1264.75</ele>
        <time>2019-04-04T15:00:48Z</time>
      </trkpt>
      <trkpt lat="60.18831" lon="7.47844">
        <ele>1263.31</ele>
        <time>2019-04-04T15:00:51Z</time>
      </trkpt>
      <trkpt lat="60.18831" lon="7.47843">
        <ele>1263.31</ele>
        <time>2019-04-04T15:01:13Z</time>
      </trkpt>
      <trkpt lat="60.18831" lon="7.47842">
        <ele>1262.83</ele>
        <time>2019-04-04T15:01:30Z</time>
      </trkpt>
      <trkpt lat="60.1883" lon="7.47842">
        <ele>1262.83</ele>
        <time>2019-04-04T15:01:33Z</time>
      </trkpt>
      <trkpt lat="60.18822" lon="7.47845">
        <ele>1261.87</ele>
        <time>2019-04-04T15:01:37Z</time>
      </trkpt>
      <trkpt lat="60.18806" lon="7.47858">
        <ele>1263.79</ele>
        <time>2019-04-04T15:01:40Z</time>
      </trkpt>
      <trkpt lat="60.18762" lon="7.47903">
        <ele>1264.75</ele>
        <time>2019-04-04T15:01:47Z</time>
      </trkpt>
      <trkpt lat="60.18726" lon="7.47919">
        <ele>1261.87</ele>
        <time>2019-04-04T15:01:51Z</time>
      </trkpt>
      <trkpt lat="60.18697" lon="7.47924">
        <ele>1258.02</ele>
        <time>2019-04-04T15:01:54Z</time>
      </trkpt>
      <trkpt lat="60.18632" lon="7.47956">
        <ele>1255.62</ele>
        <time>2019-04-04T15:02:02Z</time>
      </trkpt>
      <trkpt lat="60.18619" lon="7.47969">
        <ele>1254.66</ele>
        <time>2019-04-04T15:02:04Z</time>
      </trkpt>
      <trkpt lat="60.18567" lon="7.48033">
        <ele>1250.81</ele>
        <time>2019-04-04T15:02:12Z</time>
      </trkpt>
      <trkpt lat="60.18562" lon="7.4804">
        <ele>1250.81</ele>
        <time>2019-04-04T15:02:13Z</time>
      </trkpt>
      <trkpt lat="60.18557" lon="7.48046">
        <ele>1250.81</ele>
        <time>2019-04-04T15:02:14Z</time>
      </trkpt>
      <trkpt lat="60.18547" lon="7.48052">
        <ele>1250.81</ele>
        <time>2019-04-04T15:02:16Z</time>
      </trkpt>
      <trkpt lat="60.1853" lon="7.48066">
        <ele>1249.37</ele>
        <time>2019-04-04T15:02:19Z</time>
      </trkpt>
      <trkpt lat="60.18515" lon="7.48095">
        <ele>1249.37</ele>
        <time>2019-04-04T15:02:23Z</time>
      </trkpt>
      <trkpt lat="60.18509" lon="7.48115">
        <ele>1250.81</ele>
        <time>2019-04-04T15:02:28Z</time>
      </trkpt>
      <trkpt lat="60.18508" lon="7.48115">
        <ele>1249.37</ele>
        <time>2019-04-04T15:02:31Z</time>
      </trkpt>
      <trkpt lat="60.18505" lon="7.48118">
        <ele>1248.89</ele>
        <time>2019-04-04T15:02:36Z</time>
      </trkpt>
      <trkpt lat="60.18498" lon="7.48131">
        <ele>1248.41</ele>
        <time>2019-04-04T15:02:42Z</time>
      </trkpt>
      <trkpt lat="60.18494" lon="7.48134">
        <ele>1247.93</ele>
        <time>2019-04-04T15:02:54Z</time>
      </trkpt>
      <trkpt lat="60.18494" lon="7.48135">
        <ele>1247.93</ele>
        <time>2019-04-04T15:03:09Z</time>
      </trkpt>
      <trkpt lat="60.18487" lon="7.48135">
        <ele>1247.45</ele>
        <time>2019-04-04T15:03:13Z</time>
      </trkpt>
      <trkpt lat="60.18479" lon="7.48119">
        <ele>1247.45</ele>
        <time>2019-04-04T15:03:15Z</time>
      </trkpt>
      <trkpt lat="60.18458" lon="7.48098">
        <ele>1246.01</ele>
        <time>2019-04-04T15:03:18Z</time>
      </trkpt>
      <trkpt lat="60.1845" lon="7.48096">
        <ele>1246.01</ele>
        <time>2019-04-04T15:03:19Z</time>
      </trkpt>
      <trkpt lat="60.18442" lon="7.48095">
        <ele>1243.6</ele>
        <time>2019-04-04T15:03:20Z</time>
      </trkpt>
      <trkpt lat="60.18427" lon="7.48094">
        <ele>1247.45</ele>
        <time>2019-04-04T15:03:22Z</time>
      </trkpt>
      <trkpt lat="60.18419" lon="7.48095">
        <ele>1247.45</ele>
        <time>2019-04-04T15:03:23Z</time>
      </trkpt>
      <trkpt lat="60.18413" lon="7.48098">
        <ele>1245.04</ele>
        <time>2019-04-04T15:03:24Z</time>
      </trkpt>
      <trkpt lat="60.18407" lon="7.48102">
        <ele>1243.6</ele>
        <time>2019-04-04T15:03:25Z</time>
      </trkpt>
      <trkpt lat="60.18391" lon="7.48116">
        <ele>1246.01</ele>
        <time>2019-04-04T15:03:28Z</time>
      </trkpt>
      <trkpt lat="60.1838" lon="7.48129">
        <ele>1246.49</ele>
        <time>2019-04-04T15:03:30Z</time>
      </trkpt>
      <trkpt lat="60.18375" lon="7.48136">
        <ele>1245.53</ele>
        <time>2019-04-04T15:03:31Z</time>
      </trkpt>
      <trkpt lat="60.18355" lon="7.48151">
        <ele>1242.16</ele>
        <time>2019-04-04T15:03:34Z</time>
      </trkpt>
      <trkpt lat="60.18338" lon="7.48161">
        <ele>1240.72</ele>
        <time>2019-04-04T15:03:36Z</time>
      </trkpt>
      <trkpt lat="60.18299" lon="7.48174">
        <ele>1244.08</ele>
        <time>2019-04-04T15:03:40Z</time>
      </trkpt>
      <trkpt lat="60.18289" lon="7.48177">
        <ele>1244.08</ele>
        <time>2019-04-04T15:03:41Z</time>
      </trkpt>
      <trkpt lat="60.182" lon="7.48206">
        <ele>1244.08</ele>
        <time>2019-04-04T15:03:50Z</time>
      </trkpt>
      <trkpt lat="60.1818" lon="7.48215">
        <ele>1246.49</ele>
        <time>2019-04-04T15:03:52Z</time>
      </trkpt>
      <trkpt lat="60.18116" lon="7.48244">
        <ele>1242.16</ele>
        <time>2019-04-04T15:03:59Z</time>
      </trkpt>
      <trkpt lat="60.18107" lon="7.48248">
        <ele>1242.16</ele>
        <time>2019-04-04T15:04:00Z</time>
      </trkpt>
      <trkpt lat="60.18088" lon="7.48255">
        <ele>1244.08</ele>
        <time>2019-04-04T15:04:02Z</time>
      </trkpt>
      <trkpt lat="60.18068" lon="7.4826">
        <ele>1242.64</ele>
        <time>2019-04-04T15:04:04Z</time>
      </trkpt>
      <trkpt lat="60.17978" lon="7.48286">
        <ele>1239.28</ele>
        <time>2019-04-04T15:04:13Z</time>
      </trkpt>
      <trkpt lat="60.17967" lon="7.48289">
        <ele>1239.28</ele>
        <time>2019-04-04T15:04:14Z</time>
      </trkpt>
      <trkpt lat="60.17918" lon="7.48302">
        <ele>1235.91</ele>
        <time>2019-04-04T15:04:19Z</time>
      </trkpt>
      <trkpt lat="60.17907" lon="7.48302">
        <ele>1235.91</ele>
        <time>2019-04-04T15:04:20Z</time>
      </trkpt>
      <trkpt lat="60.17887" lon="7.48302">
        <ele>1239.28</ele>
        <time>2019-04-04T15:04:22Z</time>
      </trkpt>
      <trkpt lat="60.17867" lon="7.48303">
        <ele>1240.24</ele>
        <time>2019-04-04T15:04:24Z</time>
      </trkpt>
      <trkpt lat="60.1781" lon="7.4831">
        <ele>1242.64</ele>
        <time>2019-04-04T15:04:30Z</time>
      </trkpt>
      <trkpt lat="60.17796" lon="7.48316">
        <ele>1241.2</ele>
        <time>2019-04-04T15:04:32Z</time>
      </trkpt>
      <trkpt lat="60.17791" lon="7.48309">
        <ele>1239.28</ele>
        <time>2019-04-04T15:04:34Z</time>
      </trkpt>
      <trkpt lat="60.17798" lon="7.48304">
        <ele>1240.72</ele>
        <time>2019-04-04T15:04:36Z</time>
      </trkpt>
      <trkpt lat="60.17811" lon="7.48303">
        <ele>1241.68</ele>
        <time>2019-04-04T15:04:38Z</time>
      </trkpt>
      <trkpt lat="60.17828" lon="7.48297">
        <ele>1241.68</ele>
        <time>2019-04-04T15:04:40Z</time>
      </trkpt>
      <trkpt lat="60.1791" lon="7.48297">
        <ele>1242.64</ele>
        <time>2019-04-04T15:04:49Z</time>
      </trkpt>
      <trkpt lat="60.17938" lon="7.48296">
        <ele>1242.64</ele>
        <time>2019-04-04T15:04:52Z</time>
      </trkpt>
      <trkpt lat="60.18032" lon="7.48286">
        <ele>1243.12</ele>
        <time>2019-04-04T15:05:02Z</time>
      </trkpt>
      <trkpt lat="60.18052" lon="7.4828">
        <ele>1243.6</ele>
        <time>2019-04-04T15:05:04Z</time>
      </trkpt>
      <trkpt lat="60.18155" lon="7.48231">
        <ele>1244.56</ele>
        <time>2019-04-04T15:05:14Z</time>
      </trkpt>
      <trkpt lat="60.18242" lon="7.48201">
        <ele>1245.53</ele>
        <time>2019-04-04T15:05:23Z</time>
      </trkpt>
      <trkpt lat="60.1833" lon="7.48173">
        <ele>1246.01</ele>
        <time>2019-04-04T15:05:32Z</time>
      </trkpt>
      <trkpt lat="60.18408" lon="7.48123">
        <ele>1246.97</ele>
        <time>2019-04-04T15:05:41Z</time>
      </trkpt>
      <trkpt lat="60.18422" lon="7.48116">
        <ele>1248.41</ele>
        <time>2019-04-04T15:05:43Z</time>
      </trkpt>
      <trkpt lat="60.18428" lon="7.4811">
        <ele>1248.41</ele>
        <time>2019-04-04T15:05:44Z</time>
      </trkpt>
      <trkpt lat="60.18435" lon="7.48105">
        <ele>1246.97</ele>
        <time>2019-04-04T15:05:45Z</time>
      </trkpt>
      <trkpt lat="60.18443" lon="7.48103">
        <ele>1246.97</ele>
        <time>2019-04-04T15:05:46Z</time>
      </trkpt>
      <trkpt lat="60.1845" lon="7.48103">
        <ele>1246.97</ele>
        <time>2019-04-04T15:05:47Z</time>
      </trkpt>
      <trkpt lat="60.18457" lon="7.48105">
        <ele>1247.93</ele>
        <time>2019-04-04T15:05:48Z</time>
      </trkpt>
      <trkpt lat="60.18463" lon="7.48109">
        <ele>1247.93</ele>
        <time>2019-04-04T15:05:49Z</time>
      </trkpt>
      <trkpt lat="60.18477" lon="7.4812">
        <ele>1247.93</ele>
        <time>2019-04-04T15:05:52Z</time>
      </trkpt>
      <trkpt lat="60.18507" lon="7.48136">
        <ele>1251.77</ele>
        <time>2019-04-04T15:05:58Z</time>
      </trkpt>
      <trkpt lat="60.18514" lon="7.48135">
        <ele>1252.25</ele>
        <time>2019-04-04T15:06:00Z</time>
      </trkpt>
      <trkpt lat="60.185" lon="7.48135">
        <ele>1250.33</ele>
        <time>2019-04-04T15:06:04Z</time>
      </trkpt>
      <trkpt lat="60.18478" lon="7.48129">
        <ele>1245.53</ele>
        <time>2019-04-04T15:06:07Z</time>
      </trkpt>
      <trkpt lat="60.1847" lon="7.48119">
        <ele>1245.53</ele>
        <time>2019-04-04T15:06:08Z</time>
      </trkpt>
      <trkpt lat="60.18454" lon="7.48102">
        <ele>1247.93</ele>
        <time>2019-04-04T15:06:10Z</time>
      </trkpt>
      <trkpt lat="60.18446" lon="7.48099">
        <ele>1247.93</ele>
        <time>2019-04-04T15:06:11Z</time>
      </trkpt>
      <trkpt lat="60.18439" lon="7.48099">
        <ele>1246.49</ele>
        <time>2019-04-04T15:06:12Z</time>
      </trkpt>
      <trkpt lat="60.18432" lon="7.48101">
        <ele>1246.01</ele>
        <time>2019-04-04T15:06:13Z</time>
      </trkpt>
      <trkpt lat="60.18424" lon="7.48103">
        <ele>1246.01</ele>
        <time>2019-04-04T15:06:14Z</time>
      </trkpt>
      <trkpt lat="60.18416" lon="7.48106">
        <ele>1247.45</ele>
        <time>2019-04-04T15:06:15Z</time>
      </trkpt>
      <trkpt lat="60.18408" lon="7.4811">
        <ele>1247.45</ele>
        <time>2019-04-04T15:06:16Z</time>
      </trkpt>
      <trkpt lat="60.18392" lon="7.48117">
        <ele>1249.85</ele>
        <time>2019-04-04T15:06:18Z</time>
      </trkpt>
      <trkpt lat="60.18368" lon="7.48132">
        <ele>1245.04</ele>
        <time>2019-04-04T15:06:21Z</time>
      </trkpt>
      <trkpt lat="60.1836" lon="7.48138">
        <ele>1245.04</ele>
        <time>2019-04-04T15:06:22Z</time>
      </trkpt>
      <trkpt lat="60.18351" lon="7.48144">
        <ele>1245.04</ele>
        <time>2019-04-04T15:06:23Z</time>
      </trkpt>
      <trkpt lat="60.18335" lon="7.48158">
        <ele>1246.49</ele>
        <time>2019-04-04T15:06:25Z</time>
      </trkpt>
      <trkpt lat="60.18302" lon="7.48188">
        <ele>1244.08</ele>
        <time>2019-04-04T15:06:29Z</time>
      </trkpt>
      <trkpt lat="60.18243" lon="7.4825">
        <ele>1246.01</ele>
        <time>2019-04-04T15:06:37Z</time>
      </trkpt>
      <trkpt lat="60.18213" lon="7.4828">
        <ele>1245.53</ele>
        <time>2019-04-04T15:06:41Z</time>
      </trkpt>
      <trkpt lat="60.18174" lon="7.48315">
        <ele>1243.6</ele>
        <time>2019-04-04T15:06:46Z</time>
      </trkpt>
      <trkpt lat="60.18086" lon="7.4836">
        <ele>1244.56</ele>
        <time>2019-04-04T15:06:56Z</time>
      </trkpt>
      <trkpt lat="60.18057" lon="7.48372">
        <ele>1240.24</ele>
        <time>2019-04-04T15:06:59Z</time>
      </trkpt>
      <trkpt lat="60.17993" lon="7.48386">
        <ele>1241.2</ele>
        <time>2019-04-04T15:07:05Z</time>
      </trkpt>
      <trkpt lat="60.1795" lon="7.48394">
        <ele>1241.2</ele>
        <time>2019-04-04T15:07:09Z</time>
      </trkpt>
      <trkpt lat="60.17918" lon="7.48399">
        <ele>1239.76</ele>
        <time>2019-04-04T15:07:12Z</time>
      </trkpt>
      <trkpt lat="60.17888" lon="7.48404">
        <ele>1241.68</ele>
        <time>2019-04-04T15:07:15Z</time>
      </trkpt>
      <trkpt lat="60.17773" lon="7.48415">
        <ele>1239.28</ele>
        <time>2019-04-04T15:07:26Z</time>
      </trkpt>
      <trkpt lat="60.17732" lon="7.48419">
        <ele>1239.28</ele>
        <time>2019-04-04T15:07:30Z</time>
      </trkpt>
      <trkpt lat="60.17701" lon="7.4842">
        <ele>1235.91</ele>
        <time>2019-04-04T15:07:33Z</time>
      </trkpt>
      <trkpt lat="60.17691" lon="7.48421">
        <ele>1235.91</ele>
        <time>2019-04-04T15:07:34Z</time>
      </trkpt>
      <trkpt lat="60.17681" lon="7.48421">
        <ele>1239.76</ele>
        <time>2019-04-04T15:07:35Z</time>
      </trkpt>
      <trkpt lat="60.17635" lon="7.4843">
        <ele>1239.28</ele>
        <time>2019-04-04T15:07:40Z</time>
      </trkpt>
      <trkpt lat="60.17591" lon="7.4844">
        <ele>1240.24</ele>
        <time>2019-04-04T15:07:45Z</time>
      </trkpt>
      <trkpt lat="60.17495" lon="7.4846">
        <ele>1244.56</ele>
        <time>2019-04-04T15:07:55Z</time>
      </trkpt>
      <trkpt lat="60.17391" lon="7.48486">
        <ele>1243.6</ele>
        <time>2019-04-04T15:08:06Z</time>
      </trkpt>
      <trkpt lat="60.17352" lon="7.48496">
        <ele>1240.24</ele>
        <time>2019-04-04T15:08:10Z</time>
      </trkpt>
      <trkpt lat="60.17333" lon="7.48499">
        <ele>1238.32</ele>
        <time>2019-04-04T15:08:12Z</time>
      </trkpt>
      <trkpt lat="60.17247" lon="7.48523">
        <ele>1238.32</ele>
        <time>2019-04-04T15:08:22Z</time>
      </trkpt>
      <trkpt lat="60.17241" lon="7.48525">
        <ele>1240.24</ele>
        <time>2019-04-04T15:08:23Z</time>
      </trkpt>
      <trkpt lat="60.17231" lon="7.48521">
        <ele>1237.35</ele>
        <time>2019-04-04T15:08:26Z</time>
      </trkpt>
      <trkpt lat="60.17232" lon="7.48524">
        <ele>1237.83</ele>
        <time>2019-04-04T15:08:39Z</time>
      </trkpt>
      <trkpt lat="60.17233" lon="7.48523">
        <ele>1237.83</ele>
        <time>2019-04-04T15:08:53Z</time>
      </trkpt>
      <trkpt lat="60.17232" lon="7.48523">
        <ele>1237.35</ele>
        <time>2019-04-04T15:09:11Z</time>
      </trkpt>
      <trkpt lat="60.17231" lon="7.48524">
        <ele>1237.35</ele>
        <time>2019-04-04T15:09:37Z</time>
      </trkpt>
      <trkpt lat="60.17231" lon="7.48523">
        <ele>1237.35</ele>
        <time>2019-04-04T15:09:59Z</time>
      </trkpt>
      <trkpt lat="60.17231" lon="7.48522">
        <ele>1237.35</ele>
        <time>2019-04-04T15:10:17Z</time>
      </trkpt>
      <trkpt lat="60.17231" lon="7.48522">
        <ele>1237.35</ele>
        <time>2019-04-04T15:10:33Z</time>
      </trkpt>
      <trkpt lat="60.17232" lon="7.48523">
        <ele>1237.35</ele>
        <time>2019-04-04T15:11:03Z</time>
      </trkpt>
      <trkpt lat="60.17232" lon="7.48523">
        <ele>1237.35</ele>
        <time>2019-04-04T15:11:28Z</time>
      </trkpt>
      <trkpt lat="60.17231" lon="7.48524">
        <ele>1237.35</ele>
        <time>2019-04-04T15:11:46Z</time>
      </trkpt>
      <trkpt lat="60.17232" lon="7.48522">
        <ele>1237.35</ele>
        <time>2019-04-04T15:11:53Z</time>
      </trkpt>
      <trkpt lat="60.17239" lon="7.48507">
        <ele>1237.35</ele>
        <time>2019-04-04T15:11:57Z</time>
      </trkpt>
      <trkpt lat="60.17247" lon="7.485">
        <ele>1237.35</ele>
        <time>2019-04-04T15:11:59Z</time>
      </trkpt>
      <trkpt lat="60.17274" lon="7.48498">
        <ele>1238.8</ele>
        <time>2019-04-04T15:12:04Z</time>
      </trkpt>
      <trkpt lat="60.17299" lon="7.48504">
        <ele>1238.8</ele>
        <time>2019-04-04T15:12:08Z</time>
      </trkpt>
      <trkpt lat="60.17336" lon="7.48499">
        <ele>1239.28</ele>
        <time>2019-04-04T15:12:15Z</time>
      </trkpt>
      <trkpt lat="60.17356" lon="7.48488">
        <ele>1240.72</ele>
        <time>2019-04-04T15:12:19Z</time>
      </trkpt>
      <trkpt lat="60.17397" lon="7.48485">
        <ele>1242.64</ele>
        <time>2019-04-04T15:12:25Z</time>
      </trkpt>
      <trkpt lat="60.17459" lon="7.4846">
        <ele>1244.08</ele>
        <time>2019-04-04T15:12:33Z</time>
      </trkpt>
      <trkpt lat="60.17536" lon="7.48443">
        <ele>1245.53</ele>
        <time>2019-04-04T15:12:41Z</time>
      </trkpt>
      <trkpt lat="60.17635" lon="7.48426">
        <ele>1246.49</ele>
        <time>2019-04-04T15:12:51Z</time>
      </trkpt>
      <trkpt lat="60.17664" lon="7.48415">
        <ele>1243.12</ele>
        <time>2019-04-04T15:12:54Z</time>
      </trkpt>
      <trkpt lat="60.1771" lon="7.48418">
        <ele>1242.16</ele>
        <time>2019-04-04T15:12:59Z</time>
      </trkpt>
      <trkpt lat="60.17796" lon="7.48404">
        <ele>1241.68</ele>
        <time>2019-04-04T15:13:08Z</time>
      </trkpt>
      <trkpt lat="60.17886" lon="7.48371">
        <ele>1241.68</ele>
        <time>2019-04-04T15:13:17Z</time>
      </trkpt>
      <trkpt lat="60.17905" lon="7.4836">
        <ele>1241.68</ele>
        <time>2019-04-04T15:13:19Z</time>
      </trkpt>
      <trkpt lat="60.18003" lon="7.48324">
        <ele>1241.68</ele>
        <time>2019-04-04T15:13:29Z</time>
      </trkpt>
      <trkpt lat="60.18052" lon="7.48314">
        <ele>1243.12</ele>
        <time>2019-04-04T15:13:34Z</time>
      </trkpt>
      <trkpt lat="60.1808" lon="7.48306">
        <ele>1244.56</ele>
        <time>2019-04-04T15:13:37Z</time>
      </trkpt>
      <trkpt lat="60.18104" lon="7.48284">
        <ele>1243.6</ele>
        <time>2019-04-04T15:13:40Z</time>
      </trkpt>
      <trkpt lat="60.18121" lon="7.48273">
        <ele>1243.6</ele>
        <time>2019-04-04T15:13:42Z</time>
      </trkpt>
      <trkpt lat="60.18217" lon="7.48231">
        <ele>1244.56</ele>
        <time>2019-04-04T15:13:52Z</time>
      </trkpt>
      <trkpt lat="60.18316" lon="7.48185">
        <ele>1245.04</ele>
        <time>2019-04-04T15:14:02Z</time>
      </trkpt>
      <trkpt lat="60.18343" lon="7.48172">
        <ele>1245.53</ele>
        <time>2019-04-04T15:14:05Z</time>
      </trkpt>
      <trkpt lat="60.18398" lon="7.4813">
        <ele>1247.45</ele>
        <time>2019-04-04T15:14:12Z</time>
      </trkpt>
      <trkpt lat="60.18404" lon="7.48122">
        <ele>1247.45</ele>
        <time>2019-04-04T15:14:13Z</time>
      </trkpt>
      <trkpt lat="60.18411" lon="7.48119">
        <ele>1247.93</ele>
        <time>2019-04-04T15:14:14Z</time>
      </trkpt>
      <trkpt lat="60.18417" lon="7.48115">
        <ele>1246.49</ele>
        <time>2019-04-04T15:14:15Z</time>
      </trkpt>
      <trkpt lat="60.18423" lon="7.48111">
        <ele>1246.49</ele>
        <time>2019-04-04T15:14:16Z</time>
      </trkpt>
      <trkpt lat="60.1843" lon="7.48108">
        <ele>1246.01</ele>
        <time>2019-04-04T15:14:17Z</time>
      </trkpt>
      <trkpt lat="60.18446" lon="7.48109">
        <ele>1246.01</ele>
        <time>2019-04-04T15:14:20Z</time>
      </trkpt>
      <trkpt lat="60.18451" lon="7.48113">
        <ele>1246.01</ele>
        <time>2019-04-04T15:14:21Z</time>
      </trkpt>
      <trkpt lat="60.18473" lon="7.48136">
        <ele>1247.45</ele>
        <time>2019-04-04T15:14:27Z</time>
      </trkpt>
      <trkpt lat="60.18482" lon="7.48146">
        <ele>1248.41</ele>
        <time>2019-04-04T15:14:30Z</time>
      </trkpt>
      <trkpt lat="60.18485" lon="7.4814">
        <ele>1248.41</ele>
        <time>2019-04-04T15:14:35Z</time>
      </trkpt>
      <trkpt lat="60.18484" lon="7.48141">
        <ele>1246.97</ele>
        <time>2019-04-04T15:14:44Z</time>
      </trkpt>
      <trkpt lat="60.18483" lon="7.48141">
        <ele>1246.49</ele>
        <time>2019-04-04T15:14:57Z</time>
      </trkpt>
      <trkpt lat="60.18482" lon="7.48142">
        <ele>1245.04</ele>
        <time>2019-04-04T15:15:17Z</time>
      </trkpt>
      <trkpt lat="60.18482" lon="7.48141">
        <ele>1248.41</ele>
        <time>2019-04-04T15:15:20Z</time>
      </trkpt>
      <trkpt lat="60.18482" lon="7.48141">
        <ele>1248.41</ele>
        <time>2019-04-04T15:15:21Z</time>
      </trkpt>
      <trkpt lat="60.18483" lon="7.4814">
        <ele>1247.45</ele>
        <time>2019-04-04T15:15:23Z</time>
      </trkpt>
      <trkpt lat="60.18483" lon="7.48141">
        <ele>1247.93</ele>
        <time>2019-04-04T15:15:34Z</time>
      </trkpt>
      <trkpt lat="60.18483" lon="7.48141">
        <ele>1246.49</ele>
        <time>2019-04-04T15:15:36Z</time>
      </trkpt>
      <trkpt lat="60.18483" lon="7.4814">
        <ele>1247.45</ele>
        <time>2019-04-04T15:15:51Z</time>
      </trkpt>
      <trkpt lat="60.18483" lon="7.48139">
        <ele>1247.45</ele>
        <time>2019-04-04T15:16:07Z</time>
      </trkpt>
      <trkpt lat="60.18483" lon="7.48139">
        <ele>1247.93</ele>
        <time>2019-04-04T15:16:24Z</time>
      </trkpt>
      <trkpt lat="60.18482" lon="7.48138">
        <ele>1247.93</ele>
        <time>2019-04-04T15:16:34Z</time>
      </trkpt>
      <trkpt lat="60.18476" lon="7.48125">
        <ele>1247.93</ele>
        <time>2019-04-04T15:16:41Z</time>
      </trkpt>
      <trkpt lat="60.18472" lon="7.48103">
        <ele>1246.01</ele>
        <time>2019-04-04T15:16:52Z</time>
      </trkpt>
      <trkpt lat="60.18471" lon="7.48102">
        <ele>1244.56</ele>
        <time>2019-04-04T15:16:57Z</time>
      </trkpt>
      <trkpt lat="60.18471" lon="7.48102">
        <ele>1246.49</ele>
        <time>2019-04-04T15:16:59Z</time>
      </trkpt>
      <trkpt lat="60.18472" lon="7.48102">
        <ele>1246.49</ele>
        <time>2019-04-04T15:17:18Z</time>
      </trkpt>
      <trkpt lat="60.18472" lon="7.48101">
        <ele>1246.49</ele>
        <time>2019-04-04T15:17:40Z</time>
      </trkpt>
      <trkpt lat="60.18473" lon="7.48101">
        <ele>1246.97</ele>
        <time>2019-04-04T15:18:02Z</time>
      </trkpt>
    </trkseg>
  </trk>
</gpx>